<?xml version='1.0' encoding='UTF-8'?><gpx version="1.1" creator="JPX - https://github.com/jenetics/jpx" xmlns="http://www.topografix.com/GPX/1/1"><trk><trkseg><trkpt lat="41.86460640339259" lon="12.634273141133702"><ele>71.0</ele><time>2026-04-12T05:52:10.999Z</time></trkpt><trkpt lat="41.86467554762987" lon="12.634305304508855"><ele>71.0</ele><time>2026-04-12T05:55:47.999Z</time></trkpt><trkpt lat="41.86474274603053" lon="12.634316619091276"><ele>71.0</ele><time>2026-04-12T05:55:50.999Z</time></trkpt><trkpt lat="41.86479171534946" lon="12.634249962093111"><ele>71.0</ele><time>2026-04-12T05:55:57.999Z</time></trkpt><trkpt lat="41.86463485275845" lon="12.634308221591025"><ele>71.0</ele><time>2026-04-12T05:56:37.101Z</time></trkpt><trkpt lat="41.864729515955" lon="12.634291077395872"><ele>71.0</ele><time>2026-04-12T06:07:28.009Z</time></trkpt><trkpt lat="41.86464597082605" lon="12.634321994687992"><ele>71.0</ele><time>2026-04-12T06:09:04.811Z</time></trkpt></trkseg><trkseg><trkpt lat="41.864716486292245" lon="12.634267954577936"><ele>71.0</ele><time>2026-04-12T06:57:48Z</time></trkpt><trkpt lat="41.864649501953146" lon="12.634327686801052"><ele>71.0</ele><time>2026-04-12T06:57:49Z</time></trkpt><trkpt lat="41.8646172285749" lon="12.634244291009606"><ele>71.0</ele><time>2026-04-12T07:33:42.999Z</time></trkpt><trkpt lat="41.864697914974684" lon="12.63430040885621"><ele>71.0</ele><time>2026-04-12T07:33:57.071Z</time></trkpt><trkpt lat="41.864676336955306" lon="12.6344306806052"><ele>71.0</ele><time>2026-04-12T07:33:58.067Z</time></trkpt><trkpt lat="41.86458710541149" lon="12.634508127025722"><ele>71.0</ele><time>2026-04-12T07:34:12.069Z</time></trkpt><trkpt lat="41.86452135430163" lon="12.634531729463136"><ele>71.0</ele><time>2026-04-12T07:34:17.999Z</time></trkpt><trkpt lat="41.86458680200646" lon="12.634471495485249"><ele>71.0</ele><time>2026-04-12T07:34:22.998Z</time></trkpt><trkpt lat="41.864664882690285" lon="12.634422225221272"><ele>71.0</ele><time>2026-04-12T07:34:25.998Z</time></trkpt><trkpt lat="41.86463295347306" lon="12.634238342702382"><ele>71.0</ele><time>2026-04-12T07:35:48.997Z</time></trkpt><trkpt lat="41.864592606540306" lon="12.634326196745949"><ele>71.0</ele><time>2026-04-12T07:36:28.999Z</time></trkpt><trkpt lat="41.8645935434815" lon="12.634417050284513"><ele>71.0</ele><time>2026-04-12T07:36:32.999Z</time></trkpt><trkpt lat="41.86465770304943" lon="12.634440815862218"><ele>71.0</ele><time>2026-04-12T07:36:35.999Z</time></trkpt><trkpt lat="41.86473079147594" lon="12.634449699917322"><ele>71.0</ele><time>2026-04-12T07:36:38.999Z</time></trkpt><trkpt lat="41.86477502399313" lon="12.634365903056578"><ele>71.0</ele><time>2026-04-12T07:36:40.999Z</time></trkpt><trkpt lat="41.864784306933764" lon="12.634266032486694"><ele>71.0</ele><time>2026-04-12T07:36:42.999Z</time></trkpt><trkpt lat="41.864789996145866" lon="12.634178611575242"><ele>71.0</ele><time>2026-04-12T07:36:44.999Z</time></trkpt><trkpt lat="41.86481281049399" lon="12.63405935418798"><ele>71.0</ele><time>2026-04-12T07:36:47.999Z</time></trkpt><trkpt lat="41.864805809792585" lon="12.633947322419383"><ele>71.0</ele><time>2026-04-12T07:36:50.999Z</time></trkpt><trkpt lat="41.8647341189682" lon="12.63387247212038"><ele>71.0</ele><time>2026-04-12T07:36:53.999Z</time></trkpt><trkpt lat="41.86466361345489" lon="12.633864848482785"><ele>71.0</ele><time>2026-04-12T07:36:55.999Z</time></trkpt><trkpt lat="41.86457493232693" lon="12.63385732456877"><ele>71.0</ele><time>2026-04-12T07:36:58.998Z</time></trkpt><trkpt lat="41.86451426883979" lon="12.633807655504928"><ele>71.0</ele><time>2026-04-12T07:37:04.998Z</time></trkpt><trkpt lat="41.86451717322071" lon="12.633701463714086"><ele>71.0</ele><time>2026-04-12T07:37:06.998Z</time></trkpt><trkpt lat="41.864524159486535" lon="12.633597567380422"><ele>71.71428571428571</ele><time>2026-04-12T07:37:08.998Z</time></trkpt><trkpt lat="41.86453281828382" lon="12.633506706547308"><ele>72.42857142857142</ele><time>2026-04-12T07:37:10.998Z</time></trkpt><trkpt lat="41.86455369390167" lon="12.633399424755059"><ele>73.14285714285714</ele><time>2026-04-12T07:37:12.998Z</time></trkpt><trkpt lat="41.86455621266596" lon="12.633300760630375"><ele>73.85714285714286</ele><time>2026-04-12T07:37:14.998Z</time></trkpt><trkpt lat="41.86456331922348" lon="12.633211455183867"><ele>74.57142857142858</ele><time>2026-04-12T07:37:16.998Z</time></trkpt><trkpt lat="41.86456536594295" lon="12.633120374133354"><ele>75.28571428571428</ele><time>2026-04-12T07:37:18.998Z</time></trkpt><trkpt lat="41.86457144179646" lon="12.633030035645078"><ele>76.0</ele><time>2026-04-12T07:37:20.998Z</time></trkpt><trkpt lat="41.86457035084214" lon="12.63290803823659"><ele>76.0</ele><time>2026-04-12T07:37:23.998Z</time></trkpt><trkpt lat="41.864569278502294" lon="12.632822539352455"><ele>76.0</ele><time>2026-04-12T07:37:25.998Z</time></trkpt><trkpt lat="41.86457105707945" lon="12.632707313352714"><ele>76.0</ele><time>2026-04-12T07:37:28.998Z</time></trkpt><trkpt lat="41.86456868772413" lon="12.632621234357156"><ele>76.0</ele><time>2026-04-12T07:37:30.998Z</time></trkpt><trkpt lat="41.86456468553558" lon="12.632528534403663"><ele>76.0</ele><time>2026-04-12T07:37:32.998Z</time></trkpt><trkpt lat="41.86454856906787" lon="12.632440443377533"><ele>76.0</ele><time>2026-04-12T07:37:35.998Z</time></trkpt><trkpt lat="41.86453457240511" lon="12.632350688408856"><ele>76.0</ele><time>2026-04-12T07:37:38.998Z</time></trkpt><trkpt lat="41.864523760289735" lon="12.63226594985371"><ele>75.33333333333333</ele><time>2026-04-12T07:37:41.998Z</time></trkpt><trkpt lat="41.86446838914836" lon="12.632222204003194"><ele>74.66666666666666</ele><time>2026-04-12T07:37:44.998Z</time></trkpt><trkpt lat="41.86440879546533" lon="12.632288645278937"><ele>74.0</ele><time>2026-04-12T07:37:47.998Z</time></trkpt><trkpt lat="41.86436106780166" lon="12.632353505148243"><ele>73.33333333333333</ele><time>2026-04-12T07:38:06.999Z</time></trkpt><trkpt lat="41.86436627350936" lon="12.632256845913105"><ele>72.66666666666667</ele><time>2026-04-12T07:40:42.999Z</time></trkpt><trkpt lat="41.864344261630265" lon="12.632370293149561"><ele>72.0</ele><time>2026-04-12T07:41:25.998Z</time></trkpt><trkpt lat="41.864337669956925" lon="12.632493217020533"><ele>72.0</ele><time>2026-04-12T07:41:28.998Z</time></trkpt><trkpt lat="41.8643357930696" lon="12.632620788411346"><ele>72.0</ele><time>2026-04-12T07:41:31.998Z</time></trkpt><trkpt lat="41.86433259782367" lon="12.632743949108047"><ele>72.0</ele><time>2026-04-12T07:41:34.998Z</time></trkpt><trkpt lat="41.864332938775725" lon="12.632828960250057"><ele>72.0</ele><time>2026-04-12T07:41:36.998Z</time></trkpt><trkpt lat="41.86433399252858" lon="12.632956321717408"><ele>72.0</ele><time>2026-04-12T07:41:39.998Z</time></trkpt><trkpt lat="41.864331636216505" lon="12.63305631245945"><ele>72.0</ele><time>2026-04-12T07:41:41.998Z</time></trkpt><trkpt lat="41.86433040325054" lon="12.633176051890834"><ele>72.66666666666667</ele><time>2026-04-12T07:41:44.998Z</time></trkpt><trkpt lat="41.86431534631842" lon="12.633288180655217"><ele>73.33333333333333</ele><time>2026-04-12T07:41:47.998Z</time></trkpt><trkpt lat="41.8643169000414" lon="12.633378671095896"><ele>74.0</ele><time>2026-04-12T07:41:51.998Z</time></trkpt><trkpt lat="41.86436790371839" lon="12.633325853655991"><ele>74.66666666666666</ele><time>2026-04-12T07:41:56.998Z</time></trkpt><trkpt lat="41.86435202524309" lon="12.633232131931262"><ele>75.33333333333333</ele><time>2026-04-12T07:41:59.997Z</time></trkpt><trkpt lat="41.864354595060405" lon="12.633127596780945"><ele>76.0</ele><time>2026-04-12T07:42:02.997Z</time></trkpt><trkpt lat="41.86435819305164" lon="12.633009528389978"><ele>76.0</ele><time>2026-04-12T07:42:05.997Z</time></trkpt><trkpt lat="41.864365971204656" lon="12.632902119366243"><ele>76.0</ele><time>2026-04-12T07:42:08.999Z</time></trkpt><trkpt lat="41.86437047001045" lon="12.632798273918628"><ele>76.0</ele><time>2026-04-12T07:42:12Z</time></trkpt><trkpt lat="41.86437147894018" lon="12.632699268078067"><ele>76.0</ele><time>2026-04-12T07:42:15Z</time></trkpt><trkpt lat="41.86437458043639" lon="12.632597157828162"><ele>76.0</ele><time>2026-04-12T07:42:18Z</time></trkpt><trkpt lat="41.86437555239423" lon="12.632491818333431"><ele>76.0</ele><time>2026-04-12T07:42:21Z</time></trkpt><trkpt lat="41.86437677890206" lon="12.63238581701499"><ele>75.33333333333333</ele><time>2026-04-12T07:42:24Z</time></trkpt><trkpt lat="41.86440278993645" lon="12.632273401666316"><ele>74.66666666666666</ele><time>2026-04-12T07:42:27Z</time></trkpt><trkpt lat="41.8644748155076" lon="12.632233218248968"><ele>74.0</ele><time>2026-04-12T07:42:31Z</time></trkpt><trkpt lat="41.86450900822983" lon="12.6323108571317"><ele>73.33333333333333</ele><time>2026-04-12T07:42:34Z</time></trkpt><trkpt lat="41.86450487312083" lon="12.632396499891833"><ele>72.66666666666667</ele><time>2026-04-12T07:42:36Z</time></trkpt><trkpt lat="41.86451328346886" lon="12.632518406573654"><ele>72.0</ele><time>2026-04-12T07:42:39Z</time></trkpt><trkpt lat="41.864513494646054" lon="12.632603602148224"><ele>72.00000000000001</ele><time>2026-04-12T07:42:41Z</time></trkpt><trkpt lat="41.86451264326363" lon="12.632696695538627"><ele>72.0</ele><time>2026-04-12T07:42:43Z</time></trkpt><trkpt lat="41.86452396783372" lon="12.632790448526663"><ele>72.0</ele><time>2026-04-12T07:42:45Z</time></trkpt><trkpt lat="41.864541907750244" lon="12.632878485747662"><ele>72.0</ele><time>2026-04-12T07:42:48Z</time></trkpt><trkpt lat="41.86453929572063" lon="12.632982007053975"><ele>72.0</ele><time>2026-04-12T07:42:52Z</time></trkpt><trkpt lat="41.86453034112338" lon="12.633083722153488"><ele>72.00000000000001</ele><time>2026-04-12T07:42:55Z</time></trkpt><trkpt lat="41.86452483673752" lon="12.633178920549353"><ele>72.0</ele><time>2026-04-12T07:42:58Z</time></trkpt><trkpt lat="41.864517349127645" lon="12.633267685742402"><ele>71.83333333333333</ele><time>2026-04-12T07:43:00Z</time></trkpt><trkpt lat="41.86450939742193" lon="12.633375579790444"><ele>71.66666666666667</ele><time>2026-04-12T07:43:02Z</time></trkpt><trkpt lat="41.86451752845035" lon="12.633483601320922"><ele>71.5</ele><time>2026-04-12T07:43:04Z</time></trkpt><trkpt lat="41.86451851467924" lon="12.633602737148793"><ele>71.33333333333334</ele><time>2026-04-12T07:43:06Z</time></trkpt><trkpt lat="41.86451111834601" lon="12.633708728126681"><ele>71.16666666666667</ele><time>2026-04-12T07:43:08Z</time></trkpt><trkpt lat="41.864506263870744" lon="12.633816523663606"><ele>71.0</ele><time>2026-04-12T07:43:10Z</time></trkpt><trkpt lat="41.86450215650034" lon="12.63391735933168"><ele>71.0</ele><time>2026-04-12T07:43:12Z</time></trkpt><trkpt lat="41.86448806290189" lon="12.63400930604149"><ele>71.0</ele><time>2026-04-12T07:43:13.999Z</time></trkpt><trkpt lat="41.8644861212994" lon="12.634095913684396"><ele>71.0</ele><time>2026-04-12T07:43:15.999Z</time></trkpt><trkpt lat="41.86447760181784" lon="12.634182134338188"><ele>71.0</ele><time>2026-04-12T07:43:17.999Z</time></trkpt><trkpt lat="41.8644528123185" lon="12.634295621192166"><ele>71.0</ele><time>2026-04-12T07:43:20.999Z</time></trkpt><trkpt lat="41.86443980564745" lon="12.634421041467842"><ele>71.0</ele><time>2026-04-12T07:43:23.999Z</time></trkpt><trkpt lat="41.864430385798464" lon="12.63453586424248"><ele>70.33333333333334</ele><time>2026-04-12T07:43:26.999Z</time></trkpt><trkpt lat="41.86441063553006" lon="12.634647924954"><ele>69.66666666666667</ele><time>2026-04-12T07:43:29.999Z</time></trkpt><trkpt lat="41.864398761751175" lon="12.634761219764647"><ele>69.0</ele><time>2026-04-12T07:43:32.999Z</time></trkpt><trkpt lat="41.86438667506222" lon="12.634873055425913"><ele>68.33333333333333</ele><time>2026-04-12T07:43:35.999Z</time></trkpt><trkpt lat="41.864402284759784" lon="12.634957685589452"><ele>67.66666666666666</ele><time>2026-04-12T07:43:37.999Z</time></trkpt><trkpt lat="41.86447471544087" lon="12.63498952409516"><ele>67.0</ele><time>2026-04-12T07:43:40.999Z</time></trkpt><trkpt lat="41.864521223249255" lon="12.63490609940478"><ele>67.0</ele><time>2026-04-12T07:43:43.999Z</time></trkpt><trkpt lat="41.86455895977279" lon="12.63482987860108"><ele>67.0</ele><time>2026-04-12T07:43:45.999Z</time></trkpt><trkpt lat="41.864576966667215" lon="12.634713921088009"><ele>67.0</ele><time>2026-04-12T07:43:48.999Z</time></trkpt><trkpt lat="41.86458778512983" lon="12.634621089609741"><ele>67.0</ele><time>2026-04-12T07:43:50.999Z</time></trkpt><trkpt lat="41.86460395433358" lon="12.634527842974425"><ele>67.0</ele><time>2026-04-12T07:43:52.999Z</time></trkpt><trkpt lat="41.86461320338223" lon="12.634410946154082"><ele>67.0</ele><time>2026-04-12T07:43:55.999Z</time></trkpt><trkpt lat="41.86462630464001" lon="12.634300321322677"><ele>67.66666666666666</ele><time>2026-04-12T07:43:58.999Z</time></trkpt><trkpt lat="41.86457458130391" lon="12.634365219398832"><ele>68.33333333333333</ele><time>2026-04-12T07:44:30Z</time></trkpt><trkpt lat="41.86452912747147" lon="12.634429677941915"><ele>69.0</ele><time>2026-04-12T07:44:37.035Z</time></trkpt><trkpt lat="41.864563823431354" lon="12.634294282184054"><ele>69.66666666666667</ele><time>2026-04-12T07:44:46Z</time></trkpt><trkpt lat="41.86453053613074" lon="12.634205013383045"><ele>70.33333333333334</ele><time>2026-04-12T07:47:45.999Z</time></trkpt><trkpt lat="41.86449508182669" lon="12.634128151116851"><ele>71.0</ele><time>2026-04-12T07:47:51.999Z</time></trkpt><trkpt lat="41.864503449209344" lon="12.633906971937517"><ele>71.0</ele><time>2026-04-12T07:48:01.999Z</time></trkpt><trkpt lat="41.864514979582964" lon="12.633820506735196"><ele>71.0</ele><time>2026-04-12T07:48:02.999Z</time></trkpt><trkpt lat="41.86452589138886" lon="12.63365768393445"><ele>71.0</ele><time>2026-04-12T07:48:04.999Z</time></trkpt><trkpt lat="41.86454408773563" lon="12.633496522368736"><ele>71.0</ele><time>2026-04-12T07:48:06.999Z</time></trkpt><trkpt lat="41.86455097670747" lon="12.633405371461642"><ele>71.0</ele><time>2026-04-12T07:48:07.999Z</time></trkpt><trkpt lat="41.86456082555495" lon="12.633317063839"><ele>71.0</ele><time>2026-04-12T07:48:08.999Z</time></trkpt><trkpt lat="41.864564682616944" lon="12.633225619917456"><ele>71.16666666666667</ele><time>2026-04-12T07:48:09.999Z</time></trkpt><trkpt lat="41.86457408531419" lon="12.633131907950382"><ele>71.33333333333334</ele><time>2026-04-12T07:48:10.999Z</time></trkpt><trkpt lat="41.864573706728535" lon="12.633047199239769"><ele>71.5</ele><time>2026-04-12T07:48:11.999Z</time></trkpt><trkpt lat="41.86457983290557" lon="12.63295302625009"><ele>71.66666666666667</ele><time>2026-04-12T07:48:12.999Z</time></trkpt><trkpt lat="41.8645731544823" lon="12.632860368268947"><ele>71.83333333333333</ele><time>2026-04-12T07:48:13.999Z</time></trkpt><trkpt lat="41.86455192327253" lon="12.632698925806574"><ele>72.0</ele><time>2026-04-12T07:48:15.999Z</time></trkpt><trkpt lat="41.86454505868977" lon="12.632552138238546"><ele>72.0</ele><time>2026-04-12T07:48:17.998Z</time></trkpt><trkpt lat="41.86455089902802" lon="12.632419736542701"><ele>72.0</ele><time>2026-04-12T07:48:19.998Z</time></trkpt><trkpt lat="41.86453699466608" lon="12.632299270018047"><ele>72.0</ele><time>2026-04-12T07:48:21.998Z</time></trkpt><trkpt lat="41.864512579730786" lon="12.632205560274121"><ele>72.0</ele><time>2026-04-12T07:48:23.998Z</time></trkpt><trkpt lat="41.86452971176112" lon="12.632106503034114"><ele>72.0</ele><time>2026-04-12T07:48:29Z</time></trkpt><trkpt lat="41.86453158604052" lon="12.631960682293391"><ele>72.0</ele><time>2026-04-12T07:48:31Z</time></trkpt><trkpt lat="41.864371384247576" lon="12.63179532795488"><ele>71.83333333333333</ele><time>2026-04-12T07:48:33Z</time></trkpt><trkpt lat="41.86436406279435" lon="12.63166298084054"><ele>71.66666666666667</ele><time>2026-04-12T07:48:35Z</time></trkpt><trkpt lat="41.864366370441616" lon="12.631555132898693"><ele>71.5</ele><time>2026-04-12T07:48:38Z</time></trkpt><trkpt lat="41.86437833670031" lon="12.631467339275748"><ele>71.33333333333334</ele><time>2026-04-12T07:48:41Z</time></trkpt><trkpt lat="41.86446881367664" lon="12.63146571453743"><ele>71.16666666666667</ele><time>2026-04-12T07:48:42Z</time></trkpt><trkpt lat="41.86453111444537" lon="12.631438556193551"><ele>71.0</ele><time>2026-04-12T07:48:43Z</time></trkpt><trkpt lat="41.864589187140616" lon="12.631382127450053"><ele>71.0</ele><time>2026-04-12T07:48:44Z</time></trkpt><trkpt lat="41.86464707676331" lon="12.631331719104141"><ele>71.0</ele><time>2026-04-12T07:48:45Z</time></trkpt><trkpt lat="41.86473583267839" lon="12.63122118119497"><ele>71.0</ele><time>2026-04-12T07:48:47Z</time></trkpt><trkpt lat="41.86476660890178" lon="12.631144485095115"><ele>71.0</ele><time>2026-04-12T07:48:48Z</time></trkpt><trkpt lat="41.86479866392681" lon="12.63105211719017"><ele>71.0</ele><time>2026-04-12T07:48:49Z</time></trkpt><trkpt lat="41.86483207158808" lon="12.630955775595993"><ele>71.0</ele><time>2026-04-12T07:48:50Z</time></trkpt><trkpt lat="41.86486643515956" lon="12.630855955300738"><ele>71.0</ele><time>2026-04-12T07:48:51Z</time></trkpt><trkpt lat="41.86490234291222" lon="12.630752835728238"><ele>71.0</ele><time>2026-04-12T07:48:52Z</time></trkpt><trkpt lat="41.8649400992869" lon="12.630646825635615"><ele>71.0</ele><time>2026-04-12T07:48:53Z</time></trkpt><trkpt lat="41.86498305846259" lon="12.630546959790598"><ele>71.0</ele><time>2026-04-12T07:48:54Z</time></trkpt><trkpt lat="41.865019210044544" lon="12.630451429284006"><ele>71.0</ele><time>2026-04-12T07:48:55Z</time></trkpt><trkpt lat="41.86504505889047" lon="12.630340198300367"><ele>71.0</ele><time>2026-04-12T07:48:56Z</time></trkpt><trkpt lat="41.865075162777906" lon="12.630248389940673"><ele>71.0</ele><time>2026-04-12T07:48:57Z</time></trkpt><trkpt lat="41.86512440269221" lon="12.630120230386963"><ele>71.0</ele><time>2026-04-12T07:48:59Z</time></trkpt><trkpt lat="41.865145977300756" lon="12.630023138985393"><ele>71.0</ele><time>2026-04-12T07:49:03Z</time></trkpt><trkpt lat="41.86518871977892" lon="12.62993220207935"><ele>71.0</ele><time>2026-04-12T07:49:05Z</time></trkpt><trkpt lat="41.86523288162149" lon="12.629812033802471"><ele>71.0</ele><time>2026-04-12T07:49:07Z</time></trkpt><trkpt lat="41.86530266862368" lon="12.629693665397381"><ele>71.0</ele><time>2026-04-12T07:49:09Z</time></trkpt><trkpt lat="41.865345588315954" lon="12.629619670888864"><ele>71.0</ele><time>2026-04-12T07:49:10Z</time></trkpt><trkpt lat="41.865399014931604" lon="12.629549536044799"><ele>71.0</ele><time>2026-04-12T07:49:11Z</time></trkpt><trkpt lat="41.86545015936519" lon="12.629488200389575"><ele>71.0</ele><time>2026-04-12T07:49:12Z</time></trkpt><trkpt lat="41.86550188546376" lon="12.629425259672443"><ele>71.0</ele><time>2026-04-12T07:49:13Z</time></trkpt><trkpt lat="41.865549470077944" lon="12.629362924694306"><ele>71.0</ele><time>2026-04-12T07:49:14Z</time></trkpt><trkpt lat="41.86559796033455" lon="12.629294929937808"><ele>71.0</ele><time>2026-04-12T07:49:15Z</time></trkpt><trkpt lat="41.86564462256304" lon="12.62922583340578"><ele>71.16666666666667</ele><time>2026-04-12T07:49:16Z</time></trkpt><trkpt lat="41.86570219513744" lon="12.629153978473635"><ele>71.33333333333334</ele><time>2026-04-12T07:49:17Z</time></trkpt><trkpt lat="41.86575342363819" lon="12.629070905699624"><ele>71.5</ele><time>2026-04-12T07:49:18Z</time></trkpt><trkpt lat="41.86580489636567" lon="12.629000117128909"><ele>71.66666666666667</ele><time>2026-04-12T07:49:19Z</time></trkpt><trkpt lat="41.86586890221178" lon="12.628932038445216"><ele>71.83333333333333</ele><time>2026-04-12T07:49:20Z</time></trkpt><trkpt lat="41.865931808499184" lon="12.62885666433082"><ele>72.0</ele><time>2026-04-12T07:49:21Z</time></trkpt><trkpt lat="41.865981379989776" lon="12.62876459344509"><ele>71.5</ele><time>2026-04-12T07:49:22Z</time></trkpt><trkpt lat="41.86605810879838" lon="12.62868641349644"><ele>71.0</ele><time>2026-04-12T07:49:23Z</time></trkpt><trkpt lat="41.86612158607276" lon="12.62860104111627"><ele>70.5</ele><time>2026-04-12T07:49:24Z</time></trkpt><trkpt lat="41.86618241000534" lon="12.628516823512257"><ele>70.0</ele><time>2026-04-12T07:49:25Z</time></trkpt><trkpt lat="41.86623929546554" lon="12.628450810197364"><ele>69.5</ele><time>2026-04-12T07:49:26Z</time></trkpt><trkpt lat="41.86629083929188" lon="12.628385785899418"><ele>69.0</ele><time>2026-04-12T07:49:27Z</time></trkpt><trkpt lat="41.86634056787941" lon="12.628313658513559"><ele>69.0</ele><time>2026-04-12T07:49:28Z</time></trkpt><trkpt lat="41.866401222379295" lon="12.62823760944153"><ele>69.0</ele><time>2026-04-12T07:49:29Z</time></trkpt><trkpt lat="41.8664722872995" lon="12.62815529341235"><ele>69.0</ele><time>2026-04-12T07:49:30Z</time></trkpt><trkpt lat="41.866532415187926" lon="12.62807181510884"><ele>69.0</ele><time>2026-04-12T07:49:31Z</time></trkpt><trkpt lat="41.86659302246634" lon="12.627983570136303"><ele>69.0</ele><time>2026-04-12T07:49:31.999Z</time></trkpt><trkpt lat="41.866657733705594" lon="12.627896427654015"><ele>69.0</ele><time>2026-04-12T07:49:32.999Z</time></trkpt><trkpt lat="41.866716033454374" lon="12.627815804451185"><ele>69.28571428571429</ele><time>2026-04-12T07:49:33.999Z</time></trkpt><trkpt lat="41.86677894344766" lon="12.627741806895884"><ele>69.57142857142858</ele><time>2026-04-12T07:49:34.999Z</time></trkpt><trkpt lat="41.86682861864717" lon="12.627674090828553"><ele>69.85714285714286</ele><time>2026-04-12T07:49:35.999Z</time></trkpt><trkpt lat="41.86687806782784" lon="12.62761049641362"><ele>70.14285714285714</ele><time>2026-04-12T07:49:36.999Z</time></trkpt><trkpt lat="41.86692170468572" lon="12.627544987195309"><ele>70.42857142857142</ele><time>2026-04-12T07:49:37.999Z</time></trkpt><trkpt lat="41.866966830983216" lon="12.62748277785797"><ele>70.71428571428571</ele><time>2026-04-12T07:49:38.999Z</time></trkpt><trkpt lat="41.86702083986467" lon="12.627418681568425"><ele>71.0</ele><time>2026-04-12T07:49:39.999Z</time></trkpt><trkpt lat="41.86707400316096" lon="12.627353830523104"><ele>71.0</ele><time>2026-04-12T07:49:40.999Z</time></trkpt><trkpt lat="41.86712718162911" lon="12.627294466939304"><ele>71.0</ele><time>2026-04-12T07:49:41.999Z</time></trkpt><trkpt lat="41.867177696232694" lon="12.627233739334576"><ele>71.0</ele><time>2026-04-12T07:49:42.999Z</time></trkpt><trkpt lat="41.86723130702622" lon="12.627173181363304"><ele>71.0</ele><time>2026-04-12T07:49:43.999Z</time></trkpt><trkpt lat="41.86728968151766" lon="12.627121275088815"><ele>71.0</ele><time>2026-04-12T07:49:44.999Z</time></trkpt><trkpt lat="41.867348228111695" lon="12.627062724536504"><ele>71.0</ele><time>2026-04-12T07:49:45.999Z</time></trkpt><trkpt lat="41.86740997441436" lon="12.627003202600006"><ele>71.0</ele><time>2026-04-12T07:49:46.999Z</time></trkpt><trkpt lat="41.86746965028747" lon="12.626938777252224"><ele>71.0</ele><time>2026-04-12T07:49:47.999Z</time></trkpt><trkpt lat="41.86753848038974" lon="12.62687840249778"><ele>71.0</ele><time>2026-04-12T07:49:48.999Z</time></trkpt><trkpt lat="41.86760717827511" lon="12.62681522759983"><ele>71.0</ele><time>2026-04-12T07:49:49.999Z</time></trkpt><trkpt lat="41.86767614903974" lon="12.626748667494223"><ele>71.0</ele><time>2026-04-12T07:49:50.999Z</time></trkpt><trkpt lat="41.867739514835414" lon="12.626686809161686"><ele>71.0</ele><time>2026-04-12T07:49:51.999Z</time></trkpt><trkpt lat="41.86779613185201" lon="12.626632027736449"><ele>71.0</ele><time>2026-04-12T07:49:52.999Z</time></trkpt><trkpt lat="41.86784800883482" lon="12.626573028727611"><ele>71.14285714285714</ele><time>2026-04-12T07:49:53.999Z</time></trkpt><trkpt lat="41.86789726357469" lon="12.62651833780192"><ele>71.28571428571428</ele><time>2026-04-12T07:49:54.999Z</time></trkpt><trkpt lat="41.86795518935977" lon="12.626451685884962"><ele>71.42857142857143</ele><time>2026-04-12T07:49:57.999Z</time></trkpt><trkpt lat="41.86800778028974" lon="12.626400141573995"><ele>71.57142857142857</ele><time>2026-04-12T07:49:59.999Z</time></trkpt><trkpt lat="41.86808196140356" lon="12.626317309458106"><ele>71.71428571428572</ele><time>2026-04-12T07:50:01.999Z</time></trkpt><trkpt lat="41.86812801479159" lon="12.626259490897462"><ele>71.85714285714286</ele><time>2026-04-12T07:50:02.999Z</time></trkpt><trkpt lat="41.868181229404314" lon="12.626202151497736"><ele>72.0</ele><time>2026-04-12T07:50:03.999Z</time></trkpt><trkpt lat="41.86823603957328" lon="12.626143496339127"><ele>72.0</ele><time>2026-04-12T07:50:04.999Z</time></trkpt><trkpt lat="41.86828814602776" lon="12.626087132851216"><ele>72.0</ele><time>2026-04-12T07:50:05.999Z</time></trkpt><trkpt lat="41.868341749930046" lon="12.626030601946537"><ele>72.0</ele><time>2026-04-12T07:50:06.999Z</time></trkpt><trkpt lat="41.86838994195895" lon="12.625972995442101"><ele>72.0</ele><time>2026-04-12T07:50:07.999Z</time></trkpt><trkpt lat="41.86846690206889" lon="12.625878146839689"><ele>72.0</ele><time>2026-04-12T07:50:09.999Z</time></trkpt><trkpt lat="41.86851194984053" lon="12.625805572017876"><ele>72.0</ele><time>2026-04-12T07:50:11.999Z</time></trkpt><trkpt lat="41.86857277989124" lon="12.625715689276193"><ele>71.66666666666667</ele><time>2026-04-12T07:50:13.999Z</time></trkpt><trkpt lat="41.86864804859645" lon="12.625604367139562"><ele>71.33333333333333</ele><time>2026-04-12T07:50:15.999Z</time></trkpt><trkpt lat="41.8686991163315" lon="12.625545836924454"><ele>71.0</ele><time>2026-04-12T07:50:16.999Z</time></trkpt><trkpt lat="41.868752515151336" lon="12.625481843181975"><ele>70.66666666666666</ele><time>2026-04-12T07:50:17.999Z</time></trkpt><trkpt lat="41.868805978518395" lon="12.625411835463893"><ele>70.33333333333333</ele><time>2026-04-12T07:50:18.999Z</time></trkpt><trkpt lat="41.86887038853624" lon="12.625342139081555"><ele>70.0</ele><time>2026-04-12T07:50:19.999Z</time></trkpt><trkpt lat="41.86893465511847" lon="12.62526452197181"><ele>69.66666666666666</ele><time>2026-04-12T07:50:20.999Z</time></trkpt><trkpt lat="41.86900671101441" lon="12.62519133352165"><ele>69.33333333333333</ele><time>2026-04-12T07:50:21.999Z</time></trkpt><trkpt lat="41.86906671622708" lon="12.625108591752282"><ele>69.0</ele><time>2026-04-12T07:50:22.999Z</time></trkpt><trkpt lat="41.86912735834764" lon="12.625027919372188"><ele>68.66666666666667</ele><time>2026-04-12T07:50:23.998Z</time></trkpt><trkpt lat="41.86918713872736" lon="12.624945132674608"><ele>68.33333333333334</ele><time>2026-04-12T07:50:24.998Z</time></trkpt><trkpt lat="41.86924233384871" lon="12.624854569390257"><ele>68.0</ele><time>2026-04-12T07:50:25.998Z</time></trkpt><trkpt lat="41.86930479312218" lon="12.624763320011175"><ele>68.0</ele><time>2026-04-12T07:50:26.998Z</time></trkpt><trkpt lat="41.86937132810472" lon="12.624675481044969"><ele>68.0</ele><time>2026-04-12T07:50:27.998Z</time></trkpt><trkpt lat="41.86944244664328" lon="12.624590965922494"><ele>68.0</ele><time>2026-04-12T07:50:28.998Z</time></trkpt><trkpt lat="41.869510465420866" lon="12.624507979366305"><ele>68.0</ele><time>2026-04-12T07:50:29.998Z</time></trkpt><trkpt lat="41.869574189300494" lon="12.624422780304036"><ele>68.0</ele><time>2026-04-12T07:50:30.998Z</time></trkpt><trkpt lat="41.86963588363274" lon="12.62433770286619"><ele>67.4</ele><time>2026-04-12T07:50:31.998Z</time></trkpt><trkpt lat="41.86970176895384" lon="12.624244812740743"><ele>66.8</ele><time>2026-04-12T07:50:33Z</time></trkpt><trkpt lat="41.86976800476785" lon="12.624153016233775"><ele>66.2</ele><time>2026-04-12T07:50:34Z</time></trkpt><trkpt lat="41.86984110667561" lon="12.624063673558302"><ele>65.6</ele><time>2026-04-12T07:50:35Z</time></trkpt><trkpt lat="41.86991081958693" lon="12.623974119666514"><ele>65.0</ele><time>2026-04-12T07:50:36Z</time></trkpt><trkpt lat="41.86997635276232" lon="12.623885252874302"><ele>65.0</ele><time>2026-04-12T07:50:37Z</time></trkpt><trkpt lat="41.87004011747322" lon="12.6238015345968"><ele>65.0</ele><time>2026-04-12T07:50:38Z</time></trkpt><trkpt lat="41.87010128882023" lon="12.623720112518015"><ele>65.0</ele><time>2026-04-12T07:50:39Z</time></trkpt><trkpt lat="41.870158599084036" lon="12.62364444265722"><ele>65.0</ele><time>2026-04-12T07:50:40Z</time></trkpt><trkpt lat="41.87021206089578" lon="12.623572096739148"><ele>65.0</ele><time>2026-04-12T07:50:41Z</time></trkpt><trkpt lat="41.87026550624279" lon="12.62349873276688"><ele>65.0</ele><time>2026-04-12T07:50:42Z</time></trkpt><trkpt lat="41.87032203873257" lon="12.623420132728976"><ele>65.33333333333334</ele><time>2026-04-12T07:50:43Z</time></trkpt><trkpt lat="41.87038059262664" lon="12.623340945378313"><ele>65.66666666666667</ele><time>2026-04-12T07:50:44Z</time></trkpt><trkpt lat="41.87044236384098" lon="12.623261478589974"><ele>66.0</ele><time>2026-04-12T07:50:45Z</time></trkpt><trkpt lat="41.870508583057074" lon="12.623176234364589"><ele>66.33333333333333</ele><time>2026-04-12T07:50:46Z</time></trkpt><trkpt lat="41.87057865857087" lon="12.623092146390627"><ele>66.66666666666666</ele><time>2026-04-12T07:50:47Z</time></trkpt><trkpt lat="41.870642084189" lon="12.623003190855023"><ele>67.0</ele><time>2026-04-12T07:50:48Z</time></trkpt><trkpt lat="41.87070122107921" lon="12.622923893263351"><ele>67.0</ele><time>2026-04-12T07:50:49Z</time></trkpt><trkpt lat="41.87076236241513" lon="12.622854937267327"><ele>67.0</ele><time>2026-04-12T07:50:50Z</time></trkpt><trkpt lat="41.870818217366406" lon="12.622787795729405"><ele>67.0</ele><time>2026-04-12T07:50:51Z</time></trkpt><trkpt lat="41.87087545201599" lon="12.622713888079918"><ele>67.0</ele><time>2026-04-12T07:50:52Z</time></trkpt><trkpt lat="41.87093714434639" lon="12.622640420020602"><ele>67.0</ele><time>2026-04-12T07:50:53Z</time></trkpt><trkpt lat="41.871001653325344" lon="12.622561896254231"><ele>67.0</ele><time>2026-04-12T07:50:54Z</time></trkpt><trkpt lat="41.871064754309" lon="12.622478235848368"><ele>66.66666666666666</ele><time>2026-04-12T07:50:55Z</time></trkpt><trkpt lat="41.87112801991286" lon="12.622394162963124"><ele>66.33333333333333</ele><time>2026-04-12T07:50:56Z</time></trkpt><trkpt lat="41.871192847968864" lon="12.622316862055833"><ele>66.0</ele><time>2026-04-12T07:50:57Z</time></trkpt><trkpt lat="41.87125094304976" lon="12.622235345508862"><ele>65.66666666666667</ele><time>2026-04-12T07:50:58Z</time></trkpt><trkpt lat="41.87131353729682" lon="12.622152930623422"><ele>65.33333333333334</ele><time>2026-04-12T07:50:59Z</time></trkpt><trkpt lat="41.87137704660843" lon="12.622070412063366"><ele>65.0</ele><time>2026-04-12T07:51:00Z</time></trkpt><trkpt lat="41.87143629044485" lon="12.62199447798285"><ele>65.00000000000001</ele><time>2026-04-12T07:51:01Z</time></trkpt><trkpt lat="41.871492557197726" lon="12.621924342766649"><ele>65.0</ele><time>2026-04-12T07:51:02Z</time></trkpt><trkpt lat="41.87154387877798" lon="12.621861183113255"><ele>65.0</ele><time>2026-04-12T07:51:03Z</time></trkpt><trkpt lat="41.87159189493587" lon="12.621798350637853"><ele>65.0</ele><time>2026-04-12T07:51:04Z</time></trkpt><trkpt lat="41.871641347353396" lon="12.621735257101257"><ele>65.0</ele><time>2026-04-12T07:51:05Z</time></trkpt><trkpt lat="41.87169187936892" lon="12.621670441114489"><ele>65.00000000000001</ele><time>2026-04-12T07:51:06Z</time></trkpt><trkpt lat="41.87173998249476" lon="12.62160356252378"><ele>65.0</ele><time>2026-04-12T07:51:07Z</time></trkpt><trkpt lat="41.871787765190916" lon="12.621534488566839"><ele>65.0</ele><time>2026-04-12T07:51:08Z</time></trkpt><trkpt lat="41.87183972285965" lon="12.621466249640422"><ele>65.0</ele><time>2026-04-12T07:51:09Z</time></trkpt><trkpt lat="41.871895341511355" lon="12.62140179512986"><ele>65.0</ele><time>2026-04-12T07:51:10Z</time></trkpt><trkpt lat="41.87195357670365" lon="12.621333474889985"><ele>65.0</ele><time>2026-04-12T07:51:11Z</time></trkpt><trkpt lat="41.87201093395544" lon="12.621260004691853"><ele>65.0</ele><time>2026-04-12T07:51:12Z</time></trkpt><trkpt lat="41.872066076816246" lon="12.621185652403867"><ele>65.0</ele><time>2026-04-12T07:51:13Z</time></trkpt><trkpt lat="41.8721273732973" lon="12.62110982229024"><ele>65.16666666666667</ele><time>2026-04-12T07:51:14Z</time></trkpt><trkpt lat="41.87218728474943" lon="12.621033381856504"><ele>65.33333333333334</ele><time>2026-04-12T07:51:15Z</time></trkpt><trkpt lat="41.87224508991624" lon="12.620957123135494"><ele>65.5</ele><time>2026-04-12T07:51:16Z</time></trkpt><trkpt lat="41.87230371241736" lon="12.620885015744713"><ele>65.66666666666667</ele><time>2026-04-12T07:51:17Z</time></trkpt><trkpt lat="41.87235780209657" lon="12.620809140047797"><ele>65.83333333333333</ele><time>2026-04-12T07:51:18Z</time></trkpt><trkpt lat="41.87241018368213" lon="12.620733426936827"><ele>66.0</ele><time>2026-04-12T07:51:19Z</time></trkpt><trkpt lat="41.87246598396995" lon="12.620658106481851"><ele>66.0</ele><time>2026-04-12T07:51:20Z</time></trkpt><trkpt lat="41.872523652601316" lon="12.620583206405634"><ele>66.0</ele><time>2026-04-12T07:51:21Z</time></trkpt><trkpt lat="41.87258239084576" lon="12.620515222921567"><ele>66.0</ele><time>2026-04-12T07:51:22Z</time></trkpt><trkpt lat="41.87263687092235" lon="12.620453745260175"><ele>66.0</ele><time>2026-04-12T07:51:23Z</time></trkpt><trkpt lat="41.872687372597234" lon="12.620390744280018"><ele>66.0</ele><time>2026-04-12T07:51:24Z</time></trkpt><trkpt lat="41.87273686307528" lon="12.620329725221925"><ele>66.0</ele><time>2026-04-12T07:51:25Z</time></trkpt><trkpt lat="41.87278706886465" lon="12.620266340530936"><ele>66.0</ele><time>2026-04-12T07:51:26Z</time></trkpt><trkpt lat="41.87287704665896" lon="12.620160038483219"><ele>65.6</ele><time>2026-04-12T07:51:28Z</time></trkpt><trkpt lat="41.872953942681676" lon="12.620060585202587"><ele>65.19999999999999</ele><time>2026-04-12T07:51:30Z</time></trkpt><trkpt lat="41.873022153738255" lon="12.619971198747784"><ele>64.80000000000001</ele><time>2026-04-12T07:51:32Z</time></trkpt><trkpt lat="41.87309561981973" lon="12.619878690733758"><ele>64.4</ele><time>2026-04-12T07:51:34Z</time></trkpt><trkpt lat="41.87316507725406" lon="12.619788733478876"><ele>64.0</ele><time>2026-04-12T07:51:36Z</time></trkpt><trkpt lat="41.87323880934726" lon="12.619699512585987"><ele>64.0</ele><time>2026-04-12T07:51:37.999Z</time></trkpt><trkpt lat="41.873302687213986" lon="12.619603718365326"><ele>64.0</ele><time>2026-04-12T07:51:39.999Z</time></trkpt><trkpt lat="41.87344286861138" lon="12.619750233682394"><ele>64.0</ele><time>2026-04-12T07:51:46.999Z</time></trkpt><trkpt lat="41.87349218759651" lon="12.61982075144215"><ele>64.0</ele><time>2026-04-12T07:51:48.999Z</time></trkpt><trkpt lat="41.87355315377225" lon="12.619885395227062"><ele>64.0</ele><time>2026-04-12T07:51:50.999Z</time></trkpt><trkpt lat="41.87359967379754" lon="12.619958391823596"><ele>63.99999999999999</ele><time>2026-04-12T07:51:53.999Z</time></trkpt><trkpt lat="41.87353331898378" lon="12.620084429229419"><ele>64.0</ele><time>2026-04-12T07:51:57.999Z</time></trkpt><trkpt lat="41.873486018984664" lon="12.620142162837414"><ele>64.0</ele><time>2026-04-12T07:51:58.999Z</time></trkpt><trkpt lat="41.87343534935285" lon="12.620200325615894"><ele>64.0</ele><time>2026-04-12T07:51:59.999Z</time></trkpt><trkpt lat="41.8733811439463" lon="12.620265752483405"><ele>63.99999999999999</ele><time>2026-04-12T07:52:00.999Z</time></trkpt><trkpt lat="41.873324888923" lon="12.620333029117205"><ele>64.0</ele><time>2026-04-12T07:52:01.999Z</time></trkpt><trkpt lat="41.8732692008441" lon="12.620401947779841"><ele>64.66666666666666</ele><time>2026-04-12T07:52:02.999Z</time></trkpt><trkpt lat="41.87321080513381" lon="12.620469604001537"><ele>65.33333333333333</ele><time>2026-04-12T07:52:03.999Z</time></trkpt><trkpt lat="41.87315260216928" lon="12.620540896708313"><ele>66.0</ele><time>2026-04-12T07:52:04.999Z</time></trkpt><trkpt lat="41.873093854125585" lon="12.620611628919761"><ele>66.66666666666667</ele><time>2026-04-12T07:52:05.999Z</time></trkpt><trkpt lat="41.8730364308753" lon="12.620677966470053"><ele>67.33333333333334</ele><time>2026-04-12T07:52:06.999Z</time></trkpt><trkpt lat="41.872988948490274" lon="12.620755010707102"><ele>68.0</ele><time>2026-04-12T07:52:07.999Z</time></trkpt><trkpt lat="41.872940506833544" lon="12.620815119036996"><ele>68.0</ele><time>2026-04-12T07:52:08.999Z</time></trkpt><trkpt lat="41.87287708680009" lon="12.620921256464365"><ele>68.0</ele><time>2026-04-12T07:52:10.999Z</time></trkpt><trkpt lat="41.87295024437943" lon="12.621067409425512"><ele>68.0</ele><time>2026-04-12T07:52:13.999Z</time></trkpt><trkpt lat="41.87298806939299" lon="12.621149641602598"><ele>68.0</ele><time>2026-04-12T07:52:14.999Z</time></trkpt><trkpt lat="41.873040030722066" lon="12.621223232915312"><ele>68.0</ele><time>2026-04-12T07:52:15.999Z</time></trkpt><trkpt lat="41.873090626414864" lon="12.62129769293764"><ele>68.28571428571428</ele><time>2026-04-12T07:52:16.999Z</time></trkpt><trkpt lat="41.87314103564136" lon="12.621371098240228"><ele>68.57142857142857</ele><time>2026-04-12T07:52:17.999Z</time></trkpt><trkpt lat="41.87319460211457" lon="12.621443042665899"><ele>68.85714285714286</ele><time>2026-04-12T07:52:18.999Z</time></trkpt><trkpt lat="41.87324819188581" lon="12.621514022718543"><ele>69.14285714285714</ele><time>2026-04-12T07:52:19.999Z</time></trkpt><trkpt lat="41.87329387795118" lon="12.621584272192123"><ele>69.42857142857143</ele><time>2026-04-12T07:52:20.999Z</time></trkpt><trkpt lat="41.873337868054435" lon="12.621649967059266"><ele>69.71428571428571</ele><time>2026-04-12T07:52:21.999Z</time></trkpt><trkpt lat="41.87338517044368" lon="12.621723154413107"><ele>70.0</ele><time>2026-04-12T07:52:22.999Z</time></trkpt><trkpt lat="41.873430427879455" lon="12.621797111755184"><ele>69.85714285714286</ele><time>2026-04-12T07:52:23.999Z</time></trkpt><trkpt lat="41.87347941674884" lon="12.62186586157269"><ele>69.71428571428572</ele><time>2026-04-12T07:52:24.999Z</time></trkpt><trkpt lat="41.87352837952637" lon="12.621936482887248"><ele>69.57142857142857</ele><time>2026-04-12T07:52:25.999Z</time></trkpt><trkpt lat="41.873577401039" lon="12.622003727653437"><ele>69.42857142857143</ele><time>2026-04-12T07:52:26.999Z</time></trkpt><trkpt lat="41.87362709474149" lon="12.622075191929527"><ele>69.28571428571429</ele><time>2026-04-12T07:52:27.999Z</time></trkpt><trkpt lat="41.873675223180925" lon="12.622150994769694"><ele>69.14285714285714</ele><time>2026-04-12T07:52:28.998Z</time></trkpt><trkpt lat="41.87372762222237" lon="12.622225768273205"><ele>69.0</ele><time>2026-04-12T07:52:29.998Z</time></trkpt><trkpt lat="41.8737836427352" lon="12.622299913858297"><ele>68.85714285714286</ele><time>2026-04-12T07:52:30.998Z</time></trkpt><trkpt lat="41.87382976072215" lon="12.62237663125154"><ele>68.71428571428572</ele><time>2026-04-12T07:52:31.998Z</time></trkpt><trkpt lat="41.873876812160994" lon="12.622447348323465"><ele>68.57142857142857</ele><time>2026-04-12T07:52:32.998Z</time></trkpt><trkpt lat="41.873934965460236" lon="12.622506482601263"><ele>68.42857142857143</ele><time>2026-04-12T07:52:33.998Z</time></trkpt><trkpt lat="41.87397068474591" lon="12.622592195133329"><ele>68.28571428571428</ele><time>2026-04-12T07:52:34.998Z</time></trkpt><trkpt lat="41.87401918888101" lon="12.6226623901178"><ele>68.14285714285714</ele><time>2026-04-12T07:52:35.998Z</time></trkpt><trkpt lat="41.87406893125229" lon="12.622731324272332"><ele>68.0</ele><time>2026-04-12T07:52:36.998Z</time></trkpt><trkpt lat="41.874113614791796" lon="12.622803031455218"><ele>67.42857142857142</ele><time>2026-04-12T07:52:37.998Z</time></trkpt><trkpt lat="41.87416045180363" lon="12.622869109757998"><ele>66.85714285714286</ele><time>2026-04-12T07:52:39Z</time></trkpt><trkpt lat="41.87420722798962" lon="12.62292969704279"><ele>66.28571428571428</ele><time>2026-04-12T07:52:40Z</time></trkpt><trkpt lat="41.87425102619572" lon="12.62299920224347"><ele>65.71428571428571</ele><time>2026-04-12T07:52:41Z</time></trkpt><trkpt lat="41.874296509792096" lon="12.623066109069052"><ele>65.14285714285714</ele><time>2026-04-12T07:52:42Z</time></trkpt><trkpt lat="41.87434265229897" lon="12.623125311357736"><ele>64.57142857142857</ele><time>2026-04-12T07:52:43Z</time></trkpt><trkpt lat="41.87438352313446" lon="12.62319063195157"><ele>64.0</ele><time>2026-04-12T07:52:44Z</time></trkpt><trkpt lat="41.874449851379055" lon="12.623298371238892"><ele>62.75</ele><time>2026-04-12T07:52:46Z</time></trkpt><trkpt lat="41.87446295305792" lon="12.623382371891779"><ele>61.5</ele><time>2026-04-12T07:52:48Z</time></trkpt><trkpt lat="41.874359888152505" lon="12.623495252612734"><ele>60.25</ele><time>2026-04-12T07:52:52Z</time></trkpt><trkpt lat="41.874476997985035" lon="12.623361600090226"><ele>59.0</ele><time>2026-04-12T07:53:30Z</time></trkpt><trkpt lat="41.874407122519315" lon="12.623473158956555"><ele>59.0</ele><time>2026-04-12T07:53:37Z</time></trkpt><trkpt lat="41.874303342318825" lon="12.623598081191894"><ele>59.0</ele><time>2026-04-12T07:53:50.999Z</time></trkpt><trkpt lat="41.87416531509715" lon="12.623610178302565"><ele>59.0</ele><time>2026-04-12T07:55:00.485Z</time></trkpt><trkpt lat="41.87405741346614" lon="12.623602026045933"><ele>59.0</ele><time>2026-04-12T07:55:29.018Z</time></trkpt><trkpt lat="41.87398682062341" lon="12.623677637882977"><ele>59.00000000000001</ele><time>2026-04-12T07:55:31.018Z</time></trkpt><trkpt lat="41.874050175055004" lon="12.623625588462074"><ele>59.0</ele><time>2026-04-12T07:55:42.017Z</time></trkpt><trkpt lat="41.8741206279878" lon="12.623575594977412"><ele>59.0</ele><time>2026-04-12T07:55:45.017Z</time></trkpt><trkpt lat="41.87418988575136" lon="12.623522280389185"><ele>59.0</ele><time>2026-04-12T07:56:15.016Z</time></trkpt><trkpt lat="41.87425649334366" lon="12.623495710586052"><ele>59.00000000000001</ele><time>2026-04-12T07:56:18.016Z</time></trkpt><trkpt lat="41.87418397911093" lon="12.623508118965743"><ele>59.0</ele><time>2026-04-12T07:56:27.015Z</time></trkpt><trkpt lat="41.87427999024206" lon="12.62343464465991"><ele>59.0</ele><time>2026-04-12T07:57:04.014Z</time></trkpt><trkpt lat="41.87434173339635" lon="12.623412980728768"><ele>59.00000000000001</ele><time>2026-04-12T07:57:57.015Z</time></trkpt><trkpt lat="41.87439274575238" lon="12.623311491213537"><ele>59.00000000000001</ele><time>2026-04-12T07:58:00.013Z</time></trkpt><trkpt lat="41.87443196053846" lon="12.623386997835436"><ele>59.0</ele><time>2026-04-12T07:58:11.012Z</time></trkpt><trkpt lat="41.874399071436336" lon="12.62347313198251"><ele>59.0</ele><time>2026-04-12T07:58:29.555Z</time></trkpt><trkpt lat="41.874164996607455" lon="12.623611204258326"><ele>59.0</ele><time>2026-04-12T07:58:40.088Z</time></trkpt><trkpt lat="41.874347019500206" lon="12.623500515284038"><ele>59.0</ele><time>2026-04-12T07:59:43.014Z</time></trkpt><trkpt lat="41.87443191956052" lon="12.623498206967652"><ele>59.0</ele><time>2026-04-12T08:01:01Z</time></trkpt><trkpt lat="41.87447906541475" lon="12.623415055547412"><ele>59.0</ele><time>2026-04-12T08:01:03.999Z</time></trkpt><trkpt lat="41.87465472687163" lon="12.62346269519861"><ele>59.00000000000001</ele><time>2026-04-12T08:01:08.999Z</time></trkpt><trkpt lat="41.87471283359406" lon="12.623396087972697"><ele>59.0</ele><time>2026-04-12T08:01:09.999Z</time></trkpt><trkpt lat="41.8747711107767" lon="12.623310196364995"><ele>59.0</ele><time>2026-04-12T08:01:10.999Z</time></trkpt><trkpt lat="41.874824255180734" lon="12.623223929590857"><ele>59.0</ele><time>2026-04-12T08:01:11.999Z</time></trkpt><trkpt lat="41.87489185106672" lon="12.62314227615315"><ele>59.00000000000001</ele><time>2026-04-12T08:01:12.999Z</time></trkpt><trkpt lat="41.874962826155915" lon="12.623070650425518"><ele>59.0</ele><time>2026-04-12T08:01:13.999Z</time></trkpt><trkpt lat="41.87502271136834" lon="12.622998860502973"><ele>59.00000000000001</ele><time>2026-04-12T08:01:14.999Z</time></trkpt><trkpt lat="41.87508073383732" lon="12.6229346250383"><ele>59.0</ele><time>2026-04-12T08:01:15.999Z</time></trkpt><trkpt lat="41.87513404179512" lon="12.622874927000087"><ele>59.0</ele><time>2026-04-12T08:01:16.999Z</time></trkpt><trkpt lat="41.87517409511365" lon="12.62279763197054"><ele>59.0</ele><time>2026-04-12T08:01:17.999Z</time></trkpt><trkpt lat="41.87525268757243" lon="12.622704616668694"><ele>59.00000000000001</ele><time>2026-04-12T08:01:19.999Z</time></trkpt><trkpt lat="41.87527654695496" lon="12.622626109558443"><ele>59.0</ele><time>2026-04-12T08:01:21.999Z</time></trkpt><trkpt lat="41.87522948461222" lon="12.622552912662151"><ele>59.333333333333336</ele><time>2026-04-12T08:01:22.999Z</time></trkpt><trkpt lat="41.875183629340405" lon="12.622490590241183"><ele>59.66666666666667</ele><time>2026-04-12T08:01:23.999Z</time></trkpt><trkpt lat="41.87514045645005" lon="12.6224129952371"><ele>60.0</ele><time>2026-04-12T08:01:24.999Z</time></trkpt><trkpt lat="41.875084928805315" lon="12.622344837912289"><ele>60.33333333333333</ele><time>2026-04-12T08:01:25.999Z</time></trkpt><trkpt lat="41.87502730776374" lon="12.622258197259859"><ele>60.666666666666664</ele><time>2026-04-12T08:01:26.999Z</time></trkpt><trkpt lat="41.87497416958042" lon="12.622161319042137"><ele>61.0</ele><time>2026-04-12T08:01:27.999Z</time></trkpt><trkpt lat="41.87492469194624" lon="12.62208007662728"><ele>61.666666666666664</ele><time>2026-04-12T08:01:28.999Z</time></trkpt><trkpt lat="41.87486937822723" lon="12.621995673607726"><ele>62.33333333333333</ele><time>2026-04-12T08:01:29.999Z</time></trkpt><trkpt lat="41.87481048241835" lon="12.621919607994894"><ele>63.0</ele><time>2026-04-12T08:01:30.999Z</time></trkpt><trkpt lat="41.87476152180094" lon="12.621844062004032"><ele>63.66666666666667</ele><time>2026-04-12T08:01:31.999Z</time></trkpt><trkpt lat="41.87470555941517" lon="12.621763146074992"><ele>64.33333333333334</ele><time>2026-04-12T08:01:32.999Z</time></trkpt><trkpt lat="41.87466043044576" lon="12.621684421847368"><ele>65.0</ele><time>2026-04-12T08:01:33.999Z</time></trkpt><trkpt lat="41.87459808936392" lon="12.62162161531434"><ele>65.16666666666667</ele><time>2026-04-12T08:01:34.999Z</time></trkpt><trkpt lat="41.87455263737173" lon="12.621552656239334"><ele>65.33333333333334</ele><time>2026-04-12T08:01:35.999Z</time></trkpt><trkpt lat="41.87449995027568" lon="12.621472720139664"><ele>65.5</ele><time>2026-04-12T08:01:36.999Z</time></trkpt><trkpt lat="41.874446384317835" lon="12.621391450656029"><ele>65.66666666666667</ele><time>2026-04-12T08:01:37.999Z</time></trkpt><trkpt lat="41.874402014558754" lon="12.621324133480806"><ele>65.83333333333333</ele><time>2026-04-12T08:01:38.999Z</time></trkpt><trkpt lat="41.874329973674556" lon="12.621186767004634"><ele>66.0</ele><time>2026-04-12T08:01:40.999Z</time></trkpt><trkpt lat="41.87423773165251" lon="12.621085257329003"><ele>66.0</ele><time>2026-04-12T08:01:42.999Z</time></trkpt><trkpt lat="41.87416293718979" lon="12.620957564568757"><ele>66.0</ele><time>2026-04-12T08:01:44.999Z</time></trkpt><trkpt lat="41.874076677120065" lon="12.620856834731946"><ele>66.0</ele><time>2026-04-12T08:01:46.999Z</time></trkpt><trkpt lat="41.873994722252135" lon="12.620733980248263"><ele>66.0</ele><time>2026-04-12T08:01:48.999Z</time></trkpt><trkpt lat="41.87395128045876" lon="12.62066806226443"><ele>66.0</ele><time>2026-04-12T08:01:49.999Z</time></trkpt><trkpt lat="41.87387848614898" lon="12.620557605237295"><ele>66.0</ele><time>2026-04-12T08:01:51.999Z</time></trkpt><trkpt lat="41.873787979238" lon="12.62042130807591"><ele>66.0</ele><time>2026-04-12T08:01:53.999Z</time></trkpt><trkpt lat="41.873735635979436" lon="12.620345549310404"><ele>66.0</ele><time>2026-04-12T08:01:54.999Z</time></trkpt><trkpt lat="41.873692311662154" lon="12.620282844011905"><ele>66.0</ele><time>2026-04-12T08:01:55.999Z</time></trkpt><trkpt lat="41.87361946144848" lon="12.620178176202709"><ele>66.0</ele><time>2026-04-12T08:01:57.998Z</time></trkpt><trkpt lat="41.87356808049548" lon="12.620104390235289"><ele>65.39999999999999</ele><time>2026-04-12T08:02:00.998Z</time></trkpt><trkpt lat="41.87367713124438" lon="12.619949422151247"><ele>64.8</ele><time>2026-04-12T08:02:05Z</time></trkpt><trkpt lat="41.87375706067413" lon="12.619868572821401"><ele>64.19999999999999</ele><time>2026-04-12T08:02:07Z</time></trkpt><trkpt lat="41.87381777682509" lon="12.61980564462202"><ele>63.599999999999994</ele><time>2026-04-12T08:02:09Z</time></trkpt><trkpt lat="41.87387799502713" lon="12.619739343477107"><ele>63.0</ele><time>2026-04-12T08:02:11Z</time></trkpt><trkpt lat="41.87395286116128" lon="12.619670926663785"><ele>63.0</ele><time>2026-04-12T08:02:13Z</time></trkpt><trkpt lat="41.87400752308155" lon="12.619579751551369"><ele>63.0</ele><time>2026-04-12T08:02:16Z</time></trkpt><trkpt lat="41.87404222981088" lon="12.619504632356943"><ele>63.0</ele><time>2026-04-12T08:03:16.999Z</time></trkpt><trkpt lat="41.874085195860566" lon="12.619577477090091"><ele>63.0</ele><time>2026-04-12T08:05:48.999Z</time></trkpt><trkpt lat="41.87407763385094" lon="12.61967115291881"><ele>63.0</ele><time>2026-04-12T08:06:01.999Z</time></trkpt><trkpt lat="41.874011292273146" lon="12.619679676295961"><ele>63.0</ele><time>2026-04-12T08:06:06.998Z</time></trkpt><trkpt lat="41.87396695626013" lon="12.619743499313646"><ele>63.0</ele><time>2026-04-12T08:06:09.998Z</time></trkpt><trkpt lat="41.8738933980462" lon="12.61970664181886"><ele>63.0</ele><time>2026-04-12T08:06:28Z</time></trkpt><trkpt lat="41.87382700707444" lon="12.61969347741815"><ele>63.0</ele><time>2026-04-12T08:06:32.034Z</time></trkpt><trkpt lat="41.8737647090855" lon="12.61966513199486"><ele>63.0</ele><time>2026-04-12T08:06:34.026Z</time></trkpt><trkpt lat="41.87370710869602" lon="12.61975585674298"><ele>63.0</ele><time>2026-04-12T08:06:35.025Z</time></trkpt><trkpt lat="41.87385087449049" lon="12.61970295347602"><ele>63.0</ele><time>2026-04-12T08:06:39.023Z</time></trkpt><trkpt lat="41.873869363334705" lon="12.619604519109064"><ele>63.0</ele><time>2026-04-12T08:06:54.023Z</time></trkpt><trkpt lat="41.873910934474566" lon="12.61952538300617"><ele>63.0</ele><time>2026-04-12T08:07:00.022Z</time></trkpt><trkpt lat="41.87411298621349" lon="12.619579538237854"><ele>63.0</ele><time>2026-04-12T08:07:17.017Z</time></trkpt><trkpt lat="41.874316975736" lon="12.619491639867027"><ele>63.0</ele><time>2026-04-12T08:07:38.516Z</time></trkpt><trkpt lat="41.874261770807905" lon="12.619615429804465"><ele>63.0</ele><time>2026-04-12T08:07:53.022Z</time></trkpt><trkpt lat="41.87423926458828" lon="12.619527176391516"><ele>63.0</ele><time>2026-04-12T08:08:02.016Z</time></trkpt><trkpt lat="41.87422267594636" lon="12.619435776825657"><ele>63.0</ele><time>2026-04-12T08:08:05.017Z</time></trkpt><trkpt lat="41.87415933610946" lon="12.619493462571812"><ele>63.0</ele><time>2026-04-12T08:08:09.016Z</time></trkpt><trkpt lat="41.87399533743727" lon="12.619475016860655"><ele>63.0</ele><time>2026-04-12T08:08:16.321Z</time></trkpt><trkpt lat="41.87405984980635" lon="12.619450664713343"><ele>63.0</ele><time>2026-04-12T08:09:16.012Z</time></trkpt><trkpt lat="41.874002315150115" lon="12.619399022886835"><ele>62.8</ele><time>2026-04-12T08:09:37Z</time></trkpt><trkpt lat="41.87390412417991" lon="12.619364635024699"><ele>62.599999999999994</ele><time>2026-04-12T08:09:38Z</time></trkpt><trkpt lat="41.873772029543524" lon="12.619296803028691"><ele>62.400000000000006</ele><time>2026-04-12T08:09:39.062Z</time></trkpt><trkpt lat="41.87366484528065" lon="12.619249304452216"><ele>62.2</ele><time>2026-04-12T08:09:40.034Z</time></trkpt><trkpt lat="41.873721538459876" lon="12.619317524067123"><ele>62.0</ele><time>2026-04-12T08:09:41.03Z</time></trkpt><trkpt lat="41.87377523314557" lon="12.619379747161961"><ele>62.0</ele><time>2026-04-12T08:09:45.027Z</time></trkpt><trkpt lat="41.87390764355466" lon="12.619431125017464"><ele>62.0</ele><time>2026-04-12T08:10:57.785Z</time></trkpt><trkpt lat="41.87402725989394" lon="12.619473317075883"><ele>62.0</ele><time>2026-04-12T08:11:18.998Z</time></trkpt><trkpt lat="41.87409902519888" lon="12.619579245030014"><ele>62.0</ele><time>2026-04-12T08:11:38.998Z</time></trkpt><trkpt lat="41.874045009947174" lon="12.619506923488753"><ele>62.0</ele><time>2026-04-12T08:18:13Z</time></trkpt><trkpt lat="41.874075626024975" lon="12.619394456175248"><ele>62.00000000000001</ele><time>2026-04-12T08:18:21Z</time></trkpt><trkpt lat="41.87410795569309" lon="12.619286421429527"><ele>62.0</ele><time>2026-04-12T08:18:23Z</time></trkpt><trkpt lat="41.87416753600722" lon="12.61922163609431"><ele>62.0</ele><time>2026-04-12T08:18:27Z</time></trkpt><trkpt lat="41.87425798752771" lon="12.619251607273206"><ele>62.0</ele><time>2026-04-12T08:18:30Z</time></trkpt><trkpt lat="41.87432715665901" lon="12.619283241784956"><ele>62.00000000000001</ele><time>2026-04-12T08:18:32Z</time></trkpt><trkpt lat="41.874408920564754" lon="12.619324877436757"><ele>62.0</ele><time>2026-04-12T08:18:34Z</time></trkpt><trkpt lat="41.87447027351419" lon="12.619358441759937"><ele>62.400000000000006</ele><time>2026-04-12T08:18:36Z</time></trkpt><trkpt lat="41.87453545858814" lon="12.619393537610712"><ele>62.800000000000004</ele><time>2026-04-12T08:18:38Z</time></trkpt><trkpt lat="41.874610498890085" lon="12.619424466770633"><ele>63.2</ele><time>2026-04-12T08:18:40Z</time></trkpt><trkpt lat="41.87470284600447" lon="12.619444024826212"><ele>63.6</ele><time>2026-04-12T08:18:42Z</time></trkpt><trkpt lat="41.87480071731268" lon="12.61947876535099"><ele>64.0</ele><time>2026-04-12T08:18:44Z</time></trkpt><trkpt lat="41.87492619795723" lon="12.619512676258944"><ele>64.14285714285714</ele><time>2026-04-12T08:18:46Z</time></trkpt><trkpt lat="41.87499463203883" lon="12.619516406661571"><ele>64.28571428571428</ele><time>2026-04-12T08:18:47Z</time></trkpt><trkpt lat="41.875061994421635" lon="12.61950649208142"><ele>64.42857142857143</ele><time>2026-04-12T08:18:48Z</time></trkpt><trkpt lat="41.87512809295485" lon="12.619488953950462"><ele>64.57142857142857</ele><time>2026-04-12T08:18:49Z</time></trkpt><trkpt lat="41.87519283716117" lon="12.619464653594859"><ele>64.71428571428572</ele><time>2026-04-12T08:18:50Z</time></trkpt><trkpt lat="41.87526052125674" lon="12.619438362418704"><ele>64.85714285714286</ele><time>2026-04-12T08:18:51Z</time></trkpt><trkpt lat="41.87533652181623" lon="12.619406643522908"><ele>65.0</ele><time>2026-04-12T08:18:52Z</time></trkpt><trkpt lat="41.87541377336026" lon="12.619375583560961"><ele>64.66666666666667</ele><time>2026-04-12T08:18:53Z</time></trkpt><trkpt lat="41.87548617826984" lon="12.619349313247374"><ele>64.33333333333334</ele><time>2026-04-12T08:18:54Z</time></trkpt><trkpt lat="41.8755626663222" lon="12.619314948813392"><ele>64.0</ele><time>2026-04-12T08:18:55Z</time></trkpt><trkpt lat="41.875635707444495" lon="12.619287692771335"><ele>63.66666666666667</ele><time>2026-04-12T08:18:56Z</time></trkpt><trkpt lat="41.87570843499642" lon="12.619259537723583"><ele>63.333333333333336</ele><time>2026-04-12T08:18:57Z</time></trkpt><trkpt lat="41.875783148088374" lon="12.619232370706468"><ele>63.0</ele><time>2026-04-12T08:18:58Z</time></trkpt><trkpt lat="41.87585738538635" lon="12.619204007539258"><ele>63.0</ele><time>2026-04-12T08:18:59Z</time></trkpt><trkpt lat="41.875930800630364" lon="12.61917812106448"><ele>63.0</ele><time>2026-04-12T08:19:00Z</time></trkpt><trkpt lat="41.87600065614912" lon="12.619151753662416"><ele>63.0</ele><time>2026-04-12T08:19:01Z</time></trkpt><trkpt lat="41.876069871610326" lon="12.619124841516344"><ele>63.0</ele><time>2026-04-12T08:19:02Z</time></trkpt><trkpt lat="41.87614085924218" lon="12.619092946754455"><ele>63.0</ele><time>2026-04-12T08:19:03Z</time></trkpt><trkpt lat="41.87621468449673" lon="12.619064061629828"><ele>63.0</ele><time>2026-04-12T08:19:04Z</time></trkpt><trkpt lat="41.87629072554205" lon="12.61903647729077"><ele>62.833333333333336</ele><time>2026-04-12T08:19:05Z</time></trkpt><trkpt lat="41.87636377965106" lon="12.619011696642724"><ele>62.66666666666667</ele><time>2026-04-12T08:19:06Z</time></trkpt><trkpt lat="41.876437953116245" lon="12.618982744871134"><ele>62.5</ele><time>2026-04-12T08:19:07Z</time></trkpt><trkpt lat="41.876512712806715" lon="12.618959609419509"><ele>62.333333333333336</ele><time>2026-04-12T08:19:08Z</time></trkpt><trkpt lat="41.876586714578735" lon="12.618933026349403"><ele>62.16666666666667</ele><time>2026-04-12T08:19:09Z</time></trkpt><trkpt lat="41.87665921807473" lon="12.618901398842631"><ele>62.0</ele><time>2026-04-12T08:19:09.999Z</time></trkpt><trkpt lat="41.87672852891111" lon="12.61887186473264"><ele>61.50000000000001</ele><time>2026-04-12T08:19:10.999Z</time></trkpt><trkpt lat="41.87679579706764" lon="12.618842862264069"><ele>61.0</ele><time>2026-04-12T08:19:11.999Z</time></trkpt><trkpt lat="41.87686853486745" lon="12.618807104802016"><ele>60.5</ele><time>2026-04-12T08:19:12.999Z</time></trkpt><trkpt lat="41.87694725093162" lon="12.618770878431063"><ele>60.0</ele><time>2026-04-12T08:19:13.999Z</time></trkpt><trkpt lat="41.87702729262879" lon="12.618743432065774"><ele>59.50000000000001</ele><time>2026-04-12T08:19:14.999Z</time></trkpt><trkpt lat="41.87710815107823" lon="12.618715411957172"><ele>59.0</ele><time>2026-04-12T08:19:15.999Z</time></trkpt><trkpt lat="41.87718981347395" lon="12.618685880488165"><ele>59.0</ele><time>2026-04-12T08:19:16.999Z</time></trkpt><trkpt lat="41.877275650458635" lon="12.618649536662184"><ele>59.00000000000001</ele><time>2026-04-12T08:19:17.999Z</time></trkpt><trkpt lat="41.87737529015384" lon="12.618607771426138"><ele>59.00000000000001</ele><time>2026-04-12T08:19:18.999Z</time></trkpt><trkpt lat="41.87747140215398" lon="12.618573222986925"><ele>59.0</ele><time>2026-04-12T08:19:19.999Z</time></trkpt><trkpt lat="41.877554071265585" lon="12.618538254599109"><ele>59.0</ele><time>2026-04-12T08:19:20.999Z</time></trkpt><trkpt lat="41.87763243015123" lon="12.618510065744713"><ele>58.833333333333336</ele><time>2026-04-12T08:19:21.999Z</time></trkpt><trkpt lat="41.87770741066622" lon="12.618480498502146"><ele>58.66666666666667</ele><time>2026-04-12T08:19:22.999Z</time></trkpt><trkpt lat="41.87777444206001" lon="12.618456574343702"><ele>58.5</ele><time>2026-04-12T08:19:23.999Z</time></trkpt><trkpt lat="41.8778385657362" lon="12.618432680591441"><ele>58.33333333333333</ele><time>2026-04-12T08:19:24.999Z</time></trkpt><trkpt lat="41.877954470733535" lon="12.618376991958868"><ele>58.166666666666664</ele><time>2026-04-12T08:19:26.999Z</time></trkpt><trkpt lat="41.87805128394978" lon="12.618374913710241"><ele>58.0</ele><time>2026-04-12T08:19:28.999Z</time></trkpt><trkpt lat="41.87811435028855" lon="12.618438471015844"><ele>58.0</ele><time>2026-04-12T08:19:30.999Z</time></trkpt><trkpt lat="41.878134496186526" lon="12.618343040709426"><ele>58.0</ele><time>2026-04-12T08:19:32.999Z</time></trkpt><trkpt lat="41.87818341398261" lon="12.618452685980197"><ele>58.0</ele><time>2026-04-12T08:19:33.999Z</time></trkpt><trkpt lat="41.87833153406651" lon="12.618402560748333"><ele>58.0</ele><time>2026-04-12T08:25:14Z</time></trkpt><trkpt lat="41.87836093723194" lon="12.61830666255177"><ele>58.0</ele><time>2026-04-12T08:25:16Z</time></trkpt><trkpt lat="41.87845891048003" lon="12.618227801509878"><ele>57.666666666666664</ele><time>2026-04-12T08:25:18Z</time></trkpt><trkpt lat="41.87852282325548" lon="12.618202447583988"><ele>57.33333333333333</ele><time>2026-04-12T08:25:19Z</time></trkpt><trkpt lat="41.87859185208244" lon="12.618176879517206"><ele>57.0</ele><time>2026-04-12T08:25:20Z</time></trkpt><trkpt lat="41.878665464175455" lon="12.61814839344687"><ele>56.66666666666667</ele><time>2026-04-12T08:25:21Z</time></trkpt><trkpt lat="41.87874337860972" lon="12.618113438207438"><ele>56.333333333333336</ele><time>2026-04-12T08:25:22Z</time></trkpt><trkpt lat="41.8788273053783" lon="12.618074720768302"><ele>56.0</ele><time>2026-04-12T08:25:23Z</time></trkpt><trkpt lat="41.87891736418423" lon="12.61803074349689"><ele>56.0</ele><time>2026-04-12T08:25:24Z</time></trkpt><trkpt lat="41.879011113983594" lon="12.617991654627415"><ele>55.99999999999999</ele><time>2026-04-12T08:25:25Z</time></trkpt><trkpt lat="41.879110930737745" lon="12.617953510843662"><ele>55.99999999999999</ele><time>2026-04-12T08:25:26Z</time></trkpt><trkpt lat="41.87921501636441" lon="12.617911591175789"><ele>56.0</ele><time>2026-04-12T08:25:27Z</time></trkpt><trkpt lat="41.87931762743934" lon="12.617867882263203"><ele>56.0</ele><time>2026-04-12T08:25:28Z</time></trkpt><trkpt lat="41.879414584062175" lon="12.617833944644339"><ele>55.833333333333336</ele><time>2026-04-12T08:25:29Z</time></trkpt><trkpt lat="41.87950566492462" lon="12.617797635859512"><ele>55.66666666666667</ele><time>2026-04-12T08:25:30Z</time></trkpt><trkpt lat="41.879590304944124" lon="12.61776173314436"><ele>55.5</ele><time>2026-04-12T08:25:31Z</time></trkpt><trkpt lat="41.879670326493056" lon="12.617728252315839"><ele>55.33333333333333</ele><time>2026-04-12T08:25:32Z</time></trkpt><trkpt lat="41.8797467893969" lon="12.617697803085218"><ele>55.166666666666664</ele><time>2026-04-12T08:25:33Z</time></trkpt><trkpt lat="41.879822795875825" lon="12.617662291653213"><ele>55.0</ele><time>2026-04-12T08:25:34Z</time></trkpt><trkpt lat="41.879904612435496" lon="12.617628282247901"><ele>55.0</ele><time>2026-04-12T08:25:35Z</time></trkpt><trkpt lat="41.87999255980923" lon="12.6175963683197"><ele>55.0</ele><time>2026-04-12T08:25:36Z</time></trkpt><trkpt lat="41.88008601385066" lon="12.617557617893649"><ele>55.0</ele><time>2026-04-12T08:25:37Z</time></trkpt><trkpt lat="41.88018721834886" lon="12.617521103156133"><ele>55.0</ele><time>2026-04-12T08:25:38Z</time></trkpt><trkpt lat="41.8802910860748" lon="12.617481274150526"><ele>55.0</ele><time>2026-04-12T08:25:39Z</time></trkpt><trkpt lat="41.88039852582754" lon="12.617438865001493"><ele>54.2</ele><time>2026-04-12T08:25:40Z</time></trkpt><trkpt lat="41.880505124137784" lon="12.617397766995133"><ele>53.4</ele><time>2026-04-12T08:25:41Z</time></trkpt><trkpt lat="41.88060946850898" lon="12.617355906933463"><ele>52.599999999999994</ele><time>2026-04-12T08:25:42Z</time></trkpt><trkpt lat="41.880711267216036" lon="12.617315775568027"><ele>51.8</ele><time>2026-04-12T08:25:43Z</time></trkpt><trkpt lat="41.88080967497788" lon="12.617280065386948"><ele>51.0</ele><time>2026-04-12T08:25:44Z</time></trkpt><trkpt lat="41.88090355294311" lon="12.617243812049713"><ele>50.5</ele><time>2026-04-12T08:25:45Z</time></trkpt><trkpt lat="41.88099161134644" lon="12.617208630555714"><ele>50.0</ele><time>2026-04-12T08:25:46Z</time></trkpt><trkpt lat="41.88107256280409" lon="12.61717582491931"><ele>49.5</ele><time>2026-04-12T08:25:47Z</time></trkpt><trkpt lat="41.881149298250875" lon="12.617150384691618"><ele>49.0</ele><time>2026-04-12T08:25:48Z</time></trkpt><trkpt lat="41.88122519603051" lon="12.617131352525021"><ele>48.5</ele><time>2026-04-12T08:25:49Z</time></trkpt><trkpt lat="41.88129710261946" lon="12.617117470289903"><ele>48.0</ele><time>2026-04-12T08:25:49.999Z</time></trkpt><trkpt lat="41.88136220543988" lon="12.61710772659332"><ele>48.0</ele><time>2026-04-12T08:25:50.999Z</time></trkpt><trkpt lat="41.8814751431866" lon="12.617109896898315"><ele>48.0</ele><time>2026-04-12T08:25:52.999Z</time></trkpt><trkpt lat="41.881578329156106" lon="12.617126258793203"><ele>48.0</ele><time>2026-04-12T08:25:54.999Z</time></trkpt><trkpt lat="41.88167906740556" lon="12.617151538648812"><ele>48.0</ele><time>2026-04-12T08:25:56.999Z</time></trkpt><trkpt lat="41.88178439319341" lon="12.617187122503811"><ele>48.0</ele><time>2026-04-12T08:25:58.999Z</time></trkpt><trkpt lat="41.88189894536209" lon="12.617255181350576"><ele>47.666666666666664</ele><time>2026-04-12T08:26:00.999Z</time></trkpt><trkpt lat="41.88195343357127" lon="12.617306678368404"><ele>47.333333333333336</ele><time>2026-04-12T08:26:01.999Z</time></trkpt><trkpt lat="41.88201004195179" lon="12.61735735583662"><ele>47.0</ele><time>2026-04-12T08:26:02.999Z</time></trkpt><trkpt lat="41.88206592369683" lon="12.6174041416143"><ele>46.66666666666667</ele><time>2026-04-12T08:26:03.999Z</time></trkpt><trkpt lat="41.882158866131306" lon="12.61748843427513"><ele>46.333333333333336</ele><time>2026-04-12T08:26:05.999Z</time></trkpt><trkpt lat="41.882223410065976" lon="12.617592018329159"><ele>46.0</ele><time>2026-04-12T08:26:07.999Z</time></trkpt><trkpt lat="41.88227387340549" lon="12.617681987964184"><ele>46.0</ele><time>2026-04-12T08:26:09.999Z</time></trkpt><trkpt lat="41.88231058511852" lon="12.617770815601592"><ele>46.0</ele><time>2026-04-12T08:26:11.999Z</time></trkpt><trkpt lat="41.88231633894972" lon="12.617891638173573"><ele>46.0</ele><time>2026-04-12T08:26:13.999Z</time></trkpt><trkpt lat="41.88232042684338" lon="12.618033388576308"><ele>46.0</ele><time>2026-04-12T08:26:15.999Z</time></trkpt><trkpt lat="41.88234688766142" lon="12.61815917051518"><ele>46.0</ele><time>2026-04-12T08:26:17.999Z</time></trkpt><trkpt lat="41.882446234782876" lon="12.618151852680798"><ele>45.8</ele><time>2026-04-12T08:26:18.999Z</time></trkpt><trkpt lat="41.88255576681882" lon="12.618100784400392"><ele>45.599999999999994</ele><time>2026-04-12T08:26:21.001Z</time></trkpt><trkpt lat="41.88260603880402" lon="12.618048393005251"><ele>45.4</ele><time>2026-04-12T08:26:22.001Z</time></trkpt><trkpt lat="41.882657345474506" lon="12.61799686650232"><ele>45.2</ele><time>2026-04-12T08:26:23.001Z</time></trkpt><trkpt lat="41.882770954849065" lon="12.617956984540738"><ele>45.0</ele><time>2026-04-12T08:26:25.001Z</time></trkpt><trkpt lat="41.882885476926575" lon="12.618017715594378"><ele>44.666666666666664</ele><time>2026-04-12T08:26:27.001Z</time></trkpt><trkpt lat="41.88294604137576" lon="12.618059014111058"><ele>44.333333333333336</ele><time>2026-04-12T08:26:28.001Z</time></trkpt><trkpt lat="41.883007125138064" lon="12.618105269217457"><ele>44.0</ele><time>2026-04-12T08:26:29.001Z</time></trkpt><trkpt lat="41.88307726273772" lon="12.618158407534331"><ele>43.66666666666667</ele><time>2026-04-12T08:26:30.001Z</time></trkpt><trkpt lat="41.88315391216243" lon="12.618211072954228"><ele>43.333333333333336</ele><time>2026-04-12T08:26:31.001Z</time></trkpt><trkpt lat="41.88323858537107" lon="12.61826778489232"><ele>43.0</ele><time>2026-04-12T08:26:32.001Z</time></trkpt><trkpt lat="41.8833216147399" lon="12.61832780614576"><ele>43.0</ele><time>2026-04-12T08:26:33.001Z</time></trkpt><trkpt lat="41.88341022968545" lon="12.61838720279201"><ele>43.0</ele><time>2026-04-12T08:26:34.001Z</time></trkpt><trkpt lat="41.883494121688216" lon="12.618446264501298"><ele>43.0</ele><time>2026-04-12T08:26:35.001Z</time></trkpt><trkpt lat="41.88356782869632" lon="12.618491759737672"><ele>43.0</ele><time>2026-04-12T08:26:36.001Z</time></trkpt><trkpt lat="41.8836299209479" lon="12.618534823829293"><ele>43.0</ele><time>2026-04-12T08:26:37.001Z</time></trkpt><trkpt lat="41.88368932037968" lon="12.618575020659868"><ele>43.0</ele><time>2026-04-12T08:26:38.001Z</time></trkpt><trkpt lat="41.88376935538148" lon="12.618628989125018"><ele>44.16666666666667</ele><time>2026-04-12T08:26:40.001Z</time></trkpt><trkpt lat="41.88385000037667" lon="12.618670651993206"><ele>45.333333333333336</ele><time>2026-04-12T08:27:16Z</time></trkpt><trkpt lat="41.88396551797749" lon="12.61871262370879"><ele>46.5</ele><time>2026-04-12T08:27:18Z</time></trkpt><trkpt lat="41.884036126814266" lon="12.618748698598734"><ele>47.66666666666667</ele><time>2026-04-12T08:27:19Z</time></trkpt><trkpt lat="41.88410258547705" lon="12.618787292992584"><ele>48.833333333333336</ele><time>2026-04-12T08:27:20Z</time></trkpt><trkpt lat="41.88417811582052" lon="12.61882974326795"><ele>50.0</ele><time>2026-04-12T08:27:21Z</time></trkpt><trkpt lat="41.88426141092054" lon="12.618876154954147"><ele>50.6</ele><time>2026-04-12T08:27:22Z</time></trkpt><trkpt lat="41.88434679467188" lon="12.618921725150102"><ele>51.2</ele><time>2026-04-12T08:27:23Z</time></trkpt><trkpt lat="41.88443545013436" lon="12.618971320755753"><ele>51.8</ele><time>2026-04-12T08:27:24Z</time></trkpt><trkpt lat="41.884532686637726" lon="12.619016779160228"><ele>52.4</ele><time>2026-04-12T08:27:25Z</time></trkpt><trkpt lat="41.88463349982628" lon="12.619067454455998"><ele>53.0</ele><time>2026-04-12T08:27:26Z</time></trkpt><trkpt lat="41.884737574639644" lon="12.619121210150945"><ele>53.0</ele><time>2026-04-12T08:27:27Z</time></trkpt><trkpt lat="41.88484182614023" lon="12.619178276849743"><ele>53.0</ele><time>2026-04-12T08:27:28Z</time></trkpt><trkpt lat="41.88494597940759" lon="12.619236126222976"><ele>53.0</ele><time>2026-04-12T08:27:29Z</time></trkpt><trkpt lat="41.885053084239836" lon="12.619294681910535"><ele>53.0</ele><time>2026-04-12T08:27:30Z</time></trkpt><trkpt lat="41.88516127358807" lon="12.619351473164008"><ele>52.75</ele><time>2026-04-12T08:27:31Z</time></trkpt><trkpt lat="41.88527119890032" lon="12.619406889268104"><ele>52.5</ele><time>2026-04-12T08:27:32Z</time></trkpt><trkpt lat="41.88538088080216" lon="12.619463954472195"><ele>52.25</ele><time>2026-04-12T08:27:33Z</time></trkpt><trkpt lat="41.885490288307636" lon="12.619523322287689"><ele>52.0</ele><time>2026-04-12T08:27:34Z</time></trkpt><trkpt lat="41.88560036550743" lon="12.619583436993121"><ele>52.0</ele><time>2026-04-12T08:27:35Z</time></trkpt><trkpt lat="41.8857111469358" lon="12.61964420095452"><ele>52.0</ele><time>2026-04-12T08:27:36Z</time></trkpt><trkpt lat="41.88582757635451" lon="12.619708286659263"><ele>52.0</ele><time>2026-04-12T08:27:37Z</time></trkpt><trkpt lat="41.885949243430275" lon="12.619776176420844"><ele>52.0</ele><time>2026-04-12T08:27:38Z</time></trkpt><trkpt lat="41.88607184856891" lon="12.619849837073389"><ele>52.25</ele><time>2026-04-12T08:27:39Z</time></trkpt><trkpt lat="41.88619219796003" lon="12.619932338253113"><ele>52.5</ele><time>2026-04-12T08:27:40Z</time></trkpt><trkpt lat="41.886311679595906" lon="12.620021570862827"><ele>52.75</ele><time>2026-04-12T08:27:41Z</time></trkpt><trkpt lat="41.88643115141526" lon="12.620119826526784"><ele>53.0</ele><time>2026-04-12T08:27:42Z</time></trkpt><trkpt lat="41.886546968442644" lon="12.6202266970723"><ele>52.75</ele><time>2026-04-12T08:27:43Z</time></trkpt><trkpt lat="41.88666088358571" lon="12.620333554811468"><ele>52.5</ele><time>2026-04-12T08:27:44Z</time></trkpt><trkpt lat="41.88677863299339" lon="12.620435460556639"><ele>52.25</ele><time>2026-04-12T08:27:45Z</time></trkpt><trkpt lat="41.886894505566" lon="12.620534635606662"><ele>52.0</ele><time>2026-04-12T08:27:46Z</time></trkpt><trkpt lat="41.88700974792093" lon="12.620628507993338"><ele>51.75</ele><time>2026-04-12T08:27:47Z</time></trkpt><trkpt lat="41.88712598453193" lon="12.620719785405509"><ele>51.5</ele><time>2026-04-12T08:27:48Z</time></trkpt><trkpt lat="41.88724379251207" lon="12.62078929214276"><ele>51.25</ele><time>2026-04-12T08:27:49Z</time></trkpt><trkpt lat="41.8873575334269" lon="12.620835645284723"><ele>51.0</ele><time>2026-04-12T08:27:50Z</time></trkpt><trkpt lat="41.887469735769805" lon="12.620886248893523"><ele>51.0</ele><time>2026-04-12T08:27:50.999Z</time></trkpt><trkpt lat="41.88757934233666" lon="12.620937515573667"><ele>51.0</ele><time>2026-04-12T08:27:51.999Z</time></trkpt><trkpt lat="41.88769605906926" lon="12.620983537178574"><ele>51.0</ele><time>2026-04-12T08:27:52.999Z</time></trkpt><trkpt lat="41.88781620461454" lon="12.621035986948531"><ele>51.0</ele><time>2026-04-12T08:27:53.999Z</time></trkpt><trkpt lat="41.88793588203853" lon="12.62109310935813"><ele>52.0</ele><time>2026-04-12T08:27:54.999Z</time></trkpt><trkpt lat="41.88806331690724" lon="12.621145063149585"><ele>53.0</ele><time>2026-04-12T08:27:55.999Z</time></trkpt><trkpt lat="41.88819870374203" lon="12.62119728965799"><ele>54.0</ele><time>2026-04-12T08:27:56.999Z</time></trkpt><trkpt lat="41.88834331610822" lon="12.621253406709027"><ele>55.0</ele><time>2026-04-12T08:27:57.999Z</time></trkpt><trkpt lat="41.88849268229043" lon="12.62130777773284"><ele>55.0</ele><time>2026-04-12T08:27:58.999Z</time></trkpt><trkpt lat="41.8886372578677" lon="12.621358246969962"><ele>55.0</ele><time>2026-04-12T08:27:59.999Z</time></trkpt><trkpt lat="41.888778145155015" lon="12.621414750519484"><ele>55.0</ele><time>2026-04-12T08:28:00.999Z</time></trkpt><trkpt lat="41.88891795119315" lon="12.621474464481265"><ele>55.0</ele><time>2026-04-12T08:28:01.999Z</time></trkpt><trkpt lat="41.889054707676806" lon="12.621535527447746"><ele>55.0</ele><time>2026-04-12T08:28:02.999Z</time></trkpt><trkpt lat="41.88918655179542" lon="12.621591655113065"><ele>55.0</ele><time>2026-04-12T08:28:03.999Z</time></trkpt><trkpt lat="41.889310899482886" lon="12.621644785352872"><ele>55.0</ele><time>2026-04-12T08:28:04.999Z</time></trkpt><trkpt lat="41.88943306020119" lon="12.621696874485954"><ele>55.0</ele><time>2026-04-12T08:28:05.999Z</time></trkpt><trkpt lat="41.889550643289176" lon="12.621752333800552"><ele>54.5</ele><time>2026-04-12T08:28:06.999Z</time></trkpt><trkpt lat="41.889668697295136" lon="12.621804720311452"><ele>54.0</ele><time>2026-04-12T08:28:07.999Z</time></trkpt><trkpt lat="41.88978559939397" lon="12.62185578797873"><ele>53.5</ele><time>2026-04-12T08:28:08.999Z</time></trkpt><trkpt lat="41.88990066268295" lon="12.621903800039046"><ele>53.0</ele><time>2026-04-12T08:28:09.999Z</time></trkpt><trkpt lat="41.890018376459906" lon="12.621953585331013"><ele>52.4</ele><time>2026-04-12T08:28:10.999Z</time></trkpt><trkpt lat="41.890128721261476" lon="12.621998917214809"><ele>51.8</ele><time>2026-04-12T08:28:11.999Z</time></trkpt><trkpt lat="41.890236389421865" lon="12.622048076980795"><ele>51.2</ele><time>2026-04-12T08:28:12.999Z</time></trkpt><trkpt lat="41.890340987709145" lon="12.622094063380112"><ele>50.6</ele><time>2026-04-12T08:28:13.999Z</time></trkpt><trkpt lat="41.89044505183564" lon="12.622139653317019"><ele>50.0</ele><time>2026-04-12T08:28:14.999Z</time></trkpt><trkpt lat="41.89054917159528" lon="12.622184976325544"><ele>50.0</ele><time>2026-04-12T08:28:15.999Z</time></trkpt><trkpt lat="41.89065257375389" lon="12.622238919183793"><ele>50.0</ele><time>2026-04-12T08:28:16.999Z</time></trkpt><trkpt lat="41.89075030631181" lon="12.622299379862577"><ele>50.0</ele><time>2026-04-12T08:28:17.999Z</time></trkpt><trkpt lat="41.89084191365664" lon="12.622371679198451"><ele>50.0</ele><time>2026-04-12T08:28:18.999Z</time></trkpt><trkpt lat="41.89092573281217" lon="12.622456197646532"><ele>50.0</ele><time>2026-04-12T08:28:19.999Z</time></trkpt><trkpt lat="41.89100464905386" lon="12.622545894344299"><ele>49.25</ele><time>2026-04-12T08:28:20.999Z</time></trkpt><trkpt lat="41.89108409447065" lon="12.622645776885799"><ele>48.5</ele><time>2026-04-12T08:28:21.999Z</time></trkpt><trkpt lat="41.89116552004633" lon="12.622750710970678"><ele>47.75</ele><time>2026-04-12T08:28:22.999Z</time></trkpt><trkpt lat="41.89125263037117" lon="12.62286120332474"><ele>47.0</ele><time>2026-04-12T08:28:23.999Z</time></trkpt><trkpt lat="41.89134176704949" lon="12.62297722194609"><ele>46.5</ele><time>2026-04-12T08:28:24.999Z</time></trkpt><trkpt lat="41.89143689203234" lon="12.623092768560065"><ele>46.0</ele><time>2026-04-12T08:28:26.001Z</time></trkpt><trkpt lat="41.89152549115597" lon="12.623206497064198"><ele>45.5</ele><time>2026-04-12T08:28:27.001Z</time></trkpt><trkpt lat="41.89160894390449" lon="12.623319339740627"><ele>45.0</ele><time>2026-04-12T08:28:28.001Z</time></trkpt><trkpt lat="41.89169485940945" lon="12.62342230404771"><ele>44.6</ele><time>2026-04-12T08:28:29.001Z</time></trkpt><trkpt lat="41.89177577834407" lon="12.623523326061598"><ele>44.2</ele><time>2026-04-12T08:28:30.001Z</time></trkpt><trkpt lat="41.89185071409695" lon="12.623622440483992"><ele>43.8</ele><time>2026-04-12T08:28:31.001Z</time></trkpt><trkpt lat="41.89192311875939" lon="12.623714777448104"><ele>43.4</ele><time>2026-04-12T08:28:32.001Z</time></trkpt><trkpt lat="41.89199284546555" lon="12.62380412739637"><ele>43.0</ele><time>2026-04-12T08:28:33.001Z</time></trkpt><trkpt lat="41.89206150579296" lon="12.623887697395524"><ele>42.8</ele><time>2026-04-12T08:28:34.001Z</time></trkpt><trkpt lat="41.89212909635226" lon="12.623962198929094"><ele>42.599999999999994</ele><time>2026-04-12T08:28:35.001Z</time></trkpt><trkpt lat="41.892193720328486" lon="12.624027894994187"><ele>42.400000000000006</ele><time>2026-04-12T08:28:36.001Z</time></trkpt><trkpt lat="41.89225713642661" lon="12.624083317577517"><ele>42.2</ele><time>2026-04-12T08:28:37.001Z</time></trkpt><trkpt lat="41.89237808524504" lon="12.62416358631149"><ele>42.0</ele><time>2026-04-12T08:28:39.001Z</time></trkpt><trkpt lat="41.89247694151951" lon="12.62420631782817"><ele>42.0</ele><time>2026-04-12T08:28:41.001Z</time></trkpt><trkpt lat="41.89256058877194" lon="12.624225107458724"><ele>42.0</ele><time>2026-04-12T08:30:05.999Z</time></trkpt><trkpt lat="41.89264349738743" lon="12.624241879110373"><ele>42.0</ele><time>2026-04-12T08:30:07.999Z</time></trkpt><trkpt lat="41.89271057655937" lon="12.624255251615294"><ele>42.0</ele><time>2026-04-12T08:30:09.999Z</time></trkpt><trkpt lat="41.89282911127403" lon="12.624286746983397"><ele>42.0</ele><time>2026-04-12T08:30:12.999Z</time></trkpt><trkpt lat="41.892913113693375" lon="12.624320506307226"><ele>42.0</ele><time>2026-04-12T08:30:13.999Z</time></trkpt><trkpt lat="41.89300585020939" lon="12.624348204388443"><ele>42.0</ele><time>2026-04-12T08:30:14.999Z</time></trkpt><trkpt lat="41.8931258239752" lon="12.624378041503551"><ele>42.0</ele><time>2026-04-12T08:30:15.999Z</time></trkpt><trkpt lat="41.8932588858424" lon="12.624414365545746"><ele>42.0</ele><time>2026-04-12T08:30:16.999Z</time></trkpt><trkpt lat="41.893410449846385" lon="12.624457420056373"><ele>42.0</ele><time>2026-04-12T08:30:17.999Z</time></trkpt><trkpt lat="41.893579894059705" lon="12.624501301608285"><ele>42.0</ele><time>2026-04-12T08:30:18.999Z</time></trkpt><trkpt lat="41.893755104069584" lon="12.62454896713065"><ele>42.0</ele><time>2026-04-12T08:30:19.999Z</time></trkpt><trkpt lat="41.8939275274907" lon="12.624595696892586"><ele>42.0</ele><time>2026-04-12T08:30:20.999Z</time></trkpt><trkpt lat="41.89409494748681" lon="12.62464190579851"><ele>43.0</ele><time>2026-04-12T08:30:21.999Z</time></trkpt><trkpt lat="41.89425734445299" lon="12.624694954740521"><ele>44.0</ele><time>2026-04-12T08:30:22.999Z</time></trkpt><trkpt lat="41.894416408018444" lon="12.624756822136094"><ele>45.0</ele><time>2026-04-12T08:30:23.999Z</time></trkpt><trkpt lat="41.89456506097223" lon="12.624829978328288"><ele>45.0</ele><time>2026-04-12T08:30:24.999Z</time></trkpt><trkpt lat="41.89470140981662" lon="12.62491690067821"><ele>45.0</ele><time>2026-04-12T08:30:25.999Z</time></trkpt><trkpt lat="41.89482704430044" lon="12.625014167852544"><ele>45.0</ele><time>2026-04-12T08:30:26.999Z</time></trkpt><trkpt lat="41.894944281085955" lon="12.625135987700409"><ele>45.0</ele><time>2026-04-12T08:30:27.999Z</time></trkpt><trkpt lat="41.895046321894" lon="12.625266787258283"><ele>46.25</ele><time>2026-04-12T08:30:28.999Z</time></trkpt><trkpt lat="41.89514271142596" lon="12.625395969956571"><ele>47.5</ele><time>2026-04-12T08:30:29.999Z</time></trkpt><trkpt lat="41.89522300262496" lon="12.625530429617179"><ele>48.75</ele><time>2026-04-12T08:30:30.999Z</time></trkpt><trkpt lat="41.89530142723632" lon="12.625652163096957"><ele>50.0</ele><time>2026-04-12T08:30:32.001Z</time></trkpt><trkpt lat="41.895391901303206" lon="12.625756202039234"><ele>50.0</ele><time>2026-04-12T08:30:33.001Z</time></trkpt><trkpt lat="41.89551721450156" lon="12.6258499269828"><ele>50.0</ele><time>2026-04-12T08:30:34.001Z</time></trkpt><trkpt lat="41.89567316855205" lon="12.625926953924424"><ele>50.0</ele><time>2026-04-12T08:30:35.001Z</time></trkpt><trkpt lat="41.89585094476986" lon="12.62597168061579"><ele>51.0</ele><time>2026-04-12T08:30:36.001Z</time></trkpt><trkpt lat="41.89603797037851" lon="12.625980051604438"><ele>52.0</ele><time>2026-04-12T08:30:37.001Z</time></trkpt><trkpt lat="41.89622747266416" lon="12.625973198678224"><ele>53.0</ele><time>2026-04-12T08:30:38.001Z</time></trkpt><trkpt lat="41.89640578576234" lon="12.625941310187956"><ele>53.0</ele><time>2026-04-12T08:30:39.001Z</time></trkpt><trkpt lat="41.8965636388823" lon="12.625911344746914"><ele>53.0</ele><time>2026-04-12T08:30:40.001Z</time></trkpt><trkpt lat="41.896710089180196" lon="12.625889510602253"><ele>53.0</ele><time>2026-04-12T08:30:41.001Z</time></trkpt><trkpt lat="41.896848733034716" lon="12.62586550594498"><ele>53.0</ele><time>2026-04-12T08:30:42.001Z</time></trkpt><trkpt lat="41.89697595416707" lon="12.625845305568628"><ele>53.25</ele><time>2026-04-12T08:30:43.001Z</time></trkpt><trkpt lat="41.8971032142177" lon="12.625825538832059"><ele>53.5</ele><time>2026-04-12T08:30:44.001Z</time></trkpt><trkpt lat="41.897248746020246" lon="12.625798450793129"><ele>53.75</ele><time>2026-04-12T08:30:45.001Z</time></trkpt><trkpt lat="41.89740774910005" lon="12.625766936635133"><ele>54.0</ele><time>2026-04-12T08:30:46.001Z</time></trkpt><trkpt lat="41.89756755838342" lon="12.62574037860863"><ele>53.5</ele><time>2026-04-12T08:30:47.001Z</time></trkpt><trkpt lat="41.89771895002526" lon="12.625719045846557"><ele>53.0</ele><time>2026-04-12T08:30:48.001Z</time></trkpt><trkpt lat="41.8978671664174" lon="12.62569799700571"><ele>52.5</ele><time>2026-04-12T08:30:49.001Z</time></trkpt><trkpt lat="41.89801373364803" lon="12.625673171729188"><ele>52.0</ele><time>2026-04-12T08:30:50.001Z</time></trkpt><trkpt lat="41.89816384650534" lon="12.625646272673007"><ele>52.0</ele><time>2026-04-12T08:30:51.001Z</time></trkpt><trkpt lat="41.89831937493484" lon="12.625620861588443"><ele>52.0</ele><time>2026-04-12T08:30:52.001Z</time></trkpt><trkpt lat="41.898500786738786" lon="12.625593943429829"><ele>52.0</ele><time>2026-04-12T08:30:53.001Z</time></trkpt><trkpt lat="41.898683576901696" lon="12.62556980975747"><ele>50.0</ele><time>2026-04-12T08:30:54.001Z</time></trkpt><trkpt lat="41.898867035724706" lon="12.625545081082848"><ele>48.0</ele><time>2026-04-12T08:30:55.001Z</time></trkpt><trkpt lat="41.89904336122375" lon="12.62552051152637"><ele>46.0</ele><time>2026-04-12T08:30:56.001Z</time></trkpt><trkpt lat="41.899211187810366" lon="12.625494136463145"><ele>44.66666666666667</ele><time>2026-04-12T08:30:57Z</time></trkpt><trkpt lat="41.89937043071974" lon="12.62546940987572"><ele>43.333333333333336</ele><time>2026-04-12T08:30:58Z</time></trkpt><trkpt lat="41.899522703838024" lon="12.62544836468283"><ele>42.0</ele><time>2026-04-12T08:30:59Z</time></trkpt><trkpt lat="41.899664992428704" lon="12.625432363179646"><ele>42.0</ele><time>2026-04-12T08:31:00Z</time></trkpt><trkpt lat="41.89980015418629" lon="12.6254101531338"><ele>42.0</ele><time>2026-04-12T08:31:01Z</time></trkpt><trkpt lat="41.899932481941285" lon="12.625365823699106"><ele>42.0</ele><time>2026-04-12T08:31:02Z</time></trkpt><trkpt lat="41.9000586577238" lon="12.625262888322606"><ele>42.0</ele><time>2026-04-12T08:31:03Z</time></trkpt><trkpt lat="41.90018283795258" lon="12.62511814515153"><ele>41.5</ele><time>2026-04-12T08:31:04Z</time></trkpt><trkpt lat="41.9002850561446" lon="12.624952658836564"><ele>41.0</ele><time>2026-04-12T08:31:05Z</time></trkpt><trkpt lat="41.90037683882306" lon="12.62479896517268"><ele>40.5</ele><time>2026-04-12T08:31:06Z</time></trkpt><trkpt lat="41.90046820776607" lon="12.624665384909413"><ele>40.0</ele><time>2026-04-12T08:31:07Z</time></trkpt><trkpt lat="41.90055687199326" lon="12.624561546856928"><ele>40.0</ele><time>2026-04-12T08:31:08Z</time></trkpt><trkpt lat="41.90065374651514" lon="12.624498448944891"><ele>40.0</ele><time>2026-04-12T08:31:09Z</time></trkpt><trkpt lat="41.9007746917489" lon="12.624480451760933"><ele>40.0</ele><time>2026-04-12T08:31:10Z</time></trkpt><trkpt lat="41.90092361995489" lon="12.624493078251156"><ele>40.0</ele><time>2026-04-12T08:31:11Z</time></trkpt><trkpt lat="41.90110487333799" lon="12.624517229596945"><ele>39.66666666666667</ele><time>2026-04-12T08:31:12Z</time></trkpt><trkpt lat="41.9012989243366" lon="12.624543331832811"><ele>39.333333333333336</ele><time>2026-04-12T08:31:13Z</time></trkpt><trkpt lat="41.90151413026407" lon="12.62457288809186"><ele>39.0</ele><time>2026-04-12T08:31:14Z</time></trkpt><trkpt lat="41.90173462040635" lon="12.62460270560174"><ele>38.333333333333336</ele><time>2026-04-12T08:31:15Z</time></trkpt><trkpt lat="41.901920187390616" lon="12.624631776029458"><ele>37.66666666666667</ele><time>2026-04-12T08:31:16Z</time></trkpt><trkpt lat="41.90214601919111" lon="12.624658618950667"><ele>37.0</ele><time>2026-04-12T08:31:17Z</time></trkpt><trkpt lat="41.90236623825308" lon="12.62468508889764"><ele>37.0</ele><time>2026-04-12T08:31:18Z</time></trkpt><trkpt lat="41.90258030744951" lon="12.624705710205191"><ele>37.0</ele><time>2026-04-12T08:31:19Z</time></trkpt><trkpt lat="41.90278429466288" lon="12.624728180140831"><ele>37.0</ele><time>2026-04-12T08:31:20Z</time></trkpt><trkpt lat="41.90297659693121" lon="12.624746862386642"><ele>37.66666666666667</ele><time>2026-04-12T08:31:21Z</time></trkpt><trkpt lat="41.90315655757812" lon="12.624766121295133"><ele>38.333333333333336</ele><time>2026-04-12T08:31:22Z</time></trkpt><trkpt lat="41.9033256867276" lon="12.624788622988461"><ele>39.0</ele><time>2026-04-12T08:31:23Z</time></trkpt><trkpt lat="41.903490430574195" lon="12.624811657066575"><ele>39.5</ele><time>2026-04-12T08:31:24Z</time></trkpt><trkpt lat="41.90364299604548" lon="12.624831075824575"><ele>40.0</ele><time>2026-04-12T08:31:25Z</time></trkpt><trkpt lat="41.903792128283484" lon="12.624856892816368"><ele>40.5</ele><time>2026-04-12T08:31:26Z</time></trkpt><trkpt lat="41.903934149160115" lon="12.624896111335765"><ele>41.0</ele><time>2026-04-12T08:31:27Z</time></trkpt><trkpt lat="41.90406881389205" lon="12.624979930217854"><ele>41.0</ele><time>2026-04-12T08:31:28Z</time></trkpt><trkpt lat="41.90421256663082" lon="12.625081771926599"><ele>41.0</ele><time>2026-04-12T08:31:29Z</time></trkpt><trkpt lat="41.904386818169584" lon="12.625179459721346"><ele>41.0</ele><time>2026-04-12T08:31:30Z</time></trkpt><trkpt lat="41.90456153115628" lon="12.625313481898724"><ele>43.0</ele><time>2026-04-12T08:31:31Z</time></trkpt><trkpt lat="41.9047280698595" lon="12.625430678215713"><ele>45.0</ele><time>2026-04-12T08:31:32Z</time></trkpt><trkpt lat="41.904873803310295" lon="12.625535131861149"><ele>47.0</ele><time>2026-04-12T08:31:33Z</time></trkpt><trkpt lat="41.905014906211996" lon="12.625627579932296"><ele>47.75</ele><time>2026-04-12T08:31:34Z</time></trkpt><trkpt lat="41.905154413612784" lon="12.62565408639764"><ele>48.5</ele><time>2026-04-12T08:31:35Z</time></trkpt><trkpt lat="41.90529292582507" lon="12.625685891894625"><ele>49.25</ele><time>2026-04-12T08:31:36Z</time></trkpt><trkpt lat="41.90544506185487" lon="12.625689125784065"><ele>50.0</ele><time>2026-04-12T08:31:37Z</time></trkpt><trkpt lat="41.905608492342814" lon="12.625705018477023"><ele>50.0</ele><time>2026-04-12T08:31:38Z</time></trkpt><trkpt lat="41.90577576965101" lon="12.62572574630313"><ele>50.0</ele><time>2026-04-12T08:31:39Z</time></trkpt><trkpt lat="41.90592643900484" lon="12.625749481321366"><ele>50.0</ele><time>2026-04-12T08:31:40Z</time></trkpt><trkpt lat="41.906053470003286" lon="12.62579773972549"><ele>50.25</ele><time>2026-04-12T08:31:41Z</time></trkpt><trkpt lat="41.90616850387133" lon="12.625879494428677"><ele>50.5</ele><time>2026-04-12T08:31:42Z</time></trkpt><trkpt lat="41.90625367393259" lon="12.626014251460905"><ele>50.75</ele><time>2026-04-12T08:31:43Z</time></trkpt><trkpt lat="41.90635229166321" lon="12.626162710744797"><ele>51.0</ele><time>2026-04-12T08:31:44Z</time></trkpt><trkpt lat="41.90646934319275" lon="12.626342241617783"><ele>51.0</ele><time>2026-04-12T08:31:45Z</time></trkpt><trkpt lat="41.90659245032058" lon="12.626533284564502"><ele>51.0</ele><time>2026-04-12T08:31:46Z</time></trkpt><trkpt lat="41.90671124889587" lon="12.626723015226064"><ele>51.0</ele><time>2026-04-12T08:31:47Z</time></trkpt><trkpt lat="41.906817399608464" lon="12.626893061745017"><ele>49.5</ele><time>2026-04-12T08:31:47.999Z</time></trkpt><trkpt lat="41.90691106712847" lon="12.627038048709341"><ele>48.0</ele><time>2026-04-12T08:31:48.999Z</time></trkpt><trkpt lat="41.907000067665855" lon="12.62716581423607"><ele>46.5</ele><time>2026-04-12T08:31:49.999Z</time></trkpt><trkpt lat="41.90710522636198" lon="12.627251570121985"><ele>45.0</ele><time>2026-04-12T08:31:50.999Z</time></trkpt><trkpt lat="41.90722513834275" lon="12.627266220916864"><ele>45.0</ele><time>2026-04-12T08:31:51.999Z</time></trkpt><trkpt lat="41.90734217262836" lon="12.627274819005246"><ele>45.0</ele><time>2026-04-12T08:31:52.999Z</time></trkpt><trkpt lat="41.90744502411436" lon="12.627237829653826"><ele>45.0</ele><time>2026-04-12T08:31:53.999Z</time></trkpt><trkpt lat="41.907525596264286" lon="12.627214784059706"><ele>45.0</ele><time>2026-04-12T08:31:54.999Z</time></trkpt><trkpt lat="41.907591248255386" lon="12.627209887844039"><ele>45.0</ele><time>2026-04-12T08:31:55.999Z</time></trkpt><trkpt lat="41.90765915008855" lon="12.62720270141287"><ele>45.0</ele><time>2026-04-12T08:31:57.999Z</time></trkpt><trkpt lat="41.90773903809624" lon="12.627163524327356"><ele>44.5</ele><time>2026-04-12T08:33:57.999Z</time></trkpt><trkpt lat="41.90782476577627" lon="12.627152095987364"><ele>44.0</ele><time>2026-04-12T08:33:59.999Z</time></trkpt><trkpt lat="41.90791237071125" lon="12.62714864147477"><ele>43.5</ele><time>2026-04-12T08:34:02.999Z</time></trkpt><trkpt lat="41.90797036515569" lon="12.627249712185154"><ele>43.0</ele><time>2026-04-12T08:34:04.999Z</time></trkpt><trkpt lat="41.90800913424799" lon="12.62731943031807"><ele>42.5</ele><time>2026-04-12T08:34:05.999Z</time></trkpt><trkpt lat="41.908053705227715" lon="12.627405459218789"><ele>42.0</ele><time>2026-04-12T08:34:06.999Z</time></trkpt><trkpt lat="41.908097776549425" lon="12.627492040997238"><ele>42.0</ele><time>2026-04-12T08:34:07.999Z</time></trkpt><trkpt lat="41.90815977137335" lon="12.627589220803804"><ele>42.0</ele><time>2026-04-12T08:34:08.999Z</time></trkpt><trkpt lat="41.90823854689432" lon="12.627687236703332"><ele>42.0</ele><time>2026-04-12T08:34:09.999Z</time></trkpt><trkpt lat="41.90832713025308" lon="12.627780397940054"><ele>42.0</ele><time>2026-04-12T08:34:10.999Z</time></trkpt><trkpt lat="41.908424841612195" lon="12.627871186290287"><ele>42.0</ele><time>2026-04-12T08:34:11.999Z</time></trkpt><trkpt lat="41.90852578031468" lon="12.627957146137922"><ele>42.0</ele><time>2026-04-12T08:34:12.999Z</time></trkpt><trkpt lat="41.90862965857728" lon="12.628049416984183"><ele>42.0</ele><time>2026-04-12T08:34:13.999Z</time></trkpt><trkpt lat="41.908725282530696" lon="12.628155297551261"><ele>42.0</ele><time>2026-04-12T08:34:14.999Z</time></trkpt><trkpt lat="41.90880025276535" lon="12.628277140312864"><ele>42.0</ele><time>2026-04-12T08:34:15.999Z</time></trkpt><trkpt lat="41.90886194461624" lon="12.628404531304144"><ele>42.0</ele><time>2026-04-12T08:34:16.999Z</time></trkpt><trkpt lat="41.908912505827075" lon="12.628544750910695"><ele>42.0</ele><time>2026-04-12T08:34:17.999Z</time></trkpt><trkpt lat="41.90896034827191" lon="12.628698796924587"><ele>42.0</ele><time>2026-04-12T08:34:18.999Z</time></trkpt><trkpt lat="41.90900790882532" lon="12.628869586790627"><ele>42.0</ele><time>2026-04-12T08:34:19.999Z</time></trkpt><trkpt lat="41.90905336892114" lon="12.629044069185634"><ele>41.25</ele><time>2026-04-12T08:34:20.999Z</time></trkpt><trkpt lat="41.90909517384327" lon="12.629209543750793"><ele>40.5</ele><time>2026-04-12T08:34:21.999Z</time></trkpt><trkpt lat="41.90913620592369" lon="12.629367138325838"><ele>39.75</ele><time>2026-04-12T08:34:22.999Z</time></trkpt><trkpt lat="41.9091758696664" lon="12.629519297842043"><ele>39.0</ele><time>2026-04-12T08:34:23.999Z</time></trkpt><trkpt lat="41.90920823350775" lon="12.629666602910847"><ele>37.75</ele><time>2026-04-12T08:34:24.999Z</time></trkpt><trkpt lat="41.909249597169556" lon="12.629820801023072"><ele>36.5</ele><time>2026-04-12T08:34:25.999Z</time></trkpt><trkpt lat="41.90929336290909" lon="12.629987345591116"><ele>35.25</ele><time>2026-04-12T08:34:26.999Z</time></trkpt><trkpt lat="41.909338481594084" lon="12.630155824611537"><ele>34.0</ele><time>2026-04-12T08:34:27.999Z</time></trkpt><trkpt lat="41.909382437152864" lon="12.630325135558328"><ele>34.0</ele><time>2026-04-12T08:34:28.999Z</time></trkpt><trkpt lat="41.90942581264438" lon="12.63050722449515"><ele>34.0</ele><time>2026-04-12T08:34:29.999Z</time></trkpt><trkpt lat="41.909469244423214" lon="12.63068638321075"><ele>34.0</ele><time>2026-04-12T08:34:30.999Z</time></trkpt><trkpt lat="41.909518591040886" lon="12.63087266475555"><ele>34.0</ele><time>2026-04-12T08:34:31.999Z</time></trkpt><trkpt lat="41.909568575001465" lon="12.631068916520347"><ele>33.66666666666667</ele><time>2026-04-12T08:34:32.999Z</time></trkpt><trkpt lat="41.909618366361975" lon="12.631272071273697"><ele>33.333333333333336</ele><time>2026-04-12T08:34:33.999Z</time></trkpt><trkpt lat="41.909673091788534" lon="12.6314738612202"><ele>33.0</ele><time>2026-04-12T08:34:34.999Z</time></trkpt><trkpt lat="41.909731284338214" lon="12.631684870660951"><ele>33.0</ele><time>2026-04-12T08:34:35.999Z</time></trkpt><trkpt lat="41.90979857319985" lon="12.631897518856299"><ele>33.0</ele><time>2026-04-12T08:34:36.999Z</time></trkpt><trkpt lat="41.90988102018266" lon="12.632106967600373"><ele>33.0</ele><time>2026-04-12T08:34:37.999Z</time></trkpt><trkpt lat="41.909969230738334" lon="12.632316640119747"><ele>33.333333333333336</ele><time>2026-04-12T08:34:38.999Z</time></trkpt><trkpt lat="41.910054307342136" lon="12.632515982317381"><ele>33.66666666666667</ele><time>2026-04-12T08:34:39.999Z</time></trkpt><trkpt lat="41.91013808578029" lon="12.63271400613692"><ele>34.0</ele><time>2026-04-12T08:34:40.999Z</time></trkpt><trkpt lat="41.91021957802303" lon="12.63291220210624"><ele>35.0</ele><time>2026-04-12T08:34:41.999Z</time></trkpt><trkpt lat="41.910293549973545" lon="12.633114895756824"><ele>36.0</ele><time>2026-04-12T08:34:42.999Z</time></trkpt><trkpt lat="41.910360058527836" lon="12.633322971929807"><ele>37.0</ele><time>2026-04-12T08:34:44.001Z</time></trkpt><trkpt lat="41.910423741292824" lon="12.633534564439389"><ele>35.333333333333336</ele><time>2026-04-12T08:34:45.001Z</time></trkpt><trkpt lat="41.91047470911353" lon="12.633739029120791"><ele>33.666666666666664</ele><time>2026-04-12T08:34:46.001Z</time></trkpt><trkpt lat="41.910504779546876" lon="12.633942976134746"><ele>32.0</ele><time>2026-04-12T08:34:47.001Z</time></trkpt><trkpt lat="41.91050896029429" lon="12.634154617698846"><ele>32.0</ele><time>2026-04-12T08:34:48.001Z</time></trkpt><trkpt lat="41.910490478308944" lon="12.634394925535222"><ele>32.0</ele><time>2026-04-12T08:34:49.001Z</time></trkpt><trkpt lat="41.91047145452932" lon="12.634644673455814"><ele>32.0</ele><time>2026-04-12T08:34:50.001Z</time></trkpt><trkpt lat="41.91046459046443" lon="12.634904231996916"><ele>32.666666666666664</ele><time>2026-04-12T08:34:51.001Z</time></trkpt><trkpt lat="41.91047319424338" lon="12.635166419038127"><ele>33.333333333333336</ele><time>2026-04-12T08:34:52.001Z</time></trkpt><trkpt lat="41.910486173685946" lon="12.635424044065989"><ele>34.0</ele><time>2026-04-12T08:34:53.001Z</time></trkpt><trkpt lat="41.91049929243527" lon="12.63566791697032"><ele>34.0</ele><time>2026-04-12T08:34:54.001Z</time></trkpt><trkpt lat="41.910514023642925" lon="12.6359059164069"><ele>34.0</ele><time>2026-04-12T08:34:55.001Z</time></trkpt><trkpt lat="41.9105432052832" lon="12.636147555741623"><ele>34.0</ele><time>2026-04-12T08:34:56.001Z</time></trkpt><trkpt lat="41.91058895008393" lon="12.636392368923527"><ele>33.66666666666667</ele><time>2026-04-12T08:34:57.001Z</time></trkpt><trkpt lat="41.910659665706866" lon="12.636628181725113"><ele>33.333333333333336</ele><time>2026-04-12T08:34:58.001Z</time></trkpt><trkpt lat="41.91072790802557" lon="12.63684469711374"><ele>33.0</ele><time>2026-04-12T08:34:59.001Z</time></trkpt><trkpt lat="41.91077874516991" lon="12.63705319814722"><ele>33.0</ele><time>2026-04-12T08:35:00.001Z</time></trkpt><trkpt lat="41.9108153381168" lon="12.637250819994549"><ele>33.0</ele><time>2026-04-12T08:35:01Z</time></trkpt><trkpt lat="41.91084122314121" lon="12.637455789774569"><ele>33.0</ele><time>2026-04-12T08:35:02Z</time></trkpt><trkpt lat="41.910846203855456" lon="12.637680663203097"><ele>33.0</ele><time>2026-04-12T08:35:03Z</time></trkpt><trkpt lat="41.91082870257533" lon="12.63791589496845"><ele>33.0</ele><time>2026-04-12T08:35:04Z</time></trkpt><trkpt lat="41.910807296463815" lon="12.638151515413325"><ele>33.0</ele><time>2026-04-12T08:35:05Z</time></trkpt><trkpt lat="41.91079674987054" lon="12.638385480067198"><ele>33.0</ele><time>2026-04-12T08:35:06Z</time></trkpt><trkpt lat="41.91080462250134" lon="12.638612529014887"><ele>33.0</ele><time>2026-04-12T08:35:07Z</time></trkpt><trkpt lat="41.91082139346964" lon="12.638822150208867"><ele>33.0</ele><time>2026-04-12T08:35:08Z</time></trkpt><trkpt lat="41.91083969153956" lon="12.639023316396427"><ele>33.0</ele><time>2026-04-12T08:35:09Z</time></trkpt><trkpt lat="41.91086850273788" lon="12.639205374760508"><ele>33.0</ele><time>2026-04-12T08:35:10Z</time></trkpt><trkpt lat="41.91091444741793" lon="12.639351850267333"><ele>33.0</ele><time>2026-04-12T08:35:11Z</time></trkpt><trkpt lat="41.91096541537456" lon="12.639467693778387"><ele>33.0</ele><time>2026-04-12T08:35:12Z</time></trkpt><trkpt lat="41.91101389569421" lon="12.639559279762546"><ele>33.0</ele><time>2026-04-12T08:35:13Z</time></trkpt><trkpt lat="41.91104754500312" lon="12.639641038275979"><ele>33.0</ele><time>2026-04-12T08:35:14Z</time></trkpt><trkpt lat="41.91106305574194" lon="12.639783986341694"><ele>33.0</ele><time>2026-04-12T08:35:16Z</time></trkpt><trkpt lat="41.91108727064481" lon="12.639945326365714"><ele>33.0</ele><time>2026-04-12T08:35:18Z</time></trkpt><trkpt lat="41.911167136633786" lon="12.640045995799218"><ele>33.0</ele><time>2026-04-12T08:35:20Z</time></trkpt><trkpt lat="41.91127461387265" lon="12.640034358573384"><ele>33.0</ele><time>2026-04-12T08:35:22Z</time></trkpt><trkpt lat="41.91134538576574" lon="12.639903870765064"><ele>33.0</ele><time>2026-04-12T08:35:24Z</time></trkpt><trkpt lat="41.91136459019704" lon="12.639810868477136"><ele>33.0</ele><time>2026-04-12T08:35:25Z</time></trkpt><trkpt lat="41.911388387824104" lon="12.639713669463143"><ele>33.0</ele><time>2026-04-12T08:35:26Z</time></trkpt><trkpt lat="41.9114191879224" lon="12.639610033459324"><ele>33.0</ele><time>2026-04-12T08:35:27Z</time></trkpt><trkpt lat="41.91146050974256" lon="12.639502744648837"><ele>33.0</ele><time>2026-04-12T08:35:28Z</time></trkpt><trkpt lat="41.911517865902944" lon="12.639381938369482"><ele>33.0</ele><time>2026-04-12T08:35:29Z</time></trkpt><trkpt lat="41.91158158330351" lon="12.639248047886333"><ele>32.75</ele><time>2026-04-12T08:35:30Z</time></trkpt><trkpt lat="41.911650254256145" lon="12.639093535623712"><ele>32.5</ele><time>2026-04-12T08:35:31Z</time></trkpt><trkpt lat="41.91172922883805" lon="12.63891527825703"><ele>32.25</ele><time>2026-04-12T08:35:32Z</time></trkpt><trkpt lat="41.911810705233755" lon="12.63873002779359"><ele>32.0</ele><time>2026-04-12T08:35:33Z</time></trkpt><trkpt lat="41.91190055622406" lon="12.638529303825209"><ele>32.0</ele><time>2026-04-12T08:35:34Z</time></trkpt><trkpt lat="41.91199253355029" lon="12.638338344462339"><ele>32.0</ele><time>2026-04-12T08:35:35Z</time></trkpt><trkpt lat="41.91207415652557" lon="12.638153763693792"><ele>32.0</ele><time>2026-04-12T08:35:36Z</time></trkpt><trkpt lat="41.9121514810814" lon="12.637975214062084"><ele>32.33333333333333</ele><time>2026-04-12T08:35:37Z</time></trkpt><trkpt lat="41.91222741813404" lon="12.637798270022806"><ele>32.666666666666664</ele><time>2026-04-12T08:35:38Z</time></trkpt><trkpt lat="41.91229703995501" lon="12.637620842445747"><ele>33.0</ele><time>2026-04-12T08:35:39Z</time></trkpt><trkpt lat="41.91236191935093" lon="12.637431167113764"><ele>33.0</ele><time>2026-04-12T08:35:40Z</time></trkpt><trkpt lat="41.912419992319855" lon="12.637217553109242"><ele>33.0</ele><time>2026-04-12T08:35:41Z</time></trkpt><trkpt lat="41.91246879281204" lon="12.636983560797285"><ele>33.0</ele><time>2026-04-12T08:35:42Z</time></trkpt><trkpt lat="41.91250623909844" lon="12.636742854382009"><ele>32.666666666666664</ele><time>2026-04-12T08:35:43Z</time></trkpt><trkpt lat="41.9125425525081" lon="12.636501592819625"><ele>32.33333333333333</ele><time>2026-04-12T08:35:44Z</time></trkpt><trkpt lat="41.91257476227521" lon="12.63625979102217"><ele>32.0</ele><time>2026-04-12T08:35:45Z</time></trkpt><trkpt lat="41.91260297772805" lon="12.636040760024327"><ele>34.0</ele><time>2026-04-12T08:35:46Z</time></trkpt><trkpt lat="41.91263967112992" lon="12.635819988270782"><ele>36.0</ele><time>2026-04-12T08:35:47Z</time></trkpt><trkpt lat="41.91267979903055" lon="12.635593115401166"><ele>38.0</ele><time>2026-04-12T08:35:48Z</time></trkpt><trkpt lat="41.912719133366366" lon="12.63537535439433"><ele>37.25</ele><time>2026-04-12T08:35:49Z</time></trkpt><trkpt lat="41.91276059505031" lon="12.63517110154769"><ele>36.5</ele><time>2026-04-12T08:35:50Z</time></trkpt><trkpt lat="41.91280920801809" lon="12.634986477351847"><ele>35.75</ele><time>2026-04-12T08:35:51Z</time></trkpt><trkpt lat="41.91287434426894" lon="12.634830861671654"><ele>35.0</ele><time>2026-04-12T08:35:51.999Z</time></trkpt><trkpt lat="41.912953039696696" lon="12.634696573144181"><ele>35.0</ele><time>2026-04-12T08:35:52.999Z</time></trkpt><trkpt lat="41.91304543243723" lon="12.634585963601648"><ele>35.0</ele><time>2026-04-12T08:35:53.999Z</time></trkpt><trkpt lat="41.91315875471145" lon="12.634481256650325"><ele>35.0</ele><time>2026-04-12T08:35:54.999Z</time></trkpt><trkpt lat="41.9132985534949" lon="12.634385073044943"><ele>35.0</ele><time>2026-04-12T08:35:55.999Z</time></trkpt><trkpt lat="41.91344378305291" lon="12.634281398878924"><ele>35.0</ele><time>2026-04-12T08:35:56.999Z</time></trkpt><trkpt lat="41.91359346747842" lon="12.63418153358883"><ele>35.0</ele><time>2026-04-12T08:35:57.999Z</time></trkpt><trkpt lat="41.913730167289" lon="12.634088512406061"><ele>35.0</ele><time>2026-04-12T08:35:58.999Z</time></trkpt><trkpt lat="41.91385483933372" lon="12.63399728897758"><ele>35.0</ele><time>2026-04-12T08:35:59.999Z</time></trkpt><trkpt lat="41.913968019140896" lon="12.633912742604121"><ele>35.0</ele><time>2026-04-12T08:36:00.999Z</time></trkpt><trkpt lat="41.914075594781465" lon="12.633850420013435"><ele>35.0</ele><time>2026-04-12T08:36:01.999Z</time></trkpt><trkpt lat="41.91418286260547" lon="12.633827537079569"><ele>35.0</ele><time>2026-04-12T08:36:02.999Z</time></trkpt><trkpt lat="41.91428605467331" lon="12.63382102071367"><ele>34.6</ele><time>2026-04-12T08:36:03.999Z</time></trkpt><trkpt lat="41.91438801636245" lon="12.633832914946543"><ele>34.2</ele><time>2026-04-12T08:36:04.999Z</time></trkpt><trkpt lat="41.91448206110872" lon="12.633837896726572"><ele>33.8</ele><time>2026-04-12T08:36:05.999Z</time></trkpt><trkpt lat="41.91457316016282" lon="12.633842318505035"><ele>33.4</ele><time>2026-04-12T08:36:06.999Z</time></trkpt><trkpt lat="41.91466086923628" lon="12.633848628377102"><ele>33.0</ele><time>2026-04-12T08:36:07.999Z</time></trkpt><trkpt lat="41.91474154121414" lon="12.633850809330855"><ele>33.0</ele><time>2026-04-12T08:36:08.999Z</time></trkpt><trkpt lat="41.91482646636739" lon="12.63384937154841"><ele>33.0</ele><time>2026-04-12T08:36:09.999Z</time></trkpt><trkpt lat="41.91498454417057" lon="12.63387717114458"><ele>33.0</ele><time>2026-04-12T08:36:11.999Z</time></trkpt><trkpt lat="41.91508314871035" lon="12.633865210779959"><ele>33.0</ele><time>2026-04-12T08:36:12.999Z</time></trkpt><trkpt lat="41.91517451144903" lon="12.633872417204831"><ele>33.0</ele><time>2026-04-12T08:36:13.999Z</time></trkpt><trkpt lat="41.91526016997232" lon="12.633867701891905"><ele>33.0</ele><time>2026-04-12T08:36:14.999Z</time></trkpt><trkpt lat="41.915353751082364" lon="12.633867947844847"><ele>33.0</ele><time>2026-04-12T08:36:15.999Z</time></trkpt><trkpt lat="41.91544310752112" lon="12.63385717140535"><ele>33.0</ele><time>2026-04-12T08:36:16.999Z</time></trkpt><trkpt lat="41.91553545631166" lon="12.633849221891602"><ele>33.0</ele><time>2026-04-12T08:36:17.999Z</time></trkpt><trkpt lat="41.915633260962466" lon="12.633857844185767"><ele>33.0</ele><time>2026-04-12T08:36:18.999Z</time></trkpt><trkpt lat="41.915735657239495" lon="12.633846579298819"><ele>33.0</ele><time>2026-04-12T08:36:19.999Z</time></trkpt><trkpt lat="41.91583772728483" lon="12.633829486283211"><ele>33.0</ele><time>2026-04-12T08:36:20.999Z</time></trkpt><trkpt lat="41.91594026163086" lon="12.633806952238125"><ele>33.0</ele><time>2026-04-12T08:36:21.999Z</time></trkpt><trkpt lat="41.91604388556797" lon="12.633768902203993"><ele>33.0</ele><time>2026-04-12T08:36:22.999Z</time></trkpt><trkpt lat="41.91616045342188" lon="12.633752486187236"><ele>33.0</ele><time>2026-04-12T08:36:23.999Z</time></trkpt><trkpt lat="41.91629363023353" lon="12.633728710116424"><ele>33.333333333333336</ele><time>2026-04-12T08:36:24.999Z</time></trkpt><trkpt lat="41.91643544460662" lon="12.633700281178772"><ele>33.66666666666667</ele><time>2026-04-12T08:36:25.999Z</time></trkpt><trkpt lat="41.91658595746244" lon="12.633675688775803"><ele>34.0</ele><time>2026-04-12T08:36:26.999Z</time></trkpt><trkpt lat="41.916740990644165" lon="12.63366210569509"><ele>33.0</ele><time>2026-04-12T08:36:27.999Z</time></trkpt><trkpt lat="41.91690672814194" lon="12.633652477724235"><ele>32.0</ele><time>2026-04-12T08:36:28.999Z</time></trkpt><trkpt lat="41.91707034370266" lon="12.633648599044689"><ele>31.0</ele><time>2026-04-12T08:36:29.999Z</time></trkpt><trkpt lat="41.91721989283961" lon="12.633642478671321"><ele>30.25</ele><time>2026-04-12T08:36:30.999Z</time></trkpt><trkpt lat="41.91736405250833" lon="12.633629171033402"><ele>29.5</ele><time>2026-04-12T08:36:31.999Z</time></trkpt><trkpt lat="41.91750476866062" lon="12.633616058977733"><ele>28.75</ele><time>2026-04-12T08:36:32.999Z</time></trkpt><trkpt lat="41.91764082287604" lon="12.633600707657546"><ele>28.0</ele><time>2026-04-12T08:36:33.999Z</time></trkpt><trkpt lat="41.91777172658636" lon="12.633580378339015"><ele>28.0</ele><time>2026-04-12T08:36:34.999Z</time></trkpt><trkpt lat="41.91789839204161" lon="12.633563091971656"><ele>28.0</ele><time>2026-04-12T08:36:35.999Z</time></trkpt><trkpt lat="41.918018990274305" lon="12.633542137783039"><ele>28.0</ele><time>2026-04-12T08:36:36.999Z</time></trkpt><trkpt lat="41.918138959952415" lon="12.633520738990505"><ele>28.0</ele><time>2026-04-12T08:36:37.999Z</time></trkpt><trkpt lat="41.918265247537086" lon="12.633507467731624"><ele>28.0</ele><time>2026-04-12T08:36:38.999Z</time></trkpt><trkpt lat="41.91838750853564" lon="12.63350674273302"><ele>28.0</ele><time>2026-04-12T08:36:39.999Z</time></trkpt><trkpt lat="41.918502937541575" lon="12.633511210219888"><ele>28.0</ele><time>2026-04-12T08:36:40.999Z</time></trkpt><trkpt lat="41.91861303307953" lon="12.633536722687989"><ele>28.0</ele><time>2026-04-12T08:36:41.999Z</time></trkpt><trkpt lat="41.91872584574596" lon="12.633587549433754"><ele>29.0</ele><time>2026-04-12T08:36:42.999Z</time></trkpt><trkpt lat="41.91883554411871" lon="12.633667003847545"><ele>30.0</ele><time>2026-04-12T08:36:43.999Z</time></trkpt><trkpt lat="41.91894108220475" lon="12.63377171176735"><ele>31.0</ele><time>2026-04-12T08:36:44.998Z</time></trkpt><trkpt lat="41.91903920873538" lon="12.633885184302747"><ele>32.0</ele><time>2026-04-12T08:36:45.998Z</time></trkpt><trkpt lat="41.91912892182879" lon="12.63402307853484"><ele>32.0</ele><time>2026-04-12T08:36:46.998Z</time></trkpt><trkpt lat="41.91922243112758" lon="12.63416205019692"><ele>32.0</ele><time>2026-04-12T08:36:47.998Z</time></trkpt><trkpt lat="41.91931387643551" lon="12.63430468836066"><ele>32.0</ele><time>2026-04-12T08:36:48.998Z</time></trkpt><trkpt lat="41.91940236976564" lon="12.63443702149045"><ele>32.0</ele><time>2026-04-12T08:36:50Z</time></trkpt><trkpt lat="41.91950519929383" lon="12.634551314191535"><ele>33.25</ele><time>2026-04-12T08:36:51Z</time></trkpt><trkpt lat="41.91962335077277" lon="12.634639711237703"><ele>34.5</ele><time>2026-04-12T08:36:52Z</time></trkpt><trkpt lat="41.9197592117604" lon="12.634701172556078"><ele>35.75</ele><time>2026-04-12T08:36:53Z</time></trkpt><trkpt lat="41.91991029965209" lon="12.634741629885351"><ele>37.0</ele><time>2026-04-12T08:36:54Z</time></trkpt><trkpt lat="41.920063489528545" lon="12.634785012934739"><ele>35.66666666666667</ele><time>2026-04-12T08:36:55Z</time></trkpt><trkpt lat="41.9202114110306" lon="12.634834789305987"><ele>34.333333333333336</ele><time>2026-04-12T08:36:56Z</time></trkpt><trkpt lat="41.92035937920852" lon="12.634873391640115"><ele>33.0</ele><time>2026-04-12T08:36:57Z</time></trkpt><trkpt lat="41.92050412580036" lon="12.634917750682929"><ele>33.0</ele><time>2026-04-12T08:36:58Z</time></trkpt><trkpt lat="41.92065044323417" lon="12.634957840767694"><ele>33.0</ele><time>2026-04-12T08:36:59Z</time></trkpt><trkpt lat="41.92079016355099" lon="12.634992818250492"><ele>33.0</ele><time>2026-04-12T08:37:00Z</time></trkpt><trkpt lat="41.92092455756755" lon="12.635027877338773"><ele>33.0</ele><time>2026-04-12T08:37:01Z</time></trkpt><trkpt lat="41.921055342372135" lon="12.635063026395995"><ele>31.25</ele><time>2026-04-12T08:37:02Z</time></trkpt><trkpt lat="41.92119072076554" lon="12.635098346660753"><ele>29.5</ele><time>2026-04-12T08:37:03Z</time></trkpt><trkpt lat="41.9213426627066" lon="12.635146943442416"><ele>27.75</ele><time>2026-04-12T08:37:04Z</time></trkpt><trkpt lat="41.92148670352072" lon="12.635183518011216"><ele>26.0</ele><time>2026-04-12T08:37:05Z</time></trkpt><trkpt lat="41.92162228723071" lon="12.63521377009256"><ele>26.75</ele><time>2026-04-12T08:37:06Z</time></trkpt><trkpt lat="41.921746324664234" lon="12.635249253429897"><ele>27.5</ele><time>2026-04-12T08:37:07Z</time></trkpt><trkpt lat="41.921866047480954" lon="12.635271714792724"><ele>28.25</ele><time>2026-04-12T08:37:08Z</time></trkpt><trkpt lat="41.92198397339401" lon="12.63526194425311"><ele>29.0</ele><time>2026-04-12T08:37:09Z</time></trkpt><trkpt lat="41.922103176914476" lon="12.63522068402985"><ele>29.0</ele><time>2026-04-12T08:37:10Z</time></trkpt><trkpt lat="41.92222481850651" lon="12.635125543868481"><ele>29.0</ele><time>2026-04-12T08:37:11Z</time></trkpt><trkpt lat="41.92235003744775" lon="12.63499128696017"><ele>29.0</ele><time>2026-04-12T08:37:12Z</time></trkpt><trkpt lat="41.92245805565048" lon="12.63483645468484"><ele>29.0</ele><time>2026-04-12T08:37:13Z</time></trkpt><trkpt lat="41.92255522766284" lon="12.634699875831455"><ele>29.0</ele><time>2026-04-12T08:37:14Z</time></trkpt><trkpt lat="41.92264367112509" lon="12.634555736612223"><ele>29.0</ele><time>2026-04-12T08:37:15Z</time></trkpt><trkpt lat="41.92271362436916" lon="12.634383281923313"><ele>29.0</ele><time>2026-04-12T08:37:16Z</time></trkpt><trkpt lat="41.922757018074016" lon="12.63417975697883"><ele>29.333333333333332</ele><time>2026-04-12T08:37:17Z</time></trkpt><trkpt lat="41.922786636936095" lon="12.633967664220135"><ele>29.666666666666664</ele><time>2026-04-12T08:37:18Z</time></trkpt><trkpt lat="41.92278075845321" lon="12.633732803860457"><ele>30.0</ele><time>2026-04-12T08:37:19Z</time></trkpt><trkpt lat="41.922762638779304" lon="12.633490391277023"><ele>30.0</ele><time>2026-04-12T08:37:20Z</time></trkpt><trkpt lat="41.92274979387999" lon="12.633256933089504"><ele>30.0</ele><time>2026-04-12T08:37:21Z</time></trkpt><trkpt lat="41.92274514472673" lon="12.633010739461096"><ele>30.0</ele><time>2026-04-12T08:37:22Z</time></trkpt><trkpt lat="41.92274113151225" lon="12.632739758072896"><ele>30.0</ele><time>2026-04-12T08:37:23Z</time></trkpt><trkpt lat="41.92273750966818" lon="12.632456774951985"><ele>30.0</ele><time>2026-04-12T08:37:24Z</time></trkpt><trkpt lat="41.92272489288918" lon="12.632200143198803"><ele>30.0</ele><time>2026-04-12T08:37:25Z</time></trkpt><trkpt lat="41.92272012074072" lon="12.631960999413911"><ele>30.333333333333336</ele><time>2026-04-12T08:37:26Z</time></trkpt><trkpt lat="41.92272205844973" lon="12.63174058478924"><ele>30.666666666666668</ele><time>2026-04-12T08:37:27Z</time></trkpt><trkpt lat="41.922696470082855" lon="12.631503910467556"><ele>31.0</ele><time>2026-04-12T08:37:28Z</time></trkpt><trkpt lat="41.92263346951724" lon="12.631266936664558"><ele>29.333333333333336</ele><time>2026-04-12T08:37:29Z</time></trkpt><trkpt lat="41.92254458805773" lon="12.631055330464967"><ele>27.666666666666664</ele><time>2026-04-12T08:37:30Z</time></trkpt><trkpt lat="41.92245523074181" lon="12.630868024674195"><ele>26.0</ele><time>2026-04-12T08:37:31Z</time></trkpt><trkpt lat="41.92237944128212" lon="12.630697581826292"><ele>26.0</ele><time>2026-04-12T08:37:32Z</time></trkpt><trkpt lat="41.92233177622593" lon="12.630534619664408"><ele>26.0</ele><time>2026-04-12T08:37:33Z</time></trkpt><trkpt lat="41.92231557438315" lon="12.630370485540702"><ele>26.0</ele><time>2026-04-12T08:37:34Z</time></trkpt><trkpt lat="41.92233579319285" lon="12.630221139148082"><ele>26.0</ele><time>2026-04-12T08:37:35Z</time></trkpt><trkpt lat="41.922381115755776" lon="12.630075958931846"><ele>25.6</ele><time>2026-04-12T08:37:36Z</time></trkpt><trkpt lat="41.922452456589255" lon="12.629953734300786"><ele>25.200000000000003</ele><time>2026-04-12T08:37:37Z</time></trkpt><trkpt lat="41.92253983497046" lon="12.629867296167921"><ele>24.799999999999997</ele><time>2026-04-12T08:37:38Z</time></trkpt><trkpt lat="41.92264450676563" lon="12.629808687205644"><ele>24.4</ele><time>2026-04-12T08:37:39Z</time></trkpt><trkpt lat="41.92275128710941" lon="12.629780971980855"><ele>24.0</ele><time>2026-04-12T08:37:40Z</time></trkpt><trkpt lat="41.922866779111374" lon="12.629799344803606"><ele>25.25</ele><time>2026-04-12T08:37:41Z</time></trkpt><trkpt lat="41.922984603352354" lon="12.629790038570695"><ele>26.5</ele><time>2026-04-12T08:37:42Z</time></trkpt><trkpt lat="41.92310488925751" lon="12.629821775440893"><ele>27.75</ele><time>2026-04-12T08:37:43Z</time></trkpt><trkpt lat="41.923237576969676" lon="12.629840161169088"><ele>29.0</ele><time>2026-04-12T08:37:44Z</time></trkpt><trkpt lat="41.92336954952358" lon="12.629855159597572"><ele>30.0</ele><time>2026-04-12T08:37:45Z</time></trkpt><trkpt lat="41.923508100301824" lon="12.629865524258072"><ele>31.0</ele><time>2026-04-12T08:37:46Z</time></trkpt><trkpt lat="41.92365903120465" lon="12.62987905970914"><ele>32.0</ele><time>2026-04-12T08:37:47Z</time></trkpt><trkpt lat="41.92380809225601" lon="12.62987167920088"><ele>33.0</ele><time>2026-04-12T08:37:48Z</time></trkpt><trkpt lat="41.92395380786161" lon="12.629825514552318"><ele>33.0</ele><time>2026-04-12T08:37:49Z</time></trkpt><trkpt lat="41.924103995487314" lon="12.629789314220972"><ele>33.0</ele><time>2026-04-12T08:37:50Z</time></trkpt><trkpt lat="41.92425168992072" lon="12.629757655434977"><ele>33.0</ele><time>2026-04-12T08:37:51Z</time></trkpt><trkpt lat="41.924402555719105" lon="12.629725579345132"><ele>33.0</ele><time>2026-04-12T08:37:52Z</time></trkpt><trkpt lat="41.924551826694" lon="12.62972155283575"><ele>33.0</ele><time>2026-04-12T08:37:53Z</time></trkpt><trkpt lat="41.924684865510606" lon="12.629733693618778"><ele>33.0</ele><time>2026-04-12T08:37:54Z</time></trkpt><trkpt lat="41.92480789510735" lon="12.629737499614631"><ele>33.0</ele><time>2026-04-12T08:37:55Z</time></trkpt><trkpt lat="41.92491900059351" lon="12.629760458733182"><ele>33.0</ele><time>2026-04-12T08:37:55.999Z</time></trkpt><trkpt lat="41.92502418978311" lon="12.629829104046399"><ele>33.0</ele><time>2026-04-12T08:37:56.999Z</time></trkpt><trkpt lat="41.925130027944235" lon="12.629904066749221"><ele>33.0</ele><time>2026-04-12T08:37:57.999Z</time></trkpt><trkpt lat="41.925228290627715" lon="12.629980018656013"><ele>33.0</ele><time>2026-04-12T08:37:58.999Z</time></trkpt><trkpt lat="41.925315771550416" lon="12.63005344672023"><ele>34.333333333333336</ele><time>2026-04-12T08:37:59.999Z</time></trkpt><trkpt lat="41.92540153482657" lon="12.630112059978524"><ele>35.666666666666664</ele><time>2026-04-12T08:38:00.999Z</time></trkpt><trkpt lat="41.925486570891955" lon="12.630143241023642"><ele>37.0</ele><time>2026-04-12T08:38:01.999Z</time></trkpt><trkpt lat="41.925565094781085" lon="12.630148764130253"><ele>38.33333333333333</ele><time>2026-04-12T08:38:02.999Z</time></trkpt><trkpt lat="41.92565762164751" lon="12.630187485175654"><ele>39.666666666666664</ele><time>2026-04-12T08:38:04.999Z</time></trkpt><trkpt lat="41.925718480164974" lon="12.630224748960144"><ele>41.0</ele><time>2026-04-12T08:38:08.999Z</time></trkpt><trkpt lat="41.92577366574391" lon="12.63035269701675"><ele>41.4</ele><time>2026-04-12T08:38:10.999Z</time></trkpt><trkpt lat="41.925715227951656" lon="12.630481130314008"><ele>41.8</ele><time>2026-04-12T08:38:11.999Z</time></trkpt><trkpt lat="41.92568282793233" lon="12.630582835384843"><ele>42.199999999999996</ele><time>2026-04-12T08:38:12.999Z</time></trkpt><trkpt lat="41.92565612563469" lon="12.630708442861351"><ele>42.599999999999994</ele><time>2026-04-12T08:38:13.999Z</time></trkpt><trkpt lat="41.92560539453624" lon="12.630841083341084"><ele>43.0</ele><time>2026-04-12T08:38:14.999Z</time></trkpt><trkpt lat="41.925566257455124" lon="12.630987090401101"><ele>43.0</ele><time>2026-04-12T08:38:15.999Z</time></trkpt><trkpt lat="41.925544943340476" lon="12.631135841325058"><ele>43.0</ele><time>2026-04-12T08:38:16.999Z</time></trkpt><trkpt lat="41.92554453416931" lon="12.631292263805111"><ele>43.0</ele><time>2026-04-12T08:38:17.999Z</time></trkpt><trkpt lat="41.925566922887505" lon="12.631457520648667"><ele>43.0</ele><time>2026-04-12T08:38:18.999Z</time></trkpt><trkpt lat="41.925601311232604" lon="12.631621871815138"><ele>43.599999999999994</ele><time>2026-04-12T08:38:19.999Z</time></trkpt><trkpt lat="41.925628405675106" lon="12.63176673370395"><ele>44.199999999999996</ele><time>2026-04-12T08:38:20.999Z</time></trkpt><trkpt lat="41.92565204734713" lon="12.631903583913227"><ele>44.8</ele><time>2026-04-12T08:38:21.999Z</time></trkpt><trkpt lat="41.925675194607216" lon="12.632049645601596"><ele>45.4</ele><time>2026-04-12T08:38:22.999Z</time></trkpt><trkpt lat="41.92569883098388" lon="12.632191621925532"><ele>46.0</ele><time>2026-04-12T08:38:23.999Z</time></trkpt><trkpt lat="41.92572276622934" lon="12.632331489523455"><ele>46.0</ele><time>2026-04-12T08:38:24.999Z</time></trkpt><trkpt lat="41.925744526553395" lon="12.63246893061482"><ele>46.0</ele><time>2026-04-12T08:38:25.999Z</time></trkpt><trkpt lat="41.925766453997134" lon="12.632606339400112"><ele>46.0</ele><time>2026-04-12T08:38:26.999Z</time></trkpt><trkpt lat="41.92579053698106" lon="12.63274398249828"><ele>46.0</ele><time>2026-04-12T08:38:27.999Z</time></trkpt><trkpt lat="41.92581620201346" lon="12.632886287893871"><ele>46.0</ele><time>2026-04-12T08:38:28.999Z</time></trkpt><trkpt lat="41.92583825586959" lon="12.63303213070695"><ele>46.5</ele><time>2026-04-12T08:38:29.999Z</time></trkpt><trkpt lat="41.92586198135141" lon="12.633184827103163"><ele>47.0</ele><time>2026-04-12T08:38:30.999Z</time></trkpt><trkpt lat="41.9258873172993" lon="12.633341479445734"><ele>47.5</ele><time>2026-04-12T08:38:31.999Z</time></trkpt><trkpt lat="41.92591147883026" lon="12.633498548677487"><ele>48.0</ele><time>2026-04-12T08:38:32.999Z</time></trkpt><trkpt lat="41.92593124799376" lon="12.63364598631434"><ele>48.0</ele><time>2026-04-12T08:38:33.999Z</time></trkpt><trkpt lat="41.925951327794834" lon="12.633782645122935"><ele>48.0</ele><time>2026-04-12T08:38:34.999Z</time></trkpt><trkpt lat="41.925971654598655" lon="12.633910033654137"><ele>48.0</ele><time>2026-04-12T08:38:35.999Z</time></trkpt><trkpt lat="41.925992817966964" lon="12.634037386189727"><ele>48.0</ele><time>2026-04-12T08:38:36.999Z</time></trkpt><trkpt lat="41.926016313895765" lon="12.634169345468253"><ele>48.0</ele><time>2026-04-12T08:38:37.999Z</time></trkpt><trkpt lat="41.92603630624332" lon="12.634299223732794"><ele>48.0</ele><time>2026-04-12T08:38:38.999Z</time></trkpt><trkpt lat="41.926055431825546" lon="12.634431868455467"><ele>48.0</ele><time>2026-04-12T08:38:39.999Z</time></trkpt><trkpt lat="41.92607243012866" lon="12.634563094249957"><ele>48.0</ele><time>2026-04-12T08:38:40.999Z</time></trkpt><trkpt lat="41.92609446072305" lon="12.634689640860465"><ele>48.0</ele><time>2026-04-12T08:38:41.999Z</time></trkpt><trkpt lat="41.926117534697816" lon="12.634805330831805"><ele>48.0</ele><time>2026-04-12T08:38:42.999Z</time></trkpt><trkpt lat="41.92615078261709" lon="12.634919758223974"><ele>48.0</ele><time>2026-04-12T08:38:43.999Z</time></trkpt><trkpt lat="41.92620113887939" lon="12.635030254593776"><ele>48.0</ele><time>2026-04-12T08:38:44.999Z</time></trkpt><trkpt lat="41.926270152689185" lon="12.635131724524438"><ele>48.0</ele><time>2026-04-12T08:38:45.999Z</time></trkpt><trkpt lat="41.926344389517894" lon="12.635221330205372"><ele>48.0</ele><time>2026-04-12T08:38:46.999Z</time></trkpt><trkpt lat="41.92641845967965" lon="12.63530870214599"><ele>48.0</ele><time>2026-04-12T08:38:47.999Z</time></trkpt><trkpt lat="41.9264844695068" lon="12.635394448946194"><ele>48.0</ele><time>2026-04-12T08:38:48.998Z</time></trkpt><trkpt lat="41.926550055916394" lon="12.63547450085329"><ele>48.0</ele><time>2026-04-12T08:38:49.998Z</time></trkpt><trkpt lat="41.92660913988515" lon="12.63554983158829"><ele>48.0</ele><time>2026-04-12T08:38:50.998Z</time></trkpt><trkpt lat="41.92666699603599" lon="12.6356296972077"><ele>48.0</ele><time>2026-04-12T08:38:51.998Z</time></trkpt><trkpt lat="41.92673033379001" lon="12.635710500175689"><ele>48.0</ele><time>2026-04-12T08:38:52.998Z</time></trkpt><trkpt lat="41.92679822619856" lon="12.635795637955674"><ele>48.0</ele><time>2026-04-12T08:38:53.998Z</time></trkpt><trkpt lat="41.92686061625101" lon="12.63587924100342"><ele>47.8</ele><time>2026-04-12T08:38:54.998Z</time></trkpt><trkpt lat="41.92692206267385" lon="12.635961646443128"><ele>47.599999999999994</ele><time>2026-04-12T08:38:56Z</time></trkpt><trkpt lat="41.92698570084974" lon="12.636038363731576"><ele>47.400000000000006</ele><time>2026-04-12T08:38:57Z</time></trkpt><trkpt lat="41.92705209074469" lon="12.63612247428895"><ele>47.2</ele><time>2026-04-12T08:38:58Z</time></trkpt><trkpt lat="41.92712064673638" lon="12.636209568122393"><ele>47.0</ele><time>2026-04-12T08:38:59Z</time></trkpt><trkpt lat="41.927191962688035" lon="12.636296421778399"><ele>47.0</ele><time>2026-04-12T08:39:00Z</time></trkpt><trkpt lat="41.92725859523122" lon="12.636378729555283"><ele>47.0</ele><time>2026-04-12T08:39:01Z</time></trkpt><trkpt lat="41.92731569551676" lon="12.636451258254585"><ele>47.0</ele><time>2026-04-12T08:39:02Z</time></trkpt><trkpt lat="41.92736998123535" lon="12.636519321247949"><ele>47.0</ele><time>2026-04-12T08:39:03Z</time></trkpt><trkpt lat="41.92741474230896" lon="12.636584964350213"><ele>47.0</ele><time>2026-04-12T08:39:04Z</time></trkpt><trkpt lat="41.92749326443265" lon="12.636704533398001"><ele>47.0</ele><time>2026-04-12T08:39:06Z</time></trkpt><trkpt lat="41.92766802015246" lon="12.636600302310173"><ele>47.75</ele><time>2026-04-12T08:39:08Z</time></trkpt><trkpt lat="41.92774744150838" lon="12.63651390544579"><ele>48.5</ele><time>2026-04-12T08:39:09Z</time></trkpt><trkpt lat="41.92784267964125" lon="12.636409296318076"><ele>49.25</ele><time>2026-04-12T08:39:10Z</time></trkpt><trkpt lat="41.92794438337508" lon="12.636319192798126"><ele>50.0</ele><time>2026-04-12T08:39:11Z</time></trkpt><trkpt lat="41.92805369787921" lon="12.6362437243453"><ele>50.0</ele><time>2026-04-12T08:39:12Z</time></trkpt><trkpt lat="41.928175731915594" lon="12.636173347062373"><ele>50.0</ele><time>2026-04-12T08:39:13Z</time></trkpt><trkpt lat="41.92831109163665" lon="12.636112243181177"><ele>50.0</ele><time>2026-04-12T08:39:14Z</time></trkpt><trkpt lat="41.928455730199325" lon="12.636065937301952"><ele>50.0</ele><time>2026-04-12T08:39:15Z</time></trkpt><trkpt lat="41.92860854656499" lon="12.636042028260148"><ele>49.75</ele><time>2026-04-12T08:39:16Z</time></trkpt><trkpt lat="41.92875941139424" lon="12.636028698614737"><ele>49.5</ele><time>2026-04-12T08:39:17Z</time></trkpt><trkpt lat="41.92890330276737" lon="12.636014778435625"><ele>49.25</ele><time>2026-04-12T08:39:18Z</time></trkpt><trkpt lat="41.92904537038139" lon="12.635995238306847"><ele>49.0</ele><time>2026-04-12T08:39:19Z</time></trkpt><trkpt lat="41.92918785274729" lon="12.635978080449961"><ele>48.25</ele><time>2026-04-12T08:39:20Z</time></trkpt><trkpt lat="41.92932736237878" lon="12.635961431307905"><ele>47.5</ele><time>2026-04-12T08:39:21Z</time></trkpt><trkpt lat="41.92946662281031" lon="12.635942887830389"><ele>46.75</ele><time>2026-04-12T08:39:22Z</time></trkpt><trkpt lat="41.92961111393137" lon="12.635924591213284"><ele>46.0</ele><time>2026-04-12T08:39:23Z</time></trkpt><trkpt lat="41.92975614280106" lon="12.635903330197138"><ele>46.0</ele><time>2026-04-12T08:39:24Z</time></trkpt><trkpt lat="41.929907620218295" lon="12.635885549556374"><ele>46.0</ele><time>2026-04-12T08:39:25Z</time></trkpt><trkpt lat="41.93006974319401" lon="12.635864249458841"><ele>46.0</ele><time>2026-04-12T08:39:26Z</time></trkpt><trkpt lat="41.93024512638203" lon="12.635843513493285"><ele>46.0</ele><time>2026-04-12T08:39:27Z</time></trkpt><trkpt lat="41.9304220798001" lon="12.635821582907544"><ele>46.0</ele><time>2026-04-12T08:39:28Z</time></trkpt><trkpt lat="41.93060430958412" lon="12.635800173791688"><ele>46.0</ele><time>2026-04-12T08:39:29Z</time></trkpt><trkpt lat="41.93079262555356" lon="12.635779476635642"><ele>46.0</ele><time>2026-04-12T08:39:30Z</time></trkpt><trkpt lat="41.93097796186238" lon="12.635757198341304"><ele>46.0</ele><time>2026-04-12T08:39:31Z</time></trkpt><trkpt lat="41.9311623138638" lon="12.635732574482159"><ele>46.0</ele><time>2026-04-12T08:39:32Z</time></trkpt><trkpt lat="41.93134245022998" lon="12.635700216785688"><ele>46.0</ele><time>2026-04-12T08:39:33Z</time></trkpt><trkpt lat="41.93151354993445" lon="12.635659442235744"><ele>46.0</ele><time>2026-04-12T08:39:34Z</time></trkpt><trkpt lat="41.93167866444605" lon="12.63560660847223"><ele>46.0</ele><time>2026-04-12T08:39:35Z</time></trkpt><trkpt lat="41.931839456903276" lon="12.635533254479416"><ele>47.0</ele><time>2026-04-12T08:39:36Z</time></trkpt><trkpt lat="41.931998607840875" lon="12.635446789175774"><ele>48.0</ele><time>2026-04-12T08:39:37Z</time></trkpt><trkpt lat="41.9321571096297" lon="12.635364905492205"><ele>49.0</ele><time>2026-04-12T08:39:38Z</time></trkpt><trkpt lat="41.93231372141147" lon="12.635297788726243"><ele>49.0</ele><time>2026-04-12T08:39:39Z</time></trkpt><trkpt lat="41.932467235882115" lon="12.635262486952293"><ele>49.0</ele><time>2026-04-12T08:39:40Z</time></trkpt><trkpt lat="41.932614311248265" lon="12.635246433517812"><ele>49.0</ele><time>2026-04-12T08:39:41Z</time></trkpt><trkpt lat="41.9327630376413" lon="12.635247372624173"><ele>49.25</ele><time>2026-04-12T08:39:42Z</time></trkpt><trkpt lat="41.93290767283882" lon="12.635265987134064"><ele>49.5</ele><time>2026-04-12T08:39:43Z</time></trkpt><trkpt lat="41.933050857782256" lon="12.635304608550118"><ele>49.75</ele><time>2026-04-12T08:39:44Z</time></trkpt><trkpt lat="41.93318182814901" lon="12.635372069897553"><ele>50.0</ele><time>2026-04-12T08:39:45Z</time></trkpt><trkpt lat="41.93330223587685" lon="12.635461754141494"><ele>50.75</ele><time>2026-04-12T08:39:46Z</time></trkpt><trkpt lat="41.93341225125602" lon="12.635572901995777"><ele>51.5</ele><time>2026-04-12T08:39:47Z</time></trkpt><trkpt lat="41.93351888439564" lon="12.635698962756315"><ele>52.25</ele><time>2026-04-12T08:39:48Z</time></trkpt><trkpt lat="41.933619245702616" lon="12.63584164882806"><ele>53.0</ele><time>2026-04-12T08:39:49Z</time></trkpt><trkpt lat="41.93371622691899" lon="12.635994733930099"><ele>53.66666666666667</ele><time>2026-04-12T08:39:50Z</time></trkpt><trkpt lat="41.93381526864564" lon="12.636151221041588"><ele>54.33333333333333</ele><time>2026-04-12T08:39:51Z</time></trkpt><trkpt lat="41.93391603915113" lon="12.636307683470475"><ele>55.0</ele><time>2026-04-12T08:39:52Z</time></trkpt><trkpt lat="41.93402031391718" lon="12.636467734547859"><ele>55.0</ele><time>2026-04-12T08:39:53Z</time></trkpt><trkpt lat="41.93412230057025" lon="12.636627427357695"><ele>55.0</ele><time>2026-04-12T08:39:54Z</time></trkpt><trkpt lat="41.934228497275996" lon="12.636792341386867"><ele>55.0</ele><time>2026-04-12T08:39:55Z</time></trkpt><trkpt lat="41.93433414686813" lon="12.636956644518506"><ele>55.33333333333333</ele><time>2026-04-12T08:39:56Z</time></trkpt><trkpt lat="41.934439443558055" lon="12.63712728862162"><ele>55.66666666666667</ele><time>2026-04-12T08:39:57Z</time></trkpt><trkpt lat="41.934545919587634" lon="12.637300334047714"><ele>56.0</ele><time>2026-04-12T08:39:58Z</time></trkpt><trkpt lat="41.93464805922232" lon="12.637479635415048"><ele>56.0</ele><time>2026-04-12T08:39:59Z</time></trkpt><trkpt lat="41.93474662280079" lon="12.637666800700146"><ele>56.0</ele><time>2026-04-12T08:39:59.999Z</time></trkpt><trkpt lat="41.93484432546169" lon="12.637857110058665"><ele>56.0</ele><time>2026-04-12T08:40:00.999Z</time></trkpt><trkpt lat="41.93494022777483" lon="12.638049482404144"><ele>56.0</ele><time>2026-04-12T08:40:01.999Z</time></trkpt><trkpt lat="41.935032691101014" lon="12.638249319606448"><ele>56.0</ele><time>2026-04-12T08:40:02.999Z</time></trkpt><trkpt lat="41.935124230148084" lon="12.638453958117648"><ele>56.0</ele><time>2026-04-12T08:40:03.999Z</time></trkpt><trkpt lat="41.93521312259601" lon="12.638664595481398"><ele>54.66666666666667</ele><time>2026-04-12T08:40:04.999Z</time></trkpt><trkpt lat="41.93530210217137" lon="12.638878807126732"><ele>53.33333333333333</ele><time>2026-04-12T08:40:05.999Z</time></trkpt><trkpt lat="41.93539008480715" lon="12.639095175212491"><ele>52.0</ele><time>2026-04-12T08:40:06.999Z</time></trkpt><trkpt lat="41.93548528963954" lon="12.63931944363713"><ele>53.33333333333333</ele><time>2026-04-12T08:40:07.999Z</time></trkpt><trkpt lat="41.935572996690986" lon="12.639525701311083"><ele>54.66666666666667</ele><time>2026-04-12T08:40:08.999Z</time></trkpt><trkpt lat="41.93566142343651" lon="12.639724269246406"><ele>56.0</ele><time>2026-04-12T08:40:09.999Z</time></trkpt><trkpt lat="41.93574037115258" lon="12.639921118521517"><ele>56.0</ele><time>2026-04-12T08:40:10.999Z</time></trkpt><trkpt lat="41.935812890533946" lon="12.64010513404609"><ele>56.0</ele><time>2026-04-12T08:40:11.999Z</time></trkpt><trkpt lat="41.93588523601791" lon="12.640272996857796"><ele>56.0</ele><time>2026-04-12T08:40:12.999Z</time></trkpt><trkpt lat="41.93596261406119" lon="12.640446424577936"><ele>56.75</ele><time>2026-04-12T08:40:13.999Z</time></trkpt><trkpt lat="41.93603988759331" lon="12.640573900609015"><ele>57.5</ele><time>2026-04-12T08:40:14.999Z</time></trkpt><trkpt lat="41.936129140351944" lon="12.64066484919485"><ele>58.25</ele><time>2026-04-12T08:40:15.999Z</time></trkpt><trkpt lat="41.936248136416324" lon="12.640687956602303"><ele>59.0</ele><time>2026-04-12T08:40:16.999Z</time></trkpt><trkpt lat="41.936361510885675" lon="12.640708246577349"><ele>59.0</ele><time>2026-04-12T08:40:17.999Z</time></trkpt><trkpt lat="41.93648644971902" lon="12.64070694900001"><ele>59.0</ele><time>2026-04-12T08:40:18.999Z</time></trkpt><trkpt lat="41.93660817403465" lon="12.640618632968602"><ele>59.0</ele><time>2026-04-12T08:40:19.999Z</time></trkpt><trkpt lat="41.93672330975788" lon="12.640557722173176"><ele>59.0</ele><time>2026-04-12T08:40:20.999Z</time></trkpt><trkpt lat="41.93680867569117" lon="12.640490122873558"><ele>59.400000000000006</ele><time>2026-04-12T08:40:21.999Z</time></trkpt><trkpt lat="41.936877136027036" lon="12.640441955307312"><ele>59.800000000000004</ele><time>2026-04-12T08:40:22.999Z</time></trkpt><trkpt lat="41.93696340173527" lon="12.640374224587918"><ele>60.199999999999996</ele><time>2026-04-12T08:40:24.999Z</time></trkpt><trkpt lat="41.93702594662161" lon="12.640331308230694"><ele>60.599999999999994</ele><time>2026-04-12T08:40:26.999Z</time></trkpt><trkpt lat="41.93716510220121" lon="12.640237014699432"><ele>61.0</ele><time>2026-04-12T08:40:28.999Z</time></trkpt><trkpt lat="41.937272470400956" lon="12.640165209840404"><ele>59.5</ele><time>2026-04-12T08:40:29.999Z</time></trkpt><trkpt lat="41.937395394312695" lon="12.640087811072819"><ele>58.0</ele><time>2026-04-12T08:40:30.999Z</time></trkpt><trkpt lat="41.93750658330674" lon="12.640004449087886"><ele>56.5</ele><time>2026-04-12T08:40:31.999Z</time></trkpt><trkpt lat="41.9376027334816" lon="12.639939385548745"><ele>55.0</ele><time>2026-04-12T08:40:32.999Z</time></trkpt><trkpt lat="41.93768527339929" lon="12.639881671847084"><ele>54.75</ele><time>2026-04-12T08:40:33.999Z</time></trkpt><trkpt lat="41.937764050922304" lon="12.639823448934035"><ele>54.5</ele><time>2026-04-12T08:40:34.999Z</time></trkpt><trkpt lat="41.9378628752083" lon="12.639749264479894"><ele>54.25</ele><time>2026-04-12T08:40:35.999Z</time></trkpt><trkpt lat="41.93801208922943" lon="12.639668588831602"><ele>54.0</ele><time>2026-04-12T08:40:36.999Z</time></trkpt><trkpt lat="41.93816895425383" lon="12.639601774130714"><ele>54.0</ele><time>2026-04-12T08:40:37.999Z</time></trkpt><trkpt lat="41.93831852515158" lon="12.639550373321214"><ele>54.0</ele><time>2026-04-12T08:40:38.999Z</time></trkpt><trkpt lat="41.93845950793042" lon="12.639503418947283"><ele>54.0</ele><time>2026-04-12T08:40:39.999Z</time></trkpt><trkpt lat="41.93859951091633" lon="12.639456970659806"><ele>54.0</ele><time>2026-04-12T08:40:40.999Z</time></trkpt><trkpt lat="41.93874055011053" lon="12.639406887366832"><ele>55.25</ele><time>2026-04-12T08:40:41.999Z</time></trkpt><trkpt lat="41.938879756411545" lon="12.639354715259621"><ele>56.5</ele><time>2026-04-12T08:40:42.999Z</time></trkpt><trkpt lat="41.93902124123924" lon="12.639303184816086"><ele>57.75</ele><time>2026-04-12T08:40:43.999Z</time></trkpt><trkpt lat="41.939164250240815" lon="12.63925210357499"><ele>59.0</ele><time>2026-04-12T08:40:44.999Z</time></trkpt><trkpt lat="41.93931332392649" lon="12.639199245809895"><ele>59.0</ele><time>2026-04-12T08:40:45.999Z</time></trkpt><trkpt lat="41.93947298163371" lon="12.639147258316031"><ele>59.0</ele><time>2026-04-12T08:40:46.999Z</time></trkpt><trkpt lat="41.93964501328341" lon="12.639093182042355"><ele>59.0</ele><time>2026-04-12T08:40:47.999Z</time></trkpt><trkpt lat="41.93980886432718" lon="12.63903960858748"><ele>59.0</ele><time>2026-04-12T08:40:48.999Z</time></trkpt><trkpt lat="41.93995893823489" lon="12.638985203246875"><ele>59.0</ele><time>2026-04-12T08:40:49.999Z</time></trkpt><trkpt lat="41.94010591628427" lon="12.63893634673937"><ele>59.0</ele><time>2026-04-12T08:40:50.999Z</time></trkpt><trkpt lat="41.94024801151534" lon="12.638885244314483"><ele>59.25</ele><time>2026-04-12T08:40:51.999Z</time></trkpt><trkpt lat="41.94037723764068" lon="12.638841180900153"><ele>59.5</ele><time>2026-04-12T08:40:52.998Z</time></trkpt><trkpt lat="41.94050053813704" lon="12.638800586804852"><ele>59.75</ele><time>2026-04-12T08:40:53.998Z</time></trkpt><trkpt lat="41.94061608992883" lon="12.638757379961799"><ele>60.0</ele><time>2026-04-12T08:40:54.998Z</time></trkpt><trkpt lat="41.940723781795874" lon="12.638714377976745"><ele>60.0</ele><time>2026-04-12T08:40:55.998Z</time></trkpt><trkpt lat="41.94081676650019" lon="12.638677605412656"><ele>60.0</ele><time>2026-04-12T08:40:56.998Z</time></trkpt><trkpt lat="41.94089639881013" lon="12.638631059269109"><ele>60.0</ele><time>2026-04-12T08:40:57.998Z</time></trkpt><trkpt lat="41.940973443689415" lon="12.638672793795374"><ele>60.0</ele><time>2026-04-12T08:40:58.998Z</time></trkpt><trkpt lat="41.941031615062876" lon="12.638716894570466"><ele>60.0</ele><time>2026-04-12T08:40:59.998Z</time></trkpt><trkpt lat="41.9410735911155" lon="12.638791827573888"><ele>60.0</ele><time>2026-04-12T08:41:01Z</time></trkpt><trkpt lat="41.941113000848794" lon="12.638907823137563"><ele>60.0</ele><time>2026-04-12T08:41:02Z</time></trkpt><trkpt lat="41.941144758103015" lon="12.639091577500578"><ele>60.0</ele><time>2026-04-12T08:41:03Z</time></trkpt><trkpt lat="41.94117835182371" lon="12.639325891950184"><ele>60.0</ele><time>2026-04-12T08:41:04Z</time></trkpt><trkpt lat="41.94121737113704" lon="12.639553900065778"><ele>60.0</ele><time>2026-04-12T08:41:05Z</time></trkpt><trkpt lat="41.94126158384482" lon="12.639809102777058"><ele>60.0</ele><time>2026-04-12T08:41:06Z</time></trkpt><trkpt lat="41.94130150187259" lon="12.640081226943716"><ele>60.0</ele><time>2026-04-12T08:41:07Z</time></trkpt><trkpt lat="41.941332679742324" lon="12.640345208624026"><ele>61.66666666666667</ele><time>2026-04-12T08:41:08Z</time></trkpt><trkpt lat="41.94135587222071" lon="12.640587620671004"><ele>63.333333333333336</ele><time>2026-04-12T08:41:09Z</time></trkpt><trkpt lat="41.94140565874581" lon="12.640798951644776"><ele>65.0</ele><time>2026-04-12T08:41:10Z</time></trkpt><trkpt lat="41.94141980167174" lon="12.641015392894815"><ele>65.66666666666667</ele><time>2026-04-12T08:41:11Z</time></trkpt><trkpt lat="41.94145646418133" lon="12.641229376308884"><ele>66.33333333333333</ele><time>2026-04-12T08:41:12Z</time></trkpt><trkpt lat="41.94148625778912" lon="12.641433687336558"><ele>67.0</ele><time>2026-04-12T08:41:13Z</time></trkpt><trkpt lat="41.941507793895234" lon="12.641629004192236"><ele>67.0</ele><time>2026-04-12T08:41:14Z</time></trkpt><trkpt lat="41.94152433306647" lon="12.64182858166665"><ele>67.0</ele><time>2026-04-12T08:41:15Z</time></trkpt><trkpt lat="41.94153693098127" lon="12.642030221996968"><ele>67.0</ele><time>2026-04-12T08:41:16Z</time></trkpt><trkpt lat="41.94154798412076" lon="12.642223538980357"><ele>67.0</ele><time>2026-04-12T08:41:17Z</time></trkpt><trkpt lat="41.941555174451445" lon="12.642401075474888"><ele>67.25</ele><time>2026-04-12T08:41:18Z</time></trkpt><trkpt lat="41.94155957672246" lon="12.642569637489073"><ele>67.5</ele><time>2026-04-12T08:41:19Z</time></trkpt><trkpt lat="41.94156696415207" lon="12.642733052559398"><ele>67.75</ele><time>2026-04-12T08:41:20Z</time></trkpt><trkpt lat="41.94157287805575" lon="12.64288454652742"><ele>68.0</ele><time>2026-04-12T08:41:21Z</time></trkpt><trkpt lat="41.94158137890702" lon="12.643020695910163"><ele>68.4</ele><time>2026-04-12T08:41:22Z</time></trkpt><trkpt lat="41.94159118068823" lon="12.64315030240038"><ele>68.8</ele><time>2026-04-12T08:41:23Z</time></trkpt><trkpt lat="41.941599737897576" lon="12.64328360695049"><ele>69.2</ele><time>2026-04-12T08:41:24Z</time></trkpt><trkpt lat="41.94160885067953" lon="12.6434172886594"><ele>69.6</ele><time>2026-04-12T08:41:25Z</time></trkpt><trkpt lat="41.94162334074679" lon="12.643552046158666"><ele>70.0</ele><time>2026-04-12T08:41:26Z</time></trkpt><trkpt lat="41.941646564567655" lon="12.643709252220832"><ele>70.25</ele><time>2026-04-12T08:41:27Z</time></trkpt><trkpt lat="41.941664511081086" lon="12.643902780124032"><ele>70.5</ele><time>2026-04-12T08:41:28Z</time></trkpt><trkpt lat="41.9416725075936" lon="12.644116886604568"><ele>70.75</ele><time>2026-04-12T08:41:29Z</time></trkpt><trkpt lat="41.94167685126322" lon="12.644303042758494"><ele>71.0</ele><time>2026-04-12T08:41:30Z</time></trkpt><trkpt lat="41.941680430027965" lon="12.64447037828378"><ele>72.75</ele><time>2026-04-12T08:41:31Z</time></trkpt><trkpt lat="41.9417529138048" lon="12.644610268181363"><ele>74.5</ele><time>2026-04-12T08:41:32Z</time></trkpt><trkpt lat="41.941832935952284" lon="12.644725112950534"><ele>76.25</ele><time>2026-04-12T08:41:33Z</time></trkpt><trkpt lat="41.94193023743757" lon="12.644805632714323"><ele>78.0</ele><time>2026-04-12T08:41:34Z</time></trkpt><trkpt lat="41.942027440300734" lon="12.644856110735036"><ele>78.0</ele><time>2026-04-12T08:41:35Z</time></trkpt><trkpt lat="41.942130538167554" lon="12.644888780010364"><ele>78.0</ele><time>2026-04-12T08:41:36Z</time></trkpt><trkpt lat="41.942240100695116" lon="12.644911549239652"><ele>78.0</ele><time>2026-04-12T08:41:37Z</time></trkpt><trkpt lat="41.94234696247194" lon="12.64492836972389"><ele>78.0</ele><time>2026-04-12T08:41:38Z</time></trkpt><trkpt lat="41.94243298540776" lon="12.644937730535492"><ele>78.0</ele><time>2026-04-12T08:41:39Z</time></trkpt><trkpt lat="41.9425066385784" lon="12.644946114196609"><ele>78.2</ele><time>2026-04-12T08:41:40Z</time></trkpt><trkpt lat="41.942577242462455" lon="12.644955017888346"><ele>78.4</ele><time>2026-04-12T08:41:41Z</time></trkpt><trkpt lat="41.94265410530313" lon="12.644962438230225"><ele>78.60000000000001</ele><time>2026-04-12T08:41:42Z</time></trkpt><trkpt lat="41.942750442137815" lon="12.644970883405563"><ele>78.8</ele><time>2026-04-12T08:41:43Z</time></trkpt><trkpt lat="41.94287951814971" lon="12.64497901100039"><ele>79.0</ele><time>2026-04-12T08:41:44Z</time></trkpt><trkpt lat="41.943033861928306" lon="12.644979637462036"><ele>79.0</ele><time>2026-04-12T08:41:45Z</time></trkpt><trkpt lat="41.94319932952867" lon="12.644967201528198"><ele>79.0</ele><time>2026-04-12T08:41:46Z</time></trkpt><trkpt lat="41.943362584692196" lon="12.644952206604598"><ele>79.0</ele><time>2026-04-12T08:41:47Z</time></trkpt><trkpt lat="41.94353341507275" lon="12.644938145888318"><ele>79.0</ele><time>2026-04-12T08:41:48Z</time></trkpt><trkpt lat="41.94371134232142" lon="12.644924489985556"><ele>79.0</ele><time>2026-04-12T08:41:49Z</time></trkpt><trkpt lat="41.94388889717682" lon="12.644912666976143"><ele>79.0</ele><time>2026-04-12T08:41:50Z</time></trkpt><trkpt lat="41.94405659156558" lon="12.644901577222829"><ele>79.0</ele><time>2026-04-12T08:41:51Z</time></trkpt><trkpt lat="41.9442147748877" lon="12.644890714700104"><ele>79.0</ele><time>2026-04-12T08:41:52Z</time></trkpt><trkpt lat="41.944381523411394" lon="12.644885234467715"><ele>79.0</ele><time>2026-04-12T08:41:53Z</time></trkpt><trkpt lat="41.94455337197618" lon="12.64486769355081"><ele>79.0</ele><time>2026-04-12T08:41:54Z</time></trkpt><trkpt lat="41.94473128025552" lon="12.644850933692373"><ele>79.0</ele><time>2026-04-12T08:41:55Z</time></trkpt><trkpt lat="41.944905078824554" lon="12.6448340300274"><ele>79.0</ele><time>2026-04-12T08:41:56Z</time></trkpt><trkpt lat="41.94507017902237" lon="12.644818648830169"><ele>79.0</ele><time>2026-04-12T08:41:57Z</time></trkpt><trkpt lat="41.945237310254115" lon="12.644813103996846"><ele>79.0</ele><time>2026-04-12T08:41:58Z</time></trkpt><trkpt lat="41.94540592856802" lon="12.644827156077943"><ele>79.0</ele><time>2026-04-12T08:41:59Z</time></trkpt><trkpt lat="41.94557534251898" lon="12.644864291065897"><ele>79.0</ele><time>2026-04-12T08:42:00Z</time></trkpt><trkpt lat="41.94574673792879" lon="12.644926719478947"><ele>79.0</ele><time>2026-04-12T08:42:01Z</time></trkpt><trkpt lat="41.94590276013407" lon="12.644999368061198"><ele>79.0</ele><time>2026-04-12T08:42:02Z</time></trkpt><trkpt lat="41.94604627250564" lon="12.64508182002331"><ele>78.5</ele><time>2026-04-12T08:42:03Z</time></trkpt><trkpt lat="41.94617643364735" lon="12.645166470687403"><ele>78.0</ele><time>2026-04-12T08:42:04Z</time></trkpt><trkpt lat="41.94629283424317" lon="12.645255882686083"><ele>77.5</ele><time>2026-04-12T08:42:05Z</time></trkpt><trkpt lat="41.94639857134741" lon="12.645342857674654"><ele>77.0</ele><time>2026-04-12T08:42:05.999Z</time></trkpt><trkpt lat="41.946496737899786" lon="12.645417657682579"><ele>77.6</ele><time>2026-04-12T08:42:06.999Z</time></trkpt><trkpt lat="41.946589185780724" lon="12.645484920591745"><ele>78.2</ele><time>2026-04-12T08:42:07.999Z</time></trkpt><trkpt lat="41.94666957234271" lon="12.645562330624832"><ele>78.8</ele><time>2026-04-12T08:42:08.999Z</time></trkpt><trkpt lat="41.94674264813572" lon="12.645636754932587"><ele>79.4</ele><time>2026-04-12T08:42:09.999Z</time></trkpt><trkpt lat="41.94681556307824" lon="12.645689537914196"><ele>80.0</ele><time>2026-04-12T08:42:10.999Z</time></trkpt><trkpt lat="41.94688837969162" lon="12.645697585094098"><ele>80.0</ele><time>2026-04-12T08:42:11.999Z</time></trkpt><trkpt lat="41.946953514924964" lon="12.645671497014623"><ele>80.0</ele><time>2026-04-12T08:42:12.999Z</time></trkpt><trkpt lat="41.94700181965624" lon="12.645614880835144"><ele>80.0</ele><time>2026-04-12T08:42:13.999Z</time></trkpt><trkpt lat="41.9470307210711" lon="12.6455343435772"><ele>80.0</ele><time>2026-04-12T08:42:14.999Z</time></trkpt><trkpt lat="41.947021558838806" lon="12.645375839840925"><ele>80.0</ele><time>2026-04-12T08:42:16.999Z</time></trkpt><trkpt lat="41.94694758088164" lon="12.645247770720509"><ele>80.0</ele><time>2026-04-12T08:42:18.999Z</time></trkpt><trkpt lat="41.946895109991054" lon="12.645170673635281"><ele>79.4</ele><time>2026-04-12T08:42:19.999Z</time></trkpt><trkpt lat="41.94684841306702" lon="12.645072144100105"><ele>78.8</ele><time>2026-04-12T08:42:20.999Z</time></trkpt><trkpt lat="41.946805863089985" lon="12.644951360356604"><ele>78.2</ele><time>2026-04-12T08:42:21.999Z</time></trkpt><trkpt lat="41.94676165688408" lon="12.644813943486849"><ele>77.6</ele><time>2026-04-12T08:42:22.999Z</time></trkpt><trkpt lat="41.946720109998296" lon="12.644681020688344"><ele>77.0</ele><time>2026-04-12T08:42:23.999Z</time></trkpt><trkpt lat="41.94670076151821" lon="12.644560907957779"><ele>77.0</ele><time>2026-04-12T08:42:24.999Z</time></trkpt><trkpt lat="41.946660384515155" lon="12.644480636786474"><ele>77.0</ele><time>2026-04-12T08:42:25.999Z</time></trkpt><trkpt lat="41.946627618442875" lon="12.644337652033164"><ele>77.0</ele><time>2026-04-12T08:42:27.999Z</time></trkpt><trkpt lat="41.946576078478685" lon="12.644212576095082"><ele>77.0</ele><time>2026-04-12T08:42:31.999Z</time></trkpt><trkpt lat="41.94654587489425" lon="12.644084709562962"><ele>77.0</ele><time>2026-04-12T08:42:32.999Z</time></trkpt><trkpt lat="41.94646534314305" lon="12.643899293338404"><ele>76.66666666666667</ele><time>2026-04-12T08:42:33.999Z</time></trkpt><trkpt lat="41.946396011648076" lon="12.643684661292884"><ele>76.33333333333333</ele><time>2026-04-12T08:42:34.999Z</time></trkpt><trkpt lat="41.94631388349995" lon="12.643438250620733"><ele>76.0</ele><time>2026-04-12T08:42:35.999Z</time></trkpt><trkpt lat="41.946212162169196" lon="12.643157344401699"><ele>71.0</ele><time>2026-04-12T08:42:36.999Z</time></trkpt><trkpt lat="41.94557121561051" lon="12.641321334084955"><ele>71.0</ele><time>2026-04-12T08:42:44.999Z</time></trkpt><trkpt lat="41.94549024690713" lon="12.64114867784516"><ele>71.0</ele><time>2026-04-12T08:42:45.999Z</time></trkpt><trkpt lat="41.94542314204192" lon="12.640970388060689"><ele>71.0</ele><time>2026-04-12T08:42:46.999Z</time></trkpt><trkpt lat="41.945356962318954" lon="12.640789301574689"><ele>70.0</ele><time>2026-04-12T08:42:47.999Z</time></trkpt><trkpt lat="41.94529880315072" lon="12.640577247108991"><ele>69.0</ele><time>2026-04-12T08:42:48.999Z</time></trkpt><trkpt lat="41.94522353936564" lon="12.640368078780986"><ele>68.0</ele><time>2026-04-12T08:42:49.999Z</time></trkpt><trkpt lat="41.945146578751235" lon="12.64015419469887"><ele>66.66666666666667</ele><time>2026-04-12T08:42:50.999Z</time></trkpt><trkpt lat="41.94505622606221" lon="12.639952178907945"><ele>65.33333333333333</ele><time>2026-04-12T08:42:51.999Z</time></trkpt><trkpt lat="41.94498191950698" lon="12.639741600166118"><ele>64.0</ele><time>2026-04-12T08:42:52.999Z</time></trkpt><trkpt lat="41.94491006614694" lon="12.63953706577488"><ele>62.666666666666664</ele><time>2026-04-12T08:42:53.999Z</time></trkpt><trkpt lat="41.94483779153668" lon="12.639336205888"><ele>61.33333333333333</ele><time>2026-04-12T08:42:54.999Z</time></trkpt><trkpt lat="41.94476588382882" lon="12.639136188918574"><ele>60.0</ele><time>2026-04-12T08:42:55.999Z</time></trkpt><trkpt lat="41.94469532024436" lon="12.63893976372014"><ele>60.0</ele><time>2026-04-12T08:42:56.999Z</time></trkpt><trkpt lat="41.94462667550415" lon="12.638749599844585"><ele>60.0</ele><time>2026-04-12T08:42:57.999Z</time></trkpt><trkpt lat="41.94456306033627" lon="12.638571843949505"><ele>60.0</ele><time>2026-04-12T08:42:58.998Z</time></trkpt><trkpt lat="41.944494061502745" lon="12.638380662647172"><ele>59.75</ele><time>2026-04-12T08:42:59.998Z</time></trkpt><trkpt lat="41.94443602982622" lon="12.63821232931277"><ele>59.5</ele><time>2026-04-12T08:43:00.998Z</time></trkpt><trkpt lat="41.9443892818356" lon="12.6380453416281"><ele>59.25</ele><time>2026-04-12T08:43:01.998Z</time></trkpt><trkpt lat="41.94435585229731" lon="12.637890623052522"><ele>59.0</ele><time>2026-04-12T08:43:02.998Z</time></trkpt><trkpt lat="41.94432303104837" lon="12.63774739326724"><ele>58.6</ele><time>2026-04-12T08:43:03.998Z</time></trkpt><trkpt lat="41.94429503042634" lon="12.637624533646491"><ele>58.2</ele><time>2026-04-12T08:43:04.998Z</time></trkpt><trkpt lat="41.944270396852986" lon="12.637521775102865"><ele>57.800000000000004</ele><time>2026-04-12T08:43:05.998Z</time></trkpt><trkpt lat="41.944238369376535" lon="12.637391823354479"><ele>57.400000000000006</ele><time>2026-04-12T08:43:08Z</time></trkpt><trkpt lat="41.94421788038585" lon="12.63730901615883"><ele>57.0</ele><time>2026-04-12T08:43:13Z</time></trkpt><trkpt lat="41.9441487007371" lon="12.637511917768656"><ele>56.66666666666667</ele><time>2026-04-12T08:43:26Z</time></trkpt><trkpt lat="41.94421826813129" lon="12.637703298081929"><ele>56.333333333333336</ele><time>2026-04-12T08:43:27Z</time></trkpt><trkpt lat="41.94429607114673" lon="12.63789908710518"><ele>56.0</ele><time>2026-04-12T08:43:28Z</time></trkpt><trkpt lat="41.9443687149526" lon="12.638108764428583"><ele>57.0</ele><time>2026-04-12T08:43:29Z</time></trkpt><trkpt lat="41.944448883766064" lon="12.638335365964698"><ele>58.0</ele><time>2026-04-12T08:43:30Z</time></trkpt><trkpt lat="41.94452649922612" lon="12.638557453727755"><ele>59.0</ele><time>2026-04-12T08:43:31Z</time></trkpt><trkpt lat="41.944599012247394" lon="12.638759186222833"><ele>59.25</ele><time>2026-04-12T08:43:32Z</time></trkpt><trkpt lat="41.944666272502175" lon="12.638935553308901"><ele>59.5</ele><time>2026-04-12T08:43:33Z</time></trkpt><trkpt lat="41.94472550526609" lon="12.639102472335855"><ele>59.75</ele><time>2026-04-12T08:43:34Z</time></trkpt><trkpt lat="41.94477976147091" lon="12.639263802131104"><ele>60.0</ele><time>2026-04-12T08:43:35Z</time></trkpt><trkpt lat="41.94483678393989" lon="12.639428362432854"><ele>60.75</ele><time>2026-04-12T08:43:36Z</time></trkpt><trkpt lat="41.94489567912793" lon="12.639595996248614"><ele>61.5</ele><time>2026-04-12T08:43:37Z</time></trkpt><trkpt lat="41.944956711075505" lon="12.639762409980289"><ele>62.25</ele><time>2026-04-12T08:43:38Z</time></trkpt><trkpt lat="41.94501600812246" lon="12.639926607898637"><ele>63.0</ele><time>2026-04-12T08:43:39Z</time></trkpt><trkpt lat="41.945073203480234" lon="12.640093960780884"><ele>63.25</ele><time>2026-04-12T08:43:40Z</time></trkpt><trkpt lat="41.945130872611486" lon="12.640256792459056"><ele>63.5</ele><time>2026-04-12T08:43:41Z</time></trkpt><trkpt lat="41.945191031902304" lon="12.640418695338022"><ele>63.75</ele><time>2026-04-12T08:43:42Z</time></trkpt><trkpt lat="41.94525197830284" lon="12.640581920502864"><ele>64.0</ele><time>2026-04-12T08:43:43Z</time></trkpt><trkpt lat="41.945309799602626" lon="12.640742487311838"><ele>65.0</ele><time>2026-04-12T08:43:44Z</time></trkpt><trkpt lat="41.945365098382034" lon="12.640900545131569"><ele>66.0</ele><time>2026-04-12T08:43:45Z</time></trkpt><trkpt lat="41.94542052130369" lon="12.641054672048153"><ele>67.0</ele><time>2026-04-12T08:43:46Z</time></trkpt><trkpt lat="41.94547435117717" lon="12.641204192039242"><ele>68.0</ele><time>2026-04-12T08:43:47Z</time></trkpt><trkpt lat="41.94552703397443" lon="12.641353190695993"><ele>68.75</ele><time>2026-04-12T08:43:48Z</time></trkpt><trkpt lat="41.94557886268169" lon="12.641499210533064"><ele>69.5</ele><time>2026-04-12T08:43:49Z</time></trkpt><trkpt lat="41.94563277541342" lon="12.641643364912728"><ele>70.25</ele><time>2026-04-12T08:43:50Z</time></trkpt><trkpt lat="41.94569002486477" lon="12.64179116025844"><ele>71.0</ele><time>2026-04-12T08:43:51Z</time></trkpt><trkpt lat="41.94574748556793" lon="12.641946826913196"><ele>71.0</ele><time>2026-04-12T08:43:52Z</time></trkpt><trkpt lat="41.945804612059646" lon="12.642107244042986"><ele>71.0</ele><time>2026-04-12T08:43:53Z</time></trkpt><trkpt lat="41.945862851179896" lon="12.642271749914105"><ele>71.0</ele><time>2026-04-12T08:43:54Z</time></trkpt><trkpt lat="41.94592370780023" lon="12.6424379116936"><ele>71.0</ele><time>2026-04-12T08:43:55Z</time></trkpt><trkpt lat="41.94598473165228" lon="12.64260737578091"><ele>70.75</ele><time>2026-04-12T08:43:56Z</time></trkpt><trkpt lat="41.946045841836785" lon="12.642779968795196"><ele>70.5</ele><time>2026-04-12T08:43:57Z</time></trkpt><trkpt lat="41.94610851445392" lon="12.64295662296366"><ele>70.25</ele><time>2026-04-12T08:43:58Z</time></trkpt><trkpt lat="41.94617536545056" lon="12.643133573320803"><ele>70.0</ele><time>2026-04-12T08:43:59Z</time></trkpt><trkpt lat="41.94623933089525" lon="12.64331220011797"><ele>71.5</ele><time>2026-04-12T08:44:00Z</time></trkpt><trkpt lat="41.94630319651955" lon="12.643491918922752"><ele>73.0</ele><time>2026-04-12T08:44:01Z</time></trkpt><trkpt lat="41.94636348167034" lon="12.64366893393165"><ele>74.5</ele><time>2026-04-12T08:44:02Z</time></trkpt><trkpt lat="41.94642099003619" lon="12.643841386798144"><ele>76.0</ele><time>2026-04-12T08:44:03Z</time></trkpt><trkpt lat="41.94647415593202" lon="12.644003891675952"><ele>76.0</ele><time>2026-04-12T08:44:04Z</time></trkpt><trkpt lat="41.94652322523473" lon="12.644154377455243"><ele>76.0</ele><time>2026-04-12T08:44:05Z</time></trkpt><trkpt lat="41.946568019144124" lon="12.644294382296124"><ele>76.0</ele><time>2026-04-12T08:44:06Z</time></trkpt><trkpt lat="41.94661257492359" lon="12.64443071373315"><ele>76.0</ele><time>2026-04-12T08:44:07Z</time></trkpt><trkpt lat="41.94665174051291" lon="12.644557415598467"><ele>76.0</ele><time>2026-04-12T08:44:08Z</time></trkpt><trkpt lat="41.94668831106708" lon="12.6446707689889"><ele>75.5</ele><time>2026-04-12T08:44:08.999Z</time></trkpt><trkpt lat="41.946722119809564" lon="12.644778289646014"><ele>75.0</ele><time>2026-04-12T08:44:09.999Z</time></trkpt><trkpt lat="41.94675273278818" lon="12.644879570289003"><ele>74.5</ele><time>2026-04-12T08:44:10.999Z</time></trkpt><trkpt lat="41.94677984547806" lon="12.644966790249374"><ele>74.0</ele><time>2026-04-12T08:44:11.999Z</time></trkpt><trkpt lat="41.94680898529004" lon="12.645089892475417"><ele>73.5</ele><time>2026-04-12T08:44:13.999Z</time></trkpt><trkpt lat="41.94678487208898" lon="12.645200433225162"><ele>73.0</ele><time>2026-04-12T08:44:15.999Z</time></trkpt><trkpt lat="41.94672732842678" lon="12.645336830659458"><ele>74.4</ele><time>2026-04-12T08:44:17.999Z</time></trkpt><trkpt lat="41.94670484980435" lon="12.64549895119202"><ele>75.8</ele><time>2026-04-12T08:44:19.999Z</time></trkpt><trkpt lat="41.94672428891643" lon="12.645581577554383"><ele>77.2</ele><time>2026-04-12T08:44:20.999Z</time></trkpt><trkpt lat="41.94682046071586" lon="12.645690208199703"><ele>78.6</ele><time>2026-04-12T08:44:22.999Z</time></trkpt><trkpt lat="41.94688998084358" lon="12.645696787067092"><ele>80.0</ele><time>2026-04-12T08:44:23.999Z</time></trkpt><trkpt lat="41.947013909306555" lon="12.645609158770103"><ele>80.0</ele><time>2026-04-12T08:44:25.999Z</time></trkpt><trkpt lat="41.947065145350805" lon="12.64551919957032"><ele>80.0</ele><time>2026-04-12T08:44:26.999Z</time></trkpt><trkpt lat="41.94712347677677" lon="12.645428414198491"><ele>80.0</ele><time>2026-04-12T08:44:27.999Z</time></trkpt><trkpt lat="41.94720448639405" lon="12.645370564483741"><ele>80.0</ele><time>2026-04-12T08:44:28.999Z</time></trkpt><trkpt lat="41.94730640211004" lon="12.645354921179253"><ele>80.0</ele><time>2026-04-12T08:44:29.999Z</time></trkpt><trkpt lat="41.947421129000325" lon="12.645365938506163"><ele>80.0</ele><time>2026-04-12T08:44:30.999Z</time></trkpt><trkpt lat="41.94753696017873" lon="12.645405711851465"><ele>80.0</ele><time>2026-04-12T08:44:31.999Z</time></trkpt><trkpt lat="41.94765525807273" lon="12.645451335690247"><ele>80.0</ele><time>2026-04-12T08:44:32.999Z</time></trkpt><trkpt lat="41.94777152692524" lon="12.645488304847838"><ele>80.0</ele><time>2026-04-12T08:44:33.999Z</time></trkpt><trkpt lat="41.947881701059124" lon="12.645503528929424"><ele>79.6</ele><time>2026-04-12T08:44:34.999Z</time></trkpt><trkpt lat="41.947987099085076" lon="12.645499261552837"><ele>79.2</ele><time>2026-04-12T08:44:35.999Z</time></trkpt><trkpt lat="41.94808749211308" lon="12.645478470470277"><ele>78.8</ele><time>2026-04-12T08:44:36.999Z</time></trkpt><trkpt lat="41.94818670948427" lon="12.645430939972275"><ele>78.4</ele><time>2026-04-12T08:44:37.999Z</time></trkpt><trkpt lat="41.94827745813648" lon="12.645345093041808"><ele>78.0</ele><time>2026-04-12T08:44:38.999Z</time></trkpt><trkpt lat="41.948355971862455" lon="12.64522911472358"><ele>79.25</ele><time>2026-04-12T08:44:39.999Z</time></trkpt><trkpt lat="41.94841853451445" lon="12.645093576356668"><ele>80.5</ele><time>2026-04-12T08:44:40.999Z</time></trkpt><trkpt lat="41.94845995308182" lon="12.644940581458883"><ele>81.75</ele><time>2026-04-12T08:44:41.999Z</time></trkpt><trkpt lat="41.94847679955179" lon="12.644778211773165"><ele>83.0</ele><time>2026-04-12T08:44:42.999Z</time></trkpt><trkpt lat="41.94847704227176" lon="12.644609003970508"><ele>82.75</ele><time>2026-04-12T08:44:43.999Z</time></trkpt><trkpt lat="41.94847364574038" lon="12.644435931460913"><ele>82.5</ele><time>2026-04-12T08:44:44.999Z</time></trkpt><trkpt lat="41.94847176089481" lon="12.644256055850077"><ele>82.25</ele><time>2026-04-12T08:44:45.999Z</time></trkpt><trkpt lat="41.948468579378265" lon="12.644072407884446"><ele>82.0</ele><time>2026-04-12T08:44:46.999Z</time></trkpt><trkpt lat="41.94846592140774" lon="12.643900864257713"><ele>82.0</ele><time>2026-04-12T08:44:47.999Z</time></trkpt><trkpt lat="41.94846689233116" lon="12.643737828151098"><ele>82.0</ele><time>2026-04-12T08:44:48.999Z</time></trkpt><trkpt lat="41.94847625430982" lon="12.643585463205815"><ele>82.0</ele><time>2026-04-12T08:44:49.999Z</time></trkpt><trkpt lat="41.94850479899664" lon="12.643434572438691"><ele>82.0</ele><time>2026-04-12T08:44:50.999Z</time></trkpt><trkpt lat="41.9485537648246" lon="12.643283460940767"><ele>81.19999999999999</ele><time>2026-04-12T08:44:51.999Z</time></trkpt><trkpt lat="41.948627645236556" lon="12.64315970973784"><ele>80.39999999999999</ele><time>2026-04-12T08:44:52.999Z</time></trkpt><trkpt lat="41.94871140196534" lon="12.643048454687234"><ele>79.6</ele><time>2026-04-12T08:44:53.999Z</time></trkpt><trkpt lat="41.94880126889296" lon="12.642973156285532"><ele>78.8</ele><time>2026-04-12T08:44:54.999Z</time></trkpt><trkpt lat="41.94889586621817" lon="12.642922130787811"><ele>78.0</ele><time>2026-04-12T08:44:55.999Z</time></trkpt><trkpt lat="41.94898816592144" lon="12.642889428520943"><ele>78.0</ele><time>2026-04-12T08:44:56.999Z</time></trkpt><trkpt lat="41.949081082366774" lon="12.642875670238457"><ele>78.0</ele><time>2026-04-12T08:44:57.999Z</time></trkpt><trkpt lat="41.94917256783494" lon="12.642874859546714"><ele>78.0</ele><time>2026-04-12T08:44:58.999Z</time></trkpt><trkpt lat="41.94925965453745" lon="12.642890888353374"><ele>78.0</ele><time>2026-04-12T08:44:59.999Z</time></trkpt><trkpt lat="41.94934255528616" lon="12.642918583983228"><ele>78.0</ele><time>2026-04-12T08:45:00.999Z</time></trkpt><trkpt lat="41.94943742982432" lon="12.642955967603523"><ele>77.5</ele><time>2026-04-12T08:45:01.998Z</time></trkpt><trkpt lat="41.94955420200628" lon="12.642995122469415"><ele>77.0</ele><time>2026-04-12T08:45:02.998Z</time></trkpt><trkpt lat="41.949691123470046" lon="12.643042747651439"><ele>76.5</ele><time>2026-04-12T08:45:03.998Z</time></trkpt><trkpt lat="41.94982824864994" lon="12.643081840835379"><ele>76.0</ele><time>2026-04-12T08:45:04.998Z</time></trkpt><trkpt lat="41.949964836584805" lon="12.643089117084132"><ele>76.5</ele><time>2026-04-12T08:45:05.998Z</time></trkpt><trkpt lat="41.95010222518977" lon="12.643056287965399"><ele>77.0</ele><time>2026-04-12T08:45:06.998Z</time></trkpt><trkpt lat="41.95023753334935" lon="12.643000691370524"><ele>77.5</ele><time>2026-04-12T08:45:07.998Z</time></trkpt><trkpt lat="41.95037389070388" lon="12.642925483119074"><ele>78.0</ele><time>2026-04-12T08:45:08.998Z</time></trkpt><trkpt lat="41.95052496776661" lon="12.642846634845068"><ele>78.0</ele><time>2026-04-12T08:45:09.998Z</time></trkpt><trkpt lat="41.95068842346646" lon="12.642808883825074"><ele>78.0</ele><time>2026-04-12T08:45:10.998Z</time></trkpt><trkpt lat="41.95084237323279" lon="12.642812933104585"><ele>78.0</ele><time>2026-04-12T08:45:11.998Z</time></trkpt><trkpt lat="41.95098421173449" lon="12.642838363438878"><ele>77.75</ele><time>2026-04-12T08:45:13Z</time></trkpt><trkpt lat="41.95111630189438" lon="12.642881596523797"><ele>77.5</ele><time>2026-04-12T08:45:14Z</time></trkpt><trkpt lat="41.95124884194819" lon="12.642904742119557"><ele>77.25</ele><time>2026-04-12T08:45:15Z</time></trkpt><trkpt lat="41.9513890578804" lon="12.642895846594831"><ele>77.0</ele><time>2026-04-12T08:45:16Z</time></trkpt><trkpt lat="41.95151778955611" lon="12.64285241930616"><ele>76.5</ele><time>2026-04-12T08:45:17Z</time></trkpt><trkpt lat="41.951629815298105" lon="12.642771682946922"><ele>76.0</ele><time>2026-04-12T08:45:18Z</time></trkpt><trkpt lat="41.95173044485021" lon="12.642656370879171"><ele>75.5</ele><time>2026-04-12T08:45:19Z</time></trkpt><trkpt lat="41.95182785964544" lon="12.642507681289661"><ele>75.0</ele><time>2026-04-12T08:45:20Z</time></trkpt><trkpt lat="41.951910455632316" lon="12.64232732140707"><ele>73.66666666666667</ele><time>2026-04-12T08:45:21Z</time></trkpt><trkpt lat="41.95199125892848" lon="12.642134967572012"><ele>72.33333333333334</ele><time>2026-04-12T08:45:22Z</time></trkpt><trkpt lat="41.95208773206436" lon="12.641973993173544"><ele>71.0</ele><time>2026-04-12T08:45:23Z</time></trkpt><trkpt lat="41.95220233901351" lon="12.641858295104859"><ele>70.5</ele><time>2026-04-12T08:45:24Z</time></trkpt><trkpt lat="41.95232884232227" lon="12.641782938815568"><ele>70.0</ele><time>2026-04-12T08:45:25Z</time></trkpt><trkpt lat="41.952456286703125" lon="12.641757133412463"><ele>69.5</ele><time>2026-04-12T08:45:26Z</time></trkpt><trkpt lat="41.95258318994463" lon="12.641778851864931"><ele>69.0</ele><time>2026-04-12T08:45:27Z</time></trkpt><trkpt lat="41.95271090558237" lon="12.641844018657935"><ele>68.33333333333333</ele><time>2026-04-12T08:45:28Z</time></trkpt><trkpt lat="41.952835453508975" lon="12.641946314063375"><ele>67.66666666666666</ele><time>2026-04-12T08:45:29Z</time></trkpt><trkpt lat="41.9529646777929" lon="12.642086726009033"><ele>67.0</ele><time>2026-04-12T08:45:30Z</time></trkpt><trkpt lat="41.95309600441223" lon="12.64223960696177"><ele>67.0</ele><time>2026-04-12T08:45:31Z</time></trkpt><trkpt lat="41.95322141332926" lon="12.642385206651365"><ele>67.0</ele><time>2026-04-12T08:45:32Z</time></trkpt><trkpt lat="41.95334111036512" lon="12.642508466714771"><ele>67.0</ele><time>2026-04-12T08:45:33Z</time></trkpt><trkpt lat="41.95346104329783" lon="12.642617739327543"><ele>66.75</ele><time>2026-04-12T08:45:34Z</time></trkpt><trkpt lat="41.95358239856427" lon="12.642718459605527"><ele>66.5</ele><time>2026-04-12T08:45:35Z</time></trkpt><trkpt lat="41.953705646931596" lon="12.642799260042556"><ele>66.25</ele><time>2026-04-12T08:45:36Z</time></trkpt><trkpt lat="41.95383161911284" lon="12.642858729451461"><ele>66.0</ele><time>2026-04-12T08:45:37Z</time></trkpt><trkpt lat="41.95395344836619" lon="12.64289696573126"><ele>66.8</ele><time>2026-04-12T08:45:38Z</time></trkpt><trkpt lat="41.95406551095261" lon="12.642928270219242"><ele>67.6</ele><time>2026-04-12T08:45:39Z</time></trkpt><trkpt lat="41.954166781405" lon="12.642947762959176"><ele>68.4</ele><time>2026-04-12T08:45:40Z</time></trkpt><trkpt lat="41.9542507168441" lon="12.642980305718984"><ele>69.2</ele><time>2026-04-12T08:45:41Z</time></trkpt><trkpt lat="41.95431707557237" lon="12.643041730439412"><ele>70.0</ele><time>2026-04-12T08:45:42Z</time></trkpt><trkpt lat="41.95437726059651" lon="12.643102116893985"><ele>70.66666666666666</ele><time>2026-04-12T08:45:43Z</time></trkpt><trkpt lat="41.95449468348618" lon="12.643142393352107"><ele>71.33333333333333</ele><time>2026-04-12T08:45:45Z</time></trkpt><trkpt lat="41.95455782969394" lon="12.643144470630954"><ele>72.0</ele><time>2026-04-12T08:45:46Z</time></trkpt><trkpt lat="41.954628836987986" lon="12.643151224353959"><ele>72.66666666666667</ele><time>2026-04-12T08:45:47Z</time></trkpt><trkpt lat="41.95470597496315" lon="12.643161230758551"><ele>73.33333333333334</ele><time>2026-04-12T08:45:48Z</time></trkpt><trkpt lat="41.95478652565693" lon="12.64317185250007"><ele>74.0</ele><time>2026-04-12T08:45:49Z</time></trkpt><trkpt lat="41.95487335799156" lon="12.643184719458691"><ele>74.0</ele><time>2026-04-12T08:45:50Z</time></trkpt><trkpt lat="41.95496692471068" lon="12.643197260050838"><ele>74.0</ele><time>2026-04-12T08:45:51Z</time></trkpt><trkpt lat="41.9550630529264" lon="12.643210752067992"><ele>74.0</ele><time>2026-04-12T08:45:52Z</time></trkpt><trkpt lat="41.955161932392315" lon="12.643226819725147"><ele>74.0</ele><time>2026-04-12T08:45:53Z</time></trkpt><trkpt lat="41.95526585717289" lon="12.643242240827465"><ele>74.0</ele><time>2026-04-12T08:45:54Z</time></trkpt><trkpt lat="41.95537442671061" lon="12.643263482802752"><ele>73.5</ele><time>2026-04-12T08:45:55Z</time></trkpt><trkpt lat="41.95548746706513" lon="12.643286156986886"><ele>73.0</ele><time>2026-04-12T08:45:56Z</time></trkpt><trkpt lat="41.95560455886634" lon="12.643307240983203"><ele>72.5</ele><time>2026-04-12T08:45:57Z</time></trkpt><trkpt lat="41.95572387448302" lon="12.643325318233796"><ele>72.0</ele><time>2026-04-12T08:45:58Z</time></trkpt><trkpt lat="41.955848332040695" lon="12.643336666293617"><ele>70.5</ele><time>2026-04-12T08:45:59Z</time></trkpt><trkpt lat="41.9559766036788" lon="12.643343342334134"><ele>69.0</ele><time>2026-04-12T08:46:00Z</time></trkpt><trkpt lat="41.956101053084396" lon="12.643337962853558"><ele>67.5</ele><time>2026-04-12T08:46:01Z</time></trkpt><trkpt lat="41.95622575671885" lon="12.643316948128378"><ele>66.0</ele><time>2026-04-12T08:46:02Z</time></trkpt><trkpt lat="41.956346826738034" lon="12.6432772847399"><ele>66.0</ele><time>2026-04-12T08:46:03Z</time></trkpt><trkpt lat="41.95646200481249" lon="12.643223608828757"><ele>66.0</ele><time>2026-04-12T08:46:04Z</time></trkpt><trkpt lat="41.95657065205076" lon="12.643158999795544"><ele>66.0</ele><time>2026-04-12T08:46:05Z</time></trkpt><trkpt lat="41.95667847209055" lon="12.643088445506278"><ele>66.0</ele><time>2026-04-12T08:46:06Z</time></trkpt><trkpt lat="41.95678480968658" lon="12.642998397757049"><ele>66.0</ele><time>2026-04-12T08:46:07Z</time></trkpt><trkpt lat="41.956880015507544" lon="12.64289637736531"><ele>66.0</ele><time>2026-04-12T08:46:08Z</time></trkpt><trkpt lat="41.95695671718827" lon="12.642784315486962"><ele>66.0</ele><time>2026-04-12T08:46:09Z</time></trkpt><trkpt lat="41.95703698000131" lon="12.642699538163077"><ele>66.0</ele><time>2026-04-12T08:46:10Z</time></trkpt><trkpt lat="41.957099167348865" lon="12.642616431867626"><ele>66.0</ele><time>2026-04-12T08:46:11Z</time></trkpt><trkpt lat="41.95716951520921" lon="12.64258045051686"><ele>66.0</ele><time>2026-04-12T08:46:13Z</time></trkpt><trkpt lat="41.95727737933665" lon="12.642540891875388"><ele>66.0</ele><time>2026-04-12T08:46:15Z</time></trkpt><trkpt lat="41.95733464068709" lon="12.642448088948957"><ele>66.0</ele><time>2026-04-12T08:46:16.999Z</time></trkpt><trkpt lat="41.95731951579959" lon="12.642280137383267"><ele>66.0</ele><time>2026-04-12T08:46:18.999Z</time></trkpt><trkpt lat="41.957274632175235" lon="12.642207360583583"><ele>66.0</ele><time>2026-04-12T08:46:19.999Z</time></trkpt><trkpt lat="41.95723128006372" lon="12.642106334644703"><ele>66.0</ele><time>2026-04-12T08:46:20.999Z</time></trkpt><trkpt lat="41.957204822896145" lon="12.641974338695073"><ele>66.0</ele><time>2026-04-12T08:46:21.999Z</time></trkpt><trkpt lat="41.95718971501187" lon="12.641803086639982"><ele>66.0</ele><time>2026-04-12T08:46:22.999Z</time></trkpt><trkpt lat="41.95718668174677" lon="12.641610613192562"><ele>66.0</ele><time>2026-04-12T08:46:23.999Z</time></trkpt><trkpt lat="41.957189791086456" lon="12.641417213060945"><ele>65.0</ele><time>2026-04-12T08:46:24.999Z</time></trkpt><trkpt lat="41.957190656490496" lon="12.64120241550814"><ele>64.0</ele><time>2026-04-12T08:46:25.999Z</time></trkpt><trkpt lat="41.95721786764532" lon="12.640930106921067"><ele>63.0</ele><time>2026-04-12T08:46:26.999Z</time></trkpt><trkpt lat="41.957281477710744" lon="12.640654941154281"><ele>62.66666666666667</ele><time>2026-04-12T08:46:27.999Z</time></trkpt><trkpt lat="41.95736238988577" lon="12.6404038815647"><ele>62.333333333333336</ele><time>2026-04-12T08:46:28.999Z</time></trkpt><trkpt lat="41.957435613003156" lon="12.640171138219932"><ele>62.0</ele><time>2026-04-12T08:46:29.999Z</time></trkpt><trkpt lat="41.95748700800972" lon="12.639937862331323"><ele>61.333333333333336</ele><time>2026-04-12T08:46:30.999Z</time></trkpt><trkpt lat="41.957522761580684" lon="12.63969033668817"><ele>60.66666666666667</ele><time>2026-04-12T08:46:31.999Z</time></trkpt><trkpt lat="41.95753627139729" lon="12.639423562855054"><ele>60.0</ele><time>2026-04-12T08:46:32.999Z</time></trkpt><trkpt lat="41.95751408336884" lon="12.639133496082803"><ele>59.5</ele><time>2026-04-12T08:46:33.999Z</time></trkpt><trkpt lat="41.95743972358925" lon="12.638827701544981"><ele>59.0</ele><time>2026-04-12T08:46:34.999Z</time></trkpt><trkpt lat="41.957358376431" lon="12.63851339209455"><ele>59.0</ele><time>2026-04-12T08:46:35.999Z</time></trkpt><trkpt lat="41.95728316836733" lon="12.638190048189637"><ele>59.0</ele><time>2026-04-12T08:46:36.999Z</time></trkpt><trkpt lat="41.957227684169276" lon="12.637888160542245"><ele>59.0</ele><time>2026-04-12T08:46:37.999Z</time></trkpt><trkpt lat="41.957185504179364" lon="12.637606369216776"><ele>59.0</ele><time>2026-04-12T08:46:38.999Z</time></trkpt><trkpt lat="41.95715335040343" lon="12.637330842093869"><ele>59.0</ele><time>2026-04-12T08:46:39.999Z</time></trkpt><trkpt lat="41.957138292433264" lon="12.637060170081812"><ele>58.66666666666667</ele><time>2026-04-12T08:46:40.999Z</time></trkpt><trkpt lat="41.95713697037654" lon="12.636795193769718"><ele>58.33333333333333</ele><time>2026-04-12T08:46:41.999Z</time></trkpt><trkpt lat="41.95714665307496" lon="12.636538640862478"><ele>58.0</ele><time>2026-04-12T08:46:42.999Z</time></trkpt><trkpt lat="41.95715376759276" lon="12.636280841785586"><ele>56.666666666666664</ele><time>2026-04-12T08:46:43.999Z</time></trkpt><trkpt lat="41.95715570283028" lon="12.636021283059316"><ele>55.33333333333333</ele><time>2026-04-12T08:46:44.999Z</time></trkpt><trkpt lat="41.95715809016652" lon="12.635768873135131"><ele>54.0</ele><time>2026-04-12T08:46:45.999Z</time></trkpt><trkpt lat="41.95716345983685" lon="12.635523782060895"><ele>52.0</ele><time>2026-04-12T08:46:46.999Z</time></trkpt><trkpt lat="41.957178889706114" lon="12.635285524119508"><ele>50.0</ele><time>2026-04-12T08:46:47.999Z</time></trkpt><trkpt lat="41.957209055016214" lon="12.63505450380175"><ele>48.0</ele><time>2026-04-12T08:46:48.999Z</time></trkpt><trkpt lat="41.95724756124889" lon="12.63483196091973"><ele>48.0</ele><time>2026-04-12T08:46:49.999Z</time></trkpt><trkpt lat="41.957292110214006" lon="12.63462332490021"><ele>48.0</ele><time>2026-04-12T08:46:50.999Z</time></trkpt><trkpt lat="41.95733695892058" lon="12.634428449267496"><ele>48.0</ele><time>2026-04-12T08:46:51.999Z</time></trkpt><trkpt lat="41.95737984835001" lon="12.634245052954274"><ele>46.75</ele><time>2026-04-12T08:46:52.999Z</time></trkpt><trkpt lat="41.957418104921956" lon="12.634074846635135"><ele>45.5</ele><time>2026-04-12T08:46:53.999Z</time></trkpt><trkpt lat="41.95745347822177" lon="12.633914083180104"><ele>44.25</ele><time>2026-04-12T08:46:54.999Z</time></trkpt><trkpt lat="41.95748379430302" lon="12.633757440101087"><ele>43.0</ele><time>2026-04-12T08:46:55.999Z</time></trkpt><trkpt lat="41.9575112864298" lon="12.633611636446448"><ele>42.25</ele><time>2026-04-12T08:46:56.999Z</time></trkpt><trkpt lat="41.9575471021226" lon="12.633461364282212"><ele>41.5</ele><time>2026-04-12T08:46:57.999Z</time></trkpt><trkpt lat="41.957588042123405" lon="12.633294025568967"><ele>40.75</ele><time>2026-04-12T08:46:58.999Z</time></trkpt><trkpt lat="41.957630537014424" lon="12.633107699591564"><ele>40.0</ele><time>2026-04-12T08:46:59.999Z</time></trkpt><trkpt lat="41.95767350515802" lon="12.632899833473246"><ele>39.333333333333336</ele><time>2026-04-12T08:47:00.999Z</time></trkpt><trkpt lat="41.95772742549445" lon="12.632672554320795"><ele>38.666666666666664</ele><time>2026-04-12T08:47:01.999Z</time></trkpt><trkpt lat="41.95779002481123" lon="12.632437752731283"><ele>38.0</ele><time>2026-04-12T08:47:02.999Z</time></trkpt><trkpt lat="41.95785122578721" lon="12.632196549435104"><ele>36.666666666666664</ele><time>2026-04-12T08:47:03.999Z</time></trkpt><trkpt lat="41.957912422137895" lon="12.631949796530796"><ele>35.333333333333336</ele><time>2026-04-12T08:47:04.999Z</time></trkpt><trkpt lat="41.95797036364664" lon="12.631696391534284"><ele>34.0</ele><time>2026-04-12T08:47:05.999Z</time></trkpt><trkpt lat="41.9580263070477" lon="12.631434606947662"><ele>34.0</ele><time>2026-04-12T08:47:06.999Z</time></trkpt><trkpt lat="41.958084451208514" lon="12.631167069847038"><ele>34.0</ele><time>2026-04-12T08:47:07.999Z</time></trkpt><trkpt lat="41.9581391735191" lon="12.630902468876535"><ele>34.0</ele><time>2026-04-12T08:47:08.998Z</time></trkpt><trkpt lat="41.95819629048075" lon="12.630641493783983"><ele>34.0</ele><time>2026-04-12T08:47:09.998Z</time></trkpt><trkpt lat="41.95825319896957" lon="12.63038690693589"><ele>34.0</ele><time>2026-04-12T08:47:10.998Z</time></trkpt><trkpt lat="41.95830765859798" lon="12.630133568856223"><ele>34.0</ele><time>2026-04-12T08:47:11.998Z</time></trkpt><trkpt lat="41.95835444159649" lon="12.629880156059158"><ele>33.66666666666667</ele><time>2026-04-12T08:47:12.998Z</time></trkpt><trkpt lat="41.95839739567467" lon="12.629629983710457"><ele>33.333333333333336</ele><time>2026-04-12T08:47:13.998Z</time></trkpt><trkpt lat="41.95843988519351" lon="12.629378262079165"><ele>33.0</ele><time>2026-04-12T08:47:14.998Z</time></trkpt><trkpt lat="41.95848140714096" lon="12.629133272134474"><ele>32.666666666666664</ele><time>2026-04-12T08:47:15.998Z</time></trkpt><trkpt lat="41.9585230357401" lon="12.628895157477618"><ele>32.33333333333333</ele><time>2026-04-12T08:47:16.998Z</time></trkpt><trkpt lat="41.958565112755885" lon="12.628666039711955"><ele>32.0</ele><time>2026-04-12T08:47:17.998Z</time></trkpt><trkpt lat="41.958604167014514" lon="12.628439375074796"><ele>32.0</ele><time>2026-04-12T08:47:19Z</time></trkpt><trkpt lat="41.958665391583075" lon="12.628221527047895"><ele>32.0</ele><time>2026-04-12T08:47:20Z</time></trkpt><trkpt lat="41.958712478600326" lon="12.627997503425105"><ele>32.0</ele><time>2026-04-12T08:47:21Z</time></trkpt><trkpt lat="41.95876121023438" lon="12.627773673119934"><ele>32.666666666666664</ele><time>2026-04-12T08:47:22Z</time></trkpt><trkpt lat="41.95880311897912" lon="12.627543717192246"><ele>33.333333333333336</ele><time>2026-04-12T08:47:23Z</time></trkpt><trkpt lat="41.95887409838886" lon="12.627330524593672"><ele>34.0</ele><time>2026-04-12T08:47:24Z</time></trkpt><trkpt lat="41.958955487783534" lon="12.627116640329529"><ele>33.333333333333336</ele><time>2026-04-12T08:47:25Z</time></trkpt><trkpt lat="41.95904324219283" lon="12.626914355277615"><ele>32.666666666666664</ele><time>2026-04-12T08:47:26Z</time></trkpt><trkpt lat="41.9591361241999" lon="12.62671589271732"><ele>32.0</ele><time>2026-04-12T08:47:27Z</time></trkpt><trkpt lat="41.959227948807374" lon="12.626518403898574"><ele>32.0</ele><time>2026-04-12T08:47:28Z</time></trkpt><trkpt lat="41.95932502598147" lon="12.626323226104539"><ele>32.0</ele><time>2026-04-12T08:47:29Z</time></trkpt><trkpt lat="41.95941927597201" lon="12.626128160658284"><ele>32.0</ele><time>2026-04-12T08:47:30Z</time></trkpt><trkpt lat="41.95951781675854" lon="12.625926881608912"><ele>32.0</ele><time>2026-04-12T08:47:31Z</time></trkpt><trkpt lat="41.95961957822187" lon="12.625722336164461"><ele>32.0</ele><time>2026-04-12T08:47:32Z</time></trkpt><trkpt lat="41.95971512043511" lon="12.625526527499721"><ele>32.0</ele><time>2026-04-12T08:47:33Z</time></trkpt><trkpt lat="41.95980386375498" lon="12.625341767862139"><ele>32.25</ele><time>2026-04-12T08:47:34Z</time></trkpt><trkpt lat="41.95988877778209" lon="12.625165633007482"><ele>32.5</ele><time>2026-04-12T08:47:35Z</time></trkpt><trkpt lat="41.95996844381865" lon="12.625003655174623"><ele>32.75</ele><time>2026-04-12T08:47:36Z</time></trkpt><trkpt lat="41.96004314100812" lon="12.624852975139184"><ele>33.0</ele><time>2026-04-12T08:47:37Z</time></trkpt><trkpt lat="41.96011131108719" lon="12.624713536387421"><ele>33.8</ele><time>2026-04-12T08:47:38Z</time></trkpt><trkpt lat="41.960174763053985" lon="12.624576050253298"><ele>34.599999999999994</ele><time>2026-04-12T08:47:39Z</time></trkpt><trkpt lat="41.96023561625076" lon="12.624451137511233"><ele>35.400000000000006</ele><time>2026-04-12T08:47:40Z</time></trkpt><trkpt lat="41.96029250461915" lon="12.624336535733004"><ele>36.2</ele><time>2026-04-12T08:47:41Z</time></trkpt><trkpt lat="41.960348358136294" lon="12.624237131990293"><ele>37.0</ele><time>2026-04-12T08:47:42Z</time></trkpt><trkpt lat="41.96040205282552" lon="12.62415472201936"><ele>37.2</ele><time>2026-04-12T08:47:43Z</time></trkpt><trkpt lat="41.96045584415509" lon="12.62409216478849"><ele>37.400000000000006</ele><time>2026-04-12T08:47:44Z</time></trkpt><trkpt lat="41.9605653148773" lon="12.62404997629073"><ele>37.599999999999994</ele><time>2026-04-12T08:47:46Z</time></trkpt><trkpt lat="41.960657793029945" lon="12.624060438237413"><ele>37.8</ele><time>2026-04-12T08:47:48Z</time></trkpt><trkpt lat="41.96073496991828" lon="12.62408134933699"><ele>38.0</ele><time>2026-04-12T08:48:11Z</time></trkpt><trkpt lat="41.9607421603745" lon="12.624222937875311"><ele>38.0</ele><time>2026-04-12T08:48:12Z</time></trkpt><trkpt lat="41.960756166275964" lon="12.62433814730278"><ele>38.0</ele><time>2026-04-12T08:48:13Z</time></trkpt><trkpt lat="41.96077821821659" lon="12.624462381301871"><ele>38.0</ele><time>2026-04-12T08:48:14Z</time></trkpt><trkpt lat="41.96081423983926" lon="12.624603663707973"><ele>38.0</ele><time>2026-04-12T08:48:15Z</time></trkpt><trkpt lat="41.96086131489759" lon="12.624750578370408"><ele>38.0</ele><time>2026-04-12T08:48:16Z</time></trkpt><trkpt lat="41.9609037399108" lon="12.624907017948612"><ele>38.75</ele><time>2026-04-12T08:48:17Z</time></trkpt><trkpt lat="41.96095445319576" lon="12.625065526037424"><ele>39.5</ele><time>2026-04-12T08:48:18Z</time></trkpt><trkpt lat="41.96100928153202" lon="12.625229146454187"><ele>40.25</ele><time>2026-04-12T08:48:18.999Z</time></trkpt><trkpt lat="41.96107201432677" lon="12.625400342469767"><ele>41.0</ele><time>2026-04-12T08:48:19.999Z</time></trkpt><trkpt lat="41.9611382701149" lon="12.625570474913516"><ele>41.0</ele><time>2026-04-12T08:48:20.999Z</time></trkpt><trkpt lat="41.961205762984676" lon="12.625740228550011"><ele>41.0</ele><time>2026-04-12T08:48:21.999Z</time></trkpt><trkpt lat="41.96127113206632" lon="12.625905741380754"><ele>41.0</ele><time>2026-04-12T08:48:22.999Z</time></trkpt><trkpt lat="41.96132930987219" lon="12.626061433244228"><ele>41.0</ele><time>2026-04-12T08:48:23.999Z</time></trkpt><trkpt lat="41.96139429810323" lon="12.626201243532796"><ele>40.4</ele><time>2026-04-12T08:48:24.999Z</time></trkpt><trkpt lat="41.96145348042551" lon="12.62633201200873"><ele>39.8</ele><time>2026-04-12T08:48:25.999Z</time></trkpt><trkpt lat="41.961511226178956" lon="12.626457676138982"><ele>39.199999999999996</ele><time>2026-04-12T08:48:26.999Z</time></trkpt><trkpt lat="41.96157241901146" lon="12.626574236755019"><ele>38.599999999999994</ele><time>2026-04-12T08:48:27.999Z</time></trkpt><trkpt lat="41.961640277569956" lon="12.626691898648417"><ele>38.0</ele><time>2026-04-12T08:48:28.999Z</time></trkpt><trkpt lat="41.96172054278668" lon="12.626805453180996"><ele>38.0</ele><time>2026-04-12T08:48:29.999Z</time></trkpt><trkpt lat="41.96181164822399" lon="12.626912650364883"><ele>38.0</ele><time>2026-04-12T08:48:30.999Z</time></trkpt><trkpt lat="41.96191601634576" lon="12.627010220647506"><ele>38.0</ele><time>2026-04-12T08:48:31.999Z</time></trkpt><trkpt lat="41.96204964249968" lon="12.627098320569536"><ele>38.0</ele><time>2026-04-12T08:48:32.999Z</time></trkpt><trkpt lat="41.96222515294476" lon="12.627163371518018"><ele>36.666666666666664</ele><time>2026-04-12T08:48:33.999Z</time></trkpt><trkpt lat="41.962422913883685" lon="12.627211443778526"><ele>35.333333333333336</ele><time>2026-04-12T08:48:34.999Z</time></trkpt><trkpt lat="41.96263059289888" lon="12.627255036680515"><ele>34.0</ele><time>2026-04-12T08:48:35.999Z</time></trkpt><trkpt lat="41.96284036468127" lon="12.627292698477772"><ele>34.0</ele><time>2026-04-12T08:48:36.999Z</time></trkpt><trkpt lat="41.963042199916465" lon="12.62732892226412"><ele>34.0</ele><time>2026-04-12T08:48:37.999Z</time></trkpt><trkpt lat="41.96323918041497" lon="12.627369335140493"><ele>34.0</ele><time>2026-04-12T08:48:38.999Z</time></trkpt><trkpt lat="41.96343079949519" lon="12.627407170286668"><ele>34.66666666666667</ele><time>2026-04-12T08:48:39.999Z</time></trkpt><trkpt lat="41.96361427898119" lon="12.627446759175397"><ele>35.333333333333336</ele><time>2026-04-12T08:48:40.999Z</time></trkpt><trkpt lat="41.963788784084734" lon="12.627481667430212"><ele>36.0</ele><time>2026-04-12T08:48:41.999Z</time></trkpt><trkpt lat="41.96395329381404" lon="12.62751275030727"><ele>36.0</ele><time>2026-04-12T08:48:42.999Z</time></trkpt><trkpt lat="41.96411111744297" lon="12.627545267549314"><ele>36.0</ele><time>2026-04-12T08:48:43.999Z</time></trkpt><trkpt lat="41.96425797454835" lon="12.627576042722302"><ele>36.0</ele><time>2026-04-12T08:48:44.999Z</time></trkpt><trkpt lat="41.96439475411891" lon="12.627613899971367"><ele>36.0</ele><time>2026-04-12T08:48:45.999Z</time></trkpt><trkpt lat="41.96453404583186" lon="12.627664993798827"><ele>36.0</ele><time>2026-04-12T08:48:46.999Z</time></trkpt><trkpt lat="41.96467298894115" lon="12.62772975102758"><ele>36.0</ele><time>2026-04-12T08:48:47.999Z</time></trkpt><trkpt lat="41.96481098874947" lon="12.627805450725933"><ele>36.0</ele><time>2026-04-12T08:48:48.999Z</time></trkpt><trkpt lat="41.96494921689422" lon="12.627888625543715"><ele>36.0</ele><time>2026-04-12T08:48:49.999Z</time></trkpt><trkpt lat="41.96508772506653" lon="12.627974638469494"><ele>35.25</ele><time>2026-04-12T08:48:50.999Z</time></trkpt><trkpt lat="41.965216762393936" lon="12.62806095303097"><ele>34.5</ele><time>2026-04-12T08:48:51.999Z</time></trkpt><trkpt lat="41.96534406318158" lon="12.628150641343305"><ele>33.75</ele><time>2026-04-12T08:48:52.999Z</time></trkpt><trkpt lat="41.96547247995884" lon="12.628238924350496"><ele>33.0</ele><time>2026-04-12T08:48:53.999Z</time></trkpt><trkpt lat="41.96559986230927" lon="12.62833105181693"><ele>33.0</ele><time>2026-04-12T08:48:54.999Z</time></trkpt><trkpt lat="41.965725872700084" lon="12.628433423333744"><ele>33.0</ele><time>2026-04-12T08:48:55.999Z</time></trkpt><trkpt lat="41.965853348058964" lon="12.628539055592391"><ele>33.0</ele><time>2026-04-12T08:48:56.999Z</time></trkpt><trkpt lat="41.96598218082275" lon="12.628649395918835"><ele>33.666666666666664</ele><time>2026-04-12T08:48:57.999Z</time></trkpt><trkpt lat="41.96610998236601" lon="12.628768770290565"><ele>34.33333333333333</ele><time>2026-04-12T08:48:58.999Z</time></trkpt><trkpt lat="41.96623684134861" lon="12.628883322329921"><ele>35.0</ele><time>2026-04-12T08:48:59.999Z</time></trkpt><trkpt lat="41.96636689864916" lon="12.628999511393957"><ele>35.0</ele><time>2026-04-12T08:49:00.999Z</time></trkpt><trkpt lat="41.96649564836131" lon="12.629114745400543"><ele>35.0</ele><time>2026-04-12T08:49:01.999Z</time></trkpt><trkpt lat="41.96661567491574" lon="12.629233577112398"><ele>35.0</ele><time>2026-04-12T08:49:02.999Z</time></trkpt><trkpt lat="41.96672846587927" lon="12.629364664377793"><ele>35.5</ele><time>2026-04-12T08:49:03.999Z</time></trkpt><trkpt lat="41.96683208246085" lon="12.629502831146212"><ele>36.0</ele><time>2026-04-12T08:49:04.999Z</time></trkpt><trkpt lat="41.96692176852386" lon="12.629652766004723"><ele>36.5</ele><time>2026-04-12T08:49:05.999Z</time></trkpt><trkpt lat="41.96700500190717" lon="12.629809497481824"><ele>37.0</ele><time>2026-04-12T08:49:06.999Z</time></trkpt><trkpt lat="41.96708788143152" lon="12.629957248374904"><ele>37.0</ele><time>2026-04-12T08:49:07.999Z</time></trkpt><trkpt lat="41.96716546843988" lon="12.630101201212383"><ele>37.0</ele><time>2026-04-12T08:49:08.999Z</time></trkpt><trkpt lat="41.96723818522076" lon="12.630239476107578"><ele>37.0</ele><time>2026-04-12T08:49:09.999Z</time></trkpt><trkpt lat="41.967311706419515" lon="12.630374331067111"><ele>37.0</ele><time>2026-04-12T08:49:10.999Z</time></trkpt><trkpt lat="41.967382967508634" lon="12.630501577027871"><ele>36.75</ele><time>2026-04-12T08:49:11.998Z</time></trkpt><trkpt lat="41.96744974831663" lon="12.630631325470407"><ele>36.5</ele><time>2026-04-12T08:49:12.998Z</time></trkpt><trkpt lat="41.96751542491262" lon="12.63075940779775"><ele>36.25</ele><time>2026-04-12T08:49:13.998Z</time></trkpt><trkpt lat="41.9675856681549" lon="12.63088842912945"><ele>36.0</ele><time>2026-04-12T08:49:14.998Z</time></trkpt><trkpt lat="41.967658648245134" lon="12.631017100818578"><ele>36.25</ele><time>2026-04-12T08:49:15.998Z</time></trkpt><trkpt lat="41.9677351738448" lon="12.631146416744345"><ele>36.5</ele><time>2026-04-12T08:49:16.998Z</time></trkpt><trkpt lat="41.967811228508616" lon="12.631280071082099"><ele>36.75</ele><time>2026-04-12T08:49:17.998Z</time></trkpt><trkpt lat="41.967886337296065" lon="12.631418320483036"><ele>37.0</ele><time>2026-04-12T08:49:18.998Z</time></trkpt><trkpt lat="41.96796330542783" lon="12.631556623440632"><ele>37.0</ele><time>2026-04-12T08:49:19.998Z</time></trkpt><trkpt lat="41.968042458613446" lon="12.631700110506758"><ele>37.0</ele><time>2026-04-12T08:49:20.998Z</time></trkpt><trkpt lat="41.96812405034958" lon="12.631847309670393"><ele>37.0</ele><time>2026-04-12T08:49:21.998Z</time></trkpt><trkpt lat="41.968205958307024" lon="12.631991445141793"><ele>37.0</ele><time>2026-04-12T08:49:22.998Z</time></trkpt><trkpt lat="41.96828735064571" lon="12.632134233181036"><ele>37.75</ele><time>2026-04-12T08:49:23.998Z</time></trkpt><trkpt lat="41.96836678001918" lon="12.632276854134489"><ele>38.5</ele><time>2026-04-12T08:49:25Z</time></trkpt><trkpt lat="41.96844612341039" lon="12.632414027121682"><ele>39.25</ele><time>2026-04-12T08:49:26Z</time></trkpt><trkpt lat="41.96853038439191" lon="12.632543631371709"><ele>40.0</ele><time>2026-04-12T08:49:27Z</time></trkpt><trkpt lat="41.96861912238218" lon="12.632662110070457"><ele>40.0</ele><time>2026-04-12T08:49:28Z</time></trkpt><trkpt lat="41.96871090039481" lon="12.6327771522637"><ele>40.0</ele><time>2026-04-12T08:49:29Z</time></trkpt><trkpt lat="41.96880210461124" lon="12.632894082962324"><ele>40.0</ele><time>2026-04-12T08:49:30Z</time></trkpt><trkpt lat="41.968895924407896" lon="12.633007496437171"><ele>40.0</ele><time>2026-04-12T08:49:31Z</time></trkpt><trkpt lat="41.968987729003864" lon="12.633122370301198"><ele>39.0</ele><time>2026-04-12T08:49:32Z</time></trkpt><trkpt lat="41.96908000752614" lon="12.63323642785674"><ele>38.0</ele><time>2026-04-12T08:49:33Z</time></trkpt><trkpt lat="41.96917142070183" lon="12.633358817857596"><ele>37.0</ele><time>2026-04-12T08:49:34Z</time></trkpt><trkpt lat="41.969260328413" lon="12.63348843732391"><ele>36.0</ele><time>2026-04-12T08:49:35Z</time></trkpt><trkpt lat="41.96935630577247" lon="12.63362025946503"><ele>36.75</ele><time>2026-04-12T08:49:36Z</time></trkpt><trkpt lat="41.969457317484604" lon="12.633754234448771"><ele>37.5</ele><time>2026-04-12T08:49:37Z</time></trkpt><trkpt lat="41.96955964938694" lon="12.633891806526595"><ele>38.25</ele><time>2026-04-12T08:49:38Z</time></trkpt><trkpt lat="41.96966235875313" lon="12.634030596366292"><ele>39.0</ele><time>2026-04-12T08:49:39Z</time></trkpt><trkpt lat="41.96976536951607" lon="12.63416868347652"><ele>39.0</ele><time>2026-04-12T08:49:40Z</time></trkpt><trkpt lat="41.96986587410003" lon="12.634308997845206"><ele>39.0</ele><time>2026-04-12T08:49:41Z</time></trkpt><trkpt lat="41.96996505339932" lon="12.634449887986511"><ele>39.0</ele><time>2026-04-12T08:49:42Z</time></trkpt><trkpt lat="41.97006059285187" lon="12.634596788908453"><ele>39.0</ele><time>2026-04-12T08:49:43Z</time></trkpt><trkpt lat="41.970152733170266" lon="12.634747686560523"><ele>39.25</ele><time>2026-04-12T08:49:44Z</time></trkpt><trkpt lat="41.97024412344684" lon="12.63490136361519"><ele>39.5</ele><time>2026-04-12T08:49:45Z</time></trkpt><trkpt lat="41.970333051026145" lon="12.635057711070292"><ele>39.75</ele><time>2026-04-12T08:49:46Z</time></trkpt><trkpt lat="41.97042053802098" lon="12.63521742408846"><ele>40.0</ele><time>2026-04-12T08:49:47Z</time></trkpt><trkpt lat="41.97050555902078" lon="12.635379671704465"><ele>40.0</ele><time>2026-04-12T08:49:48Z</time></trkpt><trkpt lat="41.97058810877511" lon="12.635544635140226"><ele>40.0</ele><time>2026-04-12T08:49:49Z</time></trkpt><trkpt lat="41.970668498878446" lon="12.635711959354756"><ele>40.0</ele><time>2026-04-12T08:49:50Z</time></trkpt><trkpt lat="41.970745889462165" lon="12.635882231621183"><ele>40.0</ele><time>2026-04-12T08:49:51Z</time></trkpt><trkpt lat="41.970821257224344" lon="12.636053546160435"><ele>42.0</ele><time>2026-04-12T08:49:52Z</time></trkpt><trkpt lat="41.970894230915555" lon="12.636224662400913"><ele>44.0</ele><time>2026-04-12T08:49:53Z</time></trkpt><trkpt lat="41.9709656244851" lon="12.63639627743135"><ele>46.0</ele><time>2026-04-12T08:49:54Z</time></trkpt><trkpt lat="41.971035438759124" lon="12.63656796692849"><ele>48.0</ele><time>2026-04-12T08:49:55Z</time></trkpt><trkpt lat="41.97110417242582" lon="12.636740021671"><ele>48.0</ele><time>2026-04-12T08:49:56Z</time></trkpt><trkpt lat="41.97117316670198" lon="12.636912937305375"><ele>48.0</ele><time>2026-04-12T08:49:57Z</time></trkpt><trkpt lat="41.97124199145044" lon="12.637087073445347"><ele>48.0</ele><time>2026-04-12T08:49:58Z</time></trkpt><trkpt lat="41.97131335543005" lon="12.637263238793361"><ele>48.0</ele><time>2026-04-12T08:49:59Z</time></trkpt><trkpt lat="41.971385722167874" lon="12.63743990014277"><ele>46.0</ele><time>2026-04-12T08:50:00Z</time></trkpt><trkpt lat="41.97145950233291" lon="12.637620086781656"><ele>44.0</ele><time>2026-04-12T08:50:01Z</time></trkpt><trkpt lat="41.97153700292254" lon="12.637808003093257"><ele>42.0</ele><time>2026-04-12T08:50:02Z</time></trkpt><trkpt lat="41.971617175303365" lon="12.638005007663049"><ele>44.66666666666667</ele><time>2026-04-12T08:50:03Z</time></trkpt><trkpt lat="41.971699840227096" lon="12.638206054706663"><ele>47.333333333333336</ele><time>2026-04-12T08:50:04Z</time></trkpt><trkpt lat="41.971785900412264" lon="12.638407799416328"><ele>50.0</ele><time>2026-04-12T08:50:05Z</time></trkpt><trkpt lat="41.97187258366923" lon="12.638615292587549"><ele>48.333333333333336</ele><time>2026-04-12T08:50:06Z</time></trkpt><trkpt lat="41.971959915159715" lon="12.638823234536886"><ele>46.66666666666667</ele><time>2026-04-12T08:50:07Z</time></trkpt><trkpt lat="41.97204270183884" lon="12.639031470143806"><ele>45.0</ele><time>2026-04-12T08:50:08Z</time></trkpt><trkpt lat="41.97212203891984" lon="12.639229631062165"><ele>45.0</ele><time>2026-04-12T08:50:09Z</time></trkpt><trkpt lat="41.97219928878187" lon="12.639421111399265"><ele>45.0</ele><time>2026-04-12T08:50:10Z</time></trkpt><trkpt lat="41.9722719167627" lon="12.639603198334498"><ele>45.0</ele><time>2026-04-12T08:50:11Z</time></trkpt><trkpt lat="41.97233935875653" lon="12.63978433510457"><ele>45.333333333333336</ele><time>2026-04-12T08:50:12Z</time></trkpt><trkpt lat="41.972404047744504" lon="12.63996903609864"><ele>45.66666666666667</ele><time>2026-04-12T08:50:13Z</time></trkpt><trkpt lat="41.97246750791483" lon="12.640154991578495"><ele>46.0</ele><time>2026-04-12T08:50:14Z</time></trkpt><trkpt lat="41.97252799579958" lon="12.640341693052015"><ele>46.0</ele><time>2026-04-12T08:50:15Z</time></trkpt><trkpt lat="41.97258580749411" lon="12.64052925523442"><ele>46.0</ele><time>2026-04-12T08:50:16Z</time></trkpt><trkpt lat="41.97264373966195" lon="12.640712592526205"><ele>46.0</ele><time>2026-04-12T08:50:17Z</time></trkpt><trkpt lat="41.97270458139748" lon="12.640890406164607"><ele>46.0</ele><time>2026-04-12T08:50:18Z</time></trkpt><trkpt lat="41.97277058072746" lon="12.641062883675179"><ele>45.333333333333336</ele><time>2026-04-12T08:50:19Z</time></trkpt><trkpt lat="41.97284002995929" lon="12.641234586241278"><ele>44.666666666666664</ele><time>2026-04-12T08:50:20Z</time></trkpt><trkpt lat="41.97291759847929" lon="12.641410664657679"><ele>44.0</ele><time>2026-04-12T08:50:21Z</time></trkpt><trkpt lat="41.97300278465597" lon="12.641590073796928"><ele>44.0</ele><time>2026-04-12T08:50:22Z</time></trkpt><trkpt lat="41.9730958787" lon="12.641771763754006"><ele>44.0</ele><time>2026-04-12T08:50:23Z</time></trkpt><trkpt lat="41.97319112116379" lon="12.641952931376256"><ele>44.0</ele><time>2026-04-12T08:50:24Z</time></trkpt><trkpt lat="41.973289936658595" lon="12.642130580294442"><ele>44.75</ele><time>2026-04-12T08:50:25Z</time></trkpt><trkpt lat="41.973387432360376" lon="12.642296018143544"><ele>45.5</ele><time>2026-04-12T08:50:26Z</time></trkpt><trkpt lat="41.97347901115003" lon="12.642451410532837"><ele>46.25</ele><time>2026-04-12T08:50:26.999Z</time></trkpt><trkpt lat="41.97356808961594" lon="12.642600400702682"><ele>47.0</ele><time>2026-04-12T08:50:27.999Z</time></trkpt><trkpt lat="41.97365419171517" lon="12.642747075278432"><ele>47.0</ele><time>2026-04-12T08:50:28.999Z</time></trkpt><trkpt lat="41.97374033402266" lon="12.642899015096749"><ele>47.0</ele><time>2026-04-12T08:50:29.999Z</time></trkpt><trkpt lat="41.97382723834609" lon="12.643053374357176"><ele>47.0</ele><time>2026-04-12T08:50:30.999Z</time></trkpt><trkpt lat="41.97391614305958" lon="12.643204458743998"><ele>47.0</ele><time>2026-04-12T08:50:31.999Z</time></trkpt><trkpt lat="41.9740069245834" lon="12.643355329838334"><ele>47.0</ele><time>2026-04-12T08:50:32.999Z</time></trkpt><trkpt lat="41.97409034607173" lon="12.643498143167259"><ele>47.0</ele><time>2026-04-12T08:50:33.999Z</time></trkpt><trkpt lat="41.974170132687824" lon="12.643639242652903"><ele>47.0</ele><time>2026-04-12T08:50:34.999Z</time></trkpt><trkpt lat="41.974249178088115" lon="12.643774469401352"><ele>47.0</ele><time>2026-04-12T08:50:35.999Z</time></trkpt><trkpt lat="41.974324599466186" lon="12.643907452394037"><ele>46.75</ele><time>2026-04-12T08:50:36.999Z</time></trkpt><trkpt lat="41.97440163022109" lon="12.644041441714961"><ele>46.5</ele><time>2026-04-12T08:50:37.999Z</time></trkpt><trkpt lat="41.97447890580903" lon="12.644175197330666"><ele>46.25</ele><time>2026-04-12T08:50:38.999Z</time></trkpt><trkpt lat="41.974557714634905" lon="12.64430427349344"><ele>46.0</ele><time>2026-04-12T08:50:39.999Z</time></trkpt><trkpt lat="41.97462964787499" lon="12.64442821394033"><ele>46.0</ele><time>2026-04-12T08:50:40.999Z</time></trkpt><trkpt lat="41.97469652757279" lon="12.644543650916251"><ele>46.0</ele><time>2026-04-12T08:50:41.999Z</time></trkpt><trkpt lat="41.974762381484624" lon="12.644653698928666"><ele>46.0</ele><time>2026-04-12T08:50:42.999Z</time></trkpt><trkpt lat="41.974827247592344" lon="12.644754602005703"><ele>46.0</ele><time>2026-04-12T08:50:43.999Z</time></trkpt><trkpt lat="41.97489148887605" lon="12.644848860947441"><ele>46.0</ele><time>2026-04-12T08:50:44.999Z</time></trkpt><trkpt lat="41.97495515925052" lon="12.64493821859918"><ele>46.0</ele><time>2026-04-12T08:50:45.999Z</time></trkpt><trkpt lat="41.97501843733858" lon="12.645026802851621"><ele>46.0</ele><time>2026-04-12T08:50:46.999Z</time></trkpt><trkpt lat="41.9750812080744" lon="12.645112678718172"><ele>46.0</ele><time>2026-04-12T08:50:47.999Z</time></trkpt><trkpt lat="41.97514672788469" lon="12.645201586399287"><ele>46.0</ele><time>2026-04-12T08:50:48.999Z</time></trkpt><trkpt lat="41.97521091668928" lon="12.645294463273855"><ele>46.0</ele><time>2026-04-12T08:50:49.999Z</time></trkpt><trkpt lat="41.97527394713588" lon="12.64538678407689"><ele>45.8</ele><time>2026-04-12T08:50:50.999Z</time></trkpt><trkpt lat="41.975336261341866" lon="12.64548285375931"><ele>45.599999999999994</ele><time>2026-04-12T08:50:51.999Z</time></trkpt><trkpt lat="41.975390897263345" lon="12.645589538222994"><ele>45.4</ele><time>2026-04-12T08:50:52.999Z</time></trkpt><trkpt lat="41.975435267412244" lon="12.64569954345424"><ele>45.2</ele><time>2026-04-12T08:50:53.999Z</time></trkpt><trkpt lat="41.975471925348344" lon="12.645814863160433"><ele>45.0</ele><time>2026-04-12T08:50:54.999Z</time></trkpt><trkpt lat="41.97549641006488" lon="12.645935710728384"><ele>45.0</ele><time>2026-04-12T08:50:55.999Z</time></trkpt><trkpt lat="41.975509975441646" lon="12.646056996532506"><ele>45.0</ele><time>2026-04-12T08:50:56.999Z</time></trkpt><trkpt lat="41.9755121072532" lon="12.646177671819403"><ele>45.0</ele><time>2026-04-12T08:50:57.999Z</time></trkpt><trkpt lat="41.97551078460966" lon="12.646296794340678"><ele>45.0</ele><time>2026-04-12T08:50:58.999Z</time></trkpt><trkpt lat="41.97550445114213" lon="12.646408372753994"><ele>45.0</ele><time>2026-04-12T08:50:59.999Z</time></trkpt><trkpt lat="41.97549842027948" lon="12.646515193025143"><ele>45.0</ele><time>2026-04-12T08:51:00.999Z</time></trkpt><trkpt lat="41.97549139967192" lon="12.646621997119375"><ele>45.333333333333336</ele><time>2026-04-12T08:51:01.999Z</time></trkpt><trkpt lat="41.97548269418036" lon="12.646731754061937"><ele>45.666666666666664</ele><time>2026-04-12T08:51:02.999Z</time></trkpt><trkpt lat="41.97547280031313" lon="12.646837870338647"><ele>46.0</ele><time>2026-04-12T08:51:03.999Z</time></trkpt><trkpt lat="41.97546200232281" lon="12.646948824956787"><ele>46.33333333333333</ele><time>2026-04-12T08:51:04.999Z</time></trkpt><trkpt lat="41.97545178400096" lon="12.64706090015447"><ele>46.666666666666664</ele><time>2026-04-12T08:51:05.999Z</time></trkpt><trkpt lat="41.975441584002084" lon="12.647171785453281"><ele>47.0</ele><time>2026-04-12T08:51:06.999Z</time></trkpt><trkpt lat="41.975431713848835" lon="12.64728301937596"><ele>48.0</ele><time>2026-04-12T08:51:07.999Z</time></trkpt><trkpt lat="41.975404517791105" lon="12.64739459043483"><ele>49.0</ele><time>2026-04-12T08:51:08.999Z</time></trkpt><trkpt lat="41.9753907258719" lon="12.647517166506594"><ele>50.0</ele><time>2026-04-12T08:51:09.999Z</time></trkpt><trkpt lat="41.97539228034582" lon="12.6476426122687"><ele>51.0</ele><time>2026-04-12T08:51:10.999Z</time></trkpt><trkpt lat="41.97537428650724" lon="12.647766993013876"><ele>52.0</ele><time>2026-04-12T08:51:11.999Z</time></trkpt><trkpt lat="41.97536138221709" lon="12.647895670981054"><ele>52.2</ele><time>2026-04-12T08:51:12.999Z</time></trkpt><trkpt lat="41.97535272799059" lon="12.648020461730438"><ele>52.400000000000006</ele><time>2026-04-12T08:51:13.999Z</time></trkpt><trkpt lat="41.97534637627019" lon="12.648142900177382"><ele>52.599999999999994</ele><time>2026-04-12T08:51:14.999Z</time></trkpt><trkpt lat="41.975345109056136" lon="12.648266760280128"><ele>52.8</ele><time>2026-04-12T08:51:15.999Z</time></trkpt><trkpt lat="41.97534944244481" lon="12.648394829367172"><ele>53.0</ele><time>2026-04-12T08:51:16.999Z</time></trkpt><trkpt lat="41.97535394419763" lon="12.648529156203264"><ele>52.2</ele><time>2026-04-12T08:51:17.999Z</time></trkpt><trkpt lat="41.97536073967939" lon="12.648670484814046"><ele>51.4</ele><time>2026-04-12T08:51:18.999Z</time></trkpt><trkpt lat="41.97537178981322" lon="12.648813187688232"><ele>50.6</ele><time>2026-04-12T08:51:19.998Z</time></trkpt><trkpt lat="41.97538462870669" lon="12.64895203603422"><ele>49.800000000000004</ele><time>2026-04-12T08:51:20.998Z</time></trkpt><trkpt lat="41.97539699016412" lon="12.649085650723627"><ele>49.0</ele><time>2026-04-12T08:51:21.998Z</time></trkpt><trkpt lat="41.975408986145595" lon="12.64921281443806"><ele>49.0</ele><time>2026-04-12T08:51:22.998Z</time></trkpt><trkpt lat="41.9754243814427" lon="12.649336992317805"><ele>49.0</ele><time>2026-04-12T08:51:23.998Z</time></trkpt><trkpt lat="41.97544277523064" lon="12.649461552994318"><ele>49.0</ele><time>2026-04-12T08:51:24.998Z</time></trkpt><trkpt lat="41.97546148349564" lon="12.649591977573655"><ele>49.0</ele><time>2026-04-12T08:51:25.998Z</time></trkpt><trkpt lat="41.97547845635376" lon="12.649730898319682"><ele>49.0</ele><time>2026-04-12T08:51:26.998Z</time></trkpt><trkpt lat="41.97549859040078" lon="12.649875439844658"><ele>49.2</ele><time>2026-04-12T08:51:27.998Z</time></trkpt><trkpt lat="41.97552529638009" lon="12.650019975444339"><ele>49.400000000000006</ele><time>2026-04-12T08:51:28.998Z</time></trkpt><trkpt lat="41.975557579425484" lon="12.65016232941486"><ele>49.6</ele><time>2026-04-12T08:51:29.998Z</time></trkpt><trkpt lat="41.975590588693784" lon="12.650298456213493"><ele>49.8</ele><time>2026-04-12T08:51:31Z</time></trkpt><trkpt lat="41.97562680678272" lon="12.650423669502805"><ele>50.0</ele><time>2026-04-12T08:51:32Z</time></trkpt><trkpt lat="41.97567409189873" lon="12.65053131090858"><ele>50.4</ele><time>2026-04-12T08:51:33Z</time></trkpt><trkpt lat="41.97573073670352" lon="12.650620112043883"><ele>50.8</ele><time>2026-04-12T08:51:34Z</time></trkpt><trkpt lat="41.97579058365422" lon="12.650705782290776"><ele>51.2</ele><time>2026-04-12T08:51:35Z</time></trkpt><trkpt lat="41.97586007187384" lon="12.650786721182804"><ele>51.6</ele><time>2026-04-12T08:51:36Z</time></trkpt><trkpt lat="41.97593694337295" lon="12.650868429203173"><ele>52.0</ele><time>2026-04-12T08:51:37Z</time></trkpt><trkpt lat="41.976022071672205" lon="12.650949704712918"><ele>52.0</ele><time>2026-04-12T08:51:38Z</time></trkpt><trkpt lat="41.97610970179452" lon="12.6510274775045"><ele>52.0</ele><time>2026-04-12T08:51:39Z</time></trkpt><trkpt lat="41.97620173252413" lon="12.651104814614808"><ele>52.0</ele><time>2026-04-12T08:51:40Z</time></trkpt><trkpt lat="41.97629485855077" lon="12.651182160593985"><ele>52.0</ele><time>2026-04-12T08:51:41Z</time></trkpt><trkpt lat="41.97638672168724" lon="12.651259357920553"><ele>52.0</ele><time>2026-04-12T08:51:42Z</time></trkpt><trkpt lat="41.976474529497715" lon="12.651336210936623"><ele>52.400000000000006</ele><time>2026-04-12T08:51:43Z</time></trkpt><trkpt lat="41.97655876698094" lon="12.651407797910215"><ele>52.800000000000004</ele><time>2026-04-12T08:51:44Z</time></trkpt><trkpt lat="41.97664002609901" lon="12.651477826896862"><ele>53.2</ele><time>2026-04-12T08:51:45Z</time></trkpt><trkpt lat="41.97672183614767" lon="12.651547201338309"><ele>53.6</ele><time>2026-04-12T08:51:46Z</time></trkpt><trkpt lat="41.976799175267665" lon="12.651607981454767"><ele>54.0</ele><time>2026-04-12T08:51:47Z</time></trkpt><trkpt lat="41.97687342777523" lon="12.651666045886849"><ele>54.0</ele><time>2026-04-12T08:51:48Z</time></trkpt><trkpt lat="41.97694418463866" lon="12.651725666572814"><ele>54.0</ele><time>2026-04-12T08:51:49Z</time></trkpt><trkpt lat="41.97701583266019" lon="12.651784615008"><ele>54.0</ele><time>2026-04-12T08:51:50Z</time></trkpt><trkpt lat="41.97709113132545" lon="12.651847357548736"><ele>54.0</ele><time>2026-04-12T08:51:51Z</time></trkpt><trkpt lat="41.977167355786435" lon="12.651917241451152"><ele>54.0</ele><time>2026-04-12T08:51:52Z</time></trkpt><trkpt lat="41.97725018980392" lon="12.651979450229568"><ele>54.0</ele><time>2026-04-12T08:51:53Z</time></trkpt><trkpt lat="41.97733499878126" lon="12.652046127213183"><ele>52.800000000000004</ele><time>2026-04-12T08:51:54Z</time></trkpt><trkpt lat="41.977418360883235" lon="12.65211073875881"><ele>51.60000000000001</ele><time>2026-04-12T08:51:55Z</time></trkpt><trkpt lat="41.977500799170286" lon="12.65217583376439"><ele>50.4</ele><time>2026-04-12T08:51:56Z</time></trkpt><trkpt lat="41.9775834028632" lon="12.652241434157208"><ele>49.2</ele><time>2026-04-12T08:51:57Z</time></trkpt><trkpt lat="41.97766879124961" lon="12.652308409420105"><ele>48.0</ele><time>2026-04-12T08:51:58Z</time></trkpt><trkpt lat="41.977752960732346" lon="12.652371516418114"><ele>48.0</ele><time>2026-04-12T08:51:59Z</time></trkpt><trkpt lat="41.97783892111071" lon="12.652433932384355"><ele>48.0</ele><time>2026-04-12T08:52:00Z</time></trkpt><trkpt lat="41.97792487668145" lon="12.65250010692926"><ele>48.0</ele><time>2026-04-12T08:52:01Z</time></trkpt><trkpt lat="41.978011536125614" lon="12.652567244021819"><ele>48.0</ele><time>2026-04-12T08:52:02Z</time></trkpt><trkpt lat="41.978101434297095" lon="12.65262960989964"><ele>48.0</ele><time>2026-04-12T08:52:03Z</time></trkpt><trkpt lat="41.978182275126336" lon="12.652712944653686"><ele>48.0</ele><time>2026-04-12T08:52:04Z</time></trkpt><trkpt lat="41.9782657091055" lon="12.652776736950218"><ele>48.0</ele><time>2026-04-12T08:52:05Z</time></trkpt><trkpt lat="41.97835230240141" lon="12.65281785576208"><ele>48.0</ele><time>2026-04-12T08:52:06Z</time></trkpt><trkpt lat="41.978426863757406" lon="12.652878885601952"><ele>48.0</ele><time>2026-04-12T08:52:07Z</time></trkpt><trkpt lat="41.97850325227101" lon="12.652939253131281"><ele>48.0</ele><time>2026-04-12T08:52:08Z</time></trkpt><trkpt lat="41.97858296490364" lon="12.653001276095718"><ele>48.0</ele><time>2026-04-12T08:52:09Z</time></trkpt><trkpt lat="41.978662315922136" lon="12.653062988059085"><ele>48.0</ele><time>2026-04-12T08:52:10Z</time></trkpt><trkpt lat="41.9787427228144" lon="12.65312331662197"><ele>48.0</ele><time>2026-04-12T08:52:11Z</time></trkpt><trkpt lat="41.97882337016943" lon="12.653185847620483"><ele>48.0</ele><time>2026-04-12T08:52:12Z</time></trkpt><trkpt lat="41.97890016217797" lon="12.653247382050715"><ele>48.0</ele><time>2026-04-12T08:52:13Z</time></trkpt><trkpt lat="41.978976257796305" lon="12.653310673078915"><ele>48.0</ele><time>2026-04-12T08:52:14Z</time></trkpt><trkpt lat="41.97905320912586" lon="12.653375028885712"><ele>48.0</ele><time>2026-04-12T08:52:15Z</time></trkpt><trkpt lat="41.979124655392816" lon="12.653451493896208"><ele>48.0</ele><time>2026-04-12T08:52:16Z</time></trkpt><trkpt lat="41.97919573225434" lon="12.653529621388302"><ele>48.0</ele><time>2026-04-12T08:52:17Z</time></trkpt><trkpt lat="41.979268302184515" lon="12.653611462758207"><ele>48.0</ele><time>2026-04-12T08:52:18Z</time></trkpt><trkpt lat="41.97934088781069" lon="12.653694808915585"><ele>47.599999999999994</ele><time>2026-04-12T08:52:19Z</time></trkpt><trkpt lat="41.979411076976966" lon="12.653778345329789"><ele>47.199999999999996</ele><time>2026-04-12T08:52:20Z</time></trkpt><trkpt lat="41.97948101723918" lon="12.653861480147864"><ele>46.8</ele><time>2026-04-12T08:52:21Z</time></trkpt><trkpt lat="41.97955083020081" lon="12.653943073269893"><ele>46.4</ele><time>2026-04-12T08:52:22Z</time></trkpt><trkpt lat="41.97961948333422" lon="12.654022937008081"><ele>46.0</ele><time>2026-04-12T08:52:23Z</time></trkpt><trkpt lat="41.97968730392396" lon="12.654101838029238"><ele>46.0</ele><time>2026-04-12T08:52:24Z</time></trkpt><trkpt lat="41.97975369687613" lon="12.654181535326883"><ele>46.0</ele><time>2026-04-12T08:52:25Z</time></trkpt><trkpt lat="41.97981966692828" lon="12.654260496642355"><ele>46.0</ele><time>2026-04-12T08:52:26Z</time></trkpt><trkpt lat="41.979884035465034" lon="12.654336019805042"><ele>46.0</ele><time>2026-04-12T08:52:27Z</time></trkpt><trkpt lat="41.97994992233779" lon="12.654413278814435"><ele>46.0</ele><time>2026-04-12T08:52:28Z</time></trkpt><trkpt lat="41.98001598965308" lon="12.654490869049807"><ele>46.0</ele><time>2026-04-12T08:52:29Z</time></trkpt><trkpt lat="41.980069608685795" lon="12.6545855255792"><ele>46.333333333333336</ele><time>2026-04-12T08:52:30Z</time></trkpt><trkpt lat="41.9801437569169" lon="12.654644845528958"><ele>46.66666666666667</ele><time>2026-04-12T08:52:31Z</time></trkpt><trkpt lat="41.98020520363739" lon="12.654717296056994"><ele>47.0</ele><time>2026-04-12T08:52:32Z</time></trkpt><trkpt lat="41.980259414227476" lon="12.654808883493134"><ele>47.333333333333336</ele><time>2026-04-12T08:52:32.999Z</time></trkpt><trkpt lat="41.980322460505086" lon="12.654884093345458"><ele>47.666666666666664</ele><time>2026-04-12T08:52:33.999Z</time></trkpt><trkpt lat="41.980396515885126" lon="12.654941605717973"><ele>48.0</ele><time>2026-04-12T08:52:34.999Z</time></trkpt><trkpt lat="41.980459622544316" lon="12.655017226324857"><ele>48.0</ele><time>2026-04-12T08:52:35.999Z</time></trkpt><trkpt lat="41.98052349525243" lon="12.655095337140311"><ele>48.0</ele><time>2026-04-12T08:52:36.999Z</time></trkpt><trkpt lat="41.98058796223869" lon="12.65516924286816"><ele>48.0</ele><time>2026-04-12T08:52:37.999Z</time></trkpt><trkpt lat="41.98065122685917" lon="12.655247020601314"><ele>48.0</ele><time>2026-04-12T08:52:38.999Z</time></trkpt><trkpt lat="41.98071328949899" lon="12.655323075955252"><ele>48.0</ele><time>2026-04-12T08:52:39.999Z</time></trkpt><trkpt lat="41.980778349630796" lon="12.655396259272052"><ele>48.0</ele><time>2026-04-12T08:52:40.999Z</time></trkpt><trkpt lat="41.98084440854201" lon="12.655470656207164"><ele>49.333333333333336</ele><time>2026-04-12T08:52:41.999Z</time></trkpt><trkpt lat="41.980910521255886" lon="12.655546174297074"><ele>50.66666666666667</ele><time>2026-04-12T08:52:42.999Z</time></trkpt><trkpt lat="41.980973953051866" lon="12.655622188193844"><ele>52.0</ele><time>2026-04-12T08:52:43.999Z</time></trkpt><trkpt lat="41.98103932257357" lon="12.655700619424051"><ele>53.333333333333336</ele><time>2026-04-12T08:52:44.999Z</time></trkpt><trkpt lat="41.98110483894891" lon="12.655779948853189"><ele>54.66666666666667</ele><time>2026-04-12T08:52:45.999Z</time></trkpt><trkpt lat="41.98117286303749" lon="12.655860110492716"><ele>56.0</ele><time>2026-04-12T08:52:46.999Z</time></trkpt><trkpt lat="41.981242065135895" lon="12.655938425720771"><ele>56.00000000000001</ele><time>2026-04-12T08:52:47.999Z</time></trkpt><trkpt lat="41.98131120822773" lon="12.656016470838605"><ele>56.0</ele><time>2026-04-12T08:52:48.999Z</time></trkpt><trkpt lat="41.98138301008306" lon="12.656092291507912"><ele>56.0</ele><time>2026-04-12T08:52:49.999Z</time></trkpt><trkpt lat="41.98145490910823" lon="12.656163737143531"><ele>56.0</ele><time>2026-04-12T08:52:50.999Z</time></trkpt><trkpt lat="41.98152689449373" lon="12.656234664022142"><ele>56.00000000000001</ele><time>2026-04-12T08:52:51.999Z</time></trkpt><trkpt lat="41.98159914976957" lon="12.656302454093876"><ele>56.0</ele><time>2026-04-12T08:52:52.999Z</time></trkpt><trkpt lat="41.98166243804682" lon="12.656384640282553"><ele>56.66666666666667</ele><time>2026-04-12T08:52:53.999Z</time></trkpt><trkpt lat="41.98173217967561" lon="12.656451671764353"><ele>57.333333333333336</ele><time>2026-04-12T08:52:54.999Z</time></trkpt><trkpt lat="41.98180186756323" lon="12.65651745192105"><ele>58.0</ele><time>2026-04-12T08:52:55.999Z</time></trkpt><trkpt lat="41.98186962678751" lon="12.65658141235535"><ele>58.66666666666667</ele><time>2026-04-12T08:52:56.999Z</time></trkpt><trkpt lat="41.981946936043656" lon="12.656626466041745"><ele>59.333333333333336</ele><time>2026-04-12T08:52:57.999Z</time></trkpt><trkpt lat="41.982012485459165" lon="12.656687878465204"><ele>60.0</ele><time>2026-04-12T08:52:58.999Z</time></trkpt><trkpt lat="41.982067581286174" lon="12.656766574240804"><ele>60.0</ele><time>2026-04-12T08:52:59.999Z</time></trkpt><trkpt lat="41.982130394283885" lon="12.656825378819526"><ele>60.0</ele><time>2026-04-12T08:53:00.999Z</time></trkpt><trkpt lat="41.98218737637327" lon="12.65687613040595"><ele>60.0</ele><time>2026-04-12T08:53:01.999Z</time></trkpt><trkpt lat="41.98229042660894" lon="12.656948126690812"><ele>60.0</ele><time>2026-04-12T08:53:03.999Z</time></trkpt><trkpt lat="41.982381038675555" lon="12.657024906370795"><ele>60.0</ele><time>2026-04-12T08:53:05.999Z</time></trkpt><trkpt lat="41.982428987568014" lon="12.657098630473737"><ele>60.0</ele><time>2026-04-12T08:53:08.999Z</time></trkpt><trkpt lat="41.98237021660013" lon="12.657056650817797"><ele>60.0</ele><time>2026-04-12T08:54:44.999Z</time></trkpt><trkpt lat="41.98238348253022" lon="12.656932402264585"><ele>60.0</ele><time>2026-04-12T08:55:04.999Z</time></trkpt><trkpt lat="41.982401342733496" lon="12.656824138061827"><ele>60.0</ele><time>2026-04-12T08:55:08.999Z</time></trkpt><trkpt lat="41.9824235287723" lon="12.657079805924866"><ele>60.0</ele><time>2026-04-12T08:55:52.447Z</time></trkpt><trkpt lat="41.982391786224426" lon="12.656994621823184"><ele>60.0</ele><time>2026-04-12T08:57:23.022Z</time></trkpt><trkpt lat="41.982421654923236" lon="12.657077448886552"><ele>59.166666666666664</ele><time>2026-04-12T09:01:47Z</time></trkpt><trkpt lat="41.98249294382254" lon="12.657133317466217"><ele>58.33333333333333</ele><time>2026-04-12T09:05:37.999Z</time></trkpt><trkpt lat="41.982559151338215" lon="12.657182865749679"><ele>57.5</ele><time>2026-04-12T09:05:39.999Z</time></trkpt><trkpt lat="41.982628432181876" lon="12.65724658028368"><ele>56.666666666666664</ele><time>2026-04-12T09:05:41.998Z</time></trkpt><trkpt lat="41.982701806321906" lon="12.657304612109668"><ele>55.83333333333333</ele><time>2026-04-12T09:05:43.998Z</time></trkpt><trkpt lat="41.98278397771913" lon="12.65738112746031"><ele>55.0</ele><time>2026-04-12T09:05:45.998Z</time></trkpt><trkpt lat="41.98288821700703" lon="12.657469476402394"><ele>54.99999999999999</ele><time>2026-04-12T09:05:47.998Z</time></trkpt><trkpt lat="41.98294327693171" lon="12.657519419604618"><ele>55.0</ele><time>2026-04-12T09:05:48.998Z</time></trkpt><trkpt lat="41.98299809897369" lon="12.657567041034332"><ele>55.0</ele><time>2026-04-12T09:05:49.998Z</time></trkpt><trkpt lat="41.98305642379407" lon="12.657612032290613"><ele>55.0</ele><time>2026-04-12T09:05:50.998Z</time></trkpt><trkpt lat="41.9831231749343" lon="12.657663439309967"><ele>55.0</ele><time>2026-04-12T09:05:51.998Z</time></trkpt><trkpt lat="41.98318285628958" lon="12.657732994344537"><ele>54.99999999999999</ele><time>2026-04-12T09:05:52.998Z</time></trkpt><trkpt lat="41.98325272642869" lon="12.657780140014697"><ele>55.0</ele><time>2026-04-12T09:05:53.998Z</time></trkpt><trkpt lat="41.98333419104127" lon="12.657802108633597"><ele>54.166666666666664</ele><time>2026-04-12T09:05:54.998Z</time></trkpt><trkpt lat="41.98340984907357" lon="12.657842813744592"><ele>53.33333333333333</ele><time>2026-04-12T09:05:55.998Z</time></trkpt><trkpt lat="41.983485682818994" lon="12.65787926471187"><ele>52.5</ele><time>2026-04-12T09:05:56.998Z</time></trkpt><trkpt lat="41.98356248663136" lon="12.657908517359669"><ele>51.66666666666667</ele><time>2026-04-12T09:05:58Z</time></trkpt><trkpt lat="41.9836395041719" lon="12.657936117444784"><ele>50.833333333333336</ele><time>2026-04-12T09:05:59Z</time></trkpt><trkpt lat="41.98372087009483" lon="12.65796519873823"><ele>50.0</ele><time>2026-04-12T09:06:00Z</time></trkpt><trkpt lat="41.983805202550215" lon="12.657998035840798"><ele>50.00000000000001</ele><time>2026-04-12T09:06:01Z</time></trkpt><trkpt lat="41.98388855546189" lon="12.658033504816208"><ele>50.0</ele><time>2026-04-12T09:06:02Z</time></trkpt><trkpt lat="41.98397143786699" lon="12.658073154771621"><ele>50.0</ele><time>2026-04-12T09:06:03Z</time></trkpt><trkpt lat="41.984047397821314" lon="12.658107417183253"><ele>50.0</ele><time>2026-04-12T09:06:04Z</time></trkpt><trkpt lat="41.98413001584897" lon="12.658139041925327"><ele>50.00000000000001</ele><time>2026-04-12T09:06:05Z</time></trkpt><trkpt lat="41.98421059100465" lon="12.658200965918669"><ele>50.0</ele><time>2026-04-12T09:06:06Z</time></trkpt><trkpt lat="41.98429826368181" lon="12.658247722497922"><ele>50.333333333333336</ele><time>2026-04-12T09:06:07Z</time></trkpt><trkpt lat="41.98438965202792" lon="12.658276798991398"><ele>50.66666666666667</ele><time>2026-04-12T09:06:08Z</time></trkpt><trkpt lat="41.98446912715312" lon="12.658320241827026"><ele>51.0</ele><time>2026-04-12T09:06:09Z</time></trkpt><trkpt lat="41.984545218347165" lon="12.658357216019253"><ele>51.33333333333333</ele><time>2026-04-12T09:06:10Z</time></trkpt><trkpt lat="41.984628828647026" lon="12.658399700616105"><ele>51.666666666666664</ele><time>2026-04-12T09:06:11Z</time></trkpt><trkpt lat="41.984716466462714" lon="12.65845071603752"><ele>52.0</ele><time>2026-04-12T09:06:12Z</time></trkpt><trkpt lat="41.984804455212206" lon="12.658500436720605"><ele>51.99999999999999</ele><time>2026-04-12T09:06:13Z</time></trkpt><trkpt lat="41.98488526937779" lon="12.658547930984344"><ele>52.0</ele><time>2026-04-12T09:06:14Z</time></trkpt><trkpt lat="41.98496889292315" lon="12.65859763626313"><ele>52.0</ele><time>2026-04-12T09:06:15Z</time></trkpt><trkpt lat="41.985049742328385" lon="12.65864971483368"><ele>52.0</ele><time>2026-04-12T09:06:16Z</time></trkpt><trkpt lat="41.985122820594825" lon="12.658699265189082"><ele>51.99999999999999</ele><time>2026-04-12T09:06:17Z</time></trkpt><trkpt lat="41.985192473777964" lon="12.658747686846231"><ele>52.0</ele><time>2026-04-12T09:06:18Z</time></trkpt><trkpt lat="41.98525855446162" lon="12.65879702151756"><ele>52.49999999999999</ele><time>2026-04-12T09:06:19Z</time></trkpt><trkpt lat="41.98532464810189" lon="12.658844992967214"><ele>53.0</ele><time>2026-04-12T09:06:20Z</time></trkpt><trkpt lat="41.985393937989194" lon="12.658896647475244"><ele>53.5</ele><time>2026-04-12T09:06:21Z</time></trkpt><trkpt lat="41.9854675658612" lon="12.658953514175879"><ele>54.0</ele><time>2026-04-12T09:06:22Z</time></trkpt><trkpt lat="41.985537326424726" lon="12.659010205803268"><ele>54.49999999999999</ele><time>2026-04-12T09:06:23Z</time></trkpt><trkpt lat="41.98560827086572" lon="12.659062671102287"><ele>55.0</ele><time>2026-04-12T09:06:24Z</time></trkpt><trkpt lat="41.98567727604722" lon="12.659110848879664"><ele>54.99999999999999</ele><time>2026-04-12T09:06:25Z</time></trkpt><trkpt lat="41.985750090082355" lon="12.659161596958832"><ele>55.0</ele><time>2026-04-12T09:06:26Z</time></trkpt><trkpt lat="41.98582472064485" lon="12.659212289772912"><ele>55.0</ele><time>2026-04-12T09:06:27Z</time></trkpt><trkpt lat="41.98590274416607" lon="12.65925817951298"><ele>55.0</ele><time>2026-04-12T09:06:28Z</time></trkpt><trkpt lat="41.98598360982713" lon="12.659298468920792"><ele>54.99999999999999</ele><time>2026-04-12T09:06:29Z</time></trkpt><trkpt lat="41.98606563105871" lon="12.659330240871292"><ele>55.0</ele><time>2026-04-12T09:06:30Z</time></trkpt><trkpt lat="41.98614825754714" lon="12.659353742552478"><ele>55.83333333333333</ele><time>2026-04-12T09:06:31Z</time></trkpt><trkpt lat="41.986235755163804" lon="12.659370574299706"><ele>56.666666666666664</ele><time>2026-04-12T09:06:32Z</time></trkpt><trkpt lat="41.98632400538436" lon="12.659379990740957"><ele>57.5</ele><time>2026-04-12T09:06:33Z</time></trkpt><trkpt lat="41.98640445753499" lon="12.659388127894896"><ele>58.33333333333333</ele><time>2026-04-12T09:06:34Z</time></trkpt><trkpt lat="41.98648059085573" lon="12.659395226391196"><ele>59.166666666666664</ele><time>2026-04-12T09:06:35Z</time></trkpt><trkpt lat="41.986558588972166" lon="12.659403229782626"><ele>60.0</ele><time>2026-04-12T09:06:36Z</time></trkpt><trkpt lat="41.98663841855812" lon="12.659413238834178"><ele>60.0</ele><time>2026-04-12T09:06:37Z</time></trkpt><trkpt lat="41.986720278269885" lon="12.659422345454681"><ele>60.0</ele><time>2026-04-12T09:06:38Z</time></trkpt><trkpt lat="41.98679927076278" lon="12.659428343647514"><ele>60.0</ele><time>2026-04-12T09:06:39Z</time></trkpt><trkpt lat="41.98687365392506" lon="12.659435807302136"><ele>60.0</ele><time>2026-04-12T09:06:40Z</time></trkpt><trkpt lat="41.98694128922148" lon="12.659444981998478"><ele>60.0</ele><time>2026-04-12T09:06:41Z</time></trkpt><trkpt lat="41.98706038107658" lon="12.659461724803881"><ele>60.0</ele><time>2026-04-12T09:06:43Z</time></trkpt><trkpt lat="41.98715951200169" lon="12.659474956836572"><ele>59.333333333333336</ele><time>2026-04-12T09:06:45Z</time></trkpt><trkpt lat="41.987241969966384" lon="12.65948409853276"><ele>58.66666666666667</ele><time>2026-04-12T09:06:47Z</time></trkpt><trkpt lat="41.98731701492409" lon="12.659502116600232"><ele>58.0</ele><time>2026-04-12T09:06:49Z</time></trkpt><trkpt lat="41.9874051343027" lon="12.659528480297485"><ele>57.333333333333336</ele><time>2026-04-12T09:06:51Z</time></trkpt><trkpt lat="41.987507939949985" lon="12.659561041174095"><ele>56.66666666666667</ele><time>2026-04-12T09:06:53Z</time></trkpt><trkpt lat="41.98757092673469" lon="12.659583240457733"><ele>56.0</ele><time>2026-04-12T09:06:53.999Z</time></trkpt><trkpt lat="41.9876411083995" lon="12.6596113288321"><ele>56.00000000000001</ele><time>2026-04-12T09:06:54.999Z</time></trkpt><trkpt lat="41.98771470003576" lon="12.659645390317204"><ele>56.0</ele><time>2026-04-12T09:06:55.999Z</time></trkpt><trkpt lat="41.987791383888435" lon="12.65969013646562"><ele>56.0</ele><time>2026-04-12T09:06:56.999Z</time></trkpt><trkpt lat="41.98786511587494" lon="12.65973538483067"><ele>56.0</ele><time>2026-04-12T09:06:57.999Z</time></trkpt><trkpt lat="41.98793839332802" lon="12.659780665454727"><ele>56.00000000000001</ele><time>2026-04-12T09:06:58.999Z</time></trkpt><trkpt lat="41.988011625400276" lon="12.659826053323599"><ele>56.0</ele><time>2026-04-12T09:06:59.999Z</time></trkpt><trkpt lat="41.98808647552565" lon="12.659874222126655"><ele>56.0</ele><time>2026-04-12T09:07:00.999Z</time></trkpt><trkpt lat="41.98816367442141" lon="12.659931532158417"><ele>55.99999999999999</ele><time>2026-04-12T09:07:01.999Z</time></trkpt><trkpt lat="41.98824259300094" lon="12.659991378455338"><ele>55.99999999999999</ele><time>2026-04-12T09:07:02.999Z</time></trkpt><trkpt lat="41.98831942784889" lon="12.660051670478888"><ele>56.0</ele><time>2026-04-12T09:07:03.999Z</time></trkpt><trkpt lat="41.988398771839236" lon="12.660112586244283"><ele>56.0</ele><time>2026-04-12T09:07:04.999Z</time></trkpt><trkpt lat="41.98848104122577" lon="12.660176203289513"><ele>55.8</ele><time>2026-04-12T09:07:05.999Z</time></trkpt><trkpt lat="41.988566027556374" lon="12.660242769476001"><ele>55.599999999999994</ele><time>2026-04-12T09:07:06.999Z</time></trkpt><trkpt lat="41.98865157297367" lon="12.660310992069652"><ele>55.4</ele><time>2026-04-12T09:07:07.999Z</time></trkpt><trkpt lat="41.98873641566086" lon="12.660377232376447"><ele>55.2</ele><time>2026-04-12T09:07:08.999Z</time></trkpt><trkpt lat="41.98882068426475" lon="12.66044114121209"><ele>55.0</ele><time>2026-04-12T09:07:09.999Z</time></trkpt><trkpt lat="41.98890515716311" lon="12.660507465513275"><ele>55.0</ele><time>2026-04-12T09:07:10.999Z</time></trkpt><trkpt lat="41.98898649494557" lon="12.660574970060965"><ele>55.0</ele><time>2026-04-12T09:07:11.999Z</time></trkpt><trkpt lat="41.98906341936477" lon="12.660638316708049"><ele>55.0</ele><time>2026-04-12T09:07:12.999Z</time></trkpt><trkpt lat="41.98914435269048" lon="12.660701753834298"><ele>55.0</ele><time>2026-04-12T09:07:13.999Z</time></trkpt><trkpt lat="41.989222386558296" lon="12.660764518744273"><ele>55.0</ele><time>2026-04-12T09:07:14.999Z</time></trkpt><trkpt lat="41.9892997182532" lon="12.660824337031068"><ele>55.166666666666664</ele><time>2026-04-12T09:07:15.999Z</time></trkpt><trkpt lat="41.98937670021449" lon="12.66088371072468"><ele>55.33333333333333</ele><time>2026-04-12T09:07:16.999Z</time></trkpt><trkpt lat="41.989453587274724" lon="12.660940301585445"><ele>55.5</ele><time>2026-04-12T09:07:17.999Z</time></trkpt><trkpt lat="41.98953120748148" lon="12.660999221969245"><ele>55.66666666666667</ele><time>2026-04-12T09:07:18.999Z</time></trkpt><trkpt lat="41.98960946146186" lon="12.661060102524788"><ele>55.833333333333336</ele><time>2026-04-12T09:07:19.999Z</time></trkpt><trkpt lat="41.989688726571075" lon="12.661123036190876"><ele>56.0</ele><time>2026-04-12T09:07:20.999Z</time></trkpt><trkpt lat="41.989769903500815" lon="12.661187792918662"><ele>56.0</ele><time>2026-04-12T09:07:21.999Z</time></trkpt><trkpt lat="41.98985165724859" lon="12.661251830280467"><ele>55.99999999999999</ele><time>2026-04-12T09:07:22.999Z</time></trkpt><trkpt lat="41.98993321866049" lon="12.66131532988309"><ele>55.99999999999999</ele><time>2026-04-12T09:07:23.999Z</time></trkpt><trkpt lat="41.9900145078541" lon="12.661380232163843"><ele>56.0</ele><time>2026-04-12T09:07:24.999Z</time></trkpt><trkpt lat="41.99009592841066" lon="12.661446000222952"><ele>56.0</ele><time>2026-04-12T09:07:25.999Z</time></trkpt><trkpt lat="41.990178226635656" lon="12.661510251897088"><ele>56.8</ele><time>2026-04-12T09:07:26.999Z</time></trkpt><trkpt lat="41.9902586873399" lon="12.66157245602849"><ele>57.599999999999994</ele><time>2026-04-12T09:07:27.999Z</time></trkpt><trkpt lat="41.99033938605823" lon="12.661637324147291"><ele>58.4</ele><time>2026-04-12T09:07:28.999Z</time></trkpt><trkpt lat="41.990422164226295" lon="12.661702934685392"><ele>59.2</ele><time>2026-04-12T09:07:29.999Z</time></trkpt><trkpt lat="41.9905054053605" lon="12.661768448434737"><ele>60.0</ele><time>2026-04-12T09:07:30.999Z</time></trkpt><trkpt lat="41.99058787082263" lon="12.661833484612506"><ele>60.0</ele><time>2026-04-12T09:07:31.999Z</time></trkpt><trkpt lat="41.99066991132817" lon="12.66189686913827"><ele>60.0</ele><time>2026-04-12T09:07:32.999Z</time></trkpt><trkpt lat="41.990751165600926" lon="12.661960102655028"><ele>60.0</ele><time>2026-04-12T09:07:33.999Z</time></trkpt><trkpt lat="41.99083409626229" lon="12.662024819364543"><ele>60.0</ele><time>2026-04-12T09:07:34.999Z</time></trkpt><trkpt lat="41.990912531968654" lon="12.662087664302993"><ele>60.0</ele><time>2026-04-12T09:07:35.999Z</time></trkpt><trkpt lat="41.99098849430146" lon="12.662145029680675"><ele>60.166666666666664</ele><time>2026-04-12T09:07:36.999Z</time></trkpt><trkpt lat="41.991059705102664" lon="12.662198276928127"><ele>60.33333333333333</ele><time>2026-04-12T09:07:37.999Z</time></trkpt><trkpt lat="41.99112437607814" lon="12.662248339307041"><ele>60.5</ele><time>2026-04-12T09:07:38.999Z</time></trkpt><trkpt lat="41.991183056305445" lon="12.662294570404118"><ele>60.666666666666664</ele><time>2026-04-12T09:07:39.999Z</time></trkpt><trkpt lat="41.99123779121049" lon="12.662339302342797"><ele>60.83333333333333</ele><time>2026-04-12T09:07:40.999Z</time></trkpt><trkpt lat="41.99133894187848" lon="12.662422068154331"><ele>61.0</ele><time>2026-04-12T09:07:42.999Z</time></trkpt><trkpt lat="41.99139459417938" lon="12.662463481846252"><ele>60.99999999999999</ele><time>2026-04-12T09:07:43.999Z</time></trkpt><trkpt lat="41.99145277247515" lon="12.66250466324092"><ele>61.0</ele><time>2026-04-12T09:07:44.999Z</time></trkpt><trkpt lat="41.99151080270223" lon="12.662548099202906"><ele>60.99999999999999</ele><time>2026-04-12T09:07:45.999Z</time></trkpt><trkpt lat="41.99156945857617" lon="12.662594735279686"><ele>60.99999999999999</ele><time>2026-04-12T09:07:46.999Z</time></trkpt><trkpt lat="41.99162879311122" lon="12.662641093307688"><ele>61.0</ele><time>2026-04-12T09:07:47.998Z</time></trkpt><trkpt lat="41.991688986783586" lon="12.662687673087177"><ele>60.99999999999999</ele><time>2026-04-12T09:07:48.998Z</time></trkpt><trkpt lat="41.991750026445736" lon="12.662735714264171"><ele>60.99999999999999</ele><time>2026-04-12T09:07:49.998Z</time></trkpt><trkpt lat="41.991810675962554" lon="12.662784664494493"><ele>60.99999999999999</ele><time>2026-04-12T09:07:50.998Z</time></trkpt><trkpt lat="41.99187097798685" lon="12.662833696104258"><ele>61.0</ele><time>2026-04-12T09:07:51.998Z</time></trkpt><trkpt lat="41.9919326911021" lon="12.662877960915873"><ele>61.0</ele><time>2026-04-12T09:07:52.998Z</time></trkpt><trkpt lat="41.9919973544505" lon="12.662922007533293"><ele>61.0</ele><time>2026-04-12T09:07:53.998Z</time></trkpt><trkpt lat="41.99206511434036" lon="12.662973461464299"><ele>60.99999999999999</ele><time>2026-04-12T09:07:54.998Z</time></trkpt><trkpt lat="41.99213753462244" lon="12.663029068594401"><ele>61.0</ele><time>2026-04-12T09:07:55.998Z</time></trkpt><trkpt lat="41.9922127312109" lon="12.663088711786836"><ele>60.99999999999999</ele><time>2026-04-12T09:07:56.998Z</time></trkpt><trkpt lat="41.992285348275814" lon="12.663147234400494"><ele>61.0</ele><time>2026-04-12T09:07:57.998Z</time></trkpt><trkpt lat="41.992359623440706" lon="12.663205108142474"><ele>61.0</ele><time>2026-04-12T09:07:58.998Z</time></trkpt><trkpt lat="41.99243630140711" lon="12.663264542611918"><ele>61.0</ele><time>2026-04-12T09:07:59.998Z</time></trkpt><trkpt lat="41.99251317249532" lon="12.663325018937277"><ele>60.99999999999999</ele><time>2026-04-12T09:08:00.998Z</time></trkpt><trkpt lat="41.99259040181185" lon="12.66338572756583"><ele>61.0</ele><time>2026-04-12T09:08:01.998Z</time></trkpt><trkpt lat="41.99266904854383" lon="12.663445691669327"><ele>60.99999999999999</ele><time>2026-04-12T09:08:02.998Z</time></trkpt><trkpt lat="41.99274942188004" lon="12.663505623426856"><ele>61.0</ele><time>2026-04-12T09:08:04Z</time></trkpt><trkpt lat="41.99282714589167" lon="12.663564432241113"><ele>61.0</ele><time>2026-04-12T09:08:05Z</time></trkpt><trkpt lat="41.992898593867956" lon="12.663622269948977"><ele>61.0</ele><time>2026-04-12T09:08:06Z</time></trkpt><trkpt lat="41.9929694938282" lon="12.663677178735567"><ele>60.99999999999999</ele><time>2026-04-12T09:08:07Z</time></trkpt><trkpt lat="41.993043298054126" lon="12.663735682023738"><ele>61.0</ele><time>2026-04-12T09:08:08Z</time></trkpt><trkpt lat="41.993116954843046" lon="12.663793852180234"><ele>60.99999999999999</ele><time>2026-04-12T09:08:09Z</time></trkpt><trkpt lat="41.99318894157437" lon="12.663850262464825"><ele>61.0</ele><time>2026-04-12T09:08:10Z</time></trkpt><trkpt lat="41.99325996864526" lon="12.663905471766034"><ele>61.0</ele><time>2026-04-12T09:08:11Z</time></trkpt><trkpt lat="41.99333307299093" lon="12.663958839172434"><ele>61.0</ele><time>2026-04-12T09:08:12Z</time></trkpt><trkpt lat="41.99340766836176" lon="12.66401447088445"><ele>60.99999999999999</ele><time>2026-04-12T09:08:13Z</time></trkpt><trkpt lat="41.9934835066488" lon="12.66407006256594"><ele>61.0</ele><time>2026-04-12T09:08:14Z</time></trkpt><trkpt lat="41.99355865580155" lon="12.664130763958076"><ele>61.166666666666664</ele><time>2026-04-12T09:08:15Z</time></trkpt><trkpt lat="41.99363495819639" lon="12.664187156135052"><ele>61.33333333333333</ele><time>2026-04-12T09:08:16Z</time></trkpt><trkpt lat="41.99370744962941" lon="12.664243123153451"><ele>61.5</ele><time>2026-04-12T09:08:17Z</time></trkpt><trkpt lat="41.99377578241828" lon="12.664300168416881"><ele>61.66666666666667</ele><time>2026-04-12T09:08:18Z</time></trkpt><trkpt lat="41.99383409750043" lon="12.664346232654614"><ele>61.833333333333336</ele><time>2026-04-12T09:08:19Z</time></trkpt><trkpt lat="41.99393354676691" lon="12.66441925425306"><ele>62.0</ele><time>2026-04-12T09:08:21Z</time></trkpt><trkpt lat="41.99403242849404" lon="12.664488431791135"><ele>62.0</ele><time>2026-04-12T09:08:23Z</time></trkpt><trkpt lat="41.994111799096096" lon="12.664553635555627"><ele>62.0</ele><time>2026-04-12T09:08:25Z</time></trkpt><trkpt lat="41.994171103336555" lon="12.664612064521076"><ele>62.0</ele><time>2026-04-12T09:08:27Z</time></trkpt><trkpt lat="41.994140339187176" lon="12.664454916818416"><ele>62.0</ele><time>2026-04-12T09:08:33Z</time></trkpt><trkpt lat="41.99408071927339" lon="12.664484832407824"><ele>62.0</ele><time>2026-04-12T09:08:56Z</time></trkpt><trkpt lat="41.993982665507176" lon="12.66442514382554"><ele>62.50000000000001</ele><time>2026-04-12T09:08:58.999Z</time></trkpt><trkpt lat="41.993878920950095" lon="12.66434066485713"><ele>63.0</ele><time>2026-04-12T09:09:00.999Z</time></trkpt><trkpt lat="41.99382380780664" lon="12.664298247943082"><ele>63.5</ele><time>2026-04-12T09:09:01.999Z</time></trkpt><trkpt lat="41.993771131593846" lon="12.664251459791483"><ele>64.0</ele><time>2026-04-12T09:09:02.999Z</time></trkpt><trkpt lat="41.99367910894612" lon="12.664177681554264"><ele>64.5</ele><time>2026-04-12T09:09:04.999Z</time></trkpt><trkpt lat="41.99361667709035" lon="12.66410878803282"><ele>65.0</ele><time>2026-04-12T09:09:06.999Z</time></trkpt><trkpt lat="41.99370637072428" lon="12.664194403799783"><ele>65.0</ele><time>2026-04-12T09:14:47Z</time></trkpt><trkpt lat="41.99381165519098" lon="12.66428998497611"><ele>65.0</ele><time>2026-04-12T09:14:49Z</time></trkpt><trkpt lat="41.99387426636196" lon="12.664338231262525"><ele>65.0</ele><time>2026-04-12T09:14:50Z</time></trkpt><trkpt lat="41.993978402524334" lon="12.66442113481161"><ele>65.0</ele><time>2026-04-12T09:14:51Z</time></trkpt><trkpt lat="41.99404361148276" lon="12.66451392447878"><ele>65.0</ele><time>2026-04-12T09:14:52Z</time></trkpt><trkpt lat="41.99410946166816" lon="12.664564614283991"><ele>64.4</ele><time>2026-04-12T09:14:53Z</time></trkpt><trkpt lat="41.994176497466256" lon="12.66461621120766"><ele>63.8</ele><time>2026-04-12T09:14:54Z</time></trkpt><trkpt lat="41.99425150164843" lon="12.664673728558418"><ele>63.2</ele><time>2026-04-12T09:14:55Z</time></trkpt><trkpt lat="41.994336905235805" lon="12.664739220560568"><ele>62.6</ele><time>2026-04-12T09:14:56Z</time></trkpt><trkpt lat="41.99442651622327" lon="12.664807939092496"><ele>62.0</ele><time>2026-04-12T09:14:57Z</time></trkpt><trkpt lat="41.99452640325456" lon="12.664860419645"><ele>62.0</ele><time>2026-04-12T09:14:58Z</time></trkpt><trkpt lat="41.99461709984639" lon="12.664930383709757"><ele>62.0</ele><time>2026-04-12T09:14:59Z</time></trkpt><trkpt lat="41.994703076930456" lon="12.664998784497245"><ele>62.0</ele><time>2026-04-12T09:15:00Z</time></trkpt><trkpt lat="41.9947877585876" lon="12.665063919450121"><ele>62.0</ele><time>2026-04-12T09:15:01Z</time></trkpt><trkpt lat="41.99486300597214" lon="12.665120349628545"><ele>62.0</ele><time>2026-04-12T09:15:02Z</time></trkpt><trkpt lat="41.994928498815774" lon="12.665170659103367"><ele>62.0</ele><time>2026-04-12T09:15:03Z</time></trkpt><trkpt lat="41.99498629009095" lon="12.66521690320395"><ele>62.0</ele><time>2026-04-12T09:15:04Z</time></trkpt><trkpt lat="41.99509280193866" lon="12.665297321934418"><ele>62.0</ele><time>2026-04-12T09:15:06Z</time></trkpt><trkpt lat="41.995188663748465" lon="12.665378409541313"><ele>62.0</ele><time>2026-04-12T09:15:08Z</time></trkpt><trkpt lat="41.99528088239025" lon="12.66544324505376"><ele>62.0</ele><time>2026-04-12T09:15:10Z</time></trkpt><trkpt lat="41.99536472067039" lon="12.665506947166767"><ele>62.0</ele><time>2026-04-12T09:15:12Z</time></trkpt><trkpt lat="41.995445007872206" lon="12.665562769996829"><ele>62.0</ele><time>2026-04-12T09:15:14Z</time></trkpt><trkpt lat="41.99552193459824" lon="12.665645072938513"><ele>62.0</ele><time>2026-04-12T09:15:17Z</time></trkpt><trkpt lat="41.99560445384413" lon="12.665690838726013"><ele>62.0</ele><time>2026-04-12T09:15:18.999Z</time></trkpt><trkpt lat="41.99569300983324" lon="12.665769847493628"><ele>62.0</ele><time>2026-04-12T09:15:20.999Z</time></trkpt><trkpt lat="41.99580046192763" lon="12.66585464020509"><ele>62.333333333333336</ele><time>2026-04-12T09:15:22.999Z</time></trkpt><trkpt lat="41.995860511365784" lon="12.665899182932817"><ele>62.66666666666667</ele><time>2026-04-12T09:15:23.999Z</time></trkpt><trkpt lat="41.99592931018469" lon="12.665950231826406"><ele>63.0</ele><time>2026-04-12T09:15:24.999Z</time></trkpt><trkpt lat="41.9959991706717" lon="12.666004948902001"><ele>63.33333333333333</ele><time>2026-04-12T09:15:25.999Z</time></trkpt><trkpt lat="41.99606663400354" lon="12.666058256907174"><ele>63.666666666666664</ele><time>2026-04-12T09:15:26.999Z</time></trkpt><trkpt lat="41.99613510562524" lon="12.666110389929942"><ele>64.0</ele><time>2026-04-12T09:15:27.999Z</time></trkpt><trkpt lat="41.99620296077193" lon="12.666159842857406"><ele>63.99999999999999</ele><time>2026-04-12T09:15:28.999Z</time></trkpt><trkpt lat="41.99626767801538" lon="12.666208846329935"><ele>64.0</ele><time>2026-04-12T09:15:29.999Z</time></trkpt><trkpt lat="41.996334684082704" lon="12.666261432726081"><ele>64.0</ele><time>2026-04-12T09:15:30.999Z</time></trkpt><trkpt lat="41.996401344771826" lon="12.666313535640532"><ele>64.0</ele><time>2026-04-12T09:15:31.999Z</time></trkpt><trkpt lat="41.99646700260256" lon="12.666365938988239"><ele>63.99999999999999</ele><time>2026-04-12T09:15:32.999Z</time></trkpt><trkpt lat="41.99653382166535" lon="12.666416353479487"><ele>64.0</ele><time>2026-04-12T09:15:33.999Z</time></trkpt><trkpt lat="41.99660083174371" lon="12.6664654653148"><ele>64.33333333333333</ele><time>2026-04-12T09:15:34.999Z</time></trkpt><trkpt lat="41.996670620582776" lon="12.666519135725032"><ele>64.66666666666666</ele><time>2026-04-12T09:15:35.999Z</time></trkpt><trkpt lat="41.99674706367191" lon="12.666578956938176"><ele>65.0</ele><time>2026-04-12T09:15:36.999Z</time></trkpt><trkpt lat="41.99682746441079" lon="12.66664092558344"><ele>65.33333333333333</ele><time>2026-04-12T09:15:37.999Z</time></trkpt><trkpt lat="41.99690676560007" lon="12.666705734422555"><ele>65.66666666666667</ele><time>2026-04-12T09:15:38.999Z</time></trkpt><trkpt lat="41.996986154755895" lon="12.666770674886612"><ele>66.0</ele><time>2026-04-12T09:15:39.999Z</time></trkpt><trkpt lat="41.997065683989476" lon="12.666828751020216"><ele>66.0</ele><time>2026-04-12T09:15:40.999Z</time></trkpt><trkpt lat="41.99722223868896" lon="12.666931085416044"><ele>66.0</ele><time>2026-04-12T09:15:42.999Z</time></trkpt><trkpt lat="41.99730319931769" lon="12.666971903856844"><ele>66.0</ele><time>2026-04-12T09:15:43.999Z</time></trkpt><trkpt lat="41.997397816389196" lon="12.667018438677612"><ele>66.0</ele><time>2026-04-12T09:15:44.999Z</time></trkpt><trkpt lat="41.99749498731109" lon="12.66707313185608"><ele>65.25</ele><time>2026-04-12T09:15:45.999Z</time></trkpt><trkpt lat="41.99759648275122" lon="12.667125174748389"><ele>64.5</ele><time>2026-04-12T09:15:46.999Z</time></trkpt><trkpt lat="41.997703683622994" lon="12.66717916734588"><ele>63.75</ele><time>2026-04-12T09:15:47.999Z</time></trkpt><trkpt lat="41.99781399993748" lon="12.667232489425293"><ele>63.0</ele><time>2026-04-12T09:15:48.999Z</time></trkpt><trkpt lat="41.997923628251094" lon="12.667285602349073"><ele>63.0</ele><time>2026-04-12T09:15:49.999Z</time></trkpt><trkpt lat="41.998029162385855" lon="12.66733575593516"><ele>63.0</ele><time>2026-04-12T09:15:50.999Z</time></trkpt><trkpt lat="41.998133292356364" lon="12.667386075668619"><ele>63.0</ele><time>2026-04-12T09:15:51.999Z</time></trkpt><trkpt lat="41.99823757877523" lon="12.66743892605543"><ele>63.0</ele><time>2026-04-12T09:15:52.999Z</time></trkpt><trkpt lat="41.99834172096888" lon="12.667493555106589"><ele>63.0</ele><time>2026-04-12T09:15:53.999Z</time></trkpt><trkpt lat="41.99844769866039" lon="12.667549202081123"><ele>63.0</ele><time>2026-04-12T09:15:54.999Z</time></trkpt><trkpt lat="41.99855249773681" lon="12.667607221540727"><ele>63.0</ele><time>2026-04-12T09:15:55.999Z</time></trkpt><trkpt lat="41.99865701203975" lon="12.667663973390026"><ele>63.0</ele><time>2026-04-12T09:15:56.999Z</time></trkpt><trkpt lat="41.99876009451586" lon="12.667719205430695"><ele>63.0</ele><time>2026-04-12T09:15:57.999Z</time></trkpt><trkpt lat="41.998859682800926" lon="12.667771880893925"><ele>63.0</ele><time>2026-04-12T09:15:58.999Z</time></trkpt><trkpt lat="41.99895216972255" lon="12.667817624986993"><ele>63.0</ele><time>2026-04-12T09:15:59.999Z</time></trkpt><trkpt lat="41.99903551153214" lon="12.667858721212307"><ele>63.0</ele><time>2026-04-12T09:16:00.999Z</time></trkpt><trkpt lat="41.9991081583684" lon="12.66789432047289"><ele>63.0</ele><time>2026-04-12T09:16:01.999Z</time></trkpt><trkpt lat="41.99921195795508" lon="12.667950175737486"><ele>63.0</ele><time>2026-04-12T09:16:03.999Z</time></trkpt><trkpt lat="41.99934584230751" lon="12.668024871208765"><ele>63.0</ele><time>2026-04-12T09:16:06.999Z</time></trkpt><trkpt lat="41.99944229941315" lon="12.66810669329561"><ele>62.833333333333336</ele><time>2026-04-12T09:16:08.999Z</time></trkpt><trkpt lat="41.999486075343476" lon="12.668168062903922"><ele>62.66666666666667</ele><time>2026-04-12T09:16:09.999Z</time></trkpt><trkpt lat="41.99953993402023" lon="12.668236399024108"><ele>62.5</ele><time>2026-04-12T09:16:10.999Z</time></trkpt><trkpt lat="41.99960172136105" lon="12.668309691765943"><ele>62.333333333333336</ele><time>2026-04-12T09:16:11.999Z</time></trkpt><trkpt lat="41.99967324443726" lon="12.6683823028071"><ele>62.16666666666667</ele><time>2026-04-12T09:16:12.998Z</time></trkpt><trkpt lat="41.99975567065241" lon="12.66845457272109"><ele>62.0</ele><time>2026-04-12T09:16:13.998Z</time></trkpt><trkpt lat="41.99984941907736" lon="12.668525477395741"><ele>62.0</ele><time>2026-04-12T09:16:14.998Z</time></trkpt><trkpt lat="41.999947217900456" lon="12.668594932259609"><ele>62.0</ele><time>2026-04-12T09:16:15.998Z</time></trkpt><trkpt lat="42.0000463793592" lon="12.66866155834749"><ele>62.0</ele><time>2026-04-12T09:16:16.998Z</time></trkpt><trkpt lat="42.000147205051015" lon="12.668731033706164"><ele>62.0</ele><time>2026-04-12T09:16:17.998Z</time></trkpt><trkpt lat="42.00024943698375" lon="12.668800811456578"><ele>62.0</ele><time>2026-04-12T09:16:18.998Z</time></trkpt><trkpt lat="42.0003487443781" lon="12.668874293550688"><ele>62.25</ele><time>2026-04-12T09:16:19.998Z</time></trkpt><trkpt lat="42.00044907730575" lon="12.66895660525015"><ele>62.5</ele><time>2026-04-12T09:16:20.998Z</time></trkpt><trkpt lat="42.00055059775387" lon="12.669046140206174"><ele>62.75</ele><time>2026-04-12T09:16:21.998Z</time></trkpt><trkpt lat="42.00065073730701" lon="12.669143179163882"><ele>63.0</ele><time>2026-04-12T09:16:22.998Z</time></trkpt><trkpt lat="42.00074988961507" lon="12.66924840140231"><ele>63.25</ele><time>2026-04-12T09:16:23.998Z</time></trkpt><trkpt lat="42.00084838535628" lon="12.669359046668133"><ele>63.5</ele><time>2026-04-12T09:16:24.998Z</time></trkpt><trkpt lat="42.0009457574348" lon="12.669475978800172"><ele>63.75</ele><time>2026-04-12T09:16:25.998Z</time></trkpt><trkpt lat="42.00104448340078" lon="12.669592584039846"><ele>64.0</ele><time>2026-04-12T09:16:26.998Z</time></trkpt><trkpt lat="42.00114498482838" lon="12.669711163831517"><ele>64.25</ele><time>2026-04-12T09:16:28Z</time></trkpt><trkpt lat="42.00124389982855" lon="12.66983295281504"><ele>64.5</ele><time>2026-04-12T09:16:29Z</time></trkpt><trkpt lat="42.00134342872926" lon="12.669953474553397"><ele>64.75</ele><time>2026-04-12T09:16:30Z</time></trkpt><trkpt lat="42.00144545783606" lon="12.670071236286212"><ele>65.0</ele><time>2026-04-12T09:16:31Z</time></trkpt><trkpt lat="42.00155042033826" lon="12.670189119740188"><ele>66.25</ele><time>2026-04-12T09:16:32Z</time></trkpt><trkpt lat="42.001657389782025" lon="12.670304276781305"><ele>67.5</ele><time>2026-04-12T09:16:33Z</time></trkpt><trkpt lat="42.00176842852811" lon="12.670419258796212"><ele>68.75</ele><time>2026-04-12T09:16:34Z</time></trkpt><trkpt lat="42.00187992444863" lon="12.670537209164545"><ele>70.0</ele><time>2026-04-12T09:16:35Z</time></trkpt><trkpt lat="42.00198851300076" lon="12.670656507086594"><ele>70.0</ele><time>2026-04-12T09:16:36Z</time></trkpt><trkpt lat="42.00209462774553" lon="12.670776533965123"><ele>70.0</ele><time>2026-04-12T09:16:37Z</time></trkpt><trkpt lat="42.00219366051487" lon="12.670892999645066"><ele>70.0</ele><time>2026-04-12T09:16:38Z</time></trkpt><trkpt lat="42.00228908746356" lon="12.671008219645813"><ele>70.0</ele><time>2026-04-12T09:16:39Z</time></trkpt><trkpt lat="42.002379960900285" lon="12.671117050497996"><ele>69.8</ele><time>2026-04-12T09:16:40Z</time></trkpt><trkpt lat="42.00247739002464" lon="12.671236599862791"><ele>69.6</ele><time>2026-04-12T09:16:41Z</time></trkpt><trkpt lat="42.002564498142846" lon="12.671329532879033"><ele>69.4</ele><time>2026-04-12T09:16:42Z</time></trkpt><trkpt lat="42.0026432064075" lon="12.671431162542259"><ele>69.2</ele><time>2026-04-12T09:16:43Z</time></trkpt><trkpt lat="42.00270800444941" lon="12.67152657911802"><ele>69.0</ele><time>2026-04-12T09:16:44Z</time></trkpt><trkpt lat="42.0027612631836" lon="12.671613319540842"><ele>69.0</ele><time>2026-04-12T09:16:45Z</time></trkpt><trkpt lat="42.00279500044106" lon="12.671706784403993"><ele>69.0</ele><time>2026-04-12T09:16:46Z</time></trkpt><trkpt lat="42.002800783493" lon="12.671799753961002"><ele>69.0</ele><time>2026-04-12T09:16:47Z</time></trkpt><trkpt lat="42.00295117366796" lon="12.671880717314412"><ele>69.0</ele><time>2026-04-12T09:16:49Z</time></trkpt><trkpt lat="42.00300598149913" lon="12.671950475447817"><ele>69.0</ele><time>2026-04-12T09:16:50Z</time></trkpt><trkpt lat="42.00305991688745" lon="12.67201912310674"><ele>68.8</ele><time>2026-04-12T09:16:51Z</time></trkpt><trkpt lat="42.00311412343396" lon="12.672103337228451"><ele>68.60000000000001</ele><time>2026-04-12T09:16:52Z</time></trkpt><trkpt lat="42.00319181803108" lon="12.672181161126261"><ele>68.4</ele><time>2026-04-12T09:16:53Z</time></trkpt><trkpt lat="42.003271028242295" lon="12.672276880937908"><ele>68.2</ele><time>2026-04-12T09:16:54Z</time></trkpt><trkpt lat="42.003353279923644" lon="12.672377488633572"><ele>68.0</ele><time>2026-04-12T09:16:55Z</time></trkpt><trkpt lat="42.003439436263385" lon="12.672484508377247"><ele>68.0</ele><time>2026-04-12T09:16:56Z</time></trkpt><trkpt lat="42.00353191593533" lon="12.672595524912328"><ele>68.0</ele><time>2026-04-12T09:16:57Z</time></trkpt><trkpt lat="42.00363645745165" lon="12.672694385326384"><ele>68.0</ele><time>2026-04-12T09:16:58Z</time></trkpt><trkpt lat="42.003747138079866" lon="12.672783789639611"><ele>68.0</ele><time>2026-04-12T09:16:59Z</time></trkpt><trkpt lat="42.00385728608234" lon="12.67287806091241"><ele>68.5</ele><time>2026-04-12T09:17:00Z</time></trkpt><trkpt lat="42.003970146983924" lon="12.672974411138545"><ele>69.0</ele><time>2026-04-12T09:17:01Z</time></trkpt><trkpt lat="42.00408600194773" lon="12.673067889472412"><ele>69.5</ele><time>2026-04-12T09:17:02Z</time></trkpt><trkpt lat="42.00419853129275" lon="12.673158356613746"><ele>70.0</ele><time>2026-04-12T09:17:03Z</time></trkpt><trkpt lat="42.00430572372929" lon="12.673243191697601"><ele>70.0</ele><time>2026-04-12T09:17:04Z</time></trkpt><trkpt lat="42.00441066156912" lon="12.673329077693435"><ele>70.0</ele><time>2026-04-12T09:17:05Z</time></trkpt><trkpt lat="42.00451740566713" lon="12.673421838209155"><ele>70.0</ele><time>2026-04-12T09:17:06Z</time></trkpt><trkpt lat="42.00462367590669" lon="12.673522974136324"><ele>70.0</ele><time>2026-04-12T09:17:07Z</time></trkpt><trkpt lat="42.004730796215306" lon="12.673629797589763"><ele>69.75</ele><time>2026-04-12T09:17:07.999Z</time></trkpt><trkpt lat="42.00484108104591" lon="12.673736172572955"><ele>69.5</ele><time>2026-04-12T09:17:08.999Z</time></trkpt><trkpt lat="42.00495042159715" lon="12.673848544900641"><ele>69.25</ele><time>2026-04-12T09:17:09.999Z</time></trkpt><trkpt lat="42.00505614893764" lon="12.673969620094404"><ele>69.0</ele><time>2026-04-12T09:17:10.999Z</time></trkpt><trkpt lat="42.00516075603936" lon="12.674093773882431"><ele>69.0</ele><time>2026-04-12T09:17:11.999Z</time></trkpt><trkpt lat="42.00526128333524" lon="12.674219666236496"><ele>69.0</ele><time>2026-04-12T09:17:12.999Z</time></trkpt><trkpt lat="42.00535416961292" lon="12.674338427412302"><ele>69.0</ele><time>2026-04-12T09:17:13.999Z</time></trkpt><trkpt lat="42.005440799758205" lon="12.674460385666602"><ele>69.0</ele><time>2026-04-12T09:17:14.999Z</time></trkpt><trkpt lat="42.00551856788389" lon="12.674591792891308"><ele>69.0</ele><time>2026-04-12T09:17:15.999Z</time></trkpt><trkpt lat="42.005584931485934" lon="12.674722474155477"><ele>69.0</ele><time>2026-04-12T09:17:16.999Z</time></trkpt><trkpt lat="42.00564663461227" lon="12.674849630286229"><ele>69.0</ele><time>2026-04-12T09:17:17.999Z</time></trkpt><trkpt lat="42.00570391977651" lon="12.674976525958034"><ele>69.0</ele><time>2026-04-12T09:17:18.999Z</time></trkpt><trkpt lat="42.00575873183405" lon="12.675108774183684"><ele>69.0</ele><time>2026-04-12T09:17:19.999Z</time></trkpt><trkpt lat="42.005804021925876" lon="12.675252611681568"><ele>69.0</ele><time>2026-04-12T09:17:20.999Z</time></trkpt><trkpt lat="42.00583712649829" lon="12.675408148191108"><ele>69.0</ele><time>2026-04-12T09:17:21.999Z</time></trkpt><trkpt lat="42.005861043016964" lon="12.675570907466692"><ele>69.0</ele><time>2026-04-12T09:17:22.999Z</time></trkpt><trkpt lat="42.00587772857696" lon="12.675737772141856"><ele>69.5</ele><time>2026-04-12T09:17:23.999Z</time></trkpt><trkpt lat="42.00589004425369" lon="12.67590633771733"><ele>70.0</ele><time>2026-04-12T09:17:24.999Z</time></trkpt><trkpt lat="42.00590532662677" lon="12.676071856647816"><ele>70.5</ele><time>2026-04-12T09:17:25.999Z</time></trkpt><trkpt lat="42.00592600005969" lon="12.676229191092418"><ele>71.0</ele><time>2026-04-12T09:17:26.999Z</time></trkpt><trkpt lat="42.00595575303696" lon="12.676382956647286"><ele>71.0</ele><time>2026-04-12T09:17:27.999Z</time></trkpt><trkpt lat="42.00599425541036" lon="12.676536904189868"><ele>71.0</ele><time>2026-04-12T09:17:28.999Z</time></trkpt><trkpt lat="42.006041132817465" lon="12.676689304114017"><ele>71.0</ele><time>2026-04-12T09:17:29.999Z</time></trkpt><trkpt lat="42.00609676861196" lon="12.676838288858342"><ele>71.0</ele><time>2026-04-12T09:17:30.999Z</time></trkpt><trkpt lat="42.00615516275791" lon="12.676984560343476"><ele>71.25</ele><time>2026-04-12T09:17:31.999Z</time></trkpt><trkpt lat="42.00621784115905" lon="12.677127482083431"><ele>71.5</ele><time>2026-04-12T09:17:32.999Z</time></trkpt><trkpt lat="42.00628071614732" lon="12.677266492172281"><ele>71.75</ele><time>2026-04-12T09:17:33.999Z</time></trkpt><trkpt lat="42.00634124246733" lon="12.677400647857906"><ele>72.0</ele><time>2026-04-12T09:17:34.999Z</time></trkpt><trkpt lat="42.00640336632194" lon="12.677533209358758"><ele>72.0</ele><time>2026-04-12T09:17:35.999Z</time></trkpt><trkpt lat="42.0064702996819" lon="12.677669953517098"><ele>72.0</ele><time>2026-04-12T09:17:36.999Z</time></trkpt><trkpt lat="42.00653835262491" lon="12.677810913931365"><ele>72.0</ele><time>2026-04-12T09:17:37.999Z</time></trkpt><trkpt lat="42.006607987184054" lon="12.677955134364822"><ele>72.0</ele><time>2026-04-12T09:17:38.999Z</time></trkpt><trkpt lat="42.006678916396986" lon="12.678101540693245"><ele>72.25</ele><time>2026-04-12T09:17:39.999Z</time></trkpt><trkpt lat="42.00674672727846" lon="12.678246892279965"><ele>72.5</ele><time>2026-04-12T09:17:40.999Z</time></trkpt><trkpt lat="42.00681619548327" lon="12.678391531835546"><ele>72.75</ele><time>2026-04-12T09:17:41.999Z</time></trkpt><trkpt lat="42.00688590745695" lon="12.678535400147133"><ele>73.0</ele><time>2026-04-12T09:17:42.999Z</time></trkpt><trkpt lat="42.006952873364405" lon="12.67867893672048"><ele>73.0</ele><time>2026-04-12T09:17:43.999Z</time></trkpt><trkpt lat="42.00702032770044" lon="12.678821544810503"><ele>73.0</ele><time>2026-04-12T09:17:44.999Z</time></trkpt><trkpt lat="42.00708914801519" lon="12.678966643092867"><ele>73.0</ele><time>2026-04-12T09:17:45.999Z</time></trkpt><trkpt lat="42.007156926628475" lon="12.67912148220126"><ele>73.0</ele><time>2026-04-12T09:17:46.999Z</time></trkpt><trkpt lat="42.00723324249689" lon="12.679283054893622"><ele>73.25</ele><time>2026-04-12T09:17:47.999Z</time></trkpt><trkpt lat="42.0073118331741" lon="12.679444043392373"><ele>73.5</ele><time>2026-04-12T09:17:48.999Z</time></trkpt><trkpt lat="42.00739755691309" lon="12.679613676069025"><ele>73.75</ele><time>2026-04-12T09:17:49.999Z</time></trkpt><trkpt lat="42.00747959453099" lon="12.679785837773288"><ele>74.0</ele><time>2026-04-12T09:17:50.999Z</time></trkpt><trkpt lat="42.00755577398563" lon="12.679943749629102"><ele>74.0</ele><time>2026-04-12T09:17:51.999Z</time></trkpt><trkpt lat="42.00762893279576" lon="12.680088059535514"><ele>74.0</ele><time>2026-04-12T09:17:52.999Z</time></trkpt><trkpt lat="42.00770348900975" lon="12.680217874331992"><ele>74.0</ele><time>2026-04-12T09:17:53.999Z</time></trkpt><trkpt lat="42.007788415621846" lon="12.680318173431582"><ele>74.0</ele><time>2026-04-12T09:17:54.999Z</time></trkpt><trkpt lat="42.007895097890675" lon="12.680389074564502"><ele>74.0</ele><time>2026-04-12T09:17:55.999Z</time></trkpt><trkpt lat="42.00802390256926" lon="12.680429125608457"><ele>74.0</ele><time>2026-04-12T09:17:56.999Z</time></trkpt><trkpt lat="42.00816554473136" lon="12.680448297826032"><ele>74.0</ele><time>2026-04-12T09:17:57.999Z</time></trkpt><trkpt lat="42.00832514136713" lon="12.680453537854795"><ele>74.0</ele><time>2026-04-12T09:17:58.999Z</time></trkpt><trkpt lat="42.008491483229136" lon="12.680460712317076"><ele>75.66666666666667</ele><time>2026-04-12T09:17:59.999Z</time></trkpt><trkpt lat="42.00866217323044" lon="12.680474255671129"><ele>77.33333333333333</ele><time>2026-04-12T09:18:00.999Z</time></trkpt><trkpt lat="42.00883072110157" lon="12.680487822381735"><ele>79.0</ele><time>2026-04-12T09:18:01.999Z</time></trkpt><trkpt lat="42.00900088181985" lon="12.680498796511692"><ele>80.66666666666666</ele><time>2026-04-12T09:18:02.999Z</time></trkpt><trkpt lat="42.00917081067331" lon="12.680511490051872"><ele>82.33333333333333</ele><time>2026-04-12T09:18:03.999Z</time></trkpt><trkpt lat="42.00934283979152" lon="12.68052723888907"><ele>84.0</ele><time>2026-04-12T09:18:04.999Z</time></trkpt><trkpt lat="42.00951779884278" lon="12.68054186847629"><ele>84.0</ele><time>2026-04-12T09:18:05.999Z</time></trkpt><trkpt lat="42.0096928121896" lon="12.680545589385368"><ele>84.0</ele><time>2026-04-12T09:18:06.999Z</time></trkpt><trkpt lat="42.00986947637021" lon="12.680539750671217"><ele>84.0</ele><time>2026-04-12T09:18:07.999Z</time></trkpt><trkpt lat="42.01004491652071" lon="12.680522780255494"><ele>84.66666666666667</ele><time>2026-04-12T09:18:08.999Z</time></trkpt><trkpt lat="42.01022090816616" lon="12.680502371070888"><ele>85.33333333333334</ele><time>2026-04-12T09:18:09.998Z</time></trkpt><trkpt lat="42.01039482456746" lon="12.680484864955737"><ele>86.0</ele><time>2026-04-12T09:18:10.998Z</time></trkpt><trkpt lat="42.01056272351531" lon="12.680473976800798"><ele>86.0</ele><time>2026-04-12T09:18:11.998Z</time></trkpt><trkpt lat="42.0107360169867" lon="12.680465603505528"><ele>86.0</ele><time>2026-04-12T09:18:12.998Z</time></trkpt><trkpt lat="42.010913440023366" lon="12.680459119520885"><ele>86.0</ele><time>2026-04-12T09:18:13.998Z</time></trkpt><trkpt lat="42.01108197747195" lon="12.680454035943635"><ele>86.75</ele><time>2026-04-12T09:18:14.998Z</time></trkpt><trkpt lat="42.011237131753354" lon="12.680452443953527"><ele>87.5</ele><time>2026-04-12T09:18:15.998Z</time></trkpt><trkpt lat="42.01138330737942" lon="12.680450537646989"><ele>88.25</ele><time>2026-04-12T09:18:16.998Z</time></trkpt><trkpt lat="42.011525151470934" lon="12.680466260685002"><ele>89.0</ele><time>2026-04-12T09:18:17.998Z</time></trkpt><trkpt lat="42.01167187513625" lon="12.680494449340223"><ele>90.66666666666667</ele><time>2026-04-12T09:18:18.998Z</time></trkpt><trkpt lat="42.01182327420249" lon="12.680566628605531"><ele>92.33333333333333</ele><time>2026-04-12T09:18:19.998Z</time></trkpt><trkpt lat="42.01197879795455" lon="12.680674843871918"><ele>94.0</ele><time>2026-04-12T09:18:20.998Z</time></trkpt><trkpt lat="42.01214065146599" lon="12.680802446526535"><ele>94.0</ele><time>2026-04-12T09:18:21.998Z</time></trkpt><trkpt lat="42.01231101079109" lon="12.680934573225128"><ele>94.0</ele><time>2026-04-12T09:18:22.998Z</time></trkpt><trkpt lat="42.01248345925776" lon="12.681058102056113"><ele>94.0</ele><time>2026-04-12T09:18:23.998Z</time></trkpt><trkpt lat="42.012656126278635" lon="12.68117490697261"><ele>97.66666666666666</ele><time>2026-04-12T09:18:24.998Z</time></trkpt><trkpt lat="42.01282547912412" lon="12.681284359671201"><ele>101.33333333333333</ele><time>2026-04-12T09:18:25.998Z</time></trkpt><trkpt lat="42.01298902235112" lon="12.681390967743136"><ele>105.0</ele><time>2026-04-12T09:18:26.998Z</time></trkpt><trkpt lat="42.01314307678918" lon="12.681504523074453"><ele>105.0</ele><time>2026-04-12T09:18:27.998Z</time></trkpt><trkpt lat="42.01329937653491" lon="12.681638509532076"><ele>105.0</ele><time>2026-04-12T09:18:28.998Z</time></trkpt><trkpt lat="42.01345597446535" lon="12.681786830314099"><ele>105.0</ele><time>2026-04-12T09:18:29.998Z</time></trkpt><trkpt lat="42.01361438501565" lon="12.681938562906307"><ele>108.33333333333334</ele><time>2026-04-12T09:18:30.998Z</time></trkpt><trkpt lat="42.01377342059326" lon="12.682086221177212"><ele>111.66666666666667</ele><time>2026-04-12T09:18:31.998Z</time></trkpt><trkpt lat="42.013903896875895" lon="12.682239178150095"><ele>115.0</ele><time>2026-04-12T09:18:32.998Z</time></trkpt><trkpt lat="42.01402742817204" lon="12.682371312029899"><ele>115.0</ele><time>2026-04-12T09:18:34Z</time></trkpt><trkpt lat="42.01412996389697" lon="12.682515327515663"><ele>115.0</ele><time>2026-04-12T09:18:35Z</time></trkpt><trkpt lat="42.01417035021772" lon="12.682583086618461"><ele>115.0</ele><time>2026-04-12T09:18:36Z</time></trkpt><trkpt lat="42.01422846862814" lon="12.682712040846173"><ele>115.0</ele><time>2026-04-12T09:18:37Z</time></trkpt><trkpt lat="42.014265573908204" lon="12.682858324263556"><ele>115.0</ele><time>2026-04-12T09:18:38Z</time></trkpt><trkpt lat="42.0143090074687" lon="12.683034562515202"><ele>118.66666666666667</ele><time>2026-04-12T09:18:39Z</time></trkpt><trkpt lat="42.014376113407586" lon="12.683217634182236"><ele>122.33333333333334</ele><time>2026-04-12T09:18:40Z</time></trkpt><trkpt lat="42.01444085337664" lon="12.683416994399076"><ele>126.0</ele><time>2026-04-12T09:18:41Z</time></trkpt><trkpt lat="42.01450544021929" lon="12.683605274842808"><ele>126.5</ele><time>2026-04-12T09:18:42Z</time></trkpt><trkpt lat="42.01455875597029" lon="12.68377437975282"><ele>127.0</ele><time>2026-04-12T09:18:43Z</time></trkpt><trkpt lat="42.01457879018209" lon="12.683962355879386"><ele>127.5</ele><time>2026-04-12T09:18:44Z</time></trkpt><trkpt lat="42.014602975170675" lon="12.684160601765253"><ele>128.0</ele><time>2026-04-12T09:18:45Z</time></trkpt><trkpt lat="42.014640565609035" lon="12.684347552153987"><ele>128.0</ele><time>2026-04-12T09:18:46Z</time></trkpt><trkpt lat="42.014653453325444" lon="12.684509276121004"><ele>128.0</ele><time>2026-04-12T09:18:47Z</time></trkpt><trkpt lat="42.014682084690506" lon="12.684654610899477"><ele>128.0</ele><time>2026-04-12T09:18:48Z</time></trkpt><trkpt lat="42.014746142936765" lon="12.684793664257393"><ele>128.0</ele><time>2026-04-12T09:18:49Z</time></trkpt><trkpt lat="42.0148379638911" lon="12.684934088576258"><ele>128.0</ele><time>2026-04-12T09:18:50Z</time></trkpt><trkpt lat="42.01495619215911" lon="12.68505813576026"><ele>128.0</ele><time>2026-04-12T09:18:51Z</time></trkpt><trkpt lat="42.01509521560986" lon="12.685168497566655"><ele>128.0</ele><time>2026-04-12T09:18:52Z</time></trkpt><trkpt lat="42.0152353580892" lon="12.685255637489574"><ele>130.25</ele><time>2026-04-12T09:18:53Z</time></trkpt><trkpt lat="42.01537407367586" lon="12.685326004701352"><ele>132.5</ele><time>2026-04-12T09:18:54Z</time></trkpt><trkpt lat="42.01550707490697" lon="12.685382664532543"><ele>134.75</ele><time>2026-04-12T09:18:55Z</time></trkpt><trkpt lat="42.01564707727749" lon="12.685437327326603"><ele>137.0</ele><time>2026-04-12T09:18:56Z</time></trkpt><trkpt lat="42.01580112903455" lon="12.685492993216394"><ele>138.0</ele><time>2026-04-12T09:18:57Z</time></trkpt><trkpt lat="42.0159577812769" lon="12.685561661039019"><ele>139.0</ele><time>2026-04-12T09:18:58Z</time></trkpt><trkpt lat="42.01609918554975" lon="12.685660019853053"><ele>140.0</ele><time>2026-04-12T09:18:59Z</time></trkpt><trkpt lat="42.01623392542114" lon="12.685762081322281"><ele>140.0</ele><time>2026-04-12T09:19:00Z</time></trkpt><trkpt lat="42.016357746333625" lon="12.685858108226322"><ele>140.0</ele><time>2026-04-12T09:19:01Z</time></trkpt><trkpt lat="42.01648696664577" lon="12.685970099638592"><ele>140.0</ele><time>2026-04-12T09:19:02Z</time></trkpt><trkpt lat="42.01661724834505" lon="12.686099023975567"><ele>138.0</ele><time>2026-04-12T09:19:03Z</time></trkpt><trkpt lat="42.016730773124415" lon="12.686232459470112"><ele>136.0</ele><time>2026-04-12T09:19:04Z</time></trkpt><trkpt lat="42.016831750281526" lon="12.686374438731761"><ele>134.0</ele><time>2026-04-12T09:19:05Z</time></trkpt><trkpt lat="42.01692729764794" lon="12.686528374070432"><ele>132.0</ele><time>2026-04-12T09:19:06Z</time></trkpt><trkpt lat="42.0170191328664" lon="12.686662325610872"><ele>132.0</ele><time>2026-04-12T09:19:07Z</time></trkpt><trkpt lat="42.017095192506574" lon="12.686809823418825"><ele>132.0</ele><time>2026-04-12T09:19:08Z</time></trkpt><trkpt lat="42.017175972504155" lon="12.686950435645208"><ele>132.0</ele><time>2026-04-12T09:19:09Z</time></trkpt><trkpt lat="42.017260230340774" lon="12.68708230042197"><ele>132.0</ele><time>2026-04-12T09:19:10Z</time></trkpt><trkpt lat="42.01734566621176" lon="12.687204918154109"><ele>130.5</ele><time>2026-04-12T09:19:11Z</time></trkpt><trkpt lat="42.01743100758414" lon="12.687312983600984"><ele>129.0</ele><time>2026-04-12T09:19:12Z</time></trkpt><trkpt lat="42.01752322928685" lon="12.687408671245683"><ele>127.5</ele><time>2026-04-12T09:19:13Z</time></trkpt><trkpt lat="42.01761369705543" lon="12.687503951928353"><ele>126.0</ele><time>2026-04-12T09:19:14Z</time></trkpt><trkpt lat="42.017706751383685" lon="12.68759239073495"><ele>125.6</ele><time>2026-04-12T09:19:15Z</time></trkpt><trkpt lat="42.017806497217315" lon="12.687662246575778"><ele>125.19999999999999</ele><time>2026-04-12T09:19:16Z</time></trkpt><trkpt lat="42.01791198492988" lon="12.687715143063057"><ele>124.80000000000001</ele><time>2026-04-12T09:19:17Z</time></trkpt><trkpt lat="42.018016345871025" lon="12.687751488288518"><ele>124.4</ele><time>2026-04-12T09:19:18Z</time></trkpt><trkpt lat="42.01811771902844" lon="12.687778976588266"><ele>124.0</ele><time>2026-04-12T09:19:19Z</time></trkpt><trkpt lat="42.018215848418" lon="12.687802052247761"><ele>123.50000000000001</ele><time>2026-04-12T09:19:20Z</time></trkpt><trkpt lat="42.01830963669382" lon="12.68782265234589"><ele>123.0</ele><time>2026-04-12T09:19:21Z</time></trkpt><trkpt lat="42.01839923240163" lon="12.687842626427766"><ele>122.5</ele><time>2026-04-12T09:19:22Z</time></trkpt><trkpt lat="42.018487316606446" lon="12.687860326291396"><ele>122.0</ele><time>2026-04-12T09:19:23Z</time></trkpt><trkpt lat="42.01857317751659" lon="12.687876439300133"><ele>121.50000000000001</ele><time>2026-04-12T09:19:24Z</time></trkpt><trkpt lat="42.01865327605699" lon="12.687890037714759"><ele>121.0</ele><time>2026-04-12T09:19:24.999Z</time></trkpt><trkpt lat="42.01873237516274" lon="12.687901584650968"><ele>121.00000000000001</ele><time>2026-04-12T09:19:25.999Z</time></trkpt><trkpt lat="42.018808284918265" lon="12.687916321976813"><ele>121.0</ele><time>2026-04-12T09:19:26.999Z</time></trkpt><trkpt lat="42.01888875173315" lon="12.687932274961835"><ele>121.0</ele><time>2026-04-12T09:19:27.999Z</time></trkpt><trkpt lat="42.01897154796005" lon="12.687944812343448"><ele>121.0</ele><time>2026-04-12T09:19:28.999Z</time></trkpt><trkpt lat="42.01905841375599" lon="12.687959046467599"><ele>121.00000000000001</ele><time>2026-04-12T09:19:29.999Z</time></trkpt><trkpt lat="42.01914723250022" lon="12.687979858371122"><ele>121.0</ele><time>2026-04-12T09:19:30.999Z</time></trkpt><trkpt lat="42.01923531049912" lon="12.688001302864345"><ele>121.0</ele><time>2026-04-12T09:19:31.999Z</time></trkpt><trkpt lat="42.019327165151616" lon="12.68802109162315"><ele>121.0</ele><time>2026-04-12T09:19:32.999Z</time></trkpt><trkpt lat="42.01941924572201" lon="12.688042642205698"><ele>121.0</ele><time>2026-04-12T09:19:33.999Z</time></trkpt><trkpt lat="42.01951604131647" lon="12.688066353062625"><ele>121.0</ele><time>2026-04-12T09:19:34.999Z</time></trkpt><trkpt lat="42.019620547629124" lon="12.688094253050515"><ele>121.0</ele><time>2026-04-12T09:19:35.999Z</time></trkpt><trkpt lat="42.01973070349355" lon="12.688125031155522"><ele>121.0</ele><time>2026-04-12T09:19:36.999Z</time></trkpt><trkpt lat="42.0198482677541" lon="12.688158732358634"><ele>121.0</ele><time>2026-04-12T09:19:37.999Z</time></trkpt><trkpt lat="42.01998079139846" lon="12.688195366432067"><ele>121.0</ele><time>2026-04-12T09:19:38.999Z</time></trkpt><trkpt lat="42.02011989702288" lon="12.688236284067157"><ele>121.0</ele><time>2026-04-12T09:19:39.999Z</time></trkpt><trkpt lat="42.02025601745783" lon="12.688276946758162"><ele>122.0</ele><time>2026-04-12T09:19:40.999Z</time></trkpt><trkpt lat="42.02038249033336" lon="12.688316368508683"><ele>123.0</ele><time>2026-04-12T09:19:41.999Z</time></trkpt><trkpt lat="42.02050213813217" lon="12.688359393239764"><ele>124.0</ele><time>2026-04-12T09:19:42.999Z</time></trkpt><trkpt lat="42.02060957314406" lon="12.68839928876079"><ele>125.0</ele><time>2026-04-12T09:19:43.999Z</time></trkpt><trkpt lat="42.02071249888992" lon="12.688444058683375"><ele>125.0</ele><time>2026-04-12T09:19:44.999Z</time></trkpt><trkpt lat="42.02081350627624" lon="12.688488850969604"><ele>125.0</ele><time>2026-04-12T09:19:45.999Z</time></trkpt><trkpt lat="42.02091022799702" lon="12.688526694333449"><ele>125.0</ele><time>2026-04-12T09:19:46.999Z</time></trkpt><trkpt lat="42.02100515387673" lon="12.68856068015648"><ele>125.0</ele><time>2026-04-12T09:19:47.999Z</time></trkpt><trkpt lat="42.02109801687839" lon="12.688594916262568"><ele>125.0</ele><time>2026-04-12T09:19:48.999Z</time></trkpt><trkpt lat="42.02119198148379" lon="12.688627425453001"><ele>124.8</ele><time>2026-04-12T09:19:49.999Z</time></trkpt><trkpt lat="42.02129087921178" lon="12.688664713430217"><ele>124.6</ele><time>2026-04-12T09:19:50.999Z</time></trkpt><trkpt lat="42.02139214418729" lon="12.68869370980892"><ele>124.4</ele><time>2026-04-12T09:19:51.999Z</time></trkpt><trkpt lat="42.02149127681553" lon="12.688725085863592"><ele>124.2</ele><time>2026-04-12T09:19:52.999Z</time></trkpt><trkpt lat="42.02158681632093" lon="12.688750433639152"><ele>124.0</ele><time>2026-04-12T09:19:53.999Z</time></trkpt><trkpt lat="42.021677794199235" lon="12.688774666607168"><ele>123.0</ele><time>2026-04-12T09:19:54.999Z</time></trkpt><trkpt lat="42.02176677066025" lon="12.688799264225255"><ele>122.0</ele><time>2026-04-12T09:19:55.999Z</time></trkpt><trkpt lat="42.02185878639051" lon="12.688828344054102"><ele>121.0</ele><time>2026-04-12T09:19:56.999Z</time></trkpt><trkpt lat="42.02195215988229" lon="12.68885212903613"><ele>120.0</ele><time>2026-04-12T09:19:57.999Z</time></trkpt><trkpt lat="42.02204901017193" lon="12.688877555387553"><ele>119.0</ele><time>2026-04-12T09:19:58.999Z</time></trkpt><trkpt lat="42.02214982043477" lon="12.68890046668757"><ele>119.0</ele><time>2026-04-12T09:19:59.999Z</time></trkpt><trkpt lat="42.02225266061395" lon="12.68891996880749"><ele>119.0</ele><time>2026-04-12T09:20:00.999Z</time></trkpt><trkpt lat="42.0223562708428" lon="12.688942024266513"><ele>119.0</ele><time>2026-04-12T09:20:01.999Z</time></trkpt><trkpt lat="42.02246546207763" lon="12.688967339557074"><ele>119.0</ele><time>2026-04-12T09:20:02.999Z</time></trkpt><trkpt lat="42.02257403786767" lon="12.688988892654443"><ele>119.0</ele><time>2026-04-12T09:20:03.999Z</time></trkpt><trkpt lat="42.02267605265078" lon="12.689004281227692"><ele>118.99999999999999</ele><time>2026-04-12T09:20:04.999Z</time></trkpt><trkpt lat="42.022771750199475" lon="12.689017153041474"><ele>119.0</ele><time>2026-04-12T09:20:05.999Z</time></trkpt><trkpt lat="42.022865491949645" lon="12.689031745066405"><ele>119.0</ele><time>2026-04-12T09:20:06.999Z</time></trkpt><trkpt lat="42.02295380602077" lon="12.689037312288018"><ele>119.0</ele><time>2026-04-12T09:20:07.999Z</time></trkpt><trkpt lat="42.02303765640073" lon="12.689037934498979"><ele>118.99999999999999</ele><time>2026-04-12T09:20:08.999Z</time></trkpt><trkpt lat="42.02311830734742" lon="12.689043505055823"><ele>119.0</ele><time>2026-04-12T09:20:09.999Z</time></trkpt><trkpt lat="42.02319969327498" lon="12.689055754931017"><ele>118.99999999999999</ele><time>2026-04-12T09:20:10.999Z</time></trkpt><trkpt lat="42.023281631407855" lon="12.689067856774287"><ele>119.0</ele><time>2026-04-12T09:20:11.999Z</time></trkpt><trkpt lat="42.02336394059114" lon="12.689072901821495"><ele>119.0</ele><time>2026-04-12T09:20:12.999Z</time></trkpt><trkpt lat="42.02345165811644" lon="12.689074662257045"><ele>119.0</ele><time>2026-04-12T09:20:13.999Z</time></trkpt><trkpt lat="42.02354276465924" lon="12.689082103922585"><ele>118.99999999999999</ele><time>2026-04-12T09:20:14.999Z</time></trkpt><trkpt lat="42.023635638405985" lon="12.689090918090615"><ele>119.0</ele><time>2026-04-12T09:20:15.999Z</time></trkpt><trkpt lat="42.02373228742544" lon="12.68909868554519"><ele>118.80000000000001</ele><time>2026-04-12T09:20:16.999Z</time></trkpt><trkpt lat="42.02383202107005" lon="12.68910571486832"><ele>118.60000000000001</ele><time>2026-04-12T09:20:17.999Z</time></trkpt><trkpt lat="42.023931821053196" lon="12.689108923692958"><ele>118.4</ele><time>2026-04-12T09:20:18.999Z</time></trkpt><trkpt lat="42.02402909275266" lon="12.689113287610054"><ele>118.2</ele><time>2026-04-12T09:20:19.999Z</time></trkpt><trkpt lat="42.024123157034516" lon="12.689121488537571"><ele>118.0</ele><time>2026-04-12T09:20:20.999Z</time></trkpt><trkpt lat="42.02421578171234" lon="12.68912786244526"><ele>117.4</ele><time>2026-04-12T09:20:21.999Z</time></trkpt><trkpt lat="42.02431066066712" lon="12.689133547879665"><ele>116.80000000000001</ele><time>2026-04-12T09:20:22.999Z</time></trkpt><trkpt lat="42.02440846100739" lon="12.689135539791549"><ele>116.2</ele><time>2026-04-12T09:20:23.999Z</time></trkpt><trkpt lat="42.0245069923233" lon="12.689139896761171"><ele>115.6</ele><time>2026-04-12T09:20:24.999Z</time></trkpt><trkpt lat="42.0246016762994" lon="12.689149664041235"><ele>115.0</ele><time>2026-04-12T09:20:25.999Z</time></trkpt><trkpt lat="42.024681613375165" lon="12.689158667412904"><ele>115.0</ele><time>2026-04-12T09:20:26.999Z</time></trkpt><trkpt lat="42.02478770803065" lon="12.6891717987863"><ele>115.0</ele><time>2026-04-12T09:20:28.998Z</time></trkpt><trkpt lat="42.02486380997038" lon="12.689170554115526"><ele>115.0</ele><time>2026-04-12T09:20:30.998Z</time></trkpt><trkpt lat="42.02498039296185" lon="12.689180602570385"><ele>115.0</ele><time>2026-04-12T09:20:32.998Z</time></trkpt><trkpt lat="42.02506249118822" lon="12.689195241350639"><ele>115.0</ele><time>2026-04-12T09:20:33.998Z</time></trkpt><trkpt lat="42.025159583416865" lon="12.68921461401356"><ele>115.0</ele><time>2026-04-12T09:20:34.998Z</time></trkpt><trkpt lat="42.02527227851935" lon="12.689227473029105"><ele>115.0</ele><time>2026-04-12T09:20:35.998Z</time></trkpt><trkpt lat="42.02540602815656" lon="12.689276106402003"><ele>115.0</ele><time>2026-04-12T09:20:36.998Z</time></trkpt><trkpt lat="42.02558677912315" lon="12.689273423149508"><ele>115.0</ele><time>2026-04-12T09:20:37.998Z</time></trkpt><trkpt lat="42.025757841449035" lon="12.68933343441701"><ele>114.66666666666667</ele><time>2026-04-12T09:20:38.998Z</time></trkpt><trkpt lat="42.02591786968575" lon="12.689376882287428"><ele>114.33333333333334</ele><time>2026-04-12T09:20:40Z</time></trkpt><trkpt lat="42.02611156581694" lon="12.689403065245147"><ele>114.0</ele><time>2026-04-12T09:20:41Z</time></trkpt><trkpt lat="42.02632943997514" lon="12.689482702169913"><ele>115.0</ele><time>2026-04-12T09:20:42Z</time></trkpt><trkpt lat="42.0265257497225" lon="12.689516509187023"><ele>116.0</ele><time>2026-04-12T09:20:43Z</time></trkpt><trkpt lat="42.02668116940664" lon="12.68957523301317"><ele>117.0</ele><time>2026-04-12T09:20:44Z</time></trkpt><trkpt lat="42.02681358257623" lon="12.689615933719457"><ele>117.5</ele><time>2026-04-12T09:20:45Z</time></trkpt><trkpt lat="42.02693466301199" lon="12.689665915437782"><ele>118.0</ele><time>2026-04-12T09:20:46Z</time></trkpt><trkpt lat="42.02704166165129" lon="12.689725463984562"><ele>118.5</ele><time>2026-04-12T09:20:47Z</time></trkpt><trkpt lat="42.02714090613008" lon="12.68979204470207"><ele>119.0</ele><time>2026-04-12T09:20:48Z</time></trkpt><trkpt lat="42.027237432394344" lon="12.689874498627196"><ele>119.0</ele><time>2026-04-12T09:20:49Z</time></trkpt><trkpt lat="42.0273312721589" lon="12.689969999642912"><ele>119.0</ele><time>2026-04-12T09:20:50Z</time></trkpt><trkpt lat="42.027426186769546" lon="12.690068861322779"><ele>119.0</ele><time>2026-04-12T09:20:51Z</time></trkpt><trkpt lat="42.02751615821904" lon="12.690175053381092"><ele>119.0</ele><time>2026-04-12T09:20:52Z</time></trkpt><trkpt lat="42.02759870820731" lon="12.69028606907633"><ele>119.6</ele><time>2026-04-12T09:20:53Z</time></trkpt><trkpt lat="42.027675991832616" lon="12.690397158001078"><ele>120.2</ele><time>2026-04-12T09:20:54Z</time></trkpt><trkpt lat="42.02774643200853" lon="12.690503578485602"><ele>120.79999999999998</ele><time>2026-04-12T09:20:55Z</time></trkpt><trkpt lat="42.027809490198415" lon="12.690601606748173"><ele>121.39999999999999</ele><time>2026-04-12T09:20:56Z</time></trkpt><trkpt lat="42.02786440012011" lon="12.690694425044402"><ele>122.0</ele><time>2026-04-12T09:20:57Z</time></trkpt><trkpt lat="42.02791395968882" lon="12.69078334545214"><ele>122.0</ele><time>2026-04-12T09:20:58Z</time></trkpt><trkpt lat="42.02795956421744" lon="12.69086233195144"><ele>121.99999999999999</ele><time>2026-04-12T09:20:59Z</time></trkpt><trkpt lat="42.02803125964349" lon="12.6909884191403"><ele>121.99999999999999</ele><time>2026-04-12T09:21:01Z</time></trkpt><trkpt lat="42.02810158236369" lon="12.691115240416767"><ele>122.0</ele><time>2026-04-12T09:21:03Z</time></trkpt><trkpt lat="42.028165771314" lon="12.691229594644568"><ele>122.0</ele><time>2026-04-12T09:21:05Z</time></trkpt><trkpt lat="42.02824095744472" lon="12.691348781754748"><ele>122.39999999999999</ele><time>2026-04-12T09:21:07Z</time></trkpt><trkpt lat="42.02829055039386" lon="12.691424268188962"><ele>122.79999999999998</ele><time>2026-04-12T09:21:08Z</time></trkpt><trkpt lat="42.02835202301727" lon="12.691530935365224"><ele>123.2</ele><time>2026-04-12T09:21:09Z</time></trkpt><trkpt lat="42.02842066627086" lon="12.69165544156025"><ele>123.6</ele><time>2026-04-12T09:21:10Z</time></trkpt><trkpt lat="42.028503444391305" lon="12.691783363833846"><ele>124.0</ele><time>2026-04-12T09:21:11Z</time></trkpt><trkpt lat="42.028598699040046" lon="12.691919610010538"><ele>124.75</ele><time>2026-04-12T09:21:12Z</time></trkpt><trkpt lat="42.0287024772981" lon="12.69205556023312"><ele>125.5</ele><time>2026-04-12T09:21:13Z</time></trkpt><trkpt lat="42.0288105662053" lon="12.692184543586341"><ele>126.25</ele><time>2026-04-12T09:21:14Z</time></trkpt><trkpt lat="42.028933794899345" lon="12.692313672448138"><ele>127.0</ele><time>2026-04-12T09:21:15Z</time></trkpt><trkpt lat="42.02907061492817" lon="12.692449818805564"><ele>129.33333333333334</ele><time>2026-04-12T09:21:16Z</time></trkpt><trkpt lat="42.0292123260511" lon="12.692584977650275"><ele>131.66666666666666</ele><time>2026-04-12T09:21:17Z</time></trkpt><trkpt lat="42.0293541074794" lon="12.692707675650011"><ele>134.0</ele><time>2026-04-12T09:21:18Z</time></trkpt><trkpt lat="42.029496017081" lon="12.692809386592442"><ele>136.25</ele><time>2026-04-12T09:21:19Z</time></trkpt><trkpt lat="42.02963484492634" lon="12.692896893399052"><ele>138.5</ele><time>2026-04-12T09:21:20Z</time></trkpt><trkpt lat="42.02975894649645" lon="12.692975694108815"><ele>140.75</ele><time>2026-04-12T09:21:21Z</time></trkpt><trkpt lat="42.0298658052809" lon="12.693061132319613"><ele>143.0</ele><time>2026-04-12T09:21:22Z</time></trkpt><trkpt lat="42.02997672897362" lon="12.693159560984762"><ele>143.75</ele><time>2026-04-12T09:21:23Z</time></trkpt><trkpt lat="42.030089698073795" lon="12.693266143406667"><ele>144.5</ele><time>2026-04-12T09:21:24Z</time></trkpt><trkpt lat="42.030208765633624" lon="12.69337170222797"><ele>145.25</ele><time>2026-04-12T09:21:25Z</time></trkpt><trkpt lat="42.030326708756384" lon="12.693464302081095"><ele>146.0</ele><time>2026-04-12T09:21:26Z</time></trkpt><trkpt lat="42.03044749526242" lon="12.693543821503669"><ele>146.66666666666666</ele><time>2026-04-12T09:21:27Z</time></trkpt><trkpt lat="42.03058734234247" lon="12.693600919250278"><ele>147.33333333333334</ele><time>2026-04-12T09:21:28Z</time></trkpt><trkpt lat="42.03074819580212" lon="12.69363929919642"><ele>148.0</ele><time>2026-04-12T09:21:29Z</time></trkpt><trkpt lat="42.03092858053341" lon="12.693664802746198"><ele>149.0</ele><time>2026-04-12T09:21:30Z</time></trkpt><trkpt lat="42.03110807295189" lon="12.693681778075357"><ele>150.0</ele><time>2026-04-12T09:21:31Z</time></trkpt><trkpt lat="42.031278747375275" lon="12.693688524170888"><ele>151.0</ele><time>2026-04-12T09:21:32Z</time></trkpt><trkpt lat="42.03142942700093" lon="12.693685116762468"><ele>151.0</ele><time>2026-04-12T09:21:33Z</time></trkpt><trkpt lat="42.031572201452995" lon="12.693669646141288"><ele>151.0</ele><time>2026-04-12T09:21:34Z</time></trkpt><trkpt lat="42.0316966179562" lon="12.69364450229089"><ele>151.0</ele><time>2026-04-12T09:21:35Z</time></trkpt><trkpt lat="42.03180894941791" lon="12.693616722993305"><ele>151.0</ele><time>2026-04-12T09:21:36Z</time></trkpt><trkpt lat="42.03193544892863" lon="12.693599913678563"><ele>152.0</ele><time>2026-04-12T09:21:37Z</time></trkpt><trkpt lat="42.032070737206276" lon="12.693610479049717"><ele>153.0</ele><time>2026-04-12T09:21:38Z</time></trkpt><trkpt lat="42.03220637896257" lon="12.693651117803373"><ele>154.0</ele><time>2026-04-12T09:21:39Z</time></trkpt><trkpt lat="42.032351618744684" lon="12.693718572997481"><ele>155.0</ele><time>2026-04-12T09:21:40Z</time></trkpt><trkpt lat="42.0325107441892" lon="12.693811950642532"><ele>156.33333333333331</ele><time>2026-04-12T09:21:41Z</time></trkpt><trkpt lat="42.03267951401163" lon="12.69392755705876"><ele>157.66666666666666</ele><time>2026-04-12T09:21:41.999Z</time></trkpt><trkpt lat="42.03285463565615" lon="12.694044042181334"><ele>159.0</ele><time>2026-04-12T09:21:42.999Z</time></trkpt><trkpt lat="42.03302495839805" lon="12.694151451521535"><ele>159.0</ele><time>2026-04-12T09:21:43.999Z</time></trkpt><trkpt lat="42.033190952471266" lon="12.694251258143009"><ele>159.0</ele><time>2026-04-12T09:21:44.999Z</time></trkpt><trkpt lat="42.03335057158561" lon="12.69434626009152"><ele>159.0</ele><time>2026-04-12T09:21:45.999Z</time></trkpt><trkpt lat="42.03350549377109" lon="12.694437588821417"><ele>160.33333333333334</ele><time>2026-04-12T09:21:46.999Z</time></trkpt><trkpt lat="42.03365736524512" lon="12.694532283037919"><ele>161.66666666666669</ele><time>2026-04-12T09:21:47.999Z</time></trkpt><trkpt lat="42.03380634724007" lon="12.694623398379033"><ele>163.0</ele><time>2026-04-12T09:21:48.999Z</time></trkpt><trkpt lat="42.03395393764435" lon="12.694714647705768"><ele>163.0</ele><time>2026-04-12T09:21:49.999Z</time></trkpt><trkpt lat="42.03410275608076" lon="12.694804399847378"><ele>163.0</ele><time>2026-04-12T09:21:50.999Z</time></trkpt><trkpt lat="42.03424797332221" lon="12.694892757199488"><ele>163.0</ele><time>2026-04-12T09:21:51.999Z</time></trkpt><trkpt lat="42.03437674757232" lon="12.694974079142888"><ele>164.75</ele><time>2026-04-12T09:21:52.999Z</time></trkpt><trkpt lat="42.03449754394026" lon="12.69505086113742"><ele>166.5</ele><time>2026-04-12T09:21:53.999Z</time></trkpt><trkpt lat="42.0346244371468" lon="12.695122307198973"><ele>168.25</ele><time>2026-04-12T09:21:54.999Z</time></trkpt><trkpt lat="42.034749414167244" lon="12.695195342941824"><ele>170.0</ele><time>2026-04-12T09:21:55.999Z</time></trkpt><trkpt lat="42.034866576496235" lon="12.695268866774203"><ele>171.5</ele><time>2026-04-12T09:21:56.999Z</time></trkpt><trkpt lat="42.03497429843744" lon="12.695341720513996"><ele>173.0</ele><time>2026-04-12T09:21:57.999Z</time></trkpt><trkpt lat="42.03507726139767" lon="12.695410769908628"><ele>174.5</ele><time>2026-04-12T09:21:58.999Z</time></trkpt><trkpt lat="42.035169554725" lon="12.695484701267956"><ele>176.0</ele><time>2026-04-12T09:21:59.999Z</time></trkpt><trkpt lat="42.03525626938974" lon="12.695571805640853"><ele>176.0</ele><time>2026-04-12T09:22:00.999Z</time></trkpt><trkpt lat="42.03534175499691" lon="12.69566359885488"><ele>176.0</ele><time>2026-04-12T09:22:01.999Z</time></trkpt><trkpt lat="42.03542649584528" lon="12.695755133730056"><ele>176.0</ele><time>2026-04-12T09:22:02.999Z</time></trkpt><trkpt lat="42.03551149331816" lon="12.695841344587723"><ele>176.0</ele><time>2026-04-12T09:22:03.999Z</time></trkpt><trkpt lat="42.035601818248146" lon="12.695926272652411"><ele>176.0</ele><time>2026-04-12T09:22:04.999Z</time></trkpt><trkpt lat="42.03571269640492" lon="12.696010866584317"><ele>176.0</ele><time>2026-04-12T09:22:05.999Z</time></trkpt><trkpt lat="42.03583181743347" lon="12.696100051410612"><ele>176.0</ele><time>2026-04-12T09:22:06.999Z</time></trkpt><trkpt lat="42.03597191129176" lon="12.69617547602029"><ele>176.0</ele><time>2026-04-12T09:22:07.999Z</time></trkpt><trkpt lat="42.03612556457959" lon="12.696233211241633"><ele>176.0</ele><time>2026-04-12T09:22:08.999Z</time></trkpt><trkpt lat="42.036278804787614" lon="12.696273372968905"><ele>176.0</ele><time>2026-04-12T09:22:09.999Z</time></trkpt><trkpt lat="42.03642566914122" lon="12.696306689993587"><ele>176.0</ele><time>2026-04-12T09:22:10.999Z</time></trkpt><trkpt lat="42.03656678137866" lon="12.696337786966225"><ele>176.0</ele><time>2026-04-12T09:22:11.999Z</time></trkpt><trkpt lat="42.03670077641773" lon="12.696376690492846"><ele>176.0</ele><time>2026-04-12T09:22:12.999Z</time></trkpt><trkpt lat="42.03683088046069" lon="12.696423654476495"><ele>176.0</ele><time>2026-04-12T09:22:13.999Z</time></trkpt><trkpt lat="42.036981963875014" lon="12.696484282488257"><ele>176.0</ele><time>2026-04-12T09:22:14.999Z</time></trkpt><trkpt lat="42.0371473125874" lon="12.696546320484812"><ele>176.0</ele><time>2026-04-12T09:22:15.999Z</time></trkpt><trkpt lat="42.03734254413956" lon="12.696613307955449"><ele>175.66666666666666</ele><time>2026-04-12T09:22:16.999Z</time></trkpt><trkpt lat="42.03754283098624" lon="12.696676077356432"><ele>175.33333333333334</ele><time>2026-04-12T09:22:17.999Z</time></trkpt><trkpt lat="42.037742216067976" lon="12.696734292022523"><ele>175.0</ele><time>2026-04-12T09:22:18.999Z</time></trkpt><trkpt lat="42.03793847661787" lon="12.696786827591769"><ele>175.0</ele><time>2026-04-12T09:22:19.999Z</time></trkpt><trkpt lat="42.03812581492153" lon="12.696835979800282"><ele>175.0</ele><time>2026-04-12T09:22:20.999Z</time></trkpt><trkpt lat="42.03830876464852" lon="12.696886448539356"><ele>175.0</ele><time>2026-04-12T09:22:21.999Z</time></trkpt><trkpt lat="42.03848091419223" lon="12.696935232891486"><ele>176.66666666666669</ele><time>2026-04-12T09:22:22.999Z</time></trkpt><trkpt lat="42.038644803124555" lon="12.6969754779377"><ele>178.33333333333334</ele><time>2026-04-12T09:22:23.999Z</time></trkpt><trkpt lat="42.038802032400795" lon="12.697015842721981"><ele>180.0</ele><time>2026-04-12T09:22:24.999Z</time></trkpt><trkpt lat="42.03896884226676" lon="12.697059944932937"><ele>180.0</ele><time>2026-04-12T09:22:25.999Z</time></trkpt><trkpt lat="42.039135296221424" lon="12.697095533332218"><ele>180.0</ele><time>2026-04-12T09:22:26.999Z</time></trkpt><trkpt lat="42.03930134991087" lon="12.697129329859743"><ele>180.0</ele><time>2026-04-12T09:22:27.999Z</time></trkpt><trkpt lat="42.03947079837555" lon="12.697152871843404"><ele>180.0</ele><time>2026-04-12T09:22:28.999Z</time></trkpt><trkpt lat="42.039638878658224" lon="12.697167599694703"><ele>180.0</ele><time>2026-04-12T09:22:29.999Z</time></trkpt><trkpt lat="42.03979964902514" lon="12.69718006367058"><ele>180.0</ele><time>2026-04-12T09:22:30.999Z</time></trkpt><trkpt lat="42.03995086260329" lon="12.697192274940528"><ele>179.25</ele><time>2026-04-12T09:22:31.999Z</time></trkpt><trkpt lat="42.04009758694109" lon="12.697208832829334"><ele>178.5</ele><time>2026-04-12T09:22:32.999Z</time></trkpt><trkpt lat="42.040238706508276" lon="12.697221005319388"><ele>177.75</ele><time>2026-04-12T09:22:33.999Z</time></trkpt><trkpt lat="42.0403782739176" lon="12.697225319605232"><ele>177.0</ele><time>2026-04-12T09:22:34.999Z</time></trkpt><trkpt lat="42.040528408397435" lon="12.69722903111166"><ele>177.0</ele><time>2026-04-12T09:22:35.999Z</time></trkpt><trkpt lat="42.04067824696226" lon="12.69727005395678"><ele>177.0</ele><time>2026-04-12T09:22:36.999Z</time></trkpt><trkpt lat="42.0408264670467" lon="12.69729515498232"><ele>177.0</ele><time>2026-04-12T09:22:37.999Z</time></trkpt><trkpt lat="42.04096387183284" lon="12.69729952913656"><ele>177.0</ele><time>2026-04-12T09:22:38.999Z</time></trkpt><trkpt lat="42.04108607453497" lon="12.697361252626404"><ele>176.33333333333334</ele><time>2026-04-12T09:22:39.999Z</time></trkpt><trkpt lat="42.04123706716006" lon="12.69740179728083"><ele>175.66666666666669</ele><time>2026-04-12T09:22:40.999Z</time></trkpt><trkpt lat="42.04140604876622" lon="12.697488843200503"><ele>175.0</ele><time>2026-04-12T09:22:41.999Z</time></trkpt><trkpt lat="42.04157758295951" lon="12.697566936249993"><ele>174.33333333333334</ele><time>2026-04-12T09:22:42.999Z</time></trkpt><trkpt lat="42.04173710145892" lon="12.697675091569232"><ele>173.66666666666666</ele><time>2026-04-12T09:22:43.998Z</time></trkpt><trkpt lat="42.0418976304839" lon="12.697779533397231"><ele>173.0</ele><time>2026-04-12T09:22:44.998Z</time></trkpt><trkpt lat="42.0420726889598" lon="12.697881429172421"><ele>171.0</ele><time>2026-04-12T09:22:46Z</time></trkpt><trkpt lat="42.04224972803019" lon="12.697984532065243"><ele>169.0</ele><time>2026-04-12T09:22:47Z</time></trkpt><trkpt lat="42.042414207094964" lon="12.69807983828322"><ele>167.0</ele><time>2026-04-12T09:22:48Z</time></trkpt><trkpt lat="42.042581681328784" lon="12.698174889295121"><ele>166.66666666666666</ele><time>2026-04-12T09:22:49Z</time></trkpt><trkpt lat="42.042741785720644" lon="12.69826640786621"><ele>166.33333333333334</ele><time>2026-04-12T09:22:50Z</time></trkpt><trkpt lat="42.0428947280683" lon="12.698357118570097"><ele>166.0</ele><time>2026-04-12T09:22:51Z</time></trkpt><trkpt lat="42.04304229617811" lon="12.698448697260599"><ele>166.0</ele><time>2026-04-12T09:22:52Z</time></trkpt><trkpt lat="42.04318846020851" lon="12.698537452673435"><ele>166.0</ele><time>2026-04-12T09:22:53Z</time></trkpt><trkpt lat="42.04332992732212" lon="12.698619462282874"><ele>166.0</ele><time>2026-04-12T09:22:54Z</time></trkpt><trkpt lat="42.04348385934389" lon="12.698703849235379"><ele>164.0</ele><time>2026-04-12T09:22:55Z</time></trkpt><trkpt lat="42.04365137693179" lon="12.698786541158798"><ele>162.0</ele><time>2026-04-12T09:22:56Z</time></trkpt><trkpt lat="42.043831418130864" lon="12.698852709300134"><ele>160.0</ele><time>2026-04-12T09:22:57Z</time></trkpt><trkpt lat="42.04401956300349" lon="12.698914791220377"><ele>160.0</ele><time>2026-04-12T09:22:58Z</time></trkpt><trkpt lat="42.04420414300512" lon="12.698957664852491"><ele>160.0</ele><time>2026-04-12T09:22:59Z</time></trkpt><trkpt lat="42.044383649141714" lon="12.698995585391526"><ele>160.0</ele><time>2026-04-12T09:23:00Z</time></trkpt><trkpt lat="42.044546878207605" lon="12.699040021999915"><ele>160.0</ele><time>2026-04-12T09:23:01Z</time></trkpt><trkpt lat="42.04469993621437" lon="12.699072740249632"><ele>160.0</ele><time>2026-04-12T09:23:02Z</time></trkpt><trkpt lat="42.04484874603635" lon="12.699082716586053"><ele>160.0</ele><time>2026-04-12T09:23:02.999Z</time></trkpt><trkpt lat="42.04499733898697" lon="12.69906905475133"><ele>158.66666666666669</ele><time>2026-04-12T09:23:03.999Z</time></trkpt><trkpt lat="42.04515132170741" lon="12.699023959173838"><ele>157.33333333333334</ele><time>2026-04-12T09:23:04.999Z</time></trkpt><trkpt lat="42.0453090898927" lon="12.698944246988424"><ele>156.0</ele><time>2026-04-12T09:23:05.999Z</time></trkpt><trkpt lat="42.045461352594586" lon="12.69886120452761"><ele>156.0</ele><time>2026-04-12T09:23:06.998Z</time></trkpt><trkpt lat="42.045613163547074" lon="12.698777886025454"><ele>156.0</ele><time>2026-04-12T09:23:07.998Z</time></trkpt><trkpt lat="42.045765488661644" lon="12.698708226917953"><ele>156.0</ele><time>2026-04-12T09:23:08.998Z</time></trkpt><trkpt lat="42.04592625450312" lon="12.698668338540184"><ele>156.0</ele><time>2026-04-12T09:23:09.998Z</time></trkpt><trkpt lat="42.046095741585304" lon="12.698655818031188"><ele>156.0</ele><time>2026-04-12T09:23:10.998Z</time></trkpt><trkpt lat="42.046274423885194" lon="12.69866382183793"><ele>156.0</ele><time>2026-04-12T09:23:11.998Z</time></trkpt><trkpt lat="42.04644367669696" lon="12.698701053562646"><ele>156.0</ele><time>2026-04-12T09:23:12.997Z</time></trkpt><trkpt lat="42.046604796531945" lon="12.698742617809819"><ele>156.0</ele><time>2026-04-12T09:23:13.997Z</time></trkpt><trkpt lat="42.04675758219768" lon="12.698795087768334"><ele>156.0</ele><time>2026-04-12T09:23:14.997Z</time></trkpt><trkpt lat="42.04690764290599" lon="12.698855118608064"><ele>154.33333333333334</ele><time>2026-04-12T09:23:15.997Z</time></trkpt><trkpt lat="42.04705599520207" lon="12.698935779701612"><ele>152.66666666666669</ele><time>2026-04-12T09:23:16.997Z</time></trkpt><trkpt lat="42.04720159216967" lon="12.699039964570632"><ele>151.0</ele><time>2026-04-12T09:23:17.997Z</time></trkpt><trkpt lat="42.047338178670806" lon="12.699158286610228"><ele>150.33333333333334</ele><time>2026-04-12T09:23:18.997Z</time></trkpt><trkpt lat="42.047463811548226" lon="12.69928259521376"><ele>149.66666666666666</ele><time>2026-04-12T09:23:19.996Z</time></trkpt><trkpt lat="42.047592523011204" lon="12.699390766779246"><ele>149.0</ele><time>2026-04-12T09:23:20.996Z</time></trkpt><trkpt lat="42.047725078763996" lon="12.699487281381405"><ele>149.0</ele><time>2026-04-12T09:23:21.996Z</time></trkpt><trkpt lat="42.04785728831029" lon="12.699581609971807"><ele>149.0</ele><time>2026-04-12T09:23:22.996Z</time></trkpt><trkpt lat="42.04798392217372" lon="12.699659565036072"><ele>149.0</ele><time>2026-04-12T09:23:23.996Z</time></trkpt><trkpt lat="42.04809624621121" lon="12.699729030609845"><ele>149.0</ele><time>2026-04-12T09:23:24.996Z</time></trkpt><trkpt lat="42.04820319820143" lon="12.699792229945114"><ele>148.0</ele><time>2026-04-12T09:23:25.996Z</time></trkpt><trkpt lat="42.048307275388524" lon="12.699851717642348"><ele>147.0</ele><time>2026-04-12T09:23:26.996Z</time></trkpt><trkpt lat="42.048413135386376" lon="12.699908738570043"><ele>146.0</ele><time>2026-04-12T09:23:27.996Z</time></trkpt><trkpt lat="42.048529108934524" lon="12.69997012765237"><ele>145.0</ele><time>2026-04-12T09:23:28.996Z</time></trkpt><trkpt lat="42.04865759405605" lon="12.700044720447886"><ele>145.0</ele><time>2026-04-12T09:23:29.996Z</time></trkpt><trkpt lat="42.04879162318406" lon="12.700127686381977"><ele>145.0</ele><time>2026-04-12T09:23:30.996Z</time></trkpt><trkpt lat="42.04892047853377" lon="12.700202151779898"><ele>145.0</ele><time>2026-04-12T09:23:31.996Z</time></trkpt><trkpt lat="42.04906220055925" lon="12.700282241388058"><ele>145.0</ele><time>2026-04-12T09:23:32.996Z</time></trkpt><trkpt lat="42.049214335404706" lon="12.700371027345255"><ele>143.33333333333334</ele><time>2026-04-12T09:23:33.995Z</time></trkpt><trkpt lat="42.049374609073475" lon="12.700473341376112"><ele>141.66666666666666</ele><time>2026-04-12T09:23:34.995Z</time></trkpt><trkpt lat="42.04953687205472" lon="12.700581613974725"><ele>140.0</ele><time>2026-04-12T09:23:35.995Z</time></trkpt><trkpt lat="42.04970002632008" lon="12.700689223171198"><ele>140.0</ele><time>2026-04-12T09:23:36.995Z</time></trkpt><trkpt lat="42.0498698952742" lon="12.70080074717027"><ele>140.0</ele><time>2026-04-12T09:23:37.995Z</time></trkpt><trkpt lat="42.05003957871095" lon="12.700911630656778"><ele>140.0</ele><time>2026-04-12T09:23:38.995Z</time></trkpt><trkpt lat="42.05020936246923" lon="12.701021652686476"><ele>137.0</ele><time>2026-04-12T09:23:39.995Z</time></trkpt><trkpt lat="42.050373807758604" lon="12.701131759541743"><ele>134.0</ele><time>2026-04-12T09:23:40.995Z</time></trkpt><trkpt lat="42.05052922236179" lon="12.701238380686837"><ele>131.0</ele><time>2026-04-12T09:23:41.995Z</time></trkpt><trkpt lat="42.05067891181157" lon="12.701344475998749"><ele>132.33333333333331</ele><time>2026-04-12T09:23:42.995Z</time></trkpt><trkpt lat="42.05082412035376" lon="12.701449367552332"><ele>133.66666666666666</ele><time>2026-04-12T09:23:43.995Z</time></trkpt><trkpt lat="42.050968400902896" lon="12.701550780938081"><ele>135.0</ele><time>2026-04-12T09:23:44.995Z</time></trkpt><trkpt lat="42.05112739732656" lon="12.701642864503636"><ele>135.0</ele><time>2026-04-12T09:23:45.995Z</time></trkpt><trkpt lat="42.05130178218041" lon="12.701719675480236"><ele>135.0</ele><time>2026-04-12T09:23:46.995Z</time></trkpt><trkpt lat="42.05148604624076" lon="12.701787163035139"><ele>135.0</ele><time>2026-04-12T09:23:47.995Z</time></trkpt><trkpt lat="42.05167778887222" lon="12.701845958735255"><ele>135.33333333333334</ele><time>2026-04-12T09:23:48.995Z</time></trkpt><trkpt lat="42.051866601137405" lon="12.70190779576848"><ele>135.66666666666669</ele><time>2026-04-12T09:23:49.995Z</time></trkpt><trkpt lat="42.05205642673671" lon="12.701966898150935"><ele>136.0</ele><time>2026-04-12T09:23:50.995Z</time></trkpt><trkpt lat="42.05223403308647" lon="12.702018371000628"><ele>133.33333333333334</ele><time>2026-04-12T09:23:51.995Z</time></trkpt><trkpt lat="42.052395917460856" lon="12.702055413792648"><ele>130.66666666666666</ele><time>2026-04-12T09:23:52.995Z</time></trkpt><trkpt lat="42.05255239544809" lon="12.70211510694739"><ele>128.0</ele><time>2026-04-12T09:23:53.995Z</time></trkpt><trkpt lat="42.052698055553776" lon="12.702155237462764"><ele>127.0</ele><time>2026-04-12T09:23:54.995Z</time></trkpt><trkpt lat="42.05297093232346" lon="12.702222701339572"><ele>126.0</ele><time>2026-04-12T09:23:55.995Z</time></trkpt><trkpt lat="42.05314325685986" lon="12.702266120710123"><ele>125.0</ele><time>2026-04-12T09:23:56.995Z</time></trkpt><trkpt lat="42.0533171984197" lon="12.702310011346684"><ele>124.0</ele><time>2026-04-12T09:23:57.995Z</time></trkpt><trkpt lat="42.053498629811735" lon="12.702358924343322"><ele>123.0</ele><time>2026-04-12T09:23:58.995Z</time></trkpt><trkpt lat="42.05367746528408" lon="12.702408962975777"><ele>123.0</ele><time>2026-04-12T09:23:59.995Z</time></trkpt><trkpt lat="42.053850551247535" lon="12.702460026768387"><ele>123.0</ele><time>2026-04-12T09:24:00.995Z</time></trkpt><trkpt lat="42.054022411019794" lon="12.702516290744157"><ele>123.0</ele><time>2026-04-12T09:24:01.995Z</time></trkpt><trkpt lat="42.054209599844825" lon="12.702569543364742"><ele>122.66666666666666</ele><time>2026-04-12T09:24:02.995Z</time></trkpt><trkpt lat="42.05439134747245" lon="12.702619346146113"><ele>122.33333333333333</ele><time>2026-04-12T09:24:03.995Z</time></trkpt><trkpt lat="42.0545606966352" lon="12.702670169510254"><ele>122.0</ele><time>2026-04-12T09:24:04.994Z</time></trkpt><trkpt lat="42.05472500338941" lon="12.702720356567427"><ele>120.33333333333333</ele><time>2026-04-12T09:24:05.994Z</time></trkpt><trkpt lat="42.05487539266974" lon="12.702757246000658"><ele>118.66666666666666</ele><time>2026-04-12T09:24:06.994Z</time></trkpt><trkpt lat="42.05502517236145" lon="12.70278020146847"><ele>117.0</ele><time>2026-04-12T09:24:07.994Z</time></trkpt><trkpt lat="42.05520289752557" lon="12.702760584080641"><ele>118.66666666666666</ele><time>2026-04-12T09:24:08.994Z</time></trkpt><trkpt lat="42.055397392498094" lon="12.70273628962772"><ele>120.33333333333333</ele><time>2026-04-12T09:24:09.994Z</time></trkpt><trkpt lat="42.05558555955159" lon="12.702694425990972"><ele>122.0</ele><time>2026-04-12T09:24:10.994Z</time></trkpt><trkpt lat="42.055761762823174" lon="12.702656291840487"><ele>121.75</ele><time>2026-04-12T09:24:11.994Z</time></trkpt><trkpt lat="42.05592583798158" lon="12.702643639415403"><ele>121.5</ele><time>2026-04-12T09:24:12.994Z</time></trkpt><trkpt lat="42.05607341828854" lon="12.702660918418626"><ele>121.25</ele><time>2026-04-12T09:24:13.994Z</time></trkpt><trkpt lat="42.05620705338645" lon="12.70269522252417"><ele>121.0</ele><time>2026-04-12T09:24:14.994Z</time></trkpt><trkpt lat="42.05633190115723" lon="12.70274143005578"><ele>119.75</ele><time>2026-04-12T09:24:15.994Z</time></trkpt><trkpt lat="42.05645018155647" lon="12.702777278857413"><ele>118.5</ele><time>2026-04-12T09:24:16.994Z</time></trkpt><trkpt lat="42.05654709053869" lon="12.702850784783484"><ele>117.25</ele><time>2026-04-12T09:24:17.994Z</time></trkpt><trkpt lat="42.05665449417755" lon="12.702892248802268"><ele>116.0</ele><time>2026-04-12T09:24:18.994Z</time></trkpt><trkpt lat="42.056759370454834" lon="12.702963103028303"><ele>116.0</ele><time>2026-04-12T09:24:19.994Z</time></trkpt><trkpt lat="42.05686609158913" lon="12.703039163329532"><ele>116.0</ele><time>2026-04-12T09:24:20.994Z</time></trkpt><trkpt lat="42.05697256001942" lon="12.70310895596407"><ele>116.0</ele><time>2026-04-12T09:24:21.994Z</time></trkpt><trkpt lat="42.05707183180153" lon="12.703183262070938"><ele>116.0</ele><time>2026-04-12T09:24:22.994Z</time></trkpt><trkpt lat="42.05716597251443" lon="12.70327709017501"><ele>116.0</ele><time>2026-04-12T09:24:23.994Z</time></trkpt><trkpt lat="42.0572337772173" lon="12.703418782155202"><ele>116.0</ele><time>2026-04-12T09:24:24.994Z</time></trkpt><trkpt lat="42.057320164402874" lon="12.703553615780205"><ele>116.0</ele><time>2026-04-12T09:24:25.994Z</time></trkpt><trkpt lat="42.05741796272873" lon="12.703691818921431"><ele>116.0</ele><time>2026-04-12T09:24:26.994Z</time></trkpt><trkpt lat="42.0575113952655" lon="12.70383552275435"><ele>116.66666666666666</ele><time>2026-04-12T09:24:27.994Z</time></trkpt><trkpt lat="42.057620426506276" lon="12.703960163036436"><ele>117.33333333333334</ele><time>2026-04-12T09:24:28.994Z</time></trkpt><trkpt lat="42.05774135237498" lon="12.704086686040736"><ele>118.0</ele><time>2026-04-12T09:24:29.994Z</time></trkpt><trkpt lat="42.05787912142567" lon="12.704192293759593"><ele>118.0</ele><time>2026-04-12T09:24:30.994Z</time></trkpt><trkpt lat="42.05802744717255" lon="12.704286451905576"><ele>118.0</ele><time>2026-04-12T09:24:31.994Z</time></trkpt><trkpt lat="42.0581757351716" lon="12.704378124313683"><ele>118.0</ele><time>2026-04-12T09:24:32.994Z</time></trkpt><trkpt lat="42.058329484291015" lon="12.70447587325258"><ele>118.0</ele><time>2026-04-12T09:24:33.994Z</time></trkpt><trkpt lat="42.05848912667596" lon="12.704570476660152"><ele>118.0</ele><time>2026-04-12T09:24:34.994Z</time></trkpt><trkpt lat="42.058644173879244" lon="12.704669223030418"><ele>118.0</ele><time>2026-04-12T09:24:35.994Z</time></trkpt><trkpt lat="42.058799911896905" lon="12.704767934608393"><ele>118.0</ele><time>2026-04-12T09:24:36.994Z</time></trkpt><trkpt lat="42.058954208010235" lon="12.704864615891761"><ele>118.0</ele><time>2026-04-12T09:24:37.994Z</time></trkpt><trkpt lat="42.05910910200974" lon="12.70496316582346"><ele>118.0</ele><time>2026-04-12T09:24:38.994Z</time></trkpt><trkpt lat="42.05925421172384" lon="12.705060684738044"><ele>117.25</ele><time>2026-04-12T09:24:39.994Z</time></trkpt><trkpt lat="42.059392475165026" lon="12.705159884850755"><ele>116.5</ele><time>2026-04-12T09:24:40.994Z</time></trkpt><trkpt lat="42.059518946103" lon="12.705261153234941"><ele>115.75</ele><time>2026-04-12T09:24:41.994Z</time></trkpt><trkpt lat="42.05963563896018" lon="12.705368131438451"><ele>115.0</ele><time>2026-04-12T09:24:42.994Z</time></trkpt><trkpt lat="42.05973963143755" lon="12.705486354704169"><ele>114.75</ele><time>2026-04-12T09:24:43.994Z</time></trkpt><trkpt lat="42.0598370575952" lon="12.705618687062664"><ele>114.5</ele><time>2026-04-12T09:24:44.994Z</time></trkpt><trkpt lat="42.05993250365193" lon="12.705755791860785"><ele>114.25</ele><time>2026-04-12T09:24:45.994Z</time></trkpt><trkpt lat="42.0600218386977" lon="12.705894081943216"><ele>114.0</ele><time>2026-04-12T09:24:46.994Z</time></trkpt><trkpt lat="42.06010872739309" lon="12.706031800332703"><ele>114.5</ele><time>2026-04-12T09:24:47.994Z</time></trkpt><trkpt lat="42.060194972887714" lon="12.706179670321688"><ele>115.0</ele><time>2026-04-12T09:24:48.994Z</time></trkpt><trkpt lat="42.06028058534354" lon="12.706346881391424"><ele>115.5</ele><time>2026-04-12T09:24:49.994Z</time></trkpt><trkpt lat="42.06036727836236" lon="12.706515792702842"><ele>116.0</ele><time>2026-04-12T09:24:50.994Z</time></trkpt><trkpt lat="42.06044379612534" lon="12.706687205364572"><ele>116.0</ele><time>2026-04-12T09:24:51.996Z</time></trkpt><trkpt lat="42.06051606107006" lon="12.706865101942858"><ele>116.0</ele><time>2026-04-12T09:24:52.996Z</time></trkpt><trkpt lat="42.060574540984994" lon="12.707037647329315"><ele>116.0</ele><time>2026-04-12T09:24:53.996Z</time></trkpt><trkpt lat="42.06062136742427" lon="12.707208903724732"><ele>116.0</ele><time>2026-04-12T09:24:54.996Z</time></trkpt><trkpt lat="42.0606292142884" lon="12.707378502073755"><ele>116.6</ele><time>2026-04-12T09:24:55.997Z</time></trkpt><trkpt lat="42.06063234617012" lon="12.707542759670403"><ele>117.19999999999999</ele><time>2026-04-12T09:24:56.997Z</time></trkpt><trkpt lat="42.06063871128255" lon="12.70769381297464"><ele>117.80000000000001</ele><time>2026-04-12T09:24:57.997Z</time></trkpt><trkpt lat="42.06062518034532" lon="12.70782860904925"><ele>118.4</ele><time>2026-04-12T09:24:58.997Z</time></trkpt><trkpt lat="42.06061322155264" lon="12.70795724982656"><ele>119.0</ele><time>2026-04-12T09:24:59.998Z</time></trkpt><trkpt lat="42.06060210718709" lon="12.708082750202236"><ele>119.0</ele><time>2026-04-12T09:25:00.998Z</time></trkpt><trkpt lat="42.060597233445534" lon="12.708211319964622"><ele>119.0</ele><time>2026-04-12T09:25:01.998Z</time></trkpt><trkpt lat="42.06059904595498" lon="12.708338613977492"><ele>119.0</ele><time>2026-04-12T09:25:02.998Z</time></trkpt><trkpt lat="42.060596271835394" lon="12.708470169775683"><ele>119.0</ele><time>2026-04-12T09:25:03.998Z</time></trkpt><trkpt lat="42.06058894388394" lon="12.708614774616265"><ele>119.0</ele><time>2026-04-12T09:25:04.998Z</time></trkpt><trkpt lat="42.06057880850244" lon="12.708769627147595"><ele>117.75</ele><time>2026-04-12T09:25:05.999Z</time></trkpt><trkpt lat="42.06056835531244" lon="12.708930132135817"><ele>116.5</ele><time>2026-04-12T09:25:06.999Z</time></trkpt><trkpt lat="42.060558845017894" lon="12.709098925753924"><ele>115.25</ele><time>2026-04-12T09:25:07.999Z</time></trkpt><trkpt lat="42.06054818015214" lon="12.709269074086487"><ele>114.0</ele><time>2026-04-12T09:25:08.999Z</time></trkpt><trkpt lat="42.060537291247705" lon="12.70944069115919"><ele>114.0</ele><time>2026-04-12T09:25:09.999Z</time></trkpt><trkpt lat="42.0605268292894" lon="12.709611606107336"><ele>114.0</ele><time>2026-04-12T09:25:10.999Z</time></trkpt><trkpt lat="42.06051824842172" lon="12.709781773815545"><ele>114.0</ele><time>2026-04-12T09:25:11.999Z</time></trkpt><trkpt lat="42.06050834533356" lon="12.709953198345183"><ele>114.0</ele><time>2026-04-12T09:25:12.999Z</time></trkpt><trkpt lat="42.0604990140772" lon="12.710114265824236"><ele>113.80000000000001</ele><time>2026-04-12T09:25:13.999Z</time></trkpt><trkpt lat="42.0604883446673" lon="12.710267707315557"><ele>113.60000000000001</ele><time>2026-04-12T09:25:14.999Z</time></trkpt><trkpt lat="42.060476130512775" lon="12.710416032014312"><ele>113.4</ele><time>2026-04-12T09:25:15.999Z</time></trkpt><trkpt lat="42.06046551392153" lon="12.710562398812996"><ele>113.2</ele><time>2026-04-12T09:25:16.999Z</time></trkpt><trkpt lat="42.06045668760713" lon="12.710710220571452"><ele>113.0</ele><time>2026-04-12T09:25:17.999Z</time></trkpt><trkpt lat="42.06044873180113" lon="12.710856856119484"><ele>113.0</ele><time>2026-04-12T09:25:19Z</time></trkpt><trkpt lat="42.06042517501426" lon="12.710998575232082"><ele>113.0</ele><time>2026-04-12T09:25:20Z</time></trkpt><trkpt lat="42.0604125642394" lon="12.711137011698742"><ele>113.0</ele><time>2026-04-12T09:25:21Z</time></trkpt><trkpt lat="42.060479178534784" lon="12.7112825934728"><ele>113.0</ele><time>2026-04-12T09:25:22Z</time></trkpt><trkpt lat="42.06052326818697" lon="12.711421520882814"><ele>112.0</ele><time>2026-04-12T09:25:23Z</time></trkpt><trkpt lat="42.06057465922363" lon="12.71156968315122"><ele>111.0</ele><time>2026-04-12T09:25:24Z</time></trkpt><trkpt lat="42.06062432911437" lon="12.711736718638877"><ele>110.0</ele><time>2026-04-12T09:25:25Z</time></trkpt><trkpt lat="42.06066981767322" lon="12.711915166482317"><ele>109.0</ele><time>2026-04-12T09:25:26Z</time></trkpt><trkpt lat="42.0607132688376" lon="12.712088794418746"><ele>108.0</ele><time>2026-04-12T09:25:27Z</time></trkpt><trkpt lat="42.06076158303404" lon="12.712250133870432"><ele>107.0</ele><time>2026-04-12T09:25:28Z</time></trkpt><trkpt lat="42.060808199272316" lon="12.712413621685313"><ele>106.0</ele><time>2026-04-12T09:25:29Z</time></trkpt><trkpt lat="42.060863649278346" lon="12.712565774452747"><ele>105.0</ele><time>2026-04-12T09:25:30Z</time></trkpt><trkpt lat="42.06091783190993" lon="12.712712046755632"><ele>103.5</ele><time>2026-04-12T09:25:31Z</time></trkpt><trkpt lat="42.06097982968169" lon="12.712855126246238"><ele>102.0</ele><time>2026-04-12T09:25:32Z</time></trkpt><trkpt lat="42.06105091380753" lon="12.712999860835719"><ele>100.5</ele><time>2026-04-12T09:25:33Z</time></trkpt><trkpt lat="42.061132925997526" lon="12.71313953268135"><ele>99.0</ele><time>2026-04-12T09:25:34Z</time></trkpt><trkpt lat="42.06122109324523" lon="12.713272214669377"><ele>99.0</ele><time>2026-04-12T09:25:35Z</time></trkpt><trkpt lat="42.061320619405016" lon="12.71339516217787"><ele>99.0</ele><time>2026-04-12T09:25:36Z</time></trkpt><trkpt lat="42.06142446592815" lon="12.713511599878803"><ele>99.0</ele><time>2026-04-12T09:25:37Z</time></trkpt><trkpt lat="42.06153788677659" lon="12.71361472347473"><ele>99.0</ele><time>2026-04-12T09:25:38Z</time></trkpt><trkpt lat="42.06165787086276" lon="12.71370301219602"><ele>98.5</ele><time>2026-04-12T09:25:39Z</time></trkpt><trkpt lat="42.061782344734006" lon="12.71378364792153"><ele>98.0</ele><time>2026-04-12T09:25:40Z</time></trkpt><trkpt lat="42.061912553834034" lon="12.713857569724981"><ele>97.5</ele><time>2026-04-12T09:25:41Z</time></trkpt><trkpt lat="42.062046767552275" lon="12.713925616302031"><ele>97.0</ele><time>2026-04-12T09:25:42Z</time></trkpt><trkpt lat="42.06218495830303" lon="12.713991112258867"><ele>97.0</ele><time>2026-04-12T09:25:43Z</time></trkpt><trkpt lat="42.06231857812005" lon="12.714048944020387"><ele>97.0</ele><time>2026-04-12T09:25:44Z</time></trkpt><trkpt lat="42.062455425743266" lon="12.714121226843162"><ele>97.0</ele><time>2026-04-12T09:25:45Z</time></trkpt><trkpt lat="42.062593143684765" lon="12.714182827832532"><ele>97.0</ele><time>2026-04-12T09:25:46Z</time></trkpt><trkpt lat="42.06273533062268" lon="12.714250170145123"><ele>96.66666666666667</ele><time>2026-04-12T09:25:47Z</time></trkpt><trkpt lat="42.062878431739506" lon="12.714321740257473"><ele>96.33333333333334</ele><time>2026-04-12T09:25:48Z</time></trkpt><trkpt lat="42.063023207045696" lon="12.714385230067444"><ele>96.0</ele><time>2026-04-12T09:25:49Z</time></trkpt><trkpt lat="42.06316649069377" lon="12.71444934061694"><ele>96.33333333333334</ele><time>2026-04-12T09:25:50Z</time></trkpt><trkpt lat="42.063314351743486" lon="12.71452164326011"><ele>96.66666666666667</ele><time>2026-04-12T09:25:51Z</time></trkpt><trkpt lat="42.06346652051022" lon="12.714599823877274"><ele>97.0</ele><time>2026-04-12T09:25:52Z</time></trkpt><trkpt lat="42.06362034253489" lon="12.714679712566731"><ele>97.0</ele><time>2026-04-12T09:25:53Z</time></trkpt><trkpt lat="42.06378759422695" lon="12.714769306253276"><ele>97.0</ele><time>2026-04-12T09:25:54Z</time></trkpt><trkpt lat="42.063970121124974" lon="12.714859378679535"><ele>97.0</ele><time>2026-04-12T09:25:55Z</time></trkpt><trkpt lat="42.064152411191685" lon="12.714962933104252"><ele>97.0</ele><time>2026-04-12T09:25:56Z</time></trkpt><trkpt lat="42.06433312424976" lon="12.715069414494106"><ele>97.0</ele><time>2026-04-12T09:25:57Z</time></trkpt><trkpt lat="42.06451342290192" lon="12.715180452298316"><ele>97.0</ele><time>2026-04-12T09:25:58Z</time></trkpt><trkpt lat="42.06469348919437" lon="12.715289809205245"><ele>96.66666666666667</ele><time>2026-04-12T09:25:59Z</time></trkpt><trkpt lat="42.06487554373337" lon="12.715399830470721"><ele>96.33333333333334</ele><time>2026-04-12T09:26:00Z</time></trkpt><trkpt lat="42.06505778451362" lon="12.715506696866452"><ele>96.0</ele><time>2026-04-12T09:26:01Z</time></trkpt><trkpt lat="42.065234578511266" lon="12.715617490737285"><ele>96.0</ele><time>2026-04-12T09:26:02Z</time></trkpt><trkpt lat="42.065417932756915" lon="12.715718720667596"><ele>96.0</ele><time>2026-04-12T09:26:03Z</time></trkpt><trkpt lat="42.06559182217655" lon="12.715821723522556"><ele>96.0</ele><time>2026-04-12T09:26:04Z</time></trkpt><trkpt lat="42.0657680708253" lon="12.715928790987963"><ele>95.0</ele><time>2026-04-12T09:26:05Z</time></trkpt><trkpt lat="42.06594031341577" lon="12.716031402320697"><ele>94.0</ele><time>2026-04-12T09:26:06Z</time></trkpt><trkpt lat="42.066112700122325" lon="12.716140496330986"><ele>93.0</ele><time>2026-04-12T09:26:07Z</time></trkpt><trkpt lat="42.066283150455504" lon="12.716249128853407"><ele>92.66666666666667</ele><time>2026-04-12T09:26:08Z</time></trkpt><trkpt lat="42.06645593333754" lon="12.716351495675719"><ele>92.33333333333334</ele><time>2026-04-12T09:26:09Z</time></trkpt><trkpt lat="42.066630163657216" lon="12.71644538076855"><ele>92.0</ele><time>2026-04-12T09:26:10Z</time></trkpt><trkpt lat="42.06680520920447" lon="12.716535871228054"><ele>92.0</ele><time>2026-04-12T09:26:10.999Z</time></trkpt><trkpt lat="42.06698172072791" lon="12.71662024325168"><ele>92.0</ele><time>2026-04-12T09:26:11.999Z</time></trkpt><trkpt lat="42.06716098004741" lon="12.716696573603738"><ele>92.0</ele><time>2026-04-12T09:26:12.999Z</time></trkpt><trkpt lat="42.067341848717575" lon="12.716760722287859"><ele>91.66666666666667</ele><time>2026-04-12T09:26:13.999Z</time></trkpt><trkpt lat="42.067524831058286" lon="12.716815646978114"><ele>91.33333333333333</ele><time>2026-04-12T09:26:14.999Z</time></trkpt><trkpt lat="42.06770556244048" lon="12.716868240795138"><ele>91.0</ele><time>2026-04-12T09:26:15.999Z</time></trkpt><trkpt lat="42.06787892560555" lon="12.716901915182437"><ele>93.0</ele><time>2026-04-12T09:26:16.999Z</time></trkpt><trkpt lat="42.06804650117897" lon="12.716927755815233"><ele>95.0</ele><time>2026-04-12T09:26:17.999Z</time></trkpt><trkpt lat="42.06820804462191" lon="12.71695056413156"><ele>97.0</ele><time>2026-04-12T09:26:18.999Z</time></trkpt><trkpt lat="42.06836889252309" lon="12.71697158248387"><ele>97.0</ele><time>2026-04-12T09:26:19.999Z</time></trkpt><trkpt lat="42.06853122575721" lon="12.716992541657117"><ele>97.0</ele><time>2026-04-12T09:26:20.999Z</time></trkpt><trkpt lat="42.06868919338864" lon="12.717011364200905"><ele>97.0</ele><time>2026-04-12T09:26:21.999Z</time></trkpt><trkpt lat="42.06884325601747" lon="12.717030523961938"><ele>97.0</ele><time>2026-04-12T09:26:22.999Z</time></trkpt><trkpt lat="42.0689891167298" lon="12.71705391071371"><ele>97.0</ele><time>2026-04-12T09:26:23.999Z</time></trkpt><trkpt lat="42.06913611962523" lon="12.717075585039332"><ele>97.0</ele><time>2026-04-12T09:26:24.999Z</time></trkpt><trkpt lat="42.06928137802432" lon="12.717100467623052"><ele>97.0</ele><time>2026-04-12T09:26:25.999Z</time></trkpt><trkpt lat="42.06942255293061" lon="12.71713161800726"><ele>96.5</ele><time>2026-04-12T09:26:26.999Z</time></trkpt><trkpt lat="42.0695524070107" lon="12.71716552117545"><ele>96.0</ele><time>2026-04-12T09:26:27.999Z</time></trkpt><trkpt lat="42.06967679476565" lon="12.717198892441113"><ele>95.5</ele><time>2026-04-12T09:26:28.999Z</time></trkpt><trkpt lat="42.06979068273608" lon="12.717229958546568"><ele>95.0</ele><time>2026-04-12T09:26:29.999Z</time></trkpt><trkpt lat="42.06989814552473" lon="12.717273998797541"><ele>94.25</ele><time>2026-04-12T09:26:30.999Z</time></trkpt><trkpt lat="42.07001260605368" lon="12.717329217518087"><ele>93.5</ele><time>2026-04-12T09:26:31.999Z</time></trkpt><trkpt lat="42.0701375961542" lon="12.717389589130198"><ele>92.75</ele><time>2026-04-12T09:26:32.999Z</time></trkpt><trkpt lat="42.07026927538883" lon="12.717463015075797"><ele>92.0</ele><time>2026-04-12T09:26:33.999Z</time></trkpt><trkpt lat="42.070407978997906" lon="12.717551220775091"><ele>92.0</ele><time>2026-04-12T09:26:34.999Z</time></trkpt><trkpt lat="42.07055151393536" lon="12.717651495302704"><ele>92.0</ele><time>2026-04-12T09:26:35.999Z</time></trkpt><trkpt lat="42.07070064379496" lon="12.717767883106145"><ele>92.0</ele><time>2026-04-12T09:26:36.999Z</time></trkpt><trkpt lat="42.070851649259545" lon="12.717899811385195"><ele>91.66666666666667</ele><time>2026-04-12T09:26:37.999Z</time></trkpt><trkpt lat="42.071005554790055" lon="12.718045064304752"><ele>91.33333333333333</ele><time>2026-04-12T09:26:38.999Z</time></trkpt><trkpt lat="42.071156229327954" lon="12.718198767107847"><ele>91.0</ele><time>2026-04-12T09:26:39.999Z</time></trkpt><trkpt lat="42.07130262231337" lon="12.718365688487093"><ele>91.0</ele><time>2026-04-12T09:26:40.999Z</time></trkpt><trkpt lat="42.071444040005616" lon="12.718541637874576"><ele>91.0</ele><time>2026-04-12T09:26:41.999Z</time></trkpt><trkpt lat="42.07158730573659" lon="12.718722769382836"><ele>91.0</ele><time>2026-04-12T09:26:42.999Z</time></trkpt><trkpt lat="42.071730490717705" lon="12.718897246512991"><ele>90.66666666666666</ele><time>2026-04-12T09:26:43.999Z</time></trkpt><trkpt lat="42.07186492601026" lon="12.719060225668976"><ele>90.33333333333333</ele><time>2026-04-12T09:26:44.999Z</time></trkpt><trkpt lat="42.07199511535556" lon="12.719211856643108"><ele>90.0</ele><time>2026-04-12T09:26:45.999Z</time></trkpt><trkpt lat="42.07211860634068" lon="12.719361282882629"><ele>90.0</ele><time>2026-04-12T09:26:46.999Z</time></trkpt><trkpt lat="42.07225319538553" lon="12.719510395439293"><ele>90.0</ele><time>2026-04-12T09:26:47.999Z</time></trkpt><trkpt lat="42.072398513786524" lon="12.719646445243836"><ele>90.0</ele><time>2026-04-12T09:26:48.999Z</time></trkpt><trkpt lat="42.072543407594914" lon="12.71977042579459"><ele>90.66666666666667</ele><time>2026-04-12T09:26:49.999Z</time></trkpt><trkpt lat="42.072684566648626" lon="12.719883191326122"><ele>91.33333333333334</ele><time>2026-04-12T09:26:50.999Z</time></trkpt><trkpt lat="42.07282452196876" lon="12.719983684209106"><ele>92.0</ele><time>2026-04-12T09:26:51.999Z</time></trkpt><trkpt lat="42.072959095462906" lon="12.72008108657202"><ele>92.0</ele><time>2026-04-12T09:26:52.999Z</time></trkpt><trkpt lat="42.0731006865953" lon="12.72018430578398"><ele>92.0</ele><time>2026-04-12T09:26:53.999Z</time></trkpt><trkpt lat="42.073247075990885" lon="12.720294901828225"><ele>92.0</ele><time>2026-04-12T09:26:54.999Z</time></trkpt><trkpt lat="42.073401398508175" lon="12.720399578416707"><ele>93.0</ele><time>2026-04-12T09:26:55.999Z</time></trkpt><trkpt lat="42.07355768969987" lon="12.72051297283417"><ele>94.0</ele><time>2026-04-12T09:26:56.999Z</time></trkpt><trkpt lat="42.07371488806235" lon="12.720626165053266"><ele>95.0</ele><time>2026-04-12T09:26:58.001Z</time></trkpt><trkpt lat="42.073869188687084" lon="12.720742092852557"><ele>95.0</ele><time>2026-04-12T09:26:59.001Z</time></trkpt><trkpt lat="42.07402411799554" lon="12.72085835924691"><ele>95.0</ele><time>2026-04-12T09:27:00.001Z</time></trkpt><trkpt lat="42.07417983410185" lon="12.720970047362375"><ele>95.0</ele><time>2026-04-12T09:27:01.001Z</time></trkpt><trkpt lat="42.074337248539294" lon="12.721084973040165"><ele>95.0</ele><time>2026-04-12T09:27:02.001Z</time></trkpt><trkpt lat="42.07449001750825" lon="12.721200241192625"><ele>95.0</ele><time>2026-04-12T09:27:03.001Z</time></trkpt><trkpt lat="42.07464355609643" lon="12.721315145867496"><ele>95.0</ele><time>2026-04-12T09:27:04.001Z</time></trkpt><trkpt lat="42.07480139038564" lon="12.721428805690202"><ele>95.33333333333334</ele><time>2026-04-12T09:27:05.001Z</time></trkpt><trkpt lat="42.074953199848544" lon="12.721542566507278"><ele>95.66666666666667</ele><time>2026-04-12T09:27:06.001Z</time></trkpt><trkpt lat="42.07510939994966" lon="12.72165952396025"><ele>96.0</ele><time>2026-04-12T09:27:07.001Z</time></trkpt><trkpt lat="42.07526782656984" lon="12.721774916919061"><ele>96.0</ele><time>2026-04-12T09:27:08.001Z</time></trkpt><trkpt lat="42.075428943403594" lon="12.72189201466476"><ele>96.0</ele><time>2026-04-12T09:27:09.001Z</time></trkpt><trkpt lat="42.07559084202424" lon="12.722008523447755"><ele>96.0</ele><time>2026-04-12T09:27:10.001Z</time></trkpt><trkpt lat="42.075753329150565" lon="12.722124911816808"><ele>97.0</ele><time>2026-04-12T09:27:11.001Z</time></trkpt><trkpt lat="42.075919212305955" lon="12.722246831665986"><ele>98.0</ele><time>2026-04-12T09:27:12.001Z</time></trkpt><trkpt lat="42.07608315442821" lon="12.722368663928492"><ele>99.0</ele><time>2026-04-12T09:27:13.001Z</time></trkpt><trkpt lat="42.07625062831956" lon="12.722488872333498"><ele>99.0</ele><time>2026-04-12T09:27:14.001Z</time></trkpt><trkpt lat="42.07641761992371" lon="12.722607460471538"><ele>99.0</ele><time>2026-04-12T09:27:15.001Z</time></trkpt><trkpt lat="42.07658138398791" lon="12.722731922821485"><ele>99.0</ele><time>2026-04-12T09:27:16.001Z</time></trkpt><trkpt lat="42.07674418486855" lon="12.722853320824848"><ele>99.33333333333334</ele><time>2026-04-12T09:27:17Z</time></trkpt><trkpt lat="42.07690687004524" lon="12.722971983979972"><ele>99.66666666666667</ele><time>2026-04-12T09:27:18Z</time></trkpt><trkpt lat="42.077066681129715" lon="12.723087826041526"><ele>100.0</ele><time>2026-04-12T09:27:19Z</time></trkpt><trkpt lat="42.077225047583354" lon="12.723205499587783"><ele>100.0</ele><time>2026-04-12T09:27:20Z</time></trkpt><trkpt lat="42.077381931399756" lon="12.723319507852677"><ele>100.0</ele><time>2026-04-12T09:27:21Z</time></trkpt><trkpt lat="42.07753502392573" lon="12.723431959328112"><ele>100.0</ele><time>2026-04-12T09:27:22Z</time></trkpt><trkpt lat="42.077687453071334" lon="12.723544323784685"><ele>100.66666666666667</ele><time>2026-04-12T09:27:23Z</time></trkpt><trkpt lat="42.07783600632754" lon="12.723654279644135"><ele>101.33333333333334</ele><time>2026-04-12T09:27:24Z</time></trkpt><trkpt lat="42.07798456817043" lon="12.72376387492134"><ele>102.0</ele><time>2026-04-12T09:27:25Z</time></trkpt><trkpt lat="42.078129653920925" lon="12.723872497428864"><ele>102.33333333333334</ele><time>2026-04-12T09:27:26Z</time></trkpt><trkpt lat="42.07827470458364" lon="12.723977161526697"><ele>102.66666666666667</ele><time>2026-04-12T09:27:27Z</time></trkpt><trkpt lat="42.07841514943349" lon="12.724079861327594"><ele>103.0</ele><time>2026-04-12T09:27:28Z</time></trkpt><trkpt lat="42.07854925536132" lon="12.72418528569366"><ele>103.0</ele><time>2026-04-12T09:27:29Z</time></trkpt><trkpt lat="42.078673546375654" lon="12.724296573872513"><ele>103.0</ele><time>2026-04-12T09:27:30Z</time></trkpt><trkpt lat="42.078799396926534" lon="12.724396477457796"><ele>103.0</ele><time>2026-04-12T09:27:31Z</time></trkpt><trkpt lat="42.07893084302919" lon="12.72448865802856"><ele>103.0</ele><time>2026-04-12T09:27:32Z</time></trkpt><trkpt lat="42.07908233046756" lon="12.724568148105597"><ele>104.33333333333334</ele><time>2026-04-12T09:27:33Z</time></trkpt><trkpt lat="42.079219995609535" lon="12.724665580818098"><ele>105.66666666666666</ele><time>2026-04-12T09:27:34Z</time></trkpt><trkpt lat="42.07935805925075" lon="12.724765793838916"><ele>107.0</ele><time>2026-04-12T09:27:35Z</time></trkpt><trkpt lat="42.079487858722786" lon="12.724861352898358"><ele>107.0</ele><time>2026-04-12T09:27:36Z</time></trkpt><trkpt lat="42.07961326410528" lon="12.724949100073456"><ele>107.0</ele><time>2026-04-12T09:27:37Z</time></trkpt><trkpt lat="42.079730961203694" lon="12.725038346846816"><ele>107.0</ele><time>2026-04-12T09:27:38Z</time></trkpt><trkpt lat="42.0798508045938" lon="12.725128999474823"><ele>107.0</ele><time>2026-04-12T09:27:39Z</time></trkpt><trkpt lat="42.07998240519819" lon="12.72522484691956"><ele>107.75</ele><time>2026-04-12T09:27:40Z</time></trkpt><trkpt lat="42.080120907070466" lon="12.725320679854825"><ele>108.5</ele><time>2026-04-12T09:27:41Z</time></trkpt><trkpt lat="42.08025436311116" lon="12.725417159129602"><ele>109.25</ele><time>2026-04-12T09:27:42Z</time></trkpt><trkpt lat="42.08037916290152" lon="12.72550881613583"><ele>110.0</ele><time>2026-04-12T09:27:43Z</time></trkpt><trkpt lat="42.08049522055025" lon="12.725594492545328"><ele>110.0</ele><time>2026-04-12T09:27:44Z</time></trkpt><trkpt lat="42.080607241206216" lon="12.72567454596733"><ele>110.0</ele><time>2026-04-12T09:27:45Z</time></trkpt><trkpt lat="42.08072462880793" lon="12.725756056530374"><ele>110.0</ele><time>2026-04-12T09:27:46Z</time></trkpt><trkpt lat="42.080853942799514" lon="12.725845899025297"><ele>110.0</ele><time>2026-04-12T09:27:47Z</time></trkpt><trkpt lat="42.080986316221846" lon="12.725950507041748"><ele>110.25</ele><time>2026-04-12T09:27:48Z</time></trkpt><trkpt lat="42.081118202602134" lon="12.726049521251985"><ele>110.5</ele><time>2026-04-12T09:27:49Z</time></trkpt><trkpt lat="42.08124925816101" lon="12.726144682441456"><ele>110.75</ele><time>2026-04-12T09:27:50Z</time></trkpt><trkpt lat="42.08136892565037" lon="12.726228821854932"><ele>111.0</ele><time>2026-04-12T09:27:51Z</time></trkpt><trkpt lat="42.081470599381475" lon="12.726304197418559"><ele>111.0</ele><time>2026-04-12T09:27:52Z</time></trkpt><trkpt lat="42.08155013391346" lon="12.726378319023457"><ele>111.0</ele><time>2026-04-12T09:27:53Z</time></trkpt><trkpt lat="42.081616848188155" lon="12.726458704812316"><ele>111.0</ele><time>2026-04-12T09:27:54Z</time></trkpt><trkpt lat="42.08166635934292" lon="12.726547559091799"><ele>111.0</ele><time>2026-04-12T09:27:55Z</time></trkpt><trkpt lat="42.081724661002184" lon="12.726750423223365"><ele>111.0</ele><time>2026-04-12T09:27:57Z</time></trkpt><trkpt lat="42.081743891133954" lon="12.726887403961829"><ele>111.0</ele><time>2026-04-12T09:27:58Z</time></trkpt><trkpt lat="42.0817453577648" lon="12.727021282552998"><ele>111.0</ele><time>2026-04-12T09:27:59Z</time></trkpt><trkpt lat="42.0817364094107" lon="12.727162753291914"><ele>111.0</ele><time>2026-04-12T09:28:00Z</time></trkpt><trkpt lat="42.08171385979858" lon="12.727311883547584"><ele>111.0</ele><time>2026-04-12T09:28:01Z</time></trkpt><trkpt lat="42.08168621918721" lon="12.727481449054993"><ele>111.0</ele><time>2026-04-12T09:28:02Z</time></trkpt><trkpt lat="42.08162538286286" lon="12.727894335110314"><ele>109.33333333333334</ele><time>2026-04-12T09:28:04Z</time></trkpt><trkpt lat="42.08159615737729" lon="12.728159094958524"><ele>107.66666666666667</ele><time>2026-04-12T09:28:05Z</time></trkpt><trkpt lat="42.08157916428613" lon="12.728452193661068"><ele>106.0</ele><time>2026-04-12T09:28:05.999Z</time></trkpt><trkpt lat="42.081576968487504" lon="12.72876475339805"><ele>106.0</ele><time>2026-04-12T09:28:06.999Z</time></trkpt><trkpt lat="42.08156886121784" lon="12.729053344015266"><ele>106.0</ele><time>2026-04-12T09:28:07.999Z</time></trkpt><trkpt lat="42.081555938227574" lon="12.729307226156882"><ele>106.0</ele><time>2026-04-12T09:28:08.999Z</time></trkpt><trkpt lat="42.08151859945554" lon="12.7295324610922"><ele>108.33333333333334</ele><time>2026-04-12T09:28:09.999Z</time></trkpt><trkpt lat="42.08147058433354" lon="12.729739336799318"><ele>110.66666666666666</ele><time>2026-04-12T09:28:10.999Z</time></trkpt><trkpt lat="42.08139322387707" lon="12.729942220728775"><ele>113.0</ele><time>2026-04-12T09:28:11.999Z</time></trkpt><trkpt lat="42.08128657305581" lon="12.730164317346135"><ele>114.33333333333333</ele><time>2026-04-12T09:28:12.999Z</time></trkpt><trkpt lat="42.0811922104434" lon="12.730378290953956"><ele>115.66666666666666</ele><time>2026-04-12T09:28:13.999Z</time></trkpt><trkpt lat="42.08109256009683" lon="12.730539169087395"><ele>117.0</ele><time>2026-04-12T09:28:14.999Z</time></trkpt><trkpt lat="42.08101222742661" lon="12.730693545083913"><ele>117.0</ele><time>2026-04-12T09:28:15.999Z</time></trkpt><trkpt lat="42.080944028665755" lon="12.730855686705016"><ele>117.0</ele><time>2026-04-12T09:28:16.999Z</time></trkpt><trkpt lat="42.0808893427191" lon="12.7310394384046"><ele>117.0</ele><time>2026-04-12T09:28:17.999Z</time></trkpt><trkpt lat="42.08084637896994" lon="12.731241827533594"><ele>117.0</ele><time>2026-04-12T09:28:18.999Z</time></trkpt><trkpt lat="42.08080835539425" lon="12.731443046296448"><ele>118.0</ele><time>2026-04-12T09:28:19.999Z</time></trkpt><trkpt lat="42.080781875678845" lon="12.731628187304992"><ele>119.0</ele><time>2026-04-12T09:28:20.999Z</time></trkpt><trkpt lat="42.08077369189813" lon="12.731817743175474"><ele>120.0</ele><time>2026-04-12T09:28:21.999Z</time></trkpt><trkpt lat="42.08078701357016" lon="12.732005416180993"><ele>121.0</ele><time>2026-04-12T09:28:22.999Z</time></trkpt><trkpt lat="42.08082147312444" lon="12.732196197073474"><ele>121.75</ele><time>2026-04-12T09:28:23.999Z</time></trkpt><trkpt lat="42.080853269034264" lon="12.732388818053211"><ele>122.5</ele><time>2026-04-12T09:28:24.999Z</time></trkpt><trkpt lat="42.0808877409637" lon="12.732579137546043"><ele>123.25</ele><time>2026-04-12T09:28:25.999Z</time></trkpt><trkpt lat="42.0809220800527" lon="12.732773242972264"><ele>124.0</ele><time>2026-04-12T09:28:26.999Z</time></trkpt><trkpt lat="42.080959002131536" lon="12.732968811347833"><ele>124.33333333333334</ele><time>2026-04-12T09:28:27.999Z</time></trkpt><trkpt lat="42.08099999134963" lon="12.733161401290142"><ele>124.66666666666666</ele><time>2026-04-12T09:28:28.999Z</time></trkpt><trkpt lat="42.08104864176261" lon="12.733354481769306"><ele>125.0</ele><time>2026-04-12T09:28:29.999Z</time></trkpt><trkpt lat="42.081109586553936" lon="12.73354675422523"><ele>126.66666666666666</ele><time>2026-04-12T09:28:30.999Z</time></trkpt><trkpt lat="42.08118613345639" lon="12.73373671081134"><ele>128.33333333333334</ele><time>2026-04-12T09:28:31.999Z</time></trkpt><trkpt lat="42.08128700017562" lon="12.733928500235312"><ele>130.0</ele><time>2026-04-12T09:28:32.999Z</time></trkpt><trkpt lat="42.0813963236237" lon="12.734103349240742"><ele>130.0</ele><time>2026-04-12T09:28:33.999Z</time></trkpt><trkpt lat="42.081494562060115" lon="12.73425651302862"><ele>130.0</ele><time>2026-04-12T09:28:34.999Z</time></trkpt><trkpt lat="42.08159736006658" lon="12.734409918178612"><ele>130.0</ele><time>2026-04-12T09:28:35.999Z</time></trkpt><trkpt lat="42.081698888688884" lon="12.734558634903317"><ele>131.5</ele><time>2026-04-12T09:28:36.999Z</time></trkpt><trkpt lat="42.08179436896463" lon="12.734702358974625"><ele>133.0</ele><time>2026-04-12T09:28:37.999Z</time></trkpt><trkpt lat="42.08188536215946" lon="12.734837172478032"><ele>134.5</ele><time>2026-04-12T09:28:38.999Z</time></trkpt><trkpt lat="42.081968541685015" lon="12.734966527686362"><ele>136.0</ele><time>2026-04-12T09:28:39.999Z</time></trkpt><trkpt lat="42.08205303570265" lon="12.735113835784617"><ele>137.75</ele><time>2026-04-12T09:28:40.999Z</time></trkpt><trkpt lat="42.0821351499401" lon="12.735272096175729"><ele>139.5</ele><time>2026-04-12T09:28:41.999Z</time></trkpt><trkpt lat="42.08219797117984" lon="12.735419289382001"><ele>141.25</ele><time>2026-04-12T09:28:42.999Z</time></trkpt><trkpt lat="42.08225105543479" lon="12.735574140405221"><ele>143.0</ele><time>2026-04-12T09:28:43.999Z</time></trkpt><trkpt lat="42.08228572783536" lon="12.735736847272841"><ele>143.0</ele><time>2026-04-12T09:28:44.999Z</time></trkpt><trkpt lat="42.08228337972026" lon="12.735909419980338"><ele>143.0</ele><time>2026-04-12T09:28:45.999Z</time></trkpt><trkpt lat="42.08227355292913" lon="12.7360984961869"><ele>143.0</ele><time>2026-04-12T09:28:46.999Z</time></trkpt><trkpt lat="42.082268250003274" lon="12.73631694538099"><ele>143.0</ele><time>2026-04-12T09:28:47.999Z</time></trkpt><trkpt lat="42.08223677320395" lon="12.736554755108465"><ele>145.0</ele><time>2026-04-12T09:28:48.999Z</time></trkpt><trkpt lat="42.08219483718538" lon="12.7368129923897"><ele>147.0</ele><time>2026-04-12T09:28:49.999Z</time></trkpt><trkpt lat="42.08213381719082" lon="12.737073438485819"><ele>149.0</ele><time>2026-04-12T09:28:50.999Z</time></trkpt><trkpt lat="42.08208367937129" lon="12.737291226321002"><ele>151.75</ele><time>2026-04-12T09:28:51.999Z</time></trkpt><trkpt lat="42.08204495221784" lon="12.737492501370022"><ele>154.5</ele><time>2026-04-12T09:28:52.999Z</time></trkpt><trkpt lat="42.08200903408155" lon="12.73767170932002"><ele>157.25</ele><time>2026-04-12T09:28:53.999Z</time></trkpt><trkpt lat="42.08198548943607" lon="12.737834838172496"><ele>160.0</ele><time>2026-04-12T09:28:54.999Z</time></trkpt><trkpt lat="42.08197477694619" lon="12.737980149418583"><ele>161.8</ele><time>2026-04-12T09:28:55.999Z</time></trkpt><trkpt lat="42.081975019023595" lon="12.738120861333298"><ele>163.6</ele><time>2026-04-12T09:28:56.999Z</time></trkpt><trkpt lat="42.08198169797949" lon="12.738265204217461"><ele>165.39999999999998</ele><time>2026-04-12T09:28:57.999Z</time></trkpt><trkpt lat="42.08197805337683" lon="12.738418966022985"><ele>167.2</ele><time>2026-04-12T09:28:58.999Z</time></trkpt><trkpt lat="42.08194750387847" lon="12.73857297957138"><ele>169.0</ele><time>2026-04-12T09:28:59.999Z</time></trkpt><trkpt lat="42.08187701978607" lon="12.73871754053924"><ele>169.75</ele><time>2026-04-12T09:29:00.999Z</time></trkpt><trkpt lat="42.08182269484109" lon="12.738877251736168"><ele>170.5</ele><time>2026-04-12T09:29:01.999Z</time></trkpt><trkpt lat="42.08174965321624" lon="12.739010334097271"><ele>171.25</ele><time>2026-04-12T09:29:03.001Z</time></trkpt><trkpt lat="42.08168466853463" lon="12.739134277571948"><ele>172.0</ele><time>2026-04-12T09:29:04.001Z</time></trkpt><trkpt lat="42.0816279276743" lon="12.739250991440473"><ele>171.16666666666669</ele><time>2026-04-12T09:29:05.001Z</time></trkpt><trkpt lat="42.081576117354956" lon="12.739363265098472"><ele>170.33333333333334</ele><time>2026-04-12T09:29:06.001Z</time></trkpt><trkpt lat="42.08153060292462" lon="12.739472226100467"><ele>169.5</ele><time>2026-04-12T09:29:07.001Z</time></trkpt><trkpt lat="42.0814902096012" lon="12.739577803045266"><ele>168.66666666666666</ele><time>2026-04-12T09:29:08.001Z</time></trkpt><trkpt lat="42.08145281568998" lon="12.739676135275094"><ele>167.83333333333331</ele><time>2026-04-12T09:29:09.001Z</time></trkpt><trkpt lat="42.081421117738" lon="12.7397738372883"><ele>167.0</ele><time>2026-04-12T09:29:10.001Z</time></trkpt><trkpt lat="42.08136938956474" lon="12.73998066304431"><ele>166.6</ele><time>2026-04-12T09:29:12.001Z</time></trkpt><trkpt lat="42.08133708074576" lon="12.74006425963858"><ele>166.2</ele><time>2026-04-12T09:29:13.001Z</time></trkpt><trkpt lat="42.08140260116608" lon="12.740274070430429"><ele>165.8</ele><time>2026-04-12T09:29:15.001Z</time></trkpt><trkpt lat="42.081451979098624" lon="12.740386623074405"><ele>165.4</ele><time>2026-04-12T09:29:16.001Z</time></trkpt><trkpt lat="42.08150696946175" lon="12.740517049229586"><ele>165.0</ele><time>2026-04-12T09:29:17.001Z</time></trkpt><trkpt lat="42.08158445263675" lon="12.740667126677637"><ele>167.0</ele><time>2026-04-12T09:29:18.001Z</time></trkpt><trkpt lat="42.08165087059203" lon="12.74082684643374"><ele>169.0</ele><time>2026-04-12T09:29:19Z</time></trkpt><trkpt lat="42.08172145416341" lon="12.740989387920397"><ele>171.0</ele><time>2026-04-12T09:29:20Z</time></trkpt><trkpt lat="42.08178146731704" lon="12.741163976466922"><ele>173.0</ele><time>2026-04-12T09:29:21Z</time></trkpt><trkpt lat="42.08185815377446" lon="12.741324012648182"><ele>174.4</ele><time>2026-04-12T09:29:22Z</time></trkpt><trkpt lat="42.08190670056519" lon="12.741476182960486"><ele>175.8</ele><time>2026-04-12T09:29:23Z</time></trkpt><trkpt lat="42.08194668589661" lon="12.741611254563589"><ele>177.2</ele><time>2026-04-12T09:29:24Z</time></trkpt><trkpt lat="42.08197908295056" lon="12.741743274229238"><ele>178.6</ele><time>2026-04-12T09:29:25Z</time></trkpt><trkpt lat="42.08199955247354" lon="12.741884632698694"><ele>180.0</ele><time>2026-04-12T09:29:26Z</time></trkpt><trkpt lat="42.08200969001521" lon="12.74202885176705"><ele>180.75</ele><time>2026-04-12T09:29:27Z</time></trkpt><trkpt lat="42.082006169262314" lon="12.742177832785684"><ele>181.5</ele><time>2026-04-12T09:29:28Z</time></trkpt><trkpt lat="42.08197455601349" lon="12.742330465018819"><ele>182.25</ele><time>2026-04-12T09:29:29Z</time></trkpt><trkpt lat="42.08194849977679" lon="12.742477358418292"><ele>183.0</ele><time>2026-04-12T09:29:30Z</time></trkpt><trkpt lat="42.08192118883693" lon="12.742627085712016"><ele>183.25</ele><time>2026-04-12T09:29:31Z</time></trkpt><trkpt lat="42.081893466751524" lon="12.742777655917857"><ele>183.5</ele><time>2026-04-12T09:29:32Z</time></trkpt><trkpt lat="42.0818750377799" lon="12.742928382745529"><ele>183.75</ele><time>2026-04-12T09:29:33Z</time></trkpt><trkpt lat="42.08184886811085" lon="12.743076386194467"><ele>184.0</ele><time>2026-04-12T09:29:34Z</time></trkpt><trkpt lat="42.08182194015463" lon="12.743219988393431"><ele>184.0</ele><time>2026-04-12T09:29:35Z</time></trkpt><trkpt lat="42.081794822372956" lon="12.743356394928522"><ele>184.0</ele><time>2026-04-12T09:29:36Z</time></trkpt><trkpt lat="42.08176863233271" lon="12.74349415736303"><ele>184.0</ele><time>2026-04-12T09:29:37Z</time></trkpt><trkpt lat="42.081743028080865" lon="12.743627827747687"><ele>184.0</ele><time>2026-04-12T09:29:38Z</time></trkpt><trkpt lat="42.081719660798534" lon="12.743758899304078"><ele>184.0</ele><time>2026-04-12T09:29:39Z</time></trkpt><trkpt lat="42.08170753316308" lon="12.743876348736556"><ele>183.79999999999998</ele><time>2026-04-12T09:29:40Z</time></trkpt><trkpt lat="42.08170568854627" lon="12.743983236588317"><ele>183.6</ele><time>2026-04-12T09:29:41Z</time></trkpt><trkpt lat="42.08170572021164" lon="12.744094044211653"><ele>183.4</ele><time>2026-04-12T09:29:42Z</time></trkpt><trkpt lat="42.081708754691846" lon="12.744227962617927"><ele>183.2</ele><time>2026-04-12T09:29:43Z</time></trkpt><trkpt lat="42.081713011659545" lon="12.744364534084111"><ele>183.0</ele><time>2026-04-12T09:29:44Z</time></trkpt><trkpt lat="42.08171928771602" lon="12.744498383679923"><ele>183.0</ele><time>2026-04-12T09:29:45Z</time></trkpt><trkpt lat="42.08172651773585" lon="12.744632763042986"><ele>183.0</ele><time>2026-04-12T09:29:46Z</time></trkpt><trkpt lat="42.08173219008935" lon="12.744757612188158"><ele>183.0</ele><time>2026-04-12T09:29:47Z</time></trkpt><trkpt lat="42.081742444440295" lon="12.744873227770421"><ele>183.0</ele><time>2026-04-12T09:29:48Z</time></trkpt><trkpt lat="42.081746073014266" lon="12.74499414751872"><ele>183.0</ele><time>2026-04-12T09:29:49Z</time></trkpt><trkpt lat="42.081743400246054" lon="12.745109999644393"><ele>183.0</ele><time>2026-04-12T09:29:50Z</time></trkpt><trkpt lat="42.08173890714394" lon="12.745221455619966"><ele>183.0</ele><time>2026-04-12T09:29:51Z</time></trkpt><trkpt lat="42.08173911352454" lon="12.745331233095333"><ele>183.0</ele><time>2026-04-12T09:29:52Z</time></trkpt><trkpt lat="42.08173813981541" lon="12.745440278433133"><ele>183.0</ele><time>2026-04-12T09:29:53Z</time></trkpt><trkpt lat="42.0817421877557" lon="12.745556094781573"><ele>183.0</ele><time>2026-04-12T09:29:54Z</time></trkpt><trkpt lat="42.08174729070617" lon="12.745674936317553"><ele>183.0</ele><time>2026-04-12T09:29:55Z</time></trkpt><trkpt lat="42.08176261500235" lon="12.745793716364835"><ele>183.0</ele><time>2026-04-12T09:29:56Z</time></trkpt><trkpt lat="42.08178819534201" lon="12.745923788295128"><ele>183.0</ele><time>2026-04-12T09:29:57Z</time></trkpt><trkpt lat="42.08182500621352" lon="12.746057016168733"><ele>183.0</ele><time>2026-04-12T09:29:58Z</time></trkpt><trkpt lat="42.08186937625929" lon="12.746188646066289"><ele>183.0</ele><time>2026-04-12T09:29:59Z</time></trkpt><trkpt lat="42.081912706750906" lon="12.74631698020467"><ele>183.0</ele><time>2026-04-12T09:30:00Z</time></trkpt><trkpt lat="42.081965571118346" lon="12.746436170461703"><ele>182.60000000000002</ele><time>2026-04-12T09:30:01Z</time></trkpt><trkpt lat="42.08201995749753" lon="12.746556486052862"><ele>182.20000000000002</ele><time>2026-04-12T09:30:02Z</time></trkpt><trkpt lat="42.08207413926135" lon="12.746684210494477"><ele>181.8</ele><time>2026-04-12T09:30:03Z</time></trkpt><trkpt lat="42.0821265228635" lon="12.746813365806977"><ele>181.4</ele><time>2026-04-12T09:30:04Z</time></trkpt><trkpt lat="42.082186249280234" lon="12.746943942014564"><ele>181.0</ele><time>2026-04-12T09:30:05Z</time></trkpt><trkpt lat="42.08223834343485" lon="12.74708364024396"><ele>182.75</ele><time>2026-04-12T09:30:06Z</time></trkpt><trkpt lat="42.08228857029334" lon="12.747226597490664"><ele>184.5</ele><time>2026-04-12T09:30:07Z</time></trkpt><trkpt lat="42.08233887154734" lon="12.747367921273595"><ele>186.25</ele><time>2026-04-12T09:30:08Z</time></trkpt><trkpt lat="42.082388190316074" lon="12.747504485710799"><ele>188.0</ele><time>2026-04-12T09:30:09Z</time></trkpt><trkpt lat="42.08243535636447" lon="12.747631525877187"><ele>190.2</ele><time>2026-04-12T09:30:10Z</time></trkpt><trkpt lat="42.082491183162155" lon="12.74774530722056"><ele>192.4</ele><time>2026-04-12T09:30:11Z</time></trkpt><trkpt lat="42.082560660315025" lon="12.747833817276089"><ele>194.6</ele><time>2026-04-12T09:30:11.999Z</time></trkpt><trkpt lat="42.08266177838812" lon="12.747892576534744"><ele>196.79999999999998</ele><time>2026-04-12T09:30:12.999Z</time></trkpt><trkpt lat="42.08279580540671" lon="12.747916441063252"><ele>199.0</ele><time>2026-04-12T09:30:13.999Z</time></trkpt><trkpt lat="42.08293794040497" lon="12.747928590839209"><ele>199.0</ele><time>2026-04-12T09:30:14.999Z</time></trkpt><trkpt lat="42.0830421000873" lon="12.747970010102886"><ele>199.0</ele><time>2026-04-12T09:30:15.999Z</time></trkpt><trkpt lat="42.0831406867379" lon="12.74802536769699"><ele>199.0</ele><time>2026-04-12T09:30:16.999Z</time></trkpt><trkpt lat="42.08324732484802" lon="12.74810301961556"><ele>199.0</ele><time>2026-04-12T09:30:17.999Z</time></trkpt><trkpt lat="42.083366644987684" lon="12.748180478642023"><ele>199.75</ele><time>2026-04-12T09:30:18.999Z</time></trkpt><trkpt lat="42.08346879151545" lon="12.748286038103522"><ele>200.5</ele><time>2026-04-12T09:30:19.999Z</time></trkpt><trkpt lat="42.083562615451505" lon="12.748388599835723"><ele>201.25</ele><time>2026-04-12T09:30:20.999Z</time></trkpt><trkpt lat="42.08365256250367" lon="12.74848126633364"><ele>202.0</ele><time>2026-04-12T09:30:21.999Z</time></trkpt><trkpt lat="42.083743148806036" lon="12.748571874488055"><ele>203.0</ele><time>2026-04-12T09:30:22.999Z</time></trkpt><trkpt lat="42.08383136040029" lon="12.74866687469348"><ele>204.0</ele><time>2026-04-12T09:30:23.999Z</time></trkpt><trkpt lat="42.08391426923261" lon="12.748765341979151"><ele>205.0</ele><time>2026-04-12T09:30:24.999Z</time></trkpt><trkpt lat="42.08399521452588" lon="12.74885829125633"><ele>206.0</ele><time>2026-04-12T09:30:25.999Z</time></trkpt><trkpt lat="42.084076542115966" lon="12.748942292940988"><ele>207.0</ele><time>2026-04-12T09:30:26.999Z</time></trkpt><trkpt lat="42.084155802466476" lon="12.749003802720571"><ele>207.0</ele><time>2026-04-12T09:30:27.999Z</time></trkpt><trkpt lat="42.0842275713333" lon="12.74904603106135"><ele>207.0</ele><time>2026-04-12T09:30:28.999Z</time></trkpt><trkpt lat="42.08430323364135" lon="12.749074037926516"><ele>207.0</ele><time>2026-04-12T09:30:29.999Z</time></trkpt><trkpt lat="42.08438600109409" lon="12.74909417428954"><ele>207.0</ele><time>2026-04-12T09:30:30.999Z</time></trkpt><trkpt lat="42.08448312571863" lon="12.749117549564637"><ele>207.0</ele><time>2026-04-12T09:30:31.999Z</time></trkpt><trkpt lat="42.08457780960465" lon="12.749152123629775"><ele>207.0</ele><time>2026-04-12T09:30:32.999Z</time></trkpt><trkpt lat="42.08463928237667" lon="12.749239030931573"><ele>207.0</ele><time>2026-04-12T09:30:33.999Z</time></trkpt><trkpt lat="42.08468775142139" lon="12.74932132213277"><ele>207.0</ele><time>2026-04-12T09:30:34.999Z</time></trkpt><trkpt lat="42.08473268916589" lon="12.749414601984297"><ele>207.0</ele><time>2026-04-12T09:30:35.999Z</time></trkpt><trkpt lat="42.084718544629766" lon="12.749534482019818"><ele>207.0</ele><time>2026-04-12T09:30:36.999Z</time></trkpt><trkpt lat="42.08471339236842" lon="12.749659137298504"><ele>207.0</ele><time>2026-04-12T09:30:37.999Z</time></trkpt><trkpt lat="42.08471596781236" lon="12.749810821915066"><ele>208.75</ele><time>2026-04-12T09:30:38.999Z</time></trkpt><trkpt lat="42.084712027107486" lon="12.749990762274857"><ele>210.5</ele><time>2026-04-12T09:30:39.999Z</time></trkpt><trkpt lat="42.08470478578438" lon="12.750178624163759"><ele>212.25</ele><time>2026-04-12T09:30:40.999Z</time></trkpt><trkpt lat="42.08468879365454" lon="12.750352761600535"><ele>214.0</ele><time>2026-04-12T09:30:41.999Z</time></trkpt><trkpt lat="42.08467418014732" lon="12.750500360037867"><ele>214.33333333333331</ele><time>2026-04-12T09:30:42.999Z</time></trkpt><trkpt lat="42.084657017447185" lon="12.750628194262433"><ele>214.66666666666666</ele><time>2026-04-12T09:30:43.999Z</time></trkpt><trkpt lat="42.08464178250301" lon="12.750744222202156"><ele>215.0</ele><time>2026-04-12T09:30:44.999Z</time></trkpt><trkpt lat="42.08462905367287" lon="12.750849931137534"><ele>215.33333333333331</ele><time>2026-04-12T09:30:45.999Z</time></trkpt><trkpt lat="42.08462391374762" lon="12.750951237335789"><ele>215.66666666666666</ele><time>2026-04-12T09:30:46.999Z</time></trkpt><trkpt lat="42.084627019922245" lon="12.751065633439833"><ele>216.0</ele><time>2026-04-12T09:30:47.999Z</time></trkpt><trkpt lat="42.08464175097837" lon="12.751181571387383"><ele>216.60000000000002</ele><time>2026-04-12T09:30:48.999Z</time></trkpt><trkpt lat="42.08467083965645" lon="12.751306892755483"><ele>217.20000000000002</ele><time>2026-04-12T09:30:49.999Z</time></trkpt><trkpt lat="42.084713253876835" lon="12.751429037452173"><ele>217.79999999999998</ele><time>2026-04-12T09:30:50.999Z</time></trkpt><trkpt lat="42.084764874188274" lon="12.75153889094926"><ele>218.39999999999998</ele><time>2026-04-12T09:30:51.999Z</time></trkpt><trkpt lat="42.084817774335974" lon="12.751656979022977"><ele>219.0</ele><time>2026-04-12T09:30:52.999Z</time></trkpt><trkpt lat="42.08486790807242" lon="12.751770010202364"><ele>219.0</ele><time>2026-04-12T09:30:53.999Z</time></trkpt><trkpt lat="42.084913369961484" lon="12.751885580636472"><ele>219.0</ele><time>2026-04-12T09:30:54.999Z</time></trkpt><trkpt lat="42.08494662887078" lon="12.75199724669619"><ele>219.0</ele><time>2026-04-12T09:30:55.999Z</time></trkpt><trkpt lat="42.08496259080725" lon="12.752104111779337"><ele>219.0</ele><time>2026-04-12T09:30:56.999Z</time></trkpt><trkpt lat="42.08496858084538" lon="12.752206242107121"><ele>219.0</ele><time>2026-04-12T09:30:57.999Z</time></trkpt><trkpt lat="42.084962383420965" lon="12.75232479370902"><ele>219.0</ele><time>2026-04-12T09:30:58.999Z</time></trkpt><trkpt lat="42.08493897871484" lon="12.752447918690093"><ele>219.2</ele><time>2026-04-12T09:30:59.999Z</time></trkpt><trkpt lat="42.08489448216772" lon="12.752571853189398"><ele>219.39999999999998</ele><time>2026-04-12T09:31:00.999Z</time></trkpt><trkpt lat="42.084835350198986" lon="12.752689775787202"><ele>219.6</ele><time>2026-04-12T09:31:01.999Z</time></trkpt><trkpt lat="42.084775713748535" lon="12.752809191224745"><ele>219.8</ele><time>2026-04-12T09:31:02.999Z</time></trkpt><trkpt lat="42.08471585330376" lon="12.752932123622166"><ele>220.0</ele><time>2026-04-12T09:31:03.999Z</time></trkpt><trkpt lat="42.08465725946553" lon="12.753056118644935"><ele>219.2</ele><time>2026-04-12T09:31:04.999Z</time></trkpt><trkpt lat="42.084603568328546" lon="12.753167274608211"><ele>218.4</ele><time>2026-04-12T09:31:05.999Z</time></trkpt><trkpt lat="42.084551908197184" lon="12.753270187161457"><ele>217.60000000000002</ele><time>2026-04-12T09:31:06.999Z</time></trkpt><trkpt lat="42.08450325931735" lon="12.753370817999484"><ele>216.8</ele><time>2026-04-12T09:31:08.001Z</time></trkpt><trkpt lat="42.08445501605485" lon="12.753466660118812"><ele>216.0</ele><time>2026-04-12T09:31:09.001Z</time></trkpt><trkpt lat="42.08441136312636" lon="12.75356349874651"><ele>215.0</ele><time>2026-04-12T09:31:10.001Z</time></trkpt><trkpt lat="42.084370082172356" lon="12.753659063305022"><ele>214.0</ele><time>2026-04-12T09:31:11.001Z</time></trkpt><trkpt lat="42.08432902764823" lon="12.753752963389957"><ele>213.0</ele><time>2026-04-12T09:31:12.001Z</time></trkpt><trkpt lat="42.084287174456215" lon="12.753847236237682"><ele>212.0</ele><time>2026-04-12T09:31:13.001Z</time></trkpt><trkpt lat="42.08424706802734" lon="12.753941881094743"><ele>211.0</ele><time>2026-04-12T09:31:14.001Z</time></trkpt><trkpt lat="42.08421806476242" lon="12.754046518462047"><ele>210.0</ele><time>2026-04-12T09:31:15.001Z</time></trkpt><trkpt lat="42.08420317293191" lon="12.754154126372566"><ele>210.0</ele><time>2026-04-12T09:31:16.001Z</time></trkpt><trkpt lat="42.084196503171825" lon="12.754271696842624"><ele>210.0</ele><time>2026-04-12T09:31:17.001Z</time></trkpt><trkpt lat="42.08419651291053" lon="12.754394359103078"><ele>210.0</ele><time>2026-04-12T09:31:18.001Z</time></trkpt><trkpt lat="42.08419103327209" lon="12.754529156726823"><ele>210.0</ele><time>2026-04-12T09:31:19.001Z</time></trkpt><trkpt lat="42.08418623053301" lon="12.75466386553573"><ele>210.0</ele><time>2026-04-12T09:31:20.001Z</time></trkpt><trkpt lat="42.084186162797174" lon="12.754793972479197"><ele>209.83333333333334</ele><time>2026-04-12T09:31:21.001Z</time></trkpt><trkpt lat="42.08418890909166" lon="12.75492849461356"><ele>209.66666666666669</ele><time>2026-04-12T09:31:22.001Z</time></trkpt><trkpt lat="42.084186085668065" lon="12.755056950275897"><ele>209.5</ele><time>2026-04-12T09:31:23Z</time></trkpt><trkpt lat="42.084173299405656" lon="12.75517163842608"><ele>209.33333333333334</ele><time>2026-04-12T09:31:24Z</time></trkpt><trkpt lat="42.08415359970794" lon="12.7552784891021"><ele>209.16666666666669</ele><time>2026-04-12T09:31:25Z</time></trkpt><trkpt lat="42.08411620259681" lon="12.755371493333213"><ele>209.0</ele><time>2026-04-12T09:31:26Z</time></trkpt><trkpt lat="42.08404740183193" lon="12.755435802139544"><ele>208.79999999999998</ele><time>2026-04-12T09:31:27Z</time></trkpt><trkpt lat="42.08396868878263" lon="12.755487991605595"><ele>208.6</ele><time>2026-04-12T09:31:28Z</time></trkpt><trkpt lat="42.083877604007334" lon="12.755526724341415"><ele>208.4</ele><time>2026-04-12T09:31:29Z</time></trkpt><trkpt lat="42.08377737584128" lon="12.755539975855376"><ele>208.2</ele><time>2026-04-12T09:31:30Z</time></trkpt><trkpt lat="42.08367324217635" lon="12.755562378906326"><ele>208.0</ele><time>2026-04-12T09:31:31Z</time></trkpt><trkpt lat="42.08357449471728" lon="12.755629001647561"><ele>208.0</ele><time>2026-04-12T09:31:32Z</time></trkpt><trkpt lat="42.08347822298691" lon="12.755696356441616"><ele>208.0</ele><time>2026-04-12T09:31:33Z</time></trkpt><trkpt lat="42.08338916919831" lon="12.755771740240393"><ele>208.0</ele><time>2026-04-12T09:31:34Z</time></trkpt><trkpt lat="42.08331880183775" lon="12.755841926854586"><ele>208.0</ele><time>2026-04-12T09:31:35Z</time></trkpt><trkpt lat="42.08324328985795" lon="12.755913058125984"><ele>208.0</ele><time>2026-04-12T09:31:37Z</time></trkpt><trkpt lat="42.08317627148852" lon="12.756015317034205"><ele>210.0</ele><time>2026-04-12T09:31:39Z</time></trkpt><trkpt lat="42.083138208452304" lon="12.756105865632232"><ele>212.0</ele><time>2026-04-12T09:31:40Z</time></trkpt><trkpt lat="42.08309281239256" lon="12.756199099801847"><ele>214.0</ele><time>2026-04-12T09:31:41Z</time></trkpt><trkpt lat="42.083050089288406" lon="12.756312218840602"><ele>216.0</ele><time>2026-04-12T09:31:42Z</time></trkpt><trkpt lat="42.08300322095891" lon="12.756431406644047"><ele>218.0</ele><time>2026-04-12T09:31:43Z</time></trkpt><trkpt lat="42.082952492212605" lon="12.756550452309362"><ele>218.0</ele><time>2026-04-12T09:31:44Z</time></trkpt><trkpt lat="42.08290472204594" lon="12.756671761375872"><ele>218.0</ele><time>2026-04-12T09:31:45Z</time></trkpt><trkpt lat="42.082860291816615" lon="12.756798961578797"><ele>218.0</ele><time>2026-04-12T09:31:46Z</time></trkpt><trkpt lat="42.08281184805941" lon="12.756929424651963"><ele>218.0</ele><time>2026-04-12T09:31:47Z</time></trkpt><trkpt lat="42.08276509106051" lon="12.757057864558124"><ele>218.0</ele><time>2026-04-12T09:31:48Z</time></trkpt><trkpt lat="42.08272401461558" lon="12.757184312962293"><ele>219.60000000000002</ele><time>2026-04-12T09:31:49Z</time></trkpt><trkpt lat="42.08268848683494" lon="12.757313663118738"><ele>221.20000000000002</ele><time>2026-04-12T09:31:50Z</time></trkpt><trkpt lat="42.08267863186194" lon="12.757451787745927"><ele>222.8</ele><time>2026-04-12T09:31:51Z</time></trkpt><trkpt lat="42.08268760847909" lon="12.757595914739097"><ele>224.4</ele><time>2026-04-12T09:31:52Z</time></trkpt><trkpt lat="42.08268198292133" lon="12.757748297035889"><ele>226.0</ele><time>2026-04-12T09:31:53Z</time></trkpt><trkpt lat="42.0827022063112" lon="12.757890887374295"><ele>227.60000000000002</ele><time>2026-04-12T09:31:54Z</time></trkpt><trkpt lat="42.082698193257535" lon="12.758032371067815"><ele>229.20000000000002</ele><time>2026-04-12T09:31:55Z</time></trkpt><trkpt lat="42.082687671139595" lon="12.758172527900912"><ele>230.79999999999998</ele><time>2026-04-12T09:31:56Z</time></trkpt><trkpt lat="42.082664833084685" lon="12.758306739740943"><ele>232.39999999999998</ele><time>2026-04-12T09:31:57Z</time></trkpt><trkpt lat="42.08263427155236" lon="12.758439937677107"><ele>234.0</ele><time>2026-04-12T09:31:58Z</time></trkpt><trkpt lat="42.08260301222029" lon="12.758569723107591"><ele>234.79999999999998</ele><time>2026-04-12T09:31:59Z</time></trkpt><trkpt lat="42.082580733342226" lon="12.758699846007074"><ele>235.59999999999997</ele><time>2026-04-12T09:32:00Z</time></trkpt><trkpt lat="42.082559392107804" lon="12.758826593837254"><ele>236.4</ele><time>2026-04-12T09:32:01Z</time></trkpt><trkpt lat="42.082596375392946" lon="12.758950237025289"><ele>237.2</ele><time>2026-04-12T09:32:02Z</time></trkpt><trkpt lat="42.08262939630493" lon="12.75906803224125"><ele>238.0</ele><time>2026-04-12T09:32:03Z</time></trkpt><trkpt lat="42.08267758018646" lon="12.75918835240175"><ele>238.0</ele><time>2026-04-12T09:32:04Z</time></trkpt><trkpt lat="42.08273536882368" lon="12.759305088716806"><ele>238.0</ele><time>2026-04-12T09:32:05Z</time></trkpt><trkpt lat="42.08279658310081" lon="12.759421610947287"><ele>238.0</ele><time>2026-04-12T09:32:06Z</time></trkpt><trkpt lat="42.08285938051945" lon="12.759540637428845"><ele>238.0</ele><time>2026-04-12T09:32:07Z</time></trkpt><trkpt lat="42.08290191186353" lon="12.759675168223465"><ele>238.0</ele><time>2026-04-12T09:32:08Z</time></trkpt><trkpt lat="42.08295514517898" lon="12.759796983975251"><ele>238.8</ele><time>2026-04-12T09:32:09Z</time></trkpt><trkpt lat="42.08300763430435" lon="12.759919011785874"><ele>239.60000000000002</ele><time>2026-04-12T09:32:10Z</time></trkpt><trkpt lat="42.0830649646108" lon="12.760036739822462"><ele>240.39999999999998</ele><time>2026-04-12T09:32:11Z</time></trkpt><trkpt lat="42.0831158174971" lon="12.760157801789475"><ele>241.2</ele><time>2026-04-12T09:32:12Z</time></trkpt><trkpt lat="42.08315749538106" lon="12.760276194261536"><ele>242.0</ele><time>2026-04-12T09:32:13Z</time></trkpt><trkpt lat="42.08316633025152" lon="12.760403261273568"><ele>244.0</ele><time>2026-04-12T09:32:13.999Z</time></trkpt><trkpt lat="42.08318271014367" lon="12.760531625187884"><ele>246.0</ele><time>2026-04-12T09:32:14.999Z</time></trkpt><trkpt lat="42.08319379522248" lon="12.760666309016484"><ele>248.0</ele><time>2026-04-12T09:32:15.999Z</time></trkpt><trkpt lat="42.083216807828606" lon="12.76079382879174"><ele>250.0</ele><time>2026-04-12T09:32:16.999Z</time></trkpt><trkpt lat="42.08322021811408" lon="12.760904622945738"><ele>252.0</ele><time>2026-04-12T09:32:17.999Z</time></trkpt><trkpt lat="42.08321647034372" lon="12.761007612584988"><ele>254.2</ele><time>2026-04-12T09:32:18.999Z</time></trkpt><trkpt lat="42.083205746232636" lon="12.761117104515318"><ele>256.4</ele><time>2026-04-12T09:32:19.999Z</time></trkpt><trkpt lat="42.08318618662487" lon="12.761233909013391"><ele>258.6</ele><time>2026-04-12T09:32:20.999Z</time></trkpt><trkpt lat="42.08315471814507" lon="12.761346884669546"><ele>260.8</ele><time>2026-04-12T09:32:21.999Z</time></trkpt><trkpt lat="42.08311421842635" lon="12.761461831313186"><ele>263.0</ele><time>2026-04-12T09:32:22.999Z</time></trkpt><trkpt lat="42.08306212952055" lon="12.761572854378418"><ele>263.0</ele><time>2026-04-12T09:32:23.999Z</time></trkpt><trkpt lat="42.08298187772525" lon="12.761662270075078"><ele>263.0</ele><time>2026-04-12T09:32:24.999Z</time></trkpt><trkpt lat="42.08290449479077" lon="12.76174633731849"><ele>263.0</ele><time>2026-04-12T09:32:25.999Z</time></trkpt><trkpt lat="42.08281997526104" lon="12.761826323794653"><ele>263.0</ele><time>2026-04-12T09:32:26.999Z</time></trkpt><trkpt lat="42.08273656262046" lon="12.761898691857683"><ele>263.0</ele><time>2026-04-12T09:32:27.999Z</time></trkpt><trkpt lat="42.082647417431495" lon="12.761960712095563"><ele>264.4</ele><time>2026-04-12T09:32:28.999Z</time></trkpt><trkpt lat="42.08255564931367" lon="12.762019315645029"><ele>265.8</ele><time>2026-04-12T09:32:29.999Z</time></trkpt><trkpt lat="42.08246590936357" lon="12.762080352029432"><ele>267.2</ele><time>2026-04-12T09:32:30.999Z</time></trkpt><trkpt lat="42.08237804589329" lon="12.762146842740473"><ele>268.6</ele><time>2026-04-12T09:32:31.999Z</time></trkpt><trkpt lat="42.08228938593219" lon="12.762207626235323"><ele>270.0</ele><time>2026-04-12T09:32:32.999Z</time></trkpt><trkpt lat="42.08219913253653" lon="12.762247196839873"><ele>272.4</ele><time>2026-04-12T09:32:33.999Z</time></trkpt><trkpt lat="42.082105027665854" lon="12.762234821990708"><ele>274.8</ele><time>2026-04-12T09:32:34.999Z</time></trkpt><trkpt lat="42.08201740406195" lon="12.762217316967206"><ele>277.2</ele><time>2026-04-12T09:32:35.999Z</time></trkpt><trkpt lat="42.08192871231123" lon="12.762200735292993"><ele>279.6</ele><time>2026-04-12T09:32:36.999Z</time></trkpt><trkpt lat="42.081835666378545" lon="12.762191197536787"><ele>282.0</ele><time>2026-04-12T09:32:37.999Z</time></trkpt><trkpt lat="42.08174615473255" lon="12.762157285821976"><ele>282.0</ele><time>2026-04-12T09:32:38.999Z</time></trkpt><trkpt lat="42.08165366947999" lon="12.762136596969986"><ele>282.0</ele><time>2026-04-12T09:32:39.999Z</time></trkpt><trkpt lat="42.08156373957082" lon="12.762117097970929"><ele>282.0</ele><time>2026-04-12T09:32:40.999Z</time></trkpt><trkpt lat="42.081476629336" lon="12.762110038421305"><ele>282.0</ele><time>2026-04-12T09:32:41.999Z</time></trkpt><trkpt lat="42.08140148256124" lon="12.762114491221196"><ele>282.0</ele><time>2026-04-12T09:32:42.999Z</time></trkpt><trkpt lat="42.08132223105586" lon="12.762151834825758"><ele>282.0</ele><time>2026-04-12T09:32:44.999Z</time></trkpt><trkpt lat="42.08139252456859" lon="12.762375500340031"><ele>282.0</ele><time>2026-04-12T09:32:49.999Z</time></trkpt><trkpt lat="42.0814799065888" lon="12.762410937145178"><ele>282.0</ele><time>2026-04-12T09:32:50.999Z</time></trkpt><trkpt lat="42.08155587203457" lon="12.762460935210061"><ele>282.0</ele><time>2026-04-12T09:32:51.999Z</time></trkpt><trkpt lat="42.0816397667927" lon="12.762536987546815"><ele>282.0</ele><time>2026-04-12T09:32:52.999Z</time></trkpt><trkpt lat="42.08172653039106" lon="12.762629401639051"><ele>282.0</ele><time>2026-04-12T09:32:53.999Z</time></trkpt><trkpt lat="42.0818155487909" lon="12.762724401829193"><ele>284.25</ele><time>2026-04-12T09:32:54.999Z</time></trkpt><trkpt lat="42.08191355686516" lon="12.762824838172941"><ele>286.5</ele><time>2026-04-12T09:32:55.999Z</time></trkpt><trkpt lat="42.08201987928539" lon="12.762922918478736"><ele>288.75</ele><time>2026-04-12T09:32:56.999Z</time></trkpt><trkpt lat="42.08212941090244" lon="12.76301838537252"><ele>291.0</ele><time>2026-04-12T09:32:57.999Z</time></trkpt><trkpt lat="42.08223839558292" lon="12.763113321166848"><ele>291.0</ele><time>2026-04-12T09:32:58.999Z</time></trkpt><trkpt lat="42.08234824867817" lon="12.763210692788475"><ele>291.0</ele><time>2026-04-12T09:32:59.999Z</time></trkpt><trkpt lat="42.08245614270235" lon="12.763311846329575"><ele>291.0</ele><time>2026-04-12T09:33:00.999Z</time></trkpt><trkpt lat="42.08255925283131" lon="12.76341287267834"><ele>291.0</ele><time>2026-04-12T09:33:01.999Z</time></trkpt><trkpt lat="42.082656091585925" lon="12.763506240686315"><ele>291.5</ele><time>2026-04-12T09:33:02.999Z</time></trkpt><trkpt lat="42.08275002373984" lon="12.763584650422157"><ele>292.0</ele><time>2026-04-12T09:33:03.999Z</time></trkpt><trkpt lat="42.08284993950371" lon="12.763654734877727"><ele>292.5</ele><time>2026-04-12T09:33:04.999Z</time></trkpt><trkpt lat="42.08294473740404" lon="12.763708818494777"><ele>293.0</ele><time>2026-04-12T09:33:05.999Z</time></trkpt><trkpt lat="42.083076685973275" lon="12.763805621766753"><ele>293.0</ele><time>2026-04-12T09:33:06.999Z</time></trkpt><trkpt lat="42.083187274436156" lon="12.763829726810386"><ele>293.0</ele><time>2026-04-12T09:33:07.999Z</time></trkpt><trkpt lat="42.08329030202714" lon="12.76384507371425"><ele>293.0</ele><time>2026-04-12T09:33:08.998Z</time></trkpt><trkpt lat="42.0833838925575" lon="12.763857781916302"><ele>293.0</ele><time>2026-04-12T09:33:09.998Z</time></trkpt><trkpt lat="42.083475486518935" lon="12.76390127276476"><ele>293.0</ele><time>2026-04-12T09:33:10.998Z</time></trkpt><trkpt lat="42.083553887237315" lon="12.763975675386304"><ele>292.25</ele><time>2026-04-12T09:33:11.998Z</time></trkpt><trkpt lat="42.08361219677946" lon="12.764095193131135"><ele>291.5</ele><time>2026-04-12T09:33:12.998Z</time></trkpt><trkpt lat="42.08368552908203" lon="12.764222509626846"><ele>290.75</ele><time>2026-04-12T09:33:14Z</time></trkpt><trkpt lat="42.083760614504506" lon="12.764359301387646"><ele>290.0</ele><time>2026-04-12T09:33:15Z</time></trkpt><trkpt lat="42.08385040246928" lon="12.764496073299524"><ele>290.0</ele><time>2026-04-12T09:33:16Z</time></trkpt><trkpt lat="42.08393502303776" lon="12.764643458533072"><ele>290.0</ele><time>2026-04-12T09:33:17Z</time></trkpt><trkpt lat="42.084001595793914" lon="12.764797048128923"><ele>290.0</ele><time>2026-04-12T09:33:18Z</time></trkpt><trkpt lat="42.08406506648485" lon="12.764940408754773"><ele>290.0</ele><time>2026-04-12T09:33:19Z</time></trkpt><trkpt lat="42.08411856051232" lon="12.76508553602052"><ele>286.0</ele><time>2026-04-12T09:33:20Z</time></trkpt><trkpt lat="42.08416813038146" lon="12.76523263033604"><ele>282.0</ele><time>2026-04-12T09:33:21Z</time></trkpt><trkpt lat="42.08421588340076" lon="12.765381276424632"><ele>278.0</ele><time>2026-04-12T09:33:22Z</time></trkpt><trkpt lat="42.08425622766634" lon="12.765529281402353"><ele>274.0</ele><time>2026-04-12T09:33:23Z</time></trkpt><trkpt lat="42.08428482110469" lon="12.765677080583849"><ele>274.0</ele><time>2026-04-12T09:33:24Z</time></trkpt><trkpt lat="42.084307697323275" lon="12.765828584402259"><ele>274.0</ele><time>2026-04-12T09:33:25Z</time></trkpt><trkpt lat="42.08432017754216" lon="12.765981532167245"><ele>274.0</ele><time>2026-04-12T09:33:26Z</time></trkpt><trkpt lat="42.08432308870376" lon="12.766127877507293"><ele>274.0</ele><time>2026-04-12T09:33:27Z</time></trkpt><trkpt lat="42.08431935232235" lon="12.766280047274352"><ele>273.5</ele><time>2026-04-12T09:33:28Z</time></trkpt><trkpt lat="42.08432544190538" lon="12.766435694566772"><ele>273.0</ele><time>2026-04-12T09:33:29Z</time></trkpt><trkpt lat="42.08431092355376" lon="12.766595046239827"><ele>272.5</ele><time>2026-04-12T09:33:30Z</time></trkpt><trkpt lat="42.084291871636275" lon="12.766762359267432"><ele>272.0</ele><time>2026-04-12T09:33:31Z</time></trkpt><trkpt lat="42.08424853739798" lon="12.766935966460611"><ele>270.5</ele><time>2026-04-12T09:33:32Z</time></trkpt><trkpt lat="42.084231806693445" lon="12.767122856147544"><ele>269.0</ele><time>2026-04-12T09:33:33Z</time></trkpt><trkpt lat="42.084196190470564" lon="12.7672946742646"><ele>267.5</ele><time>2026-04-12T09:33:34Z</time></trkpt><trkpt lat="42.08416675643894" lon="12.767460733496101"><ele>266.0</ele><time>2026-04-12T09:33:35Z</time></trkpt><trkpt lat="42.08414245744952" lon="12.767615508602027"><ele>263.75</ele><time>2026-04-12T09:33:36Z</time></trkpt><trkpt lat="42.08411955111413" lon="12.767768055707224"><ele>261.5</ele><time>2026-04-12T09:33:37Z</time></trkpt><trkpt lat="42.084090666093914" lon="12.76792009819292"><ele>259.25</ele><time>2026-04-12T09:33:38Z</time></trkpt><trkpt lat="42.08406267325224" lon="12.768082717910417"><ele>257.0</ele><time>2026-04-12T09:33:39Z</time></trkpt><trkpt lat="42.08404558005628" lon="12.768258172640873"><ele>263.25</ele><time>2026-04-12T09:33:40Z</time></trkpt><trkpt lat="42.08403143605218" lon="12.76843583104057"><ele>269.5</ele><time>2026-04-12T09:33:41Z</time></trkpt><trkpt lat="42.08402002648703" lon="12.768610654354458"><ele>275.75</ele><time>2026-04-12T09:33:42Z</time></trkpt><trkpt lat="42.08400861966432" lon="12.768776714137088"><ele>282.0</ele><time>2026-04-12T09:33:43Z</time></trkpt><trkpt lat="42.084002719802655" lon="12.768934938673851"><ele>282.0</ele><time>2026-04-12T09:33:44Z</time></trkpt><trkpt lat="42.08399972013591" lon="12.769088086362533"><ele>282.0</ele><time>2026-04-12T09:33:45Z</time></trkpt><trkpt lat="42.08399330996456" lon="12.769220519278681"><ele>282.0</ele><time>2026-04-12T09:33:46Z</time></trkpt><trkpt lat="42.08399341762028" lon="12.769333447405"><ele>282.0</ele><time>2026-04-12T09:33:47Z</time></trkpt><trkpt lat="42.08399757416954" lon="12.7694471090984"><ele>282.0</ele><time>2026-04-12T09:33:48Z</time></trkpt><trkpt lat="42.084002747942925" lon="12.769555185274994"><ele>281.1666666666667</ele><time>2026-04-12T09:33:49Z</time></trkpt><trkpt lat="42.083987506541476" lon="12.769658587958148"><ele>280.3333333333333</ele><time>2026-04-12T09:33:50Z</time></trkpt><trkpt lat="42.08400275756341" lon="12.7697621018774"><ele>279.5</ele><time>2026-04-12T09:33:51Z</time></trkpt><trkpt lat="42.08398663816598" lon="12.769871460011244"><ele>278.66666666666663</ele><time>2026-04-12T09:33:52Z</time></trkpt><trkpt lat="42.083987059797956" lon="12.76998797437398"><ele>277.8333333333333</ele><time>2026-04-12T09:33:53Z</time></trkpt><trkpt lat="42.084002391637" lon="12.770106012444847"><ele>277.0</ele><time>2026-04-12T09:33:54Z</time></trkpt><trkpt lat="42.08399781483465" lon="12.770224557270552"><ele>277.0</ele><time>2026-04-12T09:33:55Z</time></trkpt><trkpt lat="42.08399416160935" lon="12.770350318829259"><ele>277.0</ele><time>2026-04-12T09:33:56Z</time></trkpt><trkpt lat="42.08399381243836" lon="12.770472234175983"><ele>277.0</ele><time>2026-04-12T09:33:57Z</time></trkpt><trkpt lat="42.083988795207844" lon="12.770599751150938"><ele>277.0</ele><time>2026-04-12T09:33:58Z</time></trkpt><trkpt lat="42.08397665132925" lon="12.770727869728614"><ele>277.0</ele><time>2026-04-12T09:33:59Z</time></trkpt><trkpt lat="42.08395647773226" lon="12.770855581155725"><ele>277.0</ele><time>2026-04-12T09:34:00Z</time></trkpt><trkpt lat="42.08392435258727" lon="12.770990070250074"><ele>277.0</ele><time>2026-04-12T09:34:01Z</time></trkpt><trkpt lat="42.08387798906097" lon="12.771125739838217"><ele>277.0</ele><time>2026-04-12T09:34:02Z</time></trkpt><trkpt lat="42.083822488247435" lon="12.77125867289898"><ele>277.0</ele><time>2026-04-12T09:34:03Z</time></trkpt><trkpt lat="42.08377087723055" lon="12.771386625576952"><ele>277.0</ele><time>2026-04-12T09:34:04Z</time></trkpt><trkpt lat="42.08371131877717" lon="12.771516672048456"><ele>276.0</ele><time>2026-04-12T09:34:05Z</time></trkpt><trkpt lat="42.08365586636049" lon="12.771650208170646"><ele>275.0</ele><time>2026-04-12T09:34:06Z</time></trkpt><trkpt lat="42.083603994686925" lon="12.771773068260607"><ele>274.0</ele><time>2026-04-12T09:34:07Z</time></trkpt><trkpt lat="42.08358463774596" lon="12.771909430815438"><ele>273.0</ele><time>2026-04-12T09:34:08Z</time></trkpt><trkpt lat="42.08360620412122" lon="12.772055489207114"><ele>272.0</ele><time>2026-04-12T09:34:09Z</time></trkpt><trkpt lat="42.08363588703318" lon="12.772192055914697"><ele>270.75</ele><time>2026-04-12T09:34:10Z</time></trkpt><trkpt lat="42.08369298438373" lon="12.77231929320092"><ele>269.5</ele><time>2026-04-12T09:34:11Z</time></trkpt><trkpt lat="42.083782899832" lon="12.772439616247995"><ele>268.25</ele><time>2026-04-12T09:34:12Z</time></trkpt><trkpt lat="42.083895457804545" lon="12.772552125966707"><ele>267.0</ele><time>2026-04-12T09:34:13Z</time></trkpt><trkpt lat="42.08400512070323" lon="12.77266573988927"><ele>265.25</ele><time>2026-04-12T09:34:14Z</time></trkpt><trkpt lat="42.08411848486477" lon="12.772788900095646"><ele>263.5</ele><time>2026-04-12T09:34:15Z</time></trkpt><trkpt lat="42.08423285946242" lon="12.77290957207448"><ele>261.75</ele><time>2026-04-12T09:34:15.999Z</time></trkpt><trkpt lat="42.08434966847174" lon="12.773030524853436"><ele>260.0</ele><time>2026-04-12T09:34:16.999Z</time></trkpt><trkpt lat="42.084462227849755" lon="12.773150967236298"><ele>260.0</ele><time>2026-04-12T09:34:17.999Z</time></trkpt><trkpt lat="42.084574333680166" lon="12.773265862596242"><ele>260.0</ele><time>2026-04-12T09:34:18.999Z</time></trkpt><trkpt lat="42.084683626693526" lon="12.773380867688648"><ele>260.0</ele><time>2026-04-12T09:34:19.999Z</time></trkpt><trkpt lat="42.08479164117951" lon="12.773492738808345"><ele>260.0</ele><time>2026-04-12T09:34:20.999Z</time></trkpt><trkpt lat="42.08489676724097" lon="12.77359913158854"><ele>261.0</ele><time>2026-04-12T09:34:21.999Z</time></trkpt><trkpt lat="42.085005299282386" lon="12.773689882772048"><ele>262.0</ele><time>2026-04-12T09:34:22.999Z</time></trkpt><trkpt lat="42.08511464201867" lon="12.773761664594257"><ele>263.0</ele><time>2026-04-12T09:34:23.999Z</time></trkpt><trkpt lat="42.08523129162035" lon="12.773816249154837"><ele>264.0</ele><time>2026-04-12T09:34:24.999Z</time></trkpt><trkpt lat="42.0853571581663" lon="12.773856504168894"><ele>264.0</ele><time>2026-04-12T09:34:25.999Z</time></trkpt><trkpt lat="42.085479284428274" lon="12.77388604592585"><ele>264.0</ele><time>2026-04-12T09:34:26.999Z</time></trkpt><trkpt lat="42.08560639023307" lon="12.773935449398266"><ele>264.0</ele><time>2026-04-12T09:34:27.999Z</time></trkpt><trkpt lat="42.085729781619854" lon="12.773979461086778"><ele>264.0</ele><time>2026-04-12T09:34:28.999Z</time></trkpt><trkpt lat="42.08583429956938" lon="12.774053448094913"><ele>265.25</ele><time>2026-04-12T09:34:29.999Z</time></trkpt><trkpt lat="42.08591611991031" lon="12.774159581674313"><ele>266.5</ele><time>2026-04-12T09:34:30.999Z</time></trkpt><trkpt lat="42.08596319549523" lon="12.774304592886374"><ele>267.75</ele><time>2026-04-12T09:34:31.999Z</time></trkpt><trkpt lat="42.086019649011305" lon="12.774453098623653"><ele>269.0</ele><time>2026-04-12T09:34:32.999Z</time></trkpt><trkpt lat="42.0860770115485" lon="12.774612533921694"><ele>271.0</ele><time>2026-04-12T09:34:33.999Z</time></trkpt><trkpt lat="42.08615004610914" lon="12.774764183002876"><ele>273.0</ele><time>2026-04-12T09:34:34.999Z</time></trkpt><trkpt lat="42.08622244381736" lon="12.774909715516308"><ele>275.0</ele><time>2026-04-12T09:34:35.999Z</time></trkpt><trkpt lat="42.08631554769282" lon="12.775027070140943"><ele>277.0</ele><time>2026-04-12T09:34:36.999Z</time></trkpt><trkpt lat="42.086422100128644" lon="12.775114994828488"><ele>277.0</ele><time>2026-04-12T09:34:37.999Z</time></trkpt><trkpt lat="42.086533991810526" lon="12.775179354849172"><ele>277.0</ele><time>2026-04-12T09:34:38.999Z</time></trkpt><trkpt lat="42.08664831247474" lon="12.775226686776879"><ele>277.0</ele><time>2026-04-12T09:34:39.999Z</time></trkpt><trkpt lat="42.086762874062764" lon="12.775271805177761"><ele>277.0</ele><time>2026-04-12T09:34:40.999Z</time></trkpt><trkpt lat="42.08687055129004" lon="12.775327225592822"><ele>277.75</ele><time>2026-04-12T09:34:41.999Z</time></trkpt><trkpt lat="42.08697668230061" lon="12.775410333403682"><ele>278.5</ele><time>2026-04-12T09:34:42.999Z</time></trkpt><trkpt lat="42.087076131755715" lon="12.775516176046873"><ele>279.25</ele><time>2026-04-12T09:34:43.999Z</time></trkpt><trkpt lat="42.08717544525072" lon="12.775625676272817"><ele>280.0</ele><time>2026-04-12T09:34:44.999Z</time></trkpt><trkpt lat="42.087282684783865" lon="12.775725768127204"><ele>280.0</ele><time>2026-04-12T09:34:45.999Z</time></trkpt><trkpt lat="42.08738801616142" lon="12.775814103054818"><ele>280.0</ele><time>2026-04-12T09:34:46.999Z</time></trkpt><trkpt lat="42.0874874828433" lon="12.775898839822878"><ele>280.0</ele><time>2026-04-12T09:34:47.999Z</time></trkpt><trkpt lat="42.08759523536766" lon="12.775962011134993"><ele>280.0</ele><time>2026-04-12T09:34:48.999Z</time></trkpt><trkpt lat="42.08770618219345" lon="12.776000916822584"><ele>279.5</ele><time>2026-04-12T09:34:49.999Z</time></trkpt><trkpt lat="42.08782252607519" lon="12.77603704038377"><ele>279.0</ele><time>2026-04-12T09:34:50.999Z</time></trkpt><trkpt lat="42.08793509811058" lon="12.776051159442247"><ele>278.5</ele><time>2026-04-12T09:34:51.999Z</time></trkpt><trkpt lat="42.088046088228914" lon="12.77605166242393"><ele>278.0</ele><time>2026-04-12T09:34:52.999Z</time></trkpt><trkpt lat="42.08815179058444" lon="12.776031281291186"><ele>276.75</ele><time>2026-04-12T09:34:53.999Z</time></trkpt><trkpt lat="42.08824673014047" lon="12.775977238905913"><ele>275.5</ele><time>2026-04-12T09:34:54.999Z</time></trkpt><trkpt lat="42.088338307247525" lon="12.775879432856945"><ele>274.25</ele><time>2026-04-12T09:34:55.999Z</time></trkpt><trkpt lat="42.088423045336555" lon="12.775755065898156"><ele>273.0</ele><time>2026-04-12T09:34:56.999Z</time></trkpt><trkpt lat="42.0885073645762" lon="12.775626682403672"><ele>272.5</ele><time>2026-04-12T09:34:57.999Z</time></trkpt><trkpt lat="42.08859535303808" lon="12.775500073174568"><ele>272.0</ele><time>2026-04-12T09:34:58.999Z</time></trkpt><trkpt lat="42.08868684936968" lon="12.77537463929318"><ele>271.5</ele><time>2026-04-12T09:34:59.999Z</time></trkpt><trkpt lat="42.08878780639809" lon="12.775258586744469"><ele>271.0</ele><time>2026-04-12T09:35:00.999Z</time></trkpt><trkpt lat="42.08890208237526" lon="12.775173943289694"><ele>270.75</ele><time>2026-04-12T09:35:01.999Z</time></trkpt><trkpt lat="42.08902885566613" lon="12.775111291317552"><ele>270.5</ele><time>2026-04-12T09:35:02.999Z</time></trkpt><trkpt lat="42.089158946311244" lon="12.775059902316402"><ele>270.25</ele><time>2026-04-12T09:35:03.999Z</time></trkpt><trkpt lat="42.08928699529401" lon="12.775005108608461"><ele>270.0</ele><time>2026-04-12T09:35:04.999Z</time></trkpt><trkpt lat="42.08941597161648" lon="12.774955100319014"><ele>270.0</ele><time>2026-04-12T09:35:05.999Z</time></trkpt><trkpt lat="42.089541384761475" lon="12.774903895120824"><ele>270.0</ele><time>2026-04-12T09:35:06.999Z</time></trkpt><trkpt lat="42.089664832514906" lon="12.774856689666393"><ele>270.0</ele><time>2026-04-12T09:35:07.999Z</time></trkpt><trkpt lat="42.08978155860572" lon="12.77481284655625"><ele>270.0</ele><time>2026-04-12T09:35:08.999Z</time></trkpt><trkpt lat="42.089888667890264" lon="12.774776659981551"><ele>271.3333333333333</ele><time>2026-04-12T09:35:09.998Z</time></trkpt><trkpt lat="42.08998838549466" lon="12.774747912290549"><ele>272.6666666666667</ele><time>2026-04-12T09:35:10.998Z</time></trkpt><trkpt lat="42.09008201875573" lon="12.774733017581518"><ele>274.0</ele><time>2026-04-12T09:35:11.998Z</time></trkpt><trkpt lat="42.090164977776226" lon="12.774740820012575"><ele>275.33333333333337</ele><time>2026-04-12T09:35:12.998Z</time></trkpt><trkpt lat="42.09023823996237" lon="12.774761402826533"><ele>276.6666666666667</ele><time>2026-04-12T09:35:13.998Z</time></trkpt><trkpt lat="42.090302767838644" lon="12.77479435602687"><ele>278.0</ele><time>2026-04-12T09:35:14.998Z</time></trkpt><trkpt lat="42.090392838840785" lon="12.774894673997746"><ele>278.0</ele><time>2026-04-12T09:35:16.998Z</time></trkpt><trkpt lat="42.090439853908606" lon="12.775009821320145"><ele>278.0</ele><time>2026-04-12T09:35:19Z</time></trkpt><trkpt lat="42.09052240560836" lon="12.775083786057559"><ele>278.0</ele><time>2026-04-12T09:35:21Z</time></trkpt><trkpt lat="42.09065088012969" lon="12.77508172152333"><ele>278.0</ele><time>2026-04-12T09:35:23Z</time></trkpt><trkpt lat="42.09071552959067" lon="12.775091459282894"><ele>278.0</ele><time>2026-04-12T09:35:24Z</time></trkpt><trkpt lat="42.09078092794281" lon="12.775119927430891"><ele>278.33333333333337</ele><time>2026-04-12T09:35:25Z</time></trkpt><trkpt lat="42.090846509774124" lon="12.775157304250685"><ele>278.6666666666667</ele><time>2026-04-12T09:35:26Z</time></trkpt><trkpt lat="42.09091662688404" lon="12.775204905140955"><ele>279.0</ele><time>2026-04-12T09:35:27Z</time></trkpt><trkpt lat="42.09098352233386" lon="12.775252566075704"><ele>279.3333333333333</ele><time>2026-04-12T09:35:28Z</time></trkpt><trkpt lat="42.09105978615382" lon="12.775316562585319"><ele>279.66666666666663</ele><time>2026-04-12T09:35:29Z</time></trkpt><trkpt lat="42.091140072130045" lon="12.775388516538776"><ele>280.0</ele><time>2026-04-12T09:35:30Z</time></trkpt><trkpt lat="42.0912262559539" lon="12.775465544727616"><ele>280.2</ele><time>2026-04-12T09:35:31Z</time></trkpt><trkpt lat="42.09132557289651" lon="12.775543895088328"><ele>280.4</ele><time>2026-04-12T09:35:32Z</time></trkpt><trkpt lat="42.09141277388856" lon="12.77561147218154"><ele>280.6</ele><time>2026-04-12T09:35:33Z</time></trkpt><trkpt lat="42.091503286098856" lon="12.77568325770704"><ele>280.8</ele><time>2026-04-12T09:35:34Z</time></trkpt><trkpt lat="42.091593524596355" lon="12.775756060789977"><ele>281.0</ele><time>2026-04-12T09:35:35Z</time></trkpt><trkpt lat="42.091668762876395" lon="12.775816931750596"><ele>279.5</ele><time>2026-04-12T09:35:36Z</time></trkpt><trkpt lat="42.09175294340268" lon="12.77585809985228"><ele>278.0</ele><time>2026-04-12T09:35:37Z</time></trkpt><trkpt lat="42.09183649057656" lon="12.77587955008724"><ele>276.5</ele><time>2026-04-12T09:35:38Z</time></trkpt><trkpt lat="42.09192014366992" lon="12.775835592316946"><ele>275.0</ele><time>2026-04-12T09:35:39Z</time></trkpt><trkpt lat="42.091987643882696" lon="12.775752857028442"><ele>273.5</ele><time>2026-04-12T09:35:40Z</time></trkpt><trkpt lat="42.0920452026788" lon="12.7756548675412"><ele>272.0</ele><time>2026-04-12T09:35:41Z</time></trkpt><trkpt lat="42.09210830530698" lon="12.775540613550191"><ele>272.0</ele><time>2026-04-12T09:35:42Z</time></trkpt><trkpt lat="42.09217766240157" lon="12.775424600131652"><ele>272.0</ele><time>2026-04-12T09:35:43Z</time></trkpt><trkpt lat="42.09224957483633" lon="12.775304277216593"><ele>272.0</ele><time>2026-04-12T09:35:44Z</time></trkpt><trkpt lat="42.09231792108216" lon="12.775187749499498"><ele>272.0</ele><time>2026-04-12T09:35:45Z</time></trkpt><trkpt lat="42.092388004597616" lon="12.77507874167428"><ele>272.0</ele><time>2026-04-12T09:35:46Z</time></trkpt><trkpt lat="42.09246223754534" lon="12.774975360368078"><ele>270.25</ele><time>2026-04-12T09:35:47Z</time></trkpt><trkpt lat="42.09253761138794" lon="12.774871234465877"><ele>268.5</ele><time>2026-04-12T09:35:48Z</time></trkpt><trkpt lat="42.09262150225736" lon="12.774764726020164"><ele>266.75</ele><time>2026-04-12T09:35:49Z</time></trkpt><trkpt lat="42.09271350173853" lon="12.77465846901493"><ele>265.0</ele><time>2026-04-12T09:35:50Z</time></trkpt><trkpt lat="42.09280909652977" lon="12.77455147127233"><ele>265.0</ele><time>2026-04-12T09:35:51Z</time></trkpt><trkpt lat="42.092904887984545" lon="12.77443438936544"><ele>265.0</ele><time>2026-04-12T09:35:52Z</time></trkpt><trkpt lat="42.0929980681659" lon="12.774307297166573"><ele>265.0</ele><time>2026-04-12T09:35:53Z</time></trkpt><trkpt lat="42.09308604463647" lon="12.774172584184544"><ele>265.0</ele><time>2026-04-12T09:35:54Z</time></trkpt><trkpt lat="42.093168015742414" lon="12.774038351737556"><ele>265.75</ele><time>2026-04-12T09:35:55Z</time></trkpt><trkpt lat="42.09324684215225" lon="12.773900163309255"><ele>266.5</ele><time>2026-04-12T09:35:56Z</time></trkpt><trkpt lat="42.093326188943955" lon="12.773762395365662"><ele>267.25</ele><time>2026-04-12T09:35:57Z</time></trkpt><trkpt lat="42.09340660436932" lon="12.773625791952504"><ele>268.0</ele><time>2026-04-12T09:35:58Z</time></trkpt><trkpt lat="42.093488147532184" lon="12.77349561302831"><ele>265.6</ele><time>2026-04-12T09:35:59Z</time></trkpt><trkpt lat="42.09356632224364" lon="12.77337517275855"><ele>263.20000000000005</ele><time>2026-04-12T09:36:00Z</time></trkpt><trkpt lat="42.09364028171957" lon="12.773273898432052"><ele>260.8</ele><time>2026-04-12T09:36:01Z</time></trkpt><trkpt lat="42.09372052696221" lon="12.773193529844393"><ele>258.40000000000003</ele><time>2026-04-12T09:36:02Z</time></trkpt><trkpt lat="42.09380652082505" lon="12.773137267835123"><ele>256.0</ele><time>2026-04-12T09:36:03Z</time></trkpt><trkpt lat="42.09390411169126" lon="12.773107611962196"><ele>256.0</ele><time>2026-04-12T09:36:04Z</time></trkpt><trkpt lat="42.09400689993828" lon="12.773111587605607"><ele>256.0</ele><time>2026-04-12T09:36:05Z</time></trkpt><trkpt lat="42.09411048609558" lon="12.773144589075525"><ele>256.0</ele><time>2026-04-12T09:36:06Z</time></trkpt><trkpt lat="42.09421418758068" lon="12.773186176030524"><ele>256.0</ele><time>2026-04-12T09:36:07Z</time></trkpt><trkpt lat="42.09431588651418" lon="12.773237161224957"><ele>256.0</ele><time>2026-04-12T09:36:08Z</time></trkpt><trkpt lat="42.09442855790042" lon="12.773280949619485"><ele>254.4</ele><time>2026-04-12T09:36:09Z</time></trkpt><trkpt lat="42.0945414465742" lon="12.773318886927157"><ele>252.8</ele><time>2026-04-12T09:36:10Z</time></trkpt><trkpt lat="42.094644566654566" lon="12.773364078476728"><ele>251.20000000000002</ele><time>2026-04-12T09:36:11Z</time></trkpt><trkpt lat="42.094735479560846" lon="12.773415634692178"><ele>249.60000000000002</ele><time>2026-04-12T09:36:12Z</time></trkpt><trkpt lat="42.09480415845598" lon="12.77349834864073"><ele>248.0</ele><time>2026-04-12T09:36:13Z</time></trkpt><trkpt lat="42.094841204390306" lon="12.773599843557609"><ele>248.0</ele><time>2026-04-12T09:36:14Z</time></trkpt><trkpt lat="42.09484941333172" lon="12.773715246798043"><ele>248.0</ele><time>2026-04-12T09:36:15Z</time></trkpt><trkpt lat="42.09482734447851" lon="12.773835222721958"><ele>248.0</ele><time>2026-04-12T09:36:16Z</time></trkpt><trkpt lat="42.09479479907399" lon="12.77395372131455"><ele>248.0</ele><time>2026-04-12T09:36:17Z</time></trkpt><trkpt lat="42.09476967619775" lon="12.774076189243168"><ele>248.0</ele><time>2026-04-12T09:36:17.999Z</time></trkpt><trkpt lat="42.09474644843792" lon="12.774210752781997"><ele>248.0</ele><time>2026-04-12T09:36:18.999Z</time></trkpt><trkpt lat="42.094725602376805" lon="12.774349043572519"><ele>248.0</ele><time>2026-04-12T09:36:19.999Z</time></trkpt><trkpt lat="42.094710075549564" lon="12.77449203567376"><ele>248.0</ele><time>2026-04-12T09:36:20.999Z</time></trkpt><trkpt lat="42.094700391637346" lon="12.77464302895571"><ele>248.0</ele><time>2026-04-12T09:36:21.999Z</time></trkpt><trkpt lat="42.0947004859434" lon="12.774795368902918"><ele>248.0</ele><time>2026-04-12T09:36:22.999Z</time></trkpt><trkpt lat="42.09471309567921" lon="12.774954668055853"><ele>249.0</ele><time>2026-04-12T09:36:23.999Z</time></trkpt><trkpt lat="42.094722319623635" lon="12.775117973789273"><ele>250.0</ele><time>2026-04-12T09:36:24.999Z</time></trkpt><trkpt lat="42.09471872183051" lon="12.775284823029116"><ele>251.0</ele><time>2026-04-12T09:36:25.999Z</time></trkpt><trkpt lat="42.09470302105887" lon="12.775442093057585"><ele>252.0</ele><time>2026-04-12T09:36:26.999Z</time></trkpt><trkpt lat="42.094678225129" lon="12.775583744536323"><ele>253.75</ele><time>2026-04-12T09:36:27.999Z</time></trkpt><trkpt lat="42.09464149032579" lon="12.77573503514107"><ele>255.5</ele><time>2026-04-12T09:36:28.999Z</time></trkpt><trkpt lat="42.09460148962039" lon="12.775876570560257"><ele>257.25</ele><time>2026-04-12T09:36:29.999Z</time></trkpt><trkpt lat="42.09457463521813" lon="12.776029813949584"><ele>259.0</ele><time>2026-04-12T09:36:30.999Z</time></trkpt><trkpt lat="42.09455286673124" lon="12.776177554289278"><ele>259.8</ele><time>2026-04-12T09:36:31.999Z</time></trkpt><trkpt lat="42.09454186251964" lon="12.776314073770967"><ele>260.59999999999997</ele><time>2026-04-12T09:36:32.999Z</time></trkpt><trkpt lat="42.0945370429261" lon="12.776449195059275"><ele>261.4</ele><time>2026-04-12T09:36:33.999Z</time></trkpt><trkpt lat="42.09454052288744" lon="12.776587368578978"><ele>262.2</ele><time>2026-04-12T09:36:34.999Z</time></trkpt><trkpt lat="42.09456067568949" lon="12.77672459547269"><ele>263.0</ele><time>2026-04-12T09:36:35.999Z</time></trkpt><trkpt lat="42.094602884255465" lon="12.776857791001518"><ele>263.5</ele><time>2026-04-12T09:36:36.999Z</time></trkpt><trkpt lat="42.09466719871226" lon="12.776985983461108"><ele>264.0</ele><time>2026-04-12T09:36:37.999Z</time></trkpt><trkpt lat="42.09474604675245" lon="12.77710052874523"><ele>264.5</ele><time>2026-04-12T09:36:38.999Z</time></trkpt><trkpt lat="42.09483402858453" lon="12.777208097996317"><ele>265.0</ele><time>2026-04-12T09:36:39.999Z</time></trkpt><trkpt lat="42.094926793756784" lon="12.77731127364126"><ele>265.0</ele><time>2026-04-12T09:36:40.999Z</time></trkpt><trkpt lat="42.09502968213128" lon="12.777409946963477"><ele>265.0</ele><time>2026-04-12T09:36:41.999Z</time></trkpt><trkpt lat="42.09513687708318" lon="12.77750250477916"><ele>265.0</ele><time>2026-04-12T09:36:42.999Z</time></trkpt><trkpt lat="42.09524663033173" lon="12.777597906848271"><ele>265.0</ele><time>2026-04-12T09:36:43.999Z</time></trkpt><trkpt lat="42.095356719508715" lon="12.77769104793564"><ele>265.0</ele><time>2026-04-12T09:36:44.999Z</time></trkpt><trkpt lat="42.09546529776399" lon="12.777786086915345"><ele>265.0</ele><time>2026-04-12T09:36:45.999Z</time></trkpt><trkpt lat="42.09556677169334" lon="12.777874782032216"><ele>265.0</ele><time>2026-04-12T09:36:46.999Z</time></trkpt><trkpt lat="42.09566907165875" lon="12.77795027352517"><ele>265.0</ele><time>2026-04-12T09:36:47.999Z</time></trkpt><trkpt lat="42.09577007583215" lon="12.778012555378972"><ele>265.25</ele><time>2026-04-12T09:36:48.999Z</time></trkpt><trkpt lat="42.09586886127699" lon="12.778063498580234"><ele>265.5</ele><time>2026-04-12T09:36:49.999Z</time></trkpt><trkpt lat="42.0960856217102" lon="12.778116772042114"><ele>265.75</ele><time>2026-04-12T09:36:51.999Z</time></trkpt><trkpt lat="42.09619051611863" lon="12.778108504300919"><ele>266.0</ele><time>2026-04-12T09:36:52.999Z</time></trkpt><trkpt lat="42.09628665874731" lon="12.778079519037158"><ele>266.0</ele><time>2026-04-12T09:36:53.999Z</time></trkpt><trkpt lat="42.09637247828116" lon="12.778042958328298"><ele>266.0</ele><time>2026-04-12T09:36:54.999Z</time></trkpt><trkpt lat="42.096449238878144" lon="12.7780013613088"><ele>266.0</ele><time>2026-04-12T09:36:55.999Z</time></trkpt><trkpt lat="42.09652014538376" lon="12.777957733258791"><ele>266.0</ele><time>2026-04-12T09:36:56.999Z</time></trkpt><trkpt lat="42.09659677773864" lon="12.777901657107321"><ele>266.0</ele><time>2026-04-12T09:36:57.999Z</time></trkpt><trkpt lat="42.09668159426064" lon="12.777828324367649"><ele>266.0</ele><time>2026-04-12T09:36:58.999Z</time></trkpt><trkpt lat="42.09676878941217" lon="12.777731883573347"><ele>264.75</ele><time>2026-04-12T09:36:59.999Z</time></trkpt><trkpt lat="42.09686111794335" lon="12.777625346226381"><ele>263.5</ele><time>2026-04-12T09:37:00.999Z</time></trkpt><trkpt lat="42.096957378818686" lon="12.777516213843738"><ele>262.25</ele><time>2026-04-12T09:37:01.999Z</time></trkpt><trkpt lat="42.09706064875841" lon="12.777401256612753"><ele>261.0</ele><time>2026-04-12T09:37:02.999Z</time></trkpt><trkpt lat="42.09716846823783" lon="12.777296365858076"><ele>261.0</ele><time>2026-04-12T09:37:03.999Z</time></trkpt><trkpt lat="42.09725281105926" lon="12.777213564786313"><ele>261.0</ele><time>2026-04-12T09:37:04.999Z</time></trkpt><trkpt lat="42.09731057393594" lon="12.777149496281414"><ele>261.0</ele><time>2026-04-12T09:37:05.999Z</time></trkpt><trkpt lat="42.09733958358193" lon="12.77706647187701"><ele>261.0</ele><time>2026-04-12T09:37:07.999Z</time></trkpt><trkpt lat="42.097263295222945" lon="12.777073488151466"><ele>261.0</ele><time>2026-04-12T09:37:12.998Z</time></trkpt><trkpt lat="42.0972548222303" lon="12.777186681622778"><ele>261.0</ele><time>2026-04-12T09:37:19.998Z</time></trkpt><trkpt lat="42.09713500375448" lon="12.777308669581897"><ele>261.0</ele><time>2026-04-12T09:37:21.998Z</time></trkpt><trkpt lat="42.09702976990084" lon="12.777397156645542"><ele>261.0</ele><time>2026-04-12T09:37:22.998Z</time></trkpt><trkpt lat="42.096898525962786" lon="12.777538961473736"><ele>261.0</ele><time>2026-04-12T09:37:23.998Z</time></trkpt><trkpt lat="42.0967512844833" lon="12.777702311858187"><ele>262.6666666666667</ele><time>2026-04-12T09:37:25Z</time></trkpt><trkpt lat="42.09660289025853" lon="12.777852466728637"><ele>264.33333333333337</ele><time>2026-04-12T09:37:26Z</time></trkpt><trkpt lat="42.09647139598887" lon="12.777963176184143"><ele>266.0</ele><time>2026-04-12T09:37:27Z</time></trkpt><trkpt lat="42.096342496196634" lon="12.77804358268174"><ele>266.0</ele><time>2026-04-12T09:37:28Z</time></trkpt><trkpt lat="42.09621265909152" lon="12.778091521274627"><ele>266.0</ele><time>2026-04-12T09:37:29Z</time></trkpt><trkpt lat="42.096080594689184" lon="12.778101518713196"><ele>266.0</ele><time>2026-04-12T09:37:30Z</time></trkpt><trkpt lat="42.09594848284243" lon="12.77807814252184"><ele>266.0</ele><time>2026-04-12T09:37:31Z</time></trkpt><trkpt lat="42.09582293794767" lon="12.778032938003552"><ele>265.75</ele><time>2026-04-12T09:37:32Z</time></trkpt><trkpt lat="42.09570790070972" lon="12.777962773065232"><ele>265.5</ele><time>2026-04-12T09:37:33Z</time></trkpt><trkpt lat="42.09560089468757" lon="12.77787389483735"><ele>265.25</ele><time>2026-04-12T09:37:34Z</time></trkpt><trkpt lat="42.09549397166116" lon="12.777778937314567"><ele>265.0</ele><time>2026-04-12T09:37:35Z</time></trkpt><trkpt lat="42.09538702795161" lon="12.77768342662618"><ele>265.0</ele><time>2026-04-12T09:37:36Z</time></trkpt><trkpt lat="42.0952854519093" lon="12.777593862723707"><ele>265.0</ele><time>2026-04-12T09:37:37Z</time></trkpt><trkpt lat="42.09519275891298" lon="12.777513496125856"><ele>265.0</ele><time>2026-04-12T09:37:38Z</time></trkpt><trkpt lat="42.095108533892216" lon="12.777439579550267"><ele>265.0</ele><time>2026-04-12T09:37:39Z</time></trkpt><trkpt lat="42.095036980664766" lon="12.777374067872072"><ele>265.0</ele><time>2026-04-12T09:37:40Z</time></trkpt><trkpt lat="42.094978143499546" lon="12.777321300363669"><ele>265.0</ele><time>2026-04-12T09:37:41Z</time></trkpt><trkpt lat="42.09489980178205" lon="12.777245635753221"><ele>265.0</ele><time>2026-04-12T09:37:43Z</time></trkpt><trkpt lat="42.09482329512322" lon="12.777253853503236"><ele>265.0</ele><time>2026-04-12T09:37:46Z</time></trkpt><trkpt lat="42.09475585162232" lon="12.777329782102656"><ele>265.0</ele><time>2026-04-12T09:37:48Z</time></trkpt><trkpt lat="42.09465938142003" lon="12.777391883213992"><ele>265.0</ele><time>2026-04-12T09:37:50Z</time></trkpt><trkpt lat="42.09455573858354" lon="12.777454013461902"><ele>265.0</ele><time>2026-04-12T09:37:52Z</time></trkpt><trkpt lat="42.09443540625433" lon="12.777524132457474"><ele>265.0</ele><time>2026-04-12T09:37:54Z</time></trkpt><trkpt lat="42.094365792180625" lon="12.777553118014785"><ele>265.0</ele><time>2026-04-12T09:37:55Z</time></trkpt><trkpt lat="42.09430175415017" lon="12.777575838455217"><ele>265.0</ele><time>2026-04-12T09:37:56Z</time></trkpt><trkpt lat="42.09422443613337" lon="12.777653725927877"><ele>265.0</ele><time>2026-04-12T09:37:58Z</time></trkpt><trkpt lat="42.09418850818343" lon="12.777737000550369"><ele>265.0</ele><time>2026-04-12T09:37:59Z</time></trkpt><trkpt lat="42.09413672202363" lon="12.777826051789374"><ele>265.8333333333333</ele><time>2026-04-12T09:38:00Z</time></trkpt><trkpt lat="42.09408383281118" lon="12.777916755690248"><ele>266.66666666666663</ele><time>2026-04-12T09:38:01Z</time></trkpt><trkpt lat="42.0940302844065" lon="12.778000632856957"><ele>267.5</ele><time>2026-04-12T09:38:02Z</time></trkpt><trkpt lat="42.09396020699125" lon="12.778083965385498"><ele>268.3333333333333</ele><time>2026-04-12T09:38:03Z</time></trkpt><trkpt lat="42.09389009750362" lon="12.778160092306685"><ele>269.1666666666667</ele><time>2026-04-12T09:38:04Z</time></trkpt><trkpt lat="42.09381922911063" lon="12.778243112459629"><ele>270.0</ele><time>2026-04-12T09:38:05Z</time></trkpt><trkpt lat="42.093738511891374" lon="12.778333336525604"><ele>270.0</ele><time>2026-04-12T09:38:06Z</time></trkpt><trkpt lat="42.09365991461077" lon="12.778423438640267"><ele>270.0</ele><time>2026-04-12T09:38:07Z</time></trkpt><trkpt lat="42.09357838123379" lon="12.778508216453291"><ele>270.0</ele><time>2026-04-12T09:38:08Z</time></trkpt><trkpt lat="42.09348580847323" lon="12.778595412937996"><ele>270.0</ele><time>2026-04-12T09:38:09Z</time></trkpt><trkpt lat="42.09339542187164" lon="12.778675540658003"><ele>270.0</ele><time>2026-04-12T09:38:10Z</time></trkpt><trkpt lat="42.093302675879954" lon="12.77876012638471"><ele>271.0</ele><time>2026-04-12T09:38:11Z</time></trkpt><trkpt lat="42.09321640760022" lon="12.778839743797592"><ele>272.0</ele><time>2026-04-12T09:38:12Z</time></trkpt><trkpt lat="42.09313806575676" lon="12.778911885371825"><ele>273.0</ele><time>2026-04-12T09:38:13Z</time></trkpt><trkpt lat="42.093053903863776" lon="12.778990375392324"><ele>274.0</ele><time>2026-04-12T09:38:14Z</time></trkpt><trkpt lat="42.092978310279186" lon="12.779070152257384"><ele>275.0</ele><time>2026-04-12T09:38:15Z</time></trkpt><trkpt lat="42.09289780351473" lon="12.779153049144611"><ele>275.0</ele><time>2026-04-12T09:38:16Z</time></trkpt><trkpt lat="42.09282545581888" lon="12.779235761786895"><ele>275.0</ele><time>2026-04-12T09:38:17Z</time></trkpt><trkpt lat="42.09275206849426" lon="12.77930196930503"><ele>275.0</ele><time>2026-04-12T09:38:18Z</time></trkpt><trkpt lat="42.092691912402124" lon="12.779350413659138"><ele>275.0</ele><time>2026-04-12T09:38:19Z</time></trkpt><trkpt lat="42.092635785196755" lon="12.779398693369414"><ele>275.0</ele><time>2026-04-12T09:38:20Z</time></trkpt><trkpt lat="42.092583462305555" lon="12.779456126818511"><ele>275.0</ele><time>2026-04-12T09:38:21Z</time></trkpt><trkpt lat="42.092540530745886" lon="12.779528077461546"><ele>275.2</ele><time>2026-04-12T09:38:21.999Z</time></trkpt><trkpt lat="42.09249852987336" lon="12.779620727395956"><ele>275.4</ele><time>2026-04-12T09:38:22.999Z</time></trkpt><trkpt lat="42.09243366170762" lon="12.77974868654743"><ele>275.6</ele><time>2026-04-12T09:38:23.999Z</time></trkpt><trkpt lat="42.09236398305577" lon="12.779887200641339"><ele>275.8</ele><time>2026-04-12T09:38:24.999Z</time></trkpt><trkpt lat="42.092306366584566" lon="12.77999561282594"><ele>276.0</ele><time>2026-04-12T09:38:25.999Z</time></trkpt><trkpt lat="42.09225224257045" lon="12.780102197304192"><ele>277.0</ele><time>2026-04-12T09:38:26.999Z</time></trkpt><trkpt lat="42.09218897548469" lon="12.780215080477998"><ele>278.0</ele><time>2026-04-12T09:38:27.999Z</time></trkpt><trkpt lat="42.09213005407063" lon="12.780322247045913"><ele>279.0</ele><time>2026-04-12T09:38:28.999Z</time></trkpt><trkpt lat="42.092071469071804" lon="12.780425171024456"><ele>280.0</ele><time>2026-04-12T09:38:29.999Z</time></trkpt><trkpt lat="42.092013080258205" lon="12.780523567611018"><ele>281.0</ele><time>2026-04-12T09:38:30.999Z</time></trkpt><trkpt lat="42.09196220143364" lon="12.780622238672345"><ele>281.00000000000006</ele><time>2026-04-12T09:38:31.999Z</time></trkpt><trkpt lat="42.091916844935824" lon="12.780705374070223"><ele>281.0</ele><time>2026-04-12T09:38:32.999Z</time></trkpt><trkpt lat="42.09187090521584" lon="12.78079046781746"><ele>281.0</ele><time>2026-04-12T09:38:33.999Z</time></trkpt><trkpt lat="42.091826313827895" lon="12.780876176767775"><ele>281.0</ele><time>2026-04-12T09:38:34.999Z</time></trkpt><trkpt lat="42.09178540188618" lon="12.780954621835654"><ele>281.0</ele><time>2026-04-12T09:38:35.999Z</time></trkpt><trkpt lat="42.091749346797094" lon="12.78102487934332"><ele>281.00000000000006</ele><time>2026-04-12T09:38:36.999Z</time></trkpt><trkpt lat="42.091698559565536" lon="12.781091103685515"><ele>281.0</ele><time>2026-04-12T09:38:37.999Z</time></trkpt><trkpt lat="42.091650522687075" lon="12.781154549976295"><ele>281.5</ele><time>2026-04-12T09:38:38.999Z</time></trkpt><trkpt lat="42.09159919292637" lon="12.781222425369977"><ele>282.0</ele><time>2026-04-12T09:38:39.999Z</time></trkpt><trkpt lat="42.09154473606161" lon="12.78129848499888"><ele>282.5</ele><time>2026-04-12T09:38:40.999Z</time></trkpt><trkpt lat="42.09147138410469" lon="12.781378510163433"><ele>283.0</ele><time>2026-04-12T09:38:41.999Z</time></trkpt><trkpt lat="42.09140560204909" lon="12.78144210181877"><ele>283.5</ele><time>2026-04-12T09:38:42.999Z</time></trkpt><trkpt lat="42.09135190755333" lon="12.781490931542889"><ele>284.0</ele><time>2026-04-12T09:38:43.999Z</time></trkpt><trkpt lat="42.091239896979225" lon="12.781567927450608"><ele>284.0</ele><time>2026-04-12T09:38:45.999Z</time></trkpt><trkpt lat="42.091168384943124" lon="12.781613048740288"><ele>284.0</ele><time>2026-04-12T09:38:46.999Z</time></trkpt><trkpt lat="42.09110350018756" lon="12.781675805412966"><ele>284.0</ele><time>2026-04-12T09:38:47.999Z</time></trkpt><trkpt lat="42.09103894139422" lon="12.781745251751019"><ele>284.0</ele><time>2026-04-12T09:38:48.999Z</time></trkpt><trkpt lat="42.09097078068066" lon="12.781831291577653"><ele>284.0</ele><time>2026-04-12T09:38:49.999Z</time></trkpt><trkpt lat="42.090908029986146" lon="12.781918245615762"><ele>284.0</ele><time>2026-04-12T09:38:50.999Z</time></trkpt><trkpt lat="42.09085430762523" lon="12.782010951248614"><ele>284.8</ele><time>2026-04-12T09:38:51.999Z</time></trkpt><trkpt lat="42.09079531434924" lon="12.782102096345882"><ele>285.59999999999997</ele><time>2026-04-12T09:38:52.999Z</time></trkpt><trkpt lat="42.090738448616776" lon="12.782169791449691"><ele>286.4</ele><time>2026-04-12T09:38:53.999Z</time></trkpt><trkpt lat="42.09068202441213" lon="12.782227733642387"><ele>287.2</ele><time>2026-04-12T09:38:54.999Z</time></trkpt><trkpt lat="42.09058927940109" lon="12.782314706585636"><ele>288.0</ele><time>2026-04-12T09:38:56.999Z</time></trkpt><trkpt lat="42.09050323266243" lon="12.782414209283301"><ele>288.0</ele><time>2026-04-12T09:38:58.999Z</time></trkpt><trkpt lat="42.09044696858576" lon="12.782463227047188"><ele>288.0</ele><time>2026-04-12T09:38:59.999Z</time></trkpt><trkpt lat="42.09038853502231" lon="12.782500912470418"><ele>288.0</ele><time>2026-04-12T09:39:00.999Z</time></trkpt><trkpt lat="42.09026580469303" lon="12.782586469920126"><ele>288.0</ele><time>2026-04-12T09:39:02.999Z</time></trkpt><trkpt lat="42.090191577570685" lon="12.782638135018916"><ele>288.0</ele><time>2026-04-12T09:39:03.999Z</time></trkpt><trkpt lat="42.09012432293307" lon="12.782687856162918"><ele>288.0</ele><time>2026-04-12T09:39:04.999Z</time></trkpt><trkpt lat="42.09005701056953" lon="12.782739055216409"><ele>288.5</ele><time>2026-04-12T09:39:05.999Z</time></trkpt><trkpt lat="42.08999007711183" lon="12.782808316878073"><ele>289.0</ele><time>2026-04-12T09:39:06.999Z</time></trkpt><trkpt lat="42.089936466787485" lon="12.782883614730721"><ele>289.5</ele><time>2026-04-12T09:39:07.999Z</time></trkpt><trkpt lat="42.08989318107786" lon="12.782951150413052"><ele>290.0</ele><time>2026-04-12T09:39:08.999Z</time></trkpt><trkpt lat="42.08985790520156" lon="12.783070131892773"><ele>290.5</ele><time>2026-04-12T09:39:10.999Z</time></trkpt><trkpt lat="42.08990397192825" lon="12.783195958281496"><ele>291.0</ele><time>2026-04-12T09:39:12.999Z</time></trkpt><trkpt lat="42.08997389298456" lon="12.783323513166382"><ele>292.8</ele><time>2026-04-12T09:39:14.999Z</time></trkpt><trkpt lat="42.09000296375647" lon="12.783405072296484"><ele>294.6</ele><time>2026-04-12T09:39:15.998Z</time></trkpt><trkpt lat="42.090047075109474" lon="12.783503765973089"><ele>296.4</ele><time>2026-04-12T09:39:16.998Z</time></trkpt><trkpt lat="42.09009235931631" lon="12.783604953410917"><ele>298.2</ele><time>2026-04-12T09:39:17.998Z</time></trkpt><trkpt lat="42.09015095065132" lon="12.783731196555097"><ele>300.0</ele><time>2026-04-12T09:39:18.998Z</time></trkpt><trkpt lat="42.090206631878374" lon="12.783853290546237"><ele>301.8</ele><time>2026-04-12T09:39:19.998Z</time></trkpt><trkpt lat="42.09027259762469" lon="12.783998087015384"><ele>303.6</ele><time>2026-04-12T09:39:20.998Z</time></trkpt><trkpt lat="42.09033043732474" lon="12.784136867531334"><ele>305.4</ele><time>2026-04-12T09:39:21.998Z</time></trkpt><trkpt lat="42.09036503380544" lon="12.784218550608625"><ele>307.2</ele><time>2026-04-12T09:39:22.998Z</time></trkpt><trkpt lat="42.090409057571215" lon="12.784316792628765"><ele>309.0</ele><time>2026-04-12T09:39:24.998Z</time></trkpt><trkpt lat="42.09041816809443" lon="12.784434427467849"><ele>311.6666666666667</ele><time>2026-04-12T09:39:27.998Z</time></trkpt><trkpt lat="42.09034054496091" lon="12.784530873352322"><ele>314.3333333333333</ele><time>2026-04-12T09:39:30Z</time></trkpt><trkpt lat="42.09028322350855" lon="12.784600207554636"><ele>317.0</ele><time>2026-04-12T09:39:31Z</time></trkpt><trkpt lat="42.09022736571169" lon="12.784672342298155"><ele>319.66666666666663</ele><time>2026-04-12T09:39:32Z</time></trkpt><trkpt lat="42.09017411957881" lon="12.784742860282293"><ele>322.3333333333333</ele><time>2026-04-12T09:39:33Z</time></trkpt><trkpt lat="42.09012613675941" lon="12.784814416686148"><ele>325.0</ele><time>2026-04-12T09:39:34Z</time></trkpt><trkpt lat="42.09007616078211" lon="12.784881204426775"><ele>325.0</ele><time>2026-04-12T09:39:35Z</time></trkpt><trkpt lat="42.090028947020386" lon="12.784944536624646"><ele>325.0</ele><time>2026-04-12T09:39:36Z</time></trkpt><trkpt lat="42.08997932352833" lon="12.78501184014839"><ele>325.0</ele><time>2026-04-12T09:39:37Z</time></trkpt><trkpt lat="42.08993054590494" lon="12.785078161219003"><ele>325.0</ele><time>2026-04-12T09:39:38Z</time></trkpt><trkpt lat="42.08988206406155" lon="12.78514907234146"><ele>325.0</ele><time>2026-04-12T09:39:39Z</time></trkpt><trkpt lat="42.08982941794236" lon="12.78521656632008"><ele>325.0</ele><time>2026-04-12T09:39:40Z</time></trkpt><trkpt lat="42.08977512796544" lon="12.785293847208719"><ele>325.0</ele><time>2026-04-12T09:39:41Z</time></trkpt><trkpt lat="42.08971924036308" lon="12.785380106755868"><ele>325.16666666666663</ele><time>2026-04-12T09:39:42Z</time></trkpt><trkpt lat="42.08965528988384" lon="12.785474919542818"><ele>325.3333333333333</ele><time>2026-04-12T09:39:43Z</time></trkpt><trkpt lat="42.08959148982409" lon="12.78555585766683"><ele>325.5</ele><time>2026-04-12T09:39:44Z</time></trkpt><trkpt lat="42.089534287743454" lon="12.785633306636923"><ele>325.6666666666667</ele><time>2026-04-12T09:39:45Z</time></trkpt><trkpt lat="42.08948062208042" lon="12.78570677447309"><ele>325.83333333333337</ele><time>2026-04-12T09:39:46Z</time></trkpt><trkpt lat="42.089418977493295" lon="12.785787950637825"><ele>326.0</ele><time>2026-04-12T09:39:47Z</time></trkpt><trkpt lat="42.089360587606734" lon="12.785860288967541"><ele>326.0</ele><time>2026-04-12T09:39:48Z</time></trkpt><trkpt lat="42.08930344317356" lon="12.785926767139165"><ele>326.0</ele><time>2026-04-12T09:39:49Z</time></trkpt><trkpt lat="42.08925382615216" lon="12.785983770274706"><ele>326.0</ele><time>2026-04-12T09:39:50Z</time></trkpt><trkpt lat="42.08920701319483" lon="12.786047215878943"><ele>326.0</ele><time>2026-04-12T09:39:51Z</time></trkpt><trkpt lat="42.089152976106796" lon="12.786128066481524"><ele>326.0</ele><time>2026-04-12T09:39:52Z</time></trkpt><trkpt lat="42.08909037395603" lon="12.78621267514928"><ele>326.0</ele><time>2026-04-12T09:39:53Z</time></trkpt><trkpt lat="42.089031518574224" lon="12.786274047110462"><ele>326.83333333333337</ele><time>2026-04-12T09:39:54Z</time></trkpt><trkpt lat="42.088972229198504" lon="12.78633264043861"><ele>327.6666666666667</ele><time>2026-04-12T09:39:55Z</time></trkpt><trkpt lat="42.088908900015" lon="12.786387411777092"><ele>328.5</ele><time>2026-04-12T09:39:56Z</time></trkpt><trkpt lat="42.08884975725682" lon="12.786432443565353"><ele>329.3333333333333</ele><time>2026-04-12T09:39:57Z</time></trkpt><trkpt lat="42.088730227853176" lon="12.786518304015841"><ele>330.16666666666663</ele><time>2026-04-12T09:39:59Z</time></trkpt><trkpt lat="42.08866045952639" lon="12.786561732721342"><ele>331.0</ele><time>2026-04-12T09:40:00Z</time></trkpt><trkpt lat="42.088597418551416" lon="12.786599274179911"><ele>331.0</ele><time>2026-04-12T09:40:01Z</time></trkpt><trkpt lat="42.08849543373977" lon="12.786656920729811"><ele>331.0</ele><time>2026-04-12T09:40:03Z</time></trkpt><trkpt lat="42.0883887766603" lon="12.786702458071412"><ele>331.0</ele><time>2026-04-12T09:40:05Z</time></trkpt><trkpt lat="42.08827808362311" lon="12.78675075295888"><ele>331.0</ele><time>2026-04-12T09:40:07Z</time></trkpt><trkpt lat="42.08821353752862" lon="12.786785074884593"><ele>331.0</ele><time>2026-04-12T09:40:08Z</time></trkpt><trkpt lat="42.08809475030119" lon="12.786853051480362"><ele>331.0</ele><time>2026-04-12T09:40:10Z</time></trkpt><trkpt lat="42.088036277888314" lon="12.786885877405947"><ele>331.0</ele><time>2026-04-12T09:40:11Z</time></trkpt><trkpt lat="42.087947454261" lon="12.78694995667539"><ele>331.0</ele><time>2026-04-12T09:40:13Z</time></trkpt><trkpt lat="42.087859578443826" lon="12.787001163030359"><ele>331.0</ele><time>2026-04-12T09:40:15Z</time></trkpt><trkpt lat="42.087792122633964" lon="12.787058566229076"><ele>331.0</ele><time>2026-04-12T09:40:17Z</time></trkpt><trkpt lat="42.08773175913577" lon="12.78717930526777"><ele>331.0</ele><time>2026-04-12T09:40:19Z</time></trkpt><trkpt lat="42.08769768510756" lon="12.787251569593277"><ele>331.0</ele><time>2026-04-12T09:40:20Z</time></trkpt><trkpt lat="42.08765640984047" lon="12.787320617094581"><ele>331.0</ele><time>2026-04-12T09:40:21Z</time></trkpt><trkpt lat="42.087606351431816" lon="12.787375896649925"><ele>331.0</ele><time>2026-04-12T09:40:22Z</time></trkpt><trkpt lat="42.087531054634496" lon="12.787454369152627"><ele>331.0</ele><time>2026-04-12T09:40:23.999Z</time></trkpt><trkpt lat="42.08748244566079" lon="12.787554618714806"><ele>331.0</ele><time>2026-04-12T09:40:25.999Z</time></trkpt><trkpt lat="42.087453028063905" lon="12.787632087996645"><ele>331.0</ele><time>2026-04-12T09:40:26.999Z</time></trkpt><trkpt lat="42.087414439736534" lon="12.787738999487443"><ele>331.5</ele><time>2026-04-12T09:40:27.999Z</time></trkpt><trkpt lat="42.087384555324235" lon="12.787831429588929"><ele>332.0</ele><time>2026-04-12T09:40:28.999Z</time></trkpt><trkpt lat="42.08733801378965" lon="12.787982678184267"><ele>332.5</ele><time>2026-04-12T09:40:30.999Z</time></trkpt><trkpt lat="42.08731145046855" lon="12.78808301613392"><ele>333.0</ele><time>2026-04-12T09:40:31.999Z</time></trkpt><trkpt lat="42.087281210954906" lon="12.78817978991337"><ele>333.5</ele><time>2026-04-12T09:40:32.999Z</time></trkpt><trkpt lat="42.08724772457121" lon="12.78827959258538"><ele>334.0</ele><time>2026-04-12T09:40:33.999Z</time></trkpt><trkpt lat="42.08720885336432" lon="12.788377387370216"><ele>334.0</ele><time>2026-04-12T09:40:34.999Z</time></trkpt><trkpt lat="42.087176736096964" lon="12.788463350607541"><ele>334.0</ele><time>2026-04-12T09:40:35.999Z</time></trkpt><trkpt lat="42.08711804241552" lon="12.788610842802083"><ele>334.0</ele><time>2026-04-12T09:40:37.999Z</time></trkpt><trkpt lat="42.08709865284374" lon="12.788691622692813"><ele>334.0</ele><time>2026-04-12T09:40:38.999Z</time></trkpt><trkpt lat="42.08708702403728" lon="12.788852296889473"><ele>334.0</ele><time>2026-04-12T09:40:40.999Z</time></trkpt><trkpt lat="42.08708643181151" lon="12.788942595581322"><ele>334.0</ele><time>2026-04-12T09:40:41.999Z</time></trkpt><trkpt lat="42.087085412284274" lon="12.789031422107987"><ele>335.0</ele><time>2026-04-12T09:40:42.999Z</time></trkpt><trkpt lat="42.0870906341914" lon="12.789124870391156"><ele>336.0</ele><time>2026-04-12T09:40:43.999Z</time></trkpt><trkpt lat="42.08709436629239" lon="12.789234537102178"><ele>337.0</ele><time>2026-04-12T09:40:44.999Z</time></trkpt><trkpt lat="42.0870836197526" lon="12.78932368894722"><ele>338.0</ele><time>2026-04-12T09:40:45.999Z</time></trkpt><trkpt lat="42.08704550375668" lon="12.789483252415664"><ele>339.0</ele><time>2026-04-12T09:40:47.999Z</time></trkpt><trkpt lat="42.087023122577314" lon="12.789568119488422"><ele>340.0</ele><time>2026-04-12T09:40:48.999Z</time></trkpt><trkpt lat="42.08696775201094" lon="12.789708151448467"><ele>341.42857142857144</ele><time>2026-04-12T09:40:50.999Z</time></trkpt><trkpt lat="42.08693382293259" lon="12.789783284127646"><ele>342.85714285714283</ele><time>2026-04-12T09:40:51.999Z</time></trkpt><trkpt lat="42.08689103551424" lon="12.78985335715533"><ele>344.2857142857143</ele><time>2026-04-12T09:40:52.999Z</time></trkpt><trkpt lat="42.08684951735944" lon="12.789931500027192"><ele>345.7142857142857</ele><time>2026-04-12T09:40:53.999Z</time></trkpt><trkpt lat="42.08680857932143" lon="12.790016611416984"><ele>347.1428571428571</ele><time>2026-04-12T09:40:54.999Z</time></trkpt><trkpt lat="42.08676385102955" lon="12.790105267260921"><ele>348.57142857142856</ele><time>2026-04-12T09:40:55.999Z</time></trkpt><trkpt lat="42.08671841194105" lon="12.790186386587482"><ele>350.0</ele><time>2026-04-12T09:40:56.999Z</time></trkpt><trkpt lat="42.08665203144617" lon="12.790331062008459"><ele>350.7142857142857</ele><time>2026-04-12T09:40:58.999Z</time></trkpt><trkpt lat="42.08660994755507" lon="12.790403529381392"><ele>351.42857142857144</ele><time>2026-04-12T09:40:59.999Z</time></trkpt><trkpt lat="42.08656547274399" lon="12.790537923287129"><ele>352.1428571428571</ele><time>2026-04-12T09:41:01.999Z</time></trkpt><trkpt lat="42.08654060567742" lon="12.790623606916165"><ele>352.8571428571429</ele><time>2026-04-12T09:41:02.999Z</time></trkpt><trkpt lat="42.08652048378937" lon="12.790712122960265"><ele>353.57142857142856</ele><time>2026-04-12T09:41:03.999Z</time></trkpt><trkpt lat="42.08650134276665" lon="12.790797230837372"><ele>354.2857142857143</ele><time>2026-04-12T09:41:04.999Z</time></trkpt><trkpt lat="42.08648751710303" lon="12.790884273879936"><ele>355.0</ele><time>2026-04-12T09:41:05.999Z</time></trkpt><trkpt lat="42.08646963691874" lon="12.790983973165874"><ele>356.3333333333333</ele><time>2026-04-12T09:41:06.999Z</time></trkpt><trkpt lat="42.08645129330498" lon="12.79109071512637"><ele>357.66666666666663</ele><time>2026-04-12T09:41:07.999Z</time></trkpt><trkpt lat="42.08643726113366" lon="12.791192664428161"><ele>359.0</ele><time>2026-04-12T09:41:08.999Z</time></trkpt><trkpt lat="42.08641837494168" lon="12.791299206658842"><ele>360.3333333333333</ele><time>2026-04-12T09:41:09.999Z</time></trkpt><trkpt lat="42.086397056025" lon="12.79140311715608"><ele>361.6666666666667</ele><time>2026-04-12T09:41:10.999Z</time></trkpt><trkpt lat="42.086372362345216" lon="12.791494933907847"><ele>363.0</ele><time>2026-04-12T09:41:11.999Z</time></trkpt><trkpt lat="42.08634990924502" lon="12.791591943844956"><ele>363.0</ele><time>2026-04-12T09:41:12.999Z</time></trkpt><trkpt lat="42.08633227087755" lon="12.791678089570578"><ele>363.0</ele><time>2026-04-12T09:41:13.999Z</time></trkpt><trkpt lat="42.08631394730973" lon="12.791770435760245"><ele>363.0</ele><time>2026-04-12T09:41:14.999Z</time></trkpt><trkpt lat="42.08627430498144" lon="12.791910288678482"><ele>363.0</ele><time>2026-04-12T09:41:16.998Z</time></trkpt><trkpt lat="42.086264609521045" lon="12.791995972630897"><ele>363.0</ele><time>2026-04-12T09:41:17.998Z</time></trkpt><trkpt lat="42.08624754556849" lon="12.792096701656144"><ele>363.0</ele><time>2026-04-12T09:41:18.998Z</time></trkpt><trkpt lat="42.08621837183556" lon="12.792189713264124"><ele>364.0</ele><time>2026-04-12T09:41:19.998Z</time></trkpt><trkpt lat="42.0861892582202" lon="12.792279587184613"><ele>365.0</ele><time>2026-04-12T09:41:20.998Z</time></trkpt><trkpt lat="42.08615165181756" lon="12.792451663405311"><ele>366.0</ele><time>2026-04-12T09:41:22.998Z</time></trkpt><trkpt lat="42.0861415692778" lon="12.79254171377999"><ele>367.0</ele><time>2026-04-12T09:41:23.998Z</time></trkpt><trkpt lat="42.08612438335022" lon="12.792637717373728"><ele>368.0</ele><time>2026-04-12T09:41:24.998Z</time></trkpt><trkpt lat="42.08610656194301" lon="12.792748444749453"><ele>369.0</ele><time>2026-04-12T09:41:25.998Z</time></trkpt><trkpt lat="42.08608998939273" lon="12.792835818445656"><ele>369.5</ele><time>2026-04-12T09:41:26.998Z</time></trkpt><trkpt lat="42.08606844399475" lon="12.79297650962184"><ele>370.0</ele><time>2026-04-12T09:41:28.998Z</time></trkpt><trkpt lat="42.086061184706715" lon="12.793080523612513"><ele>370.5</ele><time>2026-04-12T09:41:30.998Z</time></trkpt><trkpt lat="42.08606499616029" lon="12.793190893330484"><ele>371.0</ele><time>2026-04-12T09:41:32.998Z</time></trkpt><trkpt lat="42.08609652072644" lon="12.793266160325407"><ele>371.5</ele><time>2026-04-12T09:41:34.998Z</time></trkpt><trkpt lat="42.08611516130139" lon="12.793368239471867"><ele>372.0</ele><time>2026-04-12T09:41:37Z</time></trkpt><trkpt lat="42.08613330299223" lon="12.793506171409366"><ele>372.6666666666667</ele><time>2026-04-12T09:41:39Z</time></trkpt><trkpt lat="42.08615044896505" lon="12.793596005351972"><ele>373.3333333333333</ele><time>2026-04-12T09:41:40Z</time></trkpt><trkpt lat="42.08618799569143" lon="12.793743053719567"><ele>374.0</ele><time>2026-04-12T09:41:42Z</time></trkpt><trkpt lat="42.086215105070714" lon="12.793839665555595"><ele>374.66666666666663</ele><time>2026-04-12T09:41:44Z</time></trkpt><trkpt lat="42.08626664557801" lon="12.793926060173703"><ele>375.3333333333333</ele><time>2026-04-12T09:41:46Z</time></trkpt><trkpt lat="42.08631285749482" lon="12.794002011940014"><ele>376.0</ele><time>2026-04-12T09:42:07Z</time></trkpt><trkpt lat="42.086344458695436" lon="12.794098040681503"><ele>376.0</ele><time>2026-04-12T09:42:11Z</time></trkpt><trkpt lat="42.086384271059586" lon="12.794177495881877"><ele>376.0</ele><time>2026-04-12T09:42:13Z</time></trkpt><trkpt lat="42.08642035917118" lon="12.794268914118799"><ele>376.0</ele><time>2026-04-12T09:42:15Z</time></trkpt><trkpt lat="42.08645920092424" lon="12.794363623594826"><ele>376.0</ele><time>2026-04-12T09:42:17Z</time></trkpt><trkpt lat="42.08649794197122" lon="12.794457953757846"><ele>376.0</ele><time>2026-04-12T09:42:19Z</time></trkpt><trkpt lat="42.086534094206634" lon="12.794552761302372"><ele>376.0</ele><time>2026-04-12T09:42:21Z</time></trkpt><trkpt lat="42.08657219571921" lon="12.794638641163953"><ele>379.66666666666663</ele><time>2026-04-12T09:42:23Z</time></trkpt><trkpt lat="42.08662708831779" lon="12.794730592588017"><ele>383.3333333333333</ele><time>2026-04-12T09:42:26Z</time></trkpt><trkpt lat="42.086654738195556" lon="12.794825495660579"><ele>387.0</ele><time>2026-04-12T09:42:27.999Z</time></trkpt><trkpt lat="42.086686380947036" lon="12.794903170379778"><ele>390.66666666666663</ele><time>2026-04-12T09:42:29.999Z</time></trkpt><trkpt lat="42.08672581649359" lon="12.794977946417488"><ele>394.3333333333333</ele><time>2026-04-12T09:42:52.999Z</time></trkpt><trkpt lat="42.08675944763006" lon="12.795080332382186"><ele>398.0</ele><time>2026-04-12T09:42:54.999Z</time></trkpt><trkpt lat="42.08680540673568" lon="12.795176686683446"><ele>397.99999999999994</ele><time>2026-04-12T09:42:56.999Z</time></trkpt><trkpt lat="42.08684893999454" lon="12.795262201536664"><ele>398.0</ele><time>2026-04-12T09:42:58.999Z</time></trkpt><trkpt lat="42.086887419652385" lon="12.795334422371335"><ele>398.0</ele><time>2026-04-12T09:43:00.999Z</time></trkpt><trkpt lat="42.086931061816344" lon="12.795398248768352"><ele>398.0</ele><time>2026-04-12T09:43:02.999Z</time></trkpt><trkpt lat="42.086987830406976" lon="12.795463785541358"><ele>398.0</ele><time>2026-04-12T09:43:04.999Z</time></trkpt><trkpt lat="42.087054268243634" lon="12.795544877842458"><ele>397.99999999999994</ele><time>2026-04-12T09:43:06.999Z</time></trkpt><trkpt lat="42.08710434285058" lon="12.795619317587912"><ele>398.0</ele><time>2026-04-12T09:43:08.999Z</time></trkpt><trkpt lat="42.08717469051509" lon="12.795708994313038"><ele>397.99999999999994</ele><time>2026-04-12T09:43:10.999Z</time></trkpt><trkpt lat="42.08724356299095" lon="12.795814261430616"><ele>398.0</ele><time>2026-04-12T09:43:12.999Z</time></trkpt><trkpt lat="42.08731159892596" lon="12.795904984488947"><ele>398.0</ele><time>2026-04-12T09:43:14.999Z</time></trkpt><trkpt lat="42.08735552709013" lon="12.795976724058203"><ele>398.0</ele><time>2026-04-12T09:43:16.999Z</time></trkpt><trkpt lat="42.087419037112234" lon="12.796059344083465"><ele>397.99999999999994</ele><time>2026-04-12T09:43:18.999Z</time></trkpt><trkpt lat="42.08746950548463" lon="12.79613159973411"><ele>398.0</ele><time>2026-04-12T09:43:20.999Z</time></trkpt><trkpt lat="42.087522516206995" lon="12.796204386236042"><ele>400.99999999999994</ele><time>2026-04-12T09:44:13Z</time></trkpt><trkpt lat="42.08757220824532" lon="12.796270959523362"><ele>404.0</ele><time>2026-04-12T09:44:17Z</time></trkpt><trkpt lat="42.08763233226477" lon="12.796329431657675"><ele>407.0</ele><time>2026-04-12T09:44:21Z</time></trkpt><trkpt lat="42.08769239267393" lon="12.79639672659702"><ele>410.0</ele><time>2026-04-12T09:44:23Z</time></trkpt><trkpt lat="42.08775820909775" lon="12.796470215380289"><ele>412.99999999999994</ele><time>2026-04-12T09:44:25Z</time></trkpt><trkpt lat="42.08785300046292" lon="12.796544532573106"><ele>416.0</ele><time>2026-04-12T09:44:27Z</time></trkpt><trkpt lat="42.08792737795123" lon="12.796622161347727"><ele>415.99999999999994</ele><time>2026-04-12T09:44:29Z</time></trkpt><trkpt lat="42.08801109163892" lon="12.796687267258571"><ele>416.0</ele><time>2026-04-12T09:44:31Z</time></trkpt><trkpt lat="42.08805252252341" lon="12.796763946563594"><ele>416.0</ele><time>2026-04-12T09:44:34Z</time></trkpt><trkpt lat="42.088078177501245" lon="12.79685097291992"><ele>416.0</ele><time>2026-04-12T09:44:36.999Z</time></trkpt><trkpt lat="42.088053924960086" lon="12.796950993184403"><ele>415.99999999999994</ele><time>2026-04-12T09:44:39.999Z</time></trkpt><trkpt lat="42.088009811601935" lon="12.797030630343048"><ele>416.0</ele><time>2026-04-12T09:44:41.999Z</time></trkpt><trkpt lat="42.08794146023659" lon="12.797086346972586"><ele>418.49999999999994</ele><time>2026-04-12T09:44:43.999Z</time></trkpt><trkpt lat="42.08787709609833" lon="12.797099461208878"><ele>421.0</ele><time>2026-04-12T09:44:45.999Z</time></trkpt><trkpt lat="42.08776977141886" lon="12.797118917101855"><ele>423.5</ele><time>2026-04-12T09:44:47.999Z</time></trkpt><trkpt lat="42.08769200016067" lon="12.797137056490389"><ele>426.0</ele><time>2026-04-12T09:49:49.998Z</time></trkpt><trkpt lat="42.08762131930503" lon="12.79714652810956"><ele>428.49999999999994</ele><time>2026-04-12T09:49:51.998Z</time></trkpt><trkpt lat="42.087533918382746" lon="12.797173126268333"><ele>431.0</ele><time>2026-04-12T09:49:53.998Z</time></trkpt><trkpt lat="42.08743913337063" lon="12.797192668839871"><ele>431.6</ele><time>2026-04-12T09:49:55.998Z</time></trkpt><trkpt lat="42.087340080900894" lon="12.797220215328023"><ele>432.20000000000005</ele><time>2026-04-12T09:49:57.998Z</time></trkpt><trkpt lat="42.08723655700922" lon="12.797235059591818"><ele>432.79999999999995</ele><time>2026-04-12T09:50:00Z</time></trkpt><trkpt lat="42.08712598174321" lon="12.797249093090175"><ele>433.4</ele><time>2026-04-12T09:50:02Z</time></trkpt><trkpt lat="42.08702788853898" lon="12.797259834968985"><ele>434.0</ele><time>2026-04-12T09:50:04Z</time></trkpt><trkpt lat="42.086913682993305" lon="12.797254284036072"><ele>434.0</ele><time>2026-04-12T09:50:06Z</time></trkpt><trkpt lat="42.086808426565916" lon="12.797246731275697"><ele>434.0</ele><time>2026-04-12T09:50:08Z</time></trkpt><trkpt lat="42.08671694854112" lon="12.797257339533749"><ele>434.0</ele><time>2026-04-12T09:50:10Z</time></trkpt><trkpt lat="42.08662777956175" lon="12.797251767171579"><ele>434.0</ele><time>2026-04-12T09:50:12Z</time></trkpt><trkpt lat="42.086539514358066" lon="12.797276923121098"><ele>434.0</ele><time>2026-04-12T09:50:14Z</time></trkpt><trkpt lat="42.08645334340755" lon="12.797370537880878"><ele>434.4</ele><time>2026-04-12T09:50:17Z</time></trkpt><trkpt lat="42.0863801060782" lon="12.797449149532225"><ele>434.79999999999995</ele><time>2026-04-12T09:50:19Z</time></trkpt><trkpt lat="42.08629806855756" lon="12.797571697669557"><ele>435.20000000000005</ele><time>2026-04-12T09:50:21Z</time></trkpt><trkpt lat="42.086232474840486" lon="12.79768276495639"><ele>435.6</ele><time>2026-04-12T09:50:23Z</time></trkpt><trkpt lat="42.08617605362981" lon="12.797793048923971"><ele>436.0</ele><time>2026-04-12T09:50:25Z</time></trkpt><trkpt lat="42.08611781344206" lon="12.79791621814918"><ele>436.0</ele><time>2026-04-12T09:50:27Z</time></trkpt><trkpt lat="42.08607907079822" lon="12.798037752922319"><ele>436.0</ele><time>2026-04-12T09:50:29Z</time></trkpt><trkpt lat="42.08604859904371" lon="12.798160805847004"><ele>436.0</ele><time>2026-04-12T09:50:31Z</time></trkpt><trkpt lat="42.08605124743879" lon="12.79827059084662"><ele>436.0</ele><time>2026-04-12T09:50:33Z</time></trkpt><trkpt lat="42.08606202892556" lon="12.798383977010207"><ele>436.0</ele><time>2026-04-12T09:50:35Z</time></trkpt><trkpt lat="42.08604610511322" lon="12.798520014346991"><ele>439.20000000000005</ele><time>2026-04-12T09:50:37Z</time></trkpt><trkpt lat="42.08603206967121" lon="12.798653130480636"><ele>442.40000000000003</ele><time>2026-04-12T09:50:39Z</time></trkpt><trkpt lat="42.08601869863329" lon="12.798772803867037"><ele>445.6</ele><time>2026-04-12T09:50:47.999Z</time></trkpt><trkpt lat="42.08598619924799" lon="12.798878426214111"><ele>448.8</ele><time>2026-04-12T09:50:49.999Z</time></trkpt><trkpt lat="42.08594061888882" lon="12.798989179634114"><ele>452.0</ele><time>2026-04-12T09:50:51.999Z</time></trkpt><trkpt lat="42.08587513341077" lon="12.799106675574812"><ele>452.0</ele><time>2026-04-12T09:50:53.999Z</time></trkpt><trkpt lat="42.08581015095133" lon="12.799216739938434"><ele>452.00000000000006</ele><time>2026-04-12T09:50:55.999Z</time></trkpt><trkpt lat="42.085736746555725" lon="12.799330453251493"><ele>452.00000000000006</ele><time>2026-04-12T09:50:57.999Z</time></trkpt><trkpt lat="42.08568867327411" lon="12.799387411521947"><ele>452.0</ele><time>2026-04-12T09:50:58.999Z</time></trkpt><trkpt lat="42.085609071609404" lon="12.799485558517077"><ele>452.0</ele><time>2026-04-12T09:51:00.999Z</time></trkpt><trkpt lat="42.085532900291966" lon="12.799580627104344"><ele>452.49999999999994</ele><time>2026-04-12T09:51:02.999Z</time></trkpt><trkpt lat="42.08547891025672" lon="12.799649953702415"><ele>453.0</ele><time>2026-04-12T09:51:04.999Z</time></trkpt><trkpt lat="42.08542311807592" lon="12.799734483419034"><ele>453.5</ele><time>2026-04-12T09:51:06.999Z</time></trkpt><trkpt lat="42.08536438613241" lon="12.799825915324032"><ele>454.0</ele><time>2026-04-12T09:51:08.999Z</time></trkpt><trkpt lat="42.08531444832952" lon="12.799917015522517"><ele>454.49999999999994</ele><time>2026-04-12T09:51:10.999Z</time></trkpt><trkpt lat="42.085247415928556" lon="12.800040688043113"><ele>455.0</ele><time>2026-04-12T09:51:12.999Z</time></trkpt><trkpt lat="42.08514367088602" lon="12.800168640669096"><ele>453.66666666666663</ele><time>2026-04-12T09:51:14.999Z</time></trkpt><trkpt lat="42.08508954564423" lon="12.800232540310763"><ele>452.3333333333333</ele><time>2026-04-12T09:51:15.999Z</time></trkpt><trkpt lat="42.08504058851281" lon="12.800292265322792"><ele>451.0</ele><time>2026-04-12T09:51:16.999Z</time></trkpt><trkpt lat="42.084994554372024" lon="12.800352271224222"><ele>449.66666666666663</ele><time>2026-04-12T09:51:17.999Z</time></trkpt><trkpt lat="42.0849475382809" lon="12.800414741147511"><ele>448.3333333333333</ele><time>2026-04-12T09:51:18.999Z</time></trkpt><trkpt lat="42.084874189230455" lon="12.800544739491928"><ele>447.0</ele><time>2026-04-12T09:51:20.999Z</time></trkpt><trkpt lat="42.084832595443245" lon="12.800613219557437"><ele>447.0</ele><time>2026-04-12T09:51:21.999Z</time></trkpt><trkpt lat="42.0847659174457" lon="12.8007446039092"><ele>447.0</ele><time>2026-04-12T09:51:23.999Z</time></trkpt><trkpt lat="42.08471516341607" lon="12.800865209140758"><ele>447.0</ele><time>2026-04-12T09:51:25.999Z</time></trkpt><trkpt lat="42.084650480510895" lon="12.801008509218876"><ele>447.0</ele><time>2026-04-12T09:51:27.999Z</time></trkpt><trkpt lat="42.08460156593345" lon="12.80114198404263"><ele>453.0</ele><time>2026-04-12T09:51:29.999Z</time></trkpt><trkpt lat="42.084538909553366" lon="12.801291000887826"><ele>459.00000000000006</ele><time>2026-04-12T09:51:31.999Z</time></trkpt><trkpt lat="42.08446969450404" lon="12.801430970929932"><ele>465.00000000000006</ele><time>2026-04-12T09:51:33.999Z</time></trkpt><trkpt lat="42.08439359000772" lon="12.80155988988463"><ele>471.0</ele><time>2026-04-12T09:51:35.999Z</time></trkpt><trkpt lat="42.08434438914546" lon="12.80162599156073"><ele>477.0</ele><time>2026-04-12T09:51:36.999Z</time></trkpt><trkpt lat="42.08429443341285" lon="12.801684439663871"><ele>477.0</ele><time>2026-04-12T09:51:37.999Z</time></trkpt><trkpt lat="42.08424141630752" lon="12.80174182778177"><ele>477.00000000000006</ele><time>2026-04-12T09:51:38.999Z</time></trkpt><trkpt lat="42.08416197859399" lon="12.801832991230775"><ele>477.00000000000006</ele><time>2026-04-12T09:51:40.999Z</time></trkpt><trkpt lat="42.084081532435334" lon="12.801933082636982"><ele>477.0</ele><time>2026-04-12T09:51:42.999Z</time></trkpt><trkpt lat="42.08398771435242" lon="12.802010849925555"><ele>477.0</ele><time>2026-04-12T09:51:44.998Z</time></trkpt><trkpt lat="42.083916985253" lon="12.802082480159251"><ele>476.20000000000005</ele><time>2026-04-12T09:51:46.998Z</time></trkpt><trkpt lat="42.08385850214569" lon="12.802143959020691"><ele>475.40000000000003</ele><time>2026-04-12T09:51:48.998Z</time></trkpt><trkpt lat="42.083773006895456" lon="12.802239585089042"><ele>474.59999999999997</ele><time>2026-04-12T09:51:50.998Z</time></trkpt><trkpt lat="42.08368953725391" lon="12.802319251554009"><ele>473.79999999999995</ele><time>2026-04-12T09:51:52.998Z</time></trkpt><trkpt lat="42.08361844309621" lon="12.802427475658693"><ele>473.0</ele><time>2026-04-12T09:51:54.998Z</time></trkpt><trkpt lat="42.08356586492714" lon="12.802534859144865"><ele>473.0</ele><time>2026-04-12T09:51:56.998Z</time></trkpt><trkpt lat="42.08354031184764" lon="12.802648848208099"><ele>472.99999999999994</ele><time>2026-04-12T09:51:58.998Z</time></trkpt><trkpt lat="42.083517074502154" lon="12.802796901651533"><ele>472.99999999999994</ele><time>2026-04-12T09:52:00.998Z</time></trkpt><trkpt lat="42.08350378096445" lon="12.802892223507438"><ele>473.0</ele><time>2026-04-12T09:52:01.998Z</time></trkpt><trkpt lat="42.08348633475041" lon="12.803042314622628"><ele>473.0</ele><time>2026-04-12T09:52:03.998Z</time></trkpt><trkpt lat="42.083495590223" lon="12.80321547034193"><ele>475.16666666666663</ele><time>2026-04-12T09:52:05.999Z</time></trkpt><trkpt lat="42.08349844248168" lon="12.803309259356547"><ele>477.3333333333333</ele><time>2026-04-12T09:52:06.999Z</time></trkpt><trkpt lat="42.08349567833353" lon="12.803401497646917"><ele>479.5</ele><time>2026-04-12T09:52:07.999Z</time></trkpt><trkpt lat="42.08348818364256" lon="12.80348827445604"><ele>481.66666666666663</ele><time>2026-04-12T09:52:08.999Z</time></trkpt><trkpt lat="42.08348256295063" lon="12.803642654279782"><ele>483.8333333333333</ele><time>2026-04-12T09:52:10.999Z</time></trkpt><trkpt lat="42.083474906451606" lon="12.803795584739614"><ele>486.0</ele><time>2026-04-12T09:52:12.999Z</time></trkpt><trkpt lat="42.08348866583068" lon="12.803951296686426"><ele>486.8</ele><time>2026-04-12T09:52:14.999Z</time></trkpt><trkpt lat="42.08352379826562" lon="12.804094187124226"><ele>487.6</ele><time>2026-04-12T09:52:16.999Z</time></trkpt><trkpt lat="42.08357316492789" lon="12.804229856258944"><ele>488.4</ele><time>2026-04-12T09:52:18.999Z</time></trkpt><trkpt lat="42.08363803652172" lon="12.804356954397369"><ele>489.2</ele><time>2026-04-12T09:52:20.999Z</time></trkpt><trkpt lat="42.08370527699376" lon="12.804469282886535"><ele>490.0</ele><time>2026-04-12T09:52:22.999Z</time></trkpt><trkpt lat="42.08376407313414" lon="12.804539747376536"><ele>487.6</ele><time>2026-04-12T09:52:24.999Z</time></trkpt><trkpt lat="42.08384384025323" lon="12.804604075416211"><ele>485.2</ele><time>2026-04-12T09:52:26.999Z</time></trkpt><trkpt lat="42.08394332301523" lon="12.80466688937395"><ele>482.79999999999995</ele><time>2026-04-12T09:52:28.999Z</time></trkpt><trkpt lat="42.08405615191871" lon="12.804694507064617"><ele>480.4</ele><time>2026-04-12T09:52:30.999Z</time></trkpt><trkpt lat="42.08413962543816" lon="12.80471598558574"><ele>478.0</ele><time>2026-04-12T09:52:31.999Z</time></trkpt><trkpt lat="42.084239049894435" lon="12.804755310645449"><ele>483.0</ele><time>2026-04-12T09:52:32.999Z</time></trkpt><trkpt lat="42.08431790970441" lon="12.804799754308222"><ele>487.99999999999994</ele><time>2026-04-12T09:52:33.999Z</time></trkpt><trkpt lat="42.08441719702068" lon="12.804872306122707"><ele>492.99999999999994</ele><time>2026-04-12T09:52:35.999Z</time></trkpt><trkpt lat="42.084494739704354" lon="12.804916584046621"><ele>498.0</ele><time>2026-04-12T09:52:37.999Z</time></trkpt><trkpt lat="42.08458348058131" lon="12.8049152788919"><ele>503.0</ele><time>2026-04-12T09:52:48.999Z</time></trkpt><trkpt lat="42.08470461219091" lon="12.804871178491634"><ele>502.99999999999994</ele><time>2026-04-12T09:52:50.999Z</time></trkpt><trkpt lat="42.084775416418985" lon="12.804848989289948"><ele>503.0</ele><time>2026-04-12T09:52:51.999Z</time></trkpt><trkpt lat="42.08485095979067" lon="12.804837386593197"><ele>503.0</ele><time>2026-04-12T09:52:52.999Z</time></trkpt><trkpt lat="42.084928956681395" lon="12.804825337404397"><ele>503.0</ele><time>2026-04-12T09:52:53.999Z</time></trkpt><trkpt lat="42.085013206482685" lon="12.804814395187737"><ele>502.99999999999994</ele><time>2026-04-12T09:52:54.999Z</time></trkpt><trkpt lat="42.085094804043955" lon="12.804809202068734"><ele>503.0</ele><time>2026-04-12T09:52:55.999Z</time></trkpt><trkpt lat="42.08517671139086" lon="12.804799221870827"><ele>504.7142857142857</ele><time>2026-04-12T09:52:56.999Z</time></trkpt><trkpt lat="42.08525803980172" lon="12.804800387728548"><ele>506.42857142857144</ele><time>2026-04-12T09:52:57.999Z</time></trkpt><trkpt lat="42.08533231730734" lon="12.804811071257577"><ele>508.14285714285717</ele><time>2026-04-12T09:52:58.999Z</time></trkpt><trkpt lat="42.08540931749457" lon="12.804823012256595"><ele>509.8571428571429</ele><time>2026-04-12T09:52:59.999Z</time></trkpt><trkpt lat="42.08548530028427" lon="12.804823593285452"><ele>511.57142857142856</ele><time>2026-04-12T09:53:00.999Z</time></trkpt><trkpt lat="42.08555759987556" lon="12.804811959389827"><ele>513.2857142857143</ele><time>2026-04-12T09:53:01.999Z</time></trkpt><trkpt lat="42.085622553942244" lon="12.804817723230036"><ele>515.0</ele><time>2026-04-12T09:53:02.999Z</time></trkpt><trkpt lat="42.08568932613612" lon="12.804831946373882"><ele>515.4285714285714</ele><time>2026-04-12T09:53:03.999Z</time></trkpt><trkpt lat="42.08576491824615" lon="12.80484201338695"><ele>515.8571428571429</ele><time>2026-04-12T09:53:04.999Z</time></trkpt><trkpt lat="42.085837138230985" lon="12.80485448153511"><ele>516.2857142857142</ele><time>2026-04-12T09:53:05.999Z</time></trkpt><trkpt lat="42.08590482404466" lon="12.80486481523189"><ele>516.7142857142858</ele><time>2026-04-12T09:53:06.999Z</time></trkpt><trkpt lat="42.08597272944342" lon="12.80487560849052"><ele>517.1428571428571</ele><time>2026-04-12T09:53:07.999Z</time></trkpt><trkpt lat="42.086047473369" lon="12.804889795495923"><ele>517.5714285714286</ele><time>2026-04-12T09:53:08.999Z</time></trkpt><trkpt lat="42.08612263003119" lon="12.804904137540804"><ele>518.0</ele><time>2026-04-12T09:53:09.999Z</time></trkpt><trkpt lat="42.0862010367785" lon="12.804913567199316"><ele>518.0</ele><time>2026-04-12T09:53:10.999Z</time></trkpt><trkpt lat="42.0862801791606" lon="12.804926829097235"><ele>518.0</ele><time>2026-04-12T09:53:11.999Z</time></trkpt><trkpt lat="42.086366607634446" lon="12.80495062346871"><ele>518.0</ele><time>2026-04-12T09:53:12.999Z</time></trkpt><trkpt lat="42.08644885856888" lon="12.804969775262135"><ele>518.0</ele><time>2026-04-12T09:53:13.999Z</time></trkpt><trkpt lat="42.0865257307997" lon="12.804987902911288"><ele>518.0</ele><time>2026-04-12T09:53:14.999Z</time></trkpt><trkpt lat="42.08660248462727" lon="12.805012572712863"><ele>518.0</ele><time>2026-04-12T09:53:15.999Z</time></trkpt><trkpt lat="42.08666345322045" lon="12.80503689658986"><ele>517.8333333333333</ele><time>2026-04-12T09:53:16.999Z</time></trkpt><trkpt lat="42.08672998323213" lon="12.805055311055865"><ele>517.6666666666666</ele><time>2026-04-12T09:53:17.999Z</time></trkpt><trkpt lat="42.08682120618262" lon="12.80507016037763"><ele>517.5</ele><time>2026-04-12T09:53:18.999Z</time></trkpt><trkpt lat="42.086914121920664" lon="12.80510192521595"><ele>517.3333333333334</ele><time>2026-04-12T09:53:19.999Z</time></trkpt><trkpt lat="42.08698141452382" lon="12.805125232841986"><ele>517.1666666666667</ele><time>2026-04-12T09:53:20.999Z</time></trkpt><trkpt lat="42.08708141462197" lon="12.805173272030823"><ele>517.0</ele><time>2026-04-12T09:53:22.999Z</time></trkpt><trkpt lat="42.08720031924901" lon="12.805199298473676"><ele>517.0</ele><time>2026-04-12T09:53:24.999Z</time></trkpt><trkpt lat="42.08731910370485" lon="12.805224806727548"><ele>517.0</ele><time>2026-04-12T09:53:26.999Z</time></trkpt><trkpt lat="42.08744144623433" lon="12.805226986939635"><ele>517.0</ele><time>2026-04-12T09:53:28.999Z</time></trkpt><trkpt lat="42.08756416396929" lon="12.805243467447678"><ele>517.0</ele><time>2026-04-12T09:53:30.999Z</time></trkpt><trkpt lat="42.08768498625533" lon="12.805244345605596"><ele>519.5714285714286</ele><time>2026-04-12T09:53:32.998Z</time></trkpt><trkpt lat="42.087747960835145" lon="12.805229740816543"><ele>522.1428571428572</ele><time>2026-04-12T09:53:33.998Z</time></trkpt><trkpt lat="42.087822832803575" lon="12.805217261064515"><ele>524.7142857142858</ele><time>2026-04-12T09:53:34.998Z</time></trkpt><trkpt lat="42.08789428992791" lon="12.805203057118764"><ele>527.2857142857143</ele><time>2026-04-12T09:53:35.998Z</time></trkpt><trkpt lat="42.08797051339618" lon="12.805196845425824"><ele>529.8571428571429</ele><time>2026-04-12T09:53:36.998Z</time></trkpt><trkpt lat="42.0880507716335" lon="12.805187250778307"><ele>532.4285714285714</ele><time>2026-04-12T09:53:37.998Z</time></trkpt><trkpt lat="42.0881277511976" lon="12.805180539448273"><ele>535.0</ele><time>2026-04-12T09:53:38.998Z</time></trkpt><trkpt lat="42.08821594828317" lon="12.805169288181686"><ele>539.3333333333334</ele><time>2026-04-12T09:53:39.998Z</time></trkpt><trkpt lat="42.08829568742918" lon="12.805161429828855"><ele>543.6666666666667</ele><time>2026-04-12T09:53:40.998Z</time></trkpt><trkpt lat="42.08837503608348" lon="12.805157344996271"><ele>548.0</ele><time>2026-04-12T09:53:41.998Z</time></trkpt><trkpt lat="42.088451334593955" lon="12.805148406740585"><ele>552.3333333333334</ele><time>2026-04-12T09:53:42.998Z</time></trkpt><trkpt lat="42.08853490111825" lon="12.805147788773434"><ele>556.6666666666666</ele><time>2026-04-12T09:53:43.998Z</time></trkpt><trkpt lat="42.088610651170335" lon="12.80514743832593"><ele>561.0</ele><time>2026-04-12T09:53:44.998Z</time></trkpt><trkpt lat="42.08869447051057" lon="12.805146817707548"><ele>561.0</ele><time>2026-04-12T09:53:45.998Z</time></trkpt><trkpt lat="42.08877247784351" lon="12.805150474542632"><ele>561.0</ele><time>2026-04-12T09:53:46.998Z</time></trkpt><trkpt lat="42.08884759631836" lon="12.805144980554392"><ele>561.0</ele><time>2026-04-12T09:53:47.998Z</time></trkpt><trkpt lat="42.088925833817825" lon="12.80514443247686"><ele>561.0</ele><time>2026-04-12T09:53:48.998Z</time></trkpt><trkpt lat="42.08900556380899" lon="12.805134745298982"><ele>561.0</ele><time>2026-04-12T09:53:49.998Z</time></trkpt><trkpt lat="42.089085754154674" lon="12.805119150232994"><ele>561.0</ele><time>2026-04-12T09:53:50.998Z</time></trkpt><trkpt lat="42.089160601979785" lon="12.8051048213879"><ele>562.0</ele><time>2026-04-12T09:53:51.998Z</time></trkpt><trkpt lat="42.08923868243046" lon="12.805090116538123"><ele>563.0</ele><time>2026-04-12T09:53:52.998Z</time></trkpt><trkpt lat="42.089317038035276" lon="12.805079620750988"><ele>564.0</ele><time>2026-04-12T09:53:53.998Z</time></trkpt><trkpt lat="42.08938453945423" lon="12.805086481189456"><ele>565.0</ele><time>2026-04-12T09:53:54.998Z</time></trkpt><trkpt lat="42.089507756969404" lon="12.805112062858147"><ele>566.0</ele><time>2026-04-12T09:53:56.998Z</time></trkpt><trkpt lat="42.089571999362384" lon="12.805124206784425"><ele>567.0</ele><time>2026-04-12T09:53:57.998Z</time></trkpt><trkpt lat="42.08968239556013" lon="12.805143013142734"><ele>567.0</ele><time>2026-04-12T09:53:59.998Z</time></trkpt><trkpt lat="42.08979295050044" lon="12.805161341556575"><ele>567.0</ele><time>2026-04-12T09:54:01.998Z</time></trkpt><trkpt lat="42.089872195260206" lon="12.805179542031173"><ele>567.0</ele><time>2026-04-12T09:54:02.998Z</time></trkpt><trkpt lat="42.08995058718309" lon="12.80519870326261"><ele>567.0</ele><time>2026-04-12T09:54:03.998Z</time></trkpt><trkpt lat="42.090053421471055" lon="12.80521729468066"><ele>567.0</ele><time>2026-04-12T09:54:05.998Z</time></trkpt><trkpt lat="42.09017905315604" lon="12.80522261207433"><ele>568.3333333333334</ele><time>2026-04-12T09:54:07.998Z</time></trkpt><trkpt lat="42.09028070017987" lon="12.805231002492812"><ele>569.6666666666666</ele><time>2026-04-12T09:54:10Z</time></trkpt><trkpt lat="42.09036966041342" lon="12.805265052070759"><ele>571.0</ele><time>2026-04-12T09:54:12Z</time></trkpt><trkpt lat="42.09044847986592" lon="12.805294689413705"><ele>572.3333333333333</ele><time>2026-04-12T09:54:14Z</time></trkpt><trkpt lat="42.09052349482234" lon="12.805334326116418"><ele>573.6666666666666</ele><time>2026-04-12T09:54:16Z</time></trkpt><trkpt lat="42.09058899527589" lon="12.805359948475619"><ele>575.0</ele><time>2026-04-12T09:54:18Z</time></trkpt><trkpt lat="42.09066073797816" lon="12.805389459510167"><ele>575.0</ele><time>2026-04-12T09:54:27Z</time></trkpt><trkpt lat="42.09075315341568" lon="12.805450405461588"><ele>575.0</ele><time>2026-04-12T09:54:29Z</time></trkpt><trkpt lat="42.090852060329375" lon="12.805502812001173"><ele>575.0</ele><time>2026-04-12T09:54:31Z</time></trkpt><trkpt lat="42.0909890896144" lon="12.805550016244402"><ele>575.0</ele><time>2026-04-12T09:54:33Z</time></trkpt><trkpt lat="42.09105697140713" lon="12.805574210231114"><ele>575.0</ele><time>2026-04-12T09:54:34Z</time></trkpt><trkpt lat="42.0911470837032" lon="12.805625433535823"><ele>576.0</ele><time>2026-04-12T09:54:36Z</time></trkpt><trkpt lat="42.091236467724144" lon="12.805683088092527"><ele>577.0</ele><time>2026-04-12T09:54:38Z</time></trkpt><trkpt lat="42.09134305459601" lon="12.805705860868194"><ele>578.0</ele><time>2026-04-12T09:54:40Z</time></trkpt><trkpt lat="42.091450734688635" lon="12.80575026454722"><ele>579.0</ele><time>2026-04-12T09:54:42Z</time></trkpt><trkpt lat="42.091511424351545" lon="12.80577764174595"><ele>580.0</ele><time>2026-04-12T09:54:43Z</time></trkpt><trkpt lat="42.09160585275343" lon="12.805805005993795"><ele>582.3333333333334</ele><time>2026-04-12T09:54:45Z</time></trkpt><trkpt lat="42.09168920820165" lon="12.80584657174228"><ele>584.6666666666667</ele><time>2026-04-12T09:54:47Z</time></trkpt><trkpt lat="42.0917541460466" lon="12.805870514351628"><ele>587.0</ele><time>2026-04-12T09:54:48Z</time></trkpt><trkpt lat="42.091815237687975" lon="12.805891255115995"><ele>589.3333333333334</ele><time>2026-04-12T09:54:49Z</time></trkpt><trkpt lat="42.09188378967542" lon="12.805919530048088"><ele>591.6666666666666</ele><time>2026-04-12T09:54:50Z</time></trkpt><trkpt lat="42.091960315463744" lon="12.805953750609296"><ele>594.0</ele><time>2026-04-12T09:54:51Z</time></trkpt><trkpt lat="42.092038227321105" lon="12.805986972715278"><ele>594.0</ele><time>2026-04-12T09:54:52Z</time></trkpt><trkpt lat="42.092121175780086" lon="12.806019599725273"><ele>594.0</ele><time>2026-04-12T09:54:53Z</time></trkpt><trkpt lat="42.0921948683101" lon="12.806045285664005"><ele>594.0</ele><time>2026-04-12T09:54:53.999Z</time></trkpt><trkpt lat="42.09225471574268" lon="12.806072578107344"><ele>594.0</ele><time>2026-04-12T09:54:54.999Z</time></trkpt><trkpt lat="42.09231553003993" lon="12.806109327349441"><ele>594.0</ele><time>2026-04-12T09:54:55.999Z</time></trkpt><trkpt lat="42.09237053221309" lon="12.806153128023894"><ele>594.0</ele><time>2026-04-12T09:54:56.999Z</time></trkpt><trkpt lat="42.09242329910007" lon="12.806208399089169"><ele>594.0</ele><time>2026-04-12T09:54:58.999Z</time></trkpt><trkpt lat="42.09250958642601" lon="12.806267401804073"><ele>594.25</ele><time>2026-04-12T09:55:00.999Z</time></trkpt><trkpt lat="42.09261550726859" lon="12.806318042193707"><ele>594.5</ele><time>2026-04-12T09:55:02.999Z</time></trkpt><trkpt lat="42.092722115315915" lon="12.80634334175052"><ele>594.75</ele><time>2026-04-12T09:55:04.999Z</time></trkpt><trkpt lat="42.09283541459546" lon="12.806351632492392"><ele>595.0</ele><time>2026-04-12T09:55:06.999Z</time></trkpt><trkpt lat="42.09295112501601" lon="12.806369565597024"><ele>595.0</ele><time>2026-04-12T09:55:08.999Z</time></trkpt><trkpt lat="42.093056613436055" lon="12.806361945909922"><ele>595.0</ele><time>2026-04-12T09:55:10.999Z</time></trkpt><trkpt lat="42.09314429993039" lon="12.806361798448629"><ele>595.0</ele><time>2026-04-12T09:55:12.999Z</time></trkpt><trkpt lat="42.09322949892314" lon="12.806351045969851"><ele>595.0</ele><time>2026-04-12T09:55:14.999Z</time></trkpt><trkpt lat="42.09334426289384" lon="12.806321592649832"><ele>595.0</ele><time>2026-04-12T09:55:16.999Z</time></trkpt><trkpt lat="42.093462881351755" lon="12.806278818041019"><ele>597.0</ele><time>2026-04-12T09:55:18.999Z</time></trkpt><trkpt lat="42.09352095158381" lon="12.806242707256052"><ele>599.0</ele><time>2026-04-12T09:55:19.999Z</time></trkpt><trkpt lat="42.093622663764066" lon="12.806167094835203"><ele>601.0</ele><time>2026-04-12T09:55:21.999Z</time></trkpt><trkpt lat="42.09373410486729" lon="12.806118040124892"><ele>603.0</ele><time>2026-04-12T09:55:23.999Z</time></trkpt><trkpt lat="42.09384980306467" lon="12.806105914568848"><ele>605.0</ele><time>2026-04-12T09:55:25.999Z</time></trkpt><trkpt lat="42.09395598475218" lon="12.806060092425648"><ele>608.5</ele><time>2026-04-12T09:55:27.999Z</time></trkpt><trkpt lat="42.0940582553151" lon="12.805976978271941"><ele>612.0</ele><time>2026-04-12T09:55:29.999Z</time></trkpt><trkpt lat="42.094112302203335" lon="12.805927359484098"><ele>615.5</ele><time>2026-04-12T09:55:30.999Z</time></trkpt><trkpt lat="42.094169448048795" lon="12.805869900493143"><ele>619.0</ele><time>2026-04-12T09:55:31.999Z</time></trkpt><trkpt lat="42.094226980162254" lon="12.805813194281598"><ele>622.5</ele><time>2026-04-12T09:55:32.999Z</time></trkpt><trkpt lat="42.094282860214264" lon="12.80576628125249"><ele>626.0</ele><time>2026-04-12T09:55:33.999Z</time></trkpt><trkpt lat="42.094370961553174" lon="12.805733303880455"><ele>626.0</ele><time>2026-04-12T09:55:35.999Z</time></trkpt><trkpt lat="42.094462981450825" lon="12.805781496647251"><ele>626.0</ele><time>2026-04-12T09:55:37.999Z</time></trkpt><trkpt lat="42.094519758067634" lon="12.805879580809695"><ele>626.0</ele><time>2026-04-12T09:55:39.999Z</time></trkpt><trkpt lat="42.09456726880981" lon="12.805987378297877"><ele>626.0</ele><time>2026-04-12T09:55:42.999Z</time></trkpt><trkpt lat="42.094642566874086" lon="12.806068212112535"><ele>626.0</ele><time>2026-04-12T09:55:44.999Z</time></trkpt><trkpt lat="42.09474130714034" lon="12.806119310912305"><ele>626.2</ele><time>2026-04-12T09:55:46.999Z</time></trkpt><trkpt lat="42.09485359045401" lon="12.806176846342778"><ele>626.4000000000001</ele><time>2026-04-12T09:55:48.999Z</time></trkpt><trkpt lat="42.09495878361993" lon="12.806225185783882"><ele>626.6</ele><time>2026-04-12T09:55:50.999Z</time></trkpt><trkpt lat="42.09506349071193" lon="12.806303531073072"><ele>626.8000000000001</ele><time>2026-04-12T09:55:52.999Z</time></trkpt><trkpt lat="42.09511752242615" lon="12.80638208435005"><ele>627.0</ele><time>2026-04-12T09:55:54.999Z</time></trkpt><trkpt lat="42.09521132294252" lon="12.806442989480773"><ele>627.0</ele><time>2026-04-12T09:55:56.999Z</time></trkpt><trkpt lat="42.09531833907011" lon="12.806515845055078"><ele>627.0</ele><time>2026-04-12T09:55:58.999Z</time></trkpt><trkpt lat="42.095373783891105" lon="12.806557609824248"><ele>627.0</ele><time>2026-04-12T09:55:59.999Z</time></trkpt><trkpt lat="42.09542793101955" lon="12.806601588627533"><ele>627.0</ele><time>2026-04-12T09:56:00.999Z</time></trkpt><trkpt lat="42.09548283987127" lon="12.806647452306743"><ele>627.0</ele><time>2026-04-12T09:56:01.999Z</time></trkpt><trkpt lat="42.095558899671964" lon="12.806730599745338"><ele>627.0</ele><time>2026-04-12T09:56:03.999Z</time></trkpt><trkpt lat="42.09564532834923" lon="12.806820231774573"><ele>628.4285714285714</ele><time>2026-04-12T09:56:05.999Z</time></trkpt><trkpt lat="42.09570161959616" lon="12.806862811730593"><ele>629.8571428571429</ele><time>2026-04-12T09:56:06.999Z</time></trkpt><trkpt lat="42.095756859364236" lon="12.806907254394813"><ele>631.2857142857142</ele><time>2026-04-12T09:56:07.999Z</time></trkpt><trkpt lat="42.09581681036164" lon="12.806951293598914"><ele>632.7142857142858</ele><time>2026-04-12T09:56:08.999Z</time></trkpt><trkpt lat="42.09588026889949" lon="12.806990167442953"><ele>634.1428571428571</ele><time>2026-04-12T09:56:09.998Z</time></trkpt><trkpt lat="42.09594303562053" lon="12.807024023321215"><ele>635.5714285714286</ele><time>2026-04-12T09:56:10.998Z</time></trkpt><trkpt lat="42.096005170895495" lon="12.80706210598777"><ele>637.0</ele><time>2026-04-12T09:56:11.998Z</time></trkpt><trkpt lat="42.0960682856709" lon="12.807108805107752"><ele>637.6666666666667</ele><time>2026-04-12T09:56:12.998Z</time></trkpt><trkpt lat="42.09612422058616" lon="12.807158491993032"><ele>638.3333333333334</ele><time>2026-04-12T09:56:13.998Z</time></trkpt><trkpt lat="42.096170868356424" lon="12.807223970242665"><ele>639.0</ele><time>2026-04-12T09:56:14.998Z</time></trkpt><trkpt lat="42.09621419303849" lon="12.807296040470433"><ele>639.6666666666666</ele><time>2026-04-12T09:56:16Z</time></trkpt><trkpt lat="42.096247506693224" lon="12.807370675378827"><ele>640.3333333333333</ele><time>2026-04-12T09:56:17Z</time></trkpt><trkpt lat="42.09629072513341" lon="12.807520192664171"><ele>641.0</ele><time>2026-04-12T09:56:19Z</time></trkpt><trkpt lat="42.096295967749235" lon="12.80765175545349"><ele>642.5</ele><time>2026-04-12T09:56:21Z</time></trkpt><trkpt lat="42.09626234975472" lon="12.807771180060005"><ele>644.0</ele><time>2026-04-12T09:56:23Z</time></trkpt><trkpt lat="42.096188951602734" lon="12.807875302078836"><ele>645.5</ele><time>2026-04-12T09:56:25Z</time></trkpt><trkpt lat="42.09614747548129" lon="12.807948552198061"><ele>647.0</ele><time>2026-04-12T09:56:26Z</time></trkpt><trkpt lat="42.09610932443903" lon="12.808031781314957"><ele>648.5</ele><time>2026-04-12T09:56:27Z</time></trkpt><trkpt lat="42.09607821312132" lon="12.80812506998074"><ele>650.0</ele><time>2026-04-12T09:56:28Z</time></trkpt><trkpt lat="42.09605082043295" lon="12.80821677509725"><ele>650.0</ele><time>2026-04-12T09:56:29Z</time></trkpt><trkpt lat="42.09602335645356" lon="12.808306106567208"><ele>650.0</ele><time>2026-04-12T09:56:30Z</time></trkpt><trkpt lat="42.096000896754944" lon="12.808395057393588"><ele>650.0</ele><time>2026-04-12T09:56:31Z</time></trkpt><trkpt lat="42.09597888371692" lon="12.808498902275655"><ele>650.0</ele><time>2026-04-12T09:56:32Z</time></trkpt><trkpt lat="42.09595186047127" lon="12.808592727631337"><ele>650.0</ele><time>2026-04-12T09:56:33Z</time></trkpt><trkpt lat="42.09592917012767" lon="12.808695536531813"><ele>650.0</ele><time>2026-04-12T09:56:34Z</time></trkpt><trkpt lat="42.09591304857504" lon="12.808779895947106"><ele>650.0</ele><time>2026-04-12T09:56:35Z</time></trkpt><trkpt lat="42.09586749164402" lon="12.808916832625211"><ele>651.8</ele><time>2026-04-12T09:56:37Z</time></trkpt><trkpt lat="42.09577938847461" lon="12.809010199290961"><ele>653.6</ele><time>2026-04-12T09:56:39Z</time></trkpt><trkpt lat="42.095682189414674" lon="12.80905571201809"><ele>655.4000000000001</ele><time>2026-04-12T09:56:40.999Z</time></trkpt><trkpt lat="42.095611681460625" lon="12.809070846208146"><ele>657.2</ele><time>2026-04-12T09:56:42.999Z</time></trkpt><trkpt lat="42.095522519552205" lon="12.809088566586134"><ele>659.0</ele><time>2026-04-12T09:56:44.999Z</time></trkpt><trkpt lat="42.0953983784064" lon="12.80905491308144"><ele>659.0</ele><time>2026-04-12T09:56:46.999Z</time></trkpt><trkpt lat="42.09532257552116" lon="12.809013827651896"><ele>659.0</ele><time>2026-04-12T09:56:47.999Z</time></trkpt><trkpt lat="42.09522331024103" lon="12.808919714448455"><ele>659.0</ele><time>2026-04-12T09:56:49.999Z</time></trkpt><trkpt lat="42.09512695570197" lon="12.808867730653976"><ele>659.0</ele><time>2026-04-12T09:56:51.999Z</time></trkpt><trkpt lat="42.0950354082953" lon="12.808915576148296"><ele>659.0</ele><time>2026-04-12T09:56:53.999Z</time></trkpt><trkpt lat="42.0949941041015" lon="12.809033175547599"><ele>659.0</ele><time>2026-04-12T09:56:55.999Z</time></trkpt><trkpt lat="42.095012282736796" lon="12.809149758866514"><ele>659.0</ele><time>2026-04-12T09:56:57.999Z</time></trkpt><trkpt lat="42.09504628222678" lon="12.809288354918447"><ele>659.0</ele><time>2026-04-12T09:56:59.999Z</time></trkpt><trkpt lat="42.09505453683653" lon="12.809409410211195"><ele>659.0</ele><time>2026-04-12T09:57:00.999Z</time></trkpt><trkpt lat="42.095056561746006" lon="12.809564260806823"><ele>659.0</ele><time>2026-04-12T09:57:01.999Z</time></trkpt><trkpt lat="42.09504320580473" lon="12.809691515763706"><ele>660.3333333333333</ele><time>2026-04-12T09:57:02.999Z</time></trkpt><trkpt lat="42.09502426636884" lon="12.809801655648"><ele>661.6666666666666</ele><time>2026-04-12T09:57:03.999Z</time></trkpt><trkpt lat="42.09500664361345" lon="12.809903819785674"><ele>663.0</ele><time>2026-04-12T09:57:04.999Z</time></trkpt><trkpt lat="42.09499566045935" lon="12.810001987073946"><ele>664.3333333333334</ele><time>2026-04-12T09:57:05.999Z</time></trkpt><trkpt lat="42.09496425357007" lon="12.81015608417847"><ele>665.6666666666667</ele><time>2026-04-12T09:57:07.999Z</time></trkpt><trkpt lat="42.0949421612135" lon="12.810257588403863"><ele>667.0</ele><time>2026-04-12T09:57:08.999Z</time></trkpt><trkpt lat="42.09492091445313" lon="12.810360811522633"><ele>666.7142857142858</ele><time>2026-04-12T09:57:09.999Z</time></trkpt><trkpt lat="42.0948990292101" lon="12.810466999710654"><ele>666.4285714285714</ele><time>2026-04-12T09:57:10.999Z</time></trkpt><trkpt lat="42.09487281361625" lon="12.810562521200103"><ele>666.1428571428571</ele><time>2026-04-12T09:57:11.999Z</time></trkpt><trkpt lat="42.09485370948512" lon="12.81066024007011"><ele>665.8571428571429</ele><time>2026-04-12T09:57:12.999Z</time></trkpt><trkpt lat="42.09484027684154" lon="12.81075350159654"><ele>665.5714285714286</ele><time>2026-04-12T09:57:13.999Z</time></trkpt><trkpt lat="42.09481857005036" lon="12.81083685834676"><ele>665.2857142857143</ele><time>2026-04-12T09:57:14.999Z</time></trkpt><trkpt lat="42.09479797641728" lon="12.810920247414634"><ele>665.0</ele><time>2026-04-12T09:57:15.999Z</time></trkpt><trkpt lat="42.0947868805454" lon="12.811004732923493"><ele>667.0</ele><time>2026-04-12T09:57:16.999Z</time></trkpt><trkpt lat="42.094770267506526" lon="12.811089595882173"><ele>669.0</ele><time>2026-04-12T09:57:17.999Z</time></trkpt><trkpt lat="42.09475456651404" lon="12.81118931141301"><ele>671.0</ele><time>2026-04-12T09:57:18.999Z</time></trkpt><trkpt lat="42.09473714221466" lon="12.811287773120913"><ele>673.0</ele><time>2026-04-12T09:57:19.999Z</time></trkpt><trkpt lat="42.09471607651551" lon="12.811375850506202"><ele>675.0</ele><time>2026-04-12T09:57:20.999Z</time></trkpt><trkpt lat="42.09469832034621" lon="12.811470303957364"><ele>677.0</ele><time>2026-04-12T09:57:21.999Z</time></trkpt><trkpt lat="42.09468116149678" lon="12.811554714325615"><ele>679.0</ele><time>2026-04-12T09:57:22.999Z</time></trkpt><trkpt lat="42.09466723873999" lon="12.811656941396288"><ele>679.0</ele><time>2026-04-12T09:57:23.999Z</time></trkpt><trkpt lat="42.09464939874656" lon="12.81176353469561"><ele>679.0</ele><time>2026-04-12T09:57:24.999Z</time></trkpt><trkpt lat="42.094631102075304" lon="12.811864530152269"><ele>679.0</ele><time>2026-04-12T09:57:25.999Z</time></trkpt><trkpt lat="42.0946152942377" lon="12.811970166017895"><ele>679.0</ele><time>2026-04-12T09:57:26.999Z</time></trkpt><trkpt lat="42.09459406709176" lon="12.81208059853074"><ele>679.0</ele><time>2026-04-12T09:57:27.999Z</time></trkpt><trkpt lat="42.09457377144187" lon="12.812191723118701"><ele>679.0</ele><time>2026-04-12T09:57:28.999Z</time></trkpt><trkpt lat="42.09455062659275" lon="12.81230104204703"><ele>680.6666666666667</ele><time>2026-04-12T09:57:29.999Z</time></trkpt><trkpt lat="42.09452331408787" lon="12.81240875199389"><ele>682.3333333333334</ele><time>2026-04-12T09:57:30.999Z</time></trkpt><trkpt lat="42.09449212865818" lon="12.8125257505507"><ele>684.0</ele><time>2026-04-12T09:57:31.999Z</time></trkpt><trkpt lat="42.09445952306653" lon="12.812644945330712"><ele>685.6666666666666</ele><time>2026-04-12T09:57:32.999Z</time></trkpt><trkpt lat="42.09442856112386" lon="12.812753479320927"><ele>687.3333333333333</ele><time>2026-04-12T09:57:33.999Z</time></trkpt><trkpt lat="42.09439243545964" lon="12.812856664804704"><ele>689.0</ele><time>2026-04-12T09:57:34.999Z</time></trkpt><trkpt lat="42.094351008343914" lon="12.81295369810662"><ele>689.5714285714286</ele><time>2026-04-12T09:57:35.999Z</time></trkpt><trkpt lat="42.09431065317213" lon="12.813049516592317"><ele>690.1428571428571</ele><time>2026-04-12T09:57:36.999Z</time></trkpt><trkpt lat="42.09427525034512" lon="12.81314022909838"><ele>690.7142857142858</ele><time>2026-04-12T09:57:37.999Z</time></trkpt><trkpt lat="42.09423481732141" lon="12.81322472324972"><ele>691.2857142857142</ele><time>2026-04-12T09:57:38.999Z</time></trkpt><trkpt lat="42.0941998580645" lon="12.813296678242814"><ele>691.8571428571429</ele><time>2026-04-12T09:57:39.999Z</time></trkpt><trkpt lat="42.094153027901356" lon="12.81337339967366"><ele>692.4285714285714</ele><time>2026-04-12T09:57:41.999Z</time></trkpt><trkpt lat="42.09415179823964" lon="12.813462623568704"><ele>693.0</ele><time>2026-04-12T09:57:50.999Z</time></trkpt><trkpt lat="42.0941512930137" lon="12.813577464180504"><ele>693.0</ele><time>2026-04-12T09:57:52.999Z</time></trkpt><trkpt lat="42.09419017113688" lon="12.813714127073212"><ele>693.0</ele><time>2026-04-12T09:57:54.999Z</time></trkpt><trkpt lat="42.09422834545273" lon="12.813781855738034"><ele>693.0</ele><time>2026-04-12T09:57:55.999Z</time></trkpt><trkpt lat="42.09427912369798" lon="12.813850672318916"><ele>693.0</ele><time>2026-04-12T09:57:56.999Z</time></trkpt><trkpt lat="42.094335451029046" lon="12.813915072915723"><ele>693.0</ele><time>2026-04-12T09:57:57.999Z</time></trkpt><trkpt lat="42.09439467098542" lon="12.81398334796179"><ele>693.0</ele><time>2026-04-12T09:57:58.999Z</time></trkpt><trkpt lat="42.094454472380114" lon="12.814049061000974"><ele>693.0</ele><time>2026-04-12T09:57:59.999Z</time></trkpt><trkpt lat="42.094506312288296" lon="12.814117056109021"><ele>693.0</ele><time>2026-04-12T09:58:00.999Z</time></trkpt><trkpt lat="42.094559179085735" lon="12.814179996578412"><ele>693.0</ele><time>2026-04-12T09:58:01.999Z</time></trkpt><trkpt lat="42.09461676786596" lon="12.814232203871198"><ele>693.0</ele><time>2026-04-12T09:58:02.999Z</time></trkpt><trkpt lat="42.09467299244296" lon="12.814277953165055"><ele>693.0</ele><time>2026-04-12T09:58:03.999Z</time></trkpt><trkpt lat="42.094734449245415" lon="12.814320380580394"><ele>693.0</ele><time>2026-04-12T09:58:04.999Z</time></trkpt><trkpt lat="42.09480588170689" lon="12.81436659866895"><ele>693.0</ele><time>2026-04-12T09:58:05.999Z</time></trkpt><trkpt lat="42.09487096649642" lon="12.814419789378611"><ele>693.3333333333334</ele><time>2026-04-12T09:58:06.999Z</time></trkpt><trkpt lat="42.09492798622897" lon="12.81447316368129"><ele>693.6666666666666</ele><time>2026-04-12T09:58:07.999Z</time></trkpt><trkpt lat="42.09504386760353" lon="12.814558561946084"><ele>694.0</ele><time>2026-04-12T09:58:09.999Z</time></trkpt><trkpt lat="42.095111763594176" lon="12.81459862443012"><ele>694.3333333333333</ele><time>2026-04-12T09:58:10.999Z</time></trkpt><trkpt lat="42.09518193638246" lon="12.814642340399503"><ele>694.6666666666666</ele><time>2026-04-12T09:58:11.999Z</time></trkpt><trkpt lat="42.095259994286394" lon="12.814685801215882"><ele>695.0</ele><time>2026-04-12T09:58:12.999Z</time></trkpt><trkpt lat="42.095334014582896" lon="12.814727163917675"><ele>695.0</ele><time>2026-04-12T09:58:13.999Z</time></trkpt><trkpt lat="42.09541163719987" lon="12.814769601124668"><ele>695.0</ele><time>2026-04-12T09:58:14.999Z</time></trkpt><trkpt lat="42.09548782421046" lon="12.814814457282854"><ele>695.0</ele><time>2026-04-12T09:58:15.999Z</time></trkpt><trkpt lat="42.095556370480274" lon="12.814858257026401"><ele>695.0</ele><time>2026-04-12T09:58:16.999Z</time></trkpt><trkpt lat="42.09562934373453" lon="12.814899124247306"><ele>695.0</ele><time>2026-04-12T09:58:17.999Z</time></trkpt><trkpt lat="42.09569759525363" lon="12.814946724756249"><ele>695.0</ele><time>2026-04-12T09:58:18.999Z</time></trkpt><trkpt lat="42.095777207199276" lon="12.815004243851515"><ele>695.8571428571429</ele><time>2026-04-12T09:58:19.999Z</time></trkpt><trkpt lat="42.09585111883084" lon="12.815057297285211"><ele>696.7142857142858</ele><time>2026-04-12T09:58:20.999Z</time></trkpt><trkpt lat="42.095919810188576" lon="12.815100005599296"><ele>697.5714285714287</ele><time>2026-04-12T09:58:22Z</time></trkpt><trkpt lat="42.09598776119992" lon="12.815136302415764"><ele>698.4285714285714</ele><time>2026-04-12T09:58:23Z</time></trkpt><trkpt lat="42.09604967213348" lon="12.815173044914857"><ele>699.2857142857142</ele><time>2026-04-12T09:58:24Z</time></trkpt><trkpt lat="42.09611006524325" lon="12.815213181353212"><ele>700.1428571428572</ele><time>2026-04-12T09:58:25Z</time></trkpt><trkpt lat="42.09618218763794" lon="12.815260824204751"><ele>701.0</ele><time>2026-04-12T09:58:26Z</time></trkpt><trkpt lat="42.09624910529975" lon="12.81531305810461"><ele>701.0</ele><time>2026-04-12T09:58:27Z</time></trkpt><trkpt lat="42.09630933914088" lon="12.815374475411842"><ele>701.0</ele><time>2026-04-12T09:58:28Z</time></trkpt><trkpt lat="42.096367322073455" lon="12.81543756927476"><ele>701.0</ele><time>2026-04-12T09:58:29Z</time></trkpt><trkpt lat="42.09641916778086" lon="12.81550144951433"><ele>701.0</ele><time>2026-04-12T09:58:30Z</time></trkpt><trkpt lat="42.096471156907846" lon="12.81557553704847"><ele>701.0</ele><time>2026-04-12T09:58:31Z</time></trkpt><trkpt lat="42.09652005207718" lon="12.815660714483878"><ele>701.0</ele><time>2026-04-12T09:58:32Z</time></trkpt><trkpt lat="42.09656553176033" lon="12.81574918129398"><ele>703.3333333333333</ele><time>2026-04-12T09:58:33Z</time></trkpt><trkpt lat="42.096599027316266" lon="12.815822498124298"><ele>705.6666666666666</ele><time>2026-04-12T09:58:34Z</time></trkpt><trkpt lat="42.09664493877041" lon="12.815907241915037"><ele>708.0</ele><time>2026-04-12T09:58:35Z</time></trkpt><trkpt lat="42.09668994820912" lon="12.815993773901736"><ele>710.3333333333334</ele><time>2026-04-12T09:58:36Z</time></trkpt><trkpt lat="42.09673616923472" lon="12.816090969144364"><ele>712.6666666666667</ele><time>2026-04-12T09:58:37Z</time></trkpt><trkpt lat="42.09678539558475" lon="12.816198088815815"><ele>715.0</ele><time>2026-04-12T09:58:38Z</time></trkpt><trkpt lat="42.09683328256854" lon="12.816297870479636"><ele>715.0</ele><time>2026-04-12T09:58:39Z</time></trkpt><trkpt lat="42.09688572047985" lon="12.816399605433078"><ele>715.0</ele><time>2026-04-12T09:58:40Z</time></trkpt><trkpt lat="42.09693309987964" lon="12.816502370657782"><ele>715.0</ele><time>2026-04-12T09:58:41Z</time></trkpt><trkpt lat="42.0969813524367" lon="12.816609039512702"><ele>715.0</ele><time>2026-04-12T09:58:42Z</time></trkpt><trkpt lat="42.09703183618412" lon="12.816714401534439"><ele>715.0</ele><time>2026-04-12T09:58:43Z</time></trkpt><trkpt lat="42.097081336401395" lon="12.816815085743801"><ele>714.5</ele><time>2026-04-12T09:58:44Z</time></trkpt><trkpt lat="42.09712945462822" lon="12.816918582343199"><ele>714.0</ele><time>2026-04-12T09:58:45Z</time></trkpt><trkpt lat="42.09717982322585" lon="12.817024882460784"><ele>713.5</ele><time>2026-04-12T09:58:46Z</time></trkpt><trkpt lat="42.0972266353536" lon="12.817126794382864"><ele>713.0</ele><time>2026-04-12T09:58:47Z</time></trkpt><trkpt lat="42.097269699172664" lon="12.817222874562171"><ele>712.5</ele><time>2026-04-12T09:58:48Z</time></trkpt><trkpt lat="42.097306357556164" lon="12.817315404885049"><ele>712.0</ele><time>2026-04-12T09:58:49Z</time></trkpt><trkpt lat="42.09733196973835" lon="12.81740277367943"><ele>711.9999999999999</ele><time>2026-04-12T09:58:50Z</time></trkpt><trkpt lat="42.097344101634434" lon="12.81749484749686"><ele>712.0</ele><time>2026-04-12T09:58:51Z</time></trkpt><trkpt lat="42.09734855418338" lon="12.817594079270133"><ele>712.0</ele><time>2026-04-12T09:58:52Z</time></trkpt><trkpt lat="42.09735129070562" lon="12.817696588322745"><ele>712.0</ele><time>2026-04-12T09:58:53Z</time></trkpt><trkpt lat="42.097342090345116" lon="12.81780019644896"><ele>712.0</ele><time>2026-04-12T09:58:54Z</time></trkpt><trkpt lat="42.09732612290158" lon="12.817896070095545"><ele>711.9999999999999</ele><time>2026-04-12T09:58:55Z</time></trkpt><trkpt lat="42.09730255558739" lon="12.817975610001676"><ele>712.0</ele><time>2026-04-12T09:58:56Z</time></trkpt><trkpt lat="42.09727515682416" lon="12.818068435690574"><ele>714.8333333333334</ele><time>2026-04-12T09:58:57Z</time></trkpt><trkpt lat="42.097236371249366" lon="12.818159174060852"><ele>717.6666666666667</ele><time>2026-04-12T09:58:58Z</time></trkpt><trkpt lat="42.09718492476089" lon="12.81824293584058"><ele>720.5</ele><time>2026-04-12T09:58:59Z</time></trkpt><trkpt lat="42.09712976376115" lon="12.818320033181234"><ele>723.3333333333334</ele><time>2026-04-12T09:59:00Z</time></trkpt><trkpt lat="42.09707557456221" lon="12.818410926888667"><ele>726.1666666666666</ele><time>2026-04-12T09:59:01Z</time></trkpt><trkpt lat="42.09702451538295" lon="12.818499377861928"><ele>729.0</ele><time>2026-04-12T09:59:02Z</time></trkpt><trkpt lat="42.09697169815526" lon="12.8185799305855"><ele>732.5</ele><time>2026-04-12T09:59:03Z</time></trkpt><trkpt lat="42.096915562931095" lon="12.818653888843352"><ele>736.0</ele><time>2026-04-12T09:59:04Z</time></trkpt><trkpt lat="42.09685808745598" lon="12.818726198551216"><ele>739.5</ele><time>2026-04-12T09:59:05Z</time></trkpt><trkpt lat="42.09680063027176" lon="12.818803614588704"><ele>743.0</ele><time>2026-04-12T09:59:06Z</time></trkpt><trkpt lat="42.09674788446241" lon="12.81887756286841"><ele>746.5</ele><time>2026-04-12T09:59:07Z</time></trkpt><trkpt lat="42.09669598808765" lon="12.81894430828434"><ele>750.0</ele><time>2026-04-12T09:59:08Z</time></trkpt><trkpt lat="42.09663761111433" lon="12.81901445039984"><ele>748.0</ele><time>2026-04-12T09:59:09Z</time></trkpt><trkpt lat="42.096579687011705" lon="12.819090162896465"><ele>746.0</ele><time>2026-04-12T09:59:10Z</time></trkpt><trkpt lat="42.096528742938865" lon="12.819152905423666"><ele>744.0</ele><time>2026-04-12T09:59:11Z</time></trkpt><trkpt lat="42.09648640885665" lon="12.819231158360667"><ele>742.0</ele><time>2026-04-12T09:59:12Z</time></trkpt><trkpt lat="42.0964388944878" lon="12.819302256308477"><ele>740.0</ele><time>2026-04-12T09:59:13Z</time></trkpt><trkpt lat="42.09638796333644" lon="12.81936551393008"><ele>738.0</ele><time>2026-04-12T09:59:14Z</time></trkpt><trkpt lat="42.09632940814929" lon="12.81945088379245"><ele>736.0</ele><time>2026-04-12T09:59:16Z</time></trkpt><trkpt lat="42.096313479600504" lon="12.81960548938073"><ele>735.0</ele><time>2026-04-12T09:59:18Z</time></trkpt><trkpt lat="42.09637042000308" lon="12.81975661225829"><ele>734.0</ele><time>2026-04-12T09:59:20Z</time></trkpt><trkpt lat="42.09641225444749" lon="12.819825714741642"><ele>733.0</ele><time>2026-04-12T09:59:21Z</time></trkpt><trkpt lat="42.09645888062206" lon="12.819895141063153"><ele>732.0</ele><time>2026-04-12T09:59:22Z</time></trkpt><trkpt lat="42.09650818873727" lon="12.819964086817123"><ele>731.0</ele><time>2026-04-12T09:59:23Z</time></trkpt><trkpt lat="42.09656743463637" lon="12.820033974366329"><ele>730.0</ele><time>2026-04-12T09:59:24Z</time></trkpt><trkpt lat="42.09662876751862" lon="12.820105701714805"><ele>731.5</ele><time>2026-04-12T09:59:25Z</time></trkpt><trkpt lat="42.09668937861876" lon="12.820189494334825"><ele>733.0</ele><time>2026-04-12T09:59:26Z</time></trkpt><trkpt lat="42.096746795390885" lon="12.820278640201813"><ele>734.5</ele><time>2026-04-12T09:59:27Z</time></trkpt><trkpt lat="42.09679288928433" lon="12.820356037752825"><ele>736.0</ele><time>2026-04-12T09:59:28Z</time></trkpt><trkpt lat="42.096844267491136" lon="12.82043857462091"><ele>737.5</ele><time>2026-04-12T09:59:29Z</time></trkpt><trkpt lat="42.09691282030454" lon="12.820519874189838"><ele>739.0</ele><time>2026-04-12T09:59:30Z</time></trkpt><trkpt lat="42.096984041864275" lon="12.820592247596641"><ele>739.0</ele><time>2026-04-12T09:59:31Z</time></trkpt><trkpt lat="42.097061411976654" lon="12.820656924481943"><ele>739.0</ele><time>2026-04-12T09:59:32Z</time></trkpt><trkpt lat="42.09714502075994" lon="12.820714285518662"><ele>739.0</ele><time>2026-04-12T09:59:33Z</time></trkpt><trkpt lat="42.09722943120266" lon="12.82076451490288"><ele>739.0</ele><time>2026-04-12T09:59:34Z</time></trkpt><trkpt lat="42.097306201455226" lon="12.820822373319148"><ele>739.0</ele><time>2026-04-12T09:59:35Z</time></trkpt><trkpt lat="42.09737679615685" lon="12.820884596269085"><ele>739.0</ele><time>2026-04-12T09:59:36Z</time></trkpt><trkpt lat="42.097446015643186" lon="12.820942940200196"><ele>740.5</ele><time>2026-04-12T09:59:37Z</time></trkpt><trkpt lat="42.097511032631814" lon="12.821015322590457"><ele>742.0</ele><time>2026-04-12T09:59:38Z</time></trkpt><trkpt lat="42.09756857202798" lon="12.821094386026942"><ele>743.5</ele><time>2026-04-12T09:59:39Z</time></trkpt><trkpt lat="42.09762295511018" lon="12.821170666976554"><ele>745.0</ele><time>2026-04-12T09:59:39.999Z</time></trkpt><trkpt lat="42.09767880041739" lon="12.821251499077913"><ele>746.5</ele><time>2026-04-12T09:59:40.999Z</time></trkpt><trkpt lat="42.09773931609435" lon="12.821326429676281"><ele>748.0</ele><time>2026-04-12T09:59:41.999Z</time></trkpt><trkpt lat="42.09780382935732" lon="12.821402573230648"><ele>748.0</ele><time>2026-04-12T09:59:42.999Z</time></trkpt><trkpt lat="42.09786709978121" lon="12.821478126777704"><ele>748.0</ele><time>2026-04-12T09:59:43.999Z</time></trkpt><trkpt lat="42.097936798246614" lon="12.821556056643217"><ele>748.0</ele><time>2026-04-12T09:59:44.999Z</time></trkpt><trkpt lat="42.097997723914155" lon="12.821636035645948"><ele>748.0</ele><time>2026-04-12T09:59:45.999Z</time></trkpt><trkpt lat="42.09805443929216" lon="12.821719510452533"><ele>748.0</ele><time>2026-04-12T09:59:46.999Z</time></trkpt><trkpt lat="42.09810557312522" lon="12.821803486137767"><ele>748.0</ele><time>2026-04-12T09:59:47.999Z</time></trkpt><trkpt lat="42.09815603667505" lon="12.821891214103225"><ele>748.5</ele><time>2026-04-12T09:59:48.999Z</time></trkpt><trkpt lat="42.098203920825604" lon="12.821985769247052"><ele>749.0</ele><time>2026-04-12T09:59:49.999Z</time></trkpt><trkpt lat="42.098247330885485" lon="12.822081588850457"><ele>749.5</ele><time>2026-04-12T09:59:50.999Z</time></trkpt><trkpt lat="42.098284939442436" lon="12.822185273278134"><ele>750.0</ele><time>2026-04-12T09:59:51.999Z</time></trkpt><trkpt lat="42.09831349255624" lon="12.822288592705728"><ele>750.5</ele><time>2026-04-12T09:59:52.999Z</time></trkpt><trkpt lat="42.09833442842346" lon="12.822393302183857"><ele>751.0</ele><time>2026-04-12T09:59:53.999Z</time></trkpt><trkpt lat="42.09835515325314" lon="12.822503522209239"><ele>754.5</ele><time>2026-04-12T09:59:54.999Z</time></trkpt><trkpt lat="42.09836215981263" lon="12.822603916336611"><ele>758.0</ele><time>2026-04-12T09:59:55.999Z</time></trkpt><trkpt lat="42.098367101906234" lon="12.822704978417676"><ele>761.5</ele><time>2026-04-12T09:59:56.999Z</time></trkpt><trkpt lat="42.098364555292584" lon="12.822804131893827"><ele>765.0</ele><time>2026-04-12T09:59:57.999Z</time></trkpt><trkpt lat="42.098356767856906" lon="12.82289699593689"><ele>768.4999999999999</ele><time>2026-04-12T09:59:58.999Z</time></trkpt><trkpt lat="42.09829920741971" lon="12.823042470185184"><ele>772.0</ele><time>2026-04-12T10:00:00.999Z</time></trkpt><trkpt lat="42.09825134160975" lon="12.823103888910895"><ele>772.0</ele><time>2026-04-12T10:00:01.999Z</time></trkpt><trkpt lat="42.098184128385775" lon="12.823158392720146"><ele>772.0</ele><time>2026-04-12T10:00:02.999Z</time></trkpt><trkpt lat="42.098111380967" lon="12.823202298896947"><ele>772.0</ele><time>2026-04-12T10:00:03.999Z</time></trkpt><trkpt lat="42.098055076189894" lon="12.823240944513755"><ele>772.0</ele><time>2026-04-12T10:00:04.999Z</time></trkpt><trkpt lat="42.09798463788205" lon="12.82337000692633"><ele>772.0</ele><time>2026-04-12T10:00:06.999Z</time></trkpt><trkpt lat="42.09794108930379" lon="12.823520655963666"><ele>773.9999999999999</ele><time>2026-04-12T10:00:08.999Z</time></trkpt><trkpt lat="42.09793077461951" lon="12.823672302398629"><ele>776.0</ele><time>2026-04-12T10:00:10.999Z</time></trkpt><trkpt lat="42.097931447551375" lon="12.823768804077698"><ele>778.0</ele><time>2026-04-12T10:00:11.999Z</time></trkpt><trkpt lat="42.097929293259305" lon="12.823882727709618"><ele>780.0</ele><time>2026-04-12T10:00:12.999Z</time></trkpt><trkpt lat="42.097927403859686" lon="12.823972799678906"><ele>781.9999999999999</ele><time>2026-04-12T10:00:13.999Z</time></trkpt><trkpt lat="42.09792780714133" lon="12.824076741990927"><ele>784.0</ele><time>2026-04-12T10:00:14.999Z</time></trkpt><trkpt lat="42.09792405162657" lon="12.824170484125903"><ele>783.9999999999999</ele><time>2026-04-12T10:00:15.999Z</time></trkpt><trkpt lat="42.09791850682327" lon="12.824259682181852"><ele>784.0</ele><time>2026-04-12T10:00:16.999Z</time></trkpt><trkpt lat="42.097902714818055" lon="12.824410617673855"><ele>784.0</ele><time>2026-04-12T10:00:18.999Z</time></trkpt><trkpt lat="42.0979201545998" lon="12.824563442129365"><ele>784.0</ele><time>2026-04-12T10:00:20.999Z</time></trkpt><trkpt lat="42.097951383167526" lon="12.824642383350453"><ele>783.9999999999999</ele><time>2026-04-12T10:00:21.999Z</time></trkpt><trkpt lat="42.097996325103814" lon="12.824717546896863"><ele>784.0</ele><time>2026-04-12T10:00:22.999Z</time></trkpt><trkpt lat="42.09805348044558" lon="12.824787493855112"><ele>783.4999999999999</ele><time>2026-04-12T10:00:23.999Z</time></trkpt><trkpt lat="42.098112410563836" lon="12.824852110782912"><ele>783.0</ele><time>2026-04-12T10:00:24.999Z</time></trkpt><trkpt lat="42.09817289547398" lon="12.824918615252916"><ele>782.5</ele><time>2026-04-12T10:00:25.999Z</time></trkpt><trkpt lat="42.09823639601363" lon="12.824990780947486"><ele>782.0</ele><time>2026-04-12T10:00:26.999Z</time></trkpt><trkpt lat="42.098297603333215" lon="12.825063085952934"><ele>781.4999999999999</ele><time>2026-04-12T10:00:28.001Z</time></trkpt><trkpt lat="42.098354920776416" lon="12.825137854660655"><ele>781.0</ele><time>2026-04-12T10:00:29.001Z</time></trkpt><trkpt lat="42.09840534287753" lon="12.825208531332844"><ele>781.0</ele><time>2026-04-12T10:00:30.001Z</time></trkpt><trkpt lat="42.098451327157655" lon="12.825277300002014"><ele>781.0</ele><time>2026-04-12T10:00:31.001Z</time></trkpt><trkpt lat="42.09850282859122" lon="12.825337406979184"><ele>781.0</ele><time>2026-04-12T10:00:32.001Z</time></trkpt><trkpt lat="42.09855566335147" lon="12.825397731668161"><ele>781.0</ele><time>2026-04-12T10:00:33.001Z</time></trkpt><trkpt lat="42.09860857374302" lon="12.825471849502032"><ele>781.0</ele><time>2026-04-12T10:00:34.001Z</time></trkpt><trkpt lat="42.09867211031515" lon="12.825544403922905"><ele>781.0</ele><time>2026-04-12T10:00:35.001Z</time></trkpt><trkpt lat="42.09873342059326" lon="12.825611905146406"><ele>781.0</ele><time>2026-04-12T10:00:36.001Z</time></trkpt><trkpt lat="42.09879096595822" lon="12.825676261372967"><ele>781.0</ele><time>2026-04-12T10:00:37.001Z</time></trkpt><trkpt lat="42.098845023496935" lon="12.825733651763308"><ele>781.0</ele><time>2026-04-12T10:00:38.001Z</time></trkpt><trkpt lat="42.098892236710334" lon="12.825797158166056"><ele>781.0</ele><time>2026-04-12T10:00:39.001Z</time></trkpt><trkpt lat="42.098954525767994" lon="12.825856323443924"><ele>781.0</ele><time>2026-04-12T10:00:40.001Z</time></trkpt><trkpt lat="42.09901564745517" lon="12.825902446880358"><ele>781.0</ele><time>2026-04-12T10:00:41.001Z</time></trkpt><trkpt lat="42.09907408837862" lon="12.825952435220849"><ele>781.0</ele><time>2026-04-12T10:00:42.001Z</time></trkpt><trkpt lat="42.099138922776504" lon="12.826003834047146"><ele>781.0</ele><time>2026-04-12T10:00:43.001Z</time></trkpt><trkpt lat="42.09921241500826" lon="12.826058887888085"><ele>779.9999999999999</ele><time>2026-04-12T10:00:44.001Z</time></trkpt><trkpt lat="42.09928580727984" lon="12.82611728231062"><ele>779.0</ele><time>2026-04-12T10:00:45.001Z</time></trkpt><trkpt lat="42.09934678012809" lon="12.826182564333436"><ele>778.0</ele><time>2026-04-12T10:00:46Z</time></trkpt><trkpt lat="42.09941323524559" lon="12.826254736969313"><ele>777.0</ele><time>2026-04-12T10:00:47Z</time></trkpt><trkpt lat="42.09948153162162" lon="12.8263307650943"><ele>775.9999999999999</ele><time>2026-04-12T10:00:48Z</time></trkpt><trkpt lat="42.09955503868081" lon="12.82640582134701"><ele>775.0</ele><time>2026-04-12T10:00:49Z</time></trkpt><trkpt lat="42.0996212161373" lon="12.826466809428448"><ele>774.9999999999999</ele><time>2026-04-12T10:00:50Z</time></trkpt><trkpt lat="42.09967201928689" lon="12.826520466571237"><ele>775.0</ele><time>2026-04-12T10:00:51Z</time></trkpt><trkpt lat="42.09972953195035" lon="12.82658026425121"><ele>775.0</ele><time>2026-04-12T10:00:52Z</time></trkpt><trkpt lat="42.09978934807363" lon="12.826660554967734"><ele>775.0</ele><time>2026-04-12T10:00:53Z</time></trkpt><trkpt lat="42.099836716345884" lon="12.826723005110436"><ele>774.9999999999999</ele><time>2026-04-12T10:00:54Z</time></trkpt><trkpt lat="42.099886097316706" lon="12.82677675722471"><ele>775.0</ele><time>2026-04-12T10:00:55Z</time></trkpt><trkpt lat="42.09998195740514" lon="12.826891072120969"><ele>774.8571428571428</ele><time>2026-04-12T10:00:57Z</time></trkpt><trkpt lat="42.10003477982452" lon="12.826941818348443"><ele>774.7142857142857</ele><time>2026-04-12T10:00:58Z</time></trkpt><trkpt lat="42.1000983025464" lon="12.826968205351466"><ele>774.5714285714286</ele><time>2026-04-12T10:00:59Z</time></trkpt><trkpt lat="42.100167164116506" lon="12.826980397476"><ele>774.4285714285713</ele><time>2026-04-12T10:01:00Z</time></trkpt><trkpt lat="42.100241155884426" lon="12.826985149258492"><ele>774.2857142857143</ele><time>2026-04-12T10:01:01Z</time></trkpt><trkpt lat="42.100317121668255" lon="12.826984868065502"><ele>774.1428571428571</ele><time>2026-04-12T10:01:02Z</time></trkpt><trkpt lat="42.100387591933405" lon="12.826973546117147"><ele>774.0</ele><time>2026-04-12T10:01:03Z</time></trkpt><trkpt lat="42.10045187543265" lon="12.826962131210603"><ele>774.0</ele><time>2026-04-12T10:01:04Z</time></trkpt><trkpt lat="42.10051340307592" lon="12.826942173809593"><ele>774.0</ele><time>2026-04-12T10:01:05Z</time></trkpt><trkpt lat="42.10062900406096" lon="12.826906571893945"><ele>774.0</ele><time>2026-04-12T10:01:07Z</time></trkpt><trkpt lat="42.10073634643494" lon="12.826864006745156"><ele>774.0</ele><time>2026-04-12T10:01:09Z</time></trkpt><trkpt lat="42.10085563326941" lon="12.826813305324805"><ele>774.0</ele><time>2026-04-12T10:01:11Z</time></trkpt><trkpt lat="42.10092686425781" lon="12.826793934063128"><ele>775.1666666666666</ele><time>2026-04-12T10:01:12Z</time></trkpt><trkpt lat="42.10099160160237" lon="12.826774392063545"><ele>776.3333333333333</ele><time>2026-04-12T10:01:13Z</time></trkpt><trkpt lat="42.101063614707066" lon="12.826746794858495"><ele>777.5</ele><time>2026-04-12T10:01:14Z</time></trkpt><trkpt lat="42.10114666740405" lon="12.826711373740688"><ele>778.6666666666666</ele><time>2026-04-12T10:01:15Z</time></trkpt><trkpt lat="42.10123410144754" lon="12.826674107872089"><ele>779.8333333333333</ele><time>2026-04-12T10:01:16Z</time></trkpt><trkpt lat="42.10131609948526" lon="12.826647420961878"><ele>781.0</ele><time>2026-04-12T10:01:17Z</time></trkpt><trkpt lat="42.101393709376325" lon="12.826630809667561"><ele>781.0</ele><time>2026-04-12T10:01:18Z</time></trkpt><trkpt lat="42.101471295725425" lon="12.826616445343413"><ele>781.0</ele><time>2026-04-12T10:01:19Z</time></trkpt><trkpt lat="42.10154466300151" lon="12.826594896664464"><ele>781.0</ele><time>2026-04-12T10:01:20Z</time></trkpt><trkpt lat="42.10161531799873" lon="12.82656325390076"><ele>781.0</ele><time>2026-04-12T10:01:21Z</time></trkpt><trkpt lat="42.101686815955375" lon="12.82652851889527"><ele>781.0</ele><time>2026-04-12T10:01:22Z</time></trkpt><trkpt lat="42.10175242141206" lon="12.826499799124424"><ele>781.0</ele><time>2026-04-12T10:01:23Z</time></trkpt><trkpt lat="42.10181837725467" lon="12.826477086000876"><ele>781.0</ele><time>2026-04-12T10:01:24Z</time></trkpt><trkpt lat="42.10188507810393" lon="12.826465493379908"><ele>778.8333333333333</ele><time>2026-04-12T10:01:25Z</time></trkpt><trkpt lat="42.10194824930369" lon="12.826468963245508"><ele>776.6666666666666</ele><time>2026-04-12T10:01:26Z</time></trkpt><trkpt lat="42.10201776243993" lon="12.826476669443284"><ele>774.5</ele><time>2026-04-12T10:01:27Z</time></trkpt><trkpt lat="42.10208036714887" lon="12.826487630399546"><ele>772.3333333333333</ele><time>2026-04-12T10:01:28Z</time></trkpt><trkpt lat="42.102195448501" lon="12.826509418204694"><ele>770.1666666666666</ele><time>2026-04-12T10:01:30Z</time></trkpt><trkpt lat="42.10229710103006" lon="12.826508352254784"><ele>768.0</ele><time>2026-04-12T10:01:32Z</time></trkpt><trkpt lat="42.102404095602125" lon="12.826486480064672"><ele>767.6666666666666</ele><time>2026-04-12T10:01:34Z</time></trkpt><trkpt lat="42.102474095230164" lon="12.826476216348265"><ele>767.3333333333334</ele><time>2026-04-12T10:01:35Z</time></trkpt><trkpt lat="42.10254295595871" lon="12.826471963700055"><ele>767.0</ele><time>2026-04-12T10:01:36Z</time></trkpt><trkpt lat="42.102610881132975" lon="12.826472299470161"><ele>766.6666666666667</ele><time>2026-04-12T10:01:37Z</time></trkpt><trkpt lat="42.102678984975256" lon="12.826464326738897"><ele>766.3333333333334</ele><time>2026-04-12T10:01:38Z</time></trkpt><trkpt lat="42.10278896818888" lon="12.826460737259826"><ele>766.0</ele><time>2026-04-12T10:01:40Z</time></trkpt><trkpt lat="42.10292717548384" lon="12.826487017151477"><ele>766.0</ele><time>2026-04-12T10:01:42Z</time></trkpt><trkpt lat="42.10301811790814" lon="12.826517880621767"><ele>766.0</ele><time>2026-04-12T10:01:43Z</time></trkpt><trkpt lat="42.10310241484968" lon="12.826557112339229"><ele>766.0</ele><time>2026-04-12T10:01:44Z</time></trkpt><trkpt lat="42.10318907667361" lon="12.826593474905332"><ele>766.0</ele><time>2026-04-12T10:01:45Z</time></trkpt><trkpt lat="42.10326737991073" lon="12.82663008503407"><ele>766.0</ele><time>2026-04-12T10:01:46Z</time></trkpt><trkpt lat="42.103337067819766" lon="12.82665783114247"><ele>766.0</ele><time>2026-04-12T10:01:47Z</time></trkpt><trkpt lat="42.10340394294499" lon="12.826681450950783"><ele>766.1999999999999</ele><time>2026-04-12T10:01:48Z</time></trkpt><trkpt lat="42.10351854024246" lon="12.826700186494978"><ele>766.4</ele><time>2026-04-12T10:01:49.999Z</time></trkpt><trkpt lat="42.10362553550849" lon="12.82669724043666"><ele>766.6</ele><time>2026-04-12T10:01:51.999Z</time></trkpt><trkpt lat="42.10371301931044" lon="12.826658292126762"><ele>766.8</ele><time>2026-04-12T10:01:53.999Z</time></trkpt><trkpt lat="42.10382533538875" lon="12.826583545072948"><ele>767.0</ele><time>2026-04-12T10:01:55.999Z</time></trkpt><trkpt lat="42.103889289619225" lon="12.82653611023282"><ele>767.0</ele><time>2026-04-12T10:01:56.999Z</time></trkpt><trkpt lat="42.103959243084766" lon="12.826482709359228"><ele>767.0</ele><time>2026-04-12T10:01:57.999Z</time></trkpt><trkpt lat="42.10403122625302" lon="12.826424658778166"><ele>767.0</ele><time>2026-04-12T10:01:58.999Z</time></trkpt><trkpt lat="42.104106409870454" lon="12.826379990515646"><ele>767.0</ele><time>2026-04-12T10:01:59.999Z</time></trkpt><trkpt lat="42.104191635574566" lon="12.826355104208142"><ele>767.0</ele><time>2026-04-12T10:02:00.999Z</time></trkpt><trkpt lat="42.10428729397709" lon="12.826345618337353"><ele>767.0</ele><time>2026-04-12T10:02:01.999Z</time></trkpt><trkpt lat="42.10438159294724" lon="12.82634411646308"><ele>765.8333333333333</ele><time>2026-04-12T10:02:02.999Z</time></trkpt><trkpt lat="42.10447485891774" lon="12.826350620228165"><ele>764.6666666666666</ele><time>2026-04-12T10:02:03.999Z</time></trkpt><trkpt lat="42.104567513542364" lon="12.826358412377706"><ele>763.5</ele><time>2026-04-12T10:02:04.999Z</time></trkpt><trkpt lat="42.10465341956029" lon="12.826374076358539"><ele>762.3333333333334</ele><time>2026-04-12T10:02:05.999Z</time></trkpt><trkpt lat="42.104736108676995" lon="12.826398402560677"><ele>761.1666666666667</ele><time>2026-04-12T10:02:06.999Z</time></trkpt><trkpt lat="42.10481837935408" lon="12.826428158207822"><ele>760.0</ele><time>2026-04-12T10:02:07.999Z</time></trkpt><trkpt lat="42.10490490095223" lon="12.826454240411284"><ele>760.6</ele><time>2026-04-12T10:02:08.999Z</time></trkpt><trkpt lat="42.10499678276124" lon="12.826480889097464"><ele>761.2</ele><time>2026-04-12T10:02:09.999Z</time></trkpt><trkpt lat="42.10508784206835" lon="12.826512147947176"><ele>761.8</ele><time>2026-04-12T10:02:10.999Z</time></trkpt><trkpt lat="42.10517706260676" lon="12.826553966097299"><ele>762.4</ele><time>2026-04-12T10:02:11.999Z</time></trkpt><trkpt lat="42.10526340617874" lon="12.826606801820363"><ele>763.0</ele><time>2026-04-12T10:02:12.999Z</time></trkpt><trkpt lat="42.10534087190385" lon="12.826670752754794"><ele>763.0</ele><time>2026-04-12T10:02:13.999Z</time></trkpt><trkpt lat="42.105418751370124" lon="12.826735699764864"><ele>763.0</ele><time>2026-04-12T10:02:14.999Z</time></trkpt><trkpt lat="42.10549011932761" lon="12.826796395111657"><ele>763.0</ele><time>2026-04-12T10:02:15.999Z</time></trkpt><trkpt lat="42.105549891233494" lon="12.82684921007756"><ele>763.0</ele><time>2026-04-12T10:02:16.999Z</time></trkpt><trkpt lat="42.10560813099843" lon="12.82690244957772"><ele>763.0</ele><time>2026-04-12T10:02:17.999Z</time></trkpt><trkpt lat="42.10566612790853" lon="12.826952274835271"><ele>763.0</ele><time>2026-04-12T10:02:18.999Z</time></trkpt><trkpt lat="42.105759015144386" lon="12.82703260164468"><ele>764.0</ele><time>2026-04-12T10:02:20.999Z</time></trkpt><trkpt lat="42.10583489585644" lon="12.827098210384289"><ele>765.0</ele><time>2026-04-12T10:02:22.999Z</time></trkpt><trkpt lat="42.10590756799561" lon="12.8271679993277"><ele>766.0</ele><time>2026-04-12T10:02:24.999Z</time></trkpt><trkpt lat="42.1059797890003" lon="12.827224516849613"><ele>767.0</ele><time>2026-04-12T10:02:26.999Z</time></trkpt><trkpt lat="42.10605137407749" lon="12.827291151472794"><ele>767.9999999999999</ele><time>2026-04-12T10:02:28.999Z</time></trkpt><trkpt lat="42.106129955305896" lon="12.827360905180335"><ele>769.0</ele><time>2026-04-12T10:02:30.999Z</time></trkpt><trkpt lat="42.10621807488285" lon="12.82743261766195"><ele>769.0</ele><time>2026-04-12T10:02:32.999Z</time></trkpt><trkpt lat="42.10630875659959" lon="12.827486309621154"><ele>769.0</ele><time>2026-04-12T10:02:35.001Z</time></trkpt><trkpt lat="42.10639525778557" lon="12.827533529860322"><ele>769.0</ele><time>2026-04-12T10:02:37.001Z</time></trkpt><trkpt lat="42.10647087439494" lon="12.827587736143352"><ele>769.0</ele><time>2026-04-12T10:02:39.001Z</time></trkpt><trkpt lat="42.10656768845503" lon="12.82765227794277"><ele>769.0</ele><time>2026-04-12T10:02:41.001Z</time></trkpt><trkpt lat="42.10668239021545" lon="12.827716496964477"><ele>769.6666666666666</ele><time>2026-04-12T10:02:43.001Z</time></trkpt><trkpt lat="42.106750652039686" lon="12.827747878144795"><ele>770.3333333333333</ele><time>2026-04-12T10:02:44.001Z</time></trkpt><trkpt lat="42.106826676340674" lon="12.827760958042719"><ele>771.0</ele><time>2026-04-12T10:02:45.001Z</time></trkpt><trkpt lat="42.10690248263526" lon="12.827756828750292"><ele>771.6666666666667</ele><time>2026-04-12T10:02:46.001Z</time></trkpt><trkpt lat="42.10697713584244" lon="12.827749183870205"><ele>772.3333333333334</ele><time>2026-04-12T10:02:47.001Z</time></trkpt><trkpt lat="42.107044872342264" lon="12.827737613613136"><ele>773.0</ele><time>2026-04-12T10:02:48.001Z</time></trkpt><trkpt lat="42.10715850906864" lon="12.827717593355107"><ele>773.0</ele><time>2026-04-12T10:02:50Z</time></trkpt><trkpt lat="42.107244346844226" lon="12.827747920844478"><ele>773.0</ele><time>2026-04-12T10:02:52Z</time></trkpt><trkpt lat="42.10730374383066" lon="12.82785359727244"><ele>773.0</ele><time>2026-04-12T10:02:54Z</time></trkpt><trkpt lat="42.10734237945025" lon="12.827988781212447"><ele>773.0</ele><time>2026-04-12T10:02:56Z</time></trkpt><trkpt lat="42.1073815887955" lon="12.828112100206797"><ele>773.0</ele><time>2026-04-12T10:02:58Z</time></trkpt><trkpt lat="42.10739412804928" lon="12.828245472399797"><ele>773.0</ele><time>2026-04-12T10:03:00Z</time></trkpt><trkpt lat="42.10736029900097" lon="12.828399765552398"><ele>773.0</ele><time>2026-04-12T10:03:02Z</time></trkpt><trkpt lat="42.10732603618744" lon="12.828569810881824"><ele>773.0</ele><time>2026-04-12T10:03:04Z</time></trkpt><trkpt lat="42.10731149998023" lon="12.828666756019313"><ele>773.0</ele><time>2026-04-12T10:03:05Z</time></trkpt><trkpt lat="42.10729457036957" lon="12.828761036312613"><ele>773.0</ele><time>2026-04-12T10:03:06Z</time></trkpt><trkpt lat="42.107280105552434" lon="12.828850969412587"><ele>774.1666666666667</ele><time>2026-04-12T10:03:07Z</time></trkpt><trkpt lat="42.107269663487855" lon="12.82894542033196"><ele>775.3333333333334</ele><time>2026-04-12T10:03:08Z</time></trkpt><trkpt lat="42.1072620624936" lon="12.829040512332499"><ele>776.5</ele><time>2026-04-12T10:03:09Z</time></trkpt><trkpt lat="42.107268283056776" lon="12.829205145185012"><ele>777.6666666666667</ele><time>2026-04-12T10:03:11Z</time></trkpt><trkpt lat="42.107272378218696" lon="12.829293092009458"><ele>778.8333333333334</ele><time>2026-04-12T10:03:12Z</time></trkpt><trkpt lat="42.10727974700024" lon="12.829391713662845"><ele>780.0</ele><time>2026-04-12T10:03:13Z</time></trkpt><trkpt lat="42.10728297746652" lon="12.829501136560525"><ele>781.3333333333334</ele><time>2026-04-12T10:03:14Z</time></trkpt><trkpt lat="42.1072881767903" lon="12.829610029963083"><ele>782.6666666666667</ele><time>2026-04-12T10:03:15Z</time></trkpt><trkpt lat="42.10729785361731" lon="12.829723980936418"><ele>784.0</ele><time>2026-04-12T10:03:16Z</time></trkpt><trkpt lat="42.10731517514717" lon="12.829838402136957"><ele>785.3333333333334</ele><time>2026-04-12T10:03:17Z</time></trkpt><trkpt lat="42.107342804915476" lon="12.829962755725843"><ele>786.6666666666667</ele><time>2026-04-12T10:03:18Z</time></trkpt><trkpt lat="42.10737955837399" lon="12.830081970216597"><ele>788.0</ele><time>2026-04-12T10:03:19Z</time></trkpt><trkpt lat="42.10742927778644" lon="12.83020299432964"><ele>788.8</ele><time>2026-04-12T10:03:20Z</time></trkpt><trkpt lat="42.10748057591162" lon="12.830329590583517"><ele>789.5999999999999</ele><time>2026-04-12T10:03:21Z</time></trkpt><trkpt lat="42.107532354625356" lon="12.830457069354887"><ele>790.4000000000001</ele><time>2026-04-12T10:03:22Z</time></trkpt><trkpt lat="42.107585843329815" lon="12.830583172090506"><ele>791.2</ele><time>2026-04-12T10:03:23Z</time></trkpt><trkpt lat="42.10763739323117" lon="12.830712159007255"><ele>792.0</ele><time>2026-04-12T10:03:24Z</time></trkpt><trkpt lat="42.107689929404316" lon="12.83084238466217"><ele>792.0</ele><time>2026-04-12T10:03:25Z</time></trkpt><trkpt lat="42.1077451716298" lon="12.830972567278291"><ele>792.0</ele><time>2026-04-12T10:03:26Z</time></trkpt><trkpt lat="42.10780332874799" lon="12.831100833910558"><ele>792.0</ele><time>2026-04-12T10:03:27Z</time></trkpt><trkpt lat="42.107859166899686" lon="12.8312252021332"><ele>792.0</ele><time>2026-04-12T10:03:28Z</time></trkpt><trkpt lat="42.10790753392882" lon="12.831352331606384"><ele>792.0</ele><time>2026-04-12T10:03:29Z</time></trkpt><trkpt lat="42.10795945475668" lon="12.831468018280919"><ele>792.0</ele><time>2026-04-12T10:03:30Z</time></trkpt><trkpt lat="42.10800635435605" lon="12.831574281487068"><ele>792.0</ele><time>2026-04-12T10:03:31Z</time></trkpt><trkpt lat="42.1080591675424" lon="12.831677446000056"><ele>792.0</ele><time>2026-04-12T10:03:32Z</time></trkpt><trkpt lat="42.1081231038482" lon="12.83176557205364"><ele>792.0</ele><time>2026-04-12T10:03:33Z</time></trkpt><trkpt lat="42.10819369702221" lon="12.831845316625245"><ele>792.0</ele><time>2026-04-12T10:03:34Z</time></trkpt><trkpt lat="42.108269918226526" lon="12.831915723821174"><ele>792.8333333333334</ele><time>2026-04-12T10:03:35Z</time></trkpt><trkpt lat="42.108349637525315" lon="12.831960612540737"><ele>793.6666666666667</ele><time>2026-04-12T10:03:36Z</time></trkpt><trkpt lat="42.108426189239644" lon="12.831996735637079"><ele>794.5</ele><time>2026-04-12T10:03:37Z</time></trkpt><trkpt lat="42.10850138048243" lon="12.832022765979895"><ele>795.3333333333334</ele><time>2026-04-12T10:03:38Z</time></trkpt><trkpt lat="42.10858295713738" lon="12.832028718310005"><ele>796.1666666666667</ele><time>2026-04-12T10:03:39Z</time></trkpt><trkpt lat="42.108660746827496" lon="12.832025508233205"><ele>797.0</ele><time>2026-04-12T10:03:40Z</time></trkpt><trkpt lat="42.1087365500238" lon="12.832014864278278"><ele>797.0</ele><time>2026-04-12T10:03:41Z</time></trkpt><trkpt lat="42.10881159171584" lon="12.831996373152839"><ele>797.0</ele><time>2026-04-12T10:03:42Z</time></trkpt><trkpt lat="42.10888066002645" lon="12.831973595189364"><ele>797.0</ele><time>2026-04-12T10:03:43Z</time></trkpt><trkpt lat="42.10894617471901" lon="12.831937840075586"><ele>797.0</ele><time>2026-04-12T10:03:44Z</time></trkpt><trkpt lat="42.10900352334463" lon="12.831889508228775"><ele>797.0</ele><time>2026-04-12T10:03:45Z</time></trkpt><trkpt lat="42.109057125344535" lon="12.831831974632168"><ele>797.0</ele><time>2026-04-12T10:03:46Z</time></trkpt><trkpt lat="42.109110466591574" lon="12.831773261213549"><ele>797.0</ele><time>2026-04-12T10:03:47Z</time></trkpt><trkpt lat="42.10919505087558" lon="12.83170421528647"><ele>798.1666666666667</ele><time>2026-04-12T10:03:49Z</time></trkpt><trkpt lat="42.10925696710348" lon="12.831724318240445"><ele>799.3333333333334</ele><time>2026-04-12T10:03:51.999Z</time></trkpt><trkpt lat="42.10930486767276" lon="12.831849112128026"><ele>800.5</ele><time>2026-04-12T10:06:02.999Z</time></trkpt><trkpt lat="42.10934491818975" lon="12.831989763996317"><ele>801.6666666666667</ele><time>2026-04-12T10:06:04.999Z</time></trkpt><trkpt lat="42.109387557034985" lon="12.83205603658416"><ele>802.8333333333334</ele><time>2026-04-12T10:06:05.999Z</time></trkpt><trkpt lat="42.10943719187476" lon="12.832127076742063"><ele>804.0</ele><time>2026-04-12T10:06:06.999Z</time></trkpt><trkpt lat="42.10948992321379" lon="12.832199629879616"><ele>804.0</ele><time>2026-04-12T10:06:07.999Z</time></trkpt><trkpt lat="42.10954208654836" lon="12.832272193812372"><ele>804.0</ele><time>2026-04-12T10:06:08.999Z</time></trkpt><trkpt lat="42.109597016288625" lon="12.832338745554447"><ele>804.0</ele><time>2026-04-12T10:06:09.999Z</time></trkpt><trkpt lat="42.10964748954393" lon="12.832414110896009"><ele>804.0</ele><time>2026-04-12T10:06:10.999Z</time></trkpt><trkpt lat="42.1096922098117" lon="12.832493973897822"><ele>804.0</ele><time>2026-04-12T10:06:11.999Z</time></trkpt><trkpt lat="42.10973677977597" lon="12.83257055759055"><ele>804.0</ele><time>2026-04-12T10:06:12.999Z</time></trkpt><trkpt lat="42.109779245565306" lon="12.832644995576526"><ele>804.0</ele><time>2026-04-12T10:06:13.999Z</time></trkpt><trkpt lat="42.10981715128617" lon="12.832719457729855"><ele>804.5714285714286</ele><time>2026-04-12T10:06:14.999Z</time></trkpt><trkpt lat="42.109854362622144" lon="12.832792301423773"><ele>805.1428571428572</ele><time>2026-04-12T10:06:15.999Z</time></trkpt><trkpt lat="42.109902742132135" lon="12.83285926593613"><ele>805.7142857142858</ele><time>2026-04-12T10:06:16.999Z</time></trkpt><trkpt lat="42.109947785535695" lon="12.832926138687029"><ele>806.2857142857142</ele><time>2026-04-12T10:06:17.999Z</time></trkpt><trkpt lat="42.10999825324023" lon="12.832989882384114"><ele>806.8571428571429</ele><time>2026-04-12T10:06:18.999Z</time></trkpt><trkpt lat="42.11006333287825" lon="12.833045768077756"><ele>807.4285714285714</ele><time>2026-04-12T10:06:19.999Z</time></trkpt><trkpt lat="42.11012966868945" lon="12.833098893816224"><ele>808.0</ele><time>2026-04-12T10:06:20.999Z</time></trkpt><trkpt lat="42.11019650354992" lon="12.83315700699083"><ele>809.6666666666666</ele><time>2026-04-12T10:06:21.999Z</time></trkpt><trkpt lat="42.11025639487174" lon="12.83322100221692"><ele>811.3333333333333</ele><time>2026-04-12T10:06:22.999Z</time></trkpt><trkpt lat="42.11031946324771" lon="12.833285592607988"><ele>813.0</ele><time>2026-04-12T10:06:23.999Z</time></trkpt><trkpt lat="42.11037736428547" lon="12.833360373911823"><ele>814.6666666666667</ele><time>2026-04-12T10:06:24.999Z</time></trkpt><trkpt lat="42.11043278338451" lon="12.833441883275473"><ele>816.3333333333334</ele><time>2026-04-12T10:06:25.999Z</time></trkpt><trkpt lat="42.11048142546325" lon="12.833522757128389"><ele>818.0</ele><time>2026-04-12T10:06:26.999Z</time></trkpt><trkpt lat="42.11053418578641" lon="12.83361099036869"><ele>818.8</ele><time>2026-04-12T10:06:27.999Z</time></trkpt><trkpt lat="42.11059344278593" lon="12.833703955119953"><ele>819.5999999999999</ele><time>2026-04-12T10:06:28.999Z</time></trkpt><trkpt lat="42.11065705655014" lon="12.833804988687858"><ele>820.4000000000001</ele><time>2026-04-12T10:06:29.999Z</time></trkpt><trkpt lat="42.11072658844689" lon="12.833908962046795"><ele>821.2</ele><time>2026-04-12T10:06:30.999Z</time></trkpt><trkpt lat="42.110796896521535" lon="12.834013834315487"><ele>822.0</ele><time>2026-04-12T10:06:31.999Z</time></trkpt><trkpt lat="42.110868767303806" lon="12.83411412782795"><ele>823.6</ele><time>2026-04-12T10:06:32.999Z</time></trkpt><trkpt lat="42.11093962691563" lon="12.834214162035531"><ele>825.2</ele><time>2026-04-12T10:06:33.999Z</time></trkpt><trkpt lat="42.11100799483996" lon="12.834318041885297"><ele>826.8</ele><time>2026-04-12T10:06:34.999Z</time></trkpt><trkpt lat="42.111074679376465" lon="12.834421888149565"><ele>828.4</ele><time>2026-04-12T10:06:35.999Z</time></trkpt><trkpt lat="42.111141994373" lon="12.834523175595468"><ele>830.0</ele><time>2026-04-12T10:06:36.999Z</time></trkpt><trkpt lat="42.11121063825772" lon="12.83462210965987"><ele>830.2</ele><time>2026-04-12T10:06:37.999Z</time></trkpt><trkpt lat="42.111282751303975" lon="12.834717805391538"><ele>830.4</ele><time>2026-04-12T10:06:38.999Z</time></trkpt><trkpt lat="42.11135722340586" lon="12.834810407009426"><ele>830.5999999999999</ele><time>2026-04-12T10:06:39.999Z</time></trkpt><trkpt lat="42.11143438782392" lon="12.83490555436916"><ele>830.8</ele><time>2026-04-12T10:06:40.999Z</time></trkpt><trkpt lat="42.111517808717394" lon="12.834993010225116"><ele>831.0</ele><time>2026-04-12T10:06:41.999Z</time></trkpt><trkpt lat="42.11159899387122" lon="12.835077321192811"><ele>835.1999999999999</ele><time>2026-04-12T10:06:42.999Z</time></trkpt><trkpt lat="42.111681630616786" lon="12.835155505329961"><ele>839.4</ele><time>2026-04-12T10:06:43.999Z</time></trkpt><trkpt lat="42.111769972458795" lon="12.835225006009143"><ele>843.6</ele><time>2026-04-12T10:06:45Z</time></trkpt><trkpt lat="42.11186028145861" lon="12.83529232614362"><ele>847.8</ele><time>2026-04-12T10:06:46Z</time></trkpt><trkpt lat="42.111949334281135" lon="12.835356085243692"><ele>852.0</ele><time>2026-04-12T10:06:47Z</time></trkpt><trkpt lat="42.11203854626354" lon="12.835415909764155"><ele>852.0</ele><time>2026-04-12T10:06:48Z</time></trkpt><trkpt lat="42.11212165998851" lon="12.8354725896596"><ele>852.0</ele><time>2026-04-12T10:06:49Z</time></trkpt><trkpt lat="42.1121958574208" lon="12.83552742136735"><ele>852.0</ele><time>2026-04-12T10:06:50Z</time></trkpt><trkpt lat="42.11225400443477" lon="12.83557782095583"><ele>852.0</ele><time>2026-04-12T10:06:51Z</time></trkpt><trkpt lat="42.11234141529956" lon="12.835677980058717"><ele>852.0</ele><time>2026-04-12T10:06:53Z</time></trkpt><trkpt lat="42.11244498983616" lon="12.835788484794632"><ele>852.5714285714286</ele><time>2026-04-12T10:06:55Z</time></trkpt><trkpt lat="42.112502497376184" lon="12.835854086861687"><ele>853.1428571428571</ele><time>2026-04-12T10:06:56Z</time></trkpt><trkpt lat="42.11255896702083" lon="12.835919202023646"><ele>853.7142857142858</ele><time>2026-04-12T10:06:57Z</time></trkpt><trkpt lat="42.11260835049824" lon="12.835993159361298"><ele>854.2857142857142</ele><time>2026-04-12T10:06:58Z</time></trkpt><trkpt lat="42.112655877935005" lon="12.83606909445235"><ele>854.8571428571429</ele><time>2026-04-12T10:06:59Z</time></trkpt><trkpt lat="42.112705951627596" lon="12.836145818637258"><ele>855.4285714285714</ele><time>2026-04-12T10:07:00Z</time></trkpt><trkpt lat="42.11275487628788" lon="12.836216624221287"><ele>856.0</ele><time>2026-04-12T10:07:01Z</time></trkpt><trkpt lat="42.112811746954925" lon="12.836279912003226"><ele>855.9999999999999</ele><time>2026-04-12T10:07:02Z</time></trkpt><trkpt lat="42.11288079498146" lon="12.836343627041654"><ele>856.0</ele><time>2026-04-12T10:07:03Z</time></trkpt><trkpt lat="42.11295622974748" lon="12.836408497483351"><ele>856.0</ele><time>2026-04-12T10:07:04Z</time></trkpt><trkpt lat="42.113029014390065" lon="12.836482999299312"><ele>856.0</ele><time>2026-04-12T10:07:05Z</time></trkpt><trkpt lat="42.113096202665794" lon="12.836563511621119"><ele>855.9999999999999</ele><time>2026-04-12T10:07:06Z</time></trkpt><trkpt lat="42.113162826343356" lon="12.836645616206845"><ele>856.0</ele><time>2026-04-12T10:07:07Z</time></trkpt><trkpt lat="42.11322633660861" lon="12.836731365850948"><ele>854.3333333333333</ele><time>2026-04-12T10:07:08Z</time></trkpt><trkpt lat="42.11328568792521" lon="12.83681703160728"><ele>852.6666666666666</ele><time>2026-04-12T10:07:09Z</time></trkpt><trkpt lat="42.11333805370479" lon="12.836905462647374"><ele>851.0</ele><time>2026-04-12T10:07:10Z</time></trkpt><trkpt lat="42.11337789804004" lon="12.836985763654935"><ele>849.3333333333333</ele><time>2026-04-12T10:07:11Z</time></trkpt><trkpt lat="42.113411295199874" lon="12.837063053173098"><ele>847.6666666666666</ele><time>2026-04-12T10:07:12Z</time></trkpt><trkpt lat="42.11347865246504" lon="12.837166664544988"><ele>846.0</ele><time>2026-04-12T10:07:14Z</time></trkpt><trkpt lat="42.1135599195226" lon="12.837182589331052"><ele>846.0</ele><time>2026-04-12T10:07:16Z</time></trkpt><trkpt lat="42.11367312701385" lon="12.837120843441378"><ele>846.0</ele><time>2026-04-12T10:07:18Z</time></trkpt><trkpt lat="42.11373736151231" lon="12.837075588827604"><ele>846.0</ele><time>2026-04-12T10:07:19Z</time></trkpt><trkpt lat="42.113795290138924" lon="12.837020452629682"><ele>846.0</ele><time>2026-04-12T10:07:20Z</time></trkpt><trkpt lat="42.11385534522178" lon="12.83697183913879"><ele>846.0</ele><time>2026-04-12T10:07:21Z</time></trkpt><trkpt lat="42.113917346496905" lon="12.83692913809889"><ele>846.0</ele><time>2026-04-12T10:07:22Z</time></trkpt><trkpt lat="42.1139798370811" lon="12.836913794666048"><ele>846.0</ele><time>2026-04-12T10:07:23Z</time></trkpt><trkpt lat="42.11404279943718" lon="12.836912711694243"><ele>846.0</ele><time>2026-04-12T10:07:24Z</time></trkpt><trkpt lat="42.11417070953139" lon="12.836952658936758"><ele>846.0</ele><time>2026-04-12T10:07:26Z</time></trkpt><trkpt lat="42.11424527253545" lon="12.836975677494397"><ele>846.0</ele><time>2026-04-12T10:07:27Z</time></trkpt><trkpt lat="42.11431524707966" lon="12.837006899815764"><ele>846.0</ele><time>2026-04-12T10:07:28Z</time></trkpt><trkpt lat="42.11437266043911" lon="12.83705034805072"><ele>846.0</ele><time>2026-04-12T10:07:29Z</time></trkpt><trkpt lat="42.1144349400802" lon="12.837092986805505"><ele>847.4</ele><time>2026-04-12T10:07:30Z</time></trkpt><trkpt lat="42.11449138145775" lon="12.837131461246043"><ele>848.8</ele><time>2026-04-12T10:07:31Z</time></trkpt><trkpt lat="42.114594346768634" lon="12.837200779653696"><ele>850.1999999999999</ele><time>2026-04-12T10:07:33Z</time></trkpt><trkpt lat="42.11465036501425" lon="12.837251473528143"><ele>851.5999999999999</ele><time>2026-04-12T10:07:34Z</time></trkpt><trkpt lat="42.114763770860975" lon="12.837290370680227"><ele>853.0</ele><time>2026-04-12T10:07:36Z</time></trkpt><trkpt lat="42.11488148452174" lon="12.837231472302603"><ele>851.4</ele><time>2026-04-12T10:07:38Z</time></trkpt><trkpt lat="42.11493981986842" lon="12.837184267621643"><ele>849.8</ele><time>2026-04-12T10:07:39Z</time></trkpt><trkpt lat="42.11503628326351" lon="12.837105681027483"><ele>848.2</ele><time>2026-04-12T10:07:41Z</time></trkpt><trkpt lat="42.11512712261468" lon="12.837065171374073"><ele>846.6</ele><time>2026-04-12T10:07:43Z</time></trkpt><trkpt lat="42.11523609519802" lon="12.837081480337057"><ele>845.0</ele><time>2026-04-12T10:07:45Z</time></trkpt><trkpt lat="42.11533096156264" lon="12.837114371432026"><ele>845.0000000000001</ele><time>2026-04-12T10:07:47Z</time></trkpt><trkpt lat="42.115379391317944" lon="12.83718463696119"><ele>845.0</ele><time>2026-04-12T10:07:49Z</time></trkpt><trkpt lat="42.11543806981926" lon="12.837332691504015"><ele>845.0</ele><time>2026-04-12T10:07:51Z</time></trkpt><trkpt lat="42.11547899616569" lon="12.837429166407713"><ele>845.0</ele><time>2026-04-12T10:07:51.999Z</time></trkpt><trkpt lat="42.11552085325321" lon="12.837525637164122"><ele>845.0000000000001</ele><time>2026-04-12T10:07:52.999Z</time></trkpt><trkpt lat="42.11555946987136" lon="12.837621245014926"><ele>845.0</ele><time>2026-04-12T10:07:53.999Z</time></trkpt><trkpt lat="42.11560760133669" lon="12.837707359979822"><ele>846.3333333333334</ele><time>2026-04-12T10:07:54.999Z</time></trkpt><trkpt lat="42.115670892657164" lon="12.837769802238542"><ele>847.6666666666667</ele><time>2026-04-12T10:07:55.999Z</time></trkpt><trkpt lat="42.11574168342578" lon="12.837832904152712"><ele>849.0</ele><time>2026-04-12T10:07:56.999Z</time></trkpt><trkpt lat="42.115820121280734" lon="12.837904777176226"><ele>850.3333333333333</ele><time>2026-04-12T10:07:57.999Z</time></trkpt><trkpt lat="42.115894893393055" lon="12.837985000990779"><ele>851.6666666666666</ele><time>2026-04-12T10:07:58.999Z</time></trkpt><trkpt lat="42.115963406816356" lon="12.838063277184897"><ele>853.0</ele><time>2026-04-12T10:07:59.999Z</time></trkpt><trkpt lat="42.11602102764194" lon="12.838141860549714"><ele>852.9999999999999</ele><time>2026-04-12T10:08:00.999Z</time></trkpt><trkpt lat="42.11606843510901" lon="12.838220320725748"><ele>853.0</ele><time>2026-04-12T10:08:01.999Z</time></trkpt><trkpt lat="42.116120431059855" lon="12.838311013777771"><ele>853.0</ele><time>2026-04-12T10:08:02.999Z</time></trkpt><trkpt lat="42.11616073027411" lon="12.838412316101062"><ele>853.0</ele><time>2026-04-12T10:08:03.999Z</time></trkpt><trkpt lat="42.11619004200157" lon="12.838519474205366"><ele>852.9999999999999</ele><time>2026-04-12T10:08:04.999Z</time></trkpt><trkpt lat="42.11620210077836" lon="12.838623160487257"><ele>853.0</ele><time>2026-04-12T10:08:05.999Z</time></trkpt><trkpt lat="42.1162057278994" lon="12.838718713619334"><ele>854.1666666666666</ele><time>2026-04-12T10:08:06.999Z</time></trkpt><trkpt lat="42.11620295119025" lon="12.838823627437812"><ele>855.3333333333333</ele><time>2026-04-12T10:08:07.999Z</time></trkpt><trkpt lat="42.11619331925491" lon="12.838923344646018"><ele>856.5</ele><time>2026-04-12T10:08:08.999Z</time></trkpt><trkpt lat="42.11617852907109" lon="12.839008912588184"><ele>857.6666666666667</ele><time>2026-04-12T10:08:09.999Z</time></trkpt><trkpt lat="42.11615170844113" lon="12.83914634555913"><ele>858.8333333333334</ele><time>2026-04-12T10:08:11.999Z</time></trkpt><trkpt lat="42.116175088100945" lon="12.839262302428002"><ele>860.0</ele><time>2026-04-12T10:08:13.999Z</time></trkpt><trkpt lat="42.116268042678" lon="12.839334927513885"><ele>860.1666666666667</ele><time>2026-04-12T10:08:15.999Z</time></trkpt><trkpt lat="42.11638937572113" lon="12.839368746457811"><ele>860.3333333333334</ele><time>2026-04-12T10:08:17.999Z</time></trkpt><trkpt lat="42.116454630677666" lon="12.839401225253951"><ele>860.5</ele><time>2026-04-12T10:08:18.999Z</time></trkpt><trkpt lat="42.1165136320095" lon="12.839437240780278"><ele>860.6666666666667</ele><time>2026-04-12T10:08:19.999Z</time></trkpt><trkpt lat="42.11659714047937" lon="12.839488571591781"><ele>860.8333333333334</ele><time>2026-04-12T10:08:21.999Z</time></trkpt><trkpt lat="42.11666968558636" lon="12.839499164190595"><ele>861.0</ele><time>2026-04-12T10:08:23.999Z</time></trkpt><trkpt lat="42.11680354057095" lon="12.839507711616886"><ele>861.0</ele><time>2026-04-12T10:08:25.999Z</time></trkpt><trkpt lat="42.11688170122327" lon="12.839526802913719"><ele>861.0</ele><time>2026-04-12T10:08:26.999Z</time></trkpt><trkpt lat="42.11696278501437" lon="12.839562215955041"><ele>861.0</ele><time>2026-04-12T10:08:27.999Z</time></trkpt><trkpt lat="42.11704043092941" lon="12.839605936626397"><ele>861.0</ele><time>2026-04-12T10:08:28.999Z</time></trkpt><trkpt lat="42.11711900295602" lon="12.839652271959578"><ele>861.0</ele><time>2026-04-12T10:08:29.999Z</time></trkpt><trkpt lat="42.117190326840586" lon="12.83968732016816"><ele>861.0</ele><time>2026-04-12T10:08:30.999Z</time></trkpt><trkpt lat="42.11726452778521" lon="12.839712636217207"><ele>861.0</ele><time>2026-04-12T10:08:31.999Z</time></trkpt><trkpt lat="42.11734834474872" lon="12.839728279389632"><ele>860.9999999999999</ele><time>2026-04-12T10:08:32.999Z</time></trkpt><trkpt lat="42.11744271795831" lon="12.83973033807746"><ele>860.9999999999999</ele><time>2026-04-12T10:08:33.999Z</time></trkpt><trkpt lat="42.117537845022376" lon="12.83972359121977"><ele>861.0</ele><time>2026-04-12T10:08:34.999Z</time></trkpt><trkpt lat="42.117630986181375" lon="12.839713641215141"><ele>861.0</ele><time>2026-04-12T10:08:35.999Z</time></trkpt><trkpt lat="42.117723725901584" lon="12.839712431375103"><ele>863.5999999999999</ele><time>2026-04-12T10:08:36.999Z</time></trkpt><trkpt lat="42.11781526213925" lon="12.839690769787659"><ele>866.1999999999999</ele><time>2026-04-12T10:08:37.999Z</time></trkpt><trkpt lat="42.117907410846236" lon="12.839632382883616"><ele>868.8000000000001</ele><time>2026-04-12T10:08:38.999Z</time></trkpt><trkpt lat="42.11800322960674" lon="12.83957121748673"><ele>871.4000000000001</ele><time>2026-04-12T10:08:39.999Z</time></trkpt><trkpt lat="42.11809966322352" lon="12.839532922308269"><ele>874.0</ele><time>2026-04-12T10:08:40.999Z</time></trkpt><trkpt lat="42.11818607732833" lon="12.839512320151568"><ele>875.9999999999999</ele><time>2026-04-12T10:08:41.999Z</time></trkpt><trkpt lat="42.11825858156137" lon="12.839501553894179"><ele>878.0</ele><time>2026-04-12T10:08:42.999Z</time></trkpt><trkpt lat="42.11832300697836" lon="12.839515620599492"><ele>880.0</ele><time>2026-04-12T10:08:43.999Z</time></trkpt><trkpt lat="42.118407962767954" lon="12.839562286769532"><ele>882.0</ele><time>2026-04-12T10:08:44.999Z</time></trkpt><trkpt lat="42.11849505304654" lon="12.839601725639527"><ele>883.9999999999999</ele><time>2026-04-12T10:08:45.999Z</time></trkpt><trkpt lat="42.11859679078136" lon="12.839621312042572"><ele>886.0</ele><time>2026-04-12T10:08:46.999Z</time></trkpt><trkpt lat="42.11871575627573" lon="12.839623531220631"><ele>886.0</ele><time>2026-04-12T10:08:47.999Z</time></trkpt><trkpt lat="42.1188388174175" lon="12.839627430306786"><ele>885.9999999999999</ele><time>2026-04-12T10:08:48.999Z</time></trkpt><trkpt lat="42.11895153921799" lon="12.839622648113746"><ele>885.9999999999999</ele><time>2026-04-12T10:08:49.999Z</time></trkpt><trkpt lat="42.119047668115485" lon="12.83962785276389"><ele>886.0</ele><time>2026-04-12T10:08:51Z</time></trkpt><trkpt lat="42.11913827285617" lon="12.839647427853382"><ele>886.0</ele><time>2026-04-12T10:08:52Z</time></trkpt><trkpt lat="42.119235008895146" lon="12.83969268120683"><ele>886.8</ele><time>2026-04-12T10:08:53Z</time></trkpt><trkpt lat="42.119334657952116" lon="12.839759909418872"><ele>887.5999999999999</ele><time>2026-04-12T10:08:54Z</time></trkpt><trkpt lat="42.11943606496092" lon="12.839823346189895"><ele>888.4</ele><time>2026-04-12T10:08:55Z</time></trkpt><trkpt lat="42.11953545206572" lon="12.839889665634244"><ele>889.2</ele><time>2026-04-12T10:08:56Z</time></trkpt><trkpt lat="42.11963376664662" lon="12.839958034449442"><ele>890.0</ele><time>2026-04-12T10:08:57Z</time></trkpt><trkpt lat="42.11972711103196" lon="12.840021615538488"><ele>890.0</ele><time>2026-04-12T10:08:58Z</time></trkpt><trkpt lat="42.11981809707213" lon="12.840089088903163"><ele>890.0</ele><time>2026-04-12T10:08:59Z</time></trkpt><trkpt lat="42.11989754714551" lon="12.840168210021409"><ele>890.0</ele><time>2026-04-12T10:09:00Z</time></trkpt><trkpt lat="42.1199734717162" lon="12.84026255709963"><ele>890.0</ele><time>2026-04-12T10:09:01Z</time></trkpt><trkpt lat="42.120058696585225" lon="12.840363580381858"><ele>890.0</ele><time>2026-04-12T10:09:02Z</time></trkpt><trkpt lat="42.120151745388625" lon="12.840451638433958"><ele>894.4</ele><time>2026-04-12T10:09:03Z</time></trkpt><trkpt lat="42.12025690121285" lon="12.840519811556831"><ele>898.8</ele><time>2026-04-12T10:09:04Z</time></trkpt><trkpt lat="42.120357428403324" lon="12.840607294015552"><ele>903.2</ele><time>2026-04-12T10:09:05Z</time></trkpt><trkpt lat="42.120432847206665" lon="12.840679712730916"><ele>907.6</ele><time>2026-04-12T10:09:06Z</time></trkpt><trkpt lat="42.12050480585767" lon="12.840749639813879"><ele>912.0</ele><time>2026-04-12T10:09:07Z</time></trkpt><trkpt lat="42.12056737182261" lon="12.840817989497358"><ele>912.0</ele><time>2026-04-12T10:09:08Z</time></trkpt><trkpt lat="42.1206650204553" lon="12.840890642730905"><ele>912.0</ele><time>2026-04-12T10:09:10Z</time></trkpt><trkpt lat="42.12075779073469" lon="12.840938422734943"><ele>912.0</ele><time>2026-04-12T10:09:12Z</time></trkpt><trkpt lat="42.120879043819016" lon="12.84089522460633"><ele>912.0</ele><time>2026-04-12T10:09:14Z</time></trkpt><trkpt lat="42.12094409798623" lon="12.840841350985375"><ele>912.0</ele><time>2026-04-12T10:09:15Z</time></trkpt><trkpt lat="42.12101813066616" lon="12.840770549953834"><ele>909.4000000000001</ele><time>2026-04-12T10:09:16Z</time></trkpt><trkpt lat="42.12110340119501" lon="12.840673773026843"><ele>906.8000000000001</ele><time>2026-04-12T10:09:17Z</time></trkpt><trkpt lat="42.12118866728484" lon="12.840584943853749"><ele>904.2</ele><time>2026-04-12T10:09:18Z</time></trkpt><trkpt lat="42.121259067031254" lon="12.840501333214585"><ele>901.6</ele><time>2026-04-12T10:09:19Z</time></trkpt><trkpt lat="42.121300803081695" lon="12.840422015645746"><ele>899.0</ele><time>2026-04-12T10:09:20Z</time></trkpt><trkpt lat="42.12132338776174" lon="12.840278728341817"><ele>899.0000000000001</ele><time>2026-04-12T10:09:22Z</time></trkpt><trkpt lat="42.12131527640705" lon="12.84016981022954"><ele>899.0</ele><time>2026-04-12T10:09:24Z</time></trkpt><trkpt lat="42.121290594412685" lon="12.840035497827335"><ele>899.0</ele><time>2026-04-12T10:11:23Z</time></trkpt><trkpt lat="42.121275953893786" lon="12.839930935084144"><ele>899.0</ele><time>2026-04-12T10:11:26Z</time></trkpt><trkpt lat="42.121267152969885" lon="12.839820354047095"><ele>899.0000000000001</ele><time>2026-04-12T10:12:16.999Z</time></trkpt><trkpt lat="42.12130420920039" lon="12.839698439324954"><ele>899.0</ele><time>2026-04-12T10:12:19.999Z</time></trkpt><trkpt lat="42.12135197953299" lon="12.839621015905886"><ele>899.1666666666667</ele><time>2026-04-12T10:12:21.999Z</time></trkpt><trkpt lat="42.1214222489007" lon="12.839554203073321"><ele>899.3333333333334</ele><time>2026-04-12T10:12:23.999Z</time></trkpt><trkpt lat="42.121502621619086" lon="12.839508459924154"><ele>899.5</ele><time>2026-04-12T10:12:25.999Z</time></trkpt><trkpt lat="42.12156589294285" lon="12.839515883099994"><ele>899.6666666666667</ele><time>2026-04-12T10:12:27.999Z</time></trkpt><trkpt lat="42.121640036784775" lon="12.839548588878015"><ele>899.8333333333334</ele><time>2026-04-12T10:12:29.999Z</time></trkpt><trkpt lat="42.12171542052684" lon="12.839632860053936"><ele>900.0</ele><time>2026-04-12T10:12:31.999Z</time></trkpt><trkpt lat="42.12177162628981" lon="12.83973726611087"><ele>900.0</ele><time>2026-04-12T10:12:33.999Z</time></trkpt><trkpt lat="42.12181541020178" lon="12.839896863377636"><ele>900.0</ele><time>2026-04-12T10:12:35.999Z</time></trkpt><trkpt lat="42.12183419519925" lon="12.839999578198306"><ele>900.0</ele><time>2026-04-12T10:12:36.999Z</time></trkpt><trkpt lat="42.121846887570634" lon="12.840107578527798"><ele>900.0</ele><time>2026-04-12T10:12:37.999Z</time></trkpt><trkpt lat="42.121856399462985" lon="12.840220435149831"><ele>900.0</ele><time>2026-04-12T10:12:38.999Z</time></trkpt><trkpt lat="42.12185598574603" lon="12.840343658816236"><ele>900.1666666666666</ele><time>2026-04-12T10:12:39.999Z</time></trkpt><trkpt lat="42.121845192874204" lon="12.840464019625898"><ele>900.3333333333333</ele><time>2026-04-12T10:12:40.999Z</time></trkpt><trkpt lat="42.12183007475874" lon="12.840574569823778"><ele>900.5</ele><time>2026-04-12T10:12:41.999Z</time></trkpt><trkpt lat="42.12182049696938" lon="12.84067981079921"><ele>900.6666666666666</ele><time>2026-04-12T10:12:42.999Z</time></trkpt><trkpt lat="42.121813617613114" lon="12.840781644722476"><ele>900.8333333333333</ele><time>2026-04-12T10:12:43.999Z</time></trkpt><trkpt lat="42.12180729672094" lon="12.840876179161956"><ele>901.0</ele><time>2026-04-12T10:12:44.999Z</time></trkpt><trkpt lat="42.121779292861184" lon="12.841029710709316"><ele>901.0</ele><time>2026-04-12T10:12:46.999Z</time></trkpt><trkpt lat="42.121761340341536" lon="12.84118738913431"><ele>901.0</ele><time>2026-04-12T10:12:48.999Z</time></trkpt><trkpt lat="42.12148201705104" lon="12.841146215860398"><ele>901.0</ele><time>2026-04-12T10:12:50.999Z</time></trkpt><trkpt lat="42.121447478569195" lon="12.841223782190333"><ele>904.4999999999999</ele><time>2026-04-12T10:12:51.999Z</time></trkpt><trkpt lat="42.12140542517701" lon="12.84132807755296"><ele>908.0</ele><time>2026-04-12T10:12:52.999Z</time></trkpt><trkpt lat="42.1213726485694" lon="12.841435322335029"><ele>911.5</ele><time>2026-04-12T10:12:53.999Z</time></trkpt><trkpt lat="42.121342103402306" lon="12.841521071208446"><ele>915.0</ele><time>2026-04-12T10:12:54.999Z</time></trkpt><trkpt lat="42.12130819534527" lon="12.841594499837665"><ele>918.4999999999999</ele><time>2026-04-12T10:12:55.999Z</time></trkpt><trkpt lat="42.12126841101185" lon="12.841662291537592"><ele>922.0</ele><time>2026-04-12T10:12:56.999Z</time></trkpt><trkpt lat="42.12119363536033" lon="12.841750861349015"><ele>923.75</ele><time>2026-04-12T10:12:58.999Z</time></trkpt><trkpt lat="42.12114454935275" lon="12.841804877856339"><ele>925.5</ele><time>2026-04-12T10:12:59.999Z</time></trkpt><trkpt lat="42.12109350647039" lon="12.84186104782648"><ele>927.25</ele><time>2026-04-12T10:13:00.999Z</time></trkpt><trkpt lat="42.12118882523489" lon="12.842272731527157"><ele>929.0</ele><time>2026-04-12T10:13:03Z</time></trkpt><trkpt lat="42.12116368841458" lon="12.842355646955392"><ele>929.0</ele><time>2026-04-12T10:13:04Z</time></trkpt><trkpt lat="42.12111669915071" lon="12.842498134073542"><ele>929.0000000000001</ele><time>2026-04-12T10:13:06Z</time></trkpt><trkpt lat="42.121083045115" lon="12.84263687320907"><ele>929.0000000000001</ele><time>2026-04-12T10:13:08Z</time></trkpt><trkpt lat="42.12107275058569" lon="12.842794338913466"><ele>929.0</ele><time>2026-04-12T10:13:10Z</time></trkpt><trkpt lat="42.121078862434906" lon="12.842878874944422"><ele>929.0</ele><time>2026-04-12T10:13:11Z</time></trkpt><trkpt lat="42.121088293830226" lon="12.842975460543904"><ele>927.8571428571429</ele><time>2026-04-12T10:13:12Z</time></trkpt><trkpt lat="42.12109827726842" lon="12.843070560303838"><ele>926.7142857142858</ele><time>2026-04-12T10:13:13Z</time></trkpt><trkpt lat="42.1210998032285" lon="12.843157221208743"><ele>925.5714285714287</ele><time>2026-04-12T10:13:14Z</time></trkpt><trkpt lat="42.121089634965955" lon="12.843251817227824"><ele>924.4285714285716</ele><time>2026-04-12T10:13:15Z</time></trkpt><trkpt lat="42.121076412115556" lon="12.843349174886821"><ele>923.2857142857143</ele><time>2026-04-12T10:13:16Z</time></trkpt><trkpt lat="42.12105458664626" lon="12.843444625734927"><ele>922.1428571428573</ele><time>2026-04-12T10:13:17Z</time></trkpt><trkpt lat="42.121020018285115" lon="12.843536811125727"><ele>921.0000000000001</ele><time>2026-04-12T10:13:18Z</time></trkpt><trkpt lat="42.12098091054413" lon="12.843625244185473"><ele>918.0</ele><time>2026-04-12T10:13:19Z</time></trkpt><trkpt lat="42.12093873108514" lon="12.843700159904227"><ele>915.0</ele><time>2026-04-12T10:13:20Z</time></trkpt><trkpt lat="42.12089687467422" lon="12.843780928649668"><ele>912.0</ele><time>2026-04-12T10:13:21Z</time></trkpt><trkpt lat="42.12085717616851" lon="12.843855189031185"><ele>909.0</ele><time>2026-04-12T10:13:22Z</time></trkpt><trkpt lat="42.12082052794347" lon="12.843929077079874"><ele>906.0</ele><time>2026-04-12T10:13:23Z</time></trkpt><trkpt lat="42.120764552746884" lon="12.844073859543682"><ele>903.0</ele><time>2026-04-12T10:13:25Z</time></trkpt><trkpt lat="42.12073410951306" lon="12.844219959721382"><ele>900.2</ele><time>2026-04-12T10:13:27Z</time></trkpt><trkpt lat="42.12073202829695" lon="12.844386478134341"><ele>897.4</ele><time>2026-04-12T10:13:29Z</time></trkpt><trkpt lat="42.120737429725494" lon="12.844478617168186"><ele>894.6000000000001</ele><time>2026-04-12T10:13:30Z</time></trkpt><trkpt lat="42.120745401410005" lon="12.844632197177546"><ele>891.8000000000001</ele><time>2026-04-12T10:13:32Z</time></trkpt><trkpt lat="42.12075540587806" lon="12.84475652007527"><ele>889.0</ele><time>2026-04-12T10:13:34Z</time></trkpt><trkpt lat="42.120742586587255" lon="12.84487096594247"><ele>888.6</ele><time>2026-04-12T10:13:36Z</time></trkpt><trkpt lat="42.120698644006886" lon="12.844988763428164"><ele>888.2</ele><time>2026-04-12T10:13:38Z</time></trkpt><trkpt lat="42.12063687671751" lon="12.8450971146395"><ele>887.8000000000001</ele><time>2026-04-12T10:13:40Z</time></trkpt><trkpt lat="42.120554512935115" lon="12.845213663145593"><ele>887.4000000000001</ele><time>2026-04-12T10:13:42Z</time></trkpt><trkpt lat="42.12050100925144" lon="12.845280993670945"><ele>887.0</ele><time>2026-04-12T10:13:43Z</time></trkpt><trkpt lat="42.12045046208706" lon="12.84534708475539"><ele>887.0</ele><time>2026-04-12T10:13:44Z</time></trkpt><trkpt lat="42.1204012449805" lon="12.845402020322434"><ele>887.0</ele><time>2026-04-12T10:13:45Z</time></trkpt><trkpt lat="42.12030966827701" lon="12.845505122132227"><ele>887.0</ele><time>2026-04-12T10:13:47Z</time></trkpt><trkpt lat="42.12022188217893" lon="12.845598254593924"><ele>887.0</ele><time>2026-04-12T10:13:49Z</time></trkpt><trkpt lat="42.12011822286081" lon="12.845698152583672"><ele>887.0</ele><time>2026-04-12T10:13:51Z</time></trkpt><trkpt lat="42.120064362064795" lon="12.845749434505755"><ele>887.0</ele><time>2026-04-12T10:13:52Z</time></trkpt><trkpt lat="42.119959081783186" lon="12.845826998890386"><ele>887.0</ele><time>2026-04-12T10:13:54Z</time></trkpt><trkpt lat="42.119856577320164" lon="12.845900164056143"><ele>887.0</ele><time>2026-04-12T10:13:56Z</time></trkpt><trkpt lat="42.11974176786169" lon="12.845981867718722"><ele>887.0</ele><time>2026-04-12T10:13:58Z</time></trkpt><trkpt lat="42.11967138009148" lon="12.846043469541234"><ele>884.8333333333334</ele><time>2026-04-12T10:13:59Z</time></trkpt><trkpt lat="42.11961621252944" lon="12.846093337567142"><ele>882.6666666666667</ele><time>2026-04-12T10:14:00Z</time></trkpt><trkpt lat="42.11955914401415" lon="12.84613116666247"><ele>880.5</ele><time>2026-04-12T10:14:01Z</time></trkpt><trkpt lat="42.11950231680873" lon="12.846177995499769"><ele>878.3333333333333</ele><time>2026-04-12T10:14:02Z</time></trkpt><trkpt lat="42.119403160297686" lon="12.846260355651047"><ele>876.1666666666666</ele><time>2026-04-12T10:14:04Z</time></trkpt><trkpt lat="42.11929877289828" lon="12.846334814391655"><ele>874.0</ele><time>2026-04-12T10:14:06Z</time></trkpt><trkpt lat="42.119198316297556" lon="12.846405027128233"><ele>874.0</ele><time>2026-04-12T10:14:08Z</time></trkpt><trkpt lat="42.11909901908699" lon="12.846473043087057"><ele>874.0000000000001</ele><time>2026-04-12T10:14:10Z</time></trkpt><trkpt lat="42.11901297940986" lon="12.846565296071427"><ele>874.0000000000001</ele><time>2026-04-12T10:14:11.999Z</time></trkpt><trkpt lat="42.11897153811071" lon="12.846645290067283"><ele>874.0</ele><time>2026-04-12T10:14:12.999Z</time></trkpt><trkpt lat="42.118905495489685" lon="12.84677854669493"><ele>874.0</ele><time>2026-04-12T10:14:14.999Z</time></trkpt><trkpt lat="42.118832242990415" lon="12.846875315944587"><ele>871.0</ele><time>2026-04-12T10:14:16.999Z</time></trkpt><trkpt lat="42.11875085383917" lon="12.846958682232167"><ele>868.0000000000001</ele><time>2026-04-12T10:14:18.999Z</time></trkpt><trkpt lat="42.11866598458772" lon="12.847019546702098"><ele>865.0000000000001</ele><time>2026-04-12T10:14:20.999Z</time></trkpt><trkpt lat="42.11855366236727" lon="12.84708748145113"><ele>862.0</ele><time>2026-04-12T10:14:22.999Z</time></trkpt><trkpt lat="42.11848930829837" lon="12.847128273561786"><ele>859.0</ele><time>2026-04-12T10:14:23.999Z</time></trkpt><trkpt lat="42.11842689041504" lon="12.847164504441457"><ele>858.9999999999999</ele><time>2026-04-12T10:14:24.999Z</time></trkpt><trkpt lat="42.118367731817024" lon="12.847203947791856"><ele>859.0</ele><time>2026-04-12T10:14:25.999Z</time></trkpt><trkpt lat="42.11826187838394" lon="12.847268527253775"><ele>859.0</ele><time>2026-04-12T10:14:27.999Z</time></trkpt><trkpt lat="42.118203205879055" lon="12.847304684780488"><ele>859.0</ele><time>2026-04-12T10:14:28.999Z</time></trkpt><trkpt lat="42.11814065840587" lon="12.847344571627783"><ele>858.9999999999999</ele><time>2026-04-12T10:14:29.999Z</time></trkpt><trkpt lat="42.11802976423969" lon="12.847413435329925"><ele>859.0</ele><time>2026-04-12T10:14:31.999Z</time></trkpt><trkpt lat="42.1179309786296" lon="12.847471110955397"><ele>860.4000000000001</ele><time>2026-04-12T10:14:33.999Z</time></trkpt><trkpt lat="42.11783293879732" lon="12.847512349903013"><ele>861.8000000000001</ele><time>2026-04-12T10:14:35.999Z</time></trkpt><trkpt lat="42.11773352793239" lon="12.847543761295222"><ele>863.1999999999999</ele><time>2026-04-12T10:14:37.999Z</time></trkpt><trkpt lat="42.117672686888945" lon="12.847565700591554"><ele>864.5999999999999</ele><time>2026-04-12T10:14:38.999Z</time></trkpt><trkpt lat="42.117559123604956" lon="12.847592916004588"><ele>866.0</ele><time>2026-04-12T10:14:40.999Z</time></trkpt><trkpt lat="42.117441592024086" lon="12.847594613173408"><ele>864.5</ele><time>2026-04-12T10:14:42.999Z</time></trkpt><trkpt lat="42.11731919013273" lon="12.847589419824622"><ele>863.0</ele><time>2026-04-12T10:14:44.999Z</time></trkpt><trkpt lat="42.11721127666948" lon="12.847573014886"><ele>861.5</ele><time>2026-04-12T10:14:46.999Z</time></trkpt><trkpt lat="42.11710185148427" lon="12.847552386177128"><ele>860.0</ele><time>2026-04-12T10:14:48.999Z</time></trkpt><trkpt lat="42.1169833411689" lon="12.847535291973005"><ele>860.0</ele><time>2026-04-12T10:14:50.999Z</time></trkpt><trkpt lat="42.116873357569986" lon="12.84751299488246"><ele>860.0</ele><time>2026-04-12T10:14:52.999Z</time></trkpt><trkpt lat="42.11676551745905" lon="12.847491812546703"><ele>860.0</ele><time>2026-04-12T10:14:54.999Z</time></trkpt><trkpt lat="42.11666661942957" lon="12.84748439579423"><ele>860.0</ele><time>2026-04-12T10:14:56.999Z</time></trkpt><trkpt lat="42.116542833506735" lon="12.847460966757446"><ele>860.0</ele><time>2026-04-12T10:14:58.999Z</time></trkpt><trkpt lat="42.11648044956505" lon="12.847446212429723"><ele>860.2</ele><time>2026-04-12T10:14:59.999Z</time></trkpt><trkpt lat="42.11641354057637" lon="12.847458408653495"><ele>860.4</ele><time>2026-04-12T10:15:00.999Z</time></trkpt><trkpt lat="42.11634958611157" lon="12.847467501151135"><ele>860.5999999999999</ele><time>2026-04-12T10:15:01.999Z</time></trkpt><trkpt lat="42.116222301447685" lon="12.8474697709872"><ele>860.8</ele><time>2026-04-12T10:15:03.999Z</time></trkpt><trkpt lat="42.11610773078954" lon="12.847473193147525"><ele>861.0</ele><time>2026-04-12T10:15:05.999Z</time></trkpt><trkpt lat="42.115996516667984" lon="12.847515993140897"><ele>861.0</ele><time>2026-04-12T10:15:07.999Z</time></trkpt><trkpt lat="42.115872044439605" lon="12.847551172023662"><ele>861.0</ele><time>2026-04-12T10:15:10Z</time></trkpt><trkpt lat="42.11580279937994" lon="12.847579657991126"><ele>861.0</ele><time>2026-04-12T10:15:11Z</time></trkpt><trkpt lat="42.11573819410817" lon="12.847602133987131"><ele>861.0</ele><time>2026-04-12T10:15:12Z</time></trkpt><trkpt lat="42.11567010446625" lon="12.847613077578256"><ele>861.0</ele><time>2026-04-12T10:15:13Z</time></trkpt><trkpt lat="42.1156040220427" lon="12.8476336059151"><ele>861.0</ele><time>2026-04-12T10:15:14Z</time></trkpt><trkpt lat="42.1155399151053" lon="12.847656133504834"><ele>854.1666666666666</ele><time>2026-04-12T10:15:15Z</time></trkpt><trkpt lat="42.11547284854151" lon="12.847680382332053"><ele>847.3333333333333</ele><time>2026-04-12T10:15:16Z</time></trkpt><trkpt lat="42.11540367690435" lon="12.847713307866737"><ele>840.5</ele><time>2026-04-12T10:15:17Z</time></trkpt><trkpt lat="42.11534104139798" lon="12.847754738944296"><ele>833.6666666666666</ele><time>2026-04-12T10:15:18Z</time></trkpt><trkpt lat="42.115285674344975" lon="12.847796750483132"><ele>826.8333333333333</ele><time>2026-04-12T10:15:19Z</time></trkpt><trkpt lat="42.11518467824304" lon="12.847871505869092"><ele>820.0</ele><time>2026-04-12T10:15:21Z</time></trkpt><trkpt lat="42.11506363584986" lon="12.847908046578054"><ele>819.9999999999999</ele><time>2026-04-12T10:15:23Z</time></trkpt><trkpt lat="42.11493484243117" lon="12.847907503747823"><ele>820.0</ele><time>2026-04-12T10:15:25Z</time></trkpt><trkpt lat="42.114866365868984" lon="12.84788865338919"><ele>820.0</ele><time>2026-04-12T10:15:26Z</time></trkpt><trkpt lat="42.11479217355138" lon="12.84786894718716"><ele>820.0</ele><time>2026-04-12T10:15:27Z</time></trkpt><trkpt lat="42.11470721109873" lon="12.847856074708755"><ele>819.9999999999999</ele><time>2026-04-12T10:15:28Z</time></trkpt><trkpt lat="42.114626748633434" lon="12.847849275867205"><ele>820.0</ele><time>2026-04-12T10:15:29Z</time></trkpt><trkpt lat="42.114554913403225" lon="12.847843424455723"><ele>819.4999999999999</ele><time>2026-04-12T10:15:30Z</time></trkpt><trkpt lat="42.114472683703134" lon="12.847838557823492"><ele>819.0</ele><time>2026-04-12T10:15:31Z</time></trkpt><trkpt lat="42.11438738100649" lon="12.847830030038548"><ele>818.5</ele><time>2026-04-12T10:15:32Z</time></trkpt><trkpt lat="42.11431025783191" lon="12.847813353975033"><ele>818.0</ele><time>2026-04-12T10:15:33Z</time></trkpt><trkpt lat="42.11424031978762" lon="12.84779504786173"><ele>817.4999999999999</ele><time>2026-04-12T10:15:34Z</time></trkpt><trkpt lat="42.1141710491643" lon="12.84778594968843"><ele>817.0</ele><time>2026-04-12T10:15:35Z</time></trkpt><trkpt lat="42.11410121990327" lon="12.84778597834704"><ele>819.2857142857142</ele><time>2026-04-12T10:15:36Z</time></trkpt><trkpt lat="42.11403020140064" lon="12.84780358682623"><ele>821.5714285714286</ele><time>2026-04-12T10:15:37Z</time></trkpt><trkpt lat="42.11395502898879" lon="12.847831015387554"><ele>823.8571428571429</ele><time>2026-04-12T10:15:38Z</time></trkpt><trkpt lat="42.113883069420545" lon="12.847863217148191"><ele>826.1428571428571</ele><time>2026-04-12T10:15:39Z</time></trkpt><trkpt lat="42.113814511889544" lon="12.847899039497143"><ele>828.4285714285714</ele><time>2026-04-12T10:15:40Z</time></trkpt><trkpt lat="42.11375623878765" lon="12.847950536629865"><ele>830.7142857142857</ele><time>2026-04-12T10:15:41Z</time></trkpt><trkpt lat="42.113699637633886" lon="12.848024506197433"><ele>833.0</ele><time>2026-04-12T10:15:42Z</time></trkpt><trkpt lat="42.11363296399068" lon="12.848100132319548"><ele>833.0000000000001</ele><time>2026-04-12T10:15:43Z</time></trkpt><trkpt lat="42.11355732443542" lon="12.848166036911387"><ele>833.0</ele><time>2026-04-12T10:15:44Z</time></trkpt><trkpt lat="42.113486770081586" lon="12.848217649366621"><ele>833.0</ele><time>2026-04-12T10:15:45Z</time></trkpt><trkpt lat="42.113381509721954" lon="12.848267375788271"><ele>833.0</ele><time>2026-04-12T10:15:47Z</time></trkpt><trkpt lat="42.11331423259719" lon="12.848291612404878"><ele>833.0000000000001</ele><time>2026-04-12T10:15:48Z</time></trkpt><trkpt lat="42.11324272915971" lon="12.84830154498331"><ele>833.0</ele><time>2026-04-12T10:15:49Z</time></trkpt><trkpt lat="42.1131620014889" lon="12.848313789765292"><ele>832.8333333333334</ele><time>2026-04-12T10:15:50Z</time></trkpt><trkpt lat="42.11308732192589" lon="12.848337391218292"><ele>832.6666666666667</ele><time>2026-04-12T10:15:51Z</time></trkpt><trkpt lat="42.11302188607599" lon="12.84837156717731"><ele>832.5</ele><time>2026-04-12T10:15:52Z</time></trkpt><trkpt lat="42.112943833273505" lon="12.848423685164969"><ele>832.3333333333333</ele><time>2026-04-12T10:15:53Z</time></trkpt><trkpt lat="42.11285941987548" lon="12.848481064264691"><ele>832.1666666666666</ele><time>2026-04-12T10:15:54Z</time></trkpt><trkpt lat="42.1127757839435" lon="12.848539372521879"><ele>832.0</ele><time>2026-04-12T10:15:55Z</time></trkpt><trkpt lat="42.11270947817143" lon="12.848583653361278"><ele>831.9999999999999</ele><time>2026-04-12T10:15:56Z</time></trkpt><trkpt lat="42.11264875430723" lon="12.848622117260911"><ele>832.0</ele><time>2026-04-12T10:15:57Z</time></trkpt><trkpt lat="42.112528744641935" lon="12.848665995525199"><ele>832.0</ele><time>2026-04-12T10:15:59Z</time></trkpt><trkpt lat="42.11247030531688" lon="12.848708052769288"><ele>832.0</ele><time>2026-04-12T10:16:00Z</time></trkpt><trkpt lat="42.11241855546494" lon="12.848772728393167"><ele>831.9999999999999</ele><time>2026-04-12T10:16:01Z</time></trkpt><trkpt lat="42.11238002698922" lon="12.848853250930478"><ele>832.0</ele><time>2026-04-12T10:16:02Z</time></trkpt><trkpt lat="42.11233147109819" lon="12.848940855810316"><ele>833.9999999999999</ele><time>2026-04-12T10:16:03Z</time></trkpt><trkpt lat="42.11228585315755" lon="12.849014044228003"><ele>836.0</ele><time>2026-04-12T10:16:04Z</time></trkpt><trkpt lat="42.11221396778634" lon="12.849153127314246"><ele>838.0</ele><time>2026-04-12T10:16:06Z</time></trkpt><trkpt lat="42.112183986281025" lon="12.849251075165876"><ele>840.0</ele><time>2026-04-12T10:16:07Z</time></trkpt><trkpt lat="42.112153573456936" lon="12.849350726699205"><ele>841.9999999999999</ele><time>2026-04-12T10:16:08Z</time></trkpt><trkpt lat="42.1121174077952" lon="12.849436225785542"><ele>844.0</ele><time>2026-04-12T10:16:09Z</time></trkpt><trkpt lat="42.11206602496735" lon="12.849503570960259"><ele>843.9999999999999</ele><time>2026-04-12T10:16:10Z</time></trkpt><trkpt lat="42.11200205717747" lon="12.849562788890998"><ele>844.0</ele><time>2026-04-12T10:16:11Z</time></trkpt><trkpt lat="42.11192913403026" lon="12.849621120384139"><ele>844.0</ele><time>2026-04-12T10:16:12Z</time></trkpt><trkpt lat="42.11185237358117" lon="12.849676997071862"><ele>844.0</ele><time>2026-04-12T10:16:13Z</time></trkpt><trkpt lat="42.111768646822966" lon="12.849741474774554"><ele>843.9999999999999</ele><time>2026-04-12T10:16:14Z</time></trkpt><trkpt lat="42.11169866649239" lon="12.84980452739945"><ele>844.0</ele><time>2026-04-12T10:16:15Z</time></trkpt><trkpt lat="42.11162378502421" lon="12.849866740250041"><ele>845.1666666666666</ele><time>2026-04-12T10:16:16Z</time></trkpt><trkpt lat="42.11154844464611" lon="12.849920247976186"><ele>846.3333333333333</ele><time>2026-04-12T10:16:17Z</time></trkpt><trkpt lat="42.11147250503469" lon="12.849974327158552"><ele>847.5</ele><time>2026-04-12T10:16:18Z</time></trkpt><trkpt lat="42.11139706429866" lon="12.85003433042764"><ele>848.6666666666667</ele><time>2026-04-12T10:16:19Z</time></trkpt><trkpt lat="42.11132718814243" lon="12.85008851254158"><ele>849.8333333333334</ele><time>2026-04-12T10:16:19.999Z</time></trkpt><trkpt lat="42.1112554869777" lon="12.850146072110984"><ele>851.0</ele><time>2026-04-12T10:16:20.999Z</time></trkpt><trkpt lat="42.11119773731359" lon="12.850200034103763"><ele>851.0000000000001</ele><time>2026-04-12T10:16:21.999Z</time></trkpt><trkpt lat="42.11114000045358" lon="12.850241605446051"><ele>851.0</ele><time>2026-04-12T10:16:22.999Z</time></trkpt><trkpt lat="42.11107932067916" lon="12.850278680041841"><ele>851.0</ele><time>2026-04-12T10:16:23.999Z</time></trkpt><trkpt lat="42.1110126246548" lon="12.85030828202236"><ele>851.0</ele><time>2026-04-12T10:16:24.999Z</time></trkpt><trkpt lat="42.11093828028424" lon="12.850325572161804"><ele>851.0000000000001</ele><time>2026-04-12T10:16:25.999Z</time></trkpt><trkpt lat="42.11085101745039" lon="12.850341762420683"><ele>851.0</ele><time>2026-04-12T10:16:26.999Z</time></trkpt><trkpt lat="42.110763197734855" lon="12.850369531256483"><ele>852.1999999999999</ele><time>2026-04-12T10:16:27.999Z</time></trkpt><trkpt lat="42.11067666768387" lon="12.85040806839499"><ele>853.4</ele><time>2026-04-12T10:16:28.999Z</time></trkpt><trkpt lat="42.11058727713129" lon="12.8504542752618"><ele>854.6</ele><time>2026-04-12T10:16:29.999Z</time></trkpt><trkpt lat="42.11050140871727" lon="12.850505282680196"><ele>855.8</ele><time>2026-04-12T10:16:30.999Z</time></trkpt><trkpt lat="42.110407950781266" lon="12.850558100775185"><ele>857.0</ele><time>2026-04-12T10:16:31.999Z</time></trkpt><trkpt lat="42.110310127533495" lon="12.850614618944826"><ele>857.0</ele><time>2026-04-12T10:16:32.999Z</time></trkpt><trkpt lat="42.11021381128312" lon="12.850664242498143"><ele>857.0</ele><time>2026-04-12T10:16:33.999Z</time></trkpt><trkpt lat="42.1101139232987" lon="12.850712809627717"><ele>857.0</ele><time>2026-04-12T10:16:34.999Z</time></trkpt><trkpt lat="42.11002013458675" lon="12.850758655070363"><ele>857.0</ele><time>2026-04-12T10:16:35.999Z</time></trkpt><trkpt lat="42.10993384963723" lon="12.85079759071785"><ele>857.0</ele><time>2026-04-12T10:16:36.999Z</time></trkpt><trkpt lat="42.10985747501921" lon="12.85083105765938"><ele>858.5714285714286</ele><time>2026-04-12T10:16:37.999Z</time></trkpt><trkpt lat="42.10979034476574" lon="12.85086286415243"><ele>860.1428571428571</ele><time>2026-04-12T10:16:38.999Z</time></trkpt><trkpt lat="42.10972230895255" lon="12.85089110070231"><ele>861.7142857142858</ele><time>2026-04-12T10:16:39.999Z</time></trkpt><trkpt lat="42.109654524385896" lon="12.850917007084666"><ele>863.2857142857142</ele><time>2026-04-12T10:16:40.999Z</time></trkpt><trkpt lat="42.10958705204531" lon="12.850941663291637"><ele>864.8571428571429</ele><time>2026-04-12T10:16:41.999Z</time></trkpt><trkpt lat="42.10952617690498" lon="12.850970966997172"><ele>866.4285714285714</ele><time>2026-04-12T10:16:42.999Z</time></trkpt><trkpt lat="42.10946679231807" lon="12.851017555002382"><ele>868.0</ele><time>2026-04-12T10:16:43.999Z</time></trkpt><trkpt lat="42.10941356817456" lon="12.851063541313113"><ele>868.0</ele><time>2026-04-12T10:16:44.999Z</time></trkpt><trkpt lat="42.10932206174436" lon="12.851130860058563"><ele>868.0</ele><time>2026-04-12T10:16:46.999Z</time></trkpt><trkpt lat="42.109300369393004" lon="12.851235608812765"><ele>868.0</ele><time>2026-04-12T10:16:48.999Z</time></trkpt><trkpt lat="42.1093427128259" lon="12.851336679358583"><ele>868.0</ele><time>2026-04-12T10:16:50.999Z</time></trkpt><trkpt lat="42.10943036893578" lon="12.851379737020688"><ele>868.0</ele><time>2026-04-12T10:16:52.999Z</time></trkpt><trkpt lat="42.10955079934438" lon="12.851375319066877"><ele>868.0</ele><time>2026-04-12T10:16:54.999Z</time></trkpt><trkpt lat="42.10965522052392" lon="12.85138680242985"><ele>868.0</ele><time>2026-04-12T10:16:55.999Z</time></trkpt><trkpt lat="42.109751390246515" lon="12.851416581516053"><ele>868.0</ele><time>2026-04-12T10:16:56.999Z</time></trkpt><trkpt lat="42.10982727235202" lon="12.851443419626678"><ele>868.0</ele><time>2026-04-12T10:16:57.999Z</time></trkpt><trkpt lat="42.10989029860417" lon="12.85144888846491"><ele>868.0</ele><time>2026-04-12T10:16:58.999Z</time></trkpt><trkpt lat="42.109994119481904" lon="12.851404098663906"><ele>867.8333333333333</ele><time>2026-04-12T10:17:00.999Z</time></trkpt><trkpt lat="42.11005003615232" lon="12.85136036860005"><ele>867.6666666666666</ele><time>2026-04-12T10:17:01.999Z</time></trkpt><trkpt lat="42.11011058274311" lon="12.851325633465523"><ele>867.5</ele><time>2026-04-12T10:17:02.999Z</time></trkpt><trkpt lat="42.11017794682547" lon="12.851297820693832"><ele>867.3333333333333</ele><time>2026-04-12T10:17:03.999Z</time></trkpt><trkpt lat="42.110254798423405" lon="12.851274028525411"><ele>867.1666666666666</ele><time>2026-04-12T10:17:04.999Z</time></trkpt><trkpt lat="42.110337344575875" lon="12.85124711114719"><ele>867.0</ele><time>2026-04-12T10:17:05.999Z</time></trkpt><trkpt lat="42.11042688594735" lon="12.851215274426176"><ele>867.0</ele><time>2026-04-12T10:17:06.999Z</time></trkpt><trkpt lat="42.110510760004956" lon="12.851186361535962"><ele>867.0</ele><time>2026-04-12T10:17:07.999Z</time></trkpt><trkpt lat="42.11058921978749" lon="12.851154414227775"><ele>867.0</ele><time>2026-04-12T10:17:08.999Z</time></trkpt><trkpt lat="42.11066622480944" lon="12.851120408013871"><ele>867.0</ele><time>2026-04-12T10:17:09.999Z</time></trkpt><trkpt lat="42.11075365035112" lon="12.851084958558214"><ele>867.0</ele><time>2026-04-12T10:17:10.999Z</time></trkpt><trkpt lat="42.11084058204116" lon="12.851056590558931"><ele>867.0</ele><time>2026-04-12T10:17:11.999Z</time></trkpt><trkpt lat="42.11092271268164" lon="12.851031332001856"><ele>867.6666666666666</ele><time>2026-04-12T10:17:12.999Z</time></trkpt><trkpt lat="42.111006649742805" lon="12.85101777540603"><ele>868.3333333333333</ele><time>2026-04-12T10:17:13.999Z</time></trkpt><trkpt lat="42.11107726260239" lon="12.851009638086959"><ele>869.0</ele><time>2026-04-12T10:17:15Z</time></trkpt><trkpt lat="42.111148736623086" lon="12.851006126386762"><ele>869.6666666666666</ele><time>2026-04-12T10:17:16Z</time></trkpt><trkpt lat="42.11122529427795" lon="12.850990484844045"><ele>870.3333333333333</ele><time>2026-04-12T10:17:17Z</time></trkpt><trkpt lat="42.11131361901593" lon="12.850954833955154"><ele>871.0</ele><time>2026-04-12T10:17:18Z</time></trkpt><trkpt lat="42.111407197168674" lon="12.850919914090289"><ele>867.0</ele><time>2026-04-12T10:17:19Z</time></trkpt><trkpt lat="42.11150123656431" lon="12.85088001211174"><ele>862.9999999999999</ele><time>2026-04-12T10:17:20Z</time></trkpt><trkpt lat="42.111588110814" lon="12.850847599384942"><ele>859.0</ele><time>2026-04-12T10:17:21Z</time></trkpt><trkpt lat="42.11167477369572" lon="12.850815169165635"><ele>855.0</ele><time>2026-04-12T10:17:22Z</time></trkpt><trkpt lat="42.11176327096135" lon="12.85079218942567"><ele>851.0</ele><time>2026-04-12T10:17:23Z</time></trkpt><trkpt lat="42.11185065300716" lon="12.850773850470622"><ele>850.1999999999999</ele><time>2026-04-12T10:17:24Z</time></trkpt><trkpt lat="42.11193733268107" lon="12.850752217030008"><ele>849.4</ele><time>2026-04-12T10:17:25Z</time></trkpt><trkpt lat="42.112017304619876" lon="12.850730755073355"><ele>848.6</ele><time>2026-04-12T10:17:26Z</time></trkpt><trkpt lat="42.112090178091094" lon="12.850714401837882"><ele>847.8</ele><time>2026-04-12T10:17:27Z</time></trkpt><trkpt lat="42.11221397022599" lon="12.850681024551728"><ele>847.0</ele><time>2026-04-12T10:17:29Z</time></trkpt><trkpt lat="42.112327099667596" lon="12.850605944058236"><ele>846.9999999999999</ele><time>2026-04-12T10:17:31Z</time></trkpt><trkpt lat="42.11238812763717" lon="12.850558751599475"><ele>847.0</ele><time>2026-04-12T10:17:32Z</time></trkpt><trkpt lat="42.11245396061367" lon="12.850506909135445"><ele>847.0</ele><time>2026-04-12T10:17:33Z</time></trkpt><trkpt lat="42.112529475613655" lon="12.850445947006673"><ele>847.0</ele><time>2026-04-12T10:17:34Z</time></trkpt><trkpt lat="42.11260198501407" lon="12.85039490554782"><ele>846.9999999999999</ele><time>2026-04-12T10:17:35Z</time></trkpt><trkpt lat="42.11267549948267" lon="12.850357200924863"><ele>847.0</ele><time>2026-04-12T10:17:36Z</time></trkpt><trkpt lat="42.11274687683105" lon="12.850337718643312"><ele>845.9999999999999</ele><time>2026-04-12T10:17:37Z</time></trkpt><trkpt lat="42.11282172642204" lon="12.850324289284355"><ele>845.0</ele><time>2026-04-12T10:17:38Z</time></trkpt><trkpt lat="42.11289400936103" lon="12.850321951152642"><ele>844.0</ele><time>2026-04-12T10:17:39Z</time></trkpt><trkpt lat="42.11296835261181" lon="12.850334359465096"><ele>843.0</ele><time>2026-04-12T10:17:40Z</time></trkpt><trkpt lat="42.11304963957186" lon="12.850358145872663"><ele>841.9999999999999</ele><time>2026-04-12T10:17:41Z</time></trkpt><trkpt lat="42.11314291826684" lon="12.850384606121771"><ele>841.0</ele><time>2026-04-12T10:17:42Z</time></trkpt><trkpt lat="42.113241951731816" lon="12.850410836507388"><ele>840.1999999999999</ele><time>2026-04-12T10:17:43Z</time></trkpt><trkpt lat="42.113346003266834" lon="12.850432129871397"><ele>839.4</ele><time>2026-04-12T10:17:44Z</time></trkpt><trkpt lat="42.11345423475567" lon="12.85044481586879"><ele>838.6</ele><time>2026-04-12T10:17:45Z</time></trkpt><trkpt lat="42.113555293736816" lon="12.8504614855643"><ele>837.8</ele><time>2026-04-12T10:17:46Z</time></trkpt><trkpt lat="42.11364337256183" lon="12.850486798807799"><ele>837.0</ele><time>2026-04-12T10:17:47Z</time></trkpt><trkpt lat="42.113725416340245" lon="12.85052774964383"><ele>837.0</ele><time>2026-04-12T10:17:48Z</time></trkpt><trkpt lat="42.11380166242282" lon="12.85057542237884"><ele>837.0</ele><time>2026-04-12T10:17:49Z</time></trkpt><trkpt lat="42.11386864575299" lon="12.850629336724017"><ele>837.0</ele><time>2026-04-12T10:17:50Z</time></trkpt><trkpt lat="42.1139366383894" lon="12.850676863817226"><ele>837.0</ele><time>2026-04-12T10:17:51Z</time></trkpt><trkpt lat="42.11401418889186" lon="12.850711711872465"><ele>837.0</ele><time>2026-04-12T10:17:52Z</time></trkpt><trkpt lat="42.11408940753391" lon="12.85074053024639"><ele>837.0</ele><time>2026-04-12T10:17:53Z</time></trkpt><trkpt lat="42.11415519076703" lon="12.850780601140675"><ele>838.3333333333334</ele><time>2026-04-12T10:17:54Z</time></trkpt><trkpt lat="42.114213039092" lon="12.850828829737242"><ele>839.6666666666667</ele><time>2026-04-12T10:17:55Z</time></trkpt><trkpt lat="42.1142620922141" lon="12.850889034621172"><ele>841.0</ele><time>2026-04-12T10:17:56Z</time></trkpt><trkpt lat="42.11430272212092" lon="12.850964960057867"><ele>842.3333333333334</ele><time>2026-04-12T10:17:57Z</time></trkpt><trkpt lat="42.11432997844945" lon="12.85105605790663"><ele>843.6666666666667</ele><time>2026-04-12T10:17:58Z</time></trkpt><trkpt lat="42.11435528741438" lon="12.851165085659682"><ele>845.0</ele><time>2026-04-12T10:17:59Z</time></trkpt><trkpt lat="42.114390639147445" lon="12.851305402607462"><ele>845.0000000000001</ele><time>2026-04-12T10:18:00Z</time></trkpt><trkpt lat="42.11441747250973" lon="12.851448795814113"><ele>845.0</ele><time>2026-04-12T10:18:01Z</time></trkpt><trkpt lat="42.11443167041884" lon="12.851564579010898"><ele>845.0</ele><time>2026-04-12T10:18:02Z</time></trkpt><trkpt lat="42.1144459081093" lon="12.851659537374474"><ele>845.0</ele><time>2026-04-12T10:18:03Z</time></trkpt><trkpt lat="42.11446688481846" lon="12.85174303997669"><ele>845.0000000000001</ele><time>2026-04-12T10:18:04Z</time></trkpt><trkpt lat="42.11453203427501" lon="12.851870199658734"><ele>845.0</ele><time>2026-04-12T10:18:06Z</time></trkpt><trkpt lat="42.114623549277184" lon="12.851897472023062"><ele>847.3333333333334</ele><time>2026-04-12T10:18:08Z</time></trkpt><trkpt lat="42.11468659671775" lon="12.851890945870805"><ele>849.6666666666667</ele><time>2026-04-12T10:18:09Z</time></trkpt><trkpt lat="42.11476944702443" lon="12.851876137689334"><ele>852.0</ele><time>2026-04-12T10:18:10Z</time></trkpt><trkpt lat="42.11486785504046" lon="12.851858158941853"><ele>854.3333333333333</ele><time>2026-04-12T10:18:11Z</time></trkpt><trkpt lat="42.11495172369512" lon="12.851816362895434"><ele>856.6666666666666</ele><time>2026-04-12T10:18:12Z</time></trkpt><trkpt lat="42.115039061126495" lon="12.851765647140402"><ele>859.0</ele><time>2026-04-12T10:18:13Z</time></trkpt><trkpt lat="42.115127712953395" lon="12.85169956188395"><ele>852.4000000000001</ele><time>2026-04-12T10:18:14Z</time></trkpt><trkpt lat="42.11521712205863" lon="12.851644753788463"><ele>845.8000000000001</ele><time>2026-04-12T10:18:15Z</time></trkpt><trkpt lat="42.11531782046473" lon="12.851612217011866"><ele>839.2</ele><time>2026-04-12T10:18:16Z</time></trkpt><trkpt lat="42.11542311706309" lon="12.851591663406296"><ele>832.5999999999999</ele><time>2026-04-12T10:18:17Z</time></trkpt><trkpt lat="42.11553667469" lon="12.851564120597684"><ele>826.0</ele><time>2026-04-12T10:18:18Z</time></trkpt><trkpt lat="42.115648261219505" lon="12.851535333269243"><ele>827.5999999999999</ele><time>2026-04-12T10:18:19Z</time></trkpt><trkpt lat="42.11574732513229" lon="12.851524125769581"><ele>829.2</ele><time>2026-04-12T10:18:20Z</time></trkpt><trkpt lat="42.11584808504962" lon="12.851530287661937"><ele>830.8</ele><time>2026-04-12T10:18:21Z</time></trkpt><trkpt lat="42.115940873647624" lon="12.851538806344912"><ele>832.4000000000001</ele><time>2026-04-12T10:18:22Z</time></trkpt><trkpt lat="42.11602411943082" lon="12.851557750898147"><ele>834.0</ele><time>2026-04-12T10:18:23Z</time></trkpt><trkpt lat="42.116096542768254" lon="12.851591219367732"><ele>834.0</ele><time>2026-04-12T10:18:24Z</time></trkpt><trkpt lat="42.11615791226783" lon="12.851642994057809"><ele>834.0</ele><time>2026-04-12T10:18:25Z</time></trkpt><trkpt lat="42.11621020800284" lon="12.851714112625466"><ele>834.0</ele><time>2026-04-12T10:18:26Z</time></trkpt><trkpt lat="42.11625403587515" lon="12.851801334732821"><ele>834.0</ele><time>2026-04-12T10:18:27Z</time></trkpt><trkpt lat="42.11628931250155" lon="12.85188762865656"><ele>834.0</ele><time>2026-04-12T10:18:28Z</time></trkpt><trkpt lat="42.116314409530936" lon="12.851976382012062"><ele>834.0</ele><time>2026-04-12T10:18:28.999Z</time></trkpt><trkpt lat="42.11633135774569" lon="12.852080411048645"><ele>834.0</ele><time>2026-04-12T10:18:29.999Z</time></trkpt><trkpt lat="42.11633323688485" lon="12.852192223954347"><ele>839.0</ele><time>2026-04-12T10:18:30.999Z</time></trkpt><trkpt lat="42.1163288621226" lon="12.852320950418381"><ele>844.0</ele><time>2026-04-12T10:18:31.999Z</time></trkpt><trkpt lat="42.11633255196585" lon="12.852455208115872"><ele>849.0000000000001</ele><time>2026-04-12T10:18:32.999Z</time></trkpt><trkpt lat="42.11634825786184" lon="12.852576871229399"><ele>854.0</ele><time>2026-04-12T10:18:33.999Z</time></trkpt><trkpt lat="42.11635845827293" lon="12.852666161944645"><ele>859.0</ele><time>2026-04-12T10:18:34.999Z</time></trkpt><trkpt lat="42.11636235811362" lon="12.852808320326803"><ele>860.8000000000001</ele><time>2026-04-12T10:18:36.999Z</time></trkpt><trkpt lat="42.11635153441189" lon="12.85295823991148"><ele>862.6000000000001</ele><time>2026-04-12T10:18:38.999Z</time></trkpt><trkpt lat="42.11633536896745" lon="12.853042106971355"><ele>864.4</ele><time>2026-04-12T10:18:39.999Z</time></trkpt><trkpt lat="42.11636265722782" lon="12.853151013569473"><ele>866.2</ele><time>2026-04-12T10:18:41.999Z</time></trkpt><trkpt lat="42.11644984366801" lon="12.853231521383623"><ele>868.0</ele><time>2026-04-12T10:18:43.999Z</time></trkpt><trkpt lat="42.1165616330767" lon="12.853272892644767"><ele>863.4</ele><time>2026-04-12T10:18:45.999Z</time></trkpt><trkpt lat="42.116681644665555" lon="12.853312409344182"><ele>858.8</ele><time>2026-04-12T10:18:47.999Z</time></trkpt><trkpt lat="42.11679259259262" lon="12.853351529354894"><ele>854.2</ele><time>2026-04-12T10:18:49.999Z</time></trkpt><trkpt lat="42.11690243148015" lon="12.853384039081627"><ele>849.6</ele><time>2026-04-12T10:18:51.999Z</time></trkpt><trkpt lat="42.11697067363281" lon="12.853385396044622"><ele>845.0</ele><time>2026-04-12T10:18:52.999Z</time></trkpt><trkpt lat="42.11706321902034" lon="12.85338118952608"><ele>845.0</ele><time>2026-04-12T10:18:53.999Z</time></trkpt><trkpt lat="42.117180289921876" lon="12.853359568582581"><ele>845.0</ele><time>2026-04-12T10:18:54.999Z</time></trkpt><trkpt lat="42.117302832048935" lon="12.853336192848072"><ele>845.0</ele><time>2026-04-12T10:18:55.999Z</time></trkpt><trkpt lat="42.117424909614805" lon="12.853308546007996"><ele>845.0</ele><time>2026-04-12T10:18:56.999Z</time></trkpt><trkpt lat="42.117545266277084" lon="12.853273817912648"><ele>845.0</ele><time>2026-04-12T10:18:57.999Z</time></trkpt><trkpt lat="42.11766836581631" lon="12.853235560079346"><ele>845.0</ele><time>2026-04-12T10:18:58.999Z</time></trkpt><trkpt lat="42.11778451314204" lon="12.853195570015052"><ele>845.0</ele><time>2026-04-12T10:18:59.999Z</time></trkpt><trkpt lat="42.11788499252288" lon="12.853162610656314"><ele>845.0</ele><time>2026-04-12T10:19:00.999Z</time></trkpt><trkpt lat="42.11797862957413" lon="12.853133600384485"><ele>845.0</ele><time>2026-04-12T10:19:01.999Z</time></trkpt><trkpt lat="42.11805958230134" lon="12.853109412762253"><ele>845.0000000000001</ele><time>2026-04-12T10:19:02.999Z</time></trkpt><trkpt lat="42.11814130364725" lon="12.853088355409815"><ele>845.0</ele><time>2026-04-12T10:19:03.999Z</time></trkpt><trkpt lat="42.11822902011005" lon="12.853073390775027"><ele>845.0</ele><time>2026-04-12T10:19:04.999Z</time></trkpt><trkpt lat="42.11830832888787" lon="12.853070890566979"><ele>845.0</ele><time>2026-04-12T10:19:05.999Z</time></trkpt><trkpt lat="42.1183930100978" lon="12.853073162091214"><ele>845.0000000000001</ele><time>2026-04-12T10:19:06.999Z</time></trkpt><trkpt lat="42.118467018401155" lon="12.853087877598776"><ele>845.0</ele><time>2026-04-12T10:19:07.999Z</time></trkpt><trkpt lat="42.118543644663816" lon="12.853117012603832"><ele>846.5000000000001</ele><time>2026-04-12T10:19:08.999Z</time></trkpt><trkpt lat="42.11861157919847" lon="12.853158187308846"><ele>848.0</ele><time>2026-04-12T10:19:09.999Z</time></trkpt><trkpt lat="42.118665390853124" lon="12.853220695116368"><ele>849.5</ele><time>2026-04-12T10:19:10.999Z</time></trkpt><trkpt lat="42.11871962625837" lon="12.85330664505174"><ele>851.0</ele><time>2026-04-12T10:19:11.999Z</time></trkpt><trkpt lat="42.118790655117444" lon="12.853426735120909"><ele>852.5000000000001</ele><time>2026-04-12T10:19:12.999Z</time></trkpt><trkpt lat="42.118861422181205" lon="12.853519254193536"><ele>854.0</ele><time>2026-04-12T10:19:13.999Z</time></trkpt><trkpt lat="42.118939231545056" lon="12.853595287930991"><ele>858.2</ele><time>2026-04-12T10:19:14.999Z</time></trkpt><trkpt lat="42.119034957640736" lon="12.85366315559453"><ele>862.4000000000001</ele><time>2026-04-12T10:19:15.999Z</time></trkpt><trkpt lat="42.11915996590047" lon="12.853740140770233"><ele>866.6</ele><time>2026-04-12T10:19:16.999Z</time></trkpt><trkpt lat="42.11926207839555" lon="12.85381252074232"><ele>870.8</ele><time>2026-04-12T10:19:17.999Z</time></trkpt><trkpt lat="42.119336101068875" lon="12.853872143152635"><ele>875.0</ele><time>2026-04-12T10:19:18.999Z</time></trkpt><trkpt lat="42.11939808132685" lon="12.85391059374049"><ele>875.0000000000001</ele><time>2026-04-12T10:19:19.999Z</time></trkpt><trkpt lat="42.11946273271891" lon="12.85392100602772"><ele>875.0</ele><time>2026-04-12T10:19:21.001Z</time></trkpt><trkpt lat="42.119541797063356" lon="12.85391764115077"><ele>875.0</ele><time>2026-04-12T10:19:22.001Z</time></trkpt><trkpt lat="42.119633569819" lon="12.853886983724426"><ele>875.0</ele><time>2026-04-12T10:19:23.001Z</time></trkpt><trkpt lat="42.11973984804432" lon="12.853850866076183"><ele>875.0000000000001</ele><time>2026-04-12T10:19:24.001Z</time></trkpt><trkpt lat="42.11982839187105" lon="12.85383464680316"><ele>875.0</ele><time>2026-04-12T10:19:25.001Z</time></trkpt><trkpt lat="42.1199142717195" lon="12.853832429621601"><ele>873.2</ele><time>2026-04-12T10:19:26.001Z</time></trkpt><trkpt lat="42.11998563799019" lon="12.853847266845964"><ele>871.4</ele><time>2026-04-12T10:19:27.001Z</time></trkpt><trkpt lat="42.12005672026299" lon="12.853873373147206"><ele>869.5999999999999</ele><time>2026-04-12T10:19:28.001Z</time></trkpt><trkpt lat="42.12014754284367" lon="12.853923592720744"><ele>867.8</ele><time>2026-04-12T10:19:29.001Z</time></trkpt><trkpt lat="42.12026363401407" lon="12.853987798808157"><ele>866.0</ele><time>2026-04-12T10:19:30.001Z</time></trkpt><trkpt lat="42.120365114663535" lon="12.854039699684229"><ele>866.0000000000001</ele><time>2026-04-12T10:19:31.001Z</time></trkpt><trkpt lat="42.120448506014235" lon="12.854071646273878"><ele>866.0</ele><time>2026-04-12T10:19:32.001Z</time></trkpt><trkpt lat="42.1205280733632" lon="12.854080329795623"><ele>866.0</ele><time>2026-04-12T10:19:33.001Z</time></trkpt><trkpt lat="42.120618854285766" lon="12.854080568445246"><ele>866.0</ele><time>2026-04-12T10:19:34.001Z</time></trkpt><trkpt lat="42.12070369753015" lon="12.854073648354275"><ele>866.0000000000001</ele><time>2026-04-12T10:19:35.001Z</time></trkpt><trkpt lat="42.120783576261786" lon="12.854049943630379"><ele>866.0</ele><time>2026-04-12T10:19:36.001Z</time></trkpt><trkpt lat="42.12085220515349" lon="12.854006763733162"><ele>865.8333333333334</ele><time>2026-04-12T10:19:37.001Z</time></trkpt><trkpt lat="42.12092138748841" lon="12.853949765615491"><ele>865.6666666666667</ele><time>2026-04-12T10:19:38Z</time></trkpt><trkpt lat="42.12099340650534" lon="12.853884841464698"><ele>865.5</ele><time>2026-04-12T10:19:39Z</time></trkpt><trkpt lat="42.121066665924275" lon="12.853813271580394"><ele>865.3333333333333</ele><time>2026-04-12T10:19:40Z</time></trkpt><trkpt lat="42.12113507885662" lon="12.853741127358534"><ele>865.1666666666666</ele><time>2026-04-12T10:19:41Z</time></trkpt><trkpt lat="42.121195017384196" lon="12.853673768034998"><ele>865.0</ele><time>2026-04-12T10:19:42Z</time></trkpt><trkpt lat="42.12124714620063" lon="12.853607493653113"><ele>864.9999999999999</ele><time>2026-04-12T10:19:43Z</time></trkpt><trkpt lat="42.12130638570154" lon="12.853546050676519"><ele>865.0</ele><time>2026-04-12T10:19:44Z</time></trkpt><trkpt lat="42.121368827560026" lon="12.853489444232672"><ele>865.0</ele><time>2026-04-12T10:19:45Z</time></trkpt><trkpt lat="42.1214406370257" lon="12.853439924016577"><ele>865.0</ele><time>2026-04-12T10:19:46Z</time></trkpt><trkpt lat="42.12151583257676" lon="12.853388653837051"><ele>864.9999999999999</ele><time>2026-04-12T10:19:47Z</time></trkpt><trkpt lat="42.121602359742525" lon="12.853330977192583"><ele>865.0</ele><time>2026-04-12T10:19:48Z</time></trkpt><trkpt lat="42.12169057655812" lon="12.853276913231417"><ele>863.6666666666666</ele><time>2026-04-12T10:19:49Z</time></trkpt><trkpt lat="42.12177994668293" lon="12.853229485199945"><ele>862.3333333333333</ele><time>2026-04-12T10:19:50Z</time></trkpt><trkpt lat="42.12186180435468" lon="12.853184834703441"><ele>861.0</ele><time>2026-04-12T10:19:51Z</time></trkpt><trkpt lat="42.12193584878655" lon="12.853148206512426"><ele>859.6666666666667</ele><time>2026-04-12T10:19:52Z</time></trkpt><trkpt lat="42.12200134876959" lon="12.853122021314512"><ele>858.3333333333334</ele><time>2026-04-12T10:19:53Z</time></trkpt><trkpt lat="42.12207440579085" lon="12.853117211989602"><ele>857.0</ele><time>2026-04-12T10:19:54Z</time></trkpt><trkpt lat="42.122179701920054" lon="12.853139979878916"><ele>857.0000000000001</ele><time>2026-04-12T10:19:56Z</time></trkpt><trkpt lat="42.122238578512466" lon="12.853172212019821"><ele>857.0</ele><time>2026-04-12T10:19:58Z</time></trkpt><trkpt lat="42.122308662289186" lon="12.853208436515057"><ele>857.0</ele><time>2026-04-12T10:20:01Z</time></trkpt><trkpt lat="42.12238476528476" lon="12.853258937335426"><ele>857.0</ele><time>2026-04-12T10:20:03Z</time></trkpt><trkpt lat="42.12247603578638" lon="12.853286342006818"><ele>857.0000000000001</ele><time>2026-04-12T10:20:05Z</time></trkpt><trkpt lat="42.1225652479879" lon="12.853324785109201"><ele>857.0</ele><time>2026-04-12T10:20:07Z</time></trkpt><trkpt lat="42.12263357809774" lon="12.853339281688944"><ele>859.2</ele><time>2026-04-12T10:20:09Z</time></trkpt><trkpt lat="42.12277364476608" lon="12.853375024977927"><ele>861.4000000000001</ele><time>2026-04-12T10:20:11Z</time></trkpt><trkpt lat="42.12286703104544" lon="12.853401787030005"><ele>863.5999999999999</ele><time>2026-04-12T10:20:12Z</time></trkpt><trkpt lat="42.122956257506225" lon="12.853423849110635"><ele>865.8</ele><time>2026-04-12T10:20:13Z</time></trkpt><trkpt lat="42.123029635928134" lon="12.85343415668924"><ele>868.0</ele><time>2026-04-12T10:20:14Z</time></trkpt><trkpt lat="42.123107930837634" lon="12.853435528502072"><ele>868.0</ele><time>2026-04-12T10:20:15Z</time></trkpt><trkpt lat="42.123190907765895" lon="12.85343178810058"><ele>868.0</ele><time>2026-04-12T10:20:16Z</time></trkpt><trkpt lat="42.12328062006177" lon="12.853418540893488"><ele>868.0</ele><time>2026-04-12T10:20:17Z</time></trkpt><trkpt lat="42.123387838986964" lon="12.853395539345158"><ele>868.0</ele><time>2026-04-12T10:20:18Z</time></trkpt><trkpt lat="42.12349716558268" lon="12.853372039375335"><ele>868.0</ele><time>2026-04-12T10:20:19Z</time></trkpt><trkpt lat="42.123591765072256" lon="12.853349604289036"><ele>869.0</ele><time>2026-04-12T10:20:20Z</time></trkpt><trkpt lat="42.123682971199194" lon="12.853323040098948"><ele>870.0</ele><time>2026-04-12T10:20:21Z</time></trkpt><trkpt lat="42.12377895889051" lon="12.853286819660067"><ele>871.0</ele><time>2026-04-12T10:20:22Z</time></trkpt><trkpt lat="42.1238798839186" lon="12.853235442563017"><ele>872.0</ele><time>2026-04-12T10:20:23Z</time></trkpt><trkpt lat="42.123979738425525" lon="12.85319039151012"><ele>873.0</ele><time>2026-04-12T10:20:24Z</time></trkpt><trkpt lat="42.12406605204681" lon="12.853158593233815"><ele>876.3333333333334</ele><time>2026-04-12T10:20:25Z</time></trkpt><trkpt lat="42.12413921447859" lon="12.85313218850728"><ele>879.6666666666667</ele><time>2026-04-12T10:20:26Z</time></trkpt><trkpt lat="42.124221652910215" lon="12.853089305663147"><ele>883.0</ele><time>2026-04-12T10:20:27Z</time></trkpt><trkpt lat="42.12430610431323" lon="12.853043003216992"><ele>886.3333333333334</ele><time>2026-04-12T10:20:28Z</time></trkpt><trkpt lat="42.124382052511606" lon="12.853007240280506"><ele>889.6666666666667</ele><time>2026-04-12T10:20:29Z</time></trkpt><trkpt lat="42.12445156156228" lon="12.852977758329834"><ele>893.0</ele><time>2026-04-12T10:20:30Z</time></trkpt><trkpt lat="42.124552035575114" lon="12.85293699750367"><ele>893.0000000000001</ele><time>2026-04-12T10:20:32Z</time></trkpt><trkpt lat="42.12462567638646" lon="12.852920276876684"><ele>893.0</ele><time>2026-04-12T10:20:34Z</time></trkpt><trkpt lat="42.12469441281649" lon="12.852900249536953"><ele>893.0</ele><time>2026-04-12T10:20:35Z</time></trkpt><trkpt lat="42.12478601390043" lon="12.852882535751112"><ele>893.0</ele><time>2026-04-12T10:20:35.999Z</time></trkpt><trkpt lat="42.124860765521376" lon="12.852872885219147"><ele>893.0000000000001</ele><time>2026-04-12T10:20:36.999Z</time></trkpt><trkpt lat="42.12492418109667" lon="12.85286613602646"><ele>893.0</ele><time>2026-04-12T10:20:37.999Z</time></trkpt><trkpt lat="42.12238476528476" lon="12.853258937335426"><ele>888.0</ele><time>2026-04-12T10:20:03Z</time></trkpt><trkpt lat="42.12247603578638" lon="12.853286342006818"><ele>883.0</ele><time>2026-04-12T10:20:05Z</time></trkpt><trkpt lat="42.1225652479879" lon="12.853324785109201"><ele>878.0</ele><time>2026-04-12T10:20:07Z</time></trkpt><trkpt lat="42.12263357809774" lon="12.853339281688944"><ele>873.0</ele><time>2026-04-12T10:20:09Z</time></trkpt><trkpt lat="42.12277364476608" lon="12.853375024977927"><ele>868.0</ele><time>2026-04-12T10:20:11Z</time></trkpt><trkpt lat="42.12286703104544" lon="12.853401787030005"><ele>867.9999999999999</ele><time>2026-04-12T10:20:12Z</time></trkpt><trkpt lat="42.122956257506225" lon="12.853423849110635"><ele>868.0</ele><time>2026-04-12T10:20:13Z</time></trkpt><trkpt lat="42.123029635928134" lon="12.85343415668924"><ele>868.0</ele><time>2026-04-12T10:20:14Z</time></trkpt><trkpt lat="42.123107930837634" lon="12.853435528502072"><ele>868.0</ele><time>2026-04-12T10:20:15Z</time></trkpt><trkpt lat="42.123190907765895" lon="12.85343178810058"><ele>867.9999999999999</ele><time>2026-04-12T10:20:16Z</time></trkpt><trkpt lat="42.12328062006177" lon="12.853418540893488"><ele>868.0</ele><time>2026-04-12T10:20:17Z</time></trkpt><trkpt lat="42.123387838986964" lon="12.853395539345158"><ele>869.0</ele><time>2026-04-12T10:20:18Z</time></trkpt><trkpt lat="42.12349716558268" lon="12.853372039375335"><ele>870.0</ele><time>2026-04-12T10:20:19Z</time></trkpt><trkpt lat="42.123591765072256" lon="12.853349604289036"><ele>871.0</ele><time>2026-04-12T10:20:20Z</time></trkpt><trkpt lat="42.123682971199194" lon="12.853323040098948"><ele>872.0</ele><time>2026-04-12T10:20:21Z</time></trkpt><trkpt lat="42.12377895889051" lon="12.853286819660067"><ele>873.0</ele><time>2026-04-12T10:20:22Z</time></trkpt><trkpt lat="42.1238798839186" lon="12.853235442563017"><ele>873.0</ele><time>2026-04-12T10:20:23Z</time></trkpt><trkpt lat="42.123979738425525" lon="12.85319039151012"><ele>873.0</ele><time>2026-04-12T10:20:24Z</time></trkpt><trkpt lat="42.12406605204681" lon="12.853158593233815"><ele>873.0</ele><time>2026-04-12T10:20:25Z</time></trkpt><trkpt lat="42.12413921447859" lon="12.85313218850728"><ele>873.0</ele><time>2026-04-12T10:20:26Z</time></trkpt><trkpt lat="42.124221652910215" lon="12.853089305663147"><ele>873.0</ele><time>2026-04-12T10:20:27Z</time></trkpt><trkpt lat="42.12430610431323" lon="12.853043003216992"><ele>876.3333333333334</ele><time>2026-04-12T10:20:28Z</time></trkpt><trkpt lat="42.124382052511606" lon="12.853007240280506"><ele>879.6666666666667</ele><time>2026-04-12T10:20:29Z</time></trkpt><trkpt lat="42.12445156156228" lon="12.852977758329834"><ele>883.0</ele><time>2026-04-12T10:20:30Z</time></trkpt><trkpt lat="42.124552035575114" lon="12.85293699750367"><ele>886.3333333333334</ele><time>2026-04-12T10:20:32Z</time></trkpt><trkpt lat="42.12462567638646" lon="12.852920276876684"><ele>889.6666666666667</ele><time>2026-04-12T10:20:34Z</time></trkpt><trkpt lat="42.12469441281649" lon="12.852900249536953"><ele>893.0</ele><time>2026-04-12T10:20:35Z</time></trkpt><trkpt lat="42.12478601390043" lon="12.852882535751112"><ele>893.0000000000001</ele><time>2026-04-12T10:20:35.999Z</time></trkpt><trkpt lat="42.124860765521376" lon="12.852872885219147"><ele>893.0</ele><time>2026-04-12T10:20:36.999Z</time></trkpt><trkpt lat="42.12492418109667" lon="12.85286613602646"><ele>893.0</ele><time>2026-04-12T10:20:37.999Z</time></trkpt><trkpt lat="42.12500158289878" lon="12.852862850147003"><ele>893.0</ele><time>2026-04-12T10:20:38.999Z</time></trkpt><trkpt lat="42.12507702486783" lon="12.852875415424869"><ele>893.0000000000001</ele><time>2026-04-12T10:20:39.999Z</time></trkpt><trkpt lat="42.12515208987661" lon="12.852903859055957"><ele>893.0</ele><time>2026-04-12T10:20:40.999Z</time></trkpt><trkpt lat="42.1252300428808" lon="12.852947376667078"><ele>894.1666666666667</ele><time>2026-04-12T10:20:41.999Z</time></trkpt><trkpt lat="42.1252873841509" lon="12.852991171594672"><ele>895.3333333333334</ele><time>2026-04-12T10:20:42.999Z</time></trkpt><trkpt lat="42.12535146158621" lon="12.853024071099068"><ele>896.5</ele><time>2026-04-12T10:20:43.999Z</time></trkpt><trkpt lat="42.12543741645931" lon="12.853038248130408"><ele>897.6666666666667</ele><time>2026-04-12T10:20:44.999Z</time></trkpt><trkpt lat="42.12552830660402" lon="12.853041977139812"><ele>898.8333333333334</ele><time>2026-04-12T10:20:45.999Z</time></trkpt><trkpt lat="42.12563851385065" lon="12.853042978001898"><ele>900.0</ele><time>2026-04-12T10:20:46.999Z</time></trkpt><trkpt lat="42.125737112580964" lon="12.853042052235159"><ele>900.0</ele><time>2026-04-12T10:20:47.999Z</time></trkpt><trkpt lat="42.12581050688301" lon="12.853044189794588"><ele>900.0</ele><time>2026-04-12T10:20:48.999Z</time></trkpt><trkpt lat="42.125922991488174" lon="12.85306220248233"><ele>900.0</ele><time>2026-04-12T10:20:50.999Z</time></trkpt><trkpt lat="42.1260269371817" lon="12.85311711705488"><ele>900.0</ele><time>2026-04-12T10:20:52.999Z</time></trkpt><trkpt lat="42.126112807262835" lon="12.853215957810717"><ele>900.0</ele><time>2026-04-12T10:20:54.999Z</time></trkpt><trkpt lat="42.12613998424763" lon="12.853319179261094"><ele>900.0</ele><time>2026-04-12T10:20:56.999Z</time></trkpt><trkpt lat="42.12613062084629" lon="12.85344547547452"><ele>900.0</ele><time>2026-04-12T10:20:59.999Z</time></trkpt><trkpt lat="42.12610785921538" lon="12.853583324960827"><ele>900.0</ele><time>2026-04-12T10:21:01.999Z</time></trkpt><trkpt lat="42.1260982787403" lon="12.853734469587247"><ele>900.0</ele><time>2026-04-12T10:21:03.999Z</time></trkpt><trkpt lat="42.126122162174696" lon="12.853890209236424"><ele>900.0</ele><time>2026-04-12T10:21:05.999Z</time></trkpt><trkpt lat="42.126120801826076" lon="12.85401263632594"><ele>902.6666666666666</ele><time>2026-04-12T10:21:07.999Z</time></trkpt><trkpt lat="42.126121913584804" lon="12.854156555527815"><ele>905.3333333333333</ele><time>2026-04-12T10:21:09.999Z</time></trkpt><trkpt lat="42.12611203336868" lon="12.854249568248893"><ele>908.0</ele><time>2026-04-12T10:21:10.999Z</time></trkpt><trkpt lat="42.12611171249227" lon="12.854336782999255"><ele>910.6666666666666</ele><time>2026-04-12T10:21:11.999Z</time></trkpt><trkpt lat="42.126116666514626" lon="12.854500839511067"><ele>913.3333333333333</ele><time>2026-04-12T10:21:13.999Z</time></trkpt><trkpt lat="42.12612788948124" lon="12.854598388970317"><ele>916.0</ele><time>2026-04-12T10:21:14.999Z</time></trkpt><trkpt lat="42.12613306335142" lon="12.854687621079025"><ele>915.9999999999999</ele><time>2026-04-12T10:21:15.999Z</time></trkpt><trkpt lat="42.126151360713195" lon="12.854780848640928"><ele>916.0</ele><time>2026-04-12T10:21:16.999Z</time></trkpt><trkpt lat="42.12616972770785" lon="12.854901272853136"><ele>916.0</ele><time>2026-04-12T10:21:18.999Z</time></trkpt><trkpt lat="42.126152567668385" lon="12.855025861811148"><ele>916.0</ele><time>2026-04-12T10:21:21.999Z</time></trkpt><trkpt lat="42.12609127302462" lon="12.855098866727705"><ele>915.9999999999999</ele><time>2026-04-12T10:21:23.999Z</time></trkpt><trkpt lat="42.12601300614802" lon="12.85514812941162"><ele>916.0</ele><time>2026-04-12T10:21:25.999Z</time></trkpt><trkpt lat="42.125893157615955" lon="12.85522295238127"><ele>919.1666666666666</ele><time>2026-04-12T10:21:28.001Z</time></trkpt><trkpt lat="42.125831452566224" lon="12.855281200858535"><ele>922.3333333333333</ele><time>2026-04-12T10:21:29.001Z</time></trkpt><trkpt lat="42.12575424787086" lon="12.855378984368814"><ele>925.5</ele><time>2026-04-12T10:21:31.001Z</time></trkpt><trkpt lat="42.12571486770937" lon="12.855447649949083"><ele>928.6666666666667</ele><time>2026-04-12T10:21:32.001Z</time></trkpt><trkpt lat="42.12566513063464" lon="12.85551041474948"><ele>931.8333333333334</ele><time>2026-04-12T10:21:33.001Z</time></trkpt><trkpt lat="42.12556341422572" lon="12.855623221904137"><ele>935.0</ele><time>2026-04-12T10:21:35.001Z</time></trkpt><trkpt lat="42.12547734699968" lon="12.855722490751628"><ele>935.0</ele><time>2026-04-12T10:21:37Z</time></trkpt><trkpt lat="42.1253961629372" lon="12.855831375221877"><ele>935.0</ele><time>2026-04-12T10:21:39Z</time></trkpt><trkpt lat="42.12533487923195" lon="12.855895120924021"><ele>935.0</ele><time>2026-04-12T10:21:42Z</time></trkpt><trkpt lat="42.125257638814674" lon="12.855993708615358"><ele>935.0</ele><time>2026-04-12T10:21:44Z</time></trkpt><trkpt lat="42.125209556963284" lon="12.85604871099404"><ele>935.0</ele><time>2026-04-12T10:21:45Z</time></trkpt><trkpt lat="42.125100346371916" lon="12.85616734331393"><ele>937.8333333333334</ele><time>2026-04-12T10:21:47Z</time></trkpt><trkpt lat="42.125036069119844" lon="12.856241962220682"><ele>940.6666666666667</ele><time>2026-04-12T10:21:48Z</time></trkpt><trkpt lat="42.12497793178722" lon="12.856314479456074"><ele>943.5</ele><time>2026-04-12T10:21:50Z</time></trkpt><trkpt lat="42.12489781031768" lon="12.856379973775876"><ele>946.3333333333333</ele><time>2026-04-12T10:21:52Z</time></trkpt><trkpt lat="42.124816189080946" lon="12.85642141059527"><ele>949.1666666666666</ele><time>2026-04-12T10:21:54Z</time></trkpt><trkpt lat="42.12475254921024" lon="12.856445464027656"><ele>952.0</ele><time>2026-04-12T10:21:55Z</time></trkpt><trkpt lat="42.12465305007456" lon="12.856501051725155"><ele>952.0</ele><time>2026-04-12T10:21:57Z</time></trkpt><trkpt lat="42.124572534707355" lon="12.85661063542369"><ele>952.0</ele><time>2026-04-12T10:21:59Z</time></trkpt><trkpt lat="42.12450409058757" lon="12.85675713021903"><ele>952.0</ele><time>2026-04-12T10:22:01Z</time></trkpt><trkpt lat="42.12447288283553" lon="12.856884458538126"><ele>952.0</ele><time>2026-04-12T10:22:03Z</time></trkpt><trkpt lat="42.12444036296644" lon="12.856959760345713"><ele>952.0</ele><time>2026-04-12T10:22:04Z</time></trkpt><trkpt lat="42.12436452033109" lon="12.857087914453388"><ele>947.0</ele><time>2026-04-12T10:22:06Z</time></trkpt><trkpt lat="42.124311548891754" lon="12.857180712247665"><ele>942.0</ele><time>2026-04-12T10:22:07Z</time></trkpt><trkpt lat="42.124278874009825" lon="12.857254444338674"><ele>937.0</ele><time>2026-04-12T10:22:08Z</time></trkpt><trkpt lat="42.12421089302626" lon="12.857392398122192"><ele>932.0</ele><time>2026-04-12T10:22:10Z</time></trkpt><trkpt lat="42.12412699517377" lon="12.857512700866693"><ele>927.0</ele><time>2026-04-12T10:22:12Z</time></trkpt><trkpt lat="42.12407989552212" lon="12.857569043932566"><ele>932.1666666666666</ele><time>2026-04-12T10:22:13Z</time></trkpt><trkpt lat="42.12401277765538" lon="12.857684315217432"><ele>937.3333333333333</ele><time>2026-04-12T10:22:15Z</time></trkpt><trkpt lat="42.123940467688875" lon="12.85779456061135"><ele>942.5</ele><time>2026-04-12T10:22:17Z</time></trkpt><trkpt lat="42.12388375853946" lon="12.857887517502721"><ele>947.6666666666666</ele><time>2026-04-12T10:22:19Z</time></trkpt><trkpt lat="42.123845017169316" lon="12.857962608491722"><ele>952.8333333333333</ele><time>2026-04-12T10:22:22Z</time></trkpt><trkpt lat="42.123806240164406" lon="12.85804136102917"><ele>958.0</ele><time>2026-04-12T10:22:50.999Z</time></trkpt><trkpt lat="42.12377509628377" lon="12.858141514873914"><ele>958.0</ele><time>2026-04-12T10:22:52.999Z</time></trkpt><trkpt lat="42.1237749068479" lon="12.858257088413199"><ele>958.0</ele><time>2026-04-12T10:22:54.999Z</time></trkpt><trkpt lat="42.12378141448271" lon="12.858401579862718"><ele>958.0</ele><time>2026-04-12T10:22:56.999Z</time></trkpt><trkpt lat="42.12380537415093" lon="12.858518830800962"><ele>958.0</ele><time>2026-04-12T10:22:58.999Z</time></trkpt><trkpt lat="42.12379199182889" lon="12.85862243674392"><ele>958.0</ele><time>2026-04-12T10:23:00.999Z</time></trkpt><trkpt lat="42.12373420244017" lon="12.858754954040686"><ele>955.4</ele><time>2026-04-12T10:23:02.999Z</time></trkpt><trkpt lat="42.12368950125428" lon="12.858859752027305"><ele>952.8</ele><time>2026-04-12T10:23:04.999Z</time></trkpt><trkpt lat="42.1236258507215" lon="12.858969200861418"><ele>950.2</ele><time>2026-04-12T10:23:06.999Z</time></trkpt><trkpt lat="42.1235518231022" lon="12.859081911483523"><ele>947.6</ele><time>2026-04-12T10:23:08.999Z</time></trkpt><trkpt lat="42.12348737017947" lon="12.85917977070682"><ele>945.0</ele><time>2026-04-12T10:23:10.999Z</time></trkpt><trkpt lat="42.12340815948256" lon="12.859309579212482"><ele>944.75</ele><time>2026-04-12T10:23:12.999Z</time></trkpt><trkpt lat="42.12337955300059" lon="12.859453780831462"><ele>944.5</ele><time>2026-04-12T10:23:14.999Z</time></trkpt><trkpt lat="42.12340108298947" lon="12.859610289813553"><ele>944.25</ele><time>2026-04-12T10:23:16.999Z</time></trkpt><trkpt lat="42.123443577591466" lon="12.859762651021436"><ele>944.0</ele><time>2026-04-12T10:23:18.999Z</time></trkpt><trkpt lat="42.12349349389829" lon="12.859913024015594"><ele>944.0000000000001</ele><time>2026-04-12T10:23:20.999Z</time></trkpt><trkpt lat="42.123517267013675" lon="12.860005925934717"><ele>944.0</ele><time>2026-04-12T10:23:21.999Z</time></trkpt><trkpt lat="42.12353588320753" lon="12.86009883834744"><ele>944.0</ele><time>2026-04-12T10:23:22.999Z</time></trkpt><trkpt lat="42.12355181185159" lon="12.86018873171591"><ele>944.0</ele><time>2026-04-12T10:23:23.999Z</time></trkpt><trkpt lat="42.12356987783932" lon="12.860273340687408"><ele>944.0000000000001</ele><time>2026-04-12T10:23:24.999Z</time></trkpt><trkpt lat="42.12361269095963" lon="12.8604238969858"><ele>944.0</ele><time>2026-04-12T10:23:26.999Z</time></trkpt><trkpt lat="42.12363742535457" lon="12.860507018649"><ele>943.8333333333334</ele><time>2026-04-12T10:23:27.999Z</time></trkpt><trkpt lat="42.12366182352473" lon="12.860588177459883"><ele>943.6666666666667</ele><time>2026-04-12T10:23:28.999Z</time></trkpt><trkpt lat="42.12370727084811" lon="12.860727935143455"><ele>943.5</ele><time>2026-04-12T10:23:30.999Z</time></trkpt><trkpt lat="42.123722562434466" lon="12.860811925199343"><ele>943.3333333333333</ele><time>2026-04-12T10:23:31.999Z</time></trkpt><trkpt lat="42.123749662100224" lon="12.860974873123086"><ele>943.1666666666666</ele><time>2026-04-12T10:23:34.001Z</time></trkpt><trkpt lat="42.12376298975" lon="12.861058491081403"><ele>943.0</ele><time>2026-04-12T10:23:35.001Z</time></trkpt><trkpt lat="42.12378000548925" lon="12.86115999239204"><ele>942.9999999999999</ele><time>2026-04-12T10:23:36.001Z</time></trkpt><trkpt lat="42.12378572389385" lon="12.86125814881166"><ele>943.0</ele><time>2026-04-12T10:23:37.001Z</time></trkpt><trkpt lat="42.123790101496105" lon="12.861368560305"><ele>943.0</ele><time>2026-04-12T10:23:38.001Z</time></trkpt><trkpt lat="42.12378531818047" lon="12.861474818313399"><ele>943.0</ele><time>2026-04-12T10:23:39.001Z</time></trkpt><trkpt lat="42.123780233795756" lon="12.861575171336396"><ele>942.9999999999999</ele><time>2026-04-12T10:23:40.001Z</time></trkpt><trkpt lat="42.1237840906706" lon="12.861676242535586"><ele>943.0</ele><time>2026-04-12T10:23:41.001Z</time></trkpt><trkpt lat="42.12380163566225" lon="12.861777537177758"><ele>938.4</ele><time>2026-04-12T10:23:42.001Z</time></trkpt><trkpt lat="42.123818134079876" lon="12.861881621819059"><ele>933.8</ele><time>2026-04-12T10:23:43.001Z</time></trkpt><trkpt lat="42.1238337049038" lon="12.861971421798035"><ele>929.2</ele><time>2026-04-12T10:23:44.001Z</time></trkpt><trkpt lat="42.123874538177525" lon="12.862114843096522"><ele>924.6</ele><time>2026-04-12T10:23:46.001Z</time></trkpt><trkpt lat="42.12389064235369" lon="12.862231409977927"><ele>920.0</ele><time>2026-04-12T10:23:48.001Z</time></trkpt><trkpt lat="42.1238671438791" lon="12.862365338056874"><ele>920.0</ele><time>2026-04-12T10:23:50Z</time></trkpt><trkpt lat="42.12380323691831" lon="12.862474444367734"><ele>920.0</ele><time>2026-04-12T10:23:52Z</time></trkpt><trkpt lat="42.123724625563256" lon="12.862545097317478"><ele>920.0</ele><time>2026-04-12T10:23:54Z</time></trkpt><trkpt lat="42.12364376729679" lon="12.862576094244066"><ele>920.0</ele><time>2026-04-12T10:23:56Z</time></trkpt><trkpt lat="42.12354453678581" lon="12.862609194072819"><ele>920.0</ele><time>2026-04-12T10:23:58Z</time></trkpt><trkpt lat="42.12344872198624" lon="12.862621282392945"><ele>918.8333333333334</ele><time>2026-04-12T10:24:00Z</time></trkpt><trkpt lat="42.123371401849795" lon="12.862635257197208"><ele>917.6666666666667</ele><time>2026-04-12T10:24:03Z</time></trkpt><trkpt lat="42.123288427811815" lon="12.862639381671622"><ele>916.5</ele><time>2026-04-12T10:24:07Z</time></trkpt><trkpt lat="42.12321851761818" lon="12.862635049150994"><ele>915.3333333333333</ele><time>2026-04-12T10:24:10Z</time></trkpt><trkpt lat="42.12313820731889" lon="12.862623719099457"><ele>914.1666666666666</ele><time>2026-04-12T10:24:13Z</time></trkpt><trkpt lat="42.123047658153126" lon="12.862634809905256"><ele>913.0</ele><time>2026-04-12T10:24:16Z</time></trkpt><trkpt lat="42.12298559983878" lon="12.862682921186979"><ele>912.9999999999999</ele><time>2026-04-12T10:24:18Z</time></trkpt><trkpt lat="42.12293143263784" lon="12.862748150323727"><ele>913.0</ele><time>2026-04-12T10:24:21Z</time></trkpt><trkpt lat="42.12288569236184" lon="12.86285219707413"><ele>913.0</ele><time>2026-04-12T10:24:25Z</time></trkpt><trkpt lat="42.12285709056007" lon="12.862955558008304"><ele>913.0</ele><time>2026-04-12T10:24:28Z</time></trkpt><trkpt lat="42.122816913701314" lon="12.863037397864163"><ele>912.9999999999999</ele><time>2026-04-12T10:24:30Z</time></trkpt><trkpt lat="42.1227831268803" lon="12.863135030256291"><ele>913.0</ele><time>2026-04-12T10:24:32Z</time></trkpt><trkpt lat="42.12275166360652" lon="12.863224061362232"><ele>912.9999999999999</ele><time>2026-04-12T10:24:34Z</time></trkpt><trkpt lat="42.122701843919764" lon="12.863347181881563"><ele>913.0</ele><time>2026-04-12T10:24:36Z</time></trkpt><trkpt lat="42.12267357634435" lon="12.863480358970941"><ele>913.0</ele><time>2026-04-12T10:24:38Z</time></trkpt><trkpt lat="42.122640883482234" lon="12.863597581025804"><ele>913.0</ele><time>2026-04-12T10:24:40Z</time></trkpt><trkpt lat="42.12262222949172" lon="12.86368995417069"><ele>912.9999999999999</ele><time>2026-04-12T10:24:42Z</time></trkpt><trkpt lat="42.122604638956744" lon="12.863775512274918"><ele>913.0</ele><time>2026-04-12T10:25:20.999Z</time></trkpt><trkpt lat="42.12258088286634" lon="12.863860836147111"><ele>913.2</ele><time>2026-04-12T10:25:22.999Z</time></trkpt><trkpt lat="42.12254920429427" lon="12.864002549767413"><ele>913.4</ele><time>2026-04-12T10:25:24.999Z</time></trkpt><trkpt lat="42.122468227612984" lon="12.864084990072621"><ele>913.6000000000001</ele><time>2026-04-12T10:25:26.999Z</time></trkpt><trkpt lat="42.12235738482721" lon="12.86413346928452"><ele>913.8000000000001</ele><time>2026-04-12T10:25:28.999Z</time></trkpt><trkpt lat="42.12228793516959" lon="12.8641618338053"><ele>914.0</ele><time>2026-04-12T10:25:29.999Z</time></trkpt><trkpt lat="42.122223628285866" lon="12.864190922898812"><ele>914.0</ele><time>2026-04-12T10:25:30.999Z</time></trkpt><trkpt lat="42.12214004553265" lon="12.864268478778667"><ele>914.0000000000001</ele><time>2026-04-12T10:25:32.999Z</time></trkpt><trkpt lat="42.12205363916118" lon="12.86435713544771"><ele>914.0000000000001</ele><time>2026-04-12T10:25:34.999Z</time></trkpt><trkpt lat="42.121963607015786" lon="12.8645049932521"><ele>914.0</ele><time>2026-04-12T10:25:36.999Z</time></trkpt><trkpt lat="42.12191816519723" lon="12.864598856342282"><ele>914.0</ele><time>2026-04-12T10:25:37.999Z</time></trkpt><trkpt lat="42.12187804631342" lon="12.864683100417336"><ele>912.0000000000001</ele><time>2026-04-12T10:25:39.001Z</time></trkpt><trkpt lat="42.121827887310445" lon="12.864754647144402"><ele>910.0</ele><time>2026-04-12T10:25:40.001Z</time></trkpt><trkpt lat="42.121772239007555" lon="12.864812047125058"><ele>908.0</ele><time>2026-04-12T10:25:41.001Z</time></trkpt><trkpt lat="42.1217085586741" lon="12.864871745573103"><ele>906.0</ele><time>2026-04-12T10:25:42.001Z</time></trkpt><trkpt lat="42.121639753039496" lon="12.864923679550474"><ele>904.0000000000001</ele><time>2026-04-12T10:25:43.001Z</time></trkpt><trkpt lat="42.12157244003203" lon="12.865011084911917"><ele>902.0</ele><time>2026-04-12T10:25:45.001Z</time></trkpt><trkpt lat="42.12154381156708" lon="12.865087625342875"><ele>903.8571428571429</ele><time>2026-04-12T10:25:46.001Z</time></trkpt><trkpt lat="42.12151396418011" lon="12.86517881281917"><ele>905.7142857142858</ele><time>2026-04-12T10:25:47.001Z</time></trkpt><trkpt lat="42.12150025992548" lon="12.865283729275186"><ele>907.5714285714287</ele><time>2026-04-12T10:25:48.001Z</time></trkpt><trkpt lat="42.12149902865854" lon="12.86537767428711"><ele>909.4285714285714</ele><time>2026-04-12T10:25:49.001Z</time></trkpt><trkpt lat="42.12150201869292" lon="12.865474576261812"><ele>911.2857142857144</ele><time>2026-04-12T10:25:50.001Z</time></trkpt><trkpt lat="42.121488981919136" lon="12.86557511418487"><ele>913.1428571428572</ele><time>2026-04-12T10:25:52.001Z</time></trkpt><trkpt lat="42.121452551150476" lon="12.86566359464781"><ele>915.0</ele><time>2026-04-12T10:25:57Z</time></trkpt><trkpt lat="42.12144507548807" lon="12.865776173388918"><ele>915.0</ele><time>2026-04-12T10:25:59Z</time></trkpt><trkpt lat="42.12137608278212" lon="12.865900464669279"><ele>915.0</ele><time>2026-04-12T10:26:01Z</time></trkpt><trkpt lat="42.121318988266694" lon="12.865969240810223"><ele>915.0</ele><time>2026-04-12T10:26:02Z</time></trkpt><trkpt lat="42.12126092327901" lon="12.866051917575934"><ele>915.0</ele><time>2026-04-12T10:26:03Z</time></trkpt><trkpt lat="42.121213279454494" lon="12.86612336392306"><ele>915.0</ele><time>2026-04-12T10:26:04Z</time></trkpt><trkpt lat="42.12114496549806" lon="12.866222673762659"><ele>915.0</ele><time>2026-04-12T10:26:06Z</time></trkpt><trkpt lat="42.12110255569399" lon="12.866290983389854"><ele>913.0</ele><time>2026-04-12T10:26:08Z</time></trkpt><trkpt lat="42.121058273137805" lon="12.866378052902117"><ele>911.0</ele><time>2026-04-12T10:26:10Z</time></trkpt><trkpt lat="42.12103492224065" lon="12.866490755728176"><ele>909.0</ele><time>2026-04-12T10:26:12Z</time></trkpt><trkpt lat="42.121062041699645" lon="12.86660590661818"><ele>907.0</ele><time>2026-04-12T10:26:14Z</time></trkpt><trkpt lat="42.12110249346654" lon="12.866745263784761"><ele>905.0</ele><time>2026-04-12T10:26:16Z</time></trkpt><trkpt lat="42.1211313677927" lon="12.866855299585193"><ele>903.2</ele><time>2026-04-12T10:26:18Z</time></trkpt><trkpt lat="42.12115263889464" lon="12.866981796247842"><ele>901.4</ele><time>2026-04-12T10:26:20Z</time></trkpt><trkpt lat="42.12112099709537" lon="12.867116250556542"><ele>899.5999999999999</ele><time>2026-04-12T10:26:22Z</time></trkpt><trkpt lat="42.121015422746076" lon="12.867225820877824"><ele>897.8</ele><time>2026-04-12T10:26:24Z</time></trkpt><trkpt lat="42.12095230220502" lon="12.867278203474916"><ele>896.0</ele><time>2026-04-12T10:26:25Z</time></trkpt><trkpt lat="42.120895946267986" lon="12.867319238848724"><ele>896.0000000000001</ele><time>2026-04-12T10:26:26Z</time></trkpt><trkpt lat="42.120802852086996" lon="12.867418707338413"><ele>896.0</ele><time>2026-04-12T10:26:28Z</time></trkpt><trkpt lat="42.12075855730903" lon="12.867484793511936"><ele>896.0</ele><time>2026-04-12T10:26:29Z</time></trkpt><trkpt lat="42.12071417764143" lon="12.867566079497603"><ele>896.0</ele><time>2026-04-12T10:26:30Z</time></trkpt><trkpt lat="42.12068331862408" lon="12.867659150176141"><ele>896.0000000000001</ele><time>2026-04-12T10:26:31Z</time></trkpt><trkpt lat="42.12067438277429" lon="12.867747824004462"><ele>896.0</ele><time>2026-04-12T10:26:32Z</time></trkpt><trkpt lat="42.12064169519205" lon="12.867885383475972"><ele>897.4</ele><time>2026-04-12T10:26:34Z</time></trkpt><trkpt lat="42.12059837599591" lon="12.867956714676959"><ele>898.8</ele><time>2026-04-12T10:26:36Z</time></trkpt><trkpt lat="42.12054747498529" lon="12.86804113621627"><ele>900.1999999999999</ele><time>2026-04-12T10:26:38Z</time></trkpt><trkpt lat="42.12050351198757" lon="12.868157123305068"><ele>901.5999999999999</ele><time>2026-04-12T10:26:40Z</time></trkpt><trkpt lat="42.120479808388616" lon="12.868278250126298"><ele>903.0</ele><time>2026-04-12T10:26:42Z</time></trkpt><trkpt lat="42.12050938173829" lon="12.868446701249013"><ele>903.0</ele><time>2026-04-12T10:26:44Z</time></trkpt><trkpt lat="42.120530255166706" lon="12.868553988796911"><ele>903.0</ele><time>2026-04-12T10:26:45Z</time></trkpt><trkpt lat="42.12056153412773" lon="12.868651308218642"><ele>903.0</ele><time>2026-04-12T10:26:46Z</time></trkpt><trkpt lat="42.12059977354864" lon="12.868760659382836"><ele>903.0</ele><time>2026-04-12T10:26:47Z</time></trkpt><trkpt lat="42.12062767046895" lon="12.868856123267676"><ele>903.0</ele><time>2026-04-12T10:26:48Z</time></trkpt><trkpt lat="42.12066080753251" lon="12.868998478671882"><ele>903.0</ele><time>2026-04-12T10:26:49.999Z</time></trkpt><trkpt lat="42.120641225949605" lon="12.869130482717953"><ele>903.0</ele><time>2026-04-12T10:26:51.999Z</time></trkpt><trkpt lat="42.12059534021733" lon="12.86927543180519"><ele>903.0</ele><time>2026-04-12T10:26:53.999Z</time></trkpt><trkpt lat="42.12057777642951" lon="12.86940143353525"><ele>903.0</ele><time>2026-04-12T10:26:55.999Z</time></trkpt><trkpt lat="42.12060025763948" lon="12.869492991126057"><ele>903.0</ele><time>2026-04-12T10:26:57.999Z</time></trkpt><trkpt lat="42.12066569331957" lon="12.8695601454537"><ele>903.0</ele><time>2026-04-12T10:26:59.999Z</time></trkpt><trkpt lat="42.1207916110938" lon="12.869598231686046"><ele>899.3333333333334</ele><time>2026-04-12T10:27:01.999Z</time></trkpt><trkpt lat="42.12085384310885" lon="12.869615470820499"><ele>895.6666666666667</ele><time>2026-04-12T10:27:02.999Z</time></trkpt><trkpt lat="42.12094193966136" lon="12.869644572418403"><ele>892.0</ele><time>2026-04-12T10:27:04.999Z</time></trkpt><trkpt lat="42.121001974770905" lon="12.869698993395382"><ele>888.3333333333334</ele><time>2026-04-12T10:27:07.999Z</time></trkpt><trkpt lat="42.121038639934355" lon="12.869792925031392"><ele>884.6666666666667</ele><time>2026-04-12T10:27:11.999Z</time></trkpt><trkpt lat="42.121024572587736" lon="12.869899931113117"><ele>881.0</ele><time>2026-04-12T10:27:13.999Z</time></trkpt><trkpt lat="42.121007143273545" lon="12.869987720380143"><ele>879.8</ele><time>2026-04-12T10:27:15.999Z</time></trkpt><trkpt lat="42.12097719598467" lon="12.870115865769854"><ele>878.5999999999999</ele><time>2026-04-12T10:27:18.999Z</time></trkpt><trkpt lat="42.120924692927424" lon="12.870239730575568"><ele>877.4</ele><time>2026-04-12T10:27:20.999Z</time></trkpt><trkpt lat="42.120886689774906" lon="12.870314892547059"><ele>876.2</ele><time>2026-04-12T10:27:21.999Z</time></trkpt><trkpt lat="42.12084398628385" lon="12.870385181917083"><ele>875.0</ele><time>2026-04-12T10:27:22.999Z</time></trkpt><trkpt lat="42.120763580968784" lon="12.87052576013553"><ele>875.0000000000001</ele><time>2026-04-12T10:27:24.999Z</time></trkpt><trkpt lat="42.12073574179949" lon="12.870602745994104"><ele>875.0</ele><time>2026-04-12T10:27:25.999Z</time></trkpt><trkpt lat="42.12069054111061" lon="12.87070380447062"><ele>875.0</ele><time>2026-04-12T10:27:27.999Z</time></trkpt><trkpt lat="42.12059185839289" lon="12.87078780227693"><ele>875.0</ele><time>2026-04-12T10:27:29.999Z</time></trkpt><trkpt lat="42.12052513159817" lon="12.870846230018733"><ele>875.0000000000001</ele><time>2026-04-12T10:27:30.999Z</time></trkpt><trkpt lat="42.12046930512233" lon="12.870900247883169"><ele>875.0</ele><time>2026-04-12T10:27:31.999Z</time></trkpt><trkpt lat="42.12040142696862" lon="12.87098753057263"><ele>876.7142857142857</ele><time>2026-04-12T10:27:33.999Z</time></trkpt><trkpt lat="42.1203529398076" lon="12.871047061573263"><ele>878.4285714285714</ele><time>2026-04-12T10:27:34.999Z</time></trkpt><trkpt lat="42.12030988869842" lon="12.87112153359822"><ele>880.1428571428571</ele><time>2026-04-12T10:27:35.999Z</time></trkpt><trkpt lat="42.12027776403375" lon="12.871210399908314"><ele>881.8571428571429</ele><time>2026-04-12T10:27:36.999Z</time></trkpt><trkpt lat="42.12024796647901" lon="12.871310901510682"><ele>883.5714285714286</ele><time>2026-04-12T10:27:37.999Z</time></trkpt><trkpt lat="42.12021020077862" lon="12.87140865620922"><ele>885.2857142857142</ele><time>2026-04-12T10:27:38.999Z</time></trkpt><trkpt lat="42.12017384607077" lon="12.871497702323015"><ele>887.0</ele><time>2026-04-12T10:27:39.999Z</time></trkpt><trkpt lat="42.120129498919844" lon="12.87158498274615"><ele>887.0000000000001</ele><time>2026-04-12T10:27:40.999Z</time></trkpt><trkpt lat="42.12008099008716" lon="12.871652790223536"><ele>887.0</ele><time>2026-04-12T10:27:41.999Z</time></trkpt><trkpt lat="42.120026178023565" lon="12.871727557553713"><ele>887.0</ele><time>2026-04-12T10:27:42.999Z</time></trkpt><trkpt lat="42.119970912523804" lon="12.871807265134368"><ele>887.0</ele><time>2026-04-12T10:27:43.999Z</time></trkpt><trkpt lat="42.11991979406532" lon="12.871887068731116"><ele>887.0000000000001</ele><time>2026-04-12T10:27:45.001Z</time></trkpt><trkpt lat="42.119844361705624" lon="12.872023394393029"><ele>887.0</ele><time>2026-04-12T10:27:47.001Z</time></trkpt><trkpt lat="42.119795326178306" lon="12.872144693514906"><ele>888.1666666666667</ele><time>2026-04-12T10:27:49.001Z</time></trkpt><trkpt lat="42.11975877865364" lon="12.87221422858628"><ele>889.3333333333334</ele><time>2026-04-12T10:27:52.001Z</time></trkpt><trkpt lat="42.11971372828386" lon="12.872292234592113"><ele>890.5</ele><time>2026-04-12T10:27:55.001Z</time></trkpt><trkpt lat="42.1196700133538" lon="12.872396402731"><ele>891.6666666666667</ele><time>2026-04-12T10:27:58Z</time></trkpt><trkpt lat="42.11961224321098" lon="12.872496284137698"><ele>892.8333333333334</ele><time>2026-04-12T10:28:01Z</time></trkpt><trkpt lat="42.11958049278673" lon="12.872577245441557"><ele>894.0</ele><time>2026-04-12T10:28:04Z</time></trkpt><trkpt lat="42.1195823254238" lon="12.872671109663587"><ele>893.9999999999999</ele><time>2026-04-12T10:28:22Z</time></trkpt><trkpt lat="42.11964760875181" lon="12.872705323950653"><ele>894.0</ele><time>2026-04-12T10:28:35Z</time></trkpt><trkpt lat="42.1197137162421" lon="12.87273587912158"><ele>894.0</ele><time>2026-04-12T10:28:36Z</time></trkpt><trkpt lat="42.11978197172031" lon="12.872727141752772"><ele>894.0</ele><time>2026-04-12T10:42:52Z</time></trkpt><trkpt lat="42.11983953942948" lon="12.872651603433589"><ele>894.0</ele><time>2026-04-12T10:42:54Z</time></trkpt><trkpt lat="42.119879230656906" lon="12.872556735300478"><ele>893.9999999999999</ele><time>2026-04-12T10:42:56Z</time></trkpt><trkpt lat="42.119910057582274" lon="12.87248207616318"><ele>894.0</ele><time>2026-04-12T10:42:57Z</time></trkpt><trkpt lat="42.11995668616485" lon="12.87238879587581"><ele>893.3333333333334</ele><time>2026-04-12T10:42:59Z</time></trkpt><trkpt lat="42.119997534905885" lon="12.872320931043806"><ele>892.6666666666667</ele><time>2026-04-12T10:43:00.999Z</time></trkpt><trkpt lat="42.120039477063756" lon="12.872238905905782"><ele>892.0</ele><time>2026-04-12T10:43:02.999Z</time></trkpt><trkpt lat="42.120091493237126" lon="12.872156701115562"><ele>891.3333333333334</ele><time>2026-04-12T10:43:04.999Z</time></trkpt><trkpt lat="42.120160460300326" lon="12.872103480466254"><ele>890.6666666666667</ele><time>2026-04-12T10:43:06.999Z</time></trkpt><trkpt lat="42.120224714239676" lon="12.87206672953837"><ele>890.0</ele><time>2026-04-12T10:43:08.999Z</time></trkpt><trkpt lat="42.12029955826066" lon="12.87201653820182"><ele>890.0000000000001</ele><time>2026-04-12T10:43:10.999Z</time></trkpt><trkpt lat="42.12037203778862" lon="12.871942592832074"><ele>890.0</ele><time>2026-04-12T10:43:12.999Z</time></trkpt><trkpt lat="42.12044378219207" lon="12.87182533910717"><ele>890.0</ele><time>2026-04-12T10:43:14.999Z</time></trkpt><trkpt lat="42.12049122186635" lon="12.87174815293238"><ele>890.0</ele><time>2026-04-12T10:43:15.999Z</time></trkpt><trkpt lat="42.12053952154764" lon="12.871670957164122"><ele>890.0000000000001</ele><time>2026-04-12T10:43:16.999Z</time></trkpt><trkpt lat="42.120578953666644" lon="12.871604534289549"><ele>890.0</ele><time>2026-04-12T10:43:17.999Z</time></trkpt><trkpt lat="42.12064515419509" lon="12.871492129958186"><ele>890.1666666666667</ele><time>2026-04-12T10:43:19.999Z</time></trkpt><trkpt lat="42.12069579682589" lon="12.871428275105805"><ele>890.3333333333334</ele><time>2026-04-12T10:43:21.999Z</time></trkpt><trkpt lat="42.12074573270802" lon="12.871347134015197"><ele>890.5</ele><time>2026-04-12T10:43:24.999Z</time></trkpt><trkpt lat="42.1207894530471" lon="12.871258311195866"><ele>890.6666666666667</ele><time>2026-04-12T10:43:26.999Z</time></trkpt><trkpt lat="42.12086109318684" lon="12.871156696366965"><ele>890.8333333333334</ele><time>2026-04-12T10:43:28.999Z</time></trkpt><trkpt lat="42.1209082633547" lon="12.871086747202112"><ele>891.0</ele><time>2026-04-12T10:43:29.999Z</time></trkpt><trkpt lat="42.12099014964712" lon="12.87097956620087"><ele>888.3333333333334</ele><time>2026-04-12T10:43:31.999Z</time></trkpt><trkpt lat="42.12106602030968" lon="12.870899145479411"><ele>885.6666666666667</ele><time>2026-04-12T10:43:33.999Z</time></trkpt><trkpt lat="42.1211673699612" lon="12.870837232403154"><ele>883.0</ele><time>2026-04-12T10:43:35.999Z</time></trkpt><trkpt lat="42.12123030986287" lon="12.870810239180924"><ele>880.3333333333334</ele><time>2026-04-12T10:43:36.999Z</time></trkpt><trkpt lat="42.12129808395288" lon="12.870782601341288"><ele>877.6666666666667</ele><time>2026-04-12T10:43:37.999Z</time></trkpt><trkpt lat="42.12137285856834" lon="12.870759540831791"><ele>875.0</ele><time>2026-04-12T10:43:38.999Z</time></trkpt><trkpt lat="42.12145182685851" lon="12.870732556997696"><ele>875.0000000000001</ele><time>2026-04-12T10:43:39.999Z</time></trkpt><trkpt lat="42.12152648447669" lon="12.87070827618535"><ele>875.0</ele><time>2026-04-12T10:43:40.999Z</time></trkpt><trkpt lat="42.12159400292259" lon="12.870687885726937"><ele>875.0</ele><time>2026-04-12T10:43:41.999Z</time></trkpt><trkpt lat="42.121693428626386" lon="12.870673337182351"><ele>875.0</ele><time>2026-04-12T10:43:43.999Z</time></trkpt><trkpt lat="42.121770501721" lon="12.870680516210296"><ele>875.0000000000001</ele><time>2026-04-12T10:43:45.999Z</time></trkpt><trkpt lat="42.12186392619524" lon="12.870735042913411"><ele>875.0</ele><time>2026-04-12T10:43:47.999Z</time></trkpt><trkpt lat="42.12194229774466" lon="12.870828576899276"><ele>876.2</ele><time>2026-04-12T10:43:49.999Z</time></trkpt><trkpt lat="42.12202757932532" lon="12.870922920795806"><ele>877.4</ele><time>2026-04-12T10:43:51.999Z</time></trkpt><trkpt lat="42.122088402802206" lon="12.871036415691732"><ele>878.5999999999999</ele><time>2026-04-12T10:43:53.999Z</time></trkpt><trkpt lat="42.12215327621091" lon="12.871161935575504"><ele>879.8</ele><time>2026-04-12T10:43:55.999Z</time></trkpt><trkpt lat="42.12221999887391" lon="12.871299148194389"><ele>881.0</ele><time>2026-04-12T10:43:57.999Z</time></trkpt><trkpt lat="42.122269416328685" lon="12.87137106440203"><ele>882.3333333333334</ele><time>2026-04-12T10:43:59.999Z</time></trkpt><trkpt lat="42.122324971414216" lon="12.871430587667925"><ele>883.6666666666667</ele><time>2026-04-12T10:44:11.999Z</time></trkpt><trkpt lat="42.12239698749707" lon="12.87151151481216"><ele>885.0</ele><time>2026-04-12T10:44:13.999Z</time></trkpt><trkpt lat="42.122451823635856" lon="12.871561050923434"><ele>886.3333333333333</ele><time>2026-04-12T10:44:14.999Z</time></trkpt><trkpt lat="42.12250425295351" lon="12.871610635037126"><ele>887.6666666666666</ele><time>2026-04-12T10:44:15.999Z</time></trkpt><trkpt lat="42.12258728688198" lon="12.871699741149506"><ele>889.0</ele><time>2026-04-12T10:44:17.999Z</time></trkpt><trkpt lat="42.12268502993801" lon="12.871799337766866"><ele>894.6666666666666</ele><time>2026-04-12T10:44:19.998Z</time></trkpt><trkpt lat="42.12274238848622" lon="12.87185424938431"><ele>900.3333333333333</ele><time>2026-04-12T10:44:20.998Z</time></trkpt><trkpt lat="42.12284923611661" lon="12.871964113027325"><ele>906.0</ele><time>2026-04-12T10:44:22.998Z</time></trkpt><trkpt lat="42.12290726987693" lon="12.872022497586565"><ele>911.6666666666667</ele><time>2026-04-12T10:44:23.998Z</time></trkpt><trkpt lat="42.12296842873879" lon="12.872077844164282"><ele>917.3333333333334</ele><time>2026-04-12T10:44:24.998Z</time></trkpt><trkpt lat="42.12302737054251" lon="12.872140129058048"><ele>923.0</ele><time>2026-04-12T10:44:25.998Z</time></trkpt><trkpt lat="42.123088241171835" lon="12.87220706076945"><ele>923.0000000000001</ele><time>2026-04-12T10:44:26.998Z</time></trkpt><trkpt lat="42.12314352351235" lon="12.87226460225584"><ele>923.0</ele><time>2026-04-12T10:44:27.998Z</time></trkpt><trkpt lat="42.12322243530183" lon="12.872349704373656"><ele>923.0</ele><time>2026-04-12T10:44:29.999Z</time></trkpt><trkpt lat="42.123288305181674" lon="12.872377372421248"><ele>923.0</ele><time>2026-04-12T10:44:31.999Z</time></trkpt><trkpt lat="42.12338536154198" lon="12.872353437860342"><ele>923.0000000000001</ele><time>2026-04-12T10:44:33.999Z</time></trkpt><trkpt lat="42.12347816204615" lon="12.872352260906"><ele>923.0</ele><time>2026-04-12T10:44:35.999Z</time></trkpt><trkpt lat="42.12353443729098" lon="12.872291202520293"><ele>917.5000000000001</ele><time>2026-04-12T10:44:38.999Z</time></trkpt><trkpt lat="42.12356442444119" lon="12.872202765414354"><ele>912.0</ele><time>2026-04-12T10:44:40.999Z</time></trkpt><trkpt lat="42.12360126950467" lon="12.87206513014259"><ele>906.5</ele><time>2026-04-12T10:44:42.999Z</time></trkpt><trkpt lat="42.123615130282104" lon="12.871980219375246"><ele>901.0</ele><time>2026-04-12T10:44:43.999Z</time></trkpt><trkpt lat="42.1236279257551" lon="12.871890431639994"><ele>895.5000000000001</ele><time>2026-04-12T10:44:44.999Z</time></trkpt><trkpt lat="42.12366136937662" lon="12.871735412032173"><ele>890.0</ele><time>2026-04-12T10:44:46.999Z</time></trkpt><trkpt lat="42.12368711418408" lon="12.871590048518152"><ele>890.0000000000001</ele><time>2026-04-12T10:44:48.999Z</time></trkpt><trkpt lat="42.12371975033331" lon="12.871484423099702"><ele>890.0</ele><time>2026-04-12T10:44:50.999Z</time></trkpt><trkpt lat="42.123805088943136" lon="12.871453020425326"><ele>890.0</ele><time>2026-04-12T10:44:53.999Z</time></trkpt><trkpt lat="42.123857273028975" lon="12.871547599466865"><ele>890.0</ele><time>2026-04-12T10:44:55.999Z</time></trkpt><trkpt lat="42.123876761062576" lon="12.871631867600529"><ele>890.0000000000001</ele><time>2026-04-12T10:44:56.999Z</time></trkpt><trkpt lat="42.12389413263082" lon="12.871721674605663"><ele>890.0</ele><time>2026-04-12T10:44:57.999Z</time></trkpt><trkpt lat="42.12393688714691" lon="12.871876365271854"><ele>890.0000000000001</ele><time>2026-04-12T10:44:59.999Z</time></trkpt><trkpt lat="42.12397562817169" lon="12.871950271320397"><ele>890.0</ele><time>2026-04-12T10:45:00.999Z</time></trkpt><trkpt lat="42.124057210065864" lon="12.872087605638216"><ele>890.0</ele><time>2026-04-12T10:45:02.999Z</time></trkpt><trkpt lat="42.12409589702151" lon="12.872170021292446"><ele>890.0</ele><time>2026-04-12T10:45:03.999Z</time></trkpt><trkpt lat="42.12412174770844" lon="12.872253294277888"><ele>890.0000000000001</ele><time>2026-04-12T10:45:04.999Z</time></trkpt><trkpt lat="42.12415339014539" lon="12.87235890607922"><ele>890.0</ele><time>2026-04-12T10:45:06.999Z</time></trkpt><trkpt lat="42.124164666618924" lon="12.872457589854669"><ele>892.0000000000001</ele><time>2026-04-12T10:45:08.999Z</time></trkpt><trkpt lat="42.12419015080911" lon="12.872550586916876"><ele>894.0</ele><time>2026-04-12T10:45:10.999Z</time></trkpt><trkpt lat="42.12423319903093" lon="12.872675987951158"><ele>896.0</ele><time>2026-04-12T10:45:12.999Z</time></trkpt><trkpt lat="42.124273935238286" lon="12.872756774156974"><ele>898.0</ele><time>2026-04-12T10:45:13.999Z</time></trkpt><trkpt lat="42.124317423550394" lon="12.87283365362061"><ele>900.0000000000001</ele><time>2026-04-12T10:45:14.999Z</time></trkpt><trkpt lat="42.12437119418274" lon="12.8729469525107"><ele>902.0</ele><time>2026-04-12T10:45:16.999Z</time></trkpt><trkpt lat="42.12441572586981" lon="12.873049873413377"><ele>903.1666666666667</ele><time>2026-04-12T10:45:18.999Z</time></trkpt><trkpt lat="42.124420973614264" lon="12.873161152286889"><ele>904.3333333333334</ele><time>2026-04-12T10:45:20.999Z</time></trkpt><trkpt lat="42.12441114250985" lon="12.873254346261374"><ele>905.5</ele><time>2026-04-12T10:45:22.999Z</time></trkpt><trkpt lat="42.124374941689126" lon="12.873325474641243"><ele>906.6666666666667</ele><time>2026-04-12T10:45:24.999Z</time></trkpt><trkpt lat="42.12431432553098" lon="12.873401708607915"><ele>907.8333333333334</ele><time>2026-04-12T10:45:26.999Z</time></trkpt><trkpt lat="42.124243724829505" lon="12.873496099850616"><ele>909.0</ele><time>2026-04-12T10:45:28.999Z</time></trkpt><trkpt lat="42.12419451582806" lon="12.873604171890683"><ele>910.8333333333334</ele><time>2026-04-12T10:45:30.999Z</time></trkpt><trkpt lat="42.12418017055329" lon="12.873697760893986"><ele>912.6666666666667</ele><time>2026-04-12T10:45:32.999Z</time></trkpt><trkpt lat="42.1242027729729" lon="12.873800227889733"><ele>914.5</ele><time>2026-04-12T10:45:34.999Z</time></trkpt><trkpt lat="42.12422558549364" lon="12.873930322135902"><ele>916.3333333333334</ele><time>2026-04-12T10:45:36.999Z</time></trkpt><trkpt lat="42.12425927537678" lon="12.87404474267592"><ele>918.1666666666667</ele><time>2026-04-12T10:45:38.999Z</time></trkpt><trkpt lat="42.12425887126344" lon="12.874143675416702"><ele>920.0</ele><time>2026-04-12T10:45:40.999Z</time></trkpt><trkpt lat="42.124237351011615" lon="12.874252962177565"><ele>922.0</ele><time>2026-04-12T10:45:42.999Z</time></trkpt><trkpt lat="42.12419924688158" lon="12.874364009421235"><ele>924.0</ele><time>2026-04-12T10:45:44.999Z</time></trkpt><trkpt lat="42.12413451166658" lon="12.874489460563282"><ele>926.0</ele><time>2026-04-12T10:45:46.999Z</time></trkpt><trkpt lat="42.124073329295726" lon="12.87461012318888"><ele>928.0</ele><time>2026-04-12T10:45:48.999Z</time></trkpt><trkpt lat="42.12403259009373" lon="12.874705518361099"><ele>930.0</ele><time>2026-04-12T10:45:50.999Z</time></trkpt><trkpt lat="42.12397529086619" lon="12.874829032505076"><ele>930.0</ele><time>2026-04-12T10:45:52.999Z</time></trkpt><trkpt lat="42.1239183042714" lon="12.874964592900868"><ele>930.0</ele><time>2026-04-12T10:45:54.999Z</time></trkpt><trkpt lat="42.12389491649649" lon="12.87511709045231"><ele>930.0</ele><time>2026-04-12T10:45:56.999Z</time></trkpt><trkpt lat="42.12388679341496" lon="12.87524447231098"><ele>930.0</ele><time>2026-04-12T10:45:58.999Z</time></trkpt><trkpt lat="42.12387208379444" lon="12.875380042208478"><ele>930.0</ele><time>2026-04-12T10:46:00.999Z</time></trkpt><trkpt lat="42.123859949788205" lon="12.875549909498899"><ele>931.5</ele><time>2026-04-12T10:46:02.999Z</time></trkpt><trkpt lat="42.12385639037452" lon="12.87563594855208"><ele>933.0</ele><time>2026-04-12T10:46:03.999Z</time></trkpt><trkpt lat="42.123857313117696" lon="12.875721628112125"><ele>934.5</ele><time>2026-04-12T10:46:04.999Z</time></trkpt><trkpt lat="42.12383388091755" lon="12.875884084609735"><ele>936.0</ele><time>2026-04-12T10:46:06.999Z</time></trkpt><trkpt lat="42.12381596456864" lon="12.875969137894845"><ele>937.5</ele><time>2026-04-12T10:46:07.999Z</time></trkpt><trkpt lat="42.123803330743506" lon="12.876058609208046"><ele>939.0</ele><time>2026-04-12T10:46:08.999Z</time></trkpt><trkpt lat="42.12378430266259" lon="12.876215284742312"><ele>940.6666666666666</ele><time>2026-04-12T10:46:10.999Z</time></trkpt><trkpt lat="42.12375723652197" lon="12.876339617117852"><ele>942.3333333333333</ele><time>2026-04-12T10:46:12.999Z</time></trkpt><trkpt lat="42.12374418995028" lon="12.876431726512035"><ele>944.0</ele><time>2026-04-12T10:46:14.999Z</time></trkpt><trkpt lat="42.12373476094055" lon="12.876544481460058"><ele>945.6666666666666</ele><time>2026-04-12T10:46:18.999Z</time></trkpt><trkpt lat="42.123720301484106" lon="12.876641297817509"><ele>947.3333333333333</ele><time>2026-04-12T10:46:20.999Z</time></trkpt><trkpt lat="42.12369315374895" lon="12.876761080753939"><ele>949.0</ele><time>2026-04-12T10:46:22.999Z</time></trkpt><trkpt lat="42.123639604140855" lon="12.876879812434417"><ele>952.4000000000001</ele><time>2026-04-12T10:46:24.999Z</time></trkpt><trkpt lat="42.123585404629445" lon="12.876974719348745"><ele>955.8000000000001</ele><time>2026-04-12T10:46:26.999Z</time></trkpt><trkpt lat="42.123509811335396" lon="12.877082079014068"><ele>959.1999999999999</ele><time>2026-04-12T10:46:28.999Z</time></trkpt><trkpt lat="42.123413417133534" lon="12.877186695031966"><ele>962.5999999999999</ele><time>2026-04-12T10:46:30.999Z</time></trkpt><trkpt lat="42.12332106360249" lon="12.877288167259744"><ele>966.0</ele><time>2026-04-12T10:46:32.998Z</time></trkpt><trkpt lat="42.123273531508886" lon="12.877344664864337"><ele>970.8333333333334</ele><time>2026-04-12T10:46:33.998Z</time></trkpt><trkpt lat="42.12320098356369" lon="12.877452838488354"><ele>975.6666666666667</ele><time>2026-04-12T10:46:35.999Z</time></trkpt><trkpt lat="42.12314250505344" lon="12.877530715781328"><ele>980.5</ele><time>2026-04-12T10:46:37.999Z</time></trkpt><trkpt lat="42.123103015720986" lon="12.877626997176916"><ele>985.3333333333334</ele><time>2026-04-12T10:46:39.999Z</time></trkpt><trkpt lat="42.123097197537156" lon="12.877739229737262"><ele>990.1666666666667</ele><time>2026-04-12T10:46:41.999Z</time></trkpt><trkpt lat="42.12308836317484" lon="12.877864224336461"><ele>995.0</ele><time>2026-04-12T10:46:44Z</time></trkpt><trkpt lat="42.12308827196703" lon="12.877978025495793"><ele>995.2857142857143</ele><time>2026-04-12T10:46:46Z</time></trkpt><trkpt lat="42.123077972559344" lon="12.878080203572315"><ele>995.5714285714284</ele><time>2026-04-12T10:46:49Z</time></trkpt><trkpt lat="42.1230689709696" lon="12.87817680224221"><ele>995.8571428571428</ele><time>2026-04-12T10:47:12Z</time></trkpt><trkpt lat="42.12301893701163" lon="12.878235079085234"><ele>996.1428571428571</ele><time>2026-04-12T10:47:26Z</time></trkpt><trkpt lat="42.12295106370302" lon="12.878292905644894"><ele>996.4285714285713</ele><time>2026-04-12T10:47:38Z</time></trkpt><trkpt lat="42.122910730584366" lon="12.878358413984191"><ele>996.7142857142856</ele><time>2026-04-12T10:47:41Z</time></trkpt><trkpt lat="42.12290088417634" lon="12.878461717521695"><ele>996.9999999999999</ele><time>2026-04-12T10:47:58Z</time></trkpt><trkpt lat="42.12295196199409" lon="12.878402576050934"><ele>997.0</ele><time>2026-04-12T10:57:29.001Z</time></trkpt><trkpt lat="42.12296647918372" lon="12.878310087235969"><ele>997.0</ele><time>2026-04-12T10:57:39.001Z</time></trkpt><trkpt lat="42.12302780506273" lon="12.878241481404793"><ele>997.0</ele><time>2026-04-12T10:58:25Z</time></trkpt><trkpt lat="42.12307276910244" lon="12.878180106611346"><ele>997.0</ele><time>2026-04-12T10:58:38Z</time></trkpt><trkpt lat="42.123077801850535" lon="12.877939095786028"><ele>997.0</ele><time>2026-04-12T10:59:17.001Z</time></trkpt><trkpt lat="42.12308708820439" lon="12.877847915690927"><ele>996.9999999999999</ele><time>2026-04-12T10:59:19.001Z</time></trkpt><trkpt lat="42.12307717985143" lon="12.87774055662236"><ele>997.0</ele><time>2026-04-12T10:59:22.001Z</time></trkpt><trkpt lat="42.1230919490509" lon="12.877638644198361"><ele>997.0</ele><time>2026-04-12T10:59:25.001Z</time></trkpt><trkpt lat="42.123143219765254" lon="12.877547500520034"><ele>997.0</ele><time>2026-04-12T10:59:29.001Z</time></trkpt><trkpt lat="42.1231869869868" lon="12.877483675473275"><ele>996.9999999999999</ele><time>2026-04-12T10:59:32.001Z</time></trkpt><trkpt lat="42.12324980672118" lon="12.877393507583603"><ele>997.0</ele><time>2026-04-12T10:59:35Z</time></trkpt><trkpt lat="42.12329917681995" lon="12.877329975846578"><ele>991.8333333333333</ele><time>2026-04-12T10:59:37Z</time></trkpt><trkpt lat="42.123348904392934" lon="12.87726613994575"><ele>986.6666666666666</ele><time>2026-04-12T10:59:39Z</time></trkpt><trkpt lat="42.123407252209596" lon="12.8772010892484"><ele>981.5</ele><time>2026-04-12T10:59:41Z</time></trkpt><trkpt lat="42.12347184739792" lon="12.87712777764051"><ele>976.3333333333333</ele><time>2026-04-12T10:59:44Z</time></trkpt><trkpt lat="42.12353887808565" lon="12.877044802513076"><ele>971.1666666666666</ele><time>2026-04-12T10:59:47Z</time></trkpt><trkpt lat="42.12359312100225" lon="12.876960481676711"><ele>966.0</ele><time>2026-04-12T10:59:50Z</time></trkpt><trkpt lat="42.123638605546375" lon="12.876879365587723"><ele>966.0</ele><time>2026-04-12T10:59:53Z</time></trkpt><trkpt lat="42.12367870561264" lon="12.87678662352695"><ele>966.0</ele><time>2026-04-12T10:59:56Z</time></trkpt><trkpt lat="42.12370295398576" lon="12.876699719507382"><ele>966.0</ele><time>2026-04-12T10:59:59Z</time></trkpt><trkpt lat="42.12370710253228" lon="12.876611332403634"><ele>966.0</ele><time>2026-04-12T11:00:02Z</time></trkpt><trkpt lat="42.12371757157436" lon="12.876502766687222"><ele>966.0</ele><time>2026-04-12T11:00:06Z</time></trkpt><trkpt lat="42.12372864088137" lon="12.876416183094763"><ele>966.0</ele><time>2026-04-12T11:00:10Z</time></trkpt><trkpt lat="42.12374541362067" lon="12.876319355022202"><ele>966.0</ele><time>2026-04-12T11:00:13Z</time></trkpt><trkpt lat="42.12376472214279" lon="12.876195676531127"><ele>963.5714285714286</ele><time>2026-04-12T11:00:16Z</time></trkpt><trkpt lat="42.12378118755509" lon="12.87611290570047"><ele>961.1428571428571</ele><time>2026-04-12T11:00:18Z</time></trkpt><trkpt lat="42.12378963819859" lon="12.8760192017707"><ele>958.7142857142858</ele><time>2026-04-12T11:00:20Z</time></trkpt><trkpt lat="42.123803751068685" lon="12.875933077342888"><ele>956.2857142857143</ele><time>2026-04-12T11:00:22Z</time></trkpt><trkpt lat="42.12382106453697" lon="12.875842184227656"><ele>953.8571428571429</ele><time>2026-04-12T11:00:24Z</time></trkpt><trkpt lat="42.12383600237551" lon="12.875719691360022"><ele>951.4285714285716</ele><time>2026-04-12T11:00:27Z</time></trkpt><trkpt lat="42.12383430716379" lon="12.875629696139612"><ele>949.0000000000001</ele><time>2026-04-12T11:00:29Z</time></trkpt><trkpt lat="42.12383120092744" lon="12.875501891713638"><ele>947.3333333333333</ele><time>2026-04-12T11:00:32Z</time></trkpt><trkpt lat="42.123847763676714" lon="12.87538061772673"><ele>945.6666666666666</ele><time>2026-04-12T11:00:35Z</time></trkpt><trkpt lat="42.123859552344506" lon="12.87526849349451"><ele>944.0</ele><time>2026-04-12T11:00:38Z</time></trkpt><trkpt lat="42.12385800263939" lon="12.875169544749554"><ele>942.3333333333333</ele><time>2026-04-12T11:00:40.999Z</time></trkpt><trkpt lat="42.123878399105955" lon="12.875082979997345"><ele>940.6666666666666</ele><time>2026-04-12T11:00:42.999Z</time></trkpt><trkpt lat="42.12389874525391" lon="12.874989587614397"><ele>939.0</ele><time>2026-04-12T11:00:44.999Z</time></trkpt><trkpt lat="42.12392653464254" lon="12.874904008479357"><ele>938.3333333333334</ele><time>2026-04-12T11:00:46.999Z</time></trkpt><trkpt lat="42.12397837979822" lon="12.874809621177166"><ele>937.6666666666667</ele><time>2026-04-12T11:00:49.999Z</time></trkpt><trkpt lat="42.124016999437856" lon="12.874722865715317"><ele>937.0</ele><time>2026-04-12T11:00:52.999Z</time></trkpt><trkpt lat="42.12405620254028" lon="12.874634705549434"><ele>936.3333333333334</ele><time>2026-04-12T11:00:57.999Z</time></trkpt><trkpt lat="42.12409260923183" lon="12.874556213535543"><ele>935.6666666666667</ele><time>2026-04-12T11:01:00.999Z</time></trkpt><trkpt lat="42.12414255856011" lon="12.874450345549329"><ele>935.0</ele><time>2026-04-12T11:01:03.999Z</time></trkpt><trkpt lat="42.124181353188526" lon="12.874372286902087"><ele>935.0000000000001</ele><time>2026-04-12T11:01:05.999Z</time></trkpt><trkpt lat="42.12421908508854" lon="12.874280937584196"><ele>935.0</ele><time>2026-04-12T11:01:08.999Z</time></trkpt><trkpt lat="42.12424014595455" lon="12.87418603039717"><ele>935.0</ele><time>2026-04-12T11:01:11.999Z</time></trkpt><trkpt lat="42.124243464928725" lon="12.874067500230435"><ele>935.0</ele><time>2026-04-12T11:01:14.999Z</time></trkpt><trkpt lat="42.124223296144436" lon="12.873961560983405"><ele>935.0000000000001</ele><time>2026-04-12T11:01:18Z</time></trkpt><trkpt lat="42.1241933573006" lon="12.873857197351429"><ele>935.0</ele><time>2026-04-12T11:01:21Z</time></trkpt><trkpt lat="42.12417603535568" lon="12.873759664682968"><ele>932.5000000000001</ele><time>2026-04-12T11:01:24Z</time></trkpt><trkpt lat="42.12417398641903" lon="12.873660923229787"><ele>930.0</ele><time>2026-04-12T11:01:28Z</time></trkpt><trkpt lat="42.124208435317215" lon="12.87357712249477"><ele>927.5</ele><time>2026-04-12T11:01:31Z</time></trkpt><trkpt lat="42.12418472378887" lon="12.873685615655134"><ele>925.0</ele><time>2026-04-12T11:03:59Z</time></trkpt><trkpt lat="42.124197449897906" lon="12.873770398402979"><ele>922.5000000000001</ele><time>2026-04-12T11:04:01Z</time></trkpt><trkpt lat="42.12421504353673" lon="12.873878892926703"><ele>920.0</ele><time>2026-04-12T11:04:03Z</time></trkpt><trkpt lat="42.124246382490824" lon="12.874003199996995"><ele>920.0000000000001</ele><time>2026-04-12T11:04:05Z</time></trkpt><trkpt lat="42.124261340642065" lon="12.874090305134736"><ele>920.0</ele><time>2026-04-12T11:04:07Z</time></trkpt><trkpt lat="42.12424856091338" lon="12.874201223952461"><ele>920.0</ele><time>2026-04-12T11:04:09Z</time></trkpt><trkpt lat="42.12422256324389" lon="12.874301474236484"><ele>920.0</ele><time>2026-04-12T11:04:11Z</time></trkpt><trkpt lat="42.1241799259948" lon="12.874388748823872"><ele>920.0000000000001</ele><time>2026-04-12T11:04:13Z</time></trkpt><trkpt lat="42.12413468461329" lon="12.87447636093906"><ele>920.0</ele><time>2026-04-12T11:04:15Z</time></trkpt><trkpt lat="42.124094999209305" lon="12.874562209409717"><ele>921.6666666666667</ele><time>2026-04-12T11:04:17Z</time></trkpt><trkpt lat="42.124055835263654" lon="12.87464179773834"><ele>923.3333333333334</ele><time>2026-04-12T11:04:19Z</time></trkpt><trkpt lat="42.124017127617996" lon="12.874739067809822"><ele>925.0</ele><time>2026-04-12T11:04:21Z</time></trkpt><trkpt lat="42.12396320211014" lon="12.874842821473424"><ele>926.6666666666667</ele><time>2026-04-12T11:04:23Z</time></trkpt><trkpt lat="42.123921679339134" lon="12.874953139509604"><ele>928.3333333333334</ele><time>2026-04-12T11:04:25Z</time></trkpt><trkpt lat="42.12389954111877" lon="12.87508881839691"><ele>930.0</ele><time>2026-04-12T11:04:27Z</time></trkpt><trkpt lat="42.123889076587076" lon="12.875189982176384"><ele>931.8</ele><time>2026-04-12T11:04:29Z</time></trkpt><trkpt lat="42.1238847325326" lon="12.87528989655106"><ele>933.6</ele><time>2026-04-12T11:04:30.999Z</time></trkpt><trkpt lat="42.12387377148049" lon="12.875413841648516"><ele>935.4000000000001</ele><time>2026-04-12T11:04:32.999Z</time></trkpt><trkpt lat="42.12386290447158" lon="12.875552274959674"><ele>937.2</ele><time>2026-04-12T11:04:34.999Z</time></trkpt><trkpt lat="42.12386244599872" lon="12.875678609938403"><ele>939.0</ele><time>2026-04-12T11:04:36.999Z</time></trkpt><trkpt lat="42.12384988722395" lon="12.87579921919032"><ele>939.0</ele><time>2026-04-12T11:04:38.999Z</time></trkpt><trkpt lat="42.123827044175435" lon="12.875920209398195"><ele>939.0</ele><time>2026-04-12T11:04:40.999Z</time></trkpt><trkpt lat="42.123809814342295" lon="12.876050052460423"><ele>939.0</ele><time>2026-04-12T11:04:42.999Z</time></trkpt><trkpt lat="42.12379377774215" lon="12.876166339953068"><ele>939.0</ele><time>2026-04-12T11:04:44.999Z</time></trkpt><trkpt lat="42.123770168562395" lon="12.876271594517936"><ele>939.0</ele><time>2026-04-12T11:04:46.999Z</time></trkpt><trkpt lat="42.123758513873064" lon="12.876366317392888"><ele>939.0</ele><time>2026-04-12T11:04:48.999Z</time></trkpt><trkpt lat="42.12374153543418" lon="12.876458461215485"><ele>940.6666666666666</ele><time>2026-04-12T11:04:50.999Z</time></trkpt><trkpt lat="42.12372985539651" lon="12.876561323561342"><ele>942.3333333333333</ele><time>2026-04-12T11:04:52.999Z</time></trkpt><trkpt lat="42.123711653111805" lon="12.876659804510888"><ele>944.0</ele><time>2026-04-12T11:04:54.999Z</time></trkpt><trkpt lat="42.12369012842988" lon="12.876749844356127"><ele>945.6666666666666</ele><time>2026-04-12T11:04:56.999Z</time></trkpt><trkpt lat="42.12364907048683" lon="12.876842904564953"><ele>947.3333333333333</ele><time>2026-04-12T11:04:58.999Z</time></trkpt><trkpt lat="42.12358927441849" lon="12.87695170856248"><ele>949.0</ele><time>2026-04-12T11:05:00.999Z</time></trkpt><trkpt lat="42.123525741354776" lon="12.87704872752249"><ele>951.8333333333333</ele><time>2026-04-12T11:05:02.999Z</time></trkpt><trkpt lat="42.12344882002425" lon="12.877133879066486"><ele>954.6666666666666</ele><time>2026-04-12T11:05:04.999Z</time></trkpt><trkpt lat="42.12337290265046" lon="12.877225441264184"><ele>957.5</ele><time>2026-04-12T11:05:06.999Z</time></trkpt><trkpt lat="42.12331139804633" lon="12.877316232981146"><ele>960.3333333333333</ele><time>2026-04-12T11:05:18.999Z</time></trkpt><trkpt lat="42.123258379744726" lon="12.877370855426333"><ele>963.1666666666666</ele><time>2026-04-12T11:05:20.999Z</time></trkpt><trkpt lat="42.12320443818668" lon="12.87745006760282"><ele>966.0</ele><time>2026-04-12T11:05:22.999Z</time></trkpt><trkpt lat="42.12315266062698" lon="12.877526013285564"><ele>970.4285714285714</ele><time>2026-04-12T11:05:24.999Z</time></trkpt><trkpt lat="42.12311059595973" lon="12.87763514406695"><ele>974.8571428571429</ele><time>2026-04-12T11:05:27.999Z</time></trkpt><trkpt lat="42.12311001930239" lon="12.877728342138932"><ele>979.2857142857142</ele><time>2026-04-12T11:05:30Z</time></trkpt><trkpt lat="42.12309910919243" lon="12.877820360717461"><ele>983.7142857142857</ele><time>2026-04-12T11:05:32Z</time></trkpt><trkpt lat="42.12310286362629" lon="12.877906708852947"><ele>988.1428571428571</ele><time>2026-04-12T11:05:34Z</time></trkpt><trkpt lat="42.12309108941978" lon="12.87799029689103"><ele>992.5714285714284</ele><time>2026-04-12T11:05:36Z</time></trkpt><trkpt lat="42.12309843649142" lon="12.87807804572834"><ele>996.9999999999999</ele><time>2026-04-12T11:05:39Z</time></trkpt><trkpt lat="42.12307992081339" lon="12.878163373327773"><ele>996.9999999999999</ele><time>2026-04-12T11:05:56Z</time></trkpt><trkpt lat="42.123016882851005" lon="12.878239208419505"><ele>997.0</ele><time>2026-04-12T11:06:10Z</time></trkpt><trkpt lat="42.1229522239909" lon="12.878300312082533"><ele>997.0</ele><time>2026-04-12T11:06:16Z</time></trkpt><trkpt lat="42.12291403307453" lon="12.878385290528854"><ele>997.0</ele><time>2026-04-12T11:06:18Z</time></trkpt><trkpt lat="42.12289460278061" lon="12.878471482888965"><ele>996.9999999999999</ele><time>2026-04-12T11:06:21Z</time></trkpt><trkpt lat="42.12292280357995" lon="12.878557605482394"><ele>997.0</ele><time>2026-04-12T11:17:21Z</time></trkpt><trkpt lat="42.12290133839138" lon="12.878656919696184"><ele>997.6</ele><time>2026-04-12T11:17:24Z</time></trkpt><trkpt lat="42.12287128608967" lon="12.87874374051734"><ele>998.2</ele><time>2026-04-12T11:17:26Z</time></trkpt><trkpt lat="42.12283292699061" lon="12.878868447224647"><ele>998.8</ele><time>2026-04-12T11:17:28Z</time></trkpt><trkpt lat="42.12279227725916" lon="12.879016935479749"><ele>999.4</ele><time>2026-04-12T11:17:30Z</time></trkpt><trkpt lat="42.12275626960437" lon="12.879154565746612"><ele>1000.0</ele><time>2026-04-12T11:17:32Z</time></trkpt><trkpt lat="42.12273031728075" lon="12.87929657270054"><ele>1000.2</ele><time>2026-04-12T11:17:34Z</time></trkpt><trkpt lat="42.12270181046053" lon="12.879429964588606"><ele>1000.4</ele><time>2026-04-12T11:17:36Z</time></trkpt><trkpt lat="42.122681604381675" lon="12.87952190131748"><ele>1000.5999999999999</ele><time>2026-04-12T11:17:38Z</time></trkpt><trkpt lat="42.12266870409919" lon="12.879633408688163"><ele>1000.8</ele><time>2026-04-12T11:17:39.999Z</time></trkpt><trkpt lat="42.122657485027744" lon="12.879792328275952"><ele>1001.0</ele><time>2026-04-12T11:17:41.999Z</time></trkpt><trkpt lat="42.122672795688196" lon="12.879925489523815"><ele>1001.0</ele><time>2026-04-12T11:17:43.999Z</time></trkpt><trkpt lat="42.122672127700234" lon="12.880078941093903"><ele>1000.9999999999999</ele><time>2026-04-12T11:17:45.999Z</time></trkpt><trkpt lat="42.12264141241884" lon="12.880220156413"><ele>1000.9999999999999</ele><time>2026-04-12T11:17:47.999Z</time></trkpt><trkpt lat="42.1226123950303" lon="12.880322964657115"><ele>1001.0</ele><time>2026-04-12T11:17:49.999Z</time></trkpt><trkpt lat="42.12257530326039" lon="12.880431673860654"><ele>1001.0</ele><time>2026-04-12T11:18:09.001Z</time></trkpt><trkpt lat="42.12255308418019" lon="12.880567417025734"><ele>1001.1666666666667</ele><time>2026-04-12T11:18:11.001Z</time></trkpt><trkpt lat="42.12254543201064" lon="12.88065382966374"><ele>1001.3333333333334</ele><time>2026-04-12T11:18:12.001Z</time></trkpt><trkpt lat="42.12254989545506" lon="12.880818263204457"><ele>1001.5</ele><time>2026-04-12T11:18:14.001Z</time></trkpt><trkpt lat="42.122558244044164" lon="12.880930327195722"><ele>1001.6666666666667</ele><time>2026-04-12T11:18:16.001Z</time></trkpt><trkpt lat="42.12254341034171" lon="12.881043425048844"><ele>1001.8333333333334</ele><time>2026-04-12T11:18:19.001Z</time></trkpt><trkpt lat="42.12252330934513" lon="12.881125391458399"><ele>1002.0</ele><time>2026-04-12T11:18:21.001Z</time></trkpt><trkpt lat="42.12248963909592" lon="12.881231180457325"><ele>1002.0</ele><time>2026-04-12T11:18:23.001Z</time></trkpt><trkpt lat="42.122423760714355" lon="12.881370929149691"><ele>1002.0</ele><time>2026-04-12T11:18:25.001Z</time></trkpt><trkpt lat="42.12238250231027" lon="12.881439854223775"><ele>1002.0</ele><time>2026-04-12T11:18:26.001Z</time></trkpt><trkpt lat="42.12233157861917" lon="12.881502103445856"><ele>1002.0</ele><time>2026-04-12T11:18:27.001Z</time></trkpt><trkpt lat="42.12227832157566" lon="12.88155917959257"><ele>1002.0</ele><time>2026-04-12T11:18:28.001Z</time></trkpt><trkpt lat="42.12222139381057" lon="12.88162365768902"><ele>1002.0</ele><time>2026-04-12T11:18:29.001Z</time></trkpt><trkpt lat="42.122153088441586" lon="12.881688342557489"><ele>1004.0</ele><time>2026-04-12T11:18:30.001Z</time></trkpt><trkpt lat="42.12209110949002" lon="12.881750280596538"><ele>1006.0</ele><time>2026-04-12T11:18:31.001Z</time></trkpt><trkpt lat="42.122032044643674" lon="12.881820032051396"><ele>1008.0</ele><time>2026-04-12T11:18:32.001Z</time></trkpt><trkpt lat="42.121980127906795" lon="12.881908350364862"><ele>1010.0</ele><time>2026-04-12T11:18:33.001Z</time></trkpt><trkpt lat="42.12194675263415" lon="12.882001894548704"><ele>1012.0</ele><time>2026-04-12T11:18:34Z</time></trkpt><trkpt lat="42.12191092584504" lon="12.882112454204577"><ele>1014.0</ele><time>2026-04-12T11:18:35Z</time></trkpt><trkpt lat="42.121872170217515" lon="12.88222163645182"><ele>1014.0</ele><time>2026-04-12T11:18:36Z</time></trkpt><trkpt lat="42.121833553074154" lon="12.882317086687891"><ele>1014.0</ele><time>2026-04-12T11:18:37Z</time></trkpt><trkpt lat="42.121795443109484" lon="12.88239119631512"><ele>1014.0</ele><time>2026-04-12T11:18:38Z</time></trkpt><trkpt lat="42.12174894497679" lon="12.88246896579778"><ele>1014.0</ele><time>2026-04-12T11:18:39Z</time></trkpt><trkpt lat="42.12169724347584" lon="12.882545763645341"><ele>1014.0</ele><time>2026-04-12T11:18:40Z</time></trkpt><trkpt lat="42.12165493462715" lon="12.88261658271921"><ele>1014.0</ele><time>2026-04-12T11:18:41Z</time></trkpt><trkpt lat="42.12161992027385" lon="12.88268789456486"><ele>1014.0</ele><time>2026-04-12T11:18:42Z</time></trkpt><trkpt lat="42.12158809671078" lon="12.882762796110464"><ele>1015.3333333333334</ele><time>2026-04-12T11:18:43Z</time></trkpt><trkpt lat="42.121569917596524" lon="12.882856897658648"><ele>1016.6666666666667</ele><time>2026-04-12T11:18:45Z</time></trkpt><trkpt lat="42.12155472058937" lon="12.882993393063687"><ele>1018.0</ele><time>2026-04-12T11:18:48Z</time></trkpt><trkpt lat="42.12155487559382" lon="12.883090329428848"><ele>1019.3333333333334</ele><time>2026-04-12T11:18:50Z</time></trkpt><trkpt lat="42.121529433160525" lon="12.883169198941125"><ele>1020.6666666666667</ele><time>2026-04-12T11:19:29.999Z</time></trkpt><trkpt lat="42.121471211929915" lon="12.883262497770508"><ele>1022.0</ele><time>2026-04-12T11:19:31.999Z</time></trkpt><trkpt lat="42.121404530927336" lon="12.883367549560868"><ele>1022.6666666666667</ele><time>2026-04-12T11:19:33.999Z</time></trkpt><trkpt lat="42.12133690008641" lon="12.883491719654934"><ele>1023.3333333333334</ele><time>2026-04-12T11:19:35.999Z</time></trkpt><trkpt lat="42.12129675189139" lon="12.88355774300268"><ele>1024.0</ele><time>2026-04-12T11:19:36.999Z</time></trkpt><trkpt lat="42.12125026247339" lon="12.883623367025315"><ele>1024.6666666666667</ele><time>2026-04-12T11:19:37.999Z</time></trkpt><trkpt lat="42.12120079461426" lon="12.883685071352035"><ele>1025.3333333333333</ele><time>2026-04-12T11:19:38.999Z</time></trkpt><trkpt lat="42.12114885296025" lon="12.883750113268656"><ele>1026.0</ele><time>2026-04-12T11:19:39.999Z</time></trkpt><trkpt lat="42.12109249767605" lon="12.883818946117566"><ele>1026.0</ele><time>2026-04-12T11:19:40.999Z</time></trkpt><trkpt lat="42.121036179288176" lon="12.883883485106821"><ele>1026.0</ele><time>2026-04-12T11:19:41.999Z</time></trkpt><trkpt lat="42.120978900179296" lon="12.883944900091969"><ele>1026.0</ele><time>2026-04-12T11:19:42.999Z</time></trkpt><trkpt lat="42.12092582144911" lon="12.884007772755892"><ele>1026.0</ele><time>2026-04-12T11:19:43.999Z</time></trkpt><trkpt lat="42.12087802907745" lon="12.884070370626494"><ele>1026.0</ele><time>2026-04-12T11:19:44.999Z</time></trkpt><trkpt lat="42.12078722646591" lon="12.884190323600015"><ele>1026.0</ele><time>2026-04-12T11:19:46.999Z</time></trkpt><trkpt lat="42.12073915126367" lon="12.884253844059122"><ele>1027.6666666666667</ele><time>2026-04-12T11:19:47.999Z</time></trkpt><trkpt lat="42.12069525017288" lon="12.884317334676897"><ele>1029.3333333333333</ele><time>2026-04-12T11:19:48.999Z</time></trkpt><trkpt lat="42.12064856436584" lon="12.884376677983495"><ele>1031.0</ele><time>2026-04-12T11:19:49.999Z</time></trkpt><trkpt lat="42.12060073811618" lon="12.884434501340333"><ele>1032.6666666666665</ele><time>2026-04-12T11:19:50.999Z</time></trkpt><trkpt lat="42.12051389752139" lon="12.884541638410655"><ele>1034.3333333333333</ele><time>2026-04-12T11:19:52.999Z</time></trkpt><trkpt lat="42.12044335121344" lon="12.884635760717652"><ele>1036.0</ele><time>2026-04-12T11:19:54.999Z</time></trkpt><trkpt lat="42.12036591229933" lon="12.884691934456578"><ele>1036.0</ele><time>2026-04-12T11:19:57.999Z</time></trkpt><trkpt lat="42.120331113391096" lon="12.88476545553325"><ele>1036.0</ele><time>2026-04-12T11:20:00.999Z</time></trkpt><trkpt lat="42.12027914854925" lon="12.884713758315835"><ele>1036.0</ele><time>2026-04-12T11:20:14.001Z</time></trkpt><trkpt lat="42.12020206953893" lon="12.884740429911782"><ele>1036.0</ele><time>2026-04-12T11:20:33Z</time></trkpt><trkpt lat="42.12012342237105" lon="12.884842275375437"><ele>1036.0</ele><time>2026-04-12T11:20:37Z</time></trkpt><trkpt lat="42.12005113633764" lon="12.884919402495843"><ele>1036.0</ele><time>2026-04-12T11:23:56.999Z</time></trkpt><trkpt lat="42.119958850315065" lon="12.884981800412064"><ele>1040.2</ele><time>2026-04-12T11:23:58.999Z</time></trkpt><trkpt lat="42.119870906790496" lon="12.885059686644443"><ele>1044.3999999999999</ele><time>2026-04-12T11:24:00.999Z</time></trkpt><trkpt lat="42.11977022043344" lon="12.885148066013862"><ele>1048.6</ele><time>2026-04-12T11:24:02.999Z</time></trkpt><trkpt lat="42.11967356266273" lon="12.885231695361668"><ele>1052.8</ele><time>2026-04-12T11:24:04.999Z</time></trkpt><trkpt lat="42.119595064940434" lon="12.885320460762115"><ele>1057.0</ele><time>2026-04-12T11:24:06.999Z</time></trkpt><trkpt lat="42.11950419825516" lon="12.88539149859203"><ele>1057.0</ele><time>2026-04-12T11:24:08.999Z</time></trkpt><trkpt lat="42.11940875728283" lon="12.88547248171095"><ele>1057.0</ele><time>2026-04-12T11:24:10.999Z</time></trkpt><trkpt lat="42.11934750880549" lon="12.885555767090938"><ele>1057.0</ele><time>2026-04-12T11:24:12.999Z</time></trkpt><trkpt lat="42.11930829743229" lon="12.885630864141074"><ele>1057.0</ele><time>2026-04-12T11:24:14.999Z</time></trkpt><trkpt lat="42.11926273314785" lon="12.885759493471477"><ele>1057.0</ele><time>2026-04-12T11:24:16.999Z</time></trkpt><trkpt lat="42.119212254647614" lon="12.885899039786961"><ele>1057.8333333333333</ele><time>2026-04-12T11:24:18.999Z</time></trkpt><trkpt lat="42.1191567671122" lon="12.886029186696804"><ele>1058.6666666666665</ele><time>2026-04-12T11:24:20.999Z</time></trkpt><trkpt lat="42.1190958319594" lon="12.886138138625174"><ele>1059.5</ele><time>2026-04-12T11:24:23.001Z</time></trkpt><trkpt lat="42.119032912863595" lon="12.886223736420794"><ele>1060.3333333333333</ele><time>2026-04-12T11:24:25.001Z</time></trkpt><trkpt lat="42.11898508007638" lon="12.886280312324615"><ele>1061.1666666666667</ele><time>2026-04-12T11:24:27.001Z</time></trkpt><trkpt lat="42.11892976704143" lon="12.886356595232245"><ele>1062.0</ele><time>2026-04-12T11:24:29Z</time></trkpt><trkpt lat="42.118843374441134" lon="12.886480177688554"><ele>1066.2</ele><time>2026-04-12T11:24:31Z</time></trkpt><trkpt lat="42.118764264205" lon="12.886606266034034"><ele>1070.4</ele><time>2026-04-12T11:24:33Z</time></trkpt><trkpt lat="42.11870382559789" lon="12.88671202067703"><ele>1074.6</ele><time>2026-04-12T11:24:35Z</time></trkpt><trkpt lat="42.118641653023595" lon="12.886818069254401"><ele>1078.8</ele><time>2026-04-12T11:24:37Z</time></trkpt><trkpt lat="42.11859699678022" lon="12.886938202255383"><ele>1083.0</ele><time>2026-04-12T11:24:39Z</time></trkpt><trkpt lat="42.11857176179606" lon="12.887067842392561"><ele>1083.0</ele><time>2026-04-12T11:24:41Z</time></trkpt><trkpt lat="42.11860486372795" lon="12.887209172814392"><ele>1083.0</ele><time>2026-04-12T11:24:43Z</time></trkpt><trkpt lat="42.1186342619694" lon="12.887345216977588"><ele>1083.0</ele><time>2026-04-12T11:24:45Z</time></trkpt><trkpt lat="42.11861689588844" lon="12.887427631408205"><ele>1083.0</ele><time>2026-04-12T11:24:47Z</time></trkpt><trkpt lat="42.11854181784647" lon="12.887504614777658"><ele>1083.0</ele><time>2026-04-12T11:24:50Z</time></trkpt><trkpt lat="42.1184725342449" lon="12.887488360990748"><ele>1083.0</ele><time>2026-04-12T11:24:52Z</time></trkpt><trkpt lat="42.11843750768446" lon="12.887402702155985"><ele>1083.0</ele><time>2026-04-12T11:24:54Z</time></trkpt><trkpt lat="42.11840587224199" lon="12.887313877357808"><ele>1083.0</ele><time>2026-04-12T11:24:56Z</time></trkpt><trkpt lat="42.1183389818511" lon="12.887250052791872"><ele>1083.0</ele><time>2026-04-12T11:24:59Z</time></trkpt><trkpt lat="42.11829573147491" lon="12.887138244418846"><ele>1083.0</ele><time>2026-04-12T11:25:02Z</time></trkpt><trkpt lat="42.11821859200444" lon="12.887067088576746"><ele>1083.0</ele><time>2026-04-12T11:25:04Z</time></trkpt><trkpt lat="42.1181603850367" lon="12.887012688985209"><ele>1083.0</ele><time>2026-04-12T11:25:06Z</time></trkpt><trkpt lat="42.11807725336208" lon="12.887005904657052"><ele>1082.1666666666667</ele><time>2026-04-12T11:25:08Z</time></trkpt><trkpt lat="42.11802785574602" lon="12.887088632820205"><ele>1081.3333333333333</ele><time>2026-04-12T11:25:10Z</time></trkpt><trkpt lat="42.11804027991518" lon="12.887186019277102"><ele>1080.5</ele><time>2026-04-12T11:25:12Z</time></trkpt><trkpt lat="42.11809707827884" lon="12.88728355585884"><ele>1079.6666666666665</ele><time>2026-04-12T11:25:14Z</time></trkpt><trkpt lat="42.11816443568856" lon="12.887372837220862"><ele>1078.8333333333333</ele><time>2026-04-12T11:25:16Z</time></trkpt><trkpt lat="42.11821854019743" lon="12.887476371442188"><ele>1078.0</ele><time>2026-04-12T11:25:18Z</time></trkpt><trkpt lat="42.11823194584534" lon="12.887594611822731"><ele>1078.0</ele><time>2026-04-12T11:25:20Z</time></trkpt><trkpt lat="42.11821318585178" lon="12.887724417842584"><ele>1078.0</ele><time>2026-04-12T11:25:22Z</time></trkpt><trkpt lat="42.11817514798103" lon="12.88786394693155"><ele>1078.0</ele><time>2026-04-12T11:25:24Z</time></trkpt><trkpt lat="42.11811203364293" lon="12.887974699036338"><ele>1078.0</ele><time>2026-04-12T11:25:26Z</time></trkpt><trkpt lat="42.118026077194436" lon="12.888041575793459"><ele>1078.0</ele><time>2026-04-12T11:25:28Z</time></trkpt><trkpt lat="42.11795408198794" lon="12.888086814646572"><ele>1078.0</ele><time>2026-04-12T11:25:30Z</time></trkpt><trkpt lat="42.11790561717251" lon="12.888141283692566"><ele>1078.0</ele><time>2026-04-12T11:25:32Z</time></trkpt><trkpt lat="42.11787339404457" lon="12.888250442716641"><ele>1078.0</ele><time>2026-04-12T11:25:34.999Z</time></trkpt><trkpt lat="42.11785519714767" lon="12.888331758766492"><ele>1078.0</ele><time>2026-04-12T11:25:37.999Z</time></trkpt><trkpt lat="42.11784890641399" lon="12.888446077327071"><ele>1078.0</ele><time>2026-04-12T11:26:43Z</time></trkpt><trkpt lat="42.11785535080351" lon="12.888564436790364"><ele>1078.0</ele><time>2026-04-12T11:26:46Z</time></trkpt><trkpt lat="42.11789470625239" lon="12.888674638286423"><ele>1079.2</ele><time>2026-04-12T11:26:49Z</time></trkpt><trkpt lat="42.11792778055993" lon="12.888749409446309"><ele>1080.4</ele><time>2026-04-12T11:26:51Z</time></trkpt><trkpt lat="42.117988465023295" lon="12.888844789225251"><ele>1081.6000000000001</ele><time>2026-04-12T11:26:53Z</time></trkpt><trkpt lat="42.11806560385703" lon="12.88890838182758"><ele>1082.8</ele><time>2026-04-12T11:26:55Z</time></trkpt><trkpt lat="42.11815976600197" lon="12.888959151451015"><ele>1084.0</ele><time>2026-04-12T11:26:57Z</time></trkpt><trkpt lat="42.118277260833544" lon="12.889010084060345"><ele>1084.0</ele><time>2026-04-12T11:26:59Z</time></trkpt><trkpt lat="42.11838036790095" lon="12.889070822803411"><ele>1084.0</ele><time>2026-04-12T11:27:01Z</time></trkpt><trkpt lat="42.11847313381756" lon="12.889178957681407"><ele>1084.0</ele><time>2026-04-12T11:27:03Z</time></trkpt><trkpt lat="42.11851932924787" lon="12.889258445560328"><ele>1084.0</ele><time>2026-04-12T11:27:04Z</time></trkpt><trkpt lat="42.11855664570593" lon="12.889345356915122"><ele>1084.0</ele><time>2026-04-12T11:27:05Z</time></trkpt><trkpt lat="42.11858805755863" lon="12.889428093291466"><ele>1082.8333333333333</ele><time>2026-04-12T11:27:06Z</time></trkpt><trkpt lat="42.118617840321654" lon="12.88950963464488"><ele>1081.6666666666665</ele><time>2026-04-12T11:27:07Z</time></trkpt><trkpt lat="42.11865991619837" lon="12.88967253143122"><ele>1080.5</ele><time>2026-04-12T11:27:09Z</time></trkpt><trkpt lat="42.11867054233283" lon="12.889771282749148"><ele>1079.3333333333333</ele><time>2026-04-12T11:27:10Z</time></trkpt><trkpt lat="42.118673346958566" lon="12.889868439122907"><ele>1078.1666666666667</ele><time>2026-04-12T11:27:11Z</time></trkpt><trkpt lat="42.118674534577835" lon="12.889954956343015"><ele>1077.0</ele><time>2026-04-12T11:27:12Z</time></trkpt><trkpt lat="42.118679054554725" lon="12.890107663234811"><ele>1075.8</ele><time>2026-04-12T11:27:14Z</time></trkpt><trkpt lat="42.11868915200235" lon="12.890254969823122"><ele>1074.6</ele><time>2026-04-12T11:27:16Z</time></trkpt><trkpt lat="42.11870162466306" lon="12.890407438090532"><ele>1073.3999999999999</ele><time>2026-04-12T11:27:18Z</time></trkpt><trkpt lat="42.1187206249467" lon="12.890539492436329"><ele>1072.2</ele><time>2026-04-12T11:27:20Z</time></trkpt><trkpt lat="42.118752632332956" lon="12.890668520025544"><ele>1071.0</ele><time>2026-04-12T11:27:22Z</time></trkpt><trkpt lat="42.11879134021027" lon="12.890820841701792"><ele>1067.25</ele><time>2026-04-12T11:27:24Z</time></trkpt><trkpt lat="42.11883366922584" lon="12.890963030942002"><ele>1063.5</ele><time>2026-04-12T11:27:26Z</time></trkpt><trkpt lat="42.11887778956864" lon="12.891101395441158"><ele>1059.75</ele><time>2026-04-12T11:27:28Z</time></trkpt><trkpt lat="42.11893479533408" lon="12.891244504346751"><ele>1056.0</ele><time>2026-04-12T11:27:30Z</time></trkpt><trkpt lat="42.11899482593957" lon="12.891374132216468"><ele>1056.0</ele><time>2026-04-12T11:27:31.999Z</time></trkpt><trkpt lat="42.11902916997306" lon="12.891454845778322"><ele>1056.0</ele><time>2026-04-12T11:27:32.999Z</time></trkpt><trkpt lat="42.11906009355782" lon="12.891530088905961"><ele>1056.0</ele><time>2026-04-12T11:27:33.999Z</time></trkpt><trkpt lat="42.11910602459769" lon="12.891670494179923"><ele>1056.0</ele><time>2026-04-12T11:27:35.999Z</time></trkpt><trkpt lat="42.11913743797401" lon="12.891802692398839"><ele>1056.0</ele><time>2026-04-12T11:27:37.999Z</time></trkpt><trkpt lat="42.11916219763908" lon="12.891936639430988"><ele>1057.6</ele><time>2026-04-12T11:27:39.999Z</time></trkpt><trkpt lat="42.119179517323026" lon="12.892098603947634"><ele>1059.1999999999998</ele><time>2026-04-12T11:27:41.999Z</time></trkpt><trkpt lat="42.11918051960853" lon="12.892190977542311"><ele>1060.8000000000002</ele><time>2026-04-12T11:27:42.999Z</time></trkpt><trkpt lat="42.11917234342897" lon="12.892280654327841"><ele>1062.4</ele><time>2026-04-12T11:27:43.999Z</time></trkpt><trkpt lat="42.11915791162087" lon="12.89244256394175"><ele>1064.0</ele><time>2026-04-12T11:27:45.999Z</time></trkpt><trkpt lat="42.11915607716625" lon="12.8925829150971"><ele>1063.2</ele><time>2026-04-12T11:27:47.999Z</time></trkpt><trkpt lat="42.11914907968483" lon="12.892707667543087"><ele>1062.4</ele><time>2026-04-12T11:27:49.999Z</time></trkpt><trkpt lat="42.11912913904437" lon="12.892832147284722"><ele>1061.6</ele><time>2026-04-12T11:27:51.999Z</time></trkpt><trkpt lat="42.119083700853196" lon="12.892941167909457"><ele>1060.8</ele><time>2026-04-12T11:27:53.999Z</time></trkpt><trkpt lat="42.119012635116846" lon="12.893035103303392"><ele>1060.0</ele><time>2026-04-12T11:27:55.999Z</time></trkpt><trkpt lat="42.11893115369032" lon="12.8930820720903"><ele>1058.3333333333333</ele><time>2026-04-12T11:27:57.999Z</time></trkpt><trkpt lat="42.1188481616777" lon="12.89309459038847"><ele>1056.6666666666665</ele><time>2026-04-12T11:27:59.999Z</time></trkpt><trkpt lat="42.11876928896536" lon="12.893043419494004"><ele>1055.0</ele><time>2026-04-12T11:28:01.999Z</time></trkpt><trkpt lat="42.11871835367212" lon="12.892949717532252"><ele>1053.3333333333333</ele><time>2026-04-12T11:28:03.999Z</time></trkpt><trkpt lat="42.11868359768198" lon="12.892843566783256"><ele>1051.6666666666667</ele><time>2026-04-12T11:28:05.999Z</time></trkpt><trkpt lat="42.11864687667982" lon="12.892716670986372"><ele>1050.0</ele><time>2026-04-12T11:28:07.999Z</time></trkpt><trkpt lat="42.118594769237504" lon="12.892621237155856"><ele>1050.0</ele><time>2026-04-12T11:28:09.999Z</time></trkpt><trkpt lat="42.1185284513401" lon="12.892584727461522"><ele>1050.0</ele><time>2026-04-12T11:28:11.999Z</time></trkpt><trkpt lat="42.1184539648579" lon="12.89260517248361"><ele>1050.0</ele><time>2026-04-12T11:28:13.999Z</time></trkpt><trkpt lat="42.11838233946678" lon="12.892659690651541"><ele>1050.0</ele><time>2026-04-12T11:28:15.999Z</time></trkpt><trkpt lat="42.118328940401895" lon="12.892709934265108"><ele>1050.0</ele><time>2026-04-12T11:28:17.999Z</time></trkpt><trkpt lat="42.11827494280255" lon="12.892778697922672"><ele>1050.0</ele><time>2026-04-12T11:28:20.999Z</time></trkpt><trkpt lat="42.11821402482348" lon="12.89283015661149"><ele>1050.0</ele><time>2026-04-12T11:28:24.999Z</time></trkpt><trkpt lat="42.118154100348576" lon="12.892882883300516"><ele>1046.6666666666667</ele><time>2026-04-12T11:28:27.999Z</time></trkpt><trkpt lat="42.11808929509486" lon="12.892918281178536"><ele>1043.3333333333333</ele><time>2026-04-12T11:28:29.999Z</time></trkpt><trkpt lat="42.118018001683325" lon="12.892957638532398"><ele>1040.0</ele><time>2026-04-12T11:28:31.998Z</time></trkpt><trkpt lat="42.117954606177385" lon="12.892996975356466"><ele>1036.6666666666665</ele><time>2026-04-12T11:28:33.998Z</time></trkpt><trkpt lat="42.11789295306245" lon="12.893046487954626"><ele>1033.3333333333333</ele><time>2026-04-12T11:28:36Z</time></trkpt><trkpt lat="42.11782031957037" lon="12.893121877124647"><ele>1030.0</ele><time>2026-04-12T11:28:38Z</time></trkpt><trkpt lat="42.117736107694945" lon="12.893200289505096"><ele>1030.0</ele><time>2026-04-12T11:28:40Z</time></trkpt><trkpt lat="42.11765387742853" lon="12.893277408773935"><ele>1030.0</ele><time>2026-04-12T11:28:42Z</time></trkpt><trkpt lat="42.11757041168523" lon="12.89335307217749"><ele>1030.0</ele><time>2026-04-12T11:28:44Z</time></trkpt><trkpt lat="42.11750463643215" lon="12.893444889145805"><ele>1030.0</ele><time>2026-04-12T11:28:46Z</time></trkpt><trkpt lat="42.117456370193324" lon="12.893516152725443"><ele>1030.0</ele><time>2026-04-12T11:28:48Z</time></trkpt><trkpt lat="42.117415549617206" lon="12.893587736036165"><ele>1030.0</ele><time>2026-04-12T11:28:50Z</time></trkpt><trkpt lat="42.1173855955205" lon="12.893677011098767"><ele>1023.8</ele><time>2026-04-12T11:28:52Z</time></trkpt><trkpt lat="42.11735304122461" lon="12.89378951440446"><ele>1017.6</ele><time>2026-04-12T11:28:54Z</time></trkpt><trkpt lat="42.11733207685909" lon="12.893921988725287"><ele>1011.4000000000001</ele><time>2026-04-12T11:28:56Z</time></trkpt><trkpt lat="42.11731453587641" lon="12.894051417969525"><ele>1005.2</ele><time>2026-04-12T11:28:58Z</time></trkpt><trkpt lat="42.117301008860515" lon="12.894159298027573"><ele>999.0</ele><time>2026-04-12T11:29:00Z</time></trkpt><trkpt lat="42.11728758866628" lon="12.894271657296338"><ele>999.0</ele><time>2026-04-12T11:29:02Z</time></trkpt><trkpt lat="42.11725169892861" lon="12.894388299988194"><ele>999.0</ele><time>2026-04-12T11:29:04Z</time></trkpt><trkpt lat="42.11720658210654" lon="12.89450094435979"><ele>999.0</ele><time>2026-04-12T11:29:06Z</time></trkpt><trkpt lat="42.117158796673905" lon="12.894607218640193"><ele>999.0</ele><time>2026-04-12T11:29:08Z</time></trkpt><trkpt lat="42.117115672247586" lon="12.8947014365742"><ele>999.0</ele><time>2026-04-12T11:29:10Z</time></trkpt><trkpt lat="42.11709052773342" lon="12.894783813291482"><ele>999.0</ele><time>2026-04-12T11:29:12Z</time></trkpt><trkpt lat="42.11706322461785" lon="12.894879925135925"><ele>999.0</ele><time>2026-04-12T11:29:14Z</time></trkpt><trkpt lat="42.11706467263102" lon="12.89497225862717"><ele>999.0</ele><time>2026-04-12T11:29:16Z</time></trkpt><trkpt lat="42.11709290591499" lon="12.895057533308504"><ele>999.0</ele><time>2026-04-12T11:29:18Z</time></trkpt><trkpt lat="42.117133881165465" lon="12.895141136194841"><ele>999.0</ele><time>2026-04-12T11:29:20Z</time></trkpt><trkpt lat="42.11720483332158" lon="12.89522917433086"><ele>999.0</ele><time>2026-04-12T11:29:22Z</time></trkpt><trkpt lat="42.11729441540855" lon="12.895325295935416"><ele>999.0</ele><time>2026-04-12T11:29:24Z</time></trkpt><trkpt lat="42.11739556079511" lon="12.89542112351843"><ele>1000.5</ele><time>2026-04-12T11:29:26Z</time></trkpt><trkpt lat="42.11750337025754" lon="12.895498728641636"><ele>1002.0</ele><time>2026-04-12T11:29:28Z</time></trkpt><trkpt lat="42.1175913116227" lon="12.895575218090457"><ele>1003.5</ele><time>2026-04-12T11:29:30Z</time></trkpt><trkpt lat="42.11765793303453" lon="12.895687838405928"><ele>1005.0</ele><time>2026-04-12T11:29:32Z</time></trkpt><trkpt lat="42.1177333473443" lon="12.895821702177932"><ele>1000.8</ele><time>2026-04-12T11:29:34Z</time></trkpt><trkpt lat="42.11780892285826" lon="12.89594250372912"><ele>996.6</ele><time>2026-04-12T11:29:35.999Z</time></trkpt><trkpt lat="42.117883672059016" lon="12.89607471522946"><ele>992.4000000000001</ele><time>2026-04-12T11:29:37.999Z</time></trkpt><trkpt lat="42.11795215351819" lon="12.896204065258022"><ele>988.2</ele><time>2026-04-12T11:29:39.999Z</time></trkpt><trkpt lat="42.11798801442913" lon="12.896274056538639"><ele>984.0</ele><time>2026-04-12T11:29:40.999Z</time></trkpt><trkpt lat="42.1180216525666" lon="12.896348113725127"><ele>984.0</ele><time>2026-04-12T11:29:41.999Z</time></trkpt><trkpt lat="42.118048629331234" lon="12.896425021080702"><ele>984.0000000000001</ele><time>2026-04-12T11:29:42.999Z</time></trkpt><trkpt lat="42.11807658886198" lon="12.896505170235043"><ele>984.0000000000001</ele><time>2026-04-12T11:29:43.999Z</time></trkpt><trkpt lat="42.11812710091031" lon="12.896647541436224"><ele>984.0</ele><time>2026-04-12T11:29:45.999Z</time></trkpt><trkpt lat="42.11818345114325" lon="12.896787439577041"><ele>984.0</ele><time>2026-04-12T11:29:47.999Z</time></trkpt><trkpt lat="42.118251608326744" lon="12.896926027588764"><ele>984.6666666666666</ele><time>2026-04-12T11:29:49.999Z</time></trkpt><trkpt lat="42.11828086987017" lon="12.897009269862993"><ele>985.3333333333333</ele><time>2026-04-12T11:29:50.999Z</time></trkpt><trkpt lat="42.118302639990574" lon="12.897094844601943"><ele>986.0</ele><time>2026-04-12T11:29:51.999Z</time></trkpt><trkpt lat="42.11832084828772" lon="12.897186125112766"><ele>986.6666666666666</ele><time>2026-04-12T11:29:52.999Z</time></trkpt><trkpt lat="42.11833764838652" lon="12.897271500167594"><ele>987.3333333333333</ele><time>2026-04-12T11:29:53.999Z</time></trkpt><trkpt lat="42.11836796058121" lon="12.897424016413877"><ele>988.0</ele><time>2026-04-12T11:29:55.999Z</time></trkpt><trkpt lat="42.11841572599031" lon="12.897568484233037"><ele>983.5</ele><time>2026-04-12T11:29:57.999Z</time></trkpt><trkpt lat="42.118480274724526" lon="12.897693119169514"><ele>979.0</ele><time>2026-04-12T11:29:59.999Z</time></trkpt><trkpt lat="42.118558969965996" lon="12.897800528581378"><ele>974.5</ele><time>2026-04-12T11:30:01.999Z</time></trkpt><trkpt lat="42.11864019514164" lon="12.8979212770452"><ele>970.0</ele><time>2026-04-12T11:30:03.999Z</time></trkpt><trkpt lat="42.11871964174139" lon="12.898029722202955"><ele>970.0</ele><time>2026-04-12T11:30:05.999Z</time></trkpt><trkpt lat="42.11877805544896" lon="12.898119179768441"><ele>970.0</ele><time>2026-04-12T11:30:07.999Z</time></trkpt><trkpt lat="42.118822124526766" lon="12.898225960323806"><ele>970.0</ele><time>2026-04-12T11:30:09.999Z</time></trkpt><trkpt lat="42.11885745080825" lon="12.898360033075338"><ele>970.0</ele><time>2026-04-12T11:30:11.999Z</time></trkpt><trkpt lat="42.118879954370605" lon="12.898505152488383"><ele>970.0</ele><time>2026-04-12T11:30:13.999Z</time></trkpt><trkpt lat="42.11890103696276" lon="12.898662497515945"><ele>968.8</ele><time>2026-04-12T11:30:15.999Z</time></trkpt><trkpt lat="42.11890854291791" lon="12.898749873350406"><ele>967.6</ele><time>2026-04-12T11:30:16.999Z</time></trkpt><trkpt lat="42.11891057890814" lon="12.898909025872566"><ele>966.4000000000001</ele><time>2026-04-12T11:30:18.999Z</time></trkpt><trkpt lat="42.118896843398325" lon="12.89905736745587"><ele>965.2</ele><time>2026-04-12T11:30:20.999Z</time></trkpt><trkpt lat="42.11887672610412" lon="12.899213027151298"><ele>964.0</ele><time>2026-04-12T11:30:22.999Z</time></trkpt><trkpt lat="42.11882982652499" lon="12.899358101914572"><ele>963.9999999999999</ele><time>2026-04-12T11:30:24.999Z</time></trkpt><trkpt lat="42.118763971587725" lon="12.899476023871264"><ele>964.0</ele><time>2026-04-12T11:30:26.999Z</time></trkpt><trkpt lat="42.11869676304823" lon="12.899577615061402"><ele>964.0</ele><time>2026-04-12T11:30:28.999Z</time></trkpt><trkpt lat="42.118643500068416" lon="12.899674842330558"><ele>964.0</ele><time>2026-04-12T11:30:30.999Z</time></trkpt><trkpt lat="42.11861302188458" lon="12.899762873737679"><ele>963.9999999999999</ele><time>2026-04-12T11:30:32.999Z</time></trkpt><trkpt lat="42.11859553739839" lon="12.899853680744469"><ele>964.0</ele><time>2026-04-12T11:30:34.999Z</time></trkpt><trkpt lat="42.11858269090503" lon="12.899941780700614"><ele>963.9999999999999</ele><time>2026-04-12T11:30:36.999Z</time></trkpt><trkpt lat="42.118570287434345" lon="12.900045250050637"><ele>964.0</ele><time>2026-04-12T11:30:39.998Z</time></trkpt><trkpt lat="42.11855763256347" lon="12.900138981973166"><ele>964.0</ele><time>2026-04-12T11:30:42Z</time></trkpt><trkpt lat="42.11855114033509" lon="12.90023939244417"><ele>964.0</ele><time>2026-04-12T11:30:44Z</time></trkpt><trkpt lat="42.11855037699708" lon="12.900342191339659"><ele>963.9999999999999</ele><time>2026-04-12T11:30:46Z</time></trkpt><trkpt lat="42.11854896200334" lon="12.90044028838524"><ele>964.0</ele><time>2026-04-12T11:30:48Z</time></trkpt><trkpt lat="42.11856183527336" lon="12.900547496451571"><ele>962.1666666666666</ele><time>2026-04-12T11:30:50Z</time></trkpt><trkpt lat="42.1185914004381" lon="12.90066268737274"><ele>960.3333333333333</ele><time>2026-04-12T11:30:52Z</time></trkpt><trkpt lat="42.11864815515731" lon="12.90075244002886"><ele>958.5</ele><time>2026-04-12T11:30:54Z</time></trkpt><trkpt lat="42.11871254063261" lon="12.900824206162046"><ele>956.6666666666667</ele><time>2026-04-12T11:30:56Z</time></trkpt><trkpt lat="42.118786873960204" lon="12.900873786247836"><ele>954.8333333333334</ele><time>2026-04-12T11:30:58Z</time></trkpt><trkpt lat="42.11885402648885" lon="12.900916442941144"><ele>953.0</ele><time>2026-04-12T11:31:00Z</time></trkpt><trkpt lat="42.11891656737938" lon="12.90095355441439"><ele>953.1666666666667</ele><time>2026-04-12T11:31:02Z</time></trkpt><trkpt lat="42.11897422889659" lon="12.901008486108065"><ele>953.3333333333334</ele><time>2026-04-12T11:31:04Z</time></trkpt><trkpt lat="42.11902934084086" lon="12.901084692943197"><ele>953.5</ele><time>2026-04-12T11:31:06Z</time></trkpt><trkpt lat="42.11909693551423" lon="12.90117699545179"><ele>953.6666666666667</ele><time>2026-04-12T11:31:08Z</time></trkpt><trkpt lat="42.11915773592186" lon="12.901276794913509"><ele>953.8333333333334</ele><time>2026-04-12T11:31:10Z</time></trkpt><trkpt lat="42.11920261385081" lon="12.901367421341936"><ele>954.0</ele><time>2026-04-12T11:31:12Z</time></trkpt><trkpt lat="42.11923260608549" lon="12.90145940954303"><ele>954.0</ele><time>2026-04-12T11:31:14Z</time></trkpt><trkpt lat="42.1192498103321" lon="12.901564677860572"><ele>954.0</ele><time>2026-04-12T11:31:16Z</time></trkpt><trkpt lat="42.11925466839456" lon="12.901682701592767"><ele>954.0</ele><time>2026-04-12T11:31:18Z</time></trkpt><trkpt lat="42.11927332526325" lon="12.90178257972904"><ele>954.0</ele><time>2026-04-12T11:31:20Z</time></trkpt><trkpt lat="42.11930021408005" lon="12.901869095576767"><ele>954.0</ele><time>2026-04-12T11:31:22Z</time></trkpt><trkpt lat="42.11934419884015" lon="12.90195254702364"><ele>954.0</ele><time>2026-04-12T11:31:24Z</time></trkpt><trkpt lat="42.11940554404161" lon="12.902018824004216"><ele>947.25</ele><time>2026-04-12T11:31:26Z</time></trkpt><trkpt lat="42.11948524868587" lon="12.902094099382685"><ele>940.5</ele><time>2026-04-12T11:31:28Z</time></trkpt><trkpt lat="42.119582283630045" lon="12.902181184978717"><ele>933.75</ele><time>2026-04-12T11:31:30Z</time></trkpt><trkpt lat="42.11967908908378" lon="12.902274320035467"><ele>927.0</ele><time>2026-04-12T11:31:32Z</time></trkpt><trkpt lat="42.1197742312844" lon="12.902367714713769"><ele>927.0</ele><time>2026-04-12T11:31:34Z</time></trkpt><trkpt lat="42.11984915628735" lon="12.902460627976033"><ele>927.0</ele><time>2026-04-12T11:31:36Z</time></trkpt><trkpt lat="42.11992156758126" lon="12.902544228310521"><ele>927.0</ele><time>2026-04-12T11:31:38Z</time></trkpt><trkpt lat="42.11997285993084" lon="12.902633899491798"><ele>927.0</ele><time>2026-04-12T11:31:40Z</time></trkpt><trkpt lat="42.1200173835416" lon="12.902737824264012"><ele>927.0</ele><time>2026-04-12T11:31:42Z</time></trkpt><trkpt lat="42.12005003828293" lon="12.902840135480806"><ele>927.6</ele><time>2026-04-12T11:31:44Z</time></trkpt><trkpt lat="42.12008273280731" lon="12.902950676373402"><ele>928.2</ele><time>2026-04-12T11:31:46Z</time></trkpt><trkpt lat="42.12011799807276" lon="12.903067718761509"><ele>928.8</ele><time>2026-04-12T11:31:47.999Z</time></trkpt><trkpt lat="42.12015683056556" lon="12.903216336373506"><ele>929.4</ele><time>2026-04-12T11:31:49.999Z</time></trkpt><trkpt lat="42.12018109081295" lon="12.90329701834498"><ele>930.0</ele><time>2026-04-12T11:31:50.999Z</time></trkpt><trkpt lat="42.12022296400018" lon="12.903436458118321"><ele>926.6</ele><time>2026-04-12T11:31:52.999Z</time></trkpt><trkpt lat="42.12026603730174" lon="12.903564206866992"><ele>923.2</ele><time>2026-04-12T11:31:54.999Z</time></trkpt><trkpt lat="42.12030834426154" lon="12.903679028371727"><ele>919.8</ele><time>2026-04-12T11:31:56.999Z</time></trkpt><trkpt lat="42.120360202127024" lon="12.903799072796525"><ele>916.4</ele><time>2026-04-12T11:31:58.999Z</time></trkpt><trkpt lat="42.1204178493147" lon="12.903917831765595"><ele>913.0</ele><time>2026-04-12T11:32:00.999Z</time></trkpt><trkpt lat="42.12047920344037" lon="12.904034907276968"><ele>913.0</ele><time>2026-04-12T11:32:02.999Z</time></trkpt><trkpt lat="42.12055372032327" lon="12.904133738869936"><ele>913.0</ele><time>2026-04-12T11:32:04.999Z</time></trkpt><trkpt lat="42.12064448817976" lon="12.904206596444679"><ele>913.0</ele><time>2026-04-12T11:32:06.999Z</time></trkpt><trkpt lat="42.12075241361755" lon="12.90425943411671"><ele>913.0</ele><time>2026-04-12T11:32:08.999Z</time></trkpt><trkpt lat="42.120869913554365" lon="12.904310190637158"><ele>913.0</ele><time>2026-04-12T11:32:10.999Z</time></trkpt><trkpt lat="42.1209324165508" lon="12.904332444037923"><ele>912.4</ele><time>2026-04-12T11:32:11.999Z</time></trkpt><trkpt lat="42.1210419904516" lon="12.904366607446574"><ele>911.8</ele><time>2026-04-12T11:32:13.999Z</time></trkpt><trkpt lat="42.121131089146346" lon="12.904387072989795"><ele>911.2</ele><time>2026-04-12T11:32:15.999Z</time></trkpt><trkpt lat="42.12121618138365" lon="12.904436432797747"><ele>910.6</ele><time>2026-04-12T11:32:17.999Z</time></trkpt><trkpt lat="42.12128857605714" lon="12.904497694960735"><ele>910.0</ele><time>2026-04-12T11:32:19.999Z</time></trkpt><trkpt lat="42.1213470453581" lon="12.9045631227717"><ele>910.0</ele><time>2026-04-12T11:32:21.999Z</time></trkpt><trkpt lat="42.12139543233279" lon="12.904646659180328"><ele>910.0</ele><time>2026-04-12T11:32:23.999Z</time></trkpt><trkpt lat="42.12144487828583" lon="12.904750212417198"><ele>910.0</ele><time>2026-04-12T11:32:25.999Z</time></trkpt><trkpt lat="42.12151322506696" lon="12.904861757855269"><ele>910.0</ele><time>2026-04-12T11:32:27.999Z</time></trkpt><trkpt lat="42.12158304023575" lon="12.904971911760907"><ele>910.0</ele><time>2026-04-12T11:32:29.999Z</time></trkpt><trkpt lat="42.12166629368221" lon="12.905075919165073"><ele>907.6</ele><time>2026-04-12T11:32:31.999Z</time></trkpt><trkpt lat="42.121752258175576" lon="12.905158524887117"><ele>905.2</ele><time>2026-04-12T11:32:33.999Z</time></trkpt><trkpt lat="42.12184194302766" lon="12.905254908901725"><ele>902.8</ele><time>2026-04-12T11:32:35.999Z</time></trkpt><trkpt lat="42.12193346475222" lon="12.905370291617308"><ele>900.4</ele><time>2026-04-12T11:32:37.999Z</time></trkpt><trkpt lat="42.12197582229979" lon="12.90543974719915"><ele>898.0</ele><time>2026-04-12T11:32:38.999Z</time></trkpt><trkpt lat="42.1220129663165" lon="12.905509845465376"><ele>898.0</ele><time>2026-04-12T11:32:39.999Z</time></trkpt><trkpt lat="42.12208302601915" lon="12.905639129971151"><ele>898.0</ele><time>2026-04-12T11:32:41.999Z</time></trkpt><trkpt lat="42.12215222481575" lon="12.905748225632008"><ele>898.0</ele><time>2026-04-12T11:32:43.999Z</time></trkpt><trkpt lat="42.12222917722688" lon="12.9058515206087"><ele>898.0</ele><time>2026-04-12T11:32:46Z</time></trkpt><trkpt lat="42.12227911680198" lon="12.90590725090551"><ele>898.0</ele><time>2026-04-12T11:32:47Z</time></trkpt><trkpt lat="42.1223379320152" lon="12.905961656871447"><ele>897.1666666666666</ele><time>2026-04-12T11:32:48Z</time></trkpt><trkpt lat="42.1223937526887" lon="12.906014276897801"><ele>896.3333333333333</ele><time>2026-04-12T11:32:49Z</time></trkpt><trkpt lat="42.122450443945624" lon="12.906066515909334"><ele>895.5</ele><time>2026-04-12T11:32:50Z</time></trkpt><trkpt lat="42.12250492909393" lon="12.906109609825295"><ele>894.6666666666667</ele><time>2026-04-12T11:32:51Z</time></trkpt><trkpt lat="42.12260880434598" lon="12.906182563260439"><ele>893.8333333333334</ele><time>2026-04-12T11:32:53Z</time></trkpt><trkpt lat="42.12268966778138" lon="12.906260788641244"><ele>893.0</ele><time>2026-04-12T11:32:55Z</time></trkpt><trkpt lat="42.122755621452235" lon="12.906355943192784"><ele>893.0</ele><time>2026-04-12T11:32:57Z</time></trkpt><trkpt lat="42.12280811133286" lon="12.9064513394415"><ele>893.0</ele><time>2026-04-12T11:32:59Z</time></trkpt><trkpt lat="42.12284938748216" lon="12.906572091742298"><ele>893.0</ele><time>2026-04-12T11:33:01Z</time></trkpt><trkpt lat="42.12286685123004" lon="12.90671169067012"><ele>893.0</ele><time>2026-04-12T11:33:03Z</time></trkpt><trkpt lat="42.12287381317047" lon="12.906838941703091"><ele>893.0</ele><time>2026-04-12T11:33:05Z</time></trkpt><trkpt lat="42.12285081906237" lon="12.906937840775159"><ele>892.5000000000001</ele><time>2026-04-12T11:33:07Z</time></trkpt><trkpt lat="42.1228226945157" lon="12.907043917919363"><ele>892.0</ele><time>2026-04-12T11:33:09Z</time></trkpt><trkpt lat="42.122789195044476" lon="12.907159903625343"><ele>891.5</ele><time>2026-04-12T11:33:11Z</time></trkpt><trkpt lat="42.122732134935525" lon="12.907258671005225"><ele>891.0</ele><time>2026-04-12T11:33:13Z</time></trkpt><trkpt lat="42.122675870367274" lon="12.907329735269144"><ele>890.5000000000001</ele><time>2026-04-12T11:33:15Z</time></trkpt><trkpt lat="42.12261050726649" lon="12.907386130320536"><ele>890.0</ele><time>2026-04-12T11:33:17Z</time></trkpt><trkpt lat="42.12253218104591" lon="12.907443697098524"><ele>890.0000000000001</ele><time>2026-04-12T11:33:19Z</time></trkpt><trkpt lat="42.122448275951804" lon="12.90749439723492"><ele>890.0</ele><time>2026-04-12T11:33:21Z</time></trkpt><trkpt lat="42.12237194517957" lon="12.907545642747332"><ele>890.0</ele><time>2026-04-12T11:33:23Z</time></trkpt><trkpt lat="42.122299147813706" lon="12.907598430874947"><ele>890.0</ele><time>2026-04-12T11:33:25Z</time></trkpt><trkpt lat="42.122223296284" lon="12.90765400264606"><ele>890.0000000000001</ele><time>2026-04-12T11:33:27Z</time></trkpt><trkpt lat="42.12215090323947" lon="12.907717984873896"><ele>890.0</ele><time>2026-04-12T11:33:29Z</time></trkpt><trkpt lat="42.12208843864837" lon="12.907766796798837"><ele>885.8333333333334</ele><time>2026-04-12T11:33:31Z</time></trkpt><trkpt lat="42.12203005443735" lon="12.907829373155069"><ele>881.6666666666667</ele><time>2026-04-12T11:33:33Z</time></trkpt><trkpt lat="42.121970289762494" lon="12.907892686342526"><ele>877.5</ele><time>2026-04-12T11:33:35Z</time></trkpt><trkpt lat="42.12192708082846" lon="12.907962557173734"><ele>873.3333333333333</ele><time>2026-04-12T11:33:37Z</time></trkpt><trkpt lat="42.12188687344735" lon="12.908066608326743"><ele>869.1666666666666</ele><time>2026-04-12T11:33:39Z</time></trkpt><trkpt lat="42.121851442392334" lon="12.908195037431051"><ele>865.0</ele><time>2026-04-12T11:33:41Z</time></trkpt><trkpt lat="42.12183460403135" lon="12.908343643998302"><ele>864.0</ele><time>2026-04-12T11:33:43Z</time></trkpt><trkpt lat="42.12184913579492" lon="12.908494565373335"><ele>863.0</ele><time>2026-04-12T11:33:45Z</time></trkpt><trkpt lat="42.12187071141009" lon="12.908656590208071"><ele>862.0</ele><time>2026-04-12T11:33:47Z</time></trkpt><trkpt lat="42.12188665416672" lon="12.908826603489992"><ele>861.0</ele><time>2026-04-12T11:33:49Z</time></trkpt><trkpt lat="42.121893434119634" lon="12.90891201619298"><ele>860.0</ele><time>2026-04-12T11:33:50Z</time></trkpt><trkpt lat="42.12190080652032" lon="12.90900078714672"><ele>860.0</ele><time>2026-04-12T11:33:51Z</time></trkpt><trkpt lat="42.121914141087885" lon="12.909089144424703"><ele>860.0</ele><time>2026-04-12T11:33:52Z</time></trkpt><trkpt lat="42.12192668537074" lon="12.909174694630842"><ele>860.0</ele><time>2026-04-12T11:33:53Z</time></trkpt><trkpt lat="42.12193583777654" lon="12.90925876309721"><ele>860.0</ele><time>2026-04-12T11:33:54Z</time></trkpt><trkpt lat="42.12194648896333" lon="12.909349897948385"><ele>860.0</ele><time>2026-04-12T11:33:55Z</time></trkpt><trkpt lat="42.121958157824615" lon="12.90944577606598"><ele>860.0</ele><time>2026-04-12T11:33:56Z</time></trkpt><trkpt lat="42.12196904689037" lon="12.909539397402776"><ele>860.0</ele><time>2026-04-12T11:33:56.999Z</time></trkpt><trkpt lat="42.121969733257345" lon="12.909710649290506"><ele>859.1666666666667</ele><time>2026-04-12T11:33:58.999Z</time></trkpt><trkpt lat="42.12195439097748" lon="12.909799562049532"><ele>858.3333333333334</ele><time>2026-04-12T11:33:59.999Z</time></trkpt><trkpt lat="42.12193200005735" lon="12.909893810252779"><ele>857.5</ele><time>2026-04-12T11:34:00.999Z</time></trkpt><trkpt lat="42.121906772547284" lon="12.909989965953255"><ele>856.6666666666667</ele><time>2026-04-12T11:34:01.999Z</time></trkpt><trkpt lat="42.12188097525431" lon="12.910076093532345"><ele>855.8333333333334</ele><time>2026-04-12T11:34:02.999Z</time></trkpt><trkpt lat="42.12185553653639" lon="12.910235084098368"><ele>855.0</ele><time>2026-04-12T11:34:04.999Z</time></trkpt><trkpt lat="42.121855263214535" lon="12.910320415225108"><ele>854.0</ele><time>2026-04-12T11:34:05.999Z</time></trkpt><trkpt lat="42.12186741171097" lon="12.910406526941621"><ele>853.0</ele><time>2026-04-12T11:34:06.999Z</time></trkpt><trkpt lat="42.12188070476398" lon="12.910499265880675"><ele>852.0</ele><time>2026-04-12T11:34:07.999Z</time></trkpt><trkpt lat="42.1218883470778" lon="12.910586890917914"><ele>851.0</ele><time>2026-04-12T11:34:08.999Z</time></trkpt><trkpt lat="42.12189172271779" lon="12.910679313967634"><ele>850.0</ele><time>2026-04-12T11:34:09.999Z</time></trkpt><trkpt lat="42.12189925064971" lon="12.910768761776373"><ele>849.0</ele><time>2026-04-12T11:34:10.999Z</time></trkpt><trkpt lat="42.12191058383268" lon="12.910852985757879"><ele>848.0</ele><time>2026-04-12T11:34:11.999Z</time></trkpt><trkpt lat="42.12192677226766" lon="12.910940541598917"><ele>845.8333333333334</ele><time>2026-04-12T11:34:12.999Z</time></trkpt><trkpt lat="42.121947779923424" lon="12.911029675231253"><ele>843.6666666666667</ele><time>2026-04-12T11:34:13.999Z</time></trkpt><trkpt lat="42.12197249977815" lon="12.911122487254543"><ele>841.5</ele><time>2026-04-12T11:34:14.999Z</time></trkpt><trkpt lat="42.1219988481036" lon="12.911213810327606"><ele>839.3333333333333</ele><time>2026-04-12T11:34:15.999Z</time></trkpt><trkpt lat="42.122023856543535" lon="12.911298447547855"><ele>837.1666666666666</ele><time>2026-04-12T11:34:16.999Z</time></trkpt><trkpt lat="42.12206051185568" lon="12.911452971099862"><ele>835.0</ele><time>2026-04-12T11:34:18.999Z</time></trkpt><trkpt lat="42.122077267087406" lon="12.911617865678966"><ele>834.9999999999999</ele><time>2026-04-12T11:34:20.999Z</time></trkpt><trkpt lat="42.12209107098303" lon="12.911709519514934"><ele>835.0</ele><time>2026-04-12T11:34:21.999Z</time></trkpt><trkpt lat="42.12210178274155" lon="12.91179833113888"><ele>835.0</ele><time>2026-04-12T11:34:22.999Z</time></trkpt><trkpt lat="42.12211128204132" lon="12.911891526968272"><ele>835.0</ele><time>2026-04-12T11:34:23.999Z</time></trkpt><trkpt lat="42.12212324962917" lon="12.911982297141057"><ele>834.9999999999999</ele><time>2026-04-12T11:34:24.999Z</time></trkpt><trkpt lat="42.12213619729614" lon="12.912066775349064"><ele>835.0</ele><time>2026-04-12T11:34:25.999Z</time></trkpt><trkpt lat="42.122152048334634" lon="12.912232872663632"><ele>833.0</ele><time>2026-04-12T11:34:27.999Z</time></trkpt><trkpt lat="42.12216597348332" lon="12.912391488046104"><ele>831.0</ele><time>2026-04-12T11:34:29.999Z</time></trkpt><trkpt lat="42.122176792465716" lon="12.912540454695563"><ele>829.0</ele><time>2026-04-12T11:34:31.999Z</time></trkpt><trkpt lat="42.12218229042017" lon="12.912666178246095"><ele>827.0</ele><time>2026-04-12T11:34:33.999Z</time></trkpt><trkpt lat="42.122206111618006" lon="12.912784655065076"><ele>825.0</ele><time>2026-04-12T11:34:35.999Z</time></trkpt><trkpt lat="42.122241293976046" lon="12.912908120834627"><ele>825.0</ele><time>2026-04-12T11:34:37.999Z</time></trkpt><trkpt lat="42.12228036629125" lon="12.913044541881547"><ele>825.0</ele><time>2026-04-12T11:34:39.999Z</time></trkpt><trkpt lat="42.12231684928012" lon="12.913173642030426"><ele>825.0</ele><time>2026-04-12T11:34:41.999Z</time></trkpt><trkpt lat="42.1223402167234" lon="12.913275943578936"><ele>825.0</ele><time>2026-04-12T11:34:43.999Z</time></trkpt><trkpt lat="42.12235966317224" lon="12.91335856922316"><ele>825.0</ele><time>2026-04-12T11:34:45.999Z</time></trkpt><trkpt lat="42.12235649972407" lon="12.913446354897125"><ele>825.0</ele><time>2026-04-12T11:35:07Z</time></trkpt><trkpt lat="42.122321236127696" lon="12.913543586682517"><ele>825.0</ele><time>2026-04-12T11:35:27Z</time></trkpt><trkpt lat="42.12236702356703" lon="12.913630402956741"><ele>825.0</ele><time>2026-04-12T11:38:01Z</time></trkpt><trkpt lat="42.12240775851572" lon="12.913722743016246"><ele>825.0</ele><time>2026-04-12T11:38:04Z</time></trkpt><trkpt lat="42.12242821977117" lon="12.913808941027439"><ele>825.0</ele><time>2026-04-12T11:38:06Z</time></trkpt><trkpt lat="42.12246379615994" lon="12.91389421973014"><ele>825.0</ele><time>2026-04-12T11:38:08Z</time></trkpt><trkpt lat="42.12250257189743" lon="12.91397037266418"><ele>825.0</ele><time>2026-04-12T11:38:10Z</time></trkpt><trkpt lat="42.12254919066127" lon="12.914074144626019"><ele>825.0</ele><time>2026-04-12T11:38:12Z</time></trkpt><trkpt lat="42.12257724231466" lon="12.914179418523254"><ele>825.0</ele><time>2026-04-12T11:38:14Z</time></trkpt><trkpt lat="42.122603540121155" lon="12.91429994024321"><ele>825.0</ele><time>2026-04-12T11:38:16Z</time></trkpt><trkpt lat="42.1226208152995" lon="12.914422515397842"><ele>825.0</ele><time>2026-04-12T11:38:18Z</time></trkpt><trkpt lat="42.12263300055463" lon="12.914540319298869"><ele>825.0</ele><time>2026-04-12T11:38:20Z</time></trkpt><trkpt lat="42.12264353982814" lon="12.914651706370783"><ele>825.0</ele><time>2026-04-12T11:38:22Z</time></trkpt><trkpt lat="42.12268028717675" lon="12.914739430809943"><ele>825.0</ele><time>2026-04-12T11:38:23.999Z</time></trkpt><trkpt lat="42.12274898637223" lon="12.914856651287222"><ele>825.0</ele><time>2026-04-12T11:38:25.999Z</time></trkpt><trkpt lat="42.1228174018793" lon="12.914976916402008"><ele>825.0</ele><time>2026-04-12T11:38:27.999Z</time></trkpt><trkpt lat="42.122876496151044" lon="12.915103726397302"><ele>825.0</ele><time>2026-04-12T11:38:29.999Z</time></trkpt><trkpt lat="42.12292312137783" lon="12.915217539349007"><ele>825.0</ele><time>2026-04-12T11:38:31.999Z</time></trkpt><trkpt lat="42.12295356066133" lon="12.915313576931771"><ele>824.5714285714286</ele><time>2026-04-12T11:38:33.999Z</time></trkpt><trkpt lat="42.12300442599978" lon="12.91541729791266"><ele>824.1428571428572</ele><time>2026-04-12T11:38:36.999Z</time></trkpt><trkpt lat="42.12302992874827" lon="12.91550194292737"><ele>823.7142857142858</ele><time>2026-04-12T11:38:38.999Z</time></trkpt><trkpt lat="42.12304530473781" lon="12.91560501109567"><ele>823.2857142857142</ele><time>2026-04-12T11:38:41.999Z</time></trkpt><trkpt lat="42.123064052311676" lon="12.915694311957138"><ele>822.8571428571429</ele><time>2026-04-12T11:38:53.999Z</time></trkpt><trkpt lat="42.12304298020892" lon="12.915613376138767"><ele>822.4285714285714</ele><time>2026-04-12T11:40:25Z</time></trkpt><trkpt lat="42.12301845609106" lon="12.915515133293349"><ele>822.0</ele><time>2026-04-12T11:40:31.999Z</time></trkpt><trkpt lat="42.123002496623826" lon="12.915430338307662"><ele>822.0</ele><time>2026-04-12T11:40:33.999Z</time></trkpt><trkpt lat="42.122977643286184" lon="12.915351455648471"><ele>822.0</ele><time>2026-04-12T11:40:35.999Z</time></trkpt><trkpt lat="42.122922075625034" lon="12.91530642924568"><ele>822.0</ele><time>2026-04-12T11:40:40.999Z</time></trkpt><trkpt lat="42.12288982190048" lon="12.915382939394352"><ele>822.0</ele><time>2026-04-12T11:40:44.999Z</time></trkpt><trkpt lat="42.122916753283604" lon="12.915493714154684"><ele>822.0</ele><time>2026-04-12T11:40:47.999Z</time></trkpt><trkpt lat="42.12294715423702" lon="12.915570043891915"><ele>822.0</ele><time>2026-04-12T11:40:50.999Z</time></trkpt><trkpt lat="42.122976619184044" lon="12.915663465480973"><ele>822.0</ele><time>2026-04-12T11:40:57.999Z</time></trkpt><trkpt lat="42.12302809559202" lon="12.91575933547258"><ele>822.0</ele><time>2026-04-12T11:41:00.999Z</time></trkpt><trkpt lat="42.12307736833209" lon="12.915821052218018"><ele>822.0</ele><time>2026-04-12T11:41:05.999Z</time></trkpt><trkpt lat="42.1230575390835" lon="12.915925781273954"><ele>822.0</ele><time>2026-04-12T11:43:03.999Z</time></trkpt><trkpt lat="42.123000166174045" lon="12.916046958343946"><ele>822.0</ele><time>2026-04-12T11:43:05.999Z</time></trkpt><trkpt lat="42.122957385922575" lon="12.916118087440829"><ele>822.0</ele><time>2026-04-12T11:43:06.999Z</time></trkpt><trkpt lat="42.12287258118597" lon="12.91623892872609"><ele>822.0</ele><time>2026-04-12T11:43:07.999Z</time></trkpt><trkpt lat="42.12279325497694" lon="12.916362087970425"><ele>821.75</ele><time>2026-04-12T11:43:08.999Z</time></trkpt><trkpt lat="42.122722397349996" lon="12.91646485467857"><ele>821.5</ele><time>2026-04-12T11:43:09.999Z</time></trkpt><trkpt lat="42.12264644740646" lon="12.916577064925646"><ele>821.25</ele><time>2026-04-12T11:43:10.999Z</time></trkpt><trkpt lat="42.122560845655336" lon="12.916710318317389"><ele>821.0</ele><time>2026-04-12T11:43:11.999Z</time></trkpt><trkpt lat="42.1224858407809" lon="12.916817697690188"><ele>821.0000000000001</ele><time>2026-04-12T11:43:12.999Z</time></trkpt><trkpt lat="42.12243418196931" lon="12.916900483260514"><ele>821.0</ele><time>2026-04-12T11:43:13.999Z</time></trkpt><trkpt lat="42.12238731611473" lon="12.916974584342372"><ele>821.0</ele><time>2026-04-12T11:43:14.999Z</time></trkpt><trkpt lat="42.1223400807722" lon="12.91703854967808"><ele>821.0</ele><time>2026-04-12T11:43:16.001Z</time></trkpt><trkpt lat="42.12229761858834" lon="12.917107567491623"><ele>821.0000000000001</ele><time>2026-04-12T11:43:17.001Z</time></trkpt><trkpt lat="42.122224026365025" lon="12.917220967171433"><ele>821.0</ele><time>2026-04-12T11:43:19.001Z</time></trkpt><trkpt lat="42.12219631045998" lon="12.917305341227198"><ele>821.5999999999999</ele><time>2026-04-12T11:43:21.001Z</time></trkpt><trkpt lat="42.12221026071851" lon="12.917461412736413"><ele>822.2</ele><time>2026-04-12T11:43:29.001Z</time></trkpt><trkpt lat="42.12224052864777" lon="12.917564707624866"><ele>822.8</ele><time>2026-04-12T11:43:30.001Z</time></trkpt><trkpt lat="42.1222594902099" lon="12.917672312655501"><ele>823.4000000000001</ele><time>2026-04-12T11:43:31.001Z</time></trkpt><trkpt lat="42.12225849962406" lon="12.917808204113044"><ele>824.0</ele><time>2026-04-12T11:43:32.001Z</time></trkpt><trkpt lat="42.12223224824675" lon="12.917966816901535"><ele>825.25</ele><time>2026-04-12T11:43:33.001Z</time></trkpt><trkpt lat="42.122185683774674" lon="12.918117473531444"><ele>826.5</ele><time>2026-04-12T11:43:34.001Z</time></trkpt><trkpt lat="42.12212765885059" lon="12.918268956649863"><ele>827.75</ele><time>2026-04-12T11:43:35.001Z</time></trkpt><trkpt lat="42.1220723989214" lon="12.918426666249488"><ele>829.0</ele><time>2026-04-12T11:43:36.001Z</time></trkpt><trkpt lat="42.122018146875256" lon="12.918584775718893"><ele>829.0</ele><time>2026-04-12T11:43:37.001Z</time></trkpt><trkpt lat="42.12195739056654" lon="12.91874065876545"><ele>829.0</ele><time>2026-04-12T11:43:38Z</time></trkpt><trkpt lat="42.121896209380985" lon="12.91889360943735"><ele>829.0</ele><time>2026-04-12T11:43:39Z</time></trkpt><trkpt lat="42.1218336462355" lon="12.91904711152171"><ele>829.0</ele><time>2026-04-12T11:43:40Z</time></trkpt><trkpt lat="42.12177355170062" lon="12.919199695993674"><ele>827.5</ele><time>2026-04-12T11:43:41Z</time></trkpt><trkpt lat="42.12171385114821" lon="12.91935099612128"><ele>826.0</ele><time>2026-04-12T11:43:42Z</time></trkpt><trkpt lat="42.12165864258611" lon="12.91950514803668"><ele>824.5</ele><time>2026-04-12T11:43:43Z</time></trkpt><trkpt lat="42.121603439843" lon="12.919656817101437"><ele>823.0</ele><time>2026-04-12T11:43:44Z</time></trkpt><trkpt lat="42.12153959728035" lon="12.91981095035376"><ele>828.5</ele><time>2026-04-12T11:43:45Z</time></trkpt><trkpt lat="42.12144621817168" lon="12.919947757598239"><ele>834.0</ele><time>2026-04-12T11:43:46Z</time></trkpt><trkpt lat="42.121338324697184" lon="12.920056003254524"><ele>839.5</ele><time>2026-04-12T11:43:47Z</time></trkpt><trkpt lat="42.121250255833885" lon="12.920157287581235"><ele>845.0</ele><time>2026-04-12T11:43:48Z</time></trkpt><trkpt lat="42.121200439504136" lon="12.920283939892132"><ele>846.0</ele><time>2026-04-12T11:43:49Z</time></trkpt><trkpt lat="42.12119584084438" lon="12.920433555371355"><ele>847.0</ele><time>2026-04-12T11:43:50Z</time></trkpt><trkpt lat="42.12124453748762" lon="12.920592447844076"><ele>848.0</ele><time>2026-04-12T11:43:51Z</time></trkpt><trkpt lat="42.121330340598355" lon="12.92074602336139"><ele>849.0</ele><time>2026-04-12T11:43:52Z</time></trkpt><trkpt lat="42.121431187665564" lon="12.920890976074354"><ele>851.0</ele><time>2026-04-12T11:43:53Z</time></trkpt><trkpt lat="42.12151922430043" lon="12.921032920845153"><ele>853.0</ele><time>2026-04-12T11:43:54Z</time></trkpt><trkpt lat="42.12159829156582" lon="12.92116678828727"><ele>855.0</ele><time>2026-04-12T11:43:55Z</time></trkpt><trkpt lat="42.12167093771426" lon="12.92129730402836"><ele>857.0</ele><time>2026-04-12T11:43:56Z</time></trkpt><trkpt lat="42.121731448031" lon="12.921419383269555"><ele>853.0000000000001</ele><time>2026-04-12T11:43:57Z</time></trkpt><trkpt lat="42.121778050010555" lon="12.921540218391346"><ele>849.0</ele><time>2026-04-12T11:43:58Z</time></trkpt><trkpt lat="42.12179880294146" lon="12.921664716326212"><ele>845.0</ele><time>2026-04-12T11:43:59Z</time></trkpt><trkpt lat="42.12180093326266" lon="12.921783340424607"><ele>841.0</ele><time>2026-04-12T11:44:00Z</time></trkpt><trkpt lat="42.121791795798735" lon="12.921892689006665"><ele>837.0000000000001</ele><time>2026-04-12T11:44:01Z</time></trkpt><trkpt lat="42.121777933268156" lon="12.921993461139538"><ele>833.0</ele><time>2026-04-12T11:44:02Z</time></trkpt><trkpt lat="42.12176277606073" lon="12.922103769030798"><ele>833.0</ele><time>2026-04-12T11:44:03Z</time></trkpt><trkpt lat="42.12174223001426" lon="12.92221587364138"><ele>833.0</ele><time>2026-04-12T11:44:04Z</time></trkpt><trkpt lat="42.121714575120976" lon="12.922333840549378"><ele>833.0</ele><time>2026-04-12T11:44:05Z</time></trkpt><trkpt lat="42.12169509483391" lon="12.922455381056047"><ele>833.0</ele><time>2026-04-12T11:44:06Z</time></trkpt><trkpt lat="42.121679723534506" lon="12.922586218562277"><ele>833.0</ele><time>2026-04-12T11:44:07Z</time></trkpt><trkpt lat="42.121655429609135" lon="12.922711935878798"><ele>832.5</ele><time>2026-04-12T11:44:08Z</time></trkpt><trkpt lat="42.12161613383512" lon="12.922848010169602"><ele>832.0</ele><time>2026-04-12T11:44:09Z</time></trkpt><trkpt lat="42.12155672267774" lon="12.922982480687278"><ele>831.5</ele><time>2026-04-12T11:44:10Z</time></trkpt><trkpt lat="42.121472428204605" lon="12.923102012910416"><ele>831.0</ele><time>2026-04-12T11:44:11Z</time></trkpt><trkpt lat="42.12139903860067" lon="12.923233089044423"><ele>836.1999999999999</ele><time>2026-04-12T11:44:12Z</time></trkpt><trkpt lat="42.121333033775" lon="12.923360687625026"><ele>841.4</ele><time>2026-04-12T11:44:13Z</time></trkpt><trkpt lat="42.1212873634694" lon="12.923492771905288"><ele>846.6</ele><time>2026-04-12T11:44:14Z</time></trkpt><trkpt lat="42.12127150182624" lon="12.923632631819402"><ele>851.8</ele><time>2026-04-12T11:44:15Z</time></trkpt><trkpt lat="42.12129382525701" lon="12.923777523921023"><ele>857.0</ele><time>2026-04-12T11:44:16Z</time></trkpt><trkpt lat="42.12134672191201" lon="12.923911658049692"><ele>858.25</ele><time>2026-04-12T11:44:17Z</time></trkpt><trkpt lat="42.12142346012346" lon="12.924017184697934"><ele>859.5</ele><time>2026-04-12T11:44:18Z</time></trkpt><trkpt lat="42.12151817433564" lon="12.924087382236353"><ele>860.75</ele><time>2026-04-12T11:44:19Z</time></trkpt><trkpt lat="42.12162784019499" lon="12.924138851667209"><ele>862.0</ele><time>2026-04-12T11:44:20Z</time></trkpt><trkpt lat="42.12174018398392" lon="12.924184045582253"><ele>861.0</ele><time>2026-04-12T11:44:21Z</time></trkpt><trkpt lat="42.12184929533081" lon="12.924232405916293"><ele>860.0</ele><time>2026-04-12T11:44:22Z</time></trkpt><trkpt lat="42.12194972580712" lon="12.924285262858964"><ele>859.0</ele><time>2026-04-12T11:44:23Z</time></trkpt><trkpt lat="42.12203881566642" lon="12.924336333219685"><ele>858.0</ele><time>2026-04-12T11:44:24Z</time></trkpt><trkpt lat="42.122117321059655" lon="12.924391822372222"><ele>857.0</ele><time>2026-04-12T11:44:25Z</time></trkpt><trkpt lat="42.122180776820315" lon="12.924465991488795"><ele>857.0</ele><time>2026-04-12T11:44:26Z</time></trkpt><trkpt lat="42.12222393061031" lon="12.924568427944369"><ele>857.0</ele><time>2026-04-12T11:44:27Z</time></trkpt><trkpt lat="42.12224423335096" lon="12.924701144491545"><ele>857.0</ele><time>2026-04-12T11:44:28Z</time></trkpt><trkpt lat="42.12224292656786" lon="12.924840771812171"><ele>857.0</ele><time>2026-04-12T11:44:29Z</time></trkpt><trkpt lat="42.12222432374118" lon="12.924985111218875"><ele>857.0</ele><time>2026-04-12T11:44:30Z</time></trkpt><trkpt lat="42.12223769201825" lon="12.925126203352658"><ele>856.0</ele><time>2026-04-12T11:44:31Z</time></trkpt><trkpt lat="42.12228119790167" lon="12.925260533019564"><ele>855.0</ele><time>2026-04-12T11:44:32Z</time></trkpt><trkpt lat="42.122353779519095" lon="12.925371793109004"><ele>854.0</ele><time>2026-04-12T11:44:33Z</time></trkpt><trkpt lat="42.12244962841407" lon="12.925446871558751"><ele>853.0</ele><time>2026-04-12T11:44:34Z</time></trkpt><trkpt lat="42.12255627124776" lon="12.92549218542488"><ele>852.0</ele><time>2026-04-12T11:44:35Z</time></trkpt><trkpt lat="42.12266867529691" lon="12.925521609528186"><ele>852.0</ele><time>2026-04-12T11:44:36Z</time></trkpt><trkpt lat="42.122782826303684" lon="12.925552371998746"><ele>852.0</ele><time>2026-04-12T11:44:37Z</time></trkpt><trkpt lat="42.1228988217676" lon="12.925574430387234"><ele>852.0</ele><time>2026-04-12T11:44:37.999Z</time></trkpt><trkpt lat="42.12302526148856" lon="12.925588915869586"><ele>852.0</ele><time>2026-04-12T11:44:38.999Z</time></trkpt><trkpt lat="42.12313316450458" lon="12.92562766237288"><ele>852.0</ele><time>2026-04-12T11:44:39.999Z</time></trkpt><trkpt lat="42.123222697100836" lon="12.925703491822818"><ele>852.0</ele><time>2026-04-12T11:44:40.999Z</time></trkpt><trkpt lat="42.123271735924796" lon="12.92581925498087"><ele>852.0</ele><time>2026-04-12T11:44:41.999Z</time></trkpt><trkpt lat="42.12328406079143" lon="12.925938754076954"><ele>852.0</ele><time>2026-04-12T11:44:42.999Z</time></trkpt><trkpt lat="42.1232558322789" lon="12.926074669854092"><ele>852.0</ele><time>2026-04-12T11:44:43.999Z</time></trkpt><trkpt lat="42.12319710709243" lon="12.926214362680282"><ele>851.0</ele><time>2026-04-12T11:44:44.999Z</time></trkpt><trkpt lat="42.123106957566904" lon="12.926350644444794"><ele>850.0</ele><time>2026-04-12T11:44:45.999Z</time></trkpt><trkpt lat="42.12300132917167" lon="12.926470680310018"><ele>849.0</ele><time>2026-04-12T11:44:46.999Z</time></trkpt><trkpt lat="42.12289643705542" lon="12.92659648147007"><ele>848.0</ele><time>2026-04-12T11:44:47.999Z</time></trkpt><trkpt lat="42.12280067002063" lon="12.926713232946005"><ele>847.5</ele><time>2026-04-12T11:44:48.999Z</time></trkpt><trkpt lat="42.12271003593984" lon="12.926820152712605"><ele>847.0</ele><time>2026-04-12T11:44:49.999Z</time></trkpt><trkpt lat="42.122626395223065" lon="12.926926566269534"><ele>846.5</ele><time>2026-04-12T11:44:50.999Z</time></trkpt><trkpt lat="42.12255900242823" lon="12.92704290794615"><ele>846.0</ele><time>2026-04-12T11:44:51.999Z</time></trkpt><trkpt lat="42.12252778452567" lon="12.927183199547894"><ele>846.0</ele><time>2026-04-12T11:44:52.999Z</time></trkpt><trkpt lat="42.122556822816826" lon="12.927342175883823"><ele>846.0</ele><time>2026-04-12T11:44:53.999Z</time></trkpt><trkpt lat="42.1226050177583" lon="12.927489312488275"><ele>846.0</ele><time>2026-04-12T11:44:54.999Z</time></trkpt><trkpt lat="42.122681410397526" lon="12.927603789688488"><ele>846.0</ele><time>2026-04-12T11:44:55.999Z</time></trkpt><trkpt lat="42.12278720354957" lon="12.92768451606011"><ele>844.75</ele><time>2026-04-12T11:44:56.999Z</time></trkpt><trkpt lat="42.12291020171907" lon="12.927749141021138"><ele>843.5</ele><time>2026-04-12T11:44:57.999Z</time></trkpt><trkpt lat="42.12304078486504" lon="12.92780844160137"><ele>842.25</ele><time>2026-04-12T11:44:58.999Z</time></trkpt><trkpt lat="42.12317062573282" lon="12.927872246309736"><ele>841.0</ele><time>2026-04-12T11:44:59.999Z</time></trkpt><trkpt lat="42.123295282356594" lon="12.927932704467063"><ele>841.0</ele><time>2026-04-12T11:45:00.999Z</time></trkpt><trkpt lat="42.12341809587151" lon="12.927991761442847"><ele>841.0</ele><time>2026-04-12T11:45:01.999Z</time></trkpt><trkpt lat="42.12353946891217" lon="12.928053415696633"><ele>841.0</ele><time>2026-04-12T11:45:02.999Z</time></trkpt><trkpt lat="42.12366122856833" lon="12.928118288528134"><ele>841.0</ele><time>2026-04-12T11:45:03.999Z</time></trkpt><trkpt lat="42.12378322861333" lon="12.928180547051166"><ele>841.0</ele><time>2026-04-12T11:45:04.999Z</time></trkpt><trkpt lat="42.12390589684074" lon="12.92824227398986"><ele>841.0</ele><time>2026-04-12T11:45:05.999Z</time></trkpt><trkpt lat="42.124027916122856" lon="12.928301917322116"><ele>841.0</ele><time>2026-04-12T11:45:06.999Z</time></trkpt><trkpt lat="42.124151556693946" lon="12.928356771147698"><ele>841.0</ele><time>2026-04-12T11:45:07.999Z</time></trkpt><trkpt lat="42.12427269060011" lon="12.928415188853926"><ele>837.0</ele><time>2026-04-12T11:45:08.999Z</time></trkpt><trkpt lat="42.124399932170014" lon="12.928476897632327"><ele>833.0</ele><time>2026-04-12T11:45:09.999Z</time></trkpt><trkpt lat="42.12453121029067" lon="12.9285402880027"><ele>829.0</ele><time>2026-04-12T11:45:10.999Z</time></trkpt><trkpt lat="42.12466769615919" lon="12.9285967905503"><ele>825.0</ele><time>2026-04-12T11:45:11.999Z</time></trkpt><trkpt lat="42.12480821057293" lon="12.92864548411322"><ele>825.0</ele><time>2026-04-12T11:45:12.999Z</time></trkpt><trkpt lat="42.12494282772386" lon="12.928699212457396"><ele>825.0</ele><time>2026-04-12T11:45:13.999Z</time></trkpt><trkpt lat="42.12507524878544" lon="12.92875282919104"><ele>825.0</ele><time>2026-04-12T11:45:14.999Z</time></trkpt><trkpt lat="42.1252057851844" lon="12.928798412222385"><ele>825.0</ele><time>2026-04-12T11:45:15.999Z</time></trkpt><trkpt lat="42.12533105029457" lon="12.928828555263118"><ele>825.0</ele><time>2026-04-12T11:45:16.999Z</time></trkpt><trkpt lat="42.125453701968496" lon="12.92885049262793"><ele>825.0</ele><time>2026-04-12T11:45:17.999Z</time></trkpt><trkpt lat="42.12557260232384" lon="12.92887379489648"><ele>825.0</ele><time>2026-04-12T11:45:18.999Z</time></trkpt><trkpt lat="42.125689072331205" lon="12.928915591759012"><ele>825.0</ele><time>2026-04-12T11:45:19.999Z</time></trkpt><trkpt lat="42.1257962365819" lon="12.928997786183755"><ele>826.5</ele><time>2026-04-12T11:45:21Z</time></trkpt><trkpt lat="42.12589059420495" lon="12.929125630152745"><ele>828.0</ele><time>2026-04-12T11:45:22Z</time></trkpt><trkpt lat="42.125968999288695" lon="12.929267761434746"><ele>829.5</ele><time>2026-04-12T11:45:23Z</time></trkpt><trkpt lat="42.12603138398757" lon="12.929423955252336"><ele>831.0</ele><time>2026-04-12T11:45:24Z</time></trkpt><trkpt lat="42.12609605249478" lon="12.929564547069221"><ele>827.5</ele><time>2026-04-12T11:45:25Z</time></trkpt><trkpt lat="42.12618051753581" lon="12.929679966438618"><ele>824.0</ele><time>2026-04-12T11:45:26Z</time></trkpt><trkpt lat="42.12628734089946" lon="12.929770229881163"><ele>820.5</ele><time>2026-04-12T11:45:27Z</time></trkpt><trkpt lat="42.12640996288721" lon="12.92982848119324"><ele>817.0</ele><time>2026-04-12T11:45:28Z</time></trkpt><trkpt lat="42.12654089575675" lon="12.929856078267694"><ele>817.25</ele><time>2026-04-12T11:45:29Z</time></trkpt><trkpt lat="42.12666499024356" lon="12.92989448351992"><ele>817.5</ele><time>2026-04-12T11:45:30Z</time></trkpt><trkpt lat="42.126782872785114" lon="12.929941986571478"><ele>817.75</ele><time>2026-04-12T11:45:31Z</time></trkpt><trkpt lat="42.12688520953822" lon="12.93001031756412"><ele>818.0</ele><time>2026-04-12T11:45:32Z</time></trkpt><trkpt lat="42.12696997085816" lon="12.930111181797942"><ele>818.0</ele><time>2026-04-12T11:45:33Z</time></trkpt><trkpt lat="42.12702416824333" lon="12.930241583562415"><ele>818.0</ele><time>2026-04-12T11:45:34Z</time></trkpt><trkpt lat="42.12704001578341" lon="12.930394258062957"><ele>818.0</ele><time>2026-04-12T11:45:35Z</time></trkpt><trkpt lat="42.127018638157374" lon="12.930552302240205"><ele>818.0</ele><time>2026-04-12T11:45:36Z</time></trkpt><trkpt lat="42.12696531613238" lon="12.930727753048094"><ele>818.75</ele><time>2026-04-12T11:45:37Z</time></trkpt><trkpt lat="42.12691122770263" lon="12.930910705145752"><ele>819.5</ele><time>2026-04-12T11:45:38Z</time></trkpt><trkpt lat="42.12686562525883" lon="12.9310993053358"><ele>820.25</ele><time>2026-04-12T11:45:39Z</time></trkpt><trkpt lat="42.12681961928441" lon="12.931284441963657"><ele>821.0</ele><time>2026-04-12T11:45:40Z</time></trkpt><trkpt lat="42.12676925000771" lon="12.931465065838124"><ele>821.0</ele><time>2026-04-12T11:45:41Z</time></trkpt><trkpt lat="42.12671884410414" lon="12.931647142614677"><ele>821.0</ele><time>2026-04-12T11:45:42Z</time></trkpt><trkpt lat="42.12668456484534" lon="12.931838853951346"><ele>821.0</ele><time>2026-04-12T11:45:43Z</time></trkpt><trkpt lat="42.1266849629952" lon="12.93204377711485"><ele>821.0</ele><time>2026-04-12T11:45:44Z</time></trkpt><trkpt lat="42.12671783438006" lon="12.932250355485799"><ele>820.75</ele><time>2026-04-12T11:45:45Z</time></trkpt><trkpt lat="42.126721224097714" lon="12.93245308207512"><ele>820.5</ele><time>2026-04-12T11:45:46Z</time></trkpt><trkpt lat="42.12668135280279" lon="12.932638703219821"><ele>820.25</ele><time>2026-04-12T11:45:47Z</time></trkpt><trkpt lat="42.126627397669665" lon="12.932805656354079"><ele>820.0</ele><time>2026-04-12T11:45:48Z</time></trkpt><trkpt lat="42.126607346397655" lon="12.932970142017727"><ele>820.0</ele><time>2026-04-12T11:45:49Z</time></trkpt><trkpt lat="42.12663919053955" lon="12.933129595783496"><ele>820.0</ele><time>2026-04-12T11:45:50Z</time></trkpt><trkpt lat="42.12672666262886" lon="12.933259044413061"><ele>820.0</ele><time>2026-04-12T11:45:51Z</time></trkpt><trkpt lat="42.126845631861066" lon="12.933357488663987"><ele>820.0</ele><time>2026-04-12T11:45:52Z</time></trkpt><trkpt lat="42.12696219686863" lon="12.933469748640595"><ele>817.0</ele><time>2026-04-12T11:45:53Z</time></trkpt><trkpt lat="42.127035941887975" lon="12.933622371292202"><ele>814.0</ele><time>2026-04-12T11:45:54Z</time></trkpt><trkpt lat="42.127075374018474" lon="12.933807381073049"><ele>811.0</ele><time>2026-04-12T11:45:55Z</time></trkpt><trkpt lat="42.12709701324129" lon="12.934005377439272"><ele>808.0</ele><time>2026-04-12T11:45:56Z</time></trkpt><trkpt lat="42.12712952026745" lon="12.934198471744503"><ele>806.0</ele><time>2026-04-12T11:45:57Z</time></trkpt><trkpt lat="42.127175261875266" lon="12.934370720549467"><ele>804.0</ele><time>2026-04-12T11:45:58Z</time></trkpt><trkpt lat="42.1272383604119" lon="12.93452505611653"><ele>802.0</ele><time>2026-04-12T11:45:59Z</time></trkpt><trkpt lat="42.12732754537483" lon="12.93467811749207"><ele>800.0</ele><time>2026-04-12T11:46:00Z</time></trkpt><trkpt lat="42.12729316368959" lon="12.934785709369228"><ele>803.5</ele><time>2026-04-12T11:46:01Z</time></trkpt><trkpt lat="42.127397788721716" lon="12.934870428359966"><ele>807.0</ele><time>2026-04-12T11:46:02Z</time></trkpt><trkpt lat="42.12751272732185" lon="12.934912326197212"><ele>810.5</ele><time>2026-04-12T11:46:03Z</time></trkpt><trkpt lat="42.12763425361401" lon="12.934899445637502"><ele>814.0</ele><time>2026-04-12T11:46:04Z</time></trkpt><trkpt lat="42.1277570156332" lon="12.934876451738761"><ele>814.0</ele><time>2026-04-12T11:46:05Z</time></trkpt><trkpt lat="42.12787568298503" lon="12.93487634743661"><ele>814.0</ele><time>2026-04-12T11:46:06Z</time></trkpt><trkpt lat="42.12799768096895" lon="12.934890875859331"><ele>814.0</ele><time>2026-04-12T11:46:07Z</time></trkpt><trkpt lat="42.12812997535241" lon="12.934896457474677"><ele>814.0</ele><time>2026-04-12T11:46:08Z</time></trkpt><trkpt lat="42.12824576179196" lon="12.934902016372083"><ele>815.0</ele><time>2026-04-12T11:46:09Z</time></trkpt><trkpt lat="42.12835975450549" lon="12.93491745864132"><ele>816.0</ele><time>2026-04-12T11:46:10Z</time></trkpt><trkpt lat="42.12846817445821" lon="12.934944960191757"><ele>817.0</ele><time>2026-04-12T11:46:11Z</time></trkpt><trkpt lat="42.12856261442079" lon="12.934987170044407"><ele>818.0</ele><time>2026-04-12T11:46:12Z</time></trkpt><trkpt lat="42.128636740607796" lon="12.935048862859656"><ele>819.0</ele><time>2026-04-12T11:46:13Z</time></trkpt><trkpt lat="42.12868567692721" lon="12.935128673710178"><ele>816.3333333333334</ele><time>2026-04-12T11:46:14Z</time></trkpt><trkpt lat="42.128719458763854" lon="12.93523139509766"><ele>813.6666666666667</ele><time>2026-04-12T11:46:15Z</time></trkpt><trkpt lat="42.12873561471438" lon="12.93533851142282"><ele>811.0</ele><time>2026-04-12T11:46:16Z</time></trkpt><trkpt lat="42.12875020906202" lon="12.935439860704221"><ele>808.3333333333334</ele><time>2026-04-12T11:46:17Z</time></trkpt><trkpt lat="42.12876609740313" lon="12.935536785845747"><ele>805.6666666666667</ele><time>2026-04-12T11:46:18Z</time></trkpt><trkpt lat="42.12878335176607" lon="12.93564083035358"><ele>803.0</ele><time>2026-04-12T11:46:19Z</time></trkpt><trkpt lat="42.12881201558668" lon="12.935743499524165"><ele>803.0000000000001</ele><time>2026-04-12T11:46:20Z</time></trkpt><trkpt lat="42.12885368790265" lon="12.9358383278357"><ele>803.0</ele><time>2026-04-12T11:46:21Z</time></trkpt><trkpt lat="42.128903192271075" lon="12.935934240183824"><ele>803.0</ele><time>2026-04-12T11:46:22Z</time></trkpt><trkpt lat="42.12895124151627" lon="12.93603313100429"><ele>803.0</ele><time>2026-04-12T11:46:23Z</time></trkpt><trkpt lat="42.129003172652496" lon="12.936128166961842"><ele>803.0000000000001</ele><time>2026-04-12T11:46:24Z</time></trkpt><trkpt lat="42.129055503562846" lon="12.936226802382302"><ele>803.0</ele><time>2026-04-12T11:46:25Z</time></trkpt><trkpt lat="42.12910755206874" lon="12.936330838208484"><ele>802.8333333333334</ele><time>2026-04-12T11:46:26Z</time></trkpt><trkpt lat="42.12916369490087" lon="12.93643293620195"><ele>802.6666666666667</ele><time>2026-04-12T11:46:27Z</time></trkpt><trkpt lat="42.12921954746229" lon="12.936531349183925"><ele>802.5</ele><time>2026-04-12T11:46:28Z</time></trkpt><trkpt lat="42.12927376019387" lon="12.936627381805645"><ele>802.3333333333333</ele><time>2026-04-12T11:46:29Z</time></trkpt><trkpt lat="42.1293280649772" lon="12.93671806653665"><ele>802.1666666666666</ele><time>2026-04-12T11:46:30Z</time></trkpt><trkpt lat="42.12938397158662" lon="12.936802257497488"><ele>802.0</ele><time>2026-04-12T11:46:31Z</time></trkpt><trkpt lat="42.129443402884654" lon="12.93687793225818"><ele>801.9999999999999</ele><time>2026-04-12T11:46:32Z</time></trkpt><trkpt lat="42.12951209074097" lon="12.93694847442543"><ele>802.0</ele><time>2026-04-12T11:46:33Z</time></trkpt><trkpt lat="42.12958709483747" lon="12.93701252393456"><ele>802.0</ele><time>2026-04-12T11:46:33.999Z</time></trkpt><trkpt lat="42.12966586011665" lon="12.937071436981983"><ele>802.0</ele><time>2026-04-12T11:46:34.999Z</time></trkpt><trkpt lat="42.12974070579352" lon="12.937138521308807"><ele>801.9999999999999</ele><time>2026-04-12T11:46:35.999Z</time></trkpt><trkpt lat="42.12981166582457" lon="12.937201651622138"><ele>802.0</ele><time>2026-04-12T11:46:36.999Z</time></trkpt><trkpt lat="42.1298810791269" lon="12.93725957410531"><ele>801.4999999999999</ele><time>2026-04-12T11:46:37.999Z</time></trkpt><trkpt lat="42.12994653691559" lon="12.937315020284144"><ele>801.0</ele><time>2026-04-12T11:46:38.999Z</time></trkpt><trkpt lat="42.13000254430079" lon="12.937362260627909"><ele>800.5</ele><time>2026-04-12T11:46:39.999Z</time></trkpt><trkpt lat="42.13008134882283" lon="12.937414446035623"><ele>800.0</ele><time>2026-04-12T11:46:41.999Z</time></trkpt><trkpt lat="42.13014423123831" lon="12.937472210110416"><ele>799.4999999999999</ele><time>2026-04-12T11:46:44.999Z</time></trkpt><trkpt lat="42.13019142310292" lon="12.937540061870694"><ele>799.0</ele><time>2026-04-12T11:49:48.999Z</time></trkpt><trkpt lat="42.13019843590788" lon="12.937655673006105"><ele>799.0</ele><time>2026-04-12T11:49:50.999Z</time></trkpt><trkpt lat="42.13013902719277" lon="12.937730321121858"><ele>799.0</ele><time>2026-04-12T11:49:52.999Z</time></trkpt><trkpt lat="42.13001842961056" lon="12.937751933981504"><ele>799.0</ele><time>2026-04-12T11:49:54.999Z</time></trkpt><trkpt lat="42.12991520228643" lon="12.937742251787897"><ele>799.0</ele><time>2026-04-12T11:49:56.999Z</time></trkpt><trkpt lat="42.12979873282122" lon="12.937685289726472"><ele>799.0</ele><time>2026-04-12T11:49:58.999Z</time></trkpt><trkpt lat="42.12973494960417" lon="12.937630175740434"><ele>799.6</ele><time>2026-04-12T11:49:59.999Z</time></trkpt><trkpt lat="42.129677109036145" lon="12.937563111862156"><ele>800.2</ele><time>2026-04-12T11:50:00.999Z</time></trkpt><trkpt lat="42.12962205584284" lon="12.937465108769096"><ele>800.8000000000001</ele><time>2026-04-12T11:50:01.999Z</time></trkpt><trkpt lat="42.12955223654865" lon="12.937379272462445"><ele>801.4000000000001</ele><time>2026-04-12T11:50:02.999Z</time></trkpt><trkpt lat="42.12946937382917" lon="12.93730497157216"><ele>802.0</ele><time>2026-04-12T11:50:03.999Z</time></trkpt><trkpt lat="42.12939830906355" lon="12.937193739371919"><ele>802.0</ele><time>2026-04-12T11:50:04.999Z</time></trkpt><trkpt lat="42.129304721722015" lon="12.937112156708702"><ele>802.0</ele><time>2026-04-12T11:50:05.999Z</time></trkpt><trkpt lat="42.12921535192724" lon="12.937015772370428"><ele>802.0</ele><time>2026-04-12T11:50:06.999Z</time></trkpt><trkpt lat="42.129119179900854" lon="12.936924449663838"><ele>802.0</ele><time>2026-04-12T11:50:07.999Z</time></trkpt><trkpt lat="42.12902045969156" lon="12.936830924708852"><ele>799.0</ele><time>2026-04-12T11:50:08.999Z</time></trkpt><trkpt lat="42.12893124508406" lon="12.936723713275834"><ele>796.0</ele><time>2026-04-12T11:50:09.999Z</time></trkpt><trkpt lat="42.12882434906946" lon="12.936658262161087"><ele>793.0</ele><time>2026-04-12T11:50:10.999Z</time></trkpt><trkpt lat="42.12872813502072" lon="12.936574301589443"><ele>790.0</ele><time>2026-04-12T11:50:11.999Z</time></trkpt><trkpt lat="42.128631553166414" lon="12.93648714118013"><ele>790.0</ele><time>2026-04-12T11:50:12.999Z</time></trkpt><trkpt lat="42.12855307853997" lon="12.936355119042007"><ele>790.0</ele><time>2026-04-12T11:50:13.999Z</time></trkpt><trkpt lat="42.12848660384506" lon="12.936204031223168"><ele>790.0</ele><time>2026-04-12T11:50:14.999Z</time></trkpt><trkpt lat="42.12841909477555" lon="12.936064933069485"><ele>790.0</ele><time>2026-04-12T11:50:15.999Z</time></trkpt><trkpt lat="42.12836554344887" lon="12.93592861695231"><ele>791.25</ele><time>2026-04-12T11:50:16.999Z</time></trkpt><trkpt lat="42.12830641070383" lon="12.93580748637818"><ele>792.5</ele><time>2026-04-12T11:50:17.999Z</time></trkpt><trkpt lat="42.12823395799017" lon="12.935683053213394"><ele>793.75</ele><time>2026-04-12T11:50:18.999Z</time></trkpt><trkpt lat="42.128089392683606" lon="12.93567166676208"><ele>795.0</ele><time>2026-04-12T11:50:19.999Z</time></trkpt><trkpt lat="42.127984020097706" lon="12.93563683832505"><ele>795.0</ele><time>2026-04-12T11:50:20.999Z</time></trkpt><trkpt lat="42.127874716081585" lon="12.935647692832971"><ele>795.0</ele><time>2026-04-12T11:50:21.999Z</time></trkpt><trkpt lat="42.12776610417987" lon="12.935689475961315"><ele>795.0</ele><time>2026-04-12T11:50:22.999Z</time></trkpt><trkpt lat="42.127664683402806" lon="12.935769149278725"><ele>795.0</ele><time>2026-04-12T11:50:23.999Z</time></trkpt><trkpt lat="42.12757482887044" lon="12.935877788180763"><ele>791.6</ele><time>2026-04-12T11:50:24.999Z</time></trkpt><trkpt lat="42.12749475784216" lon="12.935979935178642"><ele>788.2</ele><time>2026-04-12T11:50:25.999Z</time></trkpt><trkpt lat="42.127405966582494" lon="12.936064843040288"><ele>784.8</ele><time>2026-04-12T11:50:26.999Z</time></trkpt><trkpt lat="42.127309315756264" lon="12.936127056392538"><ele>781.4</ele><time>2026-04-12T11:50:27.999Z</time></trkpt><trkpt lat="42.12720428300079" lon="12.93615926000046"><ele>778.0</ele><time>2026-04-12T11:50:28.999Z</time></trkpt><trkpt lat="42.127091142037685" lon="12.936169877396248"><ele>777.5</ele><time>2026-04-12T11:50:29.999Z</time></trkpt><trkpt lat="42.12697758118397" lon="12.936141324621845"><ele>777.0</ele><time>2026-04-12T11:50:30.999Z</time></trkpt><trkpt lat="42.12685608155458" lon="12.936069154734415"><ele>776.5</ele><time>2026-04-12T11:50:31.999Z</time></trkpt><trkpt lat="42.126731521623306" lon="12.9359669482934"><ele>776.0</ele><time>2026-04-12T11:50:32.999Z</time></trkpt><trkpt lat="42.12659647655396" lon="12.935843106972618"><ele>775.25</ele><time>2026-04-12T11:50:33.999Z</time></trkpt><trkpt lat="42.12646283481111" lon="12.935731217604845"><ele>774.5</ele><time>2026-04-12T11:50:34.999Z</time></trkpt><trkpt lat="42.12635528957752" lon="12.935608381786498"><ele>773.75</ele><time>2026-04-12T11:50:35.999Z</time></trkpt><trkpt lat="42.12624646008863" lon="12.935504759756771"><ele>773.0</ele><time>2026-04-12T11:50:36.999Z</time></trkpt><trkpt lat="42.126158758027195" lon="12.935375567815498"><ele>773.0</ele><time>2026-04-12T11:50:37.999Z</time></trkpt><trkpt lat="42.12607830316862" lon="12.935217856802993"><ele>773.0</ele><time>2026-04-12T11:50:38.999Z</time></trkpt><trkpt lat="42.12602305783388" lon="12.935024361529694"><ele>773.0</ele><time>2026-04-12T11:50:39.998Z</time></trkpt><trkpt lat="42.12595480026129" lon="12.934848021731122"><ele>773.0</ele><time>2026-04-12T11:50:40.998Z</time></trkpt><trkpt lat="42.12588635444341" lon="12.934674030221323"><ele>773.5</ele><time>2026-04-12T11:50:41.998Z</time></trkpt><trkpt lat="42.12580392953484" lon="12.934516280599118"><ele>774.0</ele><time>2026-04-12T11:50:42.998Z</time></trkpt><trkpt lat="42.12570174805236" lon="12.934379494974277"><ele>774.5</ele><time>2026-04-12T11:50:43.998Z</time></trkpt><trkpt lat="42.12557944792158" lon="12.934266635772314"><ele>775.0</ele><time>2026-04-12T11:50:44.998Z</time></trkpt><trkpt lat="42.12544699161956" lon="12.934157679076582"><ele>771.5</ele><time>2026-04-12T11:50:45.998Z</time></trkpt><trkpt lat="42.12534154349108" lon="12.934029510670863"><ele>768.0</ele><time>2026-04-12T11:50:46.998Z</time></trkpt><trkpt lat="42.12525765287326" lon="12.93389064792772"><ele>764.5</ele><time>2026-04-12T11:50:47.998Z</time></trkpt><trkpt lat="42.125212052626736" lon="12.933727258274718"><ele>761.0</ele><time>2026-04-12T11:50:48.998Z</time></trkpt><trkpt lat="42.12517026329648" lon="12.933543383613294"><ele>762.75</ele><time>2026-04-12T11:50:49.998Z</time></trkpt><trkpt lat="42.12512228241035" lon="12.933359398624292"><ele>764.5</ele><time>2026-04-12T11:50:50.998Z</time></trkpt><trkpt lat="42.12508684042177" lon="12.933200328098103"><ele>766.25</ele><time>2026-04-12T11:50:51.998Z</time></trkpt><trkpt lat="42.12502742872421" lon="12.933063502877458"><ele>768.0</ele><time>2026-04-12T11:50:52.998Z</time></trkpt><trkpt lat="42.124942052150864" lon="12.932959451283214"><ele>769.0</ele><time>2026-04-12T11:50:53.998Z</time></trkpt><trkpt lat="42.12484012222318" lon="12.932893846183184"><ele>770.0</ele><time>2026-04-12T11:50:54.998Z</time></trkpt><trkpt lat="42.12472700806523" lon="12.93288832333723"><ele>771.0</ele><time>2026-04-12T11:50:55.998Z</time></trkpt><trkpt lat="42.12461811429863" lon="12.932929062116155"><ele>772.0</ele><time>2026-04-12T11:50:56.998Z</time></trkpt><trkpt lat="42.12452264066789" lon="12.93299768671515"><ele>773.0</ele><time>2026-04-12T11:50:57.998Z</time></trkpt><trkpt lat="42.12444547309465" lon="12.933103930968244"><ele>773.0</ele><time>2026-04-12T11:50:58.998Z</time></trkpt><trkpt lat="42.124395435359354" lon="12.933237328790598"><ele>773.0</ele><time>2026-04-12T11:50:59.998Z</time></trkpt><trkpt lat="42.124368391243166" lon="12.933409605960316"><ele>773.0</ele><time>2026-04-12T11:51:00.998Z</time></trkpt><trkpt lat="42.124365822336685" lon="12.933631385487974"><ele>773.0</ele><time>2026-04-12T11:51:01.998Z</time></trkpt><trkpt lat="42.124344295397336" lon="12.933833342996266"><ele>771.3333333333334</ele><time>2026-04-12T11:51:02.998Z</time></trkpt><trkpt lat="42.12432602124388" lon="12.934040795950336"><ele>769.6666666666667</ele><time>2026-04-12T11:51:03.998Z</time></trkpt><trkpt lat="42.12430907882125" lon="12.934240666498093"><ele>768.0</ele><time>2026-04-12T11:51:04.998Z</time></trkpt><trkpt lat="42.12428715681401" lon="12.934436105031446"><ele>765.75</ele><time>2026-04-12T11:51:05.998Z</time></trkpt><trkpt lat="42.124264215884864" lon="12.93462178659064"><ele>763.5</ele><time>2026-04-12T11:51:06.998Z</time></trkpt><trkpt lat="42.1242512539247" lon="12.934807537656559"><ele>761.25</ele><time>2026-04-12T11:51:07.998Z</time></trkpt><trkpt lat="42.12426016509194" lon="12.935008584423453"><ele>759.0</ele><time>2026-04-12T11:51:08.998Z</time></trkpt><trkpt lat="42.12429110874382" lon="12.935216904419509"><ele>759.0</ele><time>2026-04-12T11:51:09.998Z</time></trkpt><trkpt lat="42.124337600290936" lon="12.935426730983243"><ele>759.0</ele><time>2026-04-12T11:51:10.998Z</time></trkpt><trkpt lat="42.12439363836473" lon="12.93563814124347"><ele>759.0</ele><time>2026-04-12T11:51:11.998Z</time></trkpt><trkpt lat="42.124456519358" lon="12.93584763404082"><ele>762.6666666666667</ele><time>2026-04-12T11:51:12.998Z</time></trkpt><trkpt lat="42.12451832498812" lon="12.936053301111947"><ele>766.3333333333334</ele><time>2026-04-12T11:51:13.998Z</time></trkpt><trkpt lat="42.12458261198418" lon="12.936263941577316"><ele>770.0</ele><time>2026-04-12T11:51:14.998Z</time></trkpt><trkpt lat="42.12464900281312" lon="12.936473731906323"><ele>770.0</ele><time>2026-04-12T11:51:15.998Z</time></trkpt><trkpt lat="42.12472092023478" lon="12.93669547040149"><ele>770.0</ele><time>2026-04-12T11:51:16.998Z</time></trkpt><trkpt lat="42.12479652696836" lon="12.936921805460408"><ele>770.0</ele><time>2026-04-12T11:51:17.998Z</time></trkpt><trkpt lat="42.12487595607354" lon="12.937149098333549"><ele>764.0</ele><time>2026-04-12T11:51:18.998Z</time></trkpt><trkpt lat="42.12495721619868" lon="12.937374484131633"><ele>758.0</ele><time>2026-04-12T11:51:19.998Z</time></trkpt><trkpt lat="42.12503889558976" lon="12.937600315167595"><ele>752.0</ele><time>2026-04-12T11:51:20.998Z</time></trkpt><trkpt lat="42.12511873916709" lon="12.937823301710852"><ele>752.0</ele><time>2026-04-12T11:51:21.998Z</time></trkpt><trkpt lat="42.125198938984084" lon="12.93803732931889"><ele>752.0</ele><time>2026-04-12T11:51:22.998Z</time></trkpt><trkpt lat="42.12527527001876" lon="12.938248708751987"><ele>752.0</ele><time>2026-04-12T11:51:23.998Z</time></trkpt><trkpt lat="42.12534903461684" lon="12.938458480457731"><ele>752.0</ele><time>2026-04-12T11:51:24.998Z</time></trkpt><trkpt lat="42.12542146883521" lon="12.93866219605583"><ele>752.0</ele><time>2026-04-12T11:51:25.998Z</time></trkpt><trkpt lat="42.12549360337423" lon="12.9388610652386"><ele>752.0</ele><time>2026-04-12T11:51:26.998Z</time></trkpt><trkpt lat="42.12556125359868" lon="12.939055445716379"><ele>754.3333333333333</ele><time>2026-04-12T11:51:27.998Z</time></trkpt><trkpt lat="42.12562907668062" lon="12.939246640239801"><ele>756.6666666666666</ele><time>2026-04-12T11:51:28.998Z</time></trkpt><trkpt lat="42.125699585241826" lon="12.939428629247077"><ele>759.0</ele><time>2026-04-12T11:51:29.998Z</time></trkpt><trkpt lat="42.125774270536716" lon="12.93960663502326"><ele>757.3333333333334</ele><time>2026-04-12T11:51:30.998Z</time></trkpt><trkpt lat="42.12585397255709" lon="12.93979544766158"><ele>755.6666666666667</ele><time>2026-04-12T11:51:31.998Z</time></trkpt><trkpt lat="42.125946783092424" lon="12.939986696254454"><ele>754.0</ele><time>2026-04-12T11:51:32.998Z</time></trkpt><trkpt lat="42.12605221541244" lon="12.940172214103825"><ele>754.0</ele><time>2026-04-12T11:51:33.998Z</time></trkpt><trkpt lat="42.12616316888952" lon="12.940360068606088"><ele>754.0</ele><time>2026-04-12T11:51:34.998Z</time></trkpt><trkpt lat="42.1262509658237" lon="12.940558554860381"><ele>754.0</ele><time>2026-04-12T11:51:35.998Z</time></trkpt><trkpt lat="42.12632772880168" lon="12.940761420469185"><ele>754.0</ele><time>2026-04-12T11:51:36.998Z</time></trkpt><trkpt lat="42.12639572383398" lon="12.940962824166728"><ele>754.0</ele><time>2026-04-12T11:51:37.999Z</time></trkpt><trkpt lat="42.126455936291954" lon="12.941158978859647"><ele>754.0</ele><time>2026-04-12T11:51:38.999Z</time></trkpt><trkpt lat="42.12651104744407" lon="12.941351359858468"><ele>754.0</ele><time>2026-04-12T11:51:39.999Z</time></trkpt><trkpt lat="42.12655432485507" lon="12.941541853224201"><ele>754.0</ele><time>2026-04-12T11:51:40.999Z</time></trkpt><trkpt lat="42.126586637129215" lon="12.941744675011599"><ele>754.0</ele><time>2026-04-12T11:51:41.999Z</time></trkpt><trkpt lat="42.126585919651504" lon="12.941968351066107"><ele>743.6666666666667</ele><time>2026-04-12T11:51:42.999Z</time></trkpt><trkpt lat="42.1266030106964" lon="12.942203006557458"><ele>733.3333333333334</ele><time>2026-04-12T11:51:43.999Z</time></trkpt><trkpt lat="42.126574871666584" lon="12.942424328829837"><ele>723.0</ele><time>2026-04-12T11:51:44.999Z</time></trkpt><trkpt lat="42.12657752148065" lon="12.942620698529586"><ele>722.75</ele><time>2026-04-12T11:51:45.999Z</time></trkpt><trkpt lat="42.12656874241625" lon="12.94280123698785"><ele>722.5</ele><time>2026-04-12T11:51:46.999Z</time></trkpt><trkpt lat="42.12658810908066" lon="12.942986343945385"><ele>722.25</ele><time>2026-04-12T11:51:47.999Z</time></trkpt><trkpt lat="42.1266395436958" lon="12.943180839742372"><ele>722.0</ele><time>2026-04-12T11:51:48.999Z</time></trkpt><trkpt lat="42.12670833289682" lon="12.943369246555726"><ele>723.3333333333333</ele><time>2026-04-12T11:51:49.999Z</time></trkpt><trkpt lat="42.12679640999613" lon="12.943555198848758"><ele>724.6666666666666</ele><time>2026-04-12T11:51:50.999Z</time></trkpt><trkpt lat="42.12689031093482" lon="12.943733999690783"><ele>726.0</ele><time>2026-04-12T11:51:51.999Z</time></trkpt><trkpt lat="42.1269791278425" lon="12.943908696498747"><ele>726.0</ele><time>2026-04-12T11:51:52.999Z</time></trkpt><trkpt lat="42.12706960889515" lon="12.944077315375464"><ele>726.0</ele><time>2026-04-12T11:51:53.999Z</time></trkpt><trkpt lat="42.127133845643336" lon="12.944251147207417"><ele>726.0</ele><time>2026-04-12T11:51:54.999Z</time></trkpt><trkpt lat="42.12721792857727" lon="12.944391748562634"><ele>726.0</ele><time>2026-04-12T11:51:55.999Z</time></trkpt><trkpt lat="42.12729234949107" lon="12.944536327006727"><ele>726.25</ele><time>2026-04-12T11:51:56.999Z</time></trkpt><trkpt lat="42.127362508812276" lon="12.944677538846173"><ele>726.5</ele><time>2026-04-12T11:51:57.999Z</time></trkpt><trkpt lat="42.12742612044133" lon="12.944820679768979"><ele>726.75</ele><time>2026-04-12T11:51:58.999Z</time></trkpt><trkpt lat="42.1274619566103" lon="12.944961332821952"><ele>727.0</ele><time>2026-04-12T11:51:59.999Z</time></trkpt><trkpt lat="42.127461684742876" lon="12.945113662090975"><ele>724.25</ele><time>2026-04-12T11:52:00.999Z</time></trkpt><trkpt lat="42.127436876731885" lon="12.945283762505516"><ele>721.5</ele><time>2026-04-12T11:52:01.999Z</time></trkpt><trkpt lat="42.12740234325679" lon="12.945448413293285"><ele>718.75</ele><time>2026-04-12T11:52:02.999Z</time></trkpt><trkpt lat="42.12735183912511" lon="12.945591721377287"><ele>716.0</ele><time>2026-04-12T11:52:03.999Z</time></trkpt><trkpt lat="42.12725942956015" lon="12.945699487579162"><ele>716.0</ele><time>2026-04-12T11:52:04.999Z</time></trkpt><trkpt lat="42.12714801144886" lon="12.945805655180418"><ele>716.0</ele><time>2026-04-12T11:52:05.999Z</time></trkpt><trkpt lat="42.127018672123775" lon="12.945904033165837"><ele>716.0</ele><time>2026-04-12T11:52:06.999Z</time></trkpt><trkpt lat="42.12688692477154" lon="12.946016470154127"><ele>716.0</ele><time>2026-04-12T11:52:07.999Z</time></trkpt><trkpt lat="42.12676535059106" lon="12.946114380514917"><ele>717.25</ele><time>2026-04-12T11:52:08.999Z</time></trkpt><trkpt lat="42.12666200097093" lon="12.94623080031963"><ele>718.5</ele><time>2026-04-12T11:52:09.999Z</time></trkpt><trkpt lat="42.12656974616127" lon="12.94636356127965"><ele>719.75</ele><time>2026-04-12T11:52:10.999Z</time></trkpt><trkpt lat="42.12648306698841" lon="12.946520029487575"><ele>721.0</ele><time>2026-04-12T11:52:11.999Z</time></trkpt><trkpt lat="42.126418681838615" lon="12.946709992691433"><ele>716.6666666666667</ele><time>2026-04-12T11:52:12.999Z</time></trkpt><trkpt lat="42.12637561040912" lon="12.946919581747112"><ele>712.3333333333334</ele><time>2026-04-12T11:52:13.999Z</time></trkpt><trkpt lat="42.126347734874415" lon="12.947124968340848"><ele>708.0</ele><time>2026-04-12T11:52:14.999Z</time></trkpt><trkpt lat="42.12630485541862" lon="12.94729838023988"><ele>708.0</ele><time>2026-04-12T11:52:15.999Z</time></trkpt><trkpt lat="42.12623290159373" lon="12.947454629708142"><ele>708.0</ele><time>2026-04-12T11:52:16.999Z</time></trkpt><trkpt lat="42.12614227641663" lon="12.94758948261713"><ele>708.0</ele><time>2026-04-12T11:52:17.999Z</time></trkpt><trkpt lat="42.12601858645739" lon="12.947679881532741"><ele>708.0</ele><time>2026-04-12T11:52:18.999Z</time></trkpt><trkpt lat="42.125894484761986" lon="12.947782416030115"><ele>707.5</ele><time>2026-04-12T11:52:19.999Z</time></trkpt><trkpt lat="42.125753517873214" lon="12.947847207536014"><ele>707.0</ele><time>2026-04-12T11:52:20.999Z</time></trkpt><trkpt lat="42.12561784888223" lon="12.947901003183935"><ele>706.5</ele><time>2026-04-12T11:52:21.999Z</time></trkpt><trkpt lat="42.12548943943676" lon="12.947922308696906"><ele>706.0</ele><time>2026-04-12T11:52:22.999Z</time></trkpt><trkpt lat="42.12535665514323" lon="12.947923757509237"><ele>706.0</ele><time>2026-04-12T11:52:23.999Z</time></trkpt><trkpt lat="42.12522580290522" lon="12.947927652355883"><ele>706.0</ele><time>2026-04-12T11:52:24.999Z</time></trkpt><trkpt lat="42.12509053464698" lon="12.947953829290915"><ele>706.0</ele><time>2026-04-12T11:52:25.999Z</time></trkpt><trkpt lat="42.12495981980261" lon="12.948035785293962"><ele>706.0</ele><time>2026-04-12T11:52:26.999Z</time></trkpt><trkpt lat="42.124835273581205" lon="12.948132469139582"><ele>700.6666666666667</ele><time>2026-04-12T11:52:27.999Z</time></trkpt><trkpt lat="42.12471553269014" lon="12.948249113524385"><ele>695.3333333333334</ele><time>2026-04-12T11:52:28.999Z</time></trkpt><trkpt lat="42.12460138375439" lon="12.948374028968436"><ele>690.0</ele><time>2026-04-12T11:52:29.999Z</time></trkpt><trkpt lat="42.124509498959654" lon="12.948567175311368"><ele>690.0</ele><time>2026-04-12T11:52:30.999Z</time></trkpt><trkpt lat="42.12442319325286" lon="12.948765613770826"><ele>690.0</ele><time>2026-04-12T11:52:31.999Z</time></trkpt><trkpt lat="42.12432946477036" lon="12.948961783856843"><ele>690.0</ele><time>2026-04-12T11:52:32.999Z</time></trkpt><trkpt lat="42.124246849438734" lon="12.949157173628059"><ele>691.3333333333334</ele><time>2026-04-12T11:52:33.999Z</time></trkpt><trkpt lat="42.12417137230514" lon="12.949370287980763"><ele>692.6666666666667</ele><time>2026-04-12T11:52:34.999Z</time></trkpt><trkpt lat="42.12410800028265" lon="12.949596924457888"><ele>694.0</ele><time>2026-04-12T11:52:35.999Z</time></trkpt><trkpt lat="42.12405153976168" lon="12.949829293255844"><ele>690.3333333333334</ele><time>2026-04-12T11:52:36.999Z</time></trkpt><trkpt lat="42.12399718895588" lon="12.950047008938315"><ele>686.6666666666666</ele><time>2026-04-12T11:52:37.999Z</time></trkpt><trkpt lat="42.12394421537074" lon="12.950257957523764"><ele>683.0</ele><time>2026-04-12T11:52:38.999Z</time></trkpt><trkpt lat="42.12386230327272" lon="12.950445027363003"><ele>683.0</ele><time>2026-04-12T11:52:39.999Z</time></trkpt><trkpt lat="42.12376590454505" lon="12.950610499689368"><ele>683.0</ele><time>2026-04-12T11:52:40.999Z</time></trkpt><trkpt lat="42.12365983120016" lon="12.950771421721116"><ele>683.0</ele><time>2026-04-12T11:52:41.999Z</time></trkpt><trkpt lat="42.12355598918165" lon="12.950927519301192"><ele>682.3333333333333</ele><time>2026-04-12T11:52:42.999Z</time></trkpt><trkpt lat="42.12344899689835" lon="12.951082224301807"><ele>681.6666666666666</ele><time>2026-04-12T11:52:43.999Z</time></trkpt><trkpt lat="42.123337599954915" lon="12.951218132933992"><ele>681.0</ele><time>2026-04-12T11:52:44.999Z</time></trkpt><trkpt lat="42.12321911175255" lon="12.951329796682211"><ele>681.0</ele><time>2026-04-12T11:52:45.999Z</time></trkpt><trkpt lat="42.12309432176626" lon="12.951430960627416"><ele>681.0</ele><time>2026-04-12T11:52:46.999Z</time></trkpt><trkpt lat="42.12295980814761" lon="12.951511744306789"><ele>681.0</ele><time>2026-04-12T11:52:47.999Z</time></trkpt><trkpt lat="42.12281694738628" lon="12.951582179224014"><ele>681.0</ele><time>2026-04-12T11:52:48.999Z</time></trkpt><trkpt lat="42.12267507572431" lon="12.951659250056439"><ele>680.3333333333334</ele><time>2026-04-12T11:52:49.999Z</time></trkpt><trkpt lat="42.12254247813352" lon="12.951759674739934"><ele>679.6666666666667</ele><time>2026-04-12T11:52:50.999Z</time></trkpt><trkpt lat="42.122404170812395" lon="12.951845309967617"><ele>679.0</ele><time>2026-04-12T11:52:51.999Z</time></trkpt><trkpt lat="42.12227259559885" lon="12.951967736902883"><ele>679.0</ele><time>2026-04-12T11:52:52.999Z</time></trkpt><trkpt lat="42.122136092979666" lon="12.952097356411324"><ele>679.0</ele><time>2026-04-12T11:52:53.999Z</time></trkpt><trkpt lat="42.12199281881228" lon="12.9522293432941"><ele>679.0</ele><time>2026-04-12T11:52:54.999Z</time></trkpt><trkpt lat="42.12184804014119" lon="12.952365906429835"><ele>679.0</ele><time>2026-04-12T11:52:55.999Z</time></trkpt><trkpt lat="42.121706994928495" lon="12.952508638301104"><ele>679.0</ele><time>2026-04-12T11:52:56.999Z</time></trkpt><trkpt lat="42.12157422736776" lon="12.952658802283068"><ele>679.0</ele><time>2026-04-12T11:52:57.998Z</time></trkpt><trkpt lat="42.12144713409542" lon="12.952806953853896"><ele>678.3333333333334</ele><time>2026-04-12T11:52:58.998Z</time></trkpt><trkpt lat="42.12132480107095" lon="12.952954612841355"><ele>677.6666666666666</ele><time>2026-04-12T11:52:59.998Z</time></trkpt><trkpt lat="42.121207399593395" lon="12.953106032025746"><ele>677.0</ele><time>2026-04-12T11:53:00.998Z</time></trkpt><trkpt lat="42.12109332115813" lon="12.953258143978982"><ele>675.6666666666666</ele><time>2026-04-12T11:53:01.998Z</time></trkpt><trkpt lat="42.12097486022483" lon="12.953408617725858"><ele>674.3333333333334</ele><time>2026-04-12T11:53:02.998Z</time></trkpt><trkpt lat="42.12085088692443" lon="12.953560714001258"><ele>673.0</ele><time>2026-04-12T11:53:03.998Z</time></trkpt><trkpt lat="42.12072514006915" lon="12.953718250587421"><ele>673.0</ele><time>2026-04-12T11:53:04.998Z</time></trkpt><trkpt lat="42.12060037031933" lon="12.953879595611436"><ele>673.0</ele><time>2026-04-12T11:53:05.998Z</time></trkpt><trkpt lat="42.120471786509086" lon="12.954040405252712"><ele>673.0</ele><time>2026-04-12T11:53:06.998Z</time></trkpt><trkpt lat="42.12034241000722" lon="12.954197106927808"><ele>676.6666666666667</ele><time>2026-04-12T11:53:07.998Z</time></trkpt><trkpt lat="42.120214825837465" lon="12.954358030052077"><ele>680.3333333333334</ele><time>2026-04-12T11:53:08.998Z</time></trkpt><trkpt lat="42.12008758463106" lon="12.954517295996299"><ele>684.0</ele><time>2026-04-12T11:53:09.998Z</time></trkpt><trkpt lat="42.11995877460509" lon="12.954675351376556"><ele>685.3333333333334</ele><time>2026-04-12T11:53:10.998Z</time></trkpt><trkpt lat="42.11982636515779" lon="12.954825765675976"><ele>686.6666666666667</ele><time>2026-04-12T11:53:11.998Z</time></trkpt><trkpt lat="42.119691691116486" lon="12.954971869050734"><ele>688.0</ele><time>2026-04-12T11:53:12.998Z</time></trkpt><trkpt lat="42.11955164359127" lon="12.955112272130286"><ele>688.0</ele><time>2026-04-12T11:53:13.998Z</time></trkpt><trkpt lat="42.11941757555829" lon="12.9552476347631"><ele>688.0</ele><time>2026-04-12T11:53:14.998Z</time></trkpt><trkpt lat="42.11927034257702" lon="12.955367184871344"><ele>688.0</ele><time>2026-04-12T11:53:15.998Z</time></trkpt><trkpt lat="42.11911624570964" lon="12.955478134801897"><ele>683.6666666666667</ele><time>2026-04-12T11:53:16.998Z</time></trkpt><trkpt lat="42.1189585111282" lon="12.955566737436635"><ele>679.3333333333334</ele><time>2026-04-12T11:53:17.998Z</time></trkpt><trkpt lat="42.11879941144968" lon="12.95567783018618"><ele>675.0</ele><time>2026-04-12T11:53:18.998Z</time></trkpt><trkpt lat="42.11864961398011" lon="12.95580708974828"><ele>674.6666666666666</ele><time>2026-04-12T11:53:19.998Z</time></trkpt><trkpt lat="42.11849220837926" lon="12.955919256765897"><ele>674.3333333333333</ele><time>2026-04-12T11:53:20.998Z</time></trkpt><trkpt lat="42.1183361475327" lon="12.956038448610455"><ele>674.0</ele><time>2026-04-12T11:53:21.998Z</time></trkpt><trkpt lat="42.11818157025347" lon="12.956162201427475"><ele>674.0</ele><time>2026-04-12T11:53:22.998Z</time></trkpt><trkpt lat="42.11803461237213" lon="12.95628154152853"><ele>674.0</ele><time>2026-04-12T11:53:23.998Z</time></trkpt><trkpt lat="42.11789466771486" lon="12.956406786393856"><ele>674.0</ele><time>2026-04-12T11:53:24.998Z</time></trkpt><trkpt lat="42.11776332599651" lon="12.956546211477441"><ele>674.0</ele><time>2026-04-12T11:53:25.998Z</time></trkpt><trkpt lat="42.11763746199308" lon="12.956696004619149"><ele>674.0</ele><time>2026-04-12T11:53:26.998Z</time></trkpt><trkpt lat="42.11750594045232" lon="12.956853089497585"><ele>674.0</ele><time>2026-04-12T11:53:27.998Z</time></trkpt><trkpt lat="42.11737393765219" lon="12.957013642588281"><ele>672.3333333333333</ele><time>2026-04-12T11:53:28.998Z</time></trkpt><trkpt lat="42.11724783198028" lon="12.957171555918329"><ele>670.6666666666666</ele><time>2026-04-12T11:53:29.998Z</time></trkpt><trkpt lat="42.1171112207407" lon="12.957292210168116"><ele>669.0</ele><time>2026-04-12T11:53:30.998Z</time></trkpt><trkpt lat="42.116970458289686" lon="12.957412290120903"><ele>669.0</ele><time>2026-04-12T11:53:31.998Z</time></trkpt><trkpt lat="42.11682104923826" lon="12.95752051135323"><ele>669.0</ele><time>2026-04-12T11:53:32.998Z</time></trkpt><trkpt lat="42.116666844768545" lon="12.957598303572249"><ele>669.0</ele><time>2026-04-12T11:53:33.998Z</time></trkpt><trkpt lat="42.11651119086242" lon="12.957655809821272"><ele>671.6666666666666</ele><time>2026-04-12T11:53:34.998Z</time></trkpt><trkpt lat="42.11634713686947" lon="12.957693081660047"><ele>674.3333333333333</ele><time>2026-04-12T11:53:35.998Z</time></trkpt><trkpt lat="42.11617456505945" lon="12.957703355811297"><ele>677.0</ele><time>2026-04-12T11:53:36.998Z</time></trkpt><trkpt lat="42.11600077997628" lon="12.957719186041825"><ele>677.0</ele><time>2026-04-12T11:53:37.998Z</time></trkpt><trkpt lat="42.11583046488367" lon="12.957754987569324"><ele>677.0</ele><time>2026-04-12T11:53:38.998Z</time></trkpt><trkpt lat="42.11566477000176" lon="12.957769831780636"><ele>677.0</ele><time>2026-04-12T11:53:39.998Z</time></trkpt><trkpt lat="42.115506271899825" lon="12.957781554859576"><ele>674.3333333333333</ele><time>2026-04-12T11:53:40.998Z</time></trkpt><trkpt lat="42.115354518237766" lon="12.957794059954463"><ele>671.6666666666666</ele><time>2026-04-12T11:53:41.998Z</time></trkpt><trkpt lat="42.115201830854346" lon="12.95782633576658"><ele>669.0</ele><time>2026-04-12T11:53:42.998Z</time></trkpt><trkpt lat="42.11504957169009" lon="12.957903011686584"><ele>668.0</ele><time>2026-04-12T11:53:44Z</time></trkpt><trkpt lat="42.11489829538098" lon="12.958005730310187"><ele>667.0</ele><time>2026-04-12T11:53:45Z</time></trkpt><trkpt lat="42.11474365501681" lon="12.958131994436503"><ele>666.0</ele><time>2026-04-12T11:53:46Z</time></trkpt><trkpt lat="42.114580571507425" lon="12.958252582645263"><ele>668.3333333333334</ele><time>2026-04-12T11:53:47Z</time></trkpt><trkpt lat="42.11441405181569" lon="12.958374665102768"><ele>670.6666666666667</ele><time>2026-04-12T11:53:48Z</time></trkpt><trkpt lat="42.11424872334535" lon="12.958497917131222"><ele>673.0</ele><time>2026-04-12T11:53:49Z</time></trkpt><trkpt lat="42.11407847608027" lon="12.958623757515202"><ele>669.3333333333334</ele><time>2026-04-12T11:53:50Z</time></trkpt><trkpt lat="42.11390888359512" lon="12.958747921860919"><ele>665.6666666666666</ele><time>2026-04-12T11:53:51Z</time></trkpt><trkpt lat="42.113737703748306" lon="12.95886734725942"><ele>662.0</ele><time>2026-04-12T11:53:52Z</time></trkpt><trkpt lat="42.11357268913468" lon="12.958999975323756"><ele>662.0</ele><time>2026-04-12T11:53:53Z</time></trkpt><trkpt lat="42.11340792268504" lon="12.959124675094815"><ele>662.0</ele><time>2026-04-12T11:53:54Z</time></trkpt><trkpt lat="42.11324700492057" lon="12.959243287883494"><ele>662.0</ele><time>2026-04-12T11:53:55Z</time></trkpt><trkpt lat="42.11308908519222" lon="12.959360173298373"><ele>662.3333333333333</ele><time>2026-04-12T11:53:56Z</time></trkpt><trkpt lat="42.11293555855287" lon="12.959476580193085"><ele>662.6666666666666</ele><time>2026-04-12T11:53:57Z</time></trkpt><trkpt lat="42.11278375505789" lon="12.959587986964031"><ele>663.0</ele><time>2026-04-12T11:53:58Z</time></trkpt><trkpt lat="42.11263246053763" lon="12.95969392110636"><ele>663.0</ele><time>2026-04-12T11:53:59Z</time></trkpt><trkpt lat="42.11248625247854" lon="12.959795572387288"><ele>663.0</ele><time>2026-04-12T11:54:00Z</time></trkpt><trkpt lat="42.11235357553875" lon="12.959897377367755"><ele>663.0</ele><time>2026-04-12T11:54:01Z</time></trkpt><trkpt lat="42.1122326752183" lon="12.959988014970916"><ele>661.25</ele><time>2026-04-12T11:54:02Z</time></trkpt><trkpt lat="42.112125561049" lon="12.960072461864153"><ele>659.5</ele><time>2026-04-12T11:54:03Z</time></trkpt><trkpt lat="42.11202104674005" lon="12.960162241474896"><ele>657.75</ele><time>2026-04-12T11:54:04Z</time></trkpt><trkpt lat="42.111929444649455" lon="12.960279429116008"><ele>656.0</ele><time>2026-04-12T11:54:05Z</time></trkpt><trkpt lat="42.1118677637193" lon="12.96043176194801"><ele>656.0</ele><time>2026-04-12T11:54:06Z</time></trkpt><trkpt lat="42.11183560761435" lon="12.960599765856989"><ele>656.0</ele><time>2026-04-12T11:54:07Z</time></trkpt><trkpt lat="42.11182948886627" lon="12.96077245788955"><ele>656.0</ele><time>2026-04-12T11:54:08Z</time></trkpt><trkpt lat="42.11185425963104" lon="12.960960173005002"><ele>656.0</ele><time>2026-04-12T11:54:08.999Z</time></trkpt><trkpt lat="42.11189831856452" lon="12.961157818048358"><ele>655.0</ele><time>2026-04-12T11:54:09.999Z</time></trkpt><trkpt lat="42.111946126214974" lon="12.961361821983735"><ele>654.0</ele><time>2026-04-12T11:54:10.999Z</time></trkpt><trkpt lat="42.11199629705081" lon="12.961571481027594"><ele>653.0</ele><time>2026-04-12T11:54:11.999Z</time></trkpt><trkpt lat="42.11204428031469" lon="12.961780390879404"><ele>652.0</ele><time>2026-04-12T11:54:12.999Z</time></trkpt><trkpt lat="42.112089263109695" lon="12.961980774528769"><ele>651.0</ele><time>2026-04-12T11:54:13.999Z</time></trkpt><trkpt lat="42.11214085156689" lon="12.962172159880344"><ele>650.0</ele><time>2026-04-12T11:54:14.999Z</time></trkpt><trkpt lat="42.11220891850125" lon="12.962360770682364"><ele>649.0</ele><time>2026-04-12T11:54:15.999Z</time></trkpt><trkpt lat="42.112280435711774" lon="12.962548546160741"><ele>648.0</ele><time>2026-04-12T11:54:16.999Z</time></trkpt><trkpt lat="42.112348717492225" lon="12.962732064387168"><ele>647.0</ele><time>2026-04-12T11:54:17.999Z</time></trkpt><trkpt lat="42.11242289297322" lon="12.962914771197484"><ele>646.75</ele><time>2026-04-12T11:54:18.999Z</time></trkpt><trkpt lat="42.11249631957126" lon="12.963097256229371"><ele>646.5</ele><time>2026-04-12T11:54:19.999Z</time></trkpt><trkpt lat="42.11256678100667" lon="12.96327828872263"><ele>646.25</ele><time>2026-04-12T11:54:20.999Z</time></trkpt><trkpt lat="42.112629071613284" lon="12.96345261267989"><ele>646.0</ele><time>2026-04-12T11:54:21.999Z</time></trkpt><trkpt lat="42.11268687603824" lon="12.963614651659139"><ele>646.0</ele><time>2026-04-12T11:54:22.999Z</time></trkpt><trkpt lat="42.11274129433558" lon="12.96375974759977"><ele>646.0</ele><time>2026-04-12T11:54:23.999Z</time></trkpt><trkpt lat="42.112778118194136" lon="12.963906479541398"><ele>646.0</ele><time>2026-04-12T11:54:24.999Z</time></trkpt><trkpt lat="42.11278384244826" lon="12.964051641216873"><ele>646.0</ele><time>2026-04-12T11:54:25.999Z</time></trkpt><trkpt lat="42.1127508012349" lon="12.964192339134877"><ele>645.5</ele><time>2026-04-12T11:54:26.999Z</time></trkpt><trkpt lat="42.11267921573045" lon="12.964322981404628"><ele>645.0</ele><time>2026-04-12T11:54:27.999Z</time></trkpt><trkpt lat="42.11258972570499" lon="12.964427357387999"><ele>644.5</ele><time>2026-04-12T11:54:28.999Z</time></trkpt><trkpt lat="42.11249315086898" lon="12.964507775290452"><ele>644.0</ele><time>2026-04-12T11:54:29.999Z</time></trkpt><trkpt lat="42.11239968402054" lon="12.964572191278581"><ele>644.8000000000001</ele><time>2026-04-12T11:54:30.999Z</time></trkpt><trkpt lat="42.112313877817144" lon="12.964629555049424"><ele>645.6</ele><time>2026-04-12T11:54:31.999Z</time></trkpt><trkpt lat="42.112225656667704" lon="12.964682609668776"><ele>646.4</ele><time>2026-04-12T11:54:32.999Z</time></trkpt><trkpt lat="42.11212893576333" lon="12.964719231976801"><ele>647.2</ele><time>2026-04-12T11:54:33.999Z</time></trkpt><trkpt lat="42.11201356738325" lon="12.964716210722813"><ele>648.0</ele><time>2026-04-12T11:54:34.999Z</time></trkpt><trkpt lat="42.11188475729768" lon="12.964678588861803"><ele>648.0</ele><time>2026-04-12T11:54:35.999Z</time></trkpt><trkpt lat="42.11175122547561" lon="12.96459461543129"><ele>648.0</ele><time>2026-04-12T11:54:36.999Z</time></trkpt><trkpt lat="42.11160919728002" lon="12.964472569110638"><ele>648.0</ele><time>2026-04-12T11:54:37.999Z</time></trkpt><trkpt lat="42.11146544805937" lon="12.964360499344647"><ele>648.5</ele><time>2026-04-12T11:54:38.999Z</time></trkpt><trkpt lat="42.111324977771716" lon="12.96426616718436"><ele>649.0</ele><time>2026-04-12T11:54:39.999Z</time></trkpt><trkpt lat="42.11119648015087" lon="12.964181865656961"><ele>649.5</ele><time>2026-04-12T11:54:40.999Z</time></trkpt><trkpt lat="42.11107627326523" lon="12.964098124192004"><ele>650.0</ele><time>2026-04-12T11:54:41.999Z</time></trkpt><trkpt lat="42.110953909782275" lon="12.964022038940243"><ele>650.0</ele><time>2026-04-12T11:54:42.999Z</time></trkpt><trkpt lat="42.110826286918474" lon="12.96395930026888"><ele>650.0</ele><time>2026-04-12T11:54:43.999Z</time></trkpt><trkpt lat="42.110692796926166" lon="12.963921056105393"><ele>650.0</ele><time>2026-04-12T11:54:44.999Z</time></trkpt><trkpt lat="42.110543938506595" lon="12.963917427835229"><ele>650.0</ele><time>2026-04-12T11:54:45.999Z</time></trkpt><trkpt lat="42.110388894349676" lon="12.963940806611406"><ele>650.3333333333333</ele><time>2026-04-12T11:54:46.999Z</time></trkpt><trkpt lat="42.11022967130913" lon="12.963980349620753"><ele>650.6666666666666</ele><time>2026-04-12T11:54:47.999Z</time></trkpt><trkpt lat="42.11006955207699" lon="12.964014845832384"><ele>651.0</ele><time>2026-04-12T11:54:48.999Z</time></trkpt><trkpt lat="42.109903234362" lon="12.96402821693407"><ele>653.0</ele><time>2026-04-12T11:54:49.999Z</time></trkpt><trkpt lat="42.10974123596087" lon="12.964015498481464"><ele>655.0</ele><time>2026-04-12T11:54:50.999Z</time></trkpt><trkpt lat="42.10958438969858" lon="12.963976953573546"><ele>657.0</ele><time>2026-04-12T11:54:51.999Z</time></trkpt><trkpt lat="42.109426944021" lon="12.9639136522875"><ele>657.0</ele><time>2026-04-12T11:54:52.999Z</time></trkpt><trkpt lat="42.10927307629191" lon="12.963838643407682"><ele>657.0</ele><time>2026-04-12T11:54:53.999Z</time></trkpt><trkpt lat="42.1091255013085" lon="12.963760787675332"><ele>657.0</ele><time>2026-04-12T11:54:54.999Z</time></trkpt><trkpt lat="42.10898967952948" lon="12.963691814349714"><ele>658.5</ele><time>2026-04-12T11:54:55.999Z</time></trkpt><trkpt lat="42.10886098361166" lon="12.963649646166637"><ele>660.0</ele><time>2026-04-12T11:54:56.999Z</time></trkpt><trkpt lat="42.108737532813734" lon="12.963632200276699"><ele>661.5</ele><time>2026-04-12T11:54:57.999Z</time></trkpt><trkpt lat="42.10861405223341" lon="12.96364466547858"><ele>663.0</ele><time>2026-04-12T11:54:58.999Z</time></trkpt><trkpt lat="42.108484944024326" lon="12.963688956743292"><ele>663.0</ele><time>2026-04-12T11:54:59.999Z</time></trkpt><trkpt lat="42.10834910697536" lon="12.963759435583775"><ele>663.0</ele><time>2026-04-12T11:55:00.999Z</time></trkpt><trkpt lat="42.108208825479295" lon="12.963847764769588"><ele>663.0</ele><time>2026-04-12T11:55:01.999Z</time></trkpt><trkpt lat="42.108062755022225" lon="12.963937205052092"><ele>662.3333333333334</ele><time>2026-04-12T11:55:02.999Z</time></trkpt><trkpt lat="42.107909117848685" lon="12.964031020645857"><ele>661.6666666666667</ele><time>2026-04-12T11:55:03.999Z</time></trkpt><trkpt lat="42.107750895896935" lon="12.9641268847254"><ele>661.0</ele><time>2026-04-12T11:55:04.999Z</time></trkpt><trkpt lat="42.10759259172278" lon="12.964221217302905"><ele>663.6666666666667</ele><time>2026-04-12T11:55:05.999Z</time></trkpt><trkpt lat="42.107437076515716" lon="12.96431428024646"><ele>666.3333333333334</ele><time>2026-04-12T11:55:06.999Z</time></trkpt><trkpt lat="42.10728746135174" lon="12.96440612671585"><ele>669.0</ele><time>2026-04-12T11:55:07.999Z</time></trkpt><trkpt lat="42.10714169561377" lon="12.964493570986102"><ele>669.0</ele><time>2026-04-12T11:55:08.999Z</time></trkpt><trkpt lat="42.10700692202677" lon="12.964572388761693"><ele>669.0</ele><time>2026-04-12T11:55:09.999Z</time></trkpt><trkpt lat="42.106870141869024" lon="12.964656977526726"><ele>669.0</ele><time>2026-04-12T11:55:10.999Z</time></trkpt><trkpt lat="42.106737417368414" lon="12.964733096372758"><ele>669.0</ele><time>2026-04-12T11:55:11.999Z</time></trkpt><trkpt lat="42.106611448012224" lon="12.964809624965591"><ele>669.75</ele><time>2026-04-12T11:55:12.999Z</time></trkpt><trkpt lat="42.106497681690726" lon="12.964884790090954"><ele>670.5</ele><time>2026-04-12T11:55:13.999Z</time></trkpt><trkpt lat="42.10639461677369" lon="12.964970859507606"><ele>671.25</ele><time>2026-04-12T11:55:14.998Z</time></trkpt><trkpt lat="42.106299755085075" lon="12.96508092179317"><ele>672.0</ele><time>2026-04-12T11:55:15.998Z</time></trkpt><trkpt lat="42.10622964790706" lon="12.965231532978668"><ele>672.0</ele><time>2026-04-12T11:55:16.998Z</time></trkpt><trkpt lat="42.106178516615245" lon="12.965396981347386"><ele>672.0</ele><time>2026-04-12T11:55:17.998Z</time></trkpt><trkpt lat="42.106149108149054" lon="12.965571976803432"><ele>672.0</ele><time>2026-04-12T11:55:18.998Z</time></trkpt><trkpt lat="42.10615019732501" lon="12.965751016694506"><ele>672.0</ele><time>2026-04-12T11:55:19.998Z</time></trkpt><trkpt lat="42.1062008237837" lon="12.965940838854298"><ele>674.0</ele><time>2026-04-12T11:55:20.998Z</time></trkpt><trkpt lat="42.106286108572306" lon="12.966120682444402"><ele>676.0</ele><time>2026-04-12T11:55:21.998Z</time></trkpt><trkpt lat="42.106400775811444" lon="12.966272598362009"><ele>678.0</ele><time>2026-04-12T11:55:22.998Z</time></trkpt><trkpt lat="42.10651978296428" lon="12.966408991535621"><ele>679.0</ele><time>2026-04-12T11:55:23.998Z</time></trkpt><trkpt lat="42.106600884397956" lon="12.966581014544618"><ele>680.0</ele><time>2026-04-12T11:55:24.998Z</time></trkpt><trkpt lat="42.10665008627902" lon="12.966784324409046"><ele>681.0</ele><time>2026-04-12T11:55:25.998Z</time></trkpt><trkpt lat="42.10666040964343" lon="12.967011332259052"><ele>682.6666666666666</ele><time>2026-04-12T11:55:26.998Z</time></trkpt><trkpt lat="42.10666341451991" lon="12.967235537884763"><ele>684.3333333333333</ele><time>2026-04-12T11:55:27.998Z</time></trkpt><trkpt lat="42.106638145165796" lon="12.967465153884094"><ele>686.0</ele><time>2026-04-12T11:55:28.998Z</time></trkpt><trkpt lat="42.106591805150465" lon="12.967697406098202"><ele>687.0</ele><time>2026-04-12T11:55:29.998Z</time></trkpt><trkpt lat="42.10652620848568" lon="12.967924743905584"><ele>688.0</ele><time>2026-04-12T11:55:30.998Z</time></trkpt><trkpt lat="42.106455334372086" lon="12.968141667654455"><ele>689.0</ele><time>2026-04-12T11:55:31.998Z</time></trkpt><trkpt lat="42.1063977038082" lon="12.968344413957494"><ele>691.0</ele><time>2026-04-12T11:55:32.998Z</time></trkpt><trkpt lat="42.106347353141445" lon="12.968530108138664"><ele>693.0</ele><time>2026-04-12T11:55:33.998Z</time></trkpt><trkpt lat="42.106289195139084" lon="12.968686615014636"><ele>695.0</ele><time>2026-04-12T11:55:34.998Z</time></trkpt><trkpt lat="42.106204029399855" lon="12.968816380329919"><ele>697.0</ele><time>2026-04-12T11:55:35.998Z</time></trkpt><trkpt lat="42.10610569288984" lon="12.968905007491433"><ele>697.0</ele><time>2026-04-12T11:55:36.998Z</time></trkpt><trkpt lat="42.10598808337604" lon="12.96896084760426"><ele>697.0</ele><time>2026-04-12T11:55:37.998Z</time></trkpt><trkpt lat="42.10586104225328" lon="12.968990104350809"><ele>697.0</ele><time>2026-04-12T11:55:38.998Z</time></trkpt><trkpt lat="42.10574154244676" lon="12.969019911706608"><ele>697.0</ele><time>2026-04-12T11:55:39.998Z</time></trkpt><trkpt lat="42.10563018108387" lon="12.96909339241028"><ele>698.0</ele><time>2026-04-12T11:55:40.998Z</time></trkpt><trkpt lat="42.105531728393316" lon="12.96922772818602"><ele>699.0</ele><time>2026-04-12T11:55:41.998Z</time></trkpt><trkpt lat="42.105439144386594" lon="12.969393014370917"><ele>700.0</ele><time>2026-04-12T11:55:42.998Z</time></trkpt><trkpt lat="42.105339014413914" lon="12.969561470088411"><ele>700.0</ele><time>2026-04-12T11:55:43.998Z</time></trkpt><trkpt lat="42.10523469076099" lon="12.969731375602878"><ele>700.0</ele><time>2026-04-12T11:55:44.998Z</time></trkpt><trkpt lat="42.10512444133814" lon="12.96987352013849"><ele>700.0</ele><time>2026-04-12T11:55:45.998Z</time></trkpt><trkpt lat="42.10502564920346" lon="12.970003375340081"><ele>703.3333333333334</ele><time>2026-04-12T11:55:46.998Z</time></trkpt><trkpt lat="42.10477877728612" lon="12.97016542828423"><ele>706.6666666666666</ele><time>2026-04-12T11:55:48.998Z</time></trkpt><trkpt lat="42.10462752661437" lon="12.970197343426962"><ele>710.0</ele><time>2026-04-12T11:55:50Z</time></trkpt><trkpt lat="42.10447381497745" lon="12.970188265873876"><ele>710.0</ele><time>2026-04-12T11:55:51Z</time></trkpt><trkpt lat="42.10433712888427" lon="12.970166678918645"><ele>710.0</ele><time>2026-04-12T11:55:52Z</time></trkpt><trkpt lat="42.10421290837307" lon="12.970149544470976"><ele>710.0</ele><time>2026-04-12T11:55:53Z</time></trkpt><trkpt lat="42.10409525614845" lon="12.97021401965294"><ele>710.0</ele><time>2026-04-12T11:55:54Z</time></trkpt><trkpt lat="42.10399682969503" lon="12.970311487830658"><ele>710.5</ele><time>2026-04-12T11:55:55Z</time></trkpt><trkpt lat="42.103907972923054" lon="12.97041015629902"><ele>711.0</ele><time>2026-04-12T11:55:56Z</time></trkpt><trkpt lat="42.103868623016" lon="12.970586533934958"><ele>711.5</ele><time>2026-04-12T11:55:57Z</time></trkpt><trkpt lat="42.1038447050689" lon="12.97077759319864"><ele>712.0</ele><time>2026-04-12T11:55:58Z</time></trkpt><trkpt lat="42.103805849898336" lon="12.970973379487155"><ele>712.0</ele><time>2026-04-12T11:55:59Z</time></trkpt><trkpt lat="42.10375505794589" lon="12.971175098972788"><ele>712.0</ele><time>2026-04-12T11:56:00Z</time></trkpt><trkpt lat="42.10365484159168" lon="12.971349095134293"><ele>712.0</ele><time>2026-04-12T11:56:01Z</time></trkpt><trkpt lat="42.103533385590296" lon="12.971533351124545"><ele>712.6666666666667</ele><time>2026-04-12T11:56:02Z</time></trkpt><trkpt lat="42.10341982249008" lon="12.971733680580023"><ele>713.3333333333334</ele><time>2026-04-12T11:56:03Z</time></trkpt><trkpt lat="42.10328822300092" lon="12.971922267871069"><ele>714.0</ele><time>2026-04-12T11:56:04Z</time></trkpt><trkpt lat="42.103155988109116" lon="12.972118734854773"><ele>714.0</ele><time>2026-04-12T11:56:05Z</time></trkpt><trkpt lat="42.10302464030809" lon="12.972320860298728"><ele>714.0</ele><time>2026-04-12T11:56:06Z</time></trkpt><trkpt lat="42.1028919573427" lon="12.972523565872171"><ele>714.0</ele><time>2026-04-12T11:56:07Z</time></trkpt><trkpt lat="42.10275864842745" lon="12.972718887778116"><ele>715.0</ele><time>2026-04-12T11:56:08Z</time></trkpt><trkpt lat="42.10261933321509" lon="12.972922959111562"><ele>716.0</ele><time>2026-04-12T11:56:09Z</time></trkpt><trkpt lat="42.10248034613118" lon="12.973128913895053"><ele>717.0</ele><time>2026-04-12T11:56:10Z</time></trkpt><trkpt lat="42.102341021063516" lon="12.973332979476195"><ele>720.3333333333334</ele><time>2026-04-12T11:56:11Z</time></trkpt><trkpt lat="42.10220167606171" lon="12.973530248120245"><ele>723.6666666666667</ele><time>2026-04-12T11:56:12Z</time></trkpt><trkpt lat="42.10206774591318" lon="12.973709480593918"><ele>727.0</ele><time>2026-04-12T11:56:13Z</time></trkpt><trkpt lat="42.10194634872251" lon="12.973874830294422"><ele>727.0</ele><time>2026-04-12T11:56:14Z</time></trkpt><trkpt lat="42.10182643152607" lon="12.974040395470222"><ele>727.0</ele><time>2026-04-12T11:56:15Z</time></trkpt><trkpt lat="42.10169492033145" lon="12.974217209369327"><ele>727.0</ele><time>2026-04-12T11:56:16Z</time></trkpt><trkpt lat="42.10155948291949" lon="12.974404800571799"><ele>726.3333333333334</ele><time>2026-04-12T11:56:17Z</time></trkpt><trkpt lat="42.10142539802289" lon="12.974598329666192"><ele>725.6666666666666</ele><time>2026-04-12T11:56:18Z</time></trkpt><trkpt lat="42.10128865273091" lon="12.974803495350006"><ele>725.0</ele><time>2026-04-12T11:56:18.999Z</time></trkpt><trkpt lat="42.101141184546584" lon="12.975005057881544"><ele>724.3333333333333</ele><time>2026-04-12T11:56:19.999Z</time></trkpt><trkpt lat="42.100989688806365" lon="12.9751993743526"><ele>723.6666666666666</ele><time>2026-04-12T11:56:20.999Z</time></trkpt><trkpt lat="42.100844928639155" lon="12.975419916468676"><ele>723.0</ele><time>2026-04-12T11:56:21.999Z</time></trkpt><trkpt lat="42.10071517394123" lon="12.975656641095341"><ele>727.3333333333334</ele><time>2026-04-12T11:56:22.999Z</time></trkpt><trkpt lat="42.100591917690885" lon="12.975889044250193"><ele>731.6666666666667</ele><time>2026-04-12T11:56:23.999Z</time></trkpt><trkpt lat="42.100467850435855" lon="12.976116510935753"><ele>736.0</ele><time>2026-04-12T11:56:24.999Z</time></trkpt><trkpt lat="42.100340947735546" lon="12.976340648649709"><ele>736.0</ele><time>2026-04-12T11:56:25.999Z</time></trkpt><trkpt lat="42.10022382252108" lon="12.976553163101835"><ele>736.0</ele><time>2026-04-12T11:56:26.999Z</time></trkpt><trkpt lat="42.10011033471103" lon="12.976763659468881"><ele>736.0</ele><time>2026-04-12T11:56:27.999Z</time></trkpt><trkpt lat="42.09999020017932" lon="12.976974824424387"><ele>736.3333333333334</ele><time>2026-04-12T11:56:28.999Z</time></trkpt><trkpt lat="42.09985255759889" lon="12.977174275707219"><ele>736.6666666666666</ele><time>2026-04-12T11:56:29.999Z</time></trkpt><trkpt lat="42.09970186534019" lon="12.97736492481051"><ele>737.0</ele><time>2026-04-12T11:56:30.999Z</time></trkpt><trkpt lat="42.099559173194244" lon="12.977550582129277"><ele>742.6666666666666</ele><time>2026-04-12T11:56:31.999Z</time></trkpt><trkpt lat="42.09942843492139" lon="12.977717893620223"><ele>748.3333333333334</ele><time>2026-04-12T11:56:32.999Z</time></trkpt><trkpt lat="42.09928132811151" lon="12.977863307778529"><ele>754.0</ele><time>2026-04-12T11:56:33.999Z</time></trkpt><trkpt lat="42.09913763450267" lon="12.97802682132895"><ele>754.3333333333334</ele><time>2026-04-12T11:56:34.999Z</time></trkpt><trkpt lat="42.0989827312737" lon="12.978150723107213"><ele>754.6666666666666</ele><time>2026-04-12T11:56:35.999Z</time></trkpt><trkpt lat="42.09883669962642" lon="12.97827120401729"><ele>755.0</ele><time>2026-04-12T11:56:36.999Z</time></trkpt><trkpt lat="42.09869589726644" lon="12.978391694854087"><ele>755.0</ele><time>2026-04-12T11:56:37.999Z</time></trkpt><trkpt lat="42.09855816399733" lon="12.978522398405799"><ele>755.0</ele><time>2026-04-12T11:56:38.999Z</time></trkpt><trkpt lat="42.0984251268088" lon="12.978675069811075"><ele>755.0</ele><time>2026-04-12T11:56:39.999Z</time></trkpt><trkpt lat="42.09829918600018" lon="12.978859900199904"><ele>750.6666666666666</ele><time>2026-04-12T11:56:40.999Z</time></trkpt><trkpt lat="42.098188199676436" lon="12.979060756990663"><ele>746.3333333333334</ele><time>2026-04-12T11:56:41.999Z</time></trkpt><trkpt lat="42.0980988629003" lon="12.979253553119104"><ele>742.0</ele><time>2026-04-12T11:56:42.999Z</time></trkpt><trkpt lat="42.09802847279418" lon="12.979437303035857"><ele>742.0</ele><time>2026-04-12T11:56:43.999Z</time></trkpt><trkpt lat="42.09798189372833" lon="12.979618349584616"><ele>742.0</ele><time>2026-04-12T11:56:44.999Z</time></trkpt><trkpt lat="42.09796587311328" lon="12.979798834023722"><ele>742.0</ele><time>2026-04-12T11:56:45.999Z</time></trkpt><trkpt lat="42.097984430841095" lon="12.97998427168528"><ele>742.0</ele><time>2026-04-12T11:56:46.999Z</time></trkpt><trkpt lat="42.09804586391349" lon="12.980159183462712"><ele>746.2</ele><time>2026-04-12T11:56:47.999Z</time></trkpt><trkpt lat="42.09808944620743" lon="12.980311778035427"><ele>750.4000000000001</ele><time>2026-04-12T11:56:48.999Z</time></trkpt><trkpt lat="42.09808824633971" lon="12.980448555029442"><ele>754.5999999999999</ele><time>2026-04-12T11:56:49.999Z</time></trkpt><trkpt lat="42.09803163950421" lon="12.980566108332736"><ele>758.8</ele><time>2026-04-12T11:56:50.999Z</time></trkpt><trkpt lat="42.0979450771757" lon="12.980656836019985"><ele>763.0</ele><time>2026-04-12T11:56:51.999Z</time></trkpt><trkpt lat="42.09782472377554" lon="12.980673742153988"><ele>763.0</ele><time>2026-04-12T11:56:52.999Z</time></trkpt><trkpt lat="42.09769543063608" lon="12.980696965991175"><ele>763.0</ele><time>2026-04-12T11:56:53.999Z</time></trkpt><trkpt lat="42.0975451942269" lon="12.980731933069375"><ele>763.0</ele><time>2026-04-12T11:56:54.999Z</time></trkpt><trkpt lat="42.0973978116528" lon="12.980747632145944"><ele>763.0</ele><time>2026-04-12T11:56:55.999Z</time></trkpt><trkpt lat="42.09727545488704" lon="12.98077017655089"><ele>762.0</ele><time>2026-04-12T11:56:56.999Z</time></trkpt><trkpt lat="42.097169806725766" lon="12.980814299400848"><ele>761.0</ele><time>2026-04-12T11:56:57.999Z</time></trkpt><trkpt lat="42.09707408487724" lon="12.980899195814855"><ele>760.0</ele><time>2026-04-12T11:56:58.999Z</time></trkpt><trkpt lat="42.09698777786924" lon="12.98103545912729"><ele>759.0</ele><time>2026-04-12T11:56:59.999Z</time></trkpt><trkpt lat="42.096913799368025" lon="12.981204812457836"><ele>761.75</ele><time>2026-04-12T11:57:00.999Z</time></trkpt><trkpt lat="42.096840235709735" lon="12.981374122803981"><ele>764.5</ele><time>2026-04-12T11:57:01.999Z</time></trkpt><trkpt lat="42.09675394071902" lon="12.981512901867182"><ele>767.25</ele><time>2026-04-12T11:57:02.999Z</time></trkpt><trkpt lat="42.0966568079729" lon="12.981602493605752"><ele>770.0</ele><time>2026-04-12T11:57:03.999Z</time></trkpt><trkpt lat="42.09655247050028" lon="12.981639233058791"><ele>770.0</ele><time>2026-04-12T11:57:04.999Z</time></trkpt><trkpt lat="42.09643385042408" lon="12.981626186605101"><ele>770.0</ele><time>2026-04-12T11:57:05.999Z</time></trkpt><trkpt lat="42.09630883293759" lon="12.981565824726824"><ele>770.0</ele><time>2026-04-12T11:57:06.999Z</time></trkpt><trkpt lat="42.09619349294969" lon="12.981520085718612"><ele>770.0</ele><time>2026-04-12T11:57:07.999Z</time></trkpt><trkpt lat="42.09608051860153" lon="12.981528787574868"><ele>770.0</ele><time>2026-04-12T11:57:08.999Z</time></trkpt><trkpt lat="42.09597587048122" lon="12.981614610422442"><ele>770.0</ele><time>2026-04-12T11:57:09.999Z</time></trkpt><trkpt lat="42.095875036519004" lon="12.981746900460578"><ele>770.0</ele><time>2026-04-12T11:57:10.999Z</time></trkpt><trkpt lat="42.09578656959304" lon="12.981932142986224"><ele>770.0</ele><time>2026-04-12T11:57:11.999Z</time></trkpt><trkpt lat="42.095699631122685" lon="12.982128195177998"><ele>771.3333333333334</ele><time>2026-04-12T11:57:12.999Z</time></trkpt><trkpt lat="42.09561979954562" lon="12.982332392907473"><ele>772.6666666666667</ele><time>2026-04-12T11:57:13.999Z</time></trkpt><trkpt lat="42.095552285006214" lon="12.982545839683768"><ele>774.0</ele><time>2026-04-12T11:57:14.999Z</time></trkpt><trkpt lat="42.0955117854521" lon="12.982773914656407"><ele>774.0</ele><time>2026-04-12T11:57:15.999Z</time></trkpt><trkpt lat="42.09548547229113" lon="12.982994920803833"><ele>774.0</ele><time>2026-04-12T11:57:16.999Z</time></trkpt><trkpt lat="42.095462770050794" lon="12.983184120301596"><ele>774.0</ele><time>2026-04-12T11:57:17.999Z</time></trkpt><trkpt lat="42.09544806635744" lon="12.983359754347259"><ele>774.0</ele><time>2026-04-12T11:57:18.999Z</time></trkpt><trkpt lat="42.09546668899544" lon="12.983530901813099"><ele>774.3333333333333</ele><time>2026-04-12T11:57:19.999Z</time></trkpt><trkpt lat="42.09552842773982" lon="12.983706835229047"><ele>774.6666666666666</ele><time>2026-04-12T11:57:20.999Z</time></trkpt><trkpt lat="42.095638145297364" lon="12.983876306041497"><ele>775.0</ele><time>2026-04-12T11:57:21.998Z</time></trkpt><trkpt lat="42.09576456612312" lon="12.984035893486325"><ele>778.6666666666666</ele><time>2026-04-12T11:57:22.998Z</time></trkpt><trkpt lat="42.095898336346934" lon="12.984193437477058"><ele>782.3333333333333</ele><time>2026-04-12T11:57:23.998Z</time></trkpt><trkpt lat="42.09602519902935" lon="12.984355458301984"><ele>786.0</ele><time>2026-04-12T11:57:24.998Z</time></trkpt><trkpt lat="42.096145278257026" lon="12.984523387784789"><ele>786.0</ele><time>2026-04-12T11:57:25.998Z</time></trkpt><trkpt lat="42.09626962811926" lon="12.984689908936819"><ele>786.0</ele><time>2026-04-12T11:57:26.998Z</time></trkpt><trkpt lat="42.096392811956655" lon="12.984851437208128"><ele>786.0</ele><time>2026-04-12T11:57:27.998Z</time></trkpt><trkpt lat="42.096500605070105" lon="12.984991720292346"><ele>789.0</ele><time>2026-04-12T11:57:28.998Z</time></trkpt><trkpt lat="42.09659394401427" lon="12.985105831456043"><ele>792.0</ele><time>2026-04-12T11:57:29.998Z</time></trkpt><trkpt lat="42.096638709631925" lon="12.985233717317382"><ele>795.0</ele><time>2026-04-12T11:57:30.998Z</time></trkpt><trkpt lat="42.09664421571628" lon="12.985365638502762"><ele>798.0</ele><time>2026-04-12T11:57:31.998Z</time></trkpt><trkpt lat="42.09663939627017" lon="12.985501424694906"><ele>801.0</ele><time>2026-04-12T11:57:32.998Z</time></trkpt><trkpt lat="42.09656202644867" lon="12.985611904665248"><ele>801.0</ele><time>2026-04-12T11:57:33.998Z</time></trkpt><trkpt lat="42.09645620161871" lon="12.985668159353674"><ele>801.0</ele><time>2026-04-12T11:57:34.998Z</time></trkpt><trkpt lat="42.09633786701906" lon="12.985655831078182"><ele>801.0</ele><time>2026-04-12T11:57:35.998Z</time></trkpt><trkpt lat="42.09620127554768" lon="12.985613226078117"><ele>801.0</ele><time>2026-04-12T11:57:36.998Z</time></trkpt><trkpt lat="42.0960660215174" lon="12.985596856316029"><ele>801.0</ele><time>2026-04-12T11:57:37.998Z</time></trkpt><trkpt lat="42.09592908142487" lon="12.985610423220278"><ele>801.0</ele><time>2026-04-12T11:57:38.998Z</time></trkpt><trkpt lat="42.09578428823831" lon="12.98570706015599"><ele>801.0</ele><time>2026-04-12T11:57:39.998Z</time></trkpt><trkpt lat="42.09563895539726" lon="12.985858911336734"><ele>801.0</ele><time>2026-04-12T11:57:40.998Z</time></trkpt><trkpt lat="42.09550424642551" lon="12.985994823492046"><ele>801.0</ele><time>2026-04-12T11:57:41.998Z</time></trkpt><trkpt lat="42.095384251493385" lon="12.986116792063372"><ele>801.0</ele><time>2026-04-12T11:57:42.998Z</time></trkpt><trkpt lat="42.095278232990786" lon="12.9862689208442"><ele>801.0</ele><time>2026-04-12T11:57:43.998Z</time></trkpt><trkpt lat="42.09519676215548" lon="12.986450977879848"><ele>801.0</ele><time>2026-04-12T11:57:44.998Z</time></trkpt><trkpt lat="42.0951529962586" lon="12.986665293578211"><ele>801.0</ele><time>2026-04-12T11:57:45.998Z</time></trkpt><trkpt lat="42.09514897296746" lon="12.986863590702367"><ele>801.75</ele><time>2026-04-12T11:57:46.998Z</time></trkpt><trkpt lat="42.095113684434736" lon="12.987021343293808"><ele>802.5</ele><time>2026-04-12T11:57:47.998Z</time></trkpt><trkpt lat="42.09502165951433" lon="12.987115480431472"><ele>803.25</ele><time>2026-04-12T11:57:48.998Z</time></trkpt><trkpt lat="42.09491543212059" lon="12.987172559256626"><ele>804.0</ele><time>2026-04-12T11:57:49.998Z</time></trkpt><trkpt lat="42.09477546344738" lon="12.987187349967947"><ele>804.0</ele><time>2026-04-12T11:57:50.998Z</time></trkpt><trkpt lat="42.094631443377004" lon="12.987234976365027"><ele>804.0</ele><time>2026-04-12T11:57:51.998Z</time></trkpt><trkpt lat="42.09450557451665" lon="12.987305425234942"><ele>804.0</ele><time>2026-04-12T11:57:52.998Z</time></trkpt><trkpt lat="42.0944073733976" lon="12.987432339699012"><ele>804.0</ele><time>2026-04-12T11:57:53.998Z</time></trkpt><trkpt lat="42.09433812449808" lon="12.987587579129816"><ele>806.6666666666667</ele><time>2026-04-12T11:57:54.998Z</time></trkpt><trkpt lat="42.09428655306808" lon="12.987777448962959"><ele>809.3333333333334</ele><time>2026-04-12T11:57:56Z</time></trkpt><trkpt lat="42.0942666018742" lon="12.988007697395146"><ele>812.0</ele><time>2026-04-12T11:57:57Z</time></trkpt><trkpt lat="42.094251055971725" lon="12.988232258798693"><ele>815.75</ele><time>2026-04-12T11:57:58Z</time></trkpt><trkpt lat="42.094246075694606" lon="12.988424977510919"><ele>819.5</ele><time>2026-04-12T11:57:59Z</time></trkpt><trkpt lat="42.094282147638054" lon="12.98858894456866"><ele>823.25</ele><time>2026-04-12T11:58:00Z</time></trkpt><trkpt lat="42.09432405638649" lon="12.988735016364956"><ele>827.0</ele><time>2026-04-12T11:58:01Z</time></trkpt><trkpt lat="42.094301638554455" lon="12.98886017176158"><ele>827.0</ele><time>2026-04-12T11:58:02Z</time></trkpt><trkpt lat="42.09425132021164" lon="12.98896926392156"><ele>827.0</ele><time>2026-04-12T11:58:03Z</time></trkpt><trkpt lat="42.09414778519499" lon="12.98903712926708"><ele>827.0</ele><time>2026-04-12T11:58:04Z</time></trkpt><trkpt lat="42.09401091572385" lon="12.989110342010008"><ele>827.0</ele><time>2026-04-12T11:58:05Z</time></trkpt><trkpt lat="42.09386973166021" lon="12.989204978135255"><ele>827.5</ele><time>2026-04-12T11:58:06Z</time></trkpt><trkpt lat="42.09370850190648" lon="12.989269324771717"><ele>828.0</ele><time>2026-04-12T11:58:07Z</time></trkpt><trkpt lat="42.09357902944332" lon="12.989357330999516"><ele>828.5</ele><time>2026-04-12T11:58:08Z</time></trkpt><trkpt lat="42.0934818408614" lon="12.989446329501028"><ele>829.0</ele><time>2026-04-12T11:58:09Z</time></trkpt><trkpt lat="42.09341342690704" lon="12.98957100876916"><ele>829.0</ele><time>2026-04-12T11:58:10Z</time></trkpt><trkpt lat="42.09338621587363" lon="12.989748654639394"><ele>829.0</ele><time>2026-04-12T11:58:11Z</time></trkpt><trkpt lat="42.093400354404885" lon="12.989968205258517"><ele>829.0</ele><time>2026-04-12T11:58:12Z</time></trkpt><trkpt lat="42.093400859125026" lon="12.990194768142088"><ele>828.75</ele><time>2026-04-12T11:58:13Z</time></trkpt><trkpt lat="42.09340493025735" lon="12.990378045354994"><ele>828.5</ele><time>2026-04-12T11:58:14Z</time></trkpt><trkpt lat="42.09336170742762" lon="12.990527436103704"><ele>828.25</ele><time>2026-04-12T11:58:15Z</time></trkpt><trkpt lat="42.09329103644646" lon="12.990652372487778"><ele>828.0</ele><time>2026-04-12T11:58:16Z</time></trkpt><trkpt lat="42.09317645885549" lon="12.990709657611955"><ele>828.0</ele><time>2026-04-12T11:58:17Z</time></trkpt><trkpt lat="42.09305097398254" lon="12.990786237861627"><ele>828.0</ele><time>2026-04-12T11:58:18Z</time></trkpt><trkpt lat="42.09291748019765" lon="12.990892669472945"><ele>828.0</ele><time>2026-04-12T11:58:19Z</time></trkpt><trkpt lat="42.0927800529704" lon="12.991004981801982"><ele>828.6666666666667</ele><time>2026-04-12T11:58:20Z</time></trkpt><trkpt lat="42.092644876435784" lon="12.99115774241972"><ele>829.3333333333334</ele><time>2026-04-12T11:58:21Z</time></trkpt><trkpt lat="42.092510656898355" lon="12.991313873569347"><ele>830.0</ele><time>2026-04-12T11:58:22Z</time></trkpt><trkpt lat="42.09237133331761" lon="12.991478648334635"><ele>830.0</ele><time>2026-04-12T11:58:23Z</time></trkpt><trkpt lat="42.09222407871035" lon="12.991652456117544"><ele>830.0</ele><time>2026-04-12T11:58:24Z</time></trkpt><trkpt lat="42.09208619174787" lon="12.991818918113383"><ele>830.0</ele><time>2026-04-12T11:58:24.999Z</time></trkpt><trkpt lat="42.09196550993759" lon="12.991992321912027"><ele>836.6666666666667</ele><time>2026-04-12T11:58:25.999Z</time></trkpt><trkpt lat="42.09184626298219" lon="12.992167328938516"><ele>843.3333333333333</ele><time>2026-04-12T11:58:26.999Z</time></trkpt><trkpt lat="42.091730470021105" lon="12.992350101815301"><ele>850.0</ele><time>2026-04-12T11:58:27.999Z</time></trkpt><trkpt lat="42.09165686345082" lon="12.992571650643509"><ele>855.0</ele><time>2026-04-12T11:58:28.999Z</time></trkpt><trkpt lat="42.091553271931545" lon="12.992753504571331"><ele>860.0</ele><time>2026-04-12T11:58:29.999Z</time></trkpt><trkpt lat="42.091450329267246" lon="12.992933632687954"><ele>865.0</ele><time>2026-04-12T11:58:30.999Z</time></trkpt><trkpt lat="42.09135268683688" lon="12.99311487257794"><ele>865.0</ele><time>2026-04-12T11:58:31.999Z</time></trkpt><trkpt lat="42.09125520389449" lon="12.993295665267679"><ele>865.0</ele><time>2026-04-12T11:58:32.999Z</time></trkpt><trkpt lat="42.09115795185168" lon="12.993472881885381"><ele>865.0</ele><time>2026-04-12T11:58:33.999Z</time></trkpt><trkpt lat="42.09106941289887" lon="12.993636973965613"><ele>865.5</ele><time>2026-04-12T11:58:34.999Z</time></trkpt><trkpt lat="42.09098871545286" lon="12.9937927447257"><ele>866.0</ele><time>2026-04-12T11:58:35.999Z</time></trkpt><trkpt lat="42.09090317912278" lon="12.993936165687948"><ele>866.5</ele><time>2026-04-12T11:58:36.999Z</time></trkpt><trkpt lat="42.090803478375086" lon="12.994066704456893"><ele>867.0</ele><time>2026-04-12T11:58:37.999Z</time></trkpt><trkpt lat="42.09069305738946" lon="12.994178034948142"><ele>863.25</ele><time>2026-04-12T11:58:38.999Z</time></trkpt><trkpt lat="42.09058580547046" lon="12.994280012945111"><ele>859.5</ele><time>2026-04-12T11:58:39.999Z</time></trkpt><trkpt lat="42.09047346664275" lon="12.994386658842211"><ele>855.75</ele><time>2026-04-12T11:58:40.999Z</time></trkpt><trkpt lat="42.09034978174839" lon="12.99449233060434"><ele>852.0</ele><time>2026-04-12T11:58:41.999Z</time></trkpt><trkpt lat="42.09019075498212" lon="12.994592495546879"><ele>852.0</ele><time>2026-04-12T11:58:42.999Z</time></trkpt><trkpt lat="42.09001358313198" lon="12.994681165104122"><ele>852.0</ele><time>2026-04-12T11:58:43.999Z</time></trkpt><trkpt lat="42.08983870137952" lon="12.994767840443922"><ele>852.0</ele><time>2026-04-12T11:58:44.999Z</time></trkpt><trkpt lat="42.08967829079022" lon="12.994853594680539"><ele>852.75</ele><time>2026-04-12T11:58:45.999Z</time></trkpt><trkpt lat="42.08953285387815" lon="12.994935182179857"><ele>853.5</ele><time>2026-04-12T11:58:46.999Z</time></trkpt><trkpt lat="42.08939389552211" lon="12.995010824690898"><ele>854.25</ele><time>2026-04-12T11:58:47.999Z</time></trkpt><trkpt lat="42.08925991516582" lon="12.9950721140705"><ele>855.0</ele><time>2026-04-12T11:58:48.999Z</time></trkpt><trkpt lat="42.08912092630042" lon="12.995119118221263"><ele>849.75</ele><time>2026-04-12T11:58:49.999Z</time></trkpt><trkpt lat="42.08896534048079" lon="12.995141609485506"><ele>844.5</ele><time>2026-04-12T11:58:50.999Z</time></trkpt><trkpt lat="42.08880798411397" lon="12.995134759370266"><ele>839.25</ele><time>2026-04-12T11:58:51.999Z</time></trkpt><trkpt lat="42.08867549935492" lon="12.995111037971139"><ele>834.0</ele><time>2026-04-12T11:58:52.999Z</time></trkpt><trkpt lat="42.088563623612465" lon="12.99509569879486"><ele>834.0</ele><time>2026-04-12T11:58:53.999Z</time></trkpt><trkpt lat="42.088472924831436" lon="12.995094647126894"><ele>834.0</ele><time>2026-04-12T11:58:54.999Z</time></trkpt><trkpt lat="42.088393076021696" lon="12.995134485856575"><ele>834.0</ele><time>2026-04-12T11:58:55.999Z</time></trkpt><trkpt lat="42.08833292994914" lon="12.995202848241789"><ele>834.0</ele><time>2026-04-12T11:58:56.999Z</time></trkpt><trkpt lat="42.08823338748839" lon="12.995284464509409"><ele>834.0</ele><time>2026-04-12T11:58:58.999Z</time></trkpt><trkpt lat="42.08819376546052" lon="12.995390451391986"><ele>834.0</ele><time>2026-04-12T11:59:00.999Z</time></trkpt><trkpt lat="42.088236816743084" lon="12.995486364357044"><ele>834.0</ele><time>2026-04-12T11:59:04.999Z</time></trkpt><trkpt lat="42.08835288597794" lon="12.99541296831635"><ele>834.0</ele><time>2026-04-12T11:59:06.999Z</time></trkpt><trkpt lat="42.08843891409228" lon="12.995368372114552"><ele>834.0</ele><time>2026-04-12T11:59:07.999Z</time></trkpt><trkpt lat="42.08853866160079" lon="12.99533506070852"><ele>834.0</ele><time>2026-04-12T11:59:08.999Z</time></trkpt><trkpt lat="42.088657710301845" lon="12.995306209976743"><ele>834.0</ele><time>2026-04-12T11:59:09.999Z</time></trkpt><trkpt lat="42.088797563969806" lon="12.995309026729688"><ele>834.0</ele><time>2026-04-12T11:59:10.999Z</time></trkpt><trkpt lat="42.08894944406214" lon="12.995331195078673"><ele>834.0</ele><time>2026-04-12T11:59:11.999Z</time></trkpt><trkpt lat="42.08911006758565" lon="12.995354028411656"><ele>831.6666666666667</ele><time>2026-04-12T11:59:12.999Z</time></trkpt><trkpt lat="42.089282223725455" lon="12.995364575326999"><ele>829.3333333333334</ele><time>2026-04-12T11:59:14Z</time></trkpt><trkpt lat="42.08944853642572" lon="12.995375969572297"><ele>827.0</ele><time>2026-04-12T11:59:15Z</time></trkpt><trkpt lat="42.08959796968266" lon="12.995400794099575"><ele>827.0</ele><time>2026-04-12T11:59:16Z</time></trkpt><trkpt lat="42.08978944042625" lon="12.99539968269349"><ele>827.0</ele><time>2026-04-12T11:59:17Z</time></trkpt><trkpt lat="42.089945396672185" lon="12.995408393776883"><ele>827.0</ele><time>2026-04-12T11:59:18Z</time></trkpt><trkpt lat="42.09008417322717" lon="12.9954080004311"><ele>827.5</ele><time>2026-04-12T11:59:19Z</time></trkpt><trkpt lat="42.090203973527096" lon="12.995420947893125"><ele>828.0</ele><time>2026-04-12T11:59:20Z</time></trkpt><trkpt lat="42.09031193150841" lon="12.995451771603824"><ele>828.5</ele><time>2026-04-12T11:59:21Z</time></trkpt><trkpt lat="42.09041098300913" lon="12.995517284776566"><ele>829.0</ele><time>2026-04-12T11:59:22Z</time></trkpt><trkpt lat="42.090504551939915" lon="12.99563926055415"><ele>829.0</ele><time>2026-04-12T11:59:23Z</time></trkpt><trkpt lat="42.0905847256709" lon="12.995790075263335"><ele>829.0</ele><time>2026-04-12T11:59:24Z</time></trkpt><trkpt lat="42.09065745585976" lon="12.995937084357289"><ele>829.0</ele><time>2026-04-12T11:59:25Z</time></trkpt><trkpt lat="42.090734025467896" lon="12.996056921330437"><ele>829.0</ele><time>2026-04-12T11:59:26Z</time></trkpt><trkpt lat="42.09081928496902" lon="12.996158640796805"><ele>825.75</ele><time>2026-04-12T11:59:26.999Z</time></trkpt><trkpt lat="42.09093399655178" lon="12.996236429219996"><ele>822.5</ele><time>2026-04-12T11:59:27.999Z</time></trkpt><trkpt lat="42.091080653168575" lon="12.996295105443341"><ele>819.25</ele><time>2026-04-12T11:59:28.999Z</time></trkpt><trkpt lat="42.09123012648665" lon="12.996367357410213"><ele>816.0</ele><time>2026-04-12T11:59:29.999Z</time></trkpt><trkpt lat="42.09136366211252" lon="12.99644743748651"><ele>816.0</ele><time>2026-04-12T11:59:30.999Z</time></trkpt><trkpt lat="42.09148983683472" lon="12.996518270065517"><ele>816.0</ele><time>2026-04-12T11:59:31.999Z</time></trkpt><trkpt lat="42.091599833952145" lon="12.996579840139425"><ele>816.0</ele><time>2026-04-12T11:59:32.999Z</time></trkpt><trkpt lat="42.09168186891819" lon="12.99665307833635"><ele>816.0</ele><time>2026-04-12T11:59:33.999Z</time></trkpt><trkpt lat="42.091739201440994" lon="12.9967546835297"><ele>816.0</ele><time>2026-04-12T11:59:34.999Z</time></trkpt><trkpt lat="42.09174903564481" lon="12.996911392354363"><ele>815.3333333333333</ele><time>2026-04-12T11:59:35.999Z</time></trkpt><trkpt lat="42.09176801913638" lon="12.997102295927034"><ele>814.6666666666666</ele><time>2026-04-12T11:59:36.999Z</time></trkpt><trkpt lat="42.091777794677846" lon="12.997326229290314"><ele>814.0</ele><time>2026-04-12T11:59:37.999Z</time></trkpt><trkpt lat="42.091820502112604" lon="12.997552347965922"><ele>810.0</ele><time>2026-04-12T11:59:38.999Z</time></trkpt><trkpt lat="42.091862524623075" lon="12.997760525438474"><ele>806.0</ele><time>2026-04-12T11:59:39.999Z</time></trkpt><trkpt lat="42.09189222219265" lon="12.997951723315373"><ele>802.0</ele><time>2026-04-12T11:59:40.999Z</time></trkpt><trkpt lat="42.09191901586705" lon="12.998135288318087"><ele>798.0</ele><time>2026-04-12T11:59:41.999Z</time></trkpt><trkpt lat="42.0919535404445" lon="12.99830542631558"><ele>795.4</ele><time>2026-04-12T11:59:42.999Z</time></trkpt><trkpt lat="42.09200126465664" lon="12.998457241737151"><ele>792.8</ele><time>2026-04-12T11:59:43.999Z</time></trkpt><trkpt lat="42.09205051110092" lon="12.998582101189099"><ele>790.2</ele><time>2026-04-12T11:59:44.999Z</time></trkpt><trkpt lat="42.09210633683883" lon="12.998670627920074"><ele>787.6</ele><time>2026-04-12T11:59:45.999Z</time></trkpt><trkpt lat="42.09217658049442" lon="12.998723071299853"><ele>785.0</ele><time>2026-04-12T11:59:46.999Z</time></trkpt><trkpt lat="42.09227760440064" lon="12.998721690236483"><ele>785.0</ele><time>2026-04-12T11:59:47.999Z</time></trkpt><trkpt lat="42.09239544417296" lon="12.998684522188325"><ele>785.0</ele><time>2026-04-12T11:59:48.999Z</time></trkpt><trkpt lat="42.092521219134916" lon="12.998629839619632"><ele>785.0</ele><time>2026-04-12T11:59:49.999Z</time></trkpt><trkpt lat="42.09266110959746" lon="12.998555773937333"><ele>785.0</ele><time>2026-04-12T11:59:50.999Z</time></trkpt><trkpt lat="42.09280432906464" lon="12.998457513216147"><ele>788.0</ele><time>2026-04-12T11:59:51.999Z</time></trkpt><trkpt lat="42.092944432696775" lon="12.998351166157844"><ele>791.0</ele><time>2026-04-12T11:59:52.999Z</time></trkpt><trkpt lat="42.093080016710225" lon="12.99825082680634"><ele>794.0</ele><time>2026-04-12T11:59:53.999Z</time></trkpt><trkpt lat="42.09321033925113" lon="12.99815957492848"><ele>795.5</ele><time>2026-04-12T11:59:54.999Z</time></trkpt><trkpt lat="42.09333090316609" lon="12.99806455185988"><ele>797.0</ele><time>2026-04-12T11:59:55.999Z</time></trkpt><trkpt lat="42.09344878998851" lon="12.998014557489487"><ele>798.5</ele><time>2026-04-12T11:59:56.999Z</time></trkpt><trkpt lat="42.09355574222186" lon="12.99796738346192"><ele>800.0</ele><time>2026-04-12T11:59:57.999Z</time></trkpt><trkpt lat="42.09367194318442" lon="12.998003021183587"><ele>800.0</ele><time>2026-04-12T11:59:58.999Z</time></trkpt><trkpt lat="42.09378355987441" lon="12.998113545446014"><ele>800.0</ele><time>2026-04-12T11:59:59.999Z</time></trkpt><trkpt lat="42.09390390084542" lon="12.998224857415385"><ele>800.0</ele><time>2026-04-12T12:00:00.999Z</time></trkpt><trkpt lat="42.094032277512355" lon="12.998321596258364"><ele>800.0</ele><time>2026-04-12T12:00:02.001Z</time></trkpt><trkpt lat="42.09414206238158" lon="12.998342509013433"><ele>799.2</ele><time>2026-04-12T12:00:03.001Z</time></trkpt><trkpt lat="42.09424847121131" lon="12.99835652909996"><ele>798.4</ele><time>2026-04-12T12:00:04.001Z</time></trkpt><trkpt lat="42.09434176790583" lon="12.998383984159332"><ele>797.5999999999999</ele><time>2026-04-12T12:00:05.001Z</time></trkpt><trkpt lat="42.09441712842741" lon="12.998453864306336"><ele>796.8</ele><time>2026-04-12T12:00:06.001Z</time></trkpt><trkpt lat="42.09445383664409" lon="12.998556419287315"><ele>796.0</ele><time>2026-04-12T12:00:07.001Z</time></trkpt><trkpt lat="42.09443955231908" lon="12.99866935009831"><ele>796.0</ele><time>2026-04-12T12:00:08.001Z</time></trkpt><trkpt lat="42.094370823489115" lon="12.998765376789853"><ele>796.0</ele><time>2026-04-12T12:00:09.001Z</time></trkpt><trkpt lat="42.09425159890202" lon="12.998820286161832"><ele>796.0</ele><time>2026-04-12T12:00:10.001Z</time></trkpt><trkpt lat="42.09413275536807" lon="12.998928902167364"><ele>796.0</ele><time>2026-04-12T12:00:11.001Z</time></trkpt><trkpt lat="42.09403646225735" lon="12.999053744544344"><ele>787.0</ele><time>2026-04-12T12:00:12.001Z</time></trkpt><trkpt lat="42.09395687306043" lon="12.999218126900836"><ele>778.0</ele><time>2026-04-12T12:00:13.001Z</time></trkpt><trkpt lat="42.093890170238005" lon="12.999410445506998"><ele>769.0</ele><time>2026-04-12T12:00:14.001Z</time></trkpt><trkpt lat="42.093832348955" lon="12.99962201324539"><ele>769.0</ele><time>2026-04-12T12:00:15.001Z</time></trkpt><trkpt lat="42.09376839247704" lon="12.999801168998225"><ele>769.0</ele><time>2026-04-12T12:00:16.001Z</time></trkpt><trkpt lat="42.0936764351584" lon="12.999985178166007"><ele>769.0</ele><time>2026-04-12T12:00:17.001Z</time></trkpt><trkpt lat="42.09361621327025" lon="13.000156771807822"><ele>769.0</ele><time>2026-04-12T12:00:18.001Z</time></trkpt><trkpt lat="42.09358504655309" lon="13.000335148462597"><ele>769.0</ele><time>2026-04-12T12:00:19.001Z</time></trkpt><trkpt lat="42.09357989951586" lon="13.000505707530134"><ele>769.0</ele><time>2026-04-12T12:00:20.001Z</time></trkpt><trkpt lat="42.09359215818001" lon="13.000669160473151"><ele>769.0</ele><time>2026-04-12T12:00:21.001Z</time></trkpt><trkpt lat="42.09364174040684" lon="13.000812746479733"><ele>768.25</ele><time>2026-04-12T12:00:22.001Z</time></trkpt><trkpt lat="42.09373397143716" lon="13.000937419556516"><ele>767.5</ele><time>2026-04-12T12:00:23.001Z</time></trkpt><trkpt lat="42.09386741439299" lon="13.0010314097195"><ele>766.75</ele><time>2026-04-12T12:00:24.001Z</time></trkpt><trkpt lat="42.0939886775139" lon="13.001152523060831"><ele>766.0</ele><time>2026-04-12T12:00:25.001Z</time></trkpt><trkpt lat="42.094086415460524" lon="13.001341291797043"><ele>769.3333333333334</ele><time>2026-04-12T12:00:26.001Z</time></trkpt><trkpt lat="42.09418065902792" lon="13.0015652072074"><ele>772.6666666666667</ele><time>2026-04-12T12:00:27.001Z</time></trkpt><trkpt lat="42.09425476338832" lon="13.00178962627173"><ele>776.0</ele><time>2026-04-12T12:00:28.001Z</time></trkpt><trkpt lat="42.09434488698282" lon="13.00197051705215"><ele>776.0</ele><time>2026-04-12T12:00:29Z</time></trkpt><trkpt lat="42.09441154561088" lon="13.00214508336593"><ele>776.0</ele><time>2026-04-12T12:00:30Z</time></trkpt><trkpt lat="42.09446587229291" lon="13.002309280263711"><ele>776.0</ele><time>2026-04-12T12:00:31Z</time></trkpt><trkpt lat="42.094528613421296" lon="13.002453947711848"><ele>776.0</ele><time>2026-04-12T12:00:32Z</time></trkpt><trkpt lat="42.09462621978071" lon="13.002554245542333"><ele>775.3333333333334</ele><time>2026-04-12T12:00:33Z</time></trkpt><trkpt lat="42.094772646142395" lon="13.00263132202355"><ele>774.6666666666667</ele><time>2026-04-12T12:00:34Z</time></trkpt><trkpt lat="42.09494097074276" lon="13.002690550690044"><ele>774.0</ele><time>2026-04-12T12:00:35Z</time></trkpt><trkpt lat="42.095103740634045" lon="13.002755140753907"><ele>774.0</ele><time>2026-04-12T12:00:36Z</time></trkpt><trkpt lat="42.095270565912365" lon="13.002820183569066"><ele>774.0</ele><time>2026-04-12T12:00:37Z</time></trkpt><trkpt lat="42.09543093202245" lon="13.002876259251764"><ele>774.0</ele><time>2026-04-12T12:00:38Z</time></trkpt><trkpt lat="42.09558668188675" lon="13.002934527118796"><ele>774.0</ele><time>2026-04-12T12:00:39Z</time></trkpt><trkpt lat="42.09573749740147" lon="13.0030037914505"><ele>774.0</ele><time>2026-04-12T12:00:40Z</time></trkpt><trkpt lat="42.095887962937105" lon="13.003098270250725"><ele>774.0</ele><time>2026-04-12T12:00:41Z</time></trkpt><trkpt lat="42.0960511700114" lon="13.003165373541488"><ele>776.75</ele><time>2026-04-12T12:00:42Z</time></trkpt><trkpt lat="42.09616362119557" lon="13.003190629914858"><ele>779.5</ele><time>2026-04-12T12:00:43Z</time></trkpt><trkpt lat="42.09631867154529" lon="13.003230592366132"><ele>782.25</ele><time>2026-04-12T12:00:44Z</time></trkpt><trkpt lat="42.096456666086645" lon="13.003311705273493"><ele>785.0</ele><time>2026-04-12T12:00:45Z</time></trkpt><trkpt lat="42.09659135474143" lon="13.003375237605102"><ele>778.5</ele><time>2026-04-12T12:00:46Z</time></trkpt><trkpt lat="42.09672008933491" lon="13.00342971164371"><ele>772.0</ele><time>2026-04-12T12:00:47Z</time></trkpt><trkpt lat="42.09685094731676" lon="13.003446590494931"><ele>765.5</ele><time>2026-04-12T12:00:48Z</time></trkpt><trkpt lat="42.0969907899011" lon="13.003426877386357"><ele>759.0</ele><time>2026-04-12T12:00:49Z</time></trkpt><trkpt lat="42.097127145406816" lon="13.003384953081959"><ele>759.0</ele><time>2026-04-12T12:00:50Z</time></trkpt><trkpt lat="42.09727303340874" lon="13.003370997460566"><ele>759.0</ele><time>2026-04-12T12:00:51Z</time></trkpt><trkpt lat="42.09742366081235" lon="13.003377654312708"><ele>759.0</ele><time>2026-04-12T12:00:52Z</time></trkpt><trkpt lat="42.09758274092454" lon="13.003390032909195"><ele>758.6666666666666</ele><time>2026-04-12T12:00:53Z</time></trkpt><trkpt lat="42.097733279122515" lon="13.003411663464247"><ele>758.3333333333333</ele><time>2026-04-12T12:00:54Z</time></trkpt><trkpt lat="42.097886423671746" lon="13.003409130496586"><ele>758.0</ele><time>2026-04-12T12:00:55Z</time></trkpt><trkpt lat="42.09804104735448" lon="13.003387996262223"><ele>758.0</ele><time>2026-04-12T12:00:56Z</time></trkpt><trkpt lat="42.09819391866323" lon="13.003358922642693"><ele>758.0</ele><time>2026-04-12T12:00:57Z</time></trkpt><trkpt lat="42.09834314471483" lon="13.003320720416768"><ele>758.0</ele><time>2026-04-12T12:00:58Z</time></trkpt><trkpt lat="42.09848967918366" lon="13.003271054051478"><ele>766.0</ele><time>2026-04-12T12:00:59Z</time></trkpt><trkpt lat="42.09862615638368" lon="13.00321380266089"><ele>774.0</ele><time>2026-04-12T12:01:00Z</time></trkpt><trkpt lat="42.098761015979456" lon="13.003202272655551"><ele>782.0</ele><time>2026-04-12T12:01:01Z</time></trkpt><trkpt lat="42.09890392516131" lon="13.003208701579517"><ele>790.0</ele><time>2026-04-12T12:01:02Z</time></trkpt><trkpt lat="42.099053964106496" lon="13.003227920965655"><ele>788.25</ele><time>2026-04-12T12:01:03Z</time></trkpt><trkpt lat="42.099206526675474" lon="13.003225198905444"><ele>786.5</ele><time>2026-04-12T12:01:04Z</time></trkpt><trkpt lat="42.0993520006097" lon="13.003240895344563"><ele>784.75</ele><time>2026-04-12T12:01:05Z</time></trkpt><trkpt lat="42.099490243524386" lon="13.003246572677371"><ele>783.0</ele><time>2026-04-12T12:01:06Z</time></trkpt><trkpt lat="42.09962266194239" lon="13.003220309036287"><ele>783.0</ele><time>2026-04-12T12:01:07Z</time></trkpt><trkpt lat="42.099747986727365" lon="13.003167566575172"><ele>783.0</ele><time>2026-04-12T12:01:08Z</time></trkpt><trkpt lat="42.09986909190991" lon="13.003109035651702"><ele>783.0</ele><time>2026-04-12T12:01:09Z</time></trkpt><trkpt lat="42.09998956241406" lon="13.003042181032116"><ele>783.0</ele><time>2026-04-12T12:01:10Z</time></trkpt><trkpt lat="42.10010534854473" lon="13.002947208722954"><ele>779.25</ele><time>2026-04-12T12:01:11Z</time></trkpt><trkpt lat="42.10020605611393" lon="13.002825852417066"><ele>775.5</ele><time>2026-04-12T12:01:12Z</time></trkpt><trkpt lat="42.100306295207105" lon="13.002724401898323"><ele>771.75</ele><time>2026-04-12T12:01:13Z</time></trkpt><trkpt lat="42.10041920130325" lon="13.002642569110165"><ele>768.0</ele><time>2026-04-12T12:01:14Z</time></trkpt><trkpt lat="42.10056255968938" lon="13.002610924706381"><ele>768.0</ele><time>2026-04-12T12:01:15Z</time></trkpt><trkpt lat="42.100715920073426" lon="13.002571492274367"><ele>768.0</ele><time>2026-04-12T12:01:16Z</time></trkpt><trkpt lat="42.10086265676854" lon="13.002558046424854"><ele>768.0</ele><time>2026-04-12T12:01:17Z</time></trkpt><trkpt lat="42.10100623363134" lon="13.002520935333562"><ele>768.0</ele><time>2026-04-12T12:01:18Z</time></trkpt><trkpt lat="42.10114513473014" lon="13.00246467496301"><ele>772.3333333333333</ele><time>2026-04-12T12:01:19Z</time></trkpt><trkpt lat="42.10128194542003" lon="13.00239620643861"><ele>776.6666666666666</ele><time>2026-04-12T12:01:20Z</time></trkpt><trkpt lat="42.10141857659348" lon="13.00229984147774"><ele>781.0</ele><time>2026-04-12T12:01:21Z</time></trkpt><trkpt lat="42.10154601536392" lon="13.002168115010932"><ele>774.3333333333333</ele><time>2026-04-12T12:01:22Z</time></trkpt><trkpt lat="42.10167169791302" lon="13.00202337674639"><ele>767.6666666666666</ele><time>2026-04-12T12:01:23Z</time></trkpt><trkpt lat="42.101800532605594" lon="13.001907046293045"><ele>761.0</ele><time>2026-04-12T12:01:24Z</time></trkpt><trkpt lat="42.10192534699272" lon="13.001815262181813"><ele>761.0</ele><time>2026-04-12T12:01:25Z</time></trkpt><trkpt lat="42.102032803933604" lon="13.001707109587851"><ele>761.0</ele><time>2026-04-12T12:01:26Z</time></trkpt><trkpt lat="42.102116982041856" lon="13.001578018840029"><ele>761.0</ele><time>2026-04-12T12:01:27Z</time></trkpt><trkpt lat="42.10218036408036" lon="13.001474012505899"><ele>761.0</ele><time>2026-04-12T12:01:28Z</time></trkpt><trkpt lat="42.10224899737851" lon="13.001372319666665"><ele>761.5999999999999</ele><time>2026-04-12T12:01:28.999Z</time></trkpt><trkpt lat="42.10232365701758" lon="13.001318809323855"><ele>762.2</ele><time>2026-04-12T12:01:29.999Z</time></trkpt><trkpt lat="42.10239708631801" lon="13.00128897837763"><ele>762.8</ele><time>2026-04-12T12:01:30.999Z</time></trkpt><trkpt lat="42.10246343675486" lon="13.00135520495215"><ele>763.4000000000001</ele><time>2026-04-12T12:01:31.999Z</time></trkpt><trkpt lat="42.102532842050536" lon="13.00145520601505"><ele>764.0</ele><time>2026-04-12T12:01:32.999Z</time></trkpt><trkpt lat="42.10262658557208" lon="13.001521617811324"><ele>764.0</ele><time>2026-04-12T12:01:33.999Z</time></trkpt><trkpt lat="42.10272644239049" lon="13.00152542249558"><ele>764.0</ele><time>2026-04-12T12:01:34.999Z</time></trkpt><trkpt lat="42.10282647414145" lon="13.001449285859897"><ele>764.0</ele><time>2026-04-12T12:01:35.999Z</time></trkpt><trkpt lat="42.10290791901674" lon="13.001410041232239"><ele>764.0</ele><time>2026-04-12T12:01:36.999Z</time></trkpt><trkpt lat="42.102976235214356" lon="13.001393533366018"><ele>764.0</ele><time>2026-04-12T12:01:37.999Z</time></trkpt><trkpt lat="42.10304385732092" lon="13.00144408819847"><ele>764.0</ele><time>2026-04-12T12:01:38.999Z</time></trkpt><trkpt lat="42.10309617859005" lon="13.001543551374281"><ele>764.0</ele><time>2026-04-12T12:01:39.999Z</time></trkpt><trkpt lat="42.1031099752403" lon="13.001648582872884"><ele>764.0</ele><time>2026-04-12T12:01:40.999Z</time></trkpt><trkpt lat="42.10305310738605" lon="13.001761174331296"><ele>764.0</ele><time>2026-04-12T12:01:41.999Z</time></trkpt><trkpt lat="42.10298880966284" lon="13.001916157781238"><ele>764.0</ele><time>2026-04-12T12:01:42.999Z</time></trkpt><trkpt lat="42.10291172169147" lon="13.002109758644522"><ele>758.3333333333333</ele><time>2026-04-12T12:01:43.999Z</time></trkpt><trkpt lat="42.102814676578966" lon="13.002298423714551"><ele>752.6666666666666</ele><time>2026-04-12T12:01:44.999Z</time></trkpt><trkpt lat="42.10272541975412" lon="13.002472113056582"><ele>747.0</ele><time>2026-04-12T12:01:45.999Z</time></trkpt><trkpt lat="42.102646217858585" lon="13.00261694706621"><ele>745.6</ele><time>2026-04-12T12:01:46.999Z</time></trkpt><trkpt lat="42.10257429363501" lon="13.002752268520581"><ele>744.2</ele><time>2026-04-12T12:01:47.999Z</time></trkpt><trkpt lat="42.10250806367101" lon="13.002878081884969"><ele>742.8</ele><time>2026-04-12T12:01:48.999Z</time></trkpt><trkpt lat="42.10244141574274" lon="13.002983866211261"><ele>741.4</ele><time>2026-04-12T12:01:49.999Z</time></trkpt><trkpt lat="42.10237005152782" lon="13.003062543278217"><ele>740.0</ele><time>2026-04-12T12:01:50.999Z</time></trkpt><trkpt lat="42.10229575788954" lon="13.003114614849228"><ele>737.75</ele><time>2026-04-12T12:01:51.999Z</time></trkpt><trkpt lat="42.102219250851945" lon="13.00317477359159"><ele>735.5</ele><time>2026-04-12T12:01:52.999Z</time></trkpt><trkpt lat="42.10213240976132" lon="13.003274779847116"><ele>733.25</ele><time>2026-04-12T12:01:53.999Z</time></trkpt><trkpt lat="42.10205293693468" lon="13.003428301056726"><ele>731.0</ele><time>2026-04-12T12:01:54.999Z</time></trkpt><trkpt lat="42.10197792378578" lon="13.003597914005367"><ele>730.3333333333333</ele><time>2026-04-12T12:01:55.999Z</time></trkpt><trkpt lat="42.101871325411835" lon="13.003732788423424"><ele>729.6666666666666</ele><time>2026-04-12T12:01:56.999Z</time></trkpt><trkpt lat="42.10174153763206" lon="13.003855752587489"><ele>729.0</ele><time>2026-04-12T12:01:57.999Z</time></trkpt><trkpt lat="42.101609150736856" lon="13.003981485140626"><ele>727.75</ele><time>2026-04-12T12:01:58.999Z</time></trkpt><trkpt lat="42.10148519821114" lon="13.004099151298286"><ele>726.5</ele><time>2026-04-12T12:01:59.999Z</time></trkpt><trkpt lat="42.10137246006682" lon="13.004217103117343"><ele>725.25</ele><time>2026-04-12T12:02:00.999Z</time></trkpt><trkpt lat="42.10126038540026" lon="13.004324045005305"><ele>724.0</ele><time>2026-04-12T12:02:01.999Z</time></trkpt><trkpt lat="42.10113227939616" lon="13.004381021389662"><ele>724.0</ele><time>2026-04-12T12:02:02.999Z</time></trkpt><trkpt lat="42.10100870953137" lon="13.004452528358666"><ele>724.0</ele><time>2026-04-12T12:02:03.999Z</time></trkpt><trkpt lat="42.10087763788451" lon="13.004538445913022"><ele>724.0</ele><time>2026-04-12T12:02:04.999Z</time></trkpt><trkpt lat="42.10073615249653" lon="13.00462095984535"><ele>724.0</ele><time>2026-04-12T12:02:05.999Z</time></trkpt><trkpt lat="42.10059806622875" lon="13.004703160155286"><ele>723.75</ele><time>2026-04-12T12:02:06.999Z</time></trkpt><trkpt lat="42.100466361622225" lon="13.004784864387345"><ele>723.5</ele><time>2026-04-12T12:02:08.001Z</time></trkpt><trkpt lat="42.10034271372377" lon="13.004875914306162"><ele>723.25</ele><time>2026-04-12T12:02:09.001Z</time></trkpt><trkpt lat="42.10023753947002" lon="13.00499433544121"><ele>723.0</ele><time>2026-04-12T12:02:10.001Z</time></trkpt><trkpt lat="42.1001443565742" lon="13.005118071226667"><ele>723.0</ele><time>2026-04-12T12:02:11.001Z</time></trkpt><trkpt lat="42.10005300935228" lon="13.005231820767067"><ele>723.0</ele><time>2026-04-12T12:02:12.001Z</time></trkpt><trkpt lat="42.099957677634535" lon="13.005311857342031"><ele>723.0</ele><time>2026-04-12T12:02:13.001Z</time></trkpt><trkpt lat="42.099881379712876" lon="13.00538467124801"><ele>723.0</ele><time>2026-04-12T12:02:14.001Z</time></trkpt><trkpt lat="42.09980984886231" lon="13.005427907917976"><ele>723.0</ele><time>2026-04-12T12:02:15.001Z</time></trkpt><trkpt lat="42.09974978344323" lon="13.005483122393077"><ele>719.8</ele><time>2026-04-12T12:02:16.001Z</time></trkpt><trkpt lat="42.099686153046264" lon="13.005507098718963"><ele>716.5999999999999</ele><time>2026-04-12T12:02:17.001Z</time></trkpt><trkpt lat="42.09959452313649" lon="13.005577446208207"><ele>713.4000000000001</ele><time>2026-04-12T12:02:19.001Z</time></trkpt><trkpt lat="42.09949734078412" lon="13.005706404709764"><ele>710.2</ele><time>2026-04-12T12:02:21.001Z</time></trkpt><trkpt lat="42.09943000270277" lon="13.005778739755836"><ele>707.0</ele><time>2026-04-12T12:02:22.001Z</time></trkpt><trkpt lat="42.099352427764195" lon="13.005855306592684"><ele>707.0</ele><time>2026-04-12T12:02:23.001Z</time></trkpt><trkpt lat="42.09927245866714" lon="13.005949479777607"><ele>707.0</ele><time>2026-04-12T12:02:24.001Z</time></trkpt><trkpt lat="42.099192931294155" lon="13.006057174374662"><ele>707.0</ele><time>2026-04-12T12:02:25.001Z</time></trkpt><trkpt lat="42.099118602228565" lon="13.006169686200689"><ele>707.0</ele><time>2026-04-12T12:02:26.001Z</time></trkpt><trkpt lat="42.09904800162953" lon="13.006289136536674"><ele>707.0</ele><time>2026-04-12T12:02:27.001Z</time></trkpt><trkpt lat="42.09896277911812" lon="13.006377904960026"><ele>702.4000000000001</ele><time>2026-04-12T12:02:28.001Z</time></trkpt><trkpt lat="42.098880754581735" lon="13.006472593802247"><ele>697.8000000000001</ele><time>2026-04-12T12:02:29.001Z</time></trkpt><trkpt lat="42.09880689375493" lon="13.0065796283144"><ele>693.2</ele><time>2026-04-12T12:02:30.001Z</time></trkpt><trkpt lat="42.098735286397726" lon="13.006698514071173"><ele>688.6</ele><time>2026-04-12T12:02:31.001Z</time></trkpt><trkpt lat="42.09868214354132" lon="13.00683221417924"><ele>684.0</ele><time>2026-04-12T12:02:32.001Z</time></trkpt><trkpt lat="42.098644873414095" lon="13.006969858615044"><ele>684.0</ele><time>2026-04-12T12:02:33.001Z</time></trkpt><trkpt lat="42.09862907939445" lon="13.007110275909302"><ele>684.0</ele><time>2026-04-12T12:02:34.001Z</time></trkpt><trkpt lat="42.098631958809364" lon="13.007253660246061"><ele>684.0</ele><time>2026-04-12T12:02:35Z</time></trkpt><trkpt lat="42.0986534945592" lon="13.00739412257396"><ele>684.0</ele><time>2026-04-12T12:02:36Z</time></trkpt><trkpt lat="42.0986980297013" lon="13.007532807008323"><ele>684.0</ele><time>2026-04-12T12:02:37Z</time></trkpt><trkpt lat="42.09876782789829" lon="13.007673771310849"><ele>683.75</ele><time>2026-04-12T12:02:38Z</time></trkpt><trkpt lat="42.098853992463546" lon="13.00780513784369"><ele>683.5</ele><time>2026-04-12T12:02:39Z</time></trkpt><trkpt lat="42.098953104299824" lon="13.007919456311575"><ele>683.25</ele><time>2026-04-12T12:02:40Z</time></trkpt><trkpt lat="42.099063176435756" lon="13.00800769374246"><ele>683.0</ele><time>2026-04-12T12:02:41Z</time></trkpt><trkpt lat="42.099184393116104" lon="13.008068416845513"><ele>692.75</ele><time>2026-04-12T12:02:42Z</time></trkpt><trkpt lat="42.09931723448881" lon="13.008113028383601"><ele>702.5</ele><time>2026-04-12T12:02:43Z</time></trkpt><trkpt lat="42.09945498649884" lon="13.008144480021874"><ele>712.25</ele><time>2026-04-12T12:02:44Z</time></trkpt><trkpt lat="42.09959285169933" lon="13.008179475092211"><ele>722.0</ele><time>2026-04-12T12:02:45Z</time></trkpt><trkpt lat="42.099730639700475" lon="13.008218258048812"><ele>722.0</ele><time>2026-04-12T12:02:46Z</time></trkpt><trkpt lat="42.09986008761205" lon="13.008265231800717"><ele>722.0</ele><time>2026-04-12T12:02:47Z</time></trkpt><trkpt lat="42.099990925061306" lon="13.008282474198731"><ele>722.0</ele><time>2026-04-12T12:02:48Z</time></trkpt><trkpt lat="42.10012081637504" lon="13.008283245433363"><ele>722.0</ele><time>2026-04-12T12:02:49Z</time></trkpt><trkpt lat="42.100252743455016" lon="13.008273025294105"><ele>725.75</ele><time>2026-04-12T12:02:50Z</time></trkpt><trkpt lat="42.100392693740105" lon="13.008261889059918"><ele>729.5</ele><time>2026-04-12T12:02:51Z</time></trkpt><trkpt lat="42.10053012314918" lon="13.00823117743452"><ele>733.25</ele><time>2026-04-12T12:02:52Z</time></trkpt><trkpt lat="42.10066439729878" lon="13.008216593363718"><ele>737.0</ele><time>2026-04-12T12:02:53Z</time></trkpt><trkpt lat="42.10080072195573" lon="13.008239009107811"><ele>723.3333333333333</ele><time>2026-04-12T12:02:54Z</time></trkpt><trkpt lat="42.10093710314367" lon="13.00832727602689"><ele>709.6666666666666</ele><time>2026-04-12T12:02:55Z</time></trkpt><trkpt lat="42.101083576196174" lon="13.008404416907068"><ele>696.0</ele><time>2026-04-12T12:02:56Z</time></trkpt><trkpt lat="42.10122250720209" lon="13.00850613140742"><ele>696.0</ele><time>2026-04-12T12:02:57Z</time></trkpt><trkpt lat="42.10135656426029" lon="13.008608836374984"><ele>696.0</ele><time>2026-04-12T12:02:58Z</time></trkpt><trkpt lat="42.1014744854122" lon="13.008733581340726"><ele>696.0</ele><time>2026-04-12T12:02:59Z</time></trkpt><trkpt lat="42.101580881021604" lon="13.00887457408954"><ele>699.5</ele><time>2026-04-12T12:03:00Z</time></trkpt><trkpt lat="42.10168818950965" lon="13.009004105830096"><ele>703.0</ele><time>2026-04-12T12:03:01Z</time></trkpt><trkpt lat="42.10179587342943" lon="13.009107941549638"><ele>706.5</ele><time>2026-04-12T12:03:02Z</time></trkpt><trkpt lat="42.10191259647022" lon="13.00919751882344"><ele>710.0</ele><time>2026-04-12T12:03:03Z</time></trkpt><trkpt lat="42.102053579047556" lon="13.00925415400724"><ele>701.6666666666666</ele><time>2026-04-12T12:03:04Z</time></trkpt><trkpt lat="42.102214148023855" lon="13.00928623747483"><ele>693.3333333333334</ele><time>2026-04-12T12:03:05Z</time></trkpt><trkpt lat="42.10238495288269" lon="13.009305345270883"><ele>685.0</ele><time>2026-04-12T12:03:06Z</time></trkpt><trkpt lat="42.102550328796" lon="13.00932826026384"><ele>685.0</ele><time>2026-04-12T12:03:07Z</time></trkpt><trkpt lat="42.10271096495722" lon="13.009363749883146"><ele>685.0</ele><time>2026-04-12T12:03:08Z</time></trkpt><trkpt lat="42.102867798407885" lon="13.00941328550496"><ele>685.0</ele><time>2026-04-12T12:03:09Z</time></trkpt><trkpt lat="42.103027460794465" lon="13.009468995617748"><ele>685.0</ele><time>2026-04-12T12:03:10Z</time></trkpt><trkpt lat="42.103188973136994" lon="13.009515811472681"><ele>685.0</ele><time>2026-04-12T12:03:11Z</time></trkpt><trkpt lat="42.10335544988052" lon="13.009566881737188"><ele>685.0</ele><time>2026-04-12T12:03:12Z</time></trkpt><trkpt lat="42.103530019018706" lon="13.009620474196051"><ele>688.0</ele><time>2026-04-12T12:03:13Z</time></trkpt><trkpt lat="42.10370239461411" lon="13.009669543857813"><ele>691.0</ele><time>2026-04-12T12:03:14Z</time></trkpt><trkpt lat="42.10387048669057" lon="13.009716106795926"><ele>694.0</ele><time>2026-04-12T12:03:15Z</time></trkpt><trkpt lat="42.104035614030195" lon="13.00975623484656"><ele>695.0</ele><time>2026-04-12T12:03:16Z</time></trkpt><trkpt lat="42.10419709857871" lon="13.009789802594781"><ele>696.0</ele><time>2026-04-12T12:03:17Z</time></trkpt><trkpt lat="42.10435589909139" lon="13.009814091343964"><ele>697.0</ele><time>2026-04-12T12:03:18Z</time></trkpt><trkpt lat="42.104505885446564" lon="13.009829313863719"><ele>697.0</ele><time>2026-04-12T12:03:19Z</time></trkpt><trkpt lat="42.10464832194911" lon="13.009825513024404"><ele>697.0</ele><time>2026-04-12T12:03:20Z</time></trkpt><trkpt lat="42.10478226085772" lon="13.009799770105086"><ele>697.0</ele><time>2026-04-12T12:03:21Z</time></trkpt><trkpt lat="42.10490643213282" lon="13.00977036078308"><ele>697.0</ele><time>2026-04-12T12:03:22Z</time></trkpt><trkpt lat="42.105020443604225" lon="13.009793404491035"><ele>695.75</ele><time>2026-04-12T12:03:23Z</time></trkpt><trkpt lat="42.10513183383297" lon="13.009845981295989"><ele>694.5</ele><time>2026-04-12T12:03:24Z</time></trkpt><trkpt lat="42.10522154642284" lon="13.009939368186398"><ele>693.25</ele><time>2026-04-12T12:03:25Z</time></trkpt><trkpt lat="42.10528570597048" lon="13.010068878490523"><ele>692.0</ele><time>2026-04-12T12:03:26Z</time></trkpt><trkpt lat="42.10532266197367" lon="13.010218973855796"><ele>682.75</ele><time>2026-04-12T12:03:27Z</time></trkpt><trkpt lat="42.10532817773657" lon="13.010373217549073"><ele>673.5</ele><time>2026-04-12T12:03:28Z</time></trkpt><trkpt lat="42.10529264505797" lon="13.010527905900267"><ele>664.25</ele><time>2026-04-12T12:03:28.999Z</time></trkpt><trkpt lat="42.10521779013731" lon="13.010672680741335"><ele>655.0</ele><time>2026-04-12T12:03:29.999Z</time></trkpt><trkpt lat="42.10514176098437" lon="13.010777742795623"><ele>653.25</ele><time>2026-04-12T12:03:30.999Z</time></trkpt><trkpt lat="42.105085228655504" lon="13.010825246806935"><ele>651.5</ele><time>2026-04-12T12:03:31.999Z</time></trkpt><trkpt lat="42.10494544194427" lon="13.01090614484888"><ele>649.75</ele><time>2026-04-12T12:03:32.999Z</time></trkpt><trkpt lat="42.104769530744576" lon="13.010988864765428"><ele>648.0</ele><time>2026-04-12T12:03:33.999Z</time></trkpt><trkpt lat="42.10459685801084" lon="13.011091880744978"><ele>642.6666666666666</ele><time>2026-04-12T12:03:34.999Z</time></trkpt><trkpt lat="42.10445008047972" lon="13.011188254731763"><ele>637.3333333333333</ele><time>2026-04-12T12:03:35.999Z</time></trkpt><trkpt lat="42.10431938971717" lon="13.011317429771973"><ele>632.0</ele><time>2026-04-12T12:03:36.999Z</time></trkpt><trkpt lat="42.10419287273963" lon="13.011489260493112"><ele>633.75</ele><time>2026-04-12T12:03:37.999Z</time></trkpt><trkpt lat="42.10410231005513" lon="13.01165700792213"><ele>635.5</ele><time>2026-04-12T12:03:38.999Z</time></trkpt><trkpt lat="42.10402505193551" lon="13.011793628009876"><ele>637.25</ele><time>2026-04-12T12:03:39.999Z</time></trkpt><trkpt lat="42.10391183470068" lon="13.011857596651053"><ele>639.0</ele><time>2026-04-12T12:03:40.999Z</time></trkpt><trkpt lat="42.103783520088946" lon="13.011884095981326"><ele>635.25</ele><time>2026-04-12T12:03:41.999Z</time></trkpt><trkpt lat="42.10365637155679" lon="13.011860536361748"><ele>631.5</ele><time>2026-04-12T12:03:42.999Z</time></trkpt><trkpt lat="42.10352424159474" lon="13.011841688698503"><ele>627.75</ele><time>2026-04-12T12:03:43.999Z</time></trkpt><trkpt lat="42.10337678500332" lon="13.011852977003906"><ele>624.0</ele><time>2026-04-12T12:03:44.999Z</time></trkpt><trkpt lat="42.103192705622334" lon="13.011921614713499"><ele>620.6666666666666</ele><time>2026-04-12T12:03:45.999Z</time></trkpt><trkpt lat="42.10298818402119" lon="13.011978286969882"><ele>617.3333333333333</ele><time>2026-04-12T12:03:46.999Z</time></trkpt><trkpt lat="42.102798541275966" lon="13.012042459624787"><ele>614.0</ele><time>2026-04-12T12:03:47.999Z</time></trkpt><trkpt lat="42.102621099681464" lon="13.012091544585852"><ele>614.0</ele><time>2026-04-12T12:03:48.999Z</time></trkpt><trkpt lat="42.10245388724817" lon="13.01215182843236"><ele>614.0</ele><time>2026-04-12T12:03:49.999Z</time></trkpt><trkpt lat="42.10229528932101" lon="13.012196477493218"><ele>614.0</ele><time>2026-04-12T12:03:50.999Z</time></trkpt><trkpt lat="42.10215432975311" lon="13.01223142034175"><ele>613.0</ele><time>2026-04-12T12:03:51.999Z</time></trkpt><trkpt lat="42.102027647429246" lon="13.01228650094431"><ele>612.0</ele><time>2026-04-12T12:03:52.999Z</time></trkpt><trkpt lat="42.10191370790319" lon="13.012386307868757"><ele>611.0</ele><time>2026-04-12T12:03:53.999Z</time></trkpt><trkpt lat="42.10185313187448" lon="13.012530037508933"><ele>610.0</ele><time>2026-04-12T12:03:54.999Z</time></trkpt><trkpt lat="42.101789301025995" lon="13.012701736995561"><ele>609.0</ele><time>2026-04-12T12:03:55.999Z</time></trkpt><trkpt lat="42.10179422905765" lon="13.012914856761068"><ele>608.0</ele><time>2026-04-12T12:03:56.999Z</time></trkpt><trkpt lat="42.10180625725759" lon="13.013160980477476"><ele>607.0</ele><time>2026-04-12T12:03:57.999Z</time></trkpt><trkpt lat="42.10185676771786" lon="13.013412340671097"><ele>607.0</ele><time>2026-04-12T12:03:58.999Z</time></trkpt><trkpt lat="42.10187636101108" lon="13.013628412195661"><ele>607.0</ele><time>2026-04-12T12:03:59.999Z</time></trkpt><trkpt lat="42.10188477514006" lon="13.013815316433664"><ele>607.0</ele><time>2026-04-12T12:04:00.999Z</time></trkpt><trkpt lat="42.101861395155595" lon="13.013977613345315"><ele>607.0</ele><time>2026-04-12T12:04:01.999Z</time></trkpt><trkpt lat="42.1018074985149" lon="13.014126428529261"><ele>606.0</ele><time>2026-04-12T12:04:02.999Z</time></trkpt><trkpt lat="42.10170274855475" lon="13.014249506381566"><ele>605.0</ele><time>2026-04-12T12:04:03.999Z</time></trkpt><trkpt lat="42.10157999574787" lon="13.014416530593875"><ele>604.0</ele><time>2026-04-12T12:04:04.999Z</time></trkpt><trkpt lat="42.101458339200164" lon="13.014635590570629"><ele>601.0</ele><time>2026-04-12T12:04:05.999Z</time></trkpt><trkpt lat="42.101332894708825" lon="13.014870633129236"><ele>598.0</ele><time>2026-04-12T12:04:06.999Z</time></trkpt><trkpt lat="42.101226119877545" lon="13.015136335606273"><ele>595.0</ele><time>2026-04-12T12:04:07.999Z</time></trkpt><trkpt lat="42.1011159020815" lon="13.015402947694527"><ele>594.6666666666667</ele><time>2026-04-12T12:04:08.999Z</time></trkpt><trkpt lat="42.10100988119536" lon="13.015645965634798"><ele>594.3333333333334</ele><time>2026-04-12T12:04:09.999Z</time></trkpt><trkpt lat="42.100911716674915" lon="13.015877333522285"><ele>594.0</ele><time>2026-04-12T12:04:10.999Z</time></trkpt><trkpt lat="42.100822838230755" lon="13.01610100353127"><ele>593.6666666666666</ele><time>2026-04-12T12:04:11.999Z</time></trkpt><trkpt lat="42.10074026351805" lon="13.016317161500119"><ele>593.3333333333333</ele><time>2026-04-12T12:04:12.999Z</time></trkpt><trkpt lat="42.10066675073429" lon="13.016527014812572"><ele>593.0</ele><time>2026-04-12T12:04:14.001Z</time></trkpt><trkpt lat="42.100594862161024" lon="13.016735614544327"><ele>592.6666666666666</ele><time>2026-04-12T12:04:15.001Z</time></trkpt><trkpt lat="42.10052154316578" lon="13.016946025273018"><ele>592.3333333333334</ele><time>2026-04-12T12:04:16.001Z</time></trkpt><trkpt lat="42.10045231657494" lon="13.017157359596753"><ele>592.0</ele><time>2026-04-12T12:04:17.001Z</time></trkpt><trkpt lat="42.10038074221217" lon="13.017360533024084"><ele>591.0</ele><time>2026-04-12T12:04:18.001Z</time></trkpt><trkpt lat="42.10031724034294" lon="13.017570920736137"><ele>590.0</ele><time>2026-04-12T12:04:19.001Z</time></trkpt><trkpt lat="42.100248823796065" lon="13.017783940476821"><ele>589.0</ele><time>2026-04-12T12:04:20.001Z</time></trkpt><trkpt lat="42.10018059506488" lon="13.01800380154661"><ele>589.0</ele><time>2026-04-12T12:04:21.001Z</time></trkpt><trkpt lat="42.100109725947426" lon="13.018230552996183"><ele>589.0</ele><time>2026-04-12T12:04:22.001Z</time></trkpt><trkpt lat="42.100037156923634" lon="13.018456468166724"><ele>589.0</ele><time>2026-04-12T12:04:23.001Z</time></trkpt><trkpt lat="42.099966372796416" lon="13.018670377172032"><ele>586.6666666666667</ele><time>2026-04-12T12:04:24.001Z</time></trkpt><trkpt lat="42.09990041092546" lon="13.018876211901757"><ele>584.3333333333334</ele><time>2026-04-12T12:04:25.001Z</time></trkpt><trkpt lat="42.09983913656583" lon="13.019074689665032"><ele>582.0</ele><time>2026-04-12T12:04:26.001Z</time></trkpt><trkpt lat="42.099795070241825" lon="13.019286246172552"><ele>581.6666666666666</ele><time>2026-04-12T12:04:27.001Z</time></trkpt><trkpt lat="42.09977919532598" lon="13.019510387799269"><ele>581.3333333333333</ele><time>2026-04-12T12:04:28.001Z</time></trkpt><trkpt lat="42.09980352277295" lon="13.019748889517787"><ele>581.0</ele><time>2026-04-12T12:04:29.001Z</time></trkpt><trkpt lat="42.09985516229405" lon="13.019991946970658"><ele>580.3333333333333</ele><time>2026-04-12T12:04:30.001Z</time></trkpt><trkpt lat="42.09992271019282" lon="13.020234231187032"><ele>579.6666666666666</ele><time>2026-04-12T12:04:31.001Z</time></trkpt><trkpt lat="42.09997107682588" lon="13.020491033890567"><ele>579.0</ele><time>2026-04-12T12:04:32.001Z</time></trkpt><trkpt lat="42.100033949651326" lon="13.020740172202945"><ele>577.6666666666666</ele><time>2026-04-12T12:04:33.001Z</time></trkpt><trkpt lat="42.10010778829377" lon="13.020977788686775"><ele>576.3333333333333</ele><time>2026-04-12T12:04:34.001Z</time></trkpt><trkpt lat="42.10016684740154" lon="13.021216384284525"><ele>575.0</ele><time>2026-04-12T12:04:35.001Z</time></trkpt><trkpt lat="42.100208065121656" lon="13.021462597363541"><ele>575.3333333333333</ele><time>2026-04-12T12:04:36Z</time></trkpt><trkpt lat="42.100266425856255" lon="13.021701299951015"><ele>575.6666666666666</ele><time>2026-04-12T12:04:37Z</time></trkpt><trkpt lat="42.1003398512576" lon="13.021932169910196"><ele>576.0</ele><time>2026-04-12T12:04:38Z</time></trkpt><trkpt lat="42.100393799380065" lon="13.022161625381663"><ele>576.0</ele><time>2026-04-12T12:04:39Z</time></trkpt><trkpt lat="42.100448163449585" lon="13.022379486239592"><ele>576.0</ele><time>2026-04-12T12:04:40Z</time></trkpt><trkpt lat="42.10049638809469" lon="13.022591921085823"><ele>576.0</ele><time>2026-04-12T12:04:41Z</time></trkpt><trkpt lat="42.10054659268071" lon="13.022792406082363"><ele>576.0</ele><time>2026-04-12T12:04:42Z</time></trkpt><trkpt lat="42.1005983622533" lon="13.022981426371492"><ele>576.0</ele><time>2026-04-12T12:04:43Z</time></trkpt><trkpt lat="42.100677122999684" lon="13.023159511514415"><ele>576.0</ele><time>2026-04-12T12:04:44Z</time></trkpt><trkpt lat="42.10078774757326" lon="13.02332444041776"><ele>575.0</ele><time>2026-04-12T12:04:45Z</time></trkpt><trkpt lat="42.100924265116596" lon="13.023479421542461"><ele>574.0</ele><time>2026-04-12T12:04:46Z</time></trkpt><trkpt lat="42.10106300134462" lon="13.023642916837389"><ele>573.0</ele><time>2026-04-12T12:04:47Z</time></trkpt><trkpt lat="42.10119391811417" lon="13.023810822812699"><ele>573.0</ele><time>2026-04-12T12:04:48Z</time></trkpt><trkpt lat="42.1013168599667" lon="13.02396185275318"><ele>573.0</ele><time>2026-04-12T12:04:49Z</time></trkpt><trkpt lat="42.10143659588659" lon="13.0240962170215"><ele>573.0</ele><time>2026-04-12T12:04:50Z</time></trkpt><trkpt lat="42.101563796835386" lon="13.024213000409336"><ele>573.0</ele><time>2026-04-12T12:04:51Z</time></trkpt><trkpt lat="42.10170467571427" lon="13.024312619621439"><ele>573.0</ele><time>2026-04-12T12:04:52Z</time></trkpt><trkpt lat="42.10186326669043" lon="13.024401559388506"><ele>573.0</ele><time>2026-04-12T12:04:53Z</time></trkpt><trkpt lat="42.10202927305857" lon="13.024476537822439"><ele>573.0</ele><time>2026-04-12T12:04:54Z</time></trkpt><trkpt lat="42.10221035133562" lon="13.024535634656115"><ele>573.0</ele><time>2026-04-12T12:04:55Z</time></trkpt><trkpt lat="42.10239535210514" lon="13.024590237045313"><ele>573.0</ele><time>2026-04-12T12:04:56Z</time></trkpt><trkpt lat="42.1025873043738" lon="13.024641218638447"><ele>574.3333333333334</ele><time>2026-04-12T12:04:57Z</time></trkpt><trkpt lat="42.10277850329522" lon="13.024695194262861"><ele>575.6666666666667</ele><time>2026-04-12T12:04:58Z</time></trkpt><trkpt lat="42.10296763520253" lon="13.024748789335694"><ele>577.0</ele><time>2026-04-12T12:04:59Z</time></trkpt><trkpt lat="42.1031494556439" lon="13.02480747635203"><ele>577.0</ele><time>2026-04-12T12:05:00Z</time></trkpt><trkpt lat="42.10332637574452" lon="13.024866371654165"><ele>577.0</ele><time>2026-04-12T12:05:01Z</time></trkpt><trkpt lat="42.10350246019784" lon="13.024933694225368"><ele>577.0</ele><time>2026-04-12T12:05:02Z</time></trkpt><trkpt lat="42.103677487289374" lon="13.025015290771258"><ele>576.3333333333334</ele><time>2026-04-12T12:05:03Z</time></trkpt><trkpt lat="42.10385504521075" lon="13.025117076971396"><ele>575.6666666666666</ele><time>2026-04-12T12:05:04Z</time></trkpt><trkpt lat="42.10404301866303" lon="13.025218670395725"><ele>575.0</ele><time>2026-04-12T12:05:05Z</time></trkpt><trkpt lat="42.10422504094221" lon="13.025326841944018"><ele>575.0</ele><time>2026-04-12T12:05:06Z</time></trkpt><trkpt lat="42.10439227221977" lon="13.025466775131862"><ele>575.0</ele><time>2026-04-12T12:05:07Z</time></trkpt><trkpt lat="42.104562661167506" lon="13.025609319261406"><ele>575.0</ele><time>2026-04-12T12:05:08Z</time></trkpt><trkpt lat="42.10474184837957" lon="13.025761679258968"><ele>574.0</ele><time>2026-04-12T12:05:09Z</time></trkpt><trkpt lat="42.10493891282093" lon="13.025905108028747"><ele>573.0</ele><time>2026-04-12T12:05:10Z</time></trkpt><trkpt lat="42.10512738904761" lon="13.02607007925397"><ele>572.0</ele><time>2026-04-12T12:05:11Z</time></trkpt><trkpt lat="42.105317055230806" lon="13.026227578049335"><ele>572.0</ele><time>2026-04-12T12:05:12Z</time></trkpt><trkpt lat="42.10549809811033" lon="13.02638249440047"><ele>572.0</ele><time>2026-04-12T12:05:13Z</time></trkpt><trkpt lat="42.105678695269894" lon="13.026536683320991"><ele>572.0</ele><time>2026-04-12T12:05:14Z</time></trkpt><trkpt lat="42.10585895488439" lon="13.026673793917553"><ele>572.6666666666666</ele><time>2026-04-12T12:05:15Z</time></trkpt><trkpt lat="42.106050055290765" lon="13.02679776176257"><ele>573.3333333333334</ele><time>2026-04-12T12:05:16Z</time></trkpt><trkpt lat="42.10624399756235" lon="13.026914836088636"><ele>574.0</ele><time>2026-04-12T12:05:17Z</time></trkpt><trkpt lat="42.10643764714244" lon="13.02703091331385"><ele>577.6666666666667</ele><time>2026-04-12T12:05:18Z</time></trkpt><trkpt lat="42.106628633723815" lon="13.027148160036148"><ele>581.3333333333334</ele><time>2026-04-12T12:05:19Z</time></trkpt><trkpt lat="42.10681504130933" lon="13.027261351177946"><ele>585.0</ele><time>2026-04-12T12:05:20Z</time></trkpt><trkpt lat="42.106992976747044" lon="13.027368109525595"><ele>585.0</ele><time>2026-04-12T12:05:21Z</time></trkpt><trkpt lat="42.10716219294338" lon="13.027471302210994"><ele>585.0</ele><time>2026-04-12T12:05:22Z</time></trkpt><trkpt lat="42.1073319798411" lon="13.027573867160395"><ele>585.0</ele><time>2026-04-12T12:05:23Z</time></trkpt><trkpt lat="42.107504901969655" lon="13.02767783394438"><ele>582.6666666666666</ele><time>2026-04-12T12:05:24Z</time></trkpt><trkpt lat="42.10767804203971" lon="13.027783020768135"><ele>580.3333333333333</ele><time>2026-04-12T12:05:25Z</time></trkpt><trkpt lat="42.10785556862959" lon="13.027891908928192"><ele>578.0</ele><time>2026-04-12T12:05:26Z</time></trkpt><trkpt lat="42.10803219993549" lon="13.028002167345274"><ele>578.0</ele><time>2026-04-12T12:05:27Z</time></trkpt><trkpt lat="42.10821178449341" lon="13.028107906762392"><ele>578.0</ele><time>2026-04-12T12:05:28Z</time></trkpt><trkpt lat="42.10839097314198" lon="13.028215111367157"><ele>578.0</ele><time>2026-04-12T12:05:29Z</time></trkpt><trkpt lat="42.10856899510937" lon="13.02832363859689"><ele>577.3333333333333</ele><time>2026-04-12T12:05:29.999Z</time></trkpt><trkpt lat="42.10874207247086" lon="13.028450814857816"><ele>576.6666666666666</ele><time>2026-04-12T12:05:30.999Z</time></trkpt><trkpt lat="42.10892703343193" lon="13.028540136396089"><ele>576.0</ele><time>2026-04-12T12:05:31.999Z</time></trkpt><trkpt lat="42.10910506064287" lon="13.028651353662418"><ele>576.0</ele><time>2026-04-12T12:05:32.999Z</time></trkpt><trkpt lat="42.10928242675585" lon="13.028766908098497"><ele>576.0</ele><time>2026-04-12T12:05:33.999Z</time></trkpt><trkpt lat="42.10945759397811" lon="13.028875777145434"><ele>576.0</ele><time>2026-04-12T12:05:34.999Z</time></trkpt><trkpt lat="42.10962556143731" lon="13.028976106718593"><ele>576.0</ele><time>2026-04-12T12:05:35.999Z</time></trkpt><trkpt lat="42.10978696823226" lon="13.029071824250765"><ele>576.0</ele><time>2026-04-12T12:05:36.999Z</time></trkpt><trkpt lat="42.10993598038228" lon="13.029164879804876"><ele>576.0</ele><time>2026-04-12T12:05:37.999Z</time></trkpt><trkpt lat="42.11008398122135" lon="13.029250011154696"><ele>575.0</ele><time>2026-04-12T12:05:38.999Z</time></trkpt><trkpt lat="42.11022215118007" lon="13.02933757984219"><ele>574.0</ele><time>2026-04-12T12:05:39.999Z</time></trkpt><trkpt lat="42.11035610702213" lon="13.029421807275968"><ele>573.0</ele><time>2026-04-12T12:05:40.999Z</time></trkpt><trkpt lat="42.11048781637988" lon="13.029496965430795"><ele>572.0</ele><time>2026-04-12T12:05:41.999Z</time></trkpt><trkpt lat="42.11060922908654" lon="13.029575312445363"><ele>572.0</ele><time>2026-04-12T12:05:42.999Z</time></trkpt><trkpt lat="42.1107284486518" lon="13.029649014935753"><ele>572.0</ele><time>2026-04-12T12:05:43.999Z</time></trkpt><trkpt lat="42.110837653740894" lon="13.029712212829311"><ele>572.0</ele><time>2026-04-12T12:05:44.999Z</time></trkpt><trkpt lat="42.110922861834965" lon="13.029775382531039"><ele>572.0</ele><time>2026-04-12T12:05:45.999Z</time></trkpt><trkpt lat="42.110990790659464" lon="13.029838247106241"><ele>572.0</ele><time>2026-04-12T12:05:46.999Z</time></trkpt><trkpt lat="42.11104269134527" lon="13.02989595606256"><ele>570.5</ele><time>2026-04-12T12:05:47.999Z</time></trkpt><trkpt lat="42.111002334941546" lon="13.030134059250676"><ele>569.0</ele><time>2026-04-12T12:05:50.999Z</time></trkpt><trkpt lat="42.11093662322309" lon="13.03019073760614"><ele>567.5</ele><time>2026-04-12T12:05:51.999Z</time></trkpt><trkpt lat="42.11088091898135" lon="13.030290777022508"><ele>566.0</ele><time>2026-04-12T12:05:52.999Z</time></trkpt><trkpt lat="42.11081192239454" lon="13.030403355743271"><ele>566.0</ele><time>2026-04-12T12:05:53.999Z</time></trkpt><trkpt lat="42.11074702488742" lon="13.03054752836263"><ele>566.0</ele><time>2026-04-12T12:05:54.999Z</time></trkpt><trkpt lat="42.11068387412286" lon="13.030710000952174"><ele>566.0</ele><time>2026-04-12T12:05:55.999Z</time></trkpt><trkpt lat="42.110625160337364" lon="13.030881740545915"><ele>566.0</ele><time>2026-04-12T12:05:56.999Z</time></trkpt><trkpt lat="42.11056954542031" lon="13.03105352082332"><ele>565.75</ele><time>2026-04-12T12:05:57.999Z</time></trkpt><trkpt lat="42.11051553165113" lon="13.031231134082518"><ele>565.5</ele><time>2026-04-12T12:05:58.999Z</time></trkpt><trkpt lat="42.11045909910152" lon="13.031409966116062"><ele>565.25</ele><time>2026-04-12T12:05:59.999Z</time></trkpt><trkpt lat="42.11039832518104" lon="13.031590167888831"><ele>565.0</ele><time>2026-04-12T12:06:00.999Z</time></trkpt><trkpt lat="42.110333733686986" lon="13.031776129255125"><ele>564.6666666666667</ele><time>2026-04-12T12:06:01.999Z</time></trkpt><trkpt lat="42.110264674600586" lon="13.031971199417685"><ele>564.3333333333334</ele><time>2026-04-12T12:06:02.999Z</time></trkpt><trkpt lat="42.11019271455225" lon="13.032169385674042"><ele>564.0</ele><time>2026-04-12T12:06:03.999Z</time></trkpt><trkpt lat="42.11011868578115" lon="13.032363747697024"><ele>564.6666666666666</ele><time>2026-04-12T12:06:04.999Z</time></trkpt><trkpt lat="42.11003733873467" lon="13.03254049678314"><ele>565.3333333333333</ele><time>2026-04-12T12:06:05.999Z</time></trkpt><trkpt lat="42.10993361840913" lon="13.032701176414301"><ele>566.0</ele><time>2026-04-12T12:06:06.999Z</time></trkpt><trkpt lat="42.10980581831482" lon="13.032834595050543"><ele>566.0</ele><time>2026-04-12T12:06:07.999Z</time></trkpt><trkpt lat="42.10966246298809" lon="13.032947829928652"><ele>566.0</ele><time>2026-04-12T12:06:08.999Z</time></trkpt><trkpt lat="42.109508454150586" lon="13.033054921565817"><ele>566.0</ele><time>2026-04-12T12:06:09.999Z</time></trkpt><trkpt lat="42.10934583790819" lon="13.033167363440358"><ele>566.0</ele><time>2026-04-12T12:06:10.999Z</time></trkpt><trkpt lat="42.10918273539387" lon="13.033282702370025"><ele>566.0</ele><time>2026-04-12T12:06:11.999Z</time></trkpt><trkpt lat="42.10902738524039" lon="13.033399850092682"><ele>566.0</ele><time>2026-04-12T12:06:12.999Z</time></trkpt><trkpt lat="42.10887167365139" lon="13.033518772659017"><ele>566.3333333333333</ele><time>2026-04-12T12:06:13.999Z</time></trkpt><trkpt lat="42.10871242241621" lon="13.033637421208512"><ele>566.6666666666666</ele><time>2026-04-12T12:06:14.999Z</time></trkpt><trkpt lat="42.10855094961429" lon="13.033756552891903"><ele>567.0</ele><time>2026-04-12T12:06:15.999Z</time></trkpt><trkpt lat="42.10838829531376" lon="13.033874553831437"><ele>567.3333333333334</ele><time>2026-04-12T12:06:16.999Z</time></trkpt><trkpt lat="42.10822717651326" lon="13.033991973010785"><ele>567.6666666666667</ele><time>2026-04-12T12:06:17.999Z</time></trkpt><trkpt lat="42.10807122110428" lon="13.03410778580563"><ele>568.0</ele><time>2026-04-12T12:06:18.999Z</time></trkpt><trkpt lat="42.10791334987126" lon="13.034221984431449"><ele>568.0</ele><time>2026-04-12T12:06:20.001Z</time></trkpt><trkpt lat="42.10775927401998" lon="13.034336646796746"><ele>568.0</ele><time>2026-04-12T12:06:21.001Z</time></trkpt><trkpt lat="42.1076077457894" lon="13.034460809932046"><ele>568.0</ele><time>2026-04-12T12:06:22.001Z</time></trkpt><trkpt lat="42.10746806173279" lon="13.03460416368059"><ele>568.0</ele><time>2026-04-12T12:06:23.001Z</time></trkpt><trkpt lat="42.10733546183834" lon="13.034772571534937"><ele>568.0</ele><time>2026-04-12T12:06:24.001Z</time></trkpt><trkpt lat="42.10721217056728" lon="13.034956047644682"><ele>568.0</ele><time>2026-04-12T12:06:25.001Z</time></trkpt><trkpt lat="42.10708951461657" lon="13.035142197455128"><ele>568.3333333333334</ele><time>2026-04-12T12:06:26.001Z</time></trkpt><trkpt lat="42.106963795979674" lon="13.035324025464101"><ele>568.6666666666666</ele><time>2026-04-12T12:06:27.001Z</time></trkpt><trkpt lat="42.106837564647606" lon="13.035505237187792"><ele>569.0</ele><time>2026-04-12T12:06:28.001Z</time></trkpt><trkpt lat="42.10671311921357" lon="13.035688158854999"><ele>568.3333333333333</ele><time>2026-04-12T12:06:29.001Z</time></trkpt><trkpt lat="42.10658772347792" lon="13.035872169727021"><ele>567.6666666666666</ele><time>2026-04-12T12:06:30.001Z</time></trkpt><trkpt lat="42.10645886694354" lon="13.036057025661645"><ele>567.0</ele><time>2026-04-12T12:06:31.001Z</time></trkpt><trkpt lat="42.106331440256966" lon="13.036239349803397"><ele>567.0</ele><time>2026-04-12T12:06:32.001Z</time></trkpt><trkpt lat="42.10620735490259" lon="13.036423556394181"><ele>567.0</ele><time>2026-04-12T12:06:33.001Z</time></trkpt><trkpt lat="42.10608333736269" lon="13.03660670672322"><ele>567.0</ele><time>2026-04-12T12:06:34.001Z</time></trkpt><trkpt lat="42.10595691551378" lon="13.036787617839083"><ele>567.6666666666666</ele><time>2026-04-12T12:06:35.001Z</time></trkpt><trkpt lat="42.105828504500785" lon="13.036978381910155"><ele>568.3333333333333</ele><time>2026-04-12T12:06:36.001Z</time></trkpt><trkpt lat="42.10570182709163" lon="13.037176667599384"><ele>569.0</ele><time>2026-04-12T12:06:37.001Z</time></trkpt><trkpt lat="42.10558763576143" lon="13.037382662139999"><ele>569.0</ele><time>2026-04-12T12:06:38.001Z</time></trkpt><trkpt lat="42.10548223699364" lon="13.037603184249546"><ele>569.0</ele><time>2026-04-12T12:06:39Z</time></trkpt><trkpt lat="42.105385143765595" lon="13.037838719519993"><ele>569.0</ele><time>2026-04-12T12:06:40Z</time></trkpt><trkpt lat="42.10529768516121" lon="13.038075964878642"><ele>569.3333333333333</ele><time>2026-04-12T12:06:41Z</time></trkpt><trkpt lat="42.10521722598316" lon="13.038319592146742"><ele>569.6666666666666</ele><time>2026-04-12T12:06:42Z</time></trkpt><trkpt lat="42.10514845832912" lon="13.0385684380198"><ele>570.0</ele><time>2026-04-12T12:06:43Z</time></trkpt><trkpt lat="42.105087981654535" lon="13.038818733222781"><ele>570.0</ele><time>2026-04-12T12:06:44Z</time></trkpt><trkpt lat="42.10503472200709" lon="13.039066328567365"><ele>570.0</ele><time>2026-04-12T12:06:45Z</time></trkpt><trkpt lat="42.10498121176433" lon="13.039308716568986"><ele>570.0</ele><time>2026-04-12T12:06:46Z</time></trkpt><trkpt lat="42.1049247549373" lon="13.039553498479034"><ele>569.6666666666666</ele><time>2026-04-12T12:06:47Z</time></trkpt><trkpt lat="42.104869353215925" lon="13.039803100790337"><ele>569.3333333333333</ele><time>2026-04-12T12:06:48Z</time></trkpt><trkpt lat="42.10481524179974" lon="13.040054165557079"><ele>569.0</ele><time>2026-04-12T12:06:49Z</time></trkpt><trkpt lat="42.104760282366684" lon="13.040304914880776"><ele>569.0</ele><time>2026-04-12T12:06:50Z</time></trkpt><trkpt lat="42.10470445830629" lon="13.04055307859106"><ele>569.0</ele><time>2026-04-12T12:06:51Z</time></trkpt><trkpt lat="42.10464986259393" lon="13.040799583642688"><ele>569.0</ele><time>2026-04-12T12:06:52Z</time></trkpt><trkpt lat="42.104595532313425" lon="13.041046748258081"><ele>570.3333333333333</ele><time>2026-04-12T12:06:53Z</time></trkpt><trkpt lat="42.10454107090929" lon="13.041291954358432"><ele>571.6666666666666</ele><time>2026-04-12T12:06:54Z</time></trkpt><trkpt lat="42.10448712318039" lon="13.04153674472919"><ele>573.0</ele><time>2026-04-12T12:06:55Z</time></trkpt><trkpt lat="42.1044340204366" lon="13.041778512784616"><ele>573.6666666666666</ele><time>2026-04-12T12:06:56Z</time></trkpt><trkpt lat="42.10438226958179" lon="13.042015239497905"><ele>574.3333333333333</ele><time>2026-04-12T12:06:57Z</time></trkpt><trkpt lat="42.10433011081498" lon="13.042244023779165"><ele>575.0</ele><time>2026-04-12T12:06:58Z</time></trkpt><trkpt lat="42.104269136705845" lon="13.04246762060919"><ele>575.0</ele><time>2026-04-12T12:06:59Z</time></trkpt><trkpt lat="42.10419498152558" lon="13.042686029161974"><ele>575.0</ele><time>2026-04-12T12:07:00Z</time></trkpt><trkpt lat="42.104109864723625" lon="13.042895453247258"><ele>575.0</ele><time>2026-04-12T12:07:01Z</time></trkpt><trkpt lat="42.10401444028096" lon="13.043097984420958"><ele>575.0</ele><time>2026-04-12T12:07:02Z</time></trkpt><trkpt lat="42.10391080683176" lon="13.043296403346162"><ele>575.0</ele><time>2026-04-12T12:07:03Z</time></trkpt><trkpt lat="42.1038037244401" lon="13.043491494972283"><ele>575.0</ele><time>2026-04-12T12:07:04Z</time></trkpt><trkpt lat="42.103697645387484" lon="13.043685787966657"><ele>575.3333333333333</ele><time>2026-04-12T12:07:05Z</time></trkpt><trkpt lat="42.10359066486887" lon="13.043882120545591"><ele>575.6666666666666</ele><time>2026-04-12T12:07:06Z</time></trkpt><trkpt lat="42.10348438528594" lon="13.044075992631633"><ele>576.0</ele><time>2026-04-12T12:07:07Z</time></trkpt><trkpt lat="42.103378034412906" lon="13.04426942794902"><ele>575.3333333333334</ele><time>2026-04-12T12:07:08Z</time></trkpt><trkpt lat="42.103268004576954" lon="13.044458956596571"><ele>574.6666666666667</ele><time>2026-04-12T12:07:09Z</time></trkpt><trkpt lat="42.103150632015634" lon="13.044639575042428"><ele>574.0</ele><time>2026-04-12T12:07:10Z</time></trkpt><trkpt lat="42.10302648530916" lon="13.044812963299476"><ele>575.3333333333334</ele><time>2026-04-12T12:07:11Z</time></trkpt><trkpt lat="42.10290023283915" lon="13.04498204039323"><ele>576.6666666666666</ele><time>2026-04-12T12:07:12Z</time></trkpt><trkpt lat="42.10277281859212" lon="13.045150554182845"><ele>578.0</ele><time>2026-04-12T12:07:13Z</time></trkpt><trkpt lat="42.10264611281444" lon="13.045316734456812"><ele>578.0</ele><time>2026-04-12T12:07:14Z</time></trkpt><trkpt lat="42.10252352018299" lon="13.045469765361707"><ele>578.0</ele><time>2026-04-12T12:07:15Z</time></trkpt><trkpt lat="42.102406253560446" lon="13.04562030668704"><ele>578.0</ele><time>2026-04-12T12:07:16Z</time></trkpt><trkpt lat="42.10229492947922" lon="13.045783993827607"><ele>577.3333333333333</ele><time>2026-04-12T12:07:17Z</time></trkpt><trkpt lat="42.10219035935737" lon="13.045952395658391"><ele>576.6666666666666</ele><time>2026-04-12T12:07:18Z</time></trkpt><trkpt lat="42.10209446124149" lon="13.046132470840737"><ele>576.0</ele><time>2026-04-12T12:07:19Z</time></trkpt><trkpt lat="42.10201920019307" lon="13.046335247006176"><ele>576.0</ele><time>2026-04-12T12:07:20Z</time></trkpt><trkpt lat="42.101960848858596" lon="13.046562656729975"><ele>576.0</ele><time>2026-04-12T12:07:21Z</time></trkpt><trkpt lat="42.101906829139544" lon="13.046801704899547"><ele>576.0</ele><time>2026-04-12T12:07:22Z</time></trkpt><trkpt lat="42.10183325251649" lon="13.047039810243886"><ele>576.0</ele><time>2026-04-12T12:07:23Z</time></trkpt><trkpt lat="42.10178725244469" lon="13.047294044509451"><ele>576.0</ele><time>2026-04-12T12:07:24Z</time></trkpt><trkpt lat="42.101722223379795" lon="13.047543126750949"><ele>576.0</ele><time>2026-04-12T12:07:25Z</time></trkpt><trkpt lat="42.10166041799711" lon="13.047791769214768"><ele>576.0</ele><time>2026-04-12T12:07:26Z</time></trkpt><trkpt lat="42.10159589498488" lon="13.048037754148671"><ele>576.0</ele><time>2026-04-12T12:07:27Z</time></trkpt><trkpt lat="42.10151903333241" lon="13.04828222097177"><ele>576.0</ele><time>2026-04-12T12:07:28Z</time></trkpt><trkpt lat="42.101429530902536" lon="13.04851919801458"><ele>575.6666666666666</ele><time>2026-04-12T12:07:29Z</time></trkpt><trkpt lat="42.10133224005419" lon="13.048748502706717"><ele>575.3333333333333</ele><time>2026-04-12T12:07:30Z</time></trkpt><trkpt lat="42.1012301869879" lon="13.0489759974714"><ele>575.0</ele><time>2026-04-12T12:07:31Z</time></trkpt><trkpt lat="42.10112966104248" lon="13.049206530271732"><ele>575.0</ele><time>2026-04-12T12:07:31.999Z</time></trkpt><trkpt lat="42.101032439687266" lon="13.04944080665563"><ele>575.0</ele><time>2026-04-12T12:07:32.999Z</time></trkpt><trkpt lat="42.10093525260595" lon="13.049675119265977"><ele>575.0</ele><time>2026-04-12T12:07:33.999Z</time></trkpt><trkpt lat="42.100835993417355" lon="13.049907777828015"><ele>574.6666666666666</ele><time>2026-04-12T12:07:34.999Z</time></trkpt><trkpt lat="42.1007364377324" lon="13.05013975834194"><ele>574.3333333333334</ele><time>2026-04-12T12:07:35.999Z</time></trkpt><trkpt lat="42.10064087202608" lon="13.050370639827078"><ele>574.0</ele><time>2026-04-12T12:07:36.999Z</time></trkpt><trkpt lat="42.10054551988992" lon="13.050595247482283"><ele>574.6666666666667</ele><time>2026-04-12T12:07:37.999Z</time></trkpt><trkpt lat="42.10045152424798" lon="13.050816278626858"><ele>575.3333333333334</ele><time>2026-04-12T12:07:38.999Z</time></trkpt><trkpt lat="42.100360151239826" lon="13.05103454171208"><ele>576.0</ele><time>2026-04-12T12:07:39.999Z</time></trkpt><trkpt lat="42.10026966123346" lon="13.051247277273056"><ele>576.0</ele><time>2026-04-12T12:07:40.999Z</time></trkpt><trkpt lat="42.100180991406404" lon="13.051452744736254"><ele>576.0</ele><time>2026-04-12T12:07:41.999Z</time></trkpt><trkpt lat="42.10009520414272" lon="13.051647248833348"><ele>576.0</ele><time>2026-04-12T12:07:42.999Z</time></trkpt><trkpt lat="42.10001308161273" lon="13.051830936815708"><ele>575.3333333333334</ele><time>2026-04-12T12:07:43.999Z</time></trkpt><trkpt lat="42.099931824897325" lon="13.052007566316956"><ele>574.6666666666667</ele><time>2026-04-12T12:07:44.999Z</time></trkpt><trkpt lat="42.09984600899088" lon="13.052176467237565"><ele>574.0</ele><time>2026-04-12T12:07:45.999Z</time></trkpt><trkpt lat="42.09975568753935" lon="13.052340025256006"><ele>575.25</ele><time>2026-04-12T12:07:46.999Z</time></trkpt><trkpt lat="42.09966921641576" lon="13.052485006839902"><ele>576.5</ele><time>2026-04-12T12:07:47.999Z</time></trkpt><trkpt lat="42.09958609735643" lon="13.052621650099791"><ele>577.75</ele><time>2026-04-12T12:07:48.999Z</time></trkpt><trkpt lat="42.099495132256955" lon="13.052757558588024"><ele>579.0</ele><time>2026-04-12T12:07:49.999Z</time></trkpt><trkpt lat="42.099396447379036" lon="13.052888067171954"><ele>579.0</ele><time>2026-04-12T12:07:50.999Z</time></trkpt><trkpt lat="42.099295475308274" lon="13.053021197639442"><ele>579.0</ele><time>2026-04-12T12:07:51.999Z</time></trkpt><trkpt lat="42.0991912001746" lon="13.05316127438983"><ele>579.0</ele><time>2026-04-12T12:07:52.999Z</time></trkpt><trkpt lat="42.099082861085584" lon="13.053307130455634"><ele>579.0</ele><time>2026-04-12T12:07:53.999Z</time></trkpt><trkpt lat="42.09897049511914" lon="13.053458445069522"><ele>578.3333333333334</ele><time>2026-04-12T12:07:54.999Z</time></trkpt><trkpt lat="42.09885525956489" lon="13.053613231712564"><ele>577.6666666666667</ele><time>2026-04-12T12:07:55.999Z</time></trkpt><trkpt lat="42.09874093531137" lon="13.053777791048622"><ele>577.0</ele><time>2026-04-12T12:07:56.999Z</time></trkpt><trkpt lat="42.09862726223878" lon="13.053943976446877"><ele>577.0</ele><time>2026-04-12T12:07:57.999Z</time></trkpt><trkpt lat="42.09851247635785" lon="13.054116812653552"><ele>577.0</ele><time>2026-04-12T12:07:58.999Z</time></trkpt><trkpt lat="42.09839590638366" lon="13.054288679150474"><ele>577.0</ele><time>2026-04-12T12:07:59.999Z</time></trkpt><trkpt lat="42.09827911566724" lon="13.054466445678987"><ele>578.3333333333334</ele><time>2026-04-12T12:08:00.999Z</time></trkpt><trkpt lat="42.098164105895805" lon="13.054651613298246"><ele>579.6666666666666</ele><time>2026-04-12T12:08:01.999Z</time></trkpt><trkpt lat="42.09804948234197" lon="13.054834290929954"><ele>581.0</ele><time>2026-04-12T12:08:02.999Z</time></trkpt><trkpt lat="42.09792863588249" lon="13.055013113212272"><ele>581.6666666666666</ele><time>2026-04-12T12:08:03.999Z</time></trkpt><trkpt lat="42.0978059539878" lon="13.055193170258812"><ele>582.3333333333334</ele><time>2026-04-12T12:08:04.999Z</time></trkpt><trkpt lat="42.097682511651364" lon="13.055375240561732"><ele>583.0</ele><time>2026-04-12T12:08:05.999Z</time></trkpt><trkpt lat="42.09755921606164" lon="13.055553777448607"><ele>583.0</ele><time>2026-04-12T12:08:06.999Z</time></trkpt><trkpt lat="42.09743497530123" lon="13.055737963279144"><ele>583.0</ele><time>2026-04-12T12:08:07.999Z</time></trkpt><trkpt lat="42.0973103624335" lon="13.05591855786715"><ele>583.0</ele><time>2026-04-12T12:08:08.999Z</time></trkpt><trkpt lat="42.09718379154861" lon="13.056102905512487"><ele>582.6666666666667</ele><time>2026-04-12T12:08:09.999Z</time></trkpt><trkpt lat="42.09705676397492" lon="13.056287983302813"><ele>582.3333333333334</ele><time>2026-04-12T12:08:10.999Z</time></trkpt><trkpt lat="42.096935073258464" lon="13.056476053407936"><ele>582.0</ele><time>2026-04-12T12:08:11.999Z</time></trkpt><trkpt lat="42.096806326339006" lon="13.05666092945772"><ele>582.0</ele><time>2026-04-12T12:08:12.999Z</time></trkpt><trkpt lat="42.09670399000977" lon="13.056871277720083"><ele>582.0</ele><time>2026-04-12T12:08:13.999Z</time></trkpt><trkpt lat="42.09661579948585" lon="13.05709056629457"><ele>582.0</ele><time>2026-04-12T12:08:14.999Z</time></trkpt><trkpt lat="42.0965353677958" lon="13.057318395636251"><ele>583.0</ele><time>2026-04-12T12:08:15.999Z</time></trkpt><trkpt lat="42.0964697080523" lon="13.05755441867636"><ele>584.0</ele><time>2026-04-12T12:08:16.999Z</time></trkpt><trkpt lat="42.09638738128532" lon="13.057784071504406"><ele>585.0</ele><time>2026-04-12T12:08:17.999Z</time></trkpt><trkpt lat="42.09629015626258" lon="13.058002277457026"><ele>585.0</ele><time>2026-04-12T12:08:18.999Z</time></trkpt><trkpt lat="42.09622149954893" lon="13.05824272188708"><ele>585.0</ele><time>2026-04-12T12:08:19.999Z</time></trkpt><trkpt lat="42.096136628384095" lon="13.05847431874879"><ele>585.0</ele><time>2026-04-12T12:08:20.999Z</time></trkpt><trkpt lat="42.09605185723138" lon="13.058707823367845"><ele>585.6666666666666</ele><time>2026-04-12T12:08:21.999Z</time></trkpt><trkpt lat="42.095970320430375" lon="13.058940159401995"><ele>586.3333333333333</ele><time>2026-04-12T12:08:22.999Z</time></trkpt><trkpt lat="42.09588735397999" lon="13.059169641754083"><ele>587.0</ele><time>2026-04-12T12:08:23.999Z</time></trkpt><trkpt lat="42.095802472673256" lon="13.059399500183101"><ele>586.3333333333333</ele><time>2026-04-12T12:08:25.001Z</time></trkpt><trkpt lat="42.09571972649065" lon="13.05963136243329"><ele>585.6666666666666</ele><time>2026-04-12T12:08:26.001Z</time></trkpt><trkpt lat="42.095635828735155" lon="13.059863179040775"><ele>585.0</ele><time>2026-04-12T12:08:27.001Z</time></trkpt><trkpt lat="42.09555369244902" lon="13.060096445347417"><ele>584.6666666666666</ele><time>2026-04-12T12:08:28.001Z</time></trkpt><trkpt lat="42.095470173888614" lon="13.060328113055974"><ele>584.3333333333333</ele><time>2026-04-12T12:08:29.001Z</time></trkpt><trkpt lat="42.0953857967713" lon="13.060556020556772"><ele>584.0</ele><time>2026-04-12T12:08:30.001Z</time></trkpt><trkpt lat="42.095303024310354" lon="13.060784532991569"><ele>584.0</ele><time>2026-04-12T12:08:31.001Z</time></trkpt><trkpt lat="42.095223302138045" lon="13.061009976772151"><ele>584.0</ele><time>2026-04-12T12:08:32.001Z</time></trkpt><trkpt lat="42.09514380857139" lon="13.061228864230566"><ele>584.0</ele><time>2026-04-12T12:08:33.001Z</time></trkpt><trkpt lat="42.09506455542033" lon="13.06144446661635"><ele>584.6666666666666</ele><time>2026-04-12T12:08:34.001Z</time></trkpt><trkpt lat="42.09498562013091" lon="13.061660759785937"><ele>585.3333333333334</ele><time>2026-04-12T12:08:35.001Z</time></trkpt><trkpt lat="42.09490790579855" lon="13.061874702905817"><ele>586.0</ele><time>2026-04-12T12:08:36.001Z</time></trkpt><trkpt lat="42.09483139694952" lon="13.062090074388138"><ele>585.0</ele><time>2026-04-12T12:08:37.001Z</time></trkpt><trkpt lat="42.094753516402704" lon="13.062302362335918"><ele>584.0</ele><time>2026-04-12T12:08:38.001Z</time></trkpt><trkpt lat="42.09467612983891" lon="13.062515922688853"><ele>583.0</ele><time>2026-04-12T12:08:39.001Z</time></trkpt><trkpt lat="42.094598794746105" lon="13.062729217996402"><ele>583.0</ele><time>2026-04-12T12:08:40Z</time></trkpt><trkpt lat="42.09452011239724" lon="13.062939587273371"><ele>583.0</ele><time>2026-04-12T12:08:41Z</time></trkpt><trkpt lat="42.094442890498904" lon="13.063151041532116"><ele>583.0</ele><time>2026-04-12T12:08:42Z</time></trkpt><trkpt lat="42.094365788581804" lon="13.063362475332445"><ele>583.6666666666667</ele><time>2026-04-12T12:08:43Z</time></trkpt><trkpt lat="42.094290259937694" lon="13.063571347698769"><ele>584.3333333333334</ele><time>2026-04-12T12:08:44Z</time></trkpt><trkpt lat="42.09421607166048" lon="13.063782232234326"><ele>585.0</ele><time>2026-04-12T12:08:45Z</time></trkpt><trkpt lat="42.09414871436165" lon="13.063995587219107"><ele>584.6666666666666</ele><time>2026-04-12T12:08:46Z</time></trkpt><trkpt lat="42.094089495767065" lon="13.064204777863463"><ele>584.3333333333333</ele><time>2026-04-12T12:08:47Z</time></trkpt><trkpt lat="42.09404349709213" lon="13.064405989035295"><ele>584.0</ele><time>2026-04-12T12:08:48Z</time></trkpt><trkpt lat="42.09400951553912" lon="13.06459155717058"><ele>584.0</ele><time>2026-04-12T12:08:49Z</time></trkpt><trkpt lat="42.093974520970534" lon="13.064761279300276"><ele>584.0</ele><time>2026-04-12T12:08:50Z</time></trkpt><trkpt lat="42.09394812916165" lon="13.064901084816157"><ele>584.0</ele><time>2026-04-12T12:08:51Z</time></trkpt><trkpt lat="42.093927899131664" lon="13.065026156113486"><ele>584.0</ele><time>2026-04-12T12:08:52Z</time></trkpt><trkpt lat="42.093907069835176" lon="13.06514761130798"><ele>584.0</ele><time>2026-04-12T12:08:53Z</time></trkpt><trkpt lat="42.09388206254962" lon="13.065270756637448"><ele>584.75</ele><time>2026-04-12T12:08:54Z</time></trkpt><trkpt lat="42.093852987036016" lon="13.065406743425298"><ele>585.5</ele><time>2026-04-12T12:08:55Z</time></trkpt><trkpt lat="42.09382690746469" lon="13.065561016187136"><ele>586.25</ele><time>2026-04-12T12:08:56Z</time></trkpt><trkpt lat="42.093799074186386" lon="13.065733580303101"><ele>587.0</ele><time>2026-04-12T12:08:57Z</time></trkpt><trkpt lat="42.09376639204408" lon="13.065922869772631"><ele>587.3333333333333</ele><time>2026-04-12T12:08:58Z</time></trkpt><trkpt lat="42.09372909741138" lon="13.066123597992826"><ele>587.6666666666666</ele><time>2026-04-12T12:08:59Z</time></trkpt><trkpt lat="42.09369045065392" lon="13.066340930710261"><ele>588.0</ele><time>2026-04-12T12:09:00Z</time></trkpt><trkpt lat="42.09365333850298" lon="13.066567404094089"><ele>588.6666666666666</ele><time>2026-04-12T12:09:01Z</time></trkpt><trkpt lat="42.09361510771316" lon="13.066793706652094"><ele>589.3333333333333</ele><time>2026-04-12T12:09:02Z</time></trkpt><trkpt lat="42.093579930268334" lon="13.067019030577939"><ele>590.0</ele><time>2026-04-12T12:09:03Z</time></trkpt><trkpt lat="42.093548278299025" lon="13.06725050168528"><ele>589.6666666666666</ele><time>2026-04-12T12:09:04Z</time></trkpt><trkpt lat="42.09352013335452" lon="13.067483235966181"><ele>589.3333333333334</ele><time>2026-04-12T12:09:05Z</time></trkpt><trkpt lat="42.09349641860444" lon="13.06771302260127"><ele>589.0</ele><time>2026-04-12T12:09:06Z</time></trkpt><trkpt lat="42.09347475356078" lon="13.067942020547893"><ele>589.0</ele><time>2026-04-12T12:09:07Z</time></trkpt><trkpt lat="42.093449554845435" lon="13.068179391328636"><ele>589.0</ele><time>2026-04-12T12:09:08Z</time></trkpt><trkpt lat="42.093422525715624" lon="13.0683882522881"><ele>589.0</ele><time>2026-04-12T12:09:09Z</time></trkpt><trkpt lat="42.093398628501745" lon="13.068585129228774"><ele>589.25</ele><time>2026-04-12T12:09:10Z</time></trkpt><trkpt lat="42.093371650945265" lon="13.06876259923675"><ele>589.5</ele><time>2026-04-12T12:09:11Z</time></trkpt><trkpt lat="42.093371351651435" lon="13.068952420200034"><ele>589.75</ele><time>2026-04-12T12:09:12Z</time></trkpt><trkpt lat="42.09336320609169" lon="13.069119274606036"><ele>590.0</ele><time>2026-04-12T12:09:13Z</time></trkpt><trkpt lat="42.093362495286776" lon="13.069284933713272"><ele>590.2</ele><time>2026-04-12T12:09:14Z</time></trkpt><trkpt lat="42.09336637959155" lon="13.069444361128124"><ele>590.4</ele><time>2026-04-12T12:09:15Z</time></trkpt><trkpt lat="42.09336304599874" lon="13.069548645648199"><ele>590.6</ele><time>2026-04-12T12:09:16Z</time></trkpt><trkpt lat="42.0933383917896" lon="13.069674002628997"><ele>590.8</ele><time>2026-04-12T12:09:18Z</time></trkpt><trkpt lat="42.09330193274103" lon="13.069753767272317"><ele>591.0</ele><time>2026-04-12T12:09:20Z</time></trkpt><trkpt lat="42.09324952910624" lon="13.06988563416851"><ele>590.75</ele><time>2026-04-12T12:09:22Z</time></trkpt><trkpt lat="42.09323780488421" lon="13.070016200239749"><ele>590.5</ele><time>2026-04-12T12:09:23Z</time></trkpt><trkpt lat="42.09323010349057" lon="13.070196654269916"><ele>590.25</ele><time>2026-04-12T12:09:24Z</time></trkpt><trkpt lat="42.09322885388798" lon="13.07044488988354"><ele>590.0</ele><time>2026-04-12T12:09:25Z</time></trkpt><trkpt lat="42.09323525037857" lon="13.07072930536197"><ele>591.0</ele><time>2026-04-12T12:09:26Z</time></trkpt><trkpt lat="42.0932322882792" lon="13.071055256761587"><ele>592.0</ele><time>2026-04-12T12:09:27Z</time></trkpt><trkpt lat="42.09322965758033" lon="13.071402442266823"><ele>592.5</ele><time>2026-04-12T12:09:28Z</time></trkpt><trkpt lat="42.09324941876911" lon="13.071759380645828"><ele>593.0</ele><time>2026-04-12T12:09:29Z</time></trkpt><trkpt lat="42.09327428347624" lon="13.072046549145183"><ele>594.3333333333333</ele><time>2026-04-12T12:09:30Z</time></trkpt><trkpt lat="42.093291866298266" lon="13.07230163992979"><ele>595.6666666666666</ele><time>2026-04-12T12:09:31Z</time></trkpt><trkpt lat="42.09331175895692" lon="13.072524175420096"><ele>597.0</ele><time>2026-04-12T12:09:32Z</time></trkpt><trkpt lat="42.09333176105676" lon="13.072732151089616"><ele>597.0</ele><time>2026-04-12T12:09:33Z</time></trkpt><trkpt lat="42.093347084724506" lon="13.072908167014193"><ele>597.0</ele><time>2026-04-12T12:09:33.999Z</time></trkpt><trkpt lat="42.09336021045834" lon="13.073050613002586"><ele>597.0</ele><time>2026-04-12T12:09:34.999Z</time></trkpt><trkpt lat="42.093389255670935" lon="13.073166230380128"><ele>597.0</ele><time>2026-04-12T12:09:35.999Z</time></trkpt><trkpt lat="42.093444416799976" lon="13.07325675941307"><ele>597.0</ele><time>2026-04-12T12:09:36.999Z</time></trkpt><trkpt lat="42.09352328701115" lon="13.073307001690857"><ele>597.0</ele><time>2026-04-12T12:09:37.999Z</time></trkpt><trkpt lat="42.09357658536738" lon="13.07339075158486"><ele>597.0</ele><time>2026-04-12T12:09:38.999Z</time></trkpt><trkpt lat="42.09362749671986" lon="13.073468064195312"><ele>597.0</ele><time>2026-04-12T12:09:39.999Z</time></trkpt><trkpt lat="42.093662487923346" lon="13.07354413082722"><ele>597.0</ele><time>2026-04-12T12:09:40.999Z</time></trkpt><trkpt lat="42.09368395761593" lon="13.073625203244626"><ele>597.0</ele><time>2026-04-12T12:09:41.999Z</time></trkpt><trkpt lat="42.093718152360665" lon="13.073708425686569"><ele>597.0</ele><time>2026-04-12T12:09:42.999Z</time></trkpt><trkpt lat="42.09370125263907" lon="13.073855805689115"><ele>597.0</ele><time>2026-04-12T12:09:43.999Z</time></trkpt><trkpt lat="42.09370060339325" lon="13.074026306908884"><ele>597.0</ele><time>2026-04-12T12:09:44.999Z</time></trkpt><trkpt lat="42.093684889635256" lon="13.07423904181499"><ele>597.0</ele><time>2026-04-12T12:09:45.999Z</time></trkpt><trkpt lat="42.093669466310565" lon="13.074478483331522"><ele>597.6666666666666</ele><time>2026-04-12T12:09:46.999Z</time></trkpt><trkpt lat="42.093656768467675" lon="13.074715035544056"><ele>598.3333333333333</ele><time>2026-04-12T12:09:47.999Z</time></trkpt><trkpt lat="42.093646970696575" lon="13.0749588505743"><ele>599.0</ele><time>2026-04-12T12:09:48.999Z</time></trkpt><trkpt lat="42.09363548009216" lon="13.075197647993814"><ele>599.0</ele><time>2026-04-12T12:09:49.999Z</time></trkpt><trkpt lat="42.09361868535684" lon="13.075444193012872"><ele>599.0</ele><time>2026-04-12T12:09:50.999Z</time></trkpt><trkpt lat="42.093601667347244" lon="13.075695843713664"><ele>599.0</ele><time>2026-04-12T12:09:51.999Z</time></trkpt><trkpt lat="42.09360249471247" lon="13.075948212956789"><ele>599.6666666666666</ele><time>2026-04-12T12:09:52.999Z</time></trkpt><trkpt lat="42.093608604094655" lon="13.076185285585394"><ele>600.3333333333334</ele><time>2026-04-12T12:09:53.999Z</time></trkpt><trkpt lat="42.09362803456077" lon="13.076414741517338"><ele>601.0</ele><time>2026-04-12T12:09:54.999Z</time></trkpt><trkpt lat="42.093666463346494" lon="13.076637961686345"><ele>601.3333333333334</ele><time>2026-04-12T12:09:55.999Z</time></trkpt><trkpt lat="42.0937196218991" lon="13.076856915199592"><ele>601.6666666666666</ele><time>2026-04-12T12:09:56.999Z</time></trkpt><trkpt lat="42.093786823672794" lon="13.077069010132675"><ele>602.0</ele><time>2026-04-12T12:09:57.999Z</time></trkpt><trkpt lat="42.09387003389509" lon="13.0772697969993"><ele>601.6666666666666</ele><time>2026-04-12T12:09:58.999Z</time></trkpt><trkpt lat="42.09396479386472" lon="13.077459341731293"><ele>601.3333333333334</ele><time>2026-04-12T12:09:59.999Z</time></trkpt><trkpt lat="42.094066330891785" lon="13.077643534849912"><ele>601.0</ele><time>2026-04-12T12:10:00.999Z</time></trkpt><trkpt lat="42.0941766301569" lon="13.077815641641635"><ele>605.0</ele><time>2026-04-12T12:10:01.999Z</time></trkpt><trkpt lat="42.09429278242063" lon="13.077976103674466"><ele>609.0</ele><time>2026-04-12T12:10:02.999Z</time></trkpt><trkpt lat="42.09441575492096" lon="13.078126905469182"><ele>613.0</ele><time>2026-04-12T12:10:03.999Z</time></trkpt><trkpt lat="42.0945470800024" lon="13.078265493748598"><ele>611.6666666666667</ele><time>2026-04-12T12:10:04.999Z</time></trkpt><trkpt lat="42.0946900062909" lon="13.078396433816815"><ele>610.3333333333334</ele><time>2026-04-12T12:10:05.999Z</time></trkpt><trkpt lat="42.09484028141835" lon="13.078523503564353"><ele>609.0</ele><time>2026-04-12T12:10:06.999Z</time></trkpt><trkpt lat="42.09499813247788" lon="13.078642278293987"><ele>609.0</ele><time>2026-04-12T12:10:07.999Z</time></trkpt><trkpt lat="42.09515661609442" lon="13.078763150930783"><ele>609.0</ele><time>2026-04-12T12:10:08.999Z</time></trkpt><trkpt lat="42.09531454425953" lon="13.078885071875057"><ele>609.0</ele><time>2026-04-12T12:10:09.999Z</time></trkpt><trkpt lat="42.09546142432427" lon="13.07900855798908"><ele>608.6666666666666</ele><time>2026-04-12T12:10:10.999Z</time></trkpt><trkpt lat="42.09560266425373" lon="13.079125366659728"><ele>608.3333333333333</ele><time>2026-04-12T12:10:11.999Z</time></trkpt><trkpt lat="42.09573774682508" lon="13.079241629600526"><ele>608.0</ele><time>2026-04-12T12:10:12.999Z</time></trkpt><trkpt lat="42.09586298744969" lon="13.079356890171832"><ele>608.0</ele><time>2026-04-12T12:10:13.999Z</time></trkpt><trkpt lat="42.09598007031722" lon="13.079475042076218"><ele>608.0</ele><time>2026-04-12T12:10:14.999Z</time></trkpt><trkpt lat="42.09609047103502" lon="13.079596039284565"><ele>608.0</ele><time>2026-04-12T12:10:15.999Z</time></trkpt><trkpt lat="42.096187706385464" lon="13.079722447003057"><ele>608.0</ele><time>2026-04-12T12:10:16.999Z</time></trkpt><trkpt lat="42.09627405755156" lon="13.07985345132056"><ele>607.75</ele><time>2026-04-12T12:10:17.999Z</time></trkpt><trkpt lat="42.09635645745893" lon="13.079982705991432"><ele>607.5</ele><time>2026-04-12T12:10:18.999Z</time></trkpt><trkpt lat="42.09643740706077" lon="13.080111947269465"><ele>607.25</ele><time>2026-04-12T12:10:19.999Z</time></trkpt><trkpt lat="42.09651847772997" lon="13.080244440815113"><ele>607.0</ele><time>2026-04-12T12:10:20.999Z</time></trkpt><trkpt lat="42.09659552343238" lon="13.080379455057738"><ele>607.0</ele><time>2026-04-12T12:10:21.999Z</time></trkpt><trkpt lat="42.096668720408594" lon="13.080514837705998"><ele>607.0</ele><time>2026-04-12T12:10:22.999Z</time></trkpt><trkpt lat="42.09674188127389" lon="13.08064760570879"><ele>607.0</ele><time>2026-04-12T12:10:23.999Z</time></trkpt><trkpt lat="42.096816492990335" lon="13.080773579639331"><ele>607.0</ele><time>2026-04-12T12:10:24.999Z</time></trkpt><trkpt lat="42.09689318404866" lon="13.08089638120671"><ele>605.75</ele><time>2026-04-12T12:10:25.999Z</time></trkpt><trkpt lat="42.09696749758561" lon="13.081019438319125"><ele>604.5</ele><time>2026-04-12T12:10:26.999Z</time></trkpt><trkpt lat="42.097042764423755" lon="13.081140529327733"><ele>603.25</ele><time>2026-04-12T12:10:27.999Z</time></trkpt><trkpt lat="42.09712104893181" lon="13.08125655175328"><ele>602.0</ele><time>2026-04-12T12:10:28.998Z</time></trkpt><trkpt lat="42.09720472600583" lon="13.08136927288167"><ele>602.0</ele><time>2026-04-12T12:10:29.998Z</time></trkpt><trkpt lat="42.09729402125413" lon="13.081475367656836"><ele>602.0</ele><time>2026-04-12T12:10:31Z</time></trkpt><trkpt lat="42.097385806362176" lon="13.081578687784043"><ele>602.0</ele><time>2026-04-12T12:10:32Z</time></trkpt><trkpt lat="42.0974793417713" lon="13.08168026948847"><ele>602.0</ele><time>2026-04-12T12:10:33Z</time></trkpt><trkpt lat="42.09757642857271" lon="13.081775483637536"><ele>602.0</ele><time>2026-04-12T12:10:34Z</time></trkpt><trkpt lat="42.097676256158366" lon="13.081866405600005"><ele>602.0</ele><time>2026-04-12T12:10:35Z</time></trkpt><trkpt lat="42.097771339474896" lon="13.081961690804325"><ele>602.0</ele><time>2026-04-12T12:10:36Z</time></trkpt><trkpt lat="42.09786108712478" lon="13.082062736599468"><ele>602.0</ele><time>2026-04-12T12:10:37Z</time></trkpt><trkpt lat="42.097952009018144" lon="13.082158847264155"><ele>602.0</ele><time>2026-04-12T12:10:38Z</time></trkpt><trkpt lat="42.09804446033244" lon="13.082251912205153"><ele>602.0</ele><time>2026-04-12T12:10:39Z</time></trkpt><trkpt lat="42.09813473317192" lon="13.082341350530044"><ele>602.0</ele><time>2026-04-12T12:10:40Z</time></trkpt><trkpt lat="42.09822194967635" lon="13.082426812083257"><ele>602.0</ele><time>2026-04-12T12:10:41Z</time></trkpt><trkpt lat="42.09830388158693" lon="13.082514136339027"><ele>602.0</ele><time>2026-04-12T12:10:42Z</time></trkpt><trkpt lat="42.0983824980374" lon="13.082595490865584"><ele>602.8000000000001</ele><time>2026-04-12T12:10:43Z</time></trkpt><trkpt lat="42.09845988013767" lon="13.08267736879788"><ele>603.6</ele><time>2026-04-12T12:10:44Z</time></trkpt><trkpt lat="42.09853851993147" lon="13.082753633245714"><ele>604.4000000000001</ele><time>2026-04-12T12:10:45Z</time></trkpt><trkpt lat="42.09861375028726" lon="13.08282774751519"><ele>605.2</ele><time>2026-04-12T12:10:46Z</time></trkpt><trkpt lat="42.09868666431877" lon="13.082902321173684"><ele>606.0</ele><time>2026-04-12T12:10:47Z</time></trkpt><trkpt lat="42.0987533587388" lon="13.082974809437548"><ele>606.0</ele><time>2026-04-12T12:10:48Z</time></trkpt><trkpt lat="42.09881504574604" lon="13.083042519915974"><ele>606.0</ele><time>2026-04-12T12:10:49Z</time></trkpt><trkpt lat="42.09887575745161" lon="13.083106225647317"><ele>606.0</ele><time>2026-04-12T12:10:50Z</time></trkpt><trkpt lat="42.098928004969615" lon="13.083155536255225"><ele>606.0</ele><time>2026-04-12T12:10:51Z</time></trkpt><trkpt lat="42.098981108790724" lon="13.083204386475607"><ele>606.0</ele><time>2026-04-12T12:10:52Z</time></trkpt><trkpt lat="42.099036040013125" lon="13.083259254343204"><ele>606.0</ele><time>2026-04-12T12:10:53Z</time></trkpt><trkpt lat="42.09909063007835" lon="13.083318347711835"><ele>606.0</ele><time>2026-04-12T12:10:54Z</time></trkpt><trkpt lat="42.099146981702035" lon="13.083382645846289"><ele>606.5</ele><time>2026-04-12T12:10:55Z</time></trkpt><trkpt lat="42.09920783156703" lon="13.083448661718531"><ele>607.0</ele><time>2026-04-12T12:10:56Z</time></trkpt><trkpt lat="42.09927297027586" lon="13.083517322273643"><ele>607.5</ele><time>2026-04-12T12:10:57Z</time></trkpt><trkpt lat="42.09934360073177" lon="13.083583693646519"><ele>608.0</ele><time>2026-04-12T12:10:58Z</time></trkpt><trkpt lat="42.099417386544125" lon="13.083649711752914"><ele>608.5</ele><time>2026-04-12T12:10:59Z</time></trkpt><trkpt lat="42.09949533884714" lon="13.083715316721088"><ele>609.0</ele><time>2026-04-12T12:11:00Z</time></trkpt><trkpt lat="42.09957762792092" lon="13.083782017230597"><ele>609.0</ele><time>2026-04-12T12:11:01Z</time></trkpt><trkpt lat="42.099666346998866" lon="13.083841684032205"><ele>609.0</ele><time>2026-04-12T12:11:02Z</time></trkpt><trkpt lat="42.099760274412716" lon="13.08389921634802"><ele>609.0</ele><time>2026-04-12T12:11:03Z</time></trkpt><trkpt lat="42.099858532062875" lon="13.083954355279799"><ele>609.0</ele><time>2026-04-12T12:11:04Z</time></trkpt><trkpt lat="42.099962730506356" lon="13.083999886491453"><ele>609.0</ele><time>2026-04-12T12:11:05Z</time></trkpt><trkpt lat="42.1000705785998" lon="13.08403169322218"><ele>611.25</ele><time>2026-04-12T12:11:06Z</time></trkpt><trkpt lat="42.100184199592285" lon="13.084047220977274"><ele>613.5</ele><time>2026-04-12T12:11:07Z</time></trkpt><trkpt lat="42.100301217922706" lon="13.084057204678736"><ele>615.75</ele><time>2026-04-12T12:11:08Z</time></trkpt><trkpt lat="42.10042254521116" lon="13.084057382686293"><ele>618.0</ele><time>2026-04-12T12:11:09Z</time></trkpt><trkpt lat="42.10054661620836" lon="13.08405313565699"><ele>618.0</ele><time>2026-04-12T12:11:10Z</time></trkpt><trkpt lat="42.10067174738485" lon="13.084035725293196"><ele>618.0</ele><time>2026-04-12T12:11:11Z</time></trkpt><trkpt lat="42.100798210563774" lon="13.084041326046265"><ele>618.0</ele><time>2026-04-12T12:11:12Z</time></trkpt><trkpt lat="42.10090781646808" lon="13.08402656493543"><ele>618.0</ele><time>2026-04-12T12:11:13Z</time></trkpt><trkpt lat="42.10102365704885" lon="13.084023468905022"><ele>618.5</ele><time>2026-04-12T12:11:14Z</time></trkpt><trkpt lat="42.10113618609792" lon="13.084019719109774"><ele>619.0</ele><time>2026-04-12T12:11:15Z</time></trkpt><trkpt lat="42.10124747691822" lon="13.084022043066922"><ele>619.5</ele><time>2026-04-12T12:11:16Z</time></trkpt><trkpt lat="42.10136058774762" lon="13.084031075843793"><ele>620.0</ele><time>2026-04-12T12:11:17Z</time></trkpt><trkpt lat="42.101477708085945" lon="13.084043960520475"><ele>619.75</ele><time>2026-04-12T12:11:18Z</time></trkpt><trkpt lat="42.101599099483224" lon="13.084064006306638"><ele>619.5</ele><time>2026-04-12T12:11:19Z</time></trkpt><trkpt lat="42.10172271898895" lon="13.084101503679848"><ele>619.25</ele><time>2026-04-12T12:11:20Z</time></trkpt><trkpt lat="42.10184720504852" lon="13.084153064817365"><ele>619.0</ele><time>2026-04-12T12:11:21Z</time></trkpt><trkpt lat="42.10197653409904" lon="13.084211538093596"><ele>619.0</ele><time>2026-04-12T12:11:22Z</time></trkpt><trkpt lat="42.10210936808338" lon="13.084278687795216"><ele>619.0</ele><time>2026-04-12T12:11:23Z</time></trkpt><trkpt lat="42.102241867906365" lon="13.084355514480505"><ele>619.0</ele><time>2026-04-12T12:11:24Z</time></trkpt><trkpt lat="42.10237534079152" lon="13.084435209068948"><ele>619.0</ele><time>2026-04-12T12:11:25Z</time></trkpt><trkpt lat="42.102507484995265" lon="13.084510806075036"><ele>619.0</ele><time>2026-04-12T12:11:26Z</time></trkpt><trkpt lat="42.1026431271026" lon="13.084574712617002"><ele>619.0</ele><time>2026-04-12T12:11:27Z</time></trkpt><trkpt lat="42.102784990594785" lon="13.084624919939174"><ele>619.0</ele><time>2026-04-12T12:11:28Z</time></trkpt><trkpt lat="42.102929395397574" lon="13.084662492541097"><ele>619.0</ele><time>2026-04-12T12:11:29Z</time></trkpt><trkpt lat="42.10307501599793" lon="13.084690561751612"><ele>619.0</ele><time>2026-04-12T12:11:30Z</time></trkpt><trkpt lat="42.103221157961805" lon="13.084703840085655"><ele>619.0</ele><time>2026-04-12T12:11:31Z</time></trkpt><trkpt lat="42.10336416707275" lon="13.084705895376006"><ele>619.0</ele><time>2026-04-12T12:11:32Z</time></trkpt><trkpt lat="42.103501434531076" lon="13.084697324799906"><ele>619.0</ele><time>2026-04-12T12:11:33Z</time></trkpt><trkpt lat="42.10363175480702" lon="13.084682018377084"><ele>620.25</ele><time>2026-04-12T12:11:34Z</time></trkpt><trkpt lat="42.103763481963725" lon="13.084656261343367"><ele>621.5</ele><time>2026-04-12T12:11:35Z</time></trkpt><trkpt lat="42.103890651935124" lon="13.084623673617335"><ele>622.75</ele><time>2026-04-12T12:11:36Z</time></trkpt><trkpt lat="42.10400888424325" lon="13.08458612696686"><ele>624.0</ele><time>2026-04-12T12:11:37Z</time></trkpt><trkpt lat="42.10412952799054" lon="13.084538875575605"><ele>624.0</ele><time>2026-04-12T12:11:37.999Z</time></trkpt><trkpt lat="42.10425727422457" lon="13.084478734138713"><ele>624.0</ele><time>2026-04-12T12:11:38.999Z</time></trkpt><trkpt lat="42.104385956943865" lon="13.08440761671842"><ele>624.0</ele><time>2026-04-12T12:11:39.999Z</time></trkpt><trkpt lat="42.10451439032714" lon="13.0843295128076"><ele>624.0</ele><time>2026-04-12T12:11:40.999Z</time></trkpt><trkpt lat="42.10464139205307" lon="13.08425062536431"><ele>624.0</ele><time>2026-04-12T12:11:41.999Z</time></trkpt><trkpt lat="42.10477024529998" lon="13.084160292849614"><ele>624.0</ele><time>2026-04-12T12:11:42.999Z</time></trkpt><trkpt lat="42.10489881255562" lon="13.084067773031444"><ele>624.0</ele><time>2026-04-12T12:11:43.999Z</time></trkpt><trkpt lat="42.10502895799411" lon="13.083973727957035"><ele>624.0</ele><time>2026-04-12T12:11:44.999Z</time></trkpt><trkpt lat="42.1051630103459" lon="13.083884215170876"><ele>627.3333333333334</ele><time>2026-04-12T12:11:45.999Z</time></trkpt><trkpt lat="42.10529764176057" lon="13.083794440350111"><ele>630.6666666666667</ele><time>2026-04-12T12:11:46.999Z</time></trkpt><trkpt lat="42.105437138507625" lon="13.083707975809201"><ele>634.0</ele><time>2026-04-12T12:11:47.999Z</time></trkpt><trkpt lat="42.10558446155229" lon="13.083631523871935"><ele>634.0</ele><time>2026-04-12T12:11:48.999Z</time></trkpt><trkpt lat="42.10573848845197" lon="13.083565091884678"><ele>634.0</ele><time>2026-04-12T12:11:49.999Z</time></trkpt><trkpt lat="42.1058945472352" lon="13.083513191446121"><ele>634.0</ele><time>2026-04-12T12:11:50.999Z</time></trkpt><trkpt lat="42.10605147394404" lon="13.083469454129329"><ele>630.0</ele><time>2026-04-12T12:11:51.999Z</time></trkpt><trkpt lat="42.10621299628953" lon="13.083434346184092"><ele>626.0</ele><time>2026-04-12T12:11:52.999Z</time></trkpt><trkpt lat="42.10637618546212" lon="13.083407422718762"><ele>622.0</ele><time>2026-04-12T12:11:53.999Z</time></trkpt><trkpt lat="42.106542889601776" lon="13.083386278539393"><ele>621.0</ele><time>2026-04-12T12:11:54.999Z</time></trkpt><trkpt lat="42.10671021082726" lon="13.08336671794232"><ele>620.0</ele><time>2026-04-12T12:11:55.999Z</time></trkpt><trkpt lat="42.1068801713335" lon="13.083349951518686"><ele>619.0</ele><time>2026-04-12T12:11:56.999Z</time></trkpt><trkpt lat="42.10705189489069" lon="13.083341734439635"><ele>619.0</ele><time>2026-04-12T12:11:57.999Z</time></trkpt><trkpt lat="42.107227276918856" lon="13.083350198683615"><ele>619.0</ele><time>2026-04-12T12:11:58.999Z</time></trkpt><trkpt lat="42.10740110741127" lon="13.083377764462364"><ele>619.0</ele><time>2026-04-12T12:11:59.999Z</time></trkpt><trkpt lat="42.10757433638809" lon="13.083417077181894"><ele>619.6666666666667</ele><time>2026-04-12T12:12:00.999Z</time></trkpt><trkpt lat="42.10774726683982" lon="13.083458063208079"><ele>620.3333333333334</ele><time>2026-04-12T12:12:01.999Z</time></trkpt><trkpt lat="42.107919126504015" lon="13.083496787878572"><ele>621.0</ele><time>2026-04-12T12:12:02.999Z</time></trkpt><trkpt lat="42.10809089291" lon="13.083531498719442"><ele>621.3333333333334</ele><time>2026-04-12T12:12:03.999Z</time></trkpt><trkpt lat="42.108263924877846" lon="13.083552640265907"><ele>621.6666666666667</ele><time>2026-04-12T12:12:04.999Z</time></trkpt><trkpt lat="42.10843857224497" lon="13.083559573853554"><ele>622.0</ele><time>2026-04-12T12:12:05.999Z</time></trkpt><trkpt lat="42.1086132685577" lon="13.083551490112256"><ele>622.0</ele><time>2026-04-12T12:12:06.999Z</time></trkpt><trkpt lat="42.10878937562633" lon="13.08353478468531"><ele>622.0</ele><time>2026-04-12T12:12:07.999Z</time></trkpt><trkpt lat="42.10896618795644" lon="13.083516722003555"><ele>622.0</ele><time>2026-04-12T12:12:08.999Z</time></trkpt><trkpt lat="42.10914629218342" lon="13.083495964787524"><ele>621.3333333333334</ele><time>2026-04-12T12:12:09.999Z</time></trkpt><trkpt lat="42.10932789648041" lon="13.083473308521492"><ele>620.6666666666666</ele><time>2026-04-12T12:12:10.999Z</time></trkpt><trkpt lat="42.109512445658964" lon="13.083451910110155"><ele>620.0</ele><time>2026-04-12T12:12:11.999Z</time></trkpt><trkpt lat="42.10969635259085" lon="13.083430153797186"><ele>620.0</ele><time>2026-04-12T12:12:12.999Z</time></trkpt><trkpt lat="42.109880705063546" lon="13.083410772596404"><ele>620.0</ele><time>2026-04-12T12:12:13.999Z</time></trkpt><trkpt lat="42.110064822249704" lon="13.08339225209108"><ele>620.0</ele><time>2026-04-12T12:12:14.999Z</time></trkpt><trkpt lat="42.1102482118097" lon="13.083380725239182"><ele>622.0</ele><time>2026-04-12T12:12:15.999Z</time></trkpt><trkpt lat="42.11043175367071" lon="13.083374259869206"><ele>624.0</ele><time>2026-04-12T12:12:16.999Z</time></trkpt><trkpt lat="42.11061396430649" lon="13.083373101361431"><ele>626.0</ele><time>2026-04-12T12:12:17.999Z</time></trkpt><trkpt lat="42.110794518346566" lon="13.083377421267395"><ele>626.0</ele><time>2026-04-12T12:12:18.999Z</time></trkpt><trkpt lat="42.1109748122928" lon="13.083377253820599"><ele>626.0</ele><time>2026-04-12T12:12:19.999Z</time></trkpt><trkpt lat="42.1111531831649" lon="13.083373272099893"><ele>626.0</ele><time>2026-04-12T12:12:20.999Z</time></trkpt><trkpt lat="42.11133170707858" lon="13.083368540249158"><ele>626.0</ele><time>2026-04-12T12:12:21.999Z</time></trkpt><trkpt lat="42.111510319015316" lon="13.083361612513626"><ele>626.0</ele><time>2026-04-12T12:12:22.999Z</time></trkpt><trkpt lat="42.111688527483906" lon="13.083354301769075"><ele>626.0</ele><time>2026-04-12T12:12:23.999Z</time></trkpt><trkpt lat="42.11186619074381" lon="13.083344799462996"><ele>625.0</ele><time>2026-04-12T12:12:24.999Z</time></trkpt><trkpt lat="42.11204615371162" lon="13.083333714276336"><ele>624.0</ele><time>2026-04-12T12:12:25.999Z</time></trkpt><trkpt lat="42.112224948340355" lon="13.083323587271568"><ele>623.0</ele><time>2026-04-12T12:12:26.999Z</time></trkpt><trkpt lat="42.112403779644744" lon="13.083313998375347"><ele>622.6666666666666</ele><time>2026-04-12T12:12:27.999Z</time></trkpt><trkpt lat="42.1125827223716" lon="13.083304259572264"><ele>622.3333333333334</ele><time>2026-04-12T12:12:28.999Z</time></trkpt><trkpt lat="42.11276397968923" lon="13.083294011252413"><ele>622.0</ele><time>2026-04-12T12:12:29.999Z</time></trkpt><trkpt lat="42.11294808874491" lon="13.083288457158968"><ele>622.0</ele><time>2026-04-12T12:12:30.999Z</time></trkpt><trkpt lat="42.113132538023756" lon="13.083296707616377"><ele>622.0</ele><time>2026-04-12T12:12:31.999Z</time></trkpt><trkpt lat="42.11331322127533" lon="13.08331896176142"><ele>622.0</ele><time>2026-04-12T12:12:32.999Z</time></trkpt><trkpt lat="42.1134896225537" lon="13.083354302859425"><ele>619.6666666666667</ele><time>2026-04-12T12:12:33.998Z</time></trkpt><trkpt lat="42.113663020924434" lon="13.083403003116075"><ele>617.3333333333334</ele><time>2026-04-12T12:12:34.998Z</time></trkpt><trkpt lat="42.113834692210595" lon="13.083469240726412"><ele>615.0</ele><time>2026-04-12T12:12:35.998Z</time></trkpt><trkpt lat="42.11400745460941" lon="13.083551639503977"><ele>616.6666666666666</ele><time>2026-04-12T12:12:37Z</time></trkpt><trkpt lat="42.114176936156746" lon="13.083648757190078"><ele>618.3333333333333</ele><time>2026-04-12T12:12:38Z</time></trkpt><trkpt lat="42.11434533964233" lon="13.0837597977015"><ele>620.0</ele><time>2026-04-12T12:12:39Z</time></trkpt><trkpt lat="42.11451322197612" lon="13.083874992537101"><ele>620.0</ele><time>2026-04-12T12:12:40Z</time></trkpt><trkpt lat="42.11468221554411" lon="13.083991536870473"><ele>620.0</ele><time>2026-04-12T12:12:41Z</time></trkpt><trkpt lat="42.11484798734085" lon="13.084109607583935"><ele>620.0</ele><time>2026-04-12T12:12:42Z</time></trkpt><trkpt lat="42.11500872724157" lon="13.08423400291602"><ele>620.6666666666666</ele><time>2026-04-12T12:12:43Z</time></trkpt><trkpt lat="42.115165518392125" lon="13.08436492880641"><ele>621.3333333333334</ele><time>2026-04-12T12:12:44Z</time></trkpt><trkpt lat="42.11531634622262" lon="13.08450547134014"><ele>622.0</ele><time>2026-04-12T12:12:45Z</time></trkpt><trkpt lat="42.115458938349015" lon="13.084660941792716"><ele>622.0</ele><time>2026-04-12T12:12:46Z</time></trkpt><trkpt lat="42.11559420914639" lon="13.08483176456019"><ele>622.0</ele><time>2026-04-12T12:12:47Z</time></trkpt><trkpt lat="42.1157204011918" lon="13.085017966498851"><ele>622.0</ele><time>2026-04-12T12:12:48Z</time></trkpt><trkpt lat="42.11583738517515" lon="13.085215826483884"><ele>622.0</ele><time>2026-04-12T12:12:49Z</time></trkpt><trkpt lat="42.11595023195352" lon="13.085426094385049"><ele>622.0</ele><time>2026-04-12T12:12:50Z</time></trkpt><trkpt lat="42.116053791325875" lon="13.08565525218543"><ele>622.0</ele><time>2026-04-12T12:12:51Z</time></trkpt><trkpt lat="42.116140203269104" lon="13.085888041129174"><ele>622.0</ele><time>2026-04-12T12:12:52Z</time></trkpt><trkpt lat="42.11623135094181" lon="13.086131235012113"><ele>622.0</ele><time>2026-04-12T12:12:53Z</time></trkpt><trkpt lat="42.11632393874868" lon="13.086377965819043"><ele>622.0</ele><time>2026-04-12T12:12:54Z</time></trkpt><trkpt lat="42.116419818971295" lon="13.086624452016906"><ele>620.6666666666667</ele><time>2026-04-12T12:12:55Z</time></trkpt><trkpt lat="42.116520891822276" lon="13.086877309533948"><ele>619.3333333333334</ele><time>2026-04-12T12:12:56Z</time></trkpt><trkpt lat="42.11662676534471" lon="13.087135759912874"><ele>618.0</ele><time>2026-04-12T12:12:57Z</time></trkpt><trkpt lat="42.1167348008986" lon="13.087394868563784"><ele>619.5</ele><time>2026-04-12T12:12:58Z</time></trkpt><trkpt lat="42.11684516876197" lon="13.087660681209321"><ele>621.0</ele><time>2026-04-12T12:12:59Z</time></trkpt><trkpt lat="42.11694194278593" lon="13.087957497244192"><ele>620.5</ele><time>2026-04-12T12:13:00Z</time></trkpt><trkpt lat="42.117060150850676" lon="13.088262478400955"><ele>620.0</ele><time>2026-04-12T12:13:01Z</time></trkpt><trkpt lat="42.11718742795493" lon="13.08857773420417"><ele>620.0</ele><time>2026-04-12T12:13:02Z</time></trkpt><trkpt lat="42.117299047846274" lon="13.088906084429496"><ele>620.0</ele><time>2026-04-12T12:13:03Z</time></trkpt><trkpt lat="42.11742099805314" lon="13.089222288422832"><ele>622.5</ele><time>2026-04-12T12:13:04Z</time></trkpt><trkpt lat="42.11753917519049" lon="13.089514447524023"><ele>625.0</ele><time>2026-04-12T12:13:05Z</time></trkpt><trkpt lat="42.117648514870815" lon="13.089792325904797"><ele>623.3333333333334</ele><time>2026-04-12T12:13:06Z</time></trkpt><trkpt lat="42.11774710416488" lon="13.090054818103706"><ele>621.6666666666666</ele><time>2026-04-12T12:13:07Z</time></trkpt><trkpt lat="42.1178391737207" lon="13.09030829629099"><ele>620.0</ele><time>2026-04-12T12:13:08Z</time></trkpt><trkpt lat="42.11791921193755" lon="13.090554541039383"><ele>620.3333333333333</ele><time>2026-04-12T12:13:09Z</time></trkpt><trkpt lat="42.11798300412295" lon="13.0907953868637"><ele>620.6666666666666</ele><time>2026-04-12T12:13:10Z</time></trkpt><trkpt lat="42.11803072962479" lon="13.091047186933645"><ele>621.0</ele><time>2026-04-12T12:13:11Z</time></trkpt><trkpt lat="42.118075625459056" lon="13.091303232424726"><ele>621.0</ele><time>2026-04-12T12:13:12Z</time></trkpt><trkpt lat="42.11812302509585" lon="13.091559478267296"><ele>621.0</ele><time>2026-04-12T12:13:13Z</time></trkpt><trkpt lat="42.11817218546952" lon="13.091826816962493"><ele>621.0</ele><time>2026-04-12T12:13:14Z</time></trkpt><trkpt lat="42.11822764214431" lon="13.092103931697268"><ele>624.6666666666666</ele><time>2026-04-12T12:13:15Z</time></trkpt><trkpt lat="42.11828372077296" lon="13.092389861055013"><ele>628.3333333333333</ele><time>2026-04-12T12:13:16Z</time></trkpt><trkpt lat="42.118339347657916" lon="13.092680191511668"><ele>632.0</ele><time>2026-04-12T12:13:17Z</time></trkpt><trkpt lat="42.11839586804671" lon="13.092966694498433"><ele>632.0</ele><time>2026-04-12T12:13:18Z</time></trkpt><trkpt lat="42.118451539727154" lon="13.093249940786485"><ele>632.0</ele><time>2026-04-12T12:13:19Z</time></trkpt><trkpt lat="42.118503148671536" lon="13.093533997031654"><ele>632.0</ele><time>2026-04-12T12:13:20Z</time></trkpt><trkpt lat="42.11855268836532" lon="13.093816046501994"><ele>631.6666666666666</ele><time>2026-04-12T12:13:21Z</time></trkpt><trkpt lat="42.11860276084241" lon="13.094087769535177"><ele>631.3333333333334</ele><time>2026-04-12T12:13:22Z</time></trkpt><trkpt lat="42.118650386826715" lon="13.094337910942844"><ele>631.0</ele><time>2026-04-12T12:13:23Z</time></trkpt><trkpt lat="42.11869255708896" lon="13.094576209697356"><ele>630.0</ele><time>2026-04-12T12:13:24Z</time></trkpt><trkpt lat="42.118759609191976" lon="13.094872412652448"><ele>629.0</ele><time>2026-04-12T12:13:25Z</time></trkpt><trkpt lat="42.11880890832663" lon="13.09513419353576"><ele>628.0</ele><time>2026-04-12T12:13:26Z</time></trkpt><trkpt lat="42.118825654555756" lon="13.095398257915479"><ele>627.0</ele><time>2026-04-12T12:13:27Z</time></trkpt><trkpt lat="42.118837973288784" lon="13.09566633447136"><ele>626.0</ele><time>2026-04-12T12:13:28Z</time></trkpt><trkpt lat="42.118852516705964" lon="13.095940943588952"><ele>625.0</ele><time>2026-04-12T12:13:29Z</time></trkpt><trkpt lat="42.11884847083" lon="13.09621708437378"><ele>624.6666666666667</ele><time>2026-04-12T12:13:30Z</time></trkpt><trkpt lat="42.11883095433608" lon="13.096498015597051"><ele>624.3333333333334</ele><time>2026-04-12T12:13:31Z</time></trkpt><trkpt lat="42.11880151191104" lon="13.096773799808608"><ele>624.0</ele><time>2026-04-12T12:13:32Z</time></trkpt><trkpt lat="42.11879178356381" lon="13.097052555124819"><ele>624.0</ele><time>2026-04-12T12:13:33Z</time></trkpt><trkpt lat="42.118777825192716" lon="13.09731983303685"><ele>624.0</ele><time>2026-04-12T12:13:34Z</time></trkpt><trkpt lat="42.11875270743532" lon="13.097579303979666"><ele>624.0</ele><time>2026-04-12T12:13:35Z</time></trkpt><trkpt lat="42.11871023622626" lon="13.09784358313361"><ele>624.0</ele><time>2026-04-12T12:13:36Z</time></trkpt><trkpt lat="42.11865022294566" lon="13.098103635343508"><ele>624.0</ele><time>2026-04-12T12:13:37Z</time></trkpt><trkpt lat="42.11857966623485" lon="13.098356872544342"><ele>624.0</ele><time>2026-04-12T12:13:37.999Z</time></trkpt><trkpt lat="42.11849427599852" lon="13.098602956670765"><ele>624.3333333333334</ele><time>2026-04-12T12:13:38.999Z</time></trkpt><trkpt lat="42.11839682612203" lon="13.098841219866202"><ele>624.6666666666667</ele><time>2026-04-12T12:13:39.999Z</time></trkpt><trkpt lat="42.11828479269351" lon="13.099070062860877"><ele>625.0</ele><time>2026-04-12T12:13:40.999Z</time></trkpt><trkpt lat="42.118155629646324" lon="13.099296308216578"><ele>626.0</ele><time>2026-04-12T12:13:41.999Z</time></trkpt><trkpt lat="42.11803117207212" lon="13.099517856243569"><ele>627.0</ele><time>2026-04-12T12:13:42.999Z</time></trkpt><trkpt lat="42.1179096873923" lon="13.099741006226816"><ele>628.0</ele><time>2026-04-12T12:13:43.999Z</time></trkpt><trkpt lat="42.1177981368174" lon="13.099959722636589"><ele>628.6666666666667</ele><time>2026-04-12T12:13:44.999Z</time></trkpt><trkpt lat="42.11769833350307" lon="13.100162761917595"><ele>629.3333333333334</ele><time>2026-04-12T12:13:45.999Z</time></trkpt><trkpt lat="42.1176236104318" lon="13.100358422128469"><ele>630.0</ele><time>2026-04-12T12:13:46.999Z</time></trkpt><trkpt lat="42.11756509380096" lon="13.100568799040959"><ele>630.6666666666666</ele><time>2026-04-12T12:13:47.999Z</time></trkpt><trkpt lat="42.11751710421929" lon="13.100795106245446"><ele>631.3333333333333</ele><time>2026-04-12T12:13:48.999Z</time></trkpt><trkpt lat="42.117479935198205" lon="13.101025822464592"><ele>632.0</ele><time>2026-04-12T12:13:49.999Z</time></trkpt><trkpt lat="42.117453755513296" lon="13.10124902521665"><ele>632.0</ele><time>2026-04-12T12:13:50.999Z</time></trkpt><trkpt lat="42.117442458779124" lon="13.101475418552234"><ele>632.0</ele><time>2026-04-12T12:13:51.999Z</time></trkpt><trkpt lat="42.11744374643697" lon="13.10169932000128"><ele>632.0</ele><time>2026-04-12T12:13:52.999Z</time></trkpt><trkpt lat="42.11744964165649" lon="13.101907455327993"><ele>632.75</ele><time>2026-04-12T12:13:53.999Z</time></trkpt><trkpt lat="42.11745752646515" lon="13.102110849274098"><ele>633.5</ele><time>2026-04-12T12:13:54.999Z</time></trkpt><trkpt lat="42.11746445538723" lon="13.102300920529252"><ele>634.25</ele><time>2026-04-12T12:13:55.999Z</time></trkpt><trkpt lat="42.117469540257964" lon="13.102479338386207"><ele>635.0</ele><time>2026-04-12T12:13:56.999Z</time></trkpt><trkpt lat="42.11748244655974" lon="13.102648448604542"><ele>635.0</ele><time>2026-04-12T12:13:57.999Z</time></trkpt><trkpt lat="42.11750590774531" lon="13.102802858173932"><ele>635.0</ele><time>2026-04-12T12:13:58.999Z</time></trkpt><trkpt lat="42.11754900565395" lon="13.102932095154134"><ele>635.0</ele><time>2026-04-12T12:13:59.999Z</time></trkpt><trkpt lat="42.1175960908895" lon="13.103040027604969"><ele>635.0</ele><time>2026-04-12T12:14:00.999Z</time></trkpt><trkpt lat="42.11764354400209" lon="13.103153131130162"><ele>635.0</ele><time>2026-04-12T12:14:01.999Z</time></trkpt><trkpt lat="42.11768448308867" lon="13.103249145419271"><ele>635.0</ele><time>2026-04-12T12:14:02.999Z</time></trkpt><trkpt lat="42.11777148694925" lon="13.103521096933779"><ele>635.0</ele><time>2026-04-12T12:14:03.999Z</time></trkpt><trkpt lat="42.11785291798023" lon="13.103659605535993"><ele>635.0</ele><time>2026-04-12T12:14:04.999Z</time></trkpt><trkpt lat="42.11794750277926" lon="13.103788730845535"><ele>635.0</ele><time>2026-04-12T12:14:05.999Z</time></trkpt><trkpt lat="42.11804488677049" lon="13.103884778725226"><ele>635.0</ele><time>2026-04-12T12:14:06.999Z</time></trkpt><trkpt lat="42.118155439630215" lon="13.103957044774791"><ele>635.0</ele><time>2026-04-12T12:14:07.999Z</time></trkpt><trkpt lat="42.118277769219205" lon="13.10399304560163"><ele>635.0</ele><time>2026-04-12T12:14:08.999Z</time></trkpt><trkpt lat="42.11842397715041" lon="13.103996328460426"><ele>639.6666666666666</ele><time>2026-04-12T12:14:09.999Z</time></trkpt><trkpt lat="42.11859185684905" lon="13.103995111218843"><ele>644.3333333333334</ele><time>2026-04-12T12:14:10.999Z</time></trkpt><trkpt lat="42.118773125277635" lon="13.104020570450052"><ele>649.0</ele><time>2026-04-12T12:14:11.999Z</time></trkpt><trkpt lat="42.11895731118593" lon="13.104050150244388"><ele>651.0</ele><time>2026-04-12T12:14:12.999Z</time></trkpt><trkpt lat="42.11913810677065" lon="13.10407579717651"><ele>653.0</ele><time>2026-04-12T12:14:13.999Z</time></trkpt><trkpt lat="42.11933286881019" lon="13.104094514167384"><ele>655.0</ele><time>2026-04-12T12:14:14.999Z</time></trkpt><trkpt lat="42.119541878896634" lon="13.104123312987275"><ele>649.6666666666667</ele><time>2026-04-12T12:14:15.999Z</time></trkpt><trkpt lat="42.119742373506774" lon="13.104157272566217"><ele>644.3333333333334</ele><time>2026-04-12T12:14:16.999Z</time></trkpt><trkpt lat="42.11992427687148" lon="13.104188396400476"><ele>639.0</ele><time>2026-04-12T12:14:17.999Z</time></trkpt><trkpt lat="42.12007723851011" lon="13.104229045657542"><ele>639.0</ele><time>2026-04-12T12:14:18.999Z</time></trkpt><trkpt lat="42.12021363251753" lon="13.104265016426329"><ele>639.0</ele><time>2026-04-12T12:14:19.999Z</time></trkpt><trkpt lat="42.120334807821536" lon="13.104250513677838"><ele>639.0</ele><time>2026-04-12T12:14:20.999Z</time></trkpt><trkpt lat="42.12046223857899" lon="13.104175736216725"><ele>639.0</ele><time>2026-04-12T12:14:21.999Z</time></trkpt><trkpt lat="42.12058831322277" lon="13.104045427585113"><ele>647.0</ele><time>2026-04-12T12:14:22.999Z</time></trkpt><trkpt lat="42.120732123898826" lon="13.103915641405905"><ele>655.0</ele><time>2026-04-12T12:14:23.999Z</time></trkpt><trkpt lat="42.12090608597002" lon="13.103832791267429"><ele>663.0</ele><time>2026-04-12T12:14:24.999Z</time></trkpt><trkpt lat="42.12107414784662" lon="13.103793720319826"><ele>664.6666666666666</ele><time>2026-04-12T12:14:25.999Z</time></trkpt><trkpt lat="42.121237509937615" lon="13.103792167929399"><ele>666.3333333333333</ele><time>2026-04-12T12:14:26.999Z</time></trkpt><trkpt lat="42.12141833063272" lon="13.103838788009744"><ele>668.0</ele><time>2026-04-12T12:14:27.999Z</time></trkpt><trkpt lat="42.1216109834992" lon="13.103917509016648"><ele>668.0</ele><time>2026-04-12T12:14:28.999Z</time></trkpt><trkpt lat="42.12181754318663" lon="13.103984669501653"><ele>668.0</ele><time>2026-04-12T12:14:29.999Z</time></trkpt><trkpt lat="42.122014571650375" lon="13.104025576839161"><ele>668.0</ele><time>2026-04-12T12:14:30.999Z</time></trkpt><trkpt lat="42.12219387139246" lon="13.104058940971363"><ele>668.0</ele><time>2026-04-12T12:14:31.999Z</time></trkpt><trkpt lat="42.12236714870829" lon="13.104078813955681"><ele>668.0</ele><time>2026-04-12T12:14:32.999Z</time></trkpt><trkpt lat="42.12255416019663" lon="13.104071468159344"><ele>668.0</ele><time>2026-04-12T12:14:33.999Z</time></trkpt><trkpt lat="42.12276148164849" lon="13.104033720758727"><ele>668.0</ele><time>2026-04-12T12:14:34.998Z</time></trkpt><trkpt lat="42.12297516733748" lon="13.103997777360396"><ele>668.0</ele><time>2026-04-12T12:14:35.998Z</time></trkpt><trkpt lat="42.123182191400666" lon="13.103975344650472"><ele>668.0</ele><time>2026-04-12T12:14:36.998Z</time></trkpt><trkpt lat="42.12336916972266" lon="13.103941127465111"><ele>668.0</ele><time>2026-04-12T12:14:37.998Z</time></trkpt><trkpt lat="42.1235485073611" lon="13.103887741806524"><ele>668.0</ele><time>2026-04-12T12:14:38.998Z</time></trkpt><trkpt lat="42.123740798972804" lon="13.103795104469746"><ele>668.0</ele><time>2026-04-12T12:14:39.998Z</time></trkpt><trkpt lat="42.123938951441" lon="13.103704918266322"><ele>664.5</ele><time>2026-04-12T12:14:40.998Z</time></trkpt><trkpt lat="42.12414915006062" lon="13.103636451820252"><ele>661.0</ele><time>2026-04-12T12:14:41.998Z</time></trkpt><trkpt lat="42.12439977672802" lon="13.103632482206939"><ele>661.0</ele><time>2026-04-12T12:14:43Z</time></trkpt><trkpt lat="42.12465772392766" lon="13.103574690746937"><ele>661.0</ele><time>2026-04-12T12:14:44Z</time></trkpt><trkpt lat="42.1249242391238" lon="13.103553647250552"><ele>659.0</ele><time>2026-04-12T12:14:45Z</time></trkpt><trkpt lat="42.125178966657856" lon="13.103539045475557"><ele>657.0</ele><time>2026-04-12T12:14:46Z</time></trkpt><trkpt lat="42.12541817041795" lon="13.10353761696142"><ele>657.0</ele><time>2026-04-12T12:14:47Z</time></trkpt><trkpt lat="42.12564745089587" lon="13.103547270035287"><ele>657.0</ele><time>2026-04-12T12:14:48Z</time></trkpt><trkpt lat="42.125867443821186" lon="13.10356332102475"><ele>656.0</ele><time>2026-04-12T12:14:49Z</time></trkpt><trkpt lat="42.126068828061086" lon="13.103580608802385"><ele>655.0</ele><time>2026-04-12T12:14:50Z</time></trkpt><trkpt lat="42.12626164643659" lon="13.10360647193918"><ele>654.0</ele><time>2026-04-12T12:14:51Z</time></trkpt><trkpt lat="42.12645887382656" lon="13.103636113036409"><ele>653.6666666666666</ele><time>2026-04-12T12:14:52Z</time></trkpt><trkpt lat="42.126647321045034" lon="13.103669410686466"><ele>653.3333333333333</ele><time>2026-04-12T12:14:53Z</time></trkpt><trkpt lat="42.126826061437804" lon="13.10370710130027"><ele>653.0</ele><time>2026-04-12T12:14:54Z</time></trkpt><trkpt lat="42.12699946306812" lon="13.103735765976761"><ele>653.0</ele><time>2026-04-12T12:14:55Z</time></trkpt><trkpt lat="42.12717612957774" lon="13.103754479327483"><ele>653.0</ele><time>2026-04-12T12:14:56Z</time></trkpt><trkpt lat="42.1273611663913" lon="13.103760380606165"><ele>653.0</ele><time>2026-04-12T12:14:57Z</time></trkpt><trkpt lat="42.12755012244942" lon="13.103754236162738"><ele>652.3333333333333</ele><time>2026-04-12T12:14:58Z</time></trkpt><trkpt lat="42.12774039106721" lon="13.103742074469755"><ele>651.6666666666666</ele><time>2026-04-12T12:14:59Z</time></trkpt><trkpt lat="42.127938638309345" lon="13.10373325118676"><ele>651.0</ele><time>2026-04-12T12:15:00Z</time></trkpt><trkpt lat="42.12814113784093" lon="13.103733387676966"><ele>650.0</ele><time>2026-04-12T12:15:01Z</time></trkpt><trkpt lat="42.12834599810388" lon="13.103724826133107"><ele>649.0</ele><time>2026-04-12T12:15:02Z</time></trkpt><trkpt lat="42.12854252589335" lon="13.103712753754715"><ele>648.0</ele><time>2026-04-12T12:15:03Z</time></trkpt><trkpt lat="42.128721170262544" lon="13.103705277785693"><ele>648.0</ele><time>2026-04-12T12:15:04Z</time></trkpt><trkpt lat="42.128888288225525" lon="13.103692041990149"><ele>648.0</ele><time>2026-04-12T12:15:05Z</time></trkpt><trkpt lat="42.129059465148075" lon="13.103667736506555"><ele>648.0</ele><time>2026-04-12T12:15:06Z</time></trkpt><trkpt lat="42.12922877391278" lon="13.103618950852667"><ele>647.6666666666666</ele><time>2026-04-12T12:15:07Z</time></trkpt><trkpt lat="42.12939658043923" lon="13.103561524327128"><ele>647.3333333333333</ele><time>2026-04-12T12:15:08Z</time></trkpt><trkpt lat="42.12955709955404" lon="13.103485332024217"><ele>647.0</ele><time>2026-04-12T12:15:09Z</time></trkpt><trkpt lat="42.12971914485845" lon="13.103421413310443"><ele>647.0</ele><time>2026-04-12T12:15:10Z</time></trkpt><trkpt lat="42.129884055008745" lon="13.103372035689466"><ele>647.0</ele><time>2026-04-12T12:15:11Z</time></trkpt><trkpt lat="42.13005524514456" lon="13.103338044791382"><ele>647.0</ele><time>2026-04-12T12:15:12Z</time></trkpt><trkpt lat="42.13024685243199" lon="13.103328225754897"><ele>647.6666666666666</ele><time>2026-04-12T12:15:13Z</time></trkpt><trkpt lat="42.13045565455259" lon="13.103345632179336"><ele>648.3333333333334</ele><time>2026-04-12T12:15:14Z</time></trkpt><trkpt lat="42.13067455756891" lon="13.103384105743595"><ele>649.0</ele><time>2026-04-12T12:15:15Z</time></trkpt><trkpt lat="42.13089299611589" lon="13.103426692294551"><ele>649.6666666666667</ele><time>2026-04-12T12:15:16Z</time></trkpt><trkpt lat="42.131104068758326" lon="13.103457040093105"><ele>650.3333333333334</ele><time>2026-04-12T12:15:17Z</time></trkpt><trkpt lat="42.13130055906007" lon="13.103477565449236"><ele>651.0</ele><time>2026-04-12T12:15:18Z</time></trkpt><trkpt lat="42.13149276450833" lon="13.103488623087307"><ele>652.0</ele><time>2026-04-12T12:15:19Z</time></trkpt><trkpt lat="42.13168624596345" lon="13.10348610611988"><ele>653.0</ele><time>2026-04-12T12:15:20Z</time></trkpt><trkpt lat="42.13189132482421" lon="13.10346180369519"><ele>654.0</ele><time>2026-04-12T12:15:21Z</time></trkpt><trkpt lat="42.132107649342096" lon="13.10342397834722"><ele>654.0</ele><time>2026-04-12T12:15:22Z</time></trkpt><trkpt lat="42.13232255634587" lon="13.103382808886014"><ele>654.0</ele><time>2026-04-12T12:15:23Z</time></trkpt><trkpt lat="42.13252947523939" lon="13.103346316897545"><ele>654.0</ele><time>2026-04-12T12:15:24Z</time></trkpt><trkpt lat="42.13273868111962" lon="13.103300274421583"><ele>654.3333333333334</ele><time>2026-04-12T12:15:25Z</time></trkpt><trkpt lat="42.132948308346265" lon="13.103244838555744"><ele>654.6666666666667</ele><time>2026-04-12T12:15:26Z</time></trkpt><trkpt lat="42.13316098983195" lon="13.103184263896823"><ele>655.0</ele><time>2026-04-12T12:15:27Z</time></trkpt><trkpt lat="42.13337542969828" lon="13.10311849919536"><ele>655.0</ele><time>2026-04-12T12:15:28Z</time></trkpt><trkpt lat="42.133585987806285" lon="13.103059918091915"><ele>655.0</ele><time>2026-04-12T12:15:29Z</time></trkpt><trkpt lat="42.13379355233433" lon="13.103010297265389"><ele>655.0</ele><time>2026-04-12T12:15:30Z</time></trkpt><trkpt lat="42.13400167194681" lon="13.102975920061501"><ele>656.6666666666667</ele><time>2026-04-12T12:15:31Z</time></trkpt><trkpt lat="42.13420771123282" lon="13.102948010986589"><ele>658.3333333333334</ele><time>2026-04-12T12:15:32Z</time></trkpt><trkpt lat="42.13440957860568" lon="13.102913332708498"><ele>660.0</ele><time>2026-04-12T12:15:33Z</time></trkpt><trkpt lat="42.13460518101586" lon="13.102872914620821"><ele>660.0</ele><time>2026-04-12T12:15:34Z</time></trkpt><trkpt lat="42.1347931181735" lon="13.102825354311744"><ele>660.0</ele><time>2026-04-12T12:15:35Z</time></trkpt><trkpt lat="42.134971446303446" lon="13.102773174425943"><ele>660.0</ele><time>2026-04-12T12:15:36Z</time></trkpt><trkpt lat="42.13513585957715" lon="13.102723116375072"><ele>662.0</ele><time>2026-04-12T12:15:37Z</time></trkpt><trkpt lat="42.135288658894275" lon="13.102671453059013"><ele>664.0</ele><time>2026-04-12T12:15:38Z</time></trkpt><trkpt lat="42.13544265795258" lon="13.102625756830554"><ele>666.0</ele><time>2026-04-12T12:15:39Z</time></trkpt><trkpt lat="42.13560234608398" lon="13.102576348141744"><ele>668.0</ele><time>2026-04-12T12:15:40Z</time></trkpt><trkpt lat="42.13576261262461" lon="13.10253725648982"><ele>670.0</ele><time>2026-04-12T12:15:41Z</time></trkpt><trkpt lat="42.13593000972825" lon="13.102491043793577"><ele>672.0</ele><time>2026-04-12T12:15:42Z</time></trkpt><trkpt lat="42.13610919282719" lon="13.102446197340756"><ele>669.3333333333334</ele><time>2026-04-12T12:15:43Z</time></trkpt><trkpt lat="42.13630203694898" lon="13.102400390857788"><ele>666.6666666666667</ele><time>2026-04-12T12:15:44Z</time></trkpt><trkpt lat="42.136496255442694" lon="13.102356299826399"><ele>664.0</ele><time>2026-04-12T12:15:45Z</time></trkpt><trkpt lat="42.136672598691916" lon="13.102317491525499"><ele>664.0</ele><time>2026-04-12T12:15:46Z</time></trkpt><trkpt lat="42.13684161320867" lon="13.102295604535701"><ele>664.0</ele><time>2026-04-12T12:15:47Z</time></trkpt><trkpt lat="42.13702031453379" lon="13.102294683798586"><ele>664.0</ele><time>2026-04-12T12:15:48Z</time></trkpt><trkpt lat="42.137206854105216" lon="13.102334838792897"><ele>665.0</ele><time>2026-04-12T12:15:48.999Z</time></trkpt><trkpt lat="42.13738596224185" lon="13.102396616190333"><ele>666.0</ele><time>2026-04-12T12:15:49.999Z</time></trkpt><trkpt lat="42.13754309821767" lon="13.102429094240533"><ele>667.0</ele><time>2026-04-12T12:15:50.999Z</time></trkpt><trkpt lat="42.13769824395669" lon="13.10242387711203"><ele>667.0</ele><time>2026-04-12T12:15:51.999Z</time></trkpt><trkpt lat="42.13785845897518" lon="13.10237219559843"><ele>667.0</ele><time>2026-04-12T12:15:52.999Z</time></trkpt><trkpt lat="42.13801991099365" lon="13.102286386793725"><ele>667.0</ele><time>2026-04-12T12:15:53.999Z</time></trkpt><trkpt lat="42.138179646430864" lon="13.102177318765987"><ele>672.0</ele><time>2026-04-12T12:15:54.999Z</time></trkpt><trkpt lat="42.13834429881986" lon="13.102058909439922"><ele>677.0</ele><time>2026-04-12T12:15:55.999Z</time></trkpt><trkpt lat="42.13851874856652" lon="13.101963988607247"><ele>682.0</ele><time>2026-04-12T12:15:56.999Z</time></trkpt><trkpt lat="42.13870889648826" lon="13.101898498146209"><ele>682.0</ele><time>2026-04-12T12:15:57.999Z</time></trkpt><trkpt lat="42.13890845528964" lon="13.101850229954707"><ele>682.0</ele><time>2026-04-12T12:15:58.999Z</time></trkpt><trkpt lat="42.1391147729335" lon="13.101790692944531"><ele>682.0</ele><time>2026-04-12T12:15:59.999Z</time></trkpt><trkpt lat="42.1393204674206" lon="13.101700854440951"><ele>680.0</ele><time>2026-04-12T12:16:00.999Z</time></trkpt><trkpt lat="42.13952283160489" lon="13.101583045319163"><ele>678.0</ele><time>2026-04-12T12:16:01.999Z</time></trkpt><trkpt lat="42.13972418451636" lon="13.101473582836503"><ele>676.0</ele><time>2026-04-12T12:16:02.999Z</time></trkpt><trkpt lat="42.13991783701309" lon="13.101385967697045"><ele>681.0</ele><time>2026-04-12T12:16:03.999Z</time></trkpt><trkpt lat="42.14009561155662" lon="13.101320382330746"><ele>686.0</ele><time>2026-04-12T12:16:04.999Z</time></trkpt><trkpt lat="42.14024526319628" lon="13.101281574762982"><ele>691.0</ele><time>2026-04-12T12:16:05.999Z</time></trkpt><trkpt lat="42.14036627065257" lon="13.10129267246326"><ele>691.0</ele><time>2026-04-12T12:16:06.999Z</time></trkpt><trkpt lat="42.14047169827912" lon="13.10131610775864"><ele>691.0</ele><time>2026-04-12T12:16:07.999Z</time></trkpt><trkpt lat="42.14057888102613" lon="13.101348677768312"><ele>691.0</ele><time>2026-04-12T12:16:08.999Z</time></trkpt><trkpt lat="42.140692956612035" lon="13.101441252796443"><ele>691.0</ele><time>2026-04-12T12:16:09.999Z</time></trkpt><trkpt lat="42.14080948887966" lon="13.101569493541902"><ele>701.6666666666667</ele><time>2026-04-12T12:16:10.999Z</time></trkpt><trkpt lat="42.14091861812896" lon="13.101731356847921"><ele>712.3333333333334</ele><time>2026-04-12T12:16:11.999Z</time></trkpt><trkpt lat="42.141010186968224" lon="13.101909843279888"><ele>723.0</ele><time>2026-04-12T12:16:12.999Z</time></trkpt><trkpt lat="42.14108074854368" lon="13.1021047423539"><ele>723.0</ele><time>2026-04-12T12:16:13.999Z</time></trkpt><trkpt lat="42.1411441365224" lon="13.10227355425596"><ele>723.0</ele><time>2026-04-12T12:16:14.999Z</time></trkpt><trkpt lat="42.14124512923008" lon="13.102423538396193"><ele>723.0</ele><time>2026-04-12T12:16:15.999Z</time></trkpt><trkpt lat="42.14138457265842" lon="13.102551043305684"><ele>728.6666666666666</ele><time>2026-04-12T12:16:16.999Z</time></trkpt><trkpt lat="42.141527759342004" lon="13.102702362862756"><ele>734.3333333333333</ele><time>2026-04-12T12:16:17.999Z</time></trkpt><trkpt lat="42.1416731176087" lon="13.102879076990233"><ele>740.0</ele><time>2026-04-12T12:16:18.999Z</time></trkpt><trkpt lat="42.141799757586" lon="13.103059993195552"><ele>740.0</ele><time>2026-04-12T12:16:19.999Z</time></trkpt><trkpt lat="42.14190021814693" lon="13.103209057169112"><ele>740.0</ele><time>2026-04-12T12:16:20.999Z</time></trkpt><trkpt lat="42.14197470056821" lon="13.103334572584671"><ele>740.0</ele><time>2026-04-12T12:16:21.999Z</time></trkpt><trkpt lat="42.142044018066166" lon="13.103430638563374"><ele>740.0</ele><time>2026-04-12T12:16:22.999Z</time></trkpt><trkpt lat="42.142113404031164" lon="13.10348877725682"><ele>740.0</ele><time>2026-04-12T12:16:23.999Z</time></trkpt><trkpt lat="42.142205586274045" lon="13.103447175668881"><ele>740.0</ele><time>2026-04-12T12:16:24.999Z</time></trkpt><trkpt lat="42.14225746710848" lon="13.10334089937125"><ele>740.0</ele><time>2026-04-12T12:16:25.999Z</time></trkpt><trkpt lat="42.14228236910847" lon="13.103219299285213"><ele>740.0</ele><time>2026-04-12T12:16:26.999Z</time></trkpt><trkpt lat="42.1422782103582" lon="13.103063968745026"><ele>740.0</ele><time>2026-04-12T12:16:27.999Z</time></trkpt><trkpt lat="42.14224207475962" lon="13.102876239211973"><ele>740.0</ele><time>2026-04-12T12:16:28.999Z</time></trkpt><trkpt lat="42.142226220706945" lon="13.102660033247636"><ele>740.0</ele><time>2026-04-12T12:16:29.999Z</time></trkpt><trkpt lat="42.142219165819846" lon="13.102420927515565"><ele>740.0</ele><time>2026-04-12T12:16:30.999Z</time></trkpt><trkpt lat="42.14221046805994" lon="13.102210759139863"><ele>740.6</ele><time>2026-04-12T12:16:31.999Z</time></trkpt><trkpt lat="42.14220530436864" lon="13.102042746425989"><ele>741.2</ele><time>2026-04-12T12:16:32.999Z</time></trkpt><trkpt lat="42.14222150584623" lon="13.101924876121796"><ele>741.8</ele><time>2026-04-12T12:16:33.999Z</time></trkpt><trkpt lat="42.1422671762336" lon="13.101848364297684"><ele>742.4</ele><time>2026-04-12T12:16:34.999Z</time></trkpt><trkpt lat="42.14234998078336" lon="13.10182363313908"><ele>743.0</ele><time>2026-04-12T12:16:35.999Z</time></trkpt><trkpt lat="42.14244052973806" lon="13.101841300710978"><ele>743.0</ele><time>2026-04-12T12:16:36.999Z</time></trkpt><trkpt lat="42.142528298841455" lon="13.101907782496765"><ele>743.0</ele><time>2026-04-12T12:16:37.999Z</time></trkpt><trkpt lat="42.14261070225266" lon="13.102035142799403"><ele>743.0</ele><time>2026-04-12T12:16:38.999Z</time></trkpt><trkpt lat="42.14269467664144" lon="13.102196176290164"><ele>743.0</ele><time>2026-04-12T12:16:39.999Z</time></trkpt><trkpt lat="42.142783240116124" lon="13.102359371549626"><ele>747.75</ele><time>2026-04-12T12:16:40.999Z</time></trkpt><trkpt lat="42.142861357205476" lon="13.10247968228001"><ele>752.5</ele><time>2026-04-12T12:16:41.999Z</time></trkpt><trkpt lat="42.142948885611716" lon="13.102562424693588"><ele>757.25</ele><time>2026-04-12T12:16:42.999Z</time></trkpt><trkpt lat="42.14308024203747" lon="13.10260265274308"><ele>762.0</ele><time>2026-04-12T12:16:43.999Z</time></trkpt><trkpt lat="42.14322323025314" lon="13.102637447871814"><ele>762.8</ele><time>2026-04-12T12:16:44.999Z</time></trkpt><trkpt lat="42.1433307411484" lon="13.102672180471332"><ele>763.6</ele><time>2026-04-12T12:16:45.999Z</time></trkpt><trkpt lat="42.14338683124312" lon="13.102763862891162"><ele>764.4</ele><time>2026-04-12T12:16:46.998Z</time></trkpt><trkpt lat="42.14345208343463" lon="13.102876855804105"><ele>765.1999999999999</ele><time>2026-04-12T12:16:47.998Z</time></trkpt><trkpt lat="42.143536159351434" lon="13.102971233382215"><ele>766.0</ele><time>2026-04-12T12:16:49.001Z</time></trkpt><trkpt lat="42.14366941254819" lon="13.10300980928824"><ele>766.0</ele><time>2026-04-12T12:16:50.001Z</time></trkpt><trkpt lat="42.14384031306479" lon="13.103019957072256"><ele>766.0</ele><time>2026-04-12T12:16:51.001Z</time></trkpt><trkpt lat="42.144016362289285" lon="13.10305687555112"><ele>766.0</ele><time>2026-04-12T12:16:52.001Z</time></trkpt><trkpt lat="42.14417554033914" lon="13.103018592756332"><ele>766.75</ele><time>2026-04-12T12:16:53.001Z</time></trkpt><trkpt lat="42.14429815119645" lon="13.102983454514922"><ele>767.5</ele><time>2026-04-12T12:16:54.001Z</time></trkpt><trkpt lat="42.144389337360714" lon="13.102920376846745"><ele>768.25</ele><time>2026-04-12T12:16:55.001Z</time></trkpt><trkpt lat="42.14445869815713" lon="13.102808334241265"><ele>769.0</ele><time>2026-04-12T12:16:56.001Z</time></trkpt><trkpt lat="42.14451544781847" lon="13.102649219790097"><ele>769.0</ele><time>2026-04-12T12:16:57.001Z</time></trkpt><trkpt lat="42.14459026628127" lon="13.102476008326343"><ele>769.0</ele><time>2026-04-12T12:16:58.001Z</time></trkpt><trkpt lat="42.14469096953061" lon="13.102344627204971"><ele>769.0</ele><time>2026-04-12T12:16:59.001Z</time></trkpt><trkpt lat="42.14480380666197" lon="13.10226004208549"><ele>769.0</ele><time>2026-04-12T12:17:00.001Z</time></trkpt><trkpt lat="42.14491293418188" lon="13.102222885328258"><ele>767.2</ele><time>2026-04-12T12:17:01.001Z</time></trkpt><trkpt lat="42.145018861944024" lon="13.102233744908107"><ele>765.4000000000001</ele><time>2026-04-12T12:17:02.001Z</time></trkpt><trkpt lat="42.14511955787423" lon="13.102289396454966"><ele>763.6</ele><time>2026-04-12T12:17:03.001Z</time></trkpt><trkpt lat="42.14519349035694" lon="13.102383617485028"><ele>761.8</ele><time>2026-04-12T12:17:04Z</time></trkpt><trkpt lat="42.14525024736442" lon="13.102527397737513"><ele>760.0</ele><time>2026-04-12T12:17:05Z</time></trkpt><trkpt lat="42.14530634393893" lon="13.102706520005675"><ele>767.25</ele><time>2026-04-12T12:17:06Z</time></trkpt><trkpt lat="42.145407959685166" lon="13.102862110521519"><ele>774.5</ele><time>2026-04-12T12:17:07Z</time></trkpt><trkpt lat="42.14551265604844" lon="13.10296826103006"><ele>781.75</ele><time>2026-04-12T12:17:08Z</time></trkpt><trkpt lat="42.14557395229693" lon="13.10307436739668"><ele>789.0</ele><time>2026-04-12T12:17:09Z</time></trkpt><trkpt lat="42.14560982969234" lon="13.10318938499698"><ele>793.8000000000001</ele><time>2026-04-12T12:17:10Z</time></trkpt><trkpt lat="42.145569867267035" lon="13.103340240308254"><ele>798.6</ele><time>2026-04-12T12:17:11Z</time></trkpt><trkpt lat="42.14555838112819" lon="13.10350463482425"><ele>803.4</ele><time>2026-04-12T12:17:12Z</time></trkpt><trkpt lat="42.14555798294329" lon="13.103640004885857"><ele>808.2</ele><time>2026-04-12T12:17:13Z</time></trkpt><trkpt lat="42.1455923160433" lon="13.103741820448741"><ele>813.0</ele><time>2026-04-12T12:17:14Z</time></trkpt><trkpt lat="42.14567267220301" lon="13.10383096097082"><ele>804.3333333333333</ele><time>2026-04-12T12:17:15Z</time></trkpt><trkpt lat="42.145798123609154" lon="13.103901207597271"><ele>795.6666666666666</ele><time>2026-04-12T12:17:16Z</time></trkpt><trkpt lat="42.14595867650828" lon="13.103974453729506"><ele>787.0</ele><time>2026-04-12T12:17:17Z</time></trkpt><trkpt lat="42.14612167937766" lon="13.104055060138908"><ele>795.5</ele><time>2026-04-12T12:17:18Z</time></trkpt><trkpt lat="42.14623573149135" lon="13.104127462740282"><ele>804.0</ele><time>2026-04-12T12:17:19Z</time></trkpt><trkpt lat="42.14634270333672" lon="13.104227833081602"><ele>812.5</ele><time>2026-04-12T12:17:20Z</time></trkpt><trkpt lat="42.146392932663936" lon="13.104359713903099"><ele>821.0</ele><time>2026-04-12T12:17:21Z</time></trkpt><trkpt lat="42.14642297678096" lon="13.104520416860122"><ele>821.0</ele><time>2026-04-12T12:17:22Z</time></trkpt><trkpt lat="42.146437774140814" lon="13.104728449077873"><ele>821.0</ele><time>2026-04-12T12:17:23Z</time></trkpt><trkpt lat="42.14647531234741" lon="13.104913650725969"><ele>821.0</ele><time>2026-04-12T12:17:24Z</time></trkpt><trkpt lat="42.14650777586181" lon="13.105082037179724"><ele>821.0</ele><time>2026-04-12T12:17:25Z</time></trkpt><trkpt lat="42.14658184088386" lon="13.105232101861128"><ele>817.5</ele><time>2026-04-12T12:17:26Z</time></trkpt><trkpt lat="42.14670857095358" lon="13.105340850925035"><ele>814.0</ele><time>2026-04-12T12:17:27Z</time></trkpt><trkpt lat="42.14679709128087" lon="13.10548044667104"><ele>810.5</ele><time>2026-04-12T12:17:28Z</time></trkpt><trkpt lat="42.14688266992751" lon="13.105585094049351"><ele>807.0</ele><time>2026-04-12T12:17:29Z</time></trkpt><trkpt lat="42.146923605465794" lon="13.105725895021141"><ele>809.25</ele><time>2026-04-12T12:17:30Z</time></trkpt><trkpt lat="42.14694010779729" lon="13.105891958335288"><ele>811.5</ele><time>2026-04-12T12:17:31Z</time></trkpt><trkpt lat="42.14692882926537" lon="13.106069786408115"><ele>813.75</ele><time>2026-04-12T12:17:32Z</time></trkpt><trkpt lat="42.14690638849381" lon="13.10625147208018"><ele>816.0</ele><time>2026-04-12T12:17:33Z</time></trkpt><trkpt lat="42.14689960749493" lon="13.106424623795448"><ele>815.25</ele><time>2026-04-12T12:17:34Z</time></trkpt><trkpt lat="42.146904287383585" lon="13.106578829071589"><ele>814.5</ele><time>2026-04-12T12:17:35Z</time></trkpt><trkpt lat="42.14692526881537" lon="13.106719663025276"><ele>813.75</ele><time>2026-04-12T12:17:36Z</time></trkpt><trkpt lat="42.14697271916474" lon="13.10685748254808"><ele>813.0</ele><time>2026-04-12T12:17:37Z</time></trkpt><trkpt lat="42.14705781775801" lon="13.106996477795443"><ele>813.0</ele><time>2026-04-12T12:17:38Z</time></trkpt><trkpt lat="42.14716799453737" lon="13.107133388240296"><ele>813.0</ele><time>2026-04-12T12:17:39Z</time></trkpt><trkpt lat="42.147298636168436" lon="13.107268360659864"><ele>813.0</ele><time>2026-04-12T12:17:40Z</time></trkpt><trkpt lat="42.14740744222331" lon="13.107427296849758"><ele>808.75</ele><time>2026-04-12T12:17:41Z</time></trkpt><trkpt lat="42.14750313224073" lon="13.10757131923094"><ele>804.5</ele><time>2026-04-12T12:17:42Z</time></trkpt><trkpt lat="42.14757372761129" lon="13.107723348079038"><ele>800.25</ele><time>2026-04-12T12:17:43Z</time></trkpt><trkpt lat="42.147635871972916" lon="13.107897376553538"><ele>796.0</ele><time>2026-04-12T12:17:44Z</time></trkpt><trkpt lat="42.14768868611911" lon="13.10810251751942"><ele>798.25</ele><time>2026-04-12T12:17:45Z</time></trkpt><trkpt lat="42.14774440915594" lon="13.108292983414223"><ele>800.5</ele><time>2026-04-12T12:17:46Z</time></trkpt><trkpt lat="42.147776235317494" lon="13.108454334877523"><ele>802.75</ele><time>2026-04-12T12:17:47Z</time></trkpt><trkpt lat="42.14782807338856" lon="13.108597728349704"><ele>805.0</ele><time>2026-04-12T12:17:48Z</time></trkpt><trkpt lat="42.14791254989079" lon="13.108733711788156"><ele>805.0</ele><time>2026-04-12T12:17:49Z</time></trkpt><trkpt lat="42.14803745281648" lon="13.108859263532286"><ele>805.0</ele><time>2026-04-12T12:17:50Z</time></trkpt><trkpt lat="42.14817669280265" lon="13.108977727889549"><ele>805.0</ele><time>2026-04-12T12:17:51Z</time></trkpt><trkpt lat="42.14832812609821" lon="13.109085798895654"><ele>801.3333333333333</ele><time>2026-04-12T12:17:52Z</time></trkpt><trkpt lat="42.14848802823844" lon="13.109179040947442"><ele>797.6666666666667</ele><time>2026-04-12T12:17:53Z</time></trkpt><trkpt lat="42.148653974448926" lon="13.10927674661234"><ele>794.0</ele><time>2026-04-12T12:17:54Z</time></trkpt><trkpt lat="42.148820964518364" lon="13.10936886624527"><ele>794.0</ele><time>2026-04-12T12:17:55Z</time></trkpt><trkpt lat="42.14898031693166" lon="13.109456122806767"><ele>794.0</ele><time>2026-04-12T12:17:56Z</time></trkpt><trkpt lat="42.149131232865486" lon="13.109530538975418"><ele>794.0</ele><time>2026-04-12T12:17:57Z</time></trkpt><trkpt lat="42.14927138720645" lon="13.109600529261183"><ele>794.5</ele><time>2026-04-12T12:17:58Z</time></trkpt><trkpt lat="42.14939887042528" lon="13.109676519909149"><ele>795.0</ele><time>2026-04-12T12:17:59Z</time></trkpt><trkpt lat="42.14948991985264" lon="13.109801904111341"><ele>795.5</ele><time>2026-04-12T12:18:00Z</time></trkpt><trkpt lat="42.149586112267315" lon="13.109938890729268"><ele>796.0</ele><time>2026-04-12T12:18:00.999Z</time></trkpt><trkpt lat="42.14967783562656" lon="13.110097066940163"><ele>796.0</ele><time>2026-04-12T12:18:01.999Z</time></trkpt><trkpt lat="42.149773323253875" lon="13.110262596963112"><ele>796.0</ele><time>2026-04-12T12:18:02.999Z</time></trkpt><trkpt lat="42.149872602204425" lon="13.110431682738815"><ele>796.0</ele><time>2026-04-12T12:18:03.999Z</time></trkpt><trkpt lat="42.14997423915479" lon="13.110601284850341"><ele>795.75</ele><time>2026-04-12T12:18:04.999Z</time></trkpt><trkpt lat="42.15007492898621" lon="13.11076123929534"><ele>795.5</ele><time>2026-04-12T12:18:05.999Z</time></trkpt><trkpt lat="42.15017341692509" lon="13.110912126578695"><ele>795.25</ele><time>2026-04-12T12:18:06.999Z</time></trkpt><trkpt lat="42.15026877907105" lon="13.111052526000838"><ele>795.0</ele><time>2026-04-12T12:18:07.999Z</time></trkpt><trkpt lat="42.15036151734961" lon="13.111191459055023"><ele>795.0</ele><time>2026-04-12T12:18:08.999Z</time></trkpt><trkpt lat="42.15042420444389" lon="13.111350693666141"><ele>795.0</ele><time>2026-04-12T12:18:09.999Z</time></trkpt><trkpt lat="42.15049981142436" lon="13.111490863649657"><ele>795.0</ele><time>2026-04-12T12:18:10.999Z</time></trkpt><trkpt lat="42.1505480896974" lon="13.111639267383737"><ele>795.0</ele><time>2026-04-12T12:18:11.999Z</time></trkpt><trkpt lat="42.150585908056875" lon="13.111779619919059"><ele>798.0</ele><time>2026-04-12T12:18:12.999Z</time></trkpt><trkpt lat="42.15059256675842" lon="13.111915392318448"><ele>801.0</ele><time>2026-04-12T12:18:13.999Z</time></trkpt><trkpt lat="42.150606734829694" lon="13.11203795847353"><ele>804.0</ele><time>2026-04-12T12:18:14.999Z</time></trkpt><trkpt lat="42.150600152300115" lon="13.112162988209004"><ele>807.0</ele><time>2026-04-12T12:18:15.999Z</time></trkpt><trkpt lat="42.150614559134105" lon="13.112304477972215"><ele>810.0</ele><time>2026-04-12T12:18:16.999Z</time></trkpt><trkpt lat="42.150605362117936" lon="13.112445823661803"><ele>809.4</ele><time>2026-04-12T12:18:17.999Z</time></trkpt><trkpt lat="42.15060646481163" lon="13.112595247186439"><ele>808.8</ele><time>2026-04-12T12:18:18.999Z</time></trkpt><trkpt lat="42.150633178966814" lon="13.11273835985912"><ele>808.2</ele><time>2026-04-12T12:18:19.999Z</time></trkpt><trkpt lat="42.15067488747547" lon="13.11287808996509"><ele>807.6</ele><time>2026-04-12T12:18:20.999Z</time></trkpt><trkpt lat="42.150725417293" lon="13.113010816945328"><ele>807.0</ele><time>2026-04-12T12:18:21.999Z</time></trkpt><trkpt lat="42.150749705678116" lon="13.113149059127878"><ele>807.3333333333334</ele><time>2026-04-12T12:18:22.999Z</time></trkpt><trkpt lat="42.15076040764347" lon="13.113290969779941"><ele>807.6666666666667</ele><time>2026-04-12T12:18:23.999Z</time></trkpt><trkpt lat="42.15074889774054" lon="13.113401589714934"><ele>808.0</ele><time>2026-04-12T12:18:24.999Z</time></trkpt><trkpt lat="42.1507160233321" lon="13.113498277456053"><ele>808.3333333333334</ele><time>2026-04-12T12:18:25.999Z</time></trkpt><trkpt lat="42.150723784628724" lon="13.113602617365494"><ele>808.6666666666667</ele><time>2026-04-12T12:18:26.999Z</time></trkpt><trkpt lat="42.15075710266786" lon="13.113707274087824"><ele>809.0</ele><time>2026-04-12T12:18:27.999Z</time></trkpt><trkpt lat="42.150786816366384" lon="13.113817233982791"><ele>809.0</ele><time>2026-04-12T12:18:28.999Z</time></trkpt><trkpt lat="42.150810844620445" lon="13.113929528914568"><ele>809.0</ele><time>2026-04-12T12:18:29.999Z</time></trkpt><trkpt lat="42.15079657100635" lon="13.114046233019758"><ele>809.0</ele><time>2026-04-12T12:18:30.999Z</time></trkpt><trkpt lat="42.15078652977885" lon="13.11418092256403"><ele>809.0</ele><time>2026-04-12T12:18:31.999Z</time></trkpt><trkpt lat="42.15077597457688" lon="13.114322506525829"><ele>809.0</ele><time>2026-04-12T12:18:32.999Z</time></trkpt><trkpt lat="42.15076847359428" lon="13.1144805048422"><ele>808.8000000000001</ele><time>2026-04-12T12:18:33.999Z</time></trkpt><trkpt lat="42.150758486561806" lon="13.11466598213797"><ele>808.6</ele><time>2026-04-12T12:18:34.999Z</time></trkpt><trkpt lat="42.15076320225811" lon="13.114839043774937"><ele>808.4</ele><time>2026-04-12T12:18:35.999Z</time></trkpt><trkpt lat="42.15072568062389" lon="13.114962450491896"><ele>808.2</ele><time>2026-04-12T12:18:36.999Z</time></trkpt><trkpt lat="42.15068139581565" lon="13.115048017204419"><ele>808.0</ele><time>2026-04-12T12:18:37.999Z</time></trkpt><trkpt lat="42.15069263387887" lon="13.115148953140178"><ele>808.4</ele><time>2026-04-12T12:18:38.999Z</time></trkpt><trkpt lat="42.150709319431506" lon="13.11524256275041"><ele>808.8</ele><time>2026-04-12T12:18:41.999Z</time></trkpt><trkpt lat="42.15080729658396" lon="13.115087163674287"><ele>809.2</ele><time>2026-04-12T12:18:45.999Z</time></trkpt><trkpt lat="42.15085887908037" lon="13.115014423664642"><ele>809.6</ele><time>2026-04-12T12:18:46.999Z</time></trkpt><trkpt lat="42.15094451000647" lon="13.114994597054464"><ele>810.0</ele><time>2026-04-12T12:18:47.999Z</time></trkpt><trkpt lat="42.15108005120889" lon="13.11501447298399"><ele>810.0</ele><time>2026-04-12T12:18:48.999Z</time></trkpt><trkpt lat="42.1512146227463" lon="13.115064659305974"><ele>810.0</ele><time>2026-04-12T12:18:49.999Z</time></trkpt><trkpt lat="42.1513679520379" lon="13.115106059496107"><ele>810.0</ele><time>2026-04-12T12:18:50.999Z</time></trkpt><trkpt lat="42.15150292783904" lon="13.115125169883989"><ele>810.0</ele><time>2026-04-12T12:18:51.999Z</time></trkpt><trkpt lat="42.151632189260674" lon="13.115123249599176"><ele>809.4</ele><time>2026-04-12T12:18:52.999Z</time></trkpt><trkpt lat="42.15175220514844" lon="13.115108204525098"><ele>808.8</ele><time>2026-04-12T12:18:53.999Z</time></trkpt><trkpt lat="42.151860376358194" lon="13.115080104881736"><ele>808.2</ele><time>2026-04-12T12:18:55.001Z</time></trkpt><trkpt lat="42.151958450859006" lon="13.11505170279608"><ele>807.6</ele><time>2026-04-12T12:18:56.001Z</time></trkpt><trkpt lat="42.15204888661137" lon="13.115019227132313"><ele>807.0</ele><time>2026-04-12T12:18:57.001Z</time></trkpt><trkpt lat="42.15212803164084" lon="13.114985064580512"><ele>807.0</ele><time>2026-04-12T12:18:58.001Z</time></trkpt><trkpt lat="42.15220065815825" lon="13.114953819679497"><ele>807.0</ele><time>2026-04-12T12:18:59.001Z</time></trkpt><trkpt lat="42.152268270231176" lon="13.114929493393555"><ele>807.0</ele><time>2026-04-12T12:19:00.001Z</time></trkpt><trkpt lat="42.15236282812344" lon="13.114927328460096"><ele>807.0</ele><time>2026-04-12T12:19:02.001Z</time></trkpt><trkpt lat="42.15243012647539" lon="13.115012153787392"><ele>807.0</ele><time>2026-04-12T12:19:04.001Z</time></trkpt><trkpt lat="42.152491427688254" lon="13.115039265504711"><ele>807.0</ele><time>2026-04-12T12:19:06.001Z</time></trkpt><trkpt lat="42.15246652220232" lon="13.11513053328066"><ele>807.0</ele><time>2026-04-12T12:19:29Z</time></trkpt><trkpt lat="42.152541829466855" lon="13.115109542835759"><ele>807.0</ele><time>2026-04-12T12:28:23Z</time></trkpt><trkpt lat="42.152600649098176" lon="13.115065905373632"><ele>807.0</ele><time>2026-04-12T12:28:30.999Z</time></trkpt><trkpt lat="42.152622487801736" lon="13.115145771630035"><ele>807.0</ele><time>2026-04-12T12:28:46.999Z</time></trkpt><trkpt lat="42.15262929123526" lon="13.115055338548693"><ele>807.0</ele><time>2026-04-12T12:32:38.999Z</time></trkpt><trkpt lat="42.15262613560467" lon="13.115148900247192"><ele>807.0</ele><time>2026-04-12T12:33:10.999Z</time></trkpt><trkpt lat="42.15274232089558" lon="13.115149729886028"><ele>807.0000000000001</ele><time>2026-04-12T13:55:13Z</time></trkpt><trkpt lat="42.15268441387756" lon="13.115105437372492"><ele>807.0</ele><time>2026-04-12T13:55:45.999Z</time></trkpt><trkpt lat="42.15261466193043" lon="13.115035117040202"><ele>807.0</ele><time>2026-04-12T14:00:54.998Z</time></trkpt><trkpt lat="42.152552392687035" lon="13.115068812212032"><ele>807.0</ele><time>2026-04-12T14:01:07Z</time></trkpt><trkpt lat="42.1524892534988" lon="13.115078121917398"><ele>807.0</ele><time>2026-04-12T14:01:15Z</time></trkpt><trkpt lat="42.152475250313934" lon="13.115166683633518"><ele>807.0000000000001</ele><time>2026-04-12T14:01:30Z</time></trkpt><trkpt lat="42.15249810601144" lon="13.115245912458342"><ele>807.0</ele><time>2026-04-12T14:01:38Z</time></trkpt><trkpt lat="42.15251506903557" lon="13.115160540777804"><ele>807.0000000000001</ele><time>2026-04-12T14:14:19Z</time></trkpt><trkpt lat="42.15245827403418" lon="13.115110656559962"><ele>807.0</ele><time>2026-04-12T14:16:39.999Z</time></trkpt><trkpt lat="42.15249059917476" lon="13.115203664534654"><ele>807.0</ele><time>2026-04-12T14:22:06Z</time></trkpt><trkpt lat="42.15252669467938" lon="13.115280697862637"><ele>807.0</ele><time>2026-04-12T14:26:24Z</time></trkpt><trkpt lat="42.15252149642598" lon="13.115194315222844"><ele>807.0</ele><time>2026-04-12T14:26:58Z</time></trkpt><trkpt lat="42.15249174929648" lon="13.11511890865211"><ele>807.0000000000001</ele><time>2026-04-12T14:27:03.999Z</time></trkpt><trkpt lat="42.152506289444865" lon="13.115217138769433"><ele>807.0</ele><time>2026-04-12T14:35:57.999Z</time></trkpt><trkpt lat="42.1525002067191" lon="13.115129825685473"><ele>807.0</ele><time>2026-04-12T14:41:27Z</time></trkpt><trkpt lat="42.152441697033375" lon="13.11505146968829"><ele>807.0</ele><time>2026-04-12T14:43:01Z</time></trkpt><trkpt lat="42.152403682838795" lon="13.114977004393966"><ele>807.0</ele><time>2026-04-12T14:43:03Z</time></trkpt><trkpt lat="42.152349470514224" lon="13.114910081824272"><ele>807.0</ele><time>2026-04-12T14:43:06Z</time></trkpt><trkpt lat="42.15227150416538" lon="13.114915960278156"><ele>807.0</ele><time>2026-04-12T14:43:09Z</time></trkpt><trkpt lat="42.15218961296951" lon="13.11496059441831"><ele>807.0</ele><time>2026-04-12T14:43:12Z</time></trkpt><trkpt lat="42.15211196690131" lon="13.114955437171357"><ele>807.0</ele><time>2026-04-12T14:43:15Z</time></trkpt><trkpt lat="42.15203343663115" lon="13.114982257317502"><ele>807.0</ele><time>2026-04-12T14:43:18Z</time></trkpt><trkpt lat="42.15194812625006" lon="13.11501504198222"><ele>807.0</ele><time>2026-04-12T14:44:34.999Z</time></trkpt><trkpt lat="42.15185599872956" lon="13.115055444023902"><ele>807.0</ele><time>2026-04-12T14:44:36.999Z</time></trkpt><trkpt lat="42.151789887821565" lon="13.11507311738836"><ele>807.0</ele><time>2026-04-12T14:44:37.999Z</time></trkpt><trkpt lat="42.15166324500611" lon="13.115092374838195"><ele>807.0000000000001</ele><time>2026-04-12T14:44:39.999Z</time></trkpt><trkpt lat="42.15159008011925" lon="13.115094178234664"><ele>807.0</ele><time>2026-04-12T14:44:40.998Z</time></trkpt><trkpt lat="42.15150773536202" lon="13.115097998167764"><ele>807.0</ele><time>2026-04-12T14:44:41.998Z</time></trkpt><trkpt lat="42.151427899907624" lon="13.115094166475735"><ele>807.0</ele><time>2026-04-12T14:44:42.998Z</time></trkpt><trkpt lat="42.15135605892679" lon="13.11507879912523"><ele>807.0</ele><time>2026-04-12T14:44:43.998Z</time></trkpt><trkpt lat="42.15128618879764" lon="13.115066127677254"><ele>807.0000000000001</ele><time>2026-04-12T14:44:44.998Z</time></trkpt><trkpt lat="42.151223263407694" lon="13.115044850209587"><ele>807.0</ele><time>2026-04-12T14:44:45.998Z</time></trkpt><trkpt lat="42.15115508111247" lon="13.115024487890851"><ele>807.6</ele><time>2026-04-12T14:44:46.998Z</time></trkpt><trkpt lat="42.15109522325772" lon="13.114997512296549"><ele>808.2</ele><time>2026-04-12T14:44:47.998Z</time></trkpt><trkpt lat="42.150970919332316" lon="13.114972052735412"><ele>808.8</ele><time>2026-04-12T14:44:49.998Z</time></trkpt><trkpt lat="42.1509076379639" lon="13.114976235618542"><ele>809.4</ele><time>2026-04-12T14:44:50.998Z</time></trkpt><trkpt lat="42.1507900118759" lon="13.115027907879941"><ele>810.0</ele><time>2026-04-12T14:44:52.998Z</time></trkpt><trkpt lat="42.15073027337652" lon="13.115140732512572"><ele>810.0</ele><time>2026-04-12T14:44:54.998Z</time></trkpt><trkpt lat="42.150695754186884" lon="13.115235634926039"><ele>810.0</ele><time>2026-04-12T14:44:56.998Z</time></trkpt><trkpt lat="42.15065306457614" lon="13.11515576112133"><ele>810.0</ele><time>2026-04-12T14:45:00Z</time></trkpt><trkpt lat="42.15070605229815" lon="13.115083466525197"><ele>810.0</ele><time>2026-04-12T14:45:02Z</time></trkpt><trkpt lat="42.15075329849534" lon="13.11494796665342"><ele>810.0</ele><time>2026-04-12T14:45:05Z</time></trkpt><trkpt lat="42.15077112282289" lon="13.114839646293587"><ele>810.0</ele><time>2026-04-12T14:45:06Z</time></trkpt><trkpt lat="42.15077225022945" lon="13.11473442293758"><ele>809.6666666666666</ele><time>2026-04-12T14:45:07Z</time></trkpt><trkpt lat="42.15077430870472" lon="13.114626067413719"><ele>809.3333333333333</ele><time>2026-04-12T14:45:08Z</time></trkpt><trkpt lat="42.15078361106764" lon="13.114506531546022"><ele>809.0</ele><time>2026-04-12T14:45:09Z</time></trkpt><trkpt lat="42.15079404109367" lon="13.114394374191216"><ele>808.6666666666666</ele><time>2026-04-12T14:45:10Z</time></trkpt><trkpt lat="42.15080304693635" lon="13.11428410391706"><ele>808.3333333333333</ele><time>2026-04-12T14:45:11Z</time></trkpt><trkpt lat="42.150811745604415" lon="13.114175967162165"><ele>808.0</ele><time>2026-04-12T14:45:12Z</time></trkpt><trkpt lat="42.150825289302546" lon="13.114072713672368"><ele>808.2</ele><time>2026-04-12T14:45:13Z</time></trkpt><trkpt lat="42.150832245224706" lon="13.113978248176647"><ele>808.4</ele><time>2026-04-12T14:45:14Z</time></trkpt><trkpt lat="42.150831875735214" lon="13.11389183685037"><ele>808.6</ele><time>2026-04-12T14:45:15Z</time></trkpt><trkpt lat="42.15083735314456" lon="13.113722010860181"><ele>808.8000000000001</ele><time>2026-04-12T14:45:17Z</time></trkpt><trkpt lat="42.1507816777023" lon="13.11363843664407"><ele>809.0</ele><time>2026-04-12T14:45:18Z</time></trkpt><trkpt lat="42.150745045036835" lon="13.113477800309626"><ele>809.0</ele><time>2026-04-12T14:45:20Z</time></trkpt><trkpt lat="42.15079209504578" lon="13.113333300230265"><ele>809.0</ele><time>2026-04-12T14:45:22Z</time></trkpt><trkpt lat="42.15080060252274" lon="13.113232494665208"><ele>809.0</ele><time>2026-04-12T14:45:23Z</time></trkpt><trkpt lat="42.15080134457275" lon="13.113123274714361"><ele>809.0</ele><time>2026-04-12T14:45:24Z</time></trkpt><trkpt lat="42.15078105903341" lon="13.113007096755345"><ele>809.0</ele><time>2026-04-12T14:45:25Z</time></trkpt><trkpt lat="42.15075091381835" lon="13.112895572487206"><ele>809.1666666666667</ele><time>2026-04-12T14:45:26Z</time></trkpt><trkpt lat="42.15071430927553" lon="13.112794486997446"><ele>809.3333333333334</ele><time>2026-04-12T14:45:27Z</time></trkpt><trkpt lat="42.15066793226289" lon="13.112696207804492"><ele>809.5</ele><time>2026-04-12T14:45:28Z</time></trkpt><trkpt lat="42.150646624047155" lon="13.112593614768201"><ele>809.6666666666667</ele><time>2026-04-12T14:45:29Z</time></trkpt><trkpt lat="42.150639886144624" lon="13.112490275191139"><ele>809.8333333333334</ele><time>2026-04-12T14:45:30Z</time></trkpt><trkpt lat="42.15064555451577" lon="13.11238759495498"><ele>810.0</ele><time>2026-04-12T14:45:31Z</time></trkpt><trkpt lat="42.150660850592736" lon="13.11227591519443"><ele>810.0</ele><time>2026-04-12T14:45:32Z</time></trkpt><trkpt lat="42.1506674534979" lon="13.112164054464376"><ele>810.0</ele><time>2026-04-12T14:45:33Z</time></trkpt><trkpt lat="42.15067085235165" lon="13.112051813413919"><ele>810.0</ele><time>2026-04-12T14:45:34Z</time></trkpt><trkpt lat="42.150667575985615" lon="13.111932175614399"><ele>810.0</ele><time>2026-04-12T14:45:35Z</time></trkpt><trkpt lat="42.15064872698176" lon="13.11182045657261"><ele>810.0</ele><time>2026-04-12T14:45:36Z</time></trkpt><trkpt lat="42.15063060420864" lon="13.111716717174971"><ele>810.0</ele><time>2026-04-12T14:45:37Z</time></trkpt><trkpt lat="42.150604819903236" lon="13.111622265348881"><ele>807.5</ele><time>2026-04-12T14:45:38Z</time></trkpt><trkpt lat="42.15056306017872" lon="13.111536361261138"><ele>805.0</ele><time>2026-04-12T14:45:39Z</time></trkpt><trkpt lat="42.15051977628751" lon="13.111438494832584"><ele>802.5</ele><time>2026-04-12T14:45:40Z</time></trkpt><trkpt lat="42.15047831302541" lon="13.111338712603759"><ele>800.0</ele><time>2026-04-12T14:45:41Z</time></trkpt><trkpt lat="42.15042740006309" lon="13.11123820486791"><ele>797.5</ele><time>2026-04-12T14:45:42Z</time></trkpt><trkpt lat="42.15036742430237" lon="13.111141541797128"><ele>795.0</ele><time>2026-04-12T14:45:43Z</time></trkpt><trkpt lat="42.1503033176179" lon="13.111046334575025"><ele>795.0</ele><time>2026-04-12T14:45:44Z</time></trkpt><trkpt lat="42.15023599398979" lon="13.11094609391651"><ele>795.0</ele><time>2026-04-12T14:45:45Z</time></trkpt><trkpt lat="42.15016465534252" lon="13.110844363054484"><ele>795.0</ele><time>2026-04-12T14:45:46Z</time></trkpt><trkpt lat="42.15009627344445" lon="13.11073277022141"><ele>795.0</ele><time>2026-04-12T14:45:47Z</time></trkpt><trkpt lat="42.1500284784215" lon="13.11061796835227"><ele>795.0</ele><time>2026-04-12T14:45:48Z</time></trkpt><trkpt lat="42.14995821418547" lon="13.110502639827617"><ele>795.2</ele><time>2026-04-12T14:45:49Z</time></trkpt><trkpt lat="42.1498861055772" lon="13.110388070348401"><ele>795.4</ele><time>2026-04-12T14:45:50Z</time></trkpt><trkpt lat="42.14981665047703" lon="13.110270955249941"><ele>795.5999999999999</ele><time>2026-04-12T14:45:51Z</time></trkpt><trkpt lat="42.14974895812979" lon="13.11015269823009"><ele>795.8</ele><time>2026-04-12T14:45:51.999Z</time></trkpt><trkpt lat="42.149683044940424" lon="13.110034118562764"><ele>796.0</ele><time>2026-04-12T14:45:52.999Z</time></trkpt><trkpt lat="42.14961359225631" lon="13.109922056866358"><ele>794.0</ele><time>2026-04-12T14:45:53.999Z</time></trkpt><trkpt lat="42.14954527697097" lon="13.109812224625975"><ele>792.0</ele><time>2026-04-12T14:45:54.999Z</time></trkpt><trkpt lat="42.14947048113177" lon="13.109707088063393"><ele>790.0</ele><time>2026-04-12T14:45:55.999Z</time></trkpt><trkpt lat="42.149392208379346" lon="13.109631243867481"><ele>788.0</ele><time>2026-04-12T14:45:56.999Z</time></trkpt><trkpt lat="42.14930502262422" lon="13.109572352060592"><ele>786.0</ele><time>2026-04-12T14:45:57.999Z</time></trkpt><trkpt lat="42.149208897614635" lon="13.10952719050753"><ele>786.0</ele><time>2026-04-12T14:45:58.999Z</time></trkpt><trkpt lat="42.14911471853548" lon="13.10949011927604"><ele>786.0</ele><time>2026-04-12T14:45:59.999Z</time></trkpt><trkpt lat="42.14902149437081" lon="13.109447681070655"><ele>786.0</ele><time>2026-04-12T14:46:00.999Z</time></trkpt><trkpt lat="42.14893050995329" lon="13.109397002180266"><ele>786.0</ele><time>2026-04-12T14:46:01.999Z</time></trkpt><trkpt lat="42.1488328486495" lon="13.109343242306494"><ele>786.0</ele><time>2026-04-12T14:46:02.999Z</time></trkpt><trkpt lat="42.148732743229374" lon="13.109286480620925"><ele>785.4</ele><time>2026-04-12T14:46:03.999Z</time></trkpt><trkpt lat="42.14863146419127" lon="13.109223926794806"><ele>784.8</ele><time>2026-04-12T14:46:04.999Z</time></trkpt><trkpt lat="42.14852976292014" lon="13.109159658250789"><ele>784.1999999999999</ele><time>2026-04-12T14:46:05.999Z</time></trkpt><trkpt lat="42.14842569574015" lon="13.109099713125278"><ele>783.5999999999999</ele><time>2026-04-12T14:46:06.999Z</time></trkpt><trkpt lat="42.148323747932196" lon="13.109035502487904"><ele>783.0</ele><time>2026-04-12T14:46:07.999Z</time></trkpt><trkpt lat="42.148224595531254" lon="13.108963342198184"><ele>787.4</ele><time>2026-04-12T14:46:08.999Z</time></trkpt><trkpt lat="42.14812940181905" lon="13.108883564322182"><ele>791.8</ele><time>2026-04-12T14:46:09.999Z</time></trkpt><trkpt lat="42.14803758236945" lon="13.10879473659564"><ele>796.2</ele><time>2026-04-12T14:46:10.999Z</time></trkpt><trkpt lat="42.147947839308245" lon="13.108698882472996"><ele>800.6</ele><time>2026-04-12T14:46:11.999Z</time></trkpt><trkpt lat="42.1478695918386" lon="13.108600394321575"><ele>805.0</ele><time>2026-04-12T14:46:12.999Z</time></trkpt><trkpt lat="42.14781260788757" lon="13.108486840113825"><ele>805.0</ele><time>2026-04-12T14:46:13.999Z</time></trkpt><trkpt lat="42.14777249508621" lon="13.10836260734257"><ele>805.0</ele><time>2026-04-12T14:46:14.999Z</time></trkpt><trkpt lat="42.14774754166188" lon="13.108224405194195"><ele>805.0</ele><time>2026-04-12T14:46:15.999Z</time></trkpt><trkpt lat="42.14772353359107" lon="13.108082516627599"><ele>805.0</ele><time>2026-04-12T14:46:16.999Z</time></trkpt><trkpt lat="42.147695136366515" lon="13.107938503142776"><ele>805.0</ele><time>2026-04-12T14:46:17.999Z</time></trkpt><trkpt lat="42.14765928649807" lon="13.10779691744964"><ele>806.6</ele><time>2026-04-12T14:46:18.999Z</time></trkpt><trkpt lat="42.14761943077085" lon="13.107665039852824"><ele>808.2</ele><time>2026-04-12T14:46:19.999Z</time></trkpt><trkpt lat="42.14755775793893" lon="13.10754808517454"><ele>809.8</ele><time>2026-04-12T14:46:20.999Z</time></trkpt><trkpt lat="42.147488038725236" lon="13.107446064894875"><ele>811.4</ele><time>2026-04-12T14:46:21.999Z</time></trkpt><trkpt lat="42.14741498194224" lon="13.107347993234757"><ele>813.0</ele><time>2026-04-12T14:46:22.999Z</time></trkpt><trkpt lat="42.147340061346064" lon="13.107252514337292"><ele>813.0</ele><time>2026-04-12T14:46:23.999Z</time></trkpt><trkpt lat="42.14725985829476" lon="13.10716603612882"><ele>813.0</ele><time>2026-04-12T14:46:24.999Z</time></trkpt><trkpt lat="42.147182250371614" lon="13.107087442452896"><ele>813.0</ele><time>2026-04-12T14:46:25.999Z</time></trkpt><trkpt lat="42.14710760554302" lon="13.107001295214861"><ele>813.0</ele><time>2026-04-12T14:46:26.999Z</time></trkpt><trkpt lat="42.147036362524034" lon="13.10690913171579"><ele>813.0</ele><time>2026-04-12T14:46:27.999Z</time></trkpt><trkpt lat="42.14697771891801" lon="13.106797872930345"><ele>813.0</ele><time>2026-04-12T14:46:28.999Z</time></trkpt><trkpt lat="42.1469384016138" lon="13.106672001570775"><ele>813.0</ele><time>2026-04-12T14:46:29.999Z</time></trkpt><trkpt lat="42.146937421379576" lon="13.106532702527357"><ele>813.0</ele><time>2026-04-12T14:46:30.999Z</time></trkpt><trkpt lat="42.14691966691993" lon="13.10640516215823"><ele>813.0</ele><time>2026-04-12T14:46:31.999Z</time></trkpt><trkpt lat="42.146940714160465" lon="13.106273795114488"><ele>813.0</ele><time>2026-04-12T14:46:32.999Z</time></trkpt><trkpt lat="42.14695360363101" lon="13.106139657906226"><ele>813.5999999999999</ele><time>2026-04-12T14:46:33.999Z</time></trkpt><trkpt lat="42.14696423393864" lon="13.106007007816379"><ele>814.1999999999999</ele><time>2026-04-12T14:46:34.999Z</time></trkpt><trkpt lat="42.1469851120916" lon="13.1058797899144"><ele>814.8</ele><time>2026-04-12T14:46:35.999Z</time></trkpt><trkpt lat="42.14695543526301" lon="13.105748767930605"><ele>815.4</ele><time>2026-04-12T14:46:36.999Z</time></trkpt><trkpt lat="42.1469309204709" lon="13.10562228037084"><ele>816.0</ele><time>2026-04-12T14:46:37.999Z</time></trkpt><trkpt lat="42.14687514415577" lon="13.105503380466892"><ele>814.1999999999999</ele><time>2026-04-12T14:46:38.999Z</time></trkpt><trkpt lat="42.14679920112911" lon="13.105389511432865"><ele>812.4</ele><time>2026-04-12T14:46:39.999Z</time></trkpt><trkpt lat="42.14670683744085" lon="13.1052840087827"><ele>810.6</ele><time>2026-04-12T14:46:40.999Z</time></trkpt><trkpt lat="42.14662590838597" lon="13.1051973641941"><ele>808.8</ele><time>2026-04-12T14:46:41.999Z</time></trkpt><trkpt lat="42.14655916157958" lon="13.105098156670012"><ele>807.0</ele><time>2026-04-12T14:46:42.999Z</time></trkpt><trkpt lat="42.146513748894996" lon="13.104977215828006"><ele>809.8</ele><time>2026-04-12T14:46:43.999Z</time></trkpt><trkpt lat="42.14648109400712" lon="13.10483732614826"><ele>812.6</ele><time>2026-04-12T14:46:44.999Z</time></trkpt><trkpt lat="42.14646382841087" lon="13.10468043231717"><ele>815.4</ele><time>2026-04-12T14:46:45.998Z</time></trkpt><trkpt lat="42.14645305911006" lon="13.104523611265726"><ele>818.1999999999999</ele><time>2026-04-12T14:46:46.998Z</time></trkpt><trkpt lat="42.146434231968385" lon="13.104383804323367"><ele>821.0</ele><time>2026-04-12T14:46:47.998Z</time></trkpt><trkpt lat="42.146400380929066" lon="13.104258010192824"><ele>821.0</ele><time>2026-04-12T14:46:48.998Z</time></trkpt><trkpt lat="42.146337407277244" lon="13.10415698003424"><ele>821.0</ele><time>2026-04-12T14:46:49.998Z</time></trkpt><trkpt lat="42.14624677167861" lon="13.1040689837869"><ele>821.0</ele><time>2026-04-12T14:46:50.998Z</time></trkpt><trkpt lat="42.14611747579766" lon="13.10399582794603"><ele>821.0</ele><time>2026-04-12T14:46:51.998Z</time></trkpt><trkpt lat="42.14597689217627" lon="13.103924442696517"><ele>819.4</ele><time>2026-04-12T14:46:52.998Z</time></trkpt><trkpt lat="42.14584807806955" lon="13.10387085020724"><ele>817.8</ele><time>2026-04-12T14:46:53.998Z</time></trkpt><trkpt lat="42.14574574578867" lon="13.103831630924118"><ele>816.1999999999999</ele><time>2026-04-12T14:46:54.998Z</time></trkpt><trkpt lat="42.14568374948369" lon="13.103754442547153"><ele>814.5999999999999</ele><time>2026-04-12T14:46:55.998Z</time></trkpt><trkpt lat="42.14563528374223" lon="13.103697606652174"><ele>813.0</ele><time>2026-04-12T14:46:56.998Z</time></trkpt><trkpt lat="42.14559227188637" lon="13.103539551218686"><ele>813.0</ele><time>2026-04-12T14:46:58.998Z</time></trkpt><trkpt lat="42.14560386021248" lon="13.103422866295384"><ele>813.0</ele><time>2026-04-12T14:46:59.998Z</time></trkpt><trkpt lat="42.14561131004646" lon="13.103291716631624"><ele>813.0</ele><time>2026-04-12T14:47:00.998Z</time></trkpt><trkpt lat="42.14563614005604" lon="13.103150871095709"><ele>813.0</ele><time>2026-04-12T14:47:01.998Z</time></trkpt><trkpt lat="42.14562418555899" lon="13.10302921700238"><ele>813.0</ele><time>2026-04-12T14:47:02.998Z</time></trkpt><trkpt lat="42.14556578115318" lon="13.102926074198729"><ele>807.0</ele><time>2026-04-12T14:47:04Z</time></trkpt><trkpt lat="42.145460318291335" lon="13.102836060911647"><ele>801.0</ele><time>2026-04-12T14:47:05Z</time></trkpt><trkpt lat="42.145382325860915" lon="13.102696410855922"><ele>795.0</ele><time>2026-04-12T14:47:06Z</time></trkpt><trkpt lat="42.145304129233075" lon="13.10256079519216"><ele>789.0</ele><time>2026-04-12T14:47:07Z</time></trkpt><trkpt lat="42.14523816051965" lon="13.102443903155477"><ele>783.2</ele><time>2026-04-12T14:47:08Z</time></trkpt><trkpt lat="42.145197761773126" lon="13.102319348602299"><ele>777.4000000000001</ele><time>2026-04-12T14:47:09Z</time></trkpt><trkpt lat="42.14512145694877" lon="13.102231421265726"><ele>771.6</ele><time>2026-04-12T14:47:10Z</time></trkpt><trkpt lat="42.14502376634822" lon="13.102183753521869"><ele>765.8</ele><time>2026-04-12T14:47:11Z</time></trkpt><trkpt lat="42.1449157594268" lon="13.102178359405602"><ele>760.0</ele><time>2026-04-12T14:47:12Z</time></trkpt><trkpt lat="42.14480507211277" lon="13.102222533275073"><ele>762.25</ele><time>2026-04-12T14:47:13Z</time></trkpt><trkpt lat="42.14469836477354" lon="13.10230287887935"><ele>764.5</ele><time>2026-04-12T14:47:14Z</time></trkpt><trkpt lat="42.144603687023505" lon="13.10242273856"><ele>766.75</ele><time>2026-04-12T14:47:15Z</time></trkpt><trkpt lat="42.144518425931565" lon="13.102570352202141"><ele>769.0</ele><time>2026-04-12T14:47:16Z</time></trkpt><trkpt lat="42.14444705085828" lon="13.102718919107238"><ele>769.0</ele><time>2026-04-12T14:47:17Z</time></trkpt><trkpt lat="42.14437099165188" lon="13.102829151243387"><ele>769.0</ele><time>2026-04-12T14:47:18Z</time></trkpt><trkpt lat="42.14430591861911" lon="13.102915676248191"><ele>769.0</ele><time>2026-04-12T14:47:19Z</time></trkpt><trkpt lat="42.14422479112611" lon="13.10296725305837"><ele>769.0</ele><time>2026-04-12T14:47:20Z</time></trkpt><trkpt lat="42.144124741910254" lon="13.10300293130596"><ele>769.0</ele><time>2026-04-12T14:47:21Z</time></trkpt><trkpt lat="42.143998336921676" lon="13.102998016658606"><ele>768.25</ele><time>2026-04-12T14:47:22Z</time></trkpt><trkpt lat="42.143860521318345" lon="13.102989822917852"><ele>767.5</ele><time>2026-04-12T14:47:23Z</time></trkpt><trkpt lat="42.14373235425225" lon="13.102964418079615"><ele>766.75</ele><time>2026-04-12T14:47:24Z</time></trkpt><trkpt lat="42.14361489342334" lon="13.10293790290765"><ele>766.0</ele><time>2026-04-12T14:47:25Z</time></trkpt><trkpt lat="42.14351304289805" lon="13.102907545515547"><ele>766.0</ele><time>2026-04-12T14:47:26Z</time></trkpt><trkpt lat="42.14343713698839" lon="13.102843538837986"><ele>766.0</ele><time>2026-04-12T14:47:27Z</time></trkpt><trkpt lat="42.143394546947995" lon="13.102716677479018"><ele>766.0</ele><time>2026-04-12T14:47:28Z</time></trkpt><trkpt lat="42.14332757574938" lon="13.102624132974967"><ele>766.0</ele><time>2026-04-12T14:47:29Z</time></trkpt><trkpt lat="42.143235897882455" lon="13.10255295562511"><ele>766.0</ele><time>2026-04-12T14:47:30Z</time></trkpt><trkpt lat="42.143105662805915" lon="13.102511465060669"><ele>765.3333333333334</ele><time>2026-04-12T14:47:31Z</time></trkpt><trkpt lat="42.143015064315826" lon="13.102498283162742"><ele>764.6666666666667</ele><time>2026-04-12T14:47:32Z</time></trkpt><trkpt lat="42.14295104633427" lon="13.102485573479406"><ele>764.0</ele><time>2026-04-12T14:47:33Z</time></trkpt><trkpt lat="42.142871515646725" lon="13.102469499894134"><ele>763.3333333333334</ele><time>2026-04-12T14:47:42Z</time></trkpt><trkpt lat="42.14283755771739" lon="13.102385467588926"><ele>762.6666666666666</ele><time>2026-04-12T14:47:43Z</time></trkpt><trkpt lat="42.142785920711894" lon="13.102282318447331"><ele>762.0</ele><time>2026-04-12T14:47:44Z</time></trkpt><trkpt lat="42.142716889380154" lon="13.102177190796379"><ele>758.2</ele><time>2026-04-12T14:47:45Z</time></trkpt><trkpt lat="42.14265621088097" lon="13.102050868864628"><ele>754.4000000000001</ele><time>2026-04-12T14:47:46Z</time></trkpt><trkpt lat="42.14259103800443" lon="13.10194199838417"><ele>750.5999999999999</ele><time>2026-04-12T14:47:47Z</time></trkpt><trkpt lat="42.142521920164974" lon="13.101848219069703"><ele>746.8</ele><time>2026-04-12T14:47:48Z</time></trkpt><trkpt lat="42.14245275167358" lon="13.101775291414643"><ele>743.0</ele><time>2026-04-12T14:47:49Z</time></trkpt><trkpt lat="42.142367323427514" lon="13.10174653900613"><ele>740.5</ele><time>2026-04-12T14:47:50Z</time></trkpt><trkpt lat="42.14228356128004" lon="13.101753247901165"><ele>738.0</ele><time>2026-04-12T14:47:51Z</time></trkpt><trkpt lat="42.1422106427925" lon="13.10182078885443"><ele>735.5</ele><time>2026-04-12T14:47:52Z</time></trkpt><trkpt lat="42.142167659688624" lon="13.101914015869141"><ele>733.0</ele><time>2026-04-12T14:47:53Z</time></trkpt><trkpt lat="42.142160469201556" lon="13.102035872918815"><ele>730.5</ele><time>2026-04-12T14:47:54Z</time></trkpt><trkpt lat="42.14217490097542" lon="13.102159819461855"><ele>728.0</ele><time>2026-04-12T14:47:55Z</time></trkpt><trkpt lat="42.142184288985725" lon="13.102296750043847"><ele>730.4</ele><time>2026-04-12T14:47:56Z</time></trkpt><trkpt lat="42.14218838944813" lon="13.102435039421994"><ele>732.8</ele><time>2026-04-12T14:47:57Z</time></trkpt><trkpt lat="42.142197242613236" lon="13.102585176420531"><ele>735.2</ele><time>2026-04-12T14:47:58Z</time></trkpt><trkpt lat="42.14221207777982" lon="13.102738799760013"><ele>737.6</ele><time>2026-04-12T14:47:58.999Z</time></trkpt><trkpt lat="42.142218544987784" lon="13.10288559495146"><ele>740.0</ele><time>2026-04-12T14:47:59.999Z</time></trkpt><trkpt lat="42.142219610980895" lon="13.103035861030413"><ele>740.0</ele><time>2026-04-12T14:48:00.999Z</time></trkpt><trkpt lat="42.142235677923544" lon="13.10316797545702"><ele>740.0</ele><time>2026-04-12T14:48:01.999Z</time></trkpt><trkpt lat="42.14221376198262" lon="13.103283841743806"><ele>740.0</ele><time>2026-04-12T14:48:02.999Z</time></trkpt><trkpt lat="42.14218368490542" lon="13.103360669418146"><ele>740.0</ele><time>2026-04-12T14:48:03.999Z</time></trkpt><trkpt lat="42.14207668896723" lon="13.103401546401939"><ele>740.0</ele><time>2026-04-12T14:48:05.999Z</time></trkpt><trkpt lat="42.142011855618804" lon="13.10333142662704"><ele>740.0</ele><time>2026-04-12T14:48:06.999Z</time></trkpt><trkpt lat="42.141945650631556" lon="13.103212909639595"><ele>740.0</ele><time>2026-04-12T14:48:07.999Z</time></trkpt><trkpt lat="42.14186899288622" lon="13.103072455563858"><ele>740.0</ele><time>2026-04-12T14:48:08.999Z</time></trkpt><trkpt lat="42.14177630532232" lon="13.102944779511105"><ele>740.0</ele><time>2026-04-12T14:48:09.999Z</time></trkpt><trkpt lat="42.141670219920094" lon="13.10281517196556"><ele>740.0</ele><time>2026-04-12T14:48:10.999Z</time></trkpt><trkpt lat="42.14155484535702" lon="13.10261427624442"><ele>743.75</ele><time>2026-04-12T14:48:11.999Z</time></trkpt><trkpt lat="42.14144873760035" lon="13.102495805402562"><ele>747.5</ele><time>2026-04-12T14:48:12.999Z</time></trkpt><trkpt lat="42.141335675341324" lon="13.102392794195897"><ele>751.25</ele><time>2026-04-12T14:48:13.999Z</time></trkpt><trkpt lat="42.14122593530383" lon="13.102299272254418"><ele>755.0</ele><time>2026-04-12T14:48:14.999Z</time></trkpt><trkpt lat="42.14113620976781" lon="13.102178725029946"><ele>747.0</ele><time>2026-04-12T14:48:15.999Z</time></trkpt><trkpt lat="42.14107877602167" lon="13.102021125361048"><ele>739.0</ele><time>2026-04-12T14:48:16.999Z</time></trkpt><trkpt lat="42.14102738563679" lon="13.101853763442737"><ele>731.0</ele><time>2026-04-12T14:48:17.999Z</time></trkpt><trkpt lat="42.14096379332026" lon="13.101701896742185"><ele>723.0</ele><time>2026-04-12T14:48:18.999Z</time></trkpt><trkpt lat="42.140880970993145" lon="13.101565362086234"><ele>717.5</ele><time>2026-04-12T14:48:19.999Z</time></trkpt><trkpt lat="42.14078090997927" lon="13.101454377058394"><ele>712.0</ele><time>2026-04-12T14:48:20.999Z</time></trkpt><trkpt lat="42.140679646720294" lon="13.101354349635354"><ele>706.5</ele><time>2026-04-12T14:48:21.999Z</time></trkpt><trkpt lat="42.14057571737334" lon="13.101265002997714"><ele>701.0</ele><time>2026-04-12T14:48:22.999Z</time></trkpt><trkpt lat="42.14046753519646" lon="13.101196278591642"><ele>698.5</ele><time>2026-04-12T14:48:23.999Z</time></trkpt><trkpt lat="42.14035212172813" lon="13.101166561606611"><ele>696.0</ele><time>2026-04-12T14:48:24.999Z</time></trkpt><trkpt lat="42.14022198391286" lon="13.101186906820272"><ele>693.5</ele><time>2026-04-12T14:48:25.999Z</time></trkpt><trkpt lat="42.14009173610574" lon="13.101245934650256"><ele>691.0</ele><time>2026-04-12T14:48:26.999Z</time></trkpt><trkpt lat="42.13995671458713" lon="13.101307270565968"><ele>687.25</ele><time>2026-04-12T14:48:27.999Z</time></trkpt><trkpt lat="42.13981955465329" lon="13.101366138541032"><ele>683.5</ele><time>2026-04-12T14:48:28.999Z</time></trkpt><trkpt lat="42.139681133490456" lon="13.101433250041026"><ele>679.75</ele><time>2026-04-12T14:48:29.999Z</time></trkpt><trkpt lat="42.13954407962597" lon="13.101507727657559"><ele>676.0</ele><time>2026-04-12T14:48:30.999Z</time></trkpt><trkpt lat="42.13940788998938" lon="13.101577287386293"><ele>677.5</ele><time>2026-04-12T14:48:31.999Z</time></trkpt><trkpt lat="42.13927211743718" lon="13.101640694708813"><ele>679.0</ele><time>2026-04-12T14:48:32.999Z</time></trkpt><trkpt lat="42.139135530211625" lon="13.101701951899923"><ele>680.5</ele><time>2026-04-12T14:48:33.999Z</time></trkpt><trkpt lat="42.13899893126211" lon="13.101760419145334"><ele>682.0</ele><time>2026-04-12T14:48:34.999Z</time></trkpt><trkpt lat="42.1388602407949" lon="13.101807748307142"><ele>682.0</ele><time>2026-04-12T14:48:35.999Z</time></trkpt><trkpt lat="42.13872180678044" lon="13.101849188003436"><ele>682.0</ele><time>2026-04-12T14:48:36.999Z</time></trkpt><trkpt lat="42.13858742439037" lon="13.101892235874956"><ele>682.0</ele><time>2026-04-12T14:48:37.999Z</time></trkpt><trkpt lat="42.13845140024236" lon="13.101943296014886"><ele>682.0</ele><time>2026-04-12T14:48:38.999Z</time></trkpt><trkpt lat="42.1383238988215" lon="13.10201158468853"><ele>678.25</ele><time>2026-04-12T14:48:39.999Z</time></trkpt><trkpt lat="42.138199889157896" lon="13.102090139779918"><ele>674.5</ele><time>2026-04-12T14:48:40.999Z</time></trkpt><trkpt lat="42.1380810500495" lon="13.102174328514877"><ele>670.75</ele><time>2026-04-12T14:48:41.999Z</time></trkpt><trkpt lat="42.13796835574723" lon="13.102253584096902"><ele>667.0</ele><time>2026-04-12T14:48:42.999Z</time></trkpt><trkpt lat="42.137851461585925" lon="13.102315719286212"><ele>667.0</ele><time>2026-04-12T14:48:43.999Z</time></trkpt><trkpt lat="42.13772659873526" lon="13.102353512057423"><ele>667.0</ele><time>2026-04-12T14:48:44.999Z</time></trkpt><trkpt lat="42.13759788626311" lon="13.102370395615637"><ele>667.0</ele><time>2026-04-12T14:48:45.999Z</time></trkpt><trkpt lat="42.13746728771189" lon="13.102366100367217"><ele>667.0</ele><time>2026-04-12T14:48:46.999Z</time></trkpt><trkpt lat="42.13733803534879" lon="13.102337618852594"><ele>666.25</ele><time>2026-04-12T14:48:47.999Z</time></trkpt><trkpt lat="42.13721119017442" lon="13.102306257788344"><ele>665.5</ele><time>2026-04-12T14:48:48.999Z</time></trkpt><trkpt lat="42.137081169494515" lon="13.102270731992617"><ele>664.75</ele><time>2026-04-12T14:48:49.999Z</time></trkpt><trkpt lat="42.136951596139504" lon="13.102246864105563"><ele>664.0</ele><time>2026-04-12T14:48:50.999Z</time></trkpt><trkpt lat="42.13682097076282" lon="13.102233037978129"><ele>664.0</ele><time>2026-04-12T14:48:51.999Z</time></trkpt><trkpt lat="42.136690650595405" lon="13.102245900782558"><ele>664.0</ele><time>2026-04-12T14:48:52.998Z</time></trkpt><trkpt lat="42.1365589312945" lon="13.102276231752734"><ele>664.0</ele><time>2026-04-12T14:48:53.998Z</time></trkpt><trkpt lat="42.136427897463854" lon="13.102308941990671"><ele>664.0</ele><time>2026-04-12T14:48:54.998Z</time></trkpt><trkpt lat="42.13629563667472" lon="13.102343881058605"><ele>663.5</ele><time>2026-04-12T14:48:55.998Z</time></trkpt><trkpt lat="42.13617138698135" lon="13.102378876763833"><ele>663.0</ele><time>2026-04-12T14:48:56.998Z</time></trkpt><trkpt lat="42.13605007914336" lon="13.102410680781956"><ele>662.5</ele><time>2026-04-12T14:48:57.998Z</time></trkpt><trkpt lat="42.13593836245953" lon="13.102444845633071"><ele>662.0</ele><time>2026-04-12T14:48:58.998Z</time></trkpt><trkpt lat="42.13583252503194" lon="13.10247043850879"><ele>662.8</ele><time>2026-04-12T14:48:59.998Z</time></trkpt><trkpt lat="42.135730208078314" lon="13.102491566237394"><ele>663.6</ele><time>2026-04-12T14:49:00.998Z</time></trkpt><trkpt lat="42.135633794091476" lon="13.102518510542968"><ele>664.4</ele><time>2026-04-12T14:49:01.998Z</time></trkpt><trkpt lat="42.13553500988747" lon="13.1025500641373"><ele>665.1999999999999</ele><time>2026-04-12T14:49:02.998Z</time></trkpt><trkpt lat="42.13543252334211" lon="13.102583775429334"><ele>666.0</ele><time>2026-04-12T14:49:03.998Z</time></trkpt><trkpt lat="42.135322727400926" lon="13.102619746071142"><ele>666.0</ele><time>2026-04-12T14:49:04.998Z</time></trkpt><trkpt lat="42.13520696118709" lon="13.102655701260948"><ele>666.0</ele><time>2026-04-12T14:49:05.998Z</time></trkpt><trkpt lat="42.13508526056288" lon="13.102692799979181"><ele>666.0</ele><time>2026-04-12T14:49:06.998Z</time></trkpt><trkpt lat="42.13496342524498" lon="13.102730479803872"><ele>666.0</ele><time>2026-04-12T14:49:07.998Z</time></trkpt><trkpt lat="42.13484227463361" lon="13.102766039606031"><ele>664.5</ele><time>2026-04-12T14:49:08.998Z</time></trkpt><trkpt lat="42.13471929575911" lon="13.102794051115655"><ele>663.0</ele><time>2026-04-12T14:49:10Z</time></trkpt><trkpt lat="42.13458983617015" lon="13.102820726210712"><ele>661.5</ele><time>2026-04-12T14:49:11Z</time></trkpt><trkpt lat="42.13445426986798" lon="13.102849769426195"><ele>660.0</ele><time>2026-04-12T14:49:12Z</time></trkpt><trkpt lat="42.13431633031" lon="13.102876519980992"><ele>660.0</ele><time>2026-04-12T14:49:13Z</time></trkpt><trkpt lat="42.134178750874064" lon="13.102899699643325"><ele>660.0</ele><time>2026-04-12T14:49:14Z</time></trkpt><trkpt lat="42.13403482585915" lon="13.102927427914773"><ele>660.0</ele><time>2026-04-12T14:49:15Z</time></trkpt><trkpt lat="42.133886585269714" lon="13.10295855128481"><ele>660.0</ele><time>2026-04-12T14:49:16Z</time></trkpt><trkpt lat="42.13374400015093" lon="13.102983370954208"><ele>658.3333333333334</ele><time>2026-04-12T14:49:17Z</time></trkpt><trkpt lat="42.13359688109638" lon="13.103021894764089"><ele>656.6666666666667</ele><time>2026-04-12T14:49:18Z</time></trkpt><trkpt lat="42.133443862203315" lon="13.103065598341324"><ele>655.0</ele><time>2026-04-12T14:49:19Z</time></trkpt><trkpt lat="42.13328812999441" lon="13.103109406408205"><ele>655.0</ele><time>2026-04-12T14:49:20Z</time></trkpt><trkpt lat="42.13313089389174" lon="13.103155156281463"><ele>655.0</ele><time>2026-04-12T14:49:21Z</time></trkpt><trkpt lat="42.13297038930164" lon="13.103201583961926"><ele>655.0</ele><time>2026-04-12T14:49:22Z</time></trkpt><trkpt lat="42.132806026163976" lon="13.103235724060076"><ele>655.3333333333334</ele><time>2026-04-12T14:49:23Z</time></trkpt><trkpt lat="42.13264136512344" lon="13.103278285053802"><ele>655.6666666666666</ele><time>2026-04-12T14:49:24Z</time></trkpt><trkpt lat="42.13248130965914" lon="13.1033140095119"><ele>656.0</ele><time>2026-04-12T14:49:25Z</time></trkpt><trkpt lat="42.132324392280246" lon="13.10334158656831"><ele>655.3333333333333</ele><time>2026-04-12T14:49:26Z</time></trkpt><trkpt lat="42.132172660839316" lon="13.103372485300172"><ele>654.6666666666666</ele><time>2026-04-12T14:49:27Z</time></trkpt><trkpt lat="42.13202086489073" lon="13.103391601985654"><ele>654.0</ele><time>2026-04-12T14:49:28Z</time></trkpt><trkpt lat="42.13187337868886" lon="13.103408646577035"><ele>654.0</ele><time>2026-04-12T14:49:29Z</time></trkpt><trkpt lat="42.13172841000907" lon="13.10343153504558"><ele>654.0</ele><time>2026-04-12T14:49:30Z</time></trkpt><trkpt lat="42.13158447917516" lon="13.103449548383942"><ele>654.0</ele><time>2026-04-12T14:49:31Z</time></trkpt><trkpt lat="42.13143161678118" lon="13.103453794235334"><ele>654.0</ele><time>2026-04-12T14:49:32Z</time></trkpt><trkpt lat="42.13128285011192" lon="13.103435135861194"><ele>653.0</ele><time>2026-04-12T14:49:33Z</time></trkpt><trkpt lat="42.13112816882791" lon="13.103413578114148"><ele>652.0</ele><time>2026-04-12T14:49:34Z</time></trkpt><trkpt lat="42.130974540611355" lon="13.10338856958855"><ele>651.0</ele><time>2026-04-12T14:49:35Z</time></trkpt><trkpt lat="42.1308231477096" lon="13.103365228418895"><ele>650.5</ele><time>2026-04-12T14:49:36Z</time></trkpt><trkpt lat="42.13067500256069" lon="13.103346602787209"><ele>650.0</ele><time>2026-04-12T14:49:37Z</time></trkpt><trkpt lat="42.13053007799488" lon="13.103328327785428"><ele>649.5</ele><time>2026-04-12T14:49:38Z</time></trkpt><trkpt lat="42.130392076554024" lon="13.103318206253753"><ele>649.0</ele><time>2026-04-12T14:49:39Z</time></trkpt><trkpt lat="42.1302565013527" lon="13.103310763912617"><ele>649.0</ele><time>2026-04-12T14:49:40Z</time></trkpt><trkpt lat="42.13012790724108" lon="13.103308155641995"><ele>649.0</ele><time>2026-04-12T14:49:41Z</time></trkpt><trkpt lat="42.129998004119315" lon="13.103319258181248"><ele>649.0</ele><time>2026-04-12T14:49:42Z</time></trkpt><trkpt lat="42.12987321566176" lon="13.1033445529425"><ele>649.0</ele><time>2026-04-12T14:49:43Z</time></trkpt><trkpt lat="42.129748715004" lon="13.103383754775061"><ele>648.5</ele><time>2026-04-12T14:49:44Z</time></trkpt><trkpt lat="42.129628501006515" lon="13.103419743407835"><ele>648.0</ele><time>2026-04-12T14:49:45Z</time></trkpt><trkpt lat="42.12950519811627" lon="13.103463103240312"><ele>647.5</ele><time>2026-04-12T14:49:46Z</time></trkpt><trkpt lat="42.12938310723036" lon="13.103508142428824"><ele>647.0</ele><time>2026-04-12T14:49:47Z</time></trkpt><trkpt lat="42.12926445932368" lon="13.103549459388974"><ele>647.0</ele><time>2026-04-12T14:49:48Z</time></trkpt><trkpt lat="42.12915006945806" lon="13.103593719106804"><ele>647.0</ele><time>2026-04-12T14:49:49Z</time></trkpt><trkpt lat="42.129035072879965" lon="13.103630851310864"><ele>647.0</ele><time>2026-04-12T14:49:50Z</time></trkpt><trkpt lat="42.12891363336402" lon="13.103654651648268"><ele>647.0</ele><time>2026-04-12T14:49:51Z</time></trkpt><trkpt lat="42.12878817627163" lon="13.103670961081377"><ele>647.25</ele><time>2026-04-12T14:49:52Z</time></trkpt><trkpt lat="42.128657854236934" lon="13.103677378581784"><ele>647.5</ele><time>2026-04-12T14:49:53Z</time></trkpt><trkpt lat="42.12852848568114" lon="13.103681819111317"><ele>647.75</ele><time>2026-04-12T14:49:54Z</time></trkpt><trkpt lat="42.12839053692081" lon="13.103690108669445"><ele>648.0</ele><time>2026-04-12T14:49:55Z</time></trkpt><trkpt lat="42.12825354418554" lon="13.10369961489397"><ele>648.75</ele><time>2026-04-12T14:49:56Z</time></trkpt><trkpt lat="42.12811493389083" lon="13.103707763068966"><ele>649.5</ele><time>2026-04-12T14:49:57Z</time></trkpt><trkpt lat="42.12797447251473" lon="13.103713248730266"><ele>650.25</ele><time>2026-04-12T14:49:58Z</time></trkpt><trkpt lat="42.12783165264993" lon="13.10371427943688"><ele>651.0</ele><time>2026-04-12T14:49:59Z</time></trkpt><trkpt lat="42.1276893827894" lon="13.103714706540346"><ele>651.0</ele><time>2026-04-12T14:50:00Z</time></trkpt><trkpt lat="42.12754767089357" lon="13.10371304830085"><ele>651.0</ele><time>2026-04-12T14:50:01Z</time></trkpt><trkpt lat="42.127405803313195" lon="13.103712976608366"><ele>651.0</ele><time>2026-04-12T14:50:02Z</time></trkpt><trkpt lat="42.12726467966946" lon="13.10371405961881"><ele>651.0</ele><time>2026-04-12T14:50:03Z</time></trkpt><trkpt lat="42.12712532468211" lon="13.103690433080004"><ele>651.5</ele><time>2026-04-12T14:50:04Z</time></trkpt><trkpt lat="42.126987358525696" lon="13.103704930093997"><ele>652.0</ele><time>2026-04-12T14:50:04.999Z</time></trkpt><trkpt lat="42.126848908711786" lon="13.103686984646217"><ele>652.5</ele><time>2026-04-12T14:50:05.999Z</time></trkpt><trkpt lat="42.12670622809737" lon="13.103664702604021"><ele>653.0</ele><time>2026-04-12T14:50:06.999Z</time></trkpt><trkpt lat="42.12656526654762" lon="13.1036361694489"><ele>653.25</ele><time>2026-04-12T14:50:07.999Z</time></trkpt><trkpt lat="42.12642110767419" lon="13.10360599333397"><ele>653.5</ele><time>2026-04-12T14:50:08.999Z</time></trkpt><trkpt lat="42.1262745513966" lon="13.103584289387003"><ele>653.75</ele><time>2026-04-12T14:50:09.999Z</time></trkpt><trkpt lat="42.126122294523476" lon="13.10356386157541"><ele>654.0</ele><time>2026-04-12T14:50:10.999Z</time></trkpt><trkpt lat="42.12597435200337" lon="13.103547394724766"><ele>654.0</ele><time>2026-04-12T14:50:11.999Z</time></trkpt><trkpt lat="42.125818787638984" lon="13.103535811965813"><ele>654.0</ele><time>2026-04-12T14:50:12.999Z</time></trkpt><trkpt lat="42.125665147010295" lon="13.103530799910398"><ele>654.0</ele><time>2026-04-12T14:50:13.999Z</time></trkpt><trkpt lat="42.12551193983089" lon="13.103524201250565"><ele>655.0</ele><time>2026-04-12T14:50:14.999Z</time></trkpt><trkpt lat="42.125356829923255" lon="13.103520482783416"><ele>656.0</ele><time>2026-04-12T14:50:15.999Z</time></trkpt><trkpt lat="42.125201568322495" lon="13.103522285095456"><ele>657.0</ele><time>2026-04-12T14:50:16.999Z</time></trkpt><trkpt lat="42.12504626122199" lon="13.103529689848022"><ele>658.3333333333334</ele><time>2026-04-12T14:50:17.999Z</time></trkpt><trkpt lat="42.12488993048367" lon="13.103538629390881"><ele>659.6666666666667</ele><time>2026-04-12T14:50:18.999Z</time></trkpt><trkpt lat="42.12473112017933" lon="13.103561368061923"><ele>661.0</ele><time>2026-04-12T14:50:19.999Z</time></trkpt><trkpt lat="42.124569875760024" lon="13.103584490338447"><ele>661.0</ele><time>2026-04-12T14:50:20.999Z</time></trkpt><trkpt lat="42.124403508191165" lon="13.103586934896713"><ele>661.0</ele><time>2026-04-12T14:50:21.999Z</time></trkpt><trkpt lat="42.12424794138651" lon="13.103618487140842"><ele>661.0</ele><time>2026-04-12T14:50:22.999Z</time></trkpt><trkpt lat="42.12409117060908" lon="13.10362159219567"><ele>663.3333333333334</ele><time>2026-04-12T14:50:23.999Z</time></trkpt><trkpt lat="42.12393131897267" lon="13.103665181236268"><ele>665.6666666666666</ele><time>2026-04-12T14:50:24.999Z</time></trkpt><trkpt lat="42.123779673781755" lon="13.103730374217607"><ele>668.0</ele><time>2026-04-12T14:50:25.999Z</time></trkpt><trkpt lat="42.12363829441047" lon="13.103791145226305"><ele>668.0</ele><time>2026-04-12T14:50:26.999Z</time></trkpt><trkpt lat="42.12349468485385" lon="13.103845688348986"><ele>668.0</ele><time>2026-04-12T14:50:27.999Z</time></trkpt><trkpt lat="42.12334669301329" lon="13.10391720488882"><ele>668.0</ele><time>2026-04-12T14:50:28.999Z</time></trkpt><trkpt lat="42.12318396087804" lon="13.10395146395224"><ele>668.3333333333333</ele><time>2026-04-12T14:50:29.999Z</time></trkpt><trkpt lat="42.123022338250934" lon="13.103959684385382"><ele>668.6666666666666</ele><time>2026-04-12T14:50:30.999Z</time></trkpt><trkpt lat="42.12286327926532" lon="13.103997050929417"><ele>669.0</ele><time>2026-04-12T14:50:31.999Z</time></trkpt><trkpt lat="42.12271031418814" lon="13.10399275346671"><ele>669.0</ele><time>2026-04-12T14:50:32.999Z</time></trkpt><trkpt lat="42.122557659611154" lon="13.104008472862205"><ele>669.0</ele><time>2026-04-12T14:50:33.999Z</time></trkpt><trkpt lat="42.12240518118792" lon="13.10402257927792"><ele>669.0</ele><time>2026-04-12T14:50:34.999Z</time></trkpt><trkpt lat="42.12225118380576" lon="13.10404468298004"><ele>668.6666666666666</ele><time>2026-04-12T14:50:35.999Z</time></trkpt><trkpt lat="42.122090376311185" lon="13.104025088662453"><ele>668.3333333333333</ele><time>2026-04-12T14:50:36.999Z</time></trkpt><trkpt lat="42.12192795810304" lon="13.103985512354232"><ele>668.0</ele><time>2026-04-12T14:50:37.999Z</time></trkpt><trkpt lat="42.121766176751244" lon="13.103939847890922"><ele>668.0</ele><time>2026-04-12T14:50:38.999Z</time></trkpt><trkpt lat="42.12161335731027" lon="13.103896911651493"><ele>668.0</ele><time>2026-04-12T14:50:39.999Z</time></trkpt><trkpt lat="42.12146301197751" lon="13.103854157791002"><ele>668.0</ele><time>2026-04-12T14:50:40.999Z</time></trkpt><trkpt lat="42.12132764332276" lon="13.103807833125906"><ele>668.0</ele><time>2026-04-12T14:50:41.999Z</time></trkpt><trkpt lat="42.121192787734145" lon="13.103779635047642"><ele>668.25</ele><time>2026-04-12T14:50:42.999Z</time></trkpt><trkpt lat="42.121057881114176" lon="13.10377474877398"><ele>668.5</ele><time>2026-04-12T14:50:43.999Z</time></trkpt><trkpt lat="42.12091843843161" lon="13.103800792528077"><ele>668.75</ele><time>2026-04-12T14:50:44.999Z</time></trkpt><trkpt lat="42.120771035702724" lon="13.103856742051809"><ele>669.0</ele><time>2026-04-12T14:50:45.999Z</time></trkpt><trkpt lat="42.12063234886755" lon="13.103930788494909"><ele>667.5</ele><time>2026-04-12T14:50:46.999Z</time></trkpt><trkpt lat="42.12050019177505" lon="13.104025034068536"><ele>666.0</ele><time>2026-04-12T14:50:47.999Z</time></trkpt><trkpt lat="42.12038011283309" lon="13.104122900899021"><ele>664.5</ele><time>2026-04-12T14:50:48.999Z</time></trkpt><trkpt lat="42.12026825885977" lon="13.10420389270564"><ele>663.0</ele><time>2026-04-12T14:50:49.999Z</time></trkpt><trkpt lat="42.12014933535082" lon="13.10421516197839"><ele>657.0</ele><time>2026-04-12T14:50:50.999Z</time></trkpt><trkpt lat="42.12001918294956" lon="13.104185035763408"><ele>651.0</ele><time>2026-04-12T14:50:51.999Z</time></trkpt><trkpt lat="42.119876538027185" lon="13.104145422726798"><ele>645.0</ele><time>2026-04-12T14:50:52.999Z</time></trkpt><trkpt lat="42.11970982345393" lon="13.104125667438431"><ele>639.0</ele><time>2026-04-12T14:50:53.999Z</time></trkpt><trkpt lat="42.11954570571682" lon="13.104088088713652"><ele>642.3333333333334</ele><time>2026-04-12T14:50:54.999Z</time></trkpt><trkpt lat="42.11937883103657" lon="13.104063999879786"><ele>645.6666666666667</ele><time>2026-04-12T14:50:55.999Z</time></trkpt><trkpt lat="42.11921884318354" lon="13.104038860095972"><ele>649.0</ele><time>2026-04-12T14:50:56.999Z</time></trkpt><trkpt lat="42.11906143271942" lon="13.104019727034338"><ele>649.0</ele><time>2026-04-12T14:50:57.999Z</time></trkpt><trkpt lat="42.11890735197032" lon="13.103979323570051"><ele>649.0</ele><time>2026-04-12T14:50:58.998Z</time></trkpt><trkpt lat="42.11875153082204" lon="13.103976393831307"><ele>649.0</ele><time>2026-04-12T14:50:59.998Z</time></trkpt><trkpt lat="42.11860413158403" lon="13.103935734237576"><ele>649.0</ele><time>2026-04-12T14:51:00.998Z</time></trkpt><trkpt lat="42.11846305328886" lon="13.103917445807179"><ele>649.0</ele><time>2026-04-12T14:51:01.998Z</time></trkpt><trkpt lat="42.11833243408805" lon="13.103906542323468"><ele>649.0</ele><time>2026-04-12T14:51:02.998Z</time></trkpt><trkpt lat="42.118213083607806" lon="13.103914117522107"><ele>649.0</ele><time>2026-04-12T14:51:03.998Z</time></trkpt><trkpt lat="42.11810873383128" lon="13.103885839074536"><ele>646.2</ele><time>2026-04-12T14:51:04.998Z</time></trkpt><trkpt lat="42.1180076395814" lon="13.103830262434931"><ele>643.4000000000001</ele><time>2026-04-12T14:51:05.998Z</time></trkpt><trkpt lat="42.11794672485261" lon="13.103712493124672"><ele>640.6</ele><time>2026-04-12T14:51:06.998Z</time></trkpt><trkpt lat="42.11787161717417" lon="13.103601646994944"><ele>637.8</ele><time>2026-04-12T14:51:07.998Z</time></trkpt><trkpt lat="42.11778979972749" lon="13.103491943544054"><ele>635.0</ele><time>2026-04-12T14:51:08.998Z</time></trkpt><trkpt lat="42.11773828543782" lon="13.103343195946476"><ele>635.0</ele><time>2026-04-12T14:51:09.998Z</time></trkpt><trkpt lat="42.11768541696293" lon="13.103205501475639"><ele>635.0</ele><time>2026-04-12T14:51:10.998Z</time></trkpt><trkpt lat="42.11763562936664" lon="13.103068053199372"><ele>635.0</ele><time>2026-04-12T14:51:11.998Z</time></trkpt><trkpt lat="42.117603229116526" lon="13.102928724496515"><ele>635.0</ele><time>2026-04-12T14:51:12.998Z</time></trkpt><trkpt lat="42.11757726708193" lon="13.102798765652247"><ele>635.0</ele><time>2026-04-12T14:51:13.998Z</time></trkpt><trkpt lat="42.11754018450782" lon="13.102681911798967"><ele>635.0</ele><time>2026-04-12T14:51:14.998Z</time></trkpt><trkpt lat="42.11751113939193" lon="13.102570891322166"><ele>635.0</ele><time>2026-04-12T14:51:16Z</time></trkpt><trkpt lat="42.11749747970105" lon="13.102453809518366"><ele>635.0</ele><time>2026-04-12T14:51:17Z</time></trkpt><trkpt lat="42.1174888311408" lon="13.10232898680245"><ele>635.0</ele><time>2026-04-12T14:51:18Z</time></trkpt><trkpt lat="42.11748456341871" lon="13.102191932896282"><ele>635.0</ele><time>2026-04-12T14:51:19Z</time></trkpt><trkpt lat="42.11748369087643" lon="13.102040376651642"><ele>635.25</ele><time>2026-04-12T14:51:20Z</time></trkpt><trkpt lat="42.11747978923855" lon="13.101888059769568"><ele>635.5</ele><time>2026-04-12T14:51:21Z</time></trkpt><trkpt lat="42.11747993603332" lon="13.10171312106498"><ele>635.75</ele><time>2026-04-12T14:51:22Z</time></trkpt><trkpt lat="42.11748370352863" lon="13.10152641095812"><ele>636.0</ele><time>2026-04-12T14:51:23Z</time></trkpt><trkpt lat="42.117485023479595" lon="13.10133620329699"><ele>634.6666666666666</ele><time>2026-04-12T14:51:24Z</time></trkpt><trkpt lat="42.117500630132064" lon="13.101133166294836"><ele>633.3333333333333</ele><time>2026-04-12T14:51:25Z</time></trkpt><trkpt lat="42.117528488178195" lon="13.100925477350215"><ele>632.0</ele><time>2026-04-12T14:51:26Z</time></trkpt><trkpt lat="42.11756686331958" lon="13.100733740870094"><ele>631.3333333333333</ele><time>2026-04-12T14:51:27Z</time></trkpt><trkpt lat="42.11761745691606" lon="13.100539962845074"><ele>630.6666666666666</ele><time>2026-04-12T14:51:28Z</time></trkpt><trkpt lat="42.11767531103719" lon="13.100337178467663"><ele>630.0</ele><time>2026-04-12T14:51:29Z</time></trkpt><trkpt lat="42.11774701972126" lon="13.100149081408826"><ele>630.0</ele><time>2026-04-12T14:51:30Z</time></trkpt><trkpt lat="42.11783474863482" lon="13.099958841384757"><ele>630.0</ele><time>2026-04-12T14:51:31Z</time></trkpt><trkpt lat="42.11793048013595" lon="13.099773508283043"><ele>630.0</ele><time>2026-04-12T14:51:32Z</time></trkpt><trkpt lat="42.11803182347822" lon="13.099593027323204"><ele>629.3333333333334</ele><time>2026-04-12T14:51:33Z</time></trkpt><trkpt lat="42.118150635984954" lon="13.09942534398226"><ele>628.6666666666667</ele><time>2026-04-12T14:51:34Z</time></trkpt><trkpt lat="42.11824790327949" lon="13.099244634299962"><ele>628.0</ele><time>2026-04-12T14:51:35Z</time></trkpt><trkpt lat="42.11834335553152" lon="13.099065691981792"><ele>627.0</ele><time>2026-04-12T14:51:36Z</time></trkpt><trkpt lat="42.11843274999084" lon="13.098881071446366"><ele>626.0</ele><time>2026-04-12T14:51:37Z</time></trkpt><trkpt lat="42.11851485499503" lon="13.09869256373379"><ele>625.0</ele><time>2026-04-12T14:51:38Z</time></trkpt><trkpt lat="42.11858419874748" lon="13.09849361635366"><ele>625.0</ele><time>2026-04-12T14:51:39Z</time></trkpt><trkpt lat="42.11864494719009" lon="13.098288888597668"><ele>625.0</ele><time>2026-04-12T14:51:40Z</time></trkpt><trkpt lat="42.11870569476023" lon="13.098087260385487"><ele>625.0</ele><time>2026-04-12T14:51:41Z</time></trkpt><trkpt lat="42.118740732131116" lon="13.097865984862105"><ele>624.6666666666667</ele><time>2026-04-12T14:51:42Z</time></trkpt><trkpt lat="42.11877349219791" lon="13.097645613735015"><ele>624.3333333333334</ele><time>2026-04-12T14:51:43Z</time></trkpt><trkpt lat="42.11880810498594" lon="13.097439892594865"><ele>624.0</ele><time>2026-04-12T14:51:44Z</time></trkpt><trkpt lat="42.11882177452375" lon="13.097222859025672"><ele>624.0</ele><time>2026-04-12T14:51:45Z</time></trkpt><trkpt lat="42.11883284594987" lon="13.097004950591668"><ele>624.0</ele><time>2026-04-12T14:51:46Z</time></trkpt><trkpt lat="42.118837049028926" lon="13.09679021750659"><ele>624.0</ele><time>2026-04-12T14:51:47Z</time></trkpt><trkpt lat="42.11884278338805" lon="13.096578079319821"><ele>624.0</ele><time>2026-04-12T14:51:48Z</time></trkpt><trkpt lat="42.118855108280854" lon="13.09636123744726"><ele>624.0</ele><time>2026-04-12T14:51:49Z</time></trkpt><trkpt lat="42.11886432666902" lon="13.096148878324309"><ele>624.0</ele><time>2026-04-12T14:51:50Z</time></trkpt><trkpt lat="42.11887351313417" lon="13.095936327919576"><ele>624.3333333333334</ele><time>2026-04-12T14:51:51Z</time></trkpt><trkpt lat="42.11887785040328" lon="13.095726532331387"><ele>624.6666666666667</ele><time>2026-04-12T14:51:52Z</time></trkpt><trkpt lat="42.11887347544847" lon="13.095518059881487"><ele>625.0</ele><time>2026-04-12T14:51:53Z</time></trkpt><trkpt lat="42.118855671156155" lon="13.09531288348568"><ele>625.0</ele><time>2026-04-12T14:51:54Z</time></trkpt><trkpt lat="42.118831088852716" lon="13.095102629889059"><ele>625.0</ele><time>2026-04-12T14:51:55Z</time></trkpt><trkpt lat="42.11879804253225" lon="13.09489102439018"><ele>625.0</ele><time>2026-04-12T14:51:56Z</time></trkpt><trkpt lat="42.118757660431584" lon="13.094673325165287"><ele>626.0</ele><time>2026-04-12T14:51:57Z</time></trkpt><trkpt lat="42.11871477804725" lon="13.094458867897801"><ele>627.0</ele><time>2026-04-12T14:51:58Z</time></trkpt><trkpt lat="42.118673043588714" lon="13.094239818687317"><ele>628.0</ele><time>2026-04-12T14:51:59Z</time></trkpt><trkpt lat="42.118630479240075" lon="13.094017830158839"><ele>629.0</ele><time>2026-04-12T14:52:00Z</time></trkpt><trkpt lat="42.118587491515264" lon="13.09379643382065"><ele>630.0</ele><time>2026-04-12T14:52:01Z</time></trkpt><trkpt lat="42.11854496082534" lon="13.093567911733189"><ele>631.0</ele><time>2026-04-12T14:52:02Z</time></trkpt><trkpt lat="42.11850184074637" lon="13.093342194565508"><ele>631.3333333333334</ele><time>2026-04-12T14:52:03Z</time></trkpt><trkpt lat="42.11845950996872" lon="13.093114408207844"><ele>631.6666666666666</ele><time>2026-04-12T14:52:04Z</time></trkpt><trkpt lat="42.11841659787331" lon="13.09288476042939"><ele>632.0</ele><time>2026-04-12T14:52:05Z</time></trkpt><trkpt lat="42.118373431826704" lon="13.092655673851034"><ele>632.0</ele><time>2026-04-12T14:52:06Z</time></trkpt><trkpt lat="42.11832941246839" lon="13.092426044868425"><ele>632.0</ele><time>2026-04-12T14:52:07Z</time></trkpt><trkpt lat="42.1182848915932" lon="13.092197079024794"><ele>632.0</ele><time>2026-04-12T14:52:08Z</time></trkpt><trkpt lat="42.1182408723049" lon="13.091968377783834"><ele>628.3333333333333</ele><time>2026-04-12T14:52:09Z</time></trkpt><trkpt lat="42.11819716506772" lon="13.091737791439114"><ele>624.6666666666666</ele><time>2026-04-12T14:52:09.999Z</time></trkpt><trkpt lat="42.118156674361245" lon="13.09150923905394"><ele>621.0</ele><time>2026-04-12T14:52:10.999Z</time></trkpt><trkpt lat="42.11811588629677" lon="13.091276788753408"><ele>621.0</ele><time>2026-04-12T14:52:11.999Z</time></trkpt><trkpt lat="42.118071096133" lon="13.09105394907223"><ele>621.0</ele><time>2026-04-12T14:52:12.999Z</time></trkpt><trkpt lat="42.11802419851506" lon="13.090829600633631"><ele>621.0</ele><time>2026-04-12T14:52:13.999Z</time></trkpt><trkpt lat="42.117971414526856" lon="13.090610061114617"><ele>620.6666666666666</ele><time>2026-04-12T14:52:14.999Z</time></trkpt><trkpt lat="42.117907595635344" lon="13.090395491264415"><ele>620.3333333333333</ele><time>2026-04-12T14:52:15.999Z</time></trkpt><trkpt lat="42.11783319044817" lon="13.090187543934338"><ele>620.0</ele><time>2026-04-12T14:52:16.999Z</time></trkpt><trkpt lat="42.11775774102432" lon="13.089989709729034"><ele>621.6666666666666</ele><time>2026-04-12T14:52:17.999Z</time></trkpt><trkpt lat="42.11768469188613" lon="13.089794385396704"><ele>623.3333333333334</ele><time>2026-04-12T14:52:18.999Z</time></trkpt><trkpt lat="42.117612091333015" lon="13.089597353970108"><ele>625.0</ele><time>2026-04-12T14:52:19.999Z</time></trkpt><trkpt lat="42.117538451671415" lon="13.089400796779742"><ele>625.0</ele><time>2026-04-12T14:52:20.999Z</time></trkpt><trkpt lat="42.11745917696433" lon="13.0892115936876"><ele>625.0</ele><time>2026-04-12T14:52:21.999Z</time></trkpt><trkpt lat="42.117392494488996" lon="13.089016937823427"><ele>625.0</ele><time>2026-04-12T14:52:22.999Z</time></trkpt><trkpt lat="42.117315531361115" lon="13.088830184065984"><ele>623.3333333333334</ele><time>2026-04-12T14:52:23.999Z</time></trkpt><trkpt lat="42.11724026124584" lon="13.088642096026122"><ele>621.6666666666666</ele><time>2026-04-12T14:52:24.999Z</time></trkpt><trkpt lat="42.11716756632829" lon="13.088453590549866"><ele>620.0</ele><time>2026-04-12T14:52:25.999Z</time></trkpt><trkpt lat="42.1170952170688" lon="13.088265166435036"><ele>620.3333333333333</ele><time>2026-04-12T14:52:26.999Z</time></trkpt><trkpt lat="42.11702286657884" lon="13.088079178280763"><ele>620.6666666666666</ele><time>2026-04-12T14:52:27.999Z</time></trkpt><trkpt lat="42.116950248245935" lon="13.0878922801092"><ele>621.0</ele><time>2026-04-12T14:52:28.999Z</time></trkpt><trkpt lat="42.11687806668587" lon="13.08770257646841"><ele>621.0</ele><time>2026-04-12T14:52:29.999Z</time></trkpt><trkpt lat="42.11680430548202" lon="13.087511703547381"><ele>621.0</ele><time>2026-04-12T14:52:30.999Z</time></trkpt><trkpt lat="42.11673175716386" lon="13.08732404178332"><ele>621.0</ele><time>2026-04-12T14:52:31.999Z</time></trkpt><trkpt lat="42.11665589715278" lon="13.087133093748177"><ele>621.3333333333334</ele><time>2026-04-12T14:52:32.999Z</time></trkpt><trkpt lat="42.11657955933438" lon="13.086938231208958"><ele>621.6666666666667</ele><time>2026-04-12T14:52:33.999Z</time></trkpt><trkpt lat="42.11650706884609" lon="13.086744744120756"><ele>622.0</ele><time>2026-04-12T14:52:34.999Z</time></trkpt><trkpt lat="42.1164331953218" lon="13.086553467253509"><ele>622.0</ele><time>2026-04-12T14:52:35.999Z</time></trkpt><trkpt lat="42.11635144956718" lon="13.086356288382028"><ele>622.0</ele><time>2026-04-12T14:52:36.999Z</time></trkpt><trkpt lat="42.116276462816934" lon="13.086160035121939"><ele>622.0</ele><time>2026-04-12T14:52:37.999Z</time></trkpt><trkpt lat="42.116203560526216" lon="13.085957328876061"><ele>624.0</ele><time>2026-04-12T14:52:38.999Z</time></trkpt><trkpt lat="42.11612879858301" lon="13.085757559480319"><ele>626.0</ele><time>2026-04-12T14:52:39.999Z</time></trkpt><trkpt lat="42.116048826247365" lon="13.085564431603864"><ele>628.0</ele><time>2026-04-12T14:52:40.999Z</time></trkpt><trkpt lat="42.11596711787045" lon="13.08537403855508"><ele>628.0</ele><time>2026-04-12T14:52:41.999Z</time></trkpt><trkpt lat="42.11587338818908" lon="13.085196966834017"><ele>628.0</ele><time>2026-04-12T14:52:42.999Z</time></trkpt><trkpt lat="42.11577492963351" lon="13.085024392520847"><ele>628.0</ele><time>2026-04-12T14:52:43.999Z</time></trkpt><trkpt lat="42.11567227903036" lon="13.084866127638977"><ele>626.0</ele><time>2026-04-12T14:52:44.999Z</time></trkpt><trkpt lat="42.11556053540948" lon="13.084718137249805"><ele>624.0</ele><time>2026-04-12T14:52:45.999Z</time></trkpt><trkpt lat="42.115441638777526" lon="13.084578708706553"><ele>622.0</ele><time>2026-04-12T14:52:46.999Z</time></trkpt><trkpt lat="42.11531587128739" lon="13.084444068487691"><ele>622.0</ele><time>2026-04-12T14:52:47.999Z</time></trkpt><trkpt lat="42.115183615012015" lon="13.084323675886916"><ele>622.0</ele><time>2026-04-12T14:52:48.999Z</time></trkpt><trkpt lat="42.11504691045907" lon="13.084213809501732"><ele>622.0</ele><time>2026-04-12T14:52:49.999Z</time></trkpt><trkpt lat="42.1149072947421" lon="13.084109287931648"><ele>621.3333333333334</ele><time>2026-04-12T14:52:50.999Z</time></trkpt><trkpt lat="42.11476389725457" lon="13.084002542349733"><ele>620.6666666666666</ele><time>2026-04-12T14:52:51.999Z</time></trkpt><trkpt lat="42.11461986684286" lon="13.08389550890386"><ele>620.0</ele><time>2026-04-12T14:52:52.999Z</time></trkpt><trkpt lat="42.11447034452578" lon="13.08379390251005"><ele>620.0</ele><time>2026-04-12T14:52:53.999Z</time></trkpt><trkpt lat="42.11433745148948" lon="13.083691780119947"><ele>620.0</ele><time>2026-04-12T14:52:54.999Z</time></trkpt><trkpt lat="42.11418586207018" lon="13.083596236066727"><ele>620.0</ele><time>2026-04-12T14:52:55.999Z</time></trkpt><trkpt lat="42.11403084407156" lon="13.083505698072408"><ele>618.3333333333333</ele><time>2026-04-12T14:52:56.999Z</time></trkpt><trkpt lat="42.11387267289192" lon="13.08342834081231"><ele>616.6666666666666</ele><time>2026-04-12T14:52:57.999Z</time></trkpt><trkpt lat="42.113714369975526" lon="13.083368819066564"><ele>615.0</ele><time>2026-04-12T14:52:58.999Z</time></trkpt><trkpt lat="42.1135577404094" lon="13.083314643916575"><ele>615.0</ele><time>2026-04-12T14:52:59.999Z</time></trkpt><trkpt lat="42.1133962136527" lon="13.083272251189532"><ele>615.0</ele><time>2026-04-12T14:53:00.999Z</time></trkpt><trkpt lat="42.113229574577794" lon="13.083247802088296"><ele>615.0</ele><time>2026-04-12T14:53:01.999Z</time></trkpt><trkpt lat="42.113077838357086" lon="13.083239045387863"><ele>620.0</ele><time>2026-04-12T14:53:02.999Z</time></trkpt><trkpt lat="42.11292848396336" lon="13.083229387952859"><ele>625.0</ele><time>2026-04-12T14:53:03.998Z</time></trkpt><trkpt lat="42.112758612226294" lon="13.08322634356664"><ele>630.0</ele><time>2026-04-12T14:53:04.998Z</time></trkpt><trkpt lat="42.112598699519395" lon="13.083234082846083"><ele>630.0</ele><time>2026-04-12T14:53:05.998Z</time></trkpt><trkpt lat="42.11244261213905" lon="13.083245463243143"><ele>630.0</ele><time>2026-04-12T14:53:06.998Z</time></trkpt><trkpt lat="42.11227572485851" lon="13.083267183028664"><ele>630.0</ele><time>2026-04-12T14:53:07.998Z</time></trkpt><trkpt lat="42.11211402726564" lon="13.0832862542558"><ele>627.6666666666666</ele><time>2026-04-12T14:53:08.998Z</time></trkpt><trkpt lat="42.111952219486014" lon="13.083291915672174"><ele>625.3333333333333</ele><time>2026-04-12T14:53:09.998Z</time></trkpt><trkpt lat="42.11178879037021" lon="13.083302934778107"><ele>623.0</ele><time>2026-04-12T14:53:10.998Z</time></trkpt><trkpt lat="42.11162545110285" lon="13.08331722641576"><ele>624.0</ele><time>2026-04-12T14:53:11.998Z</time></trkpt><trkpt lat="42.1114644996425" lon="13.08332503252055"><ele>625.0</ele><time>2026-04-12T14:53:12.998Z</time></trkpt><trkpt lat="42.11130024117115" lon="13.083332275234936"><ele>626.0</ele><time>2026-04-12T14:53:13.998Z</time></trkpt><trkpt lat="42.11113811824764" lon="13.083339993873292"><ele>626.0</ele><time>2026-04-12T14:53:14.998Z</time></trkpt><trkpt lat="42.11097793894614" lon="13.08334028667186"><ele>626.0</ele><time>2026-04-12T14:53:15.998Z</time></trkpt><trkpt lat="42.11081681103028" lon="13.083342778578263"><ele>626.0</ele><time>2026-04-12T14:53:16.998Z</time></trkpt><trkpt lat="42.11065760537017" lon="13.083333406108315"><ele>626.0</ele><time>2026-04-12T14:53:17.998Z</time></trkpt><trkpt lat="42.11049715622959" lon="13.08333871233874"><ele>626.0</ele><time>2026-04-12T14:53:18.998Z</time></trkpt><trkpt lat="42.11033938950101" lon="13.083343062086199"><ele>626.0</ele><time>2026-04-12T14:53:19.998Z</time></trkpt><trkpt lat="42.1101790707641" lon="13.083344949606715"><ele>626.0</ele><time>2026-04-12T14:53:21Z</time></trkpt><trkpt lat="42.11001803130063" lon="13.083360807616968"><ele>626.0</ele><time>2026-04-12T14:53:22Z</time></trkpt><trkpt lat="42.109855098367206" lon="13.083380707358382"><ele>626.0</ele><time>2026-04-12T14:53:23Z</time></trkpt><trkpt lat="42.109692129133585" lon="13.08340239171194"><ele>624.0</ele><time>2026-04-12T14:53:24Z</time></trkpt><trkpt lat="42.10953630552739" lon="13.083423181138713"><ele>622.0</ele><time>2026-04-12T14:53:25Z</time></trkpt><trkpt lat="42.10937939546742" lon="13.083435266355895"><ele>620.0</ele><time>2026-04-12T14:53:26Z</time></trkpt><trkpt lat="42.10922357989667" lon="13.083456386755989"><ele>620.6666666666666</ele><time>2026-04-12T14:53:27Z</time></trkpt><trkpt lat="42.10906057909541" lon="13.083475724044966"><ele>621.3333333333334</ele><time>2026-04-12T14:53:28Z</time></trkpt><trkpt lat="42.10890221016959" lon="13.083491946530701"><ele>622.0</ele><time>2026-04-12T14:53:29Z</time></trkpt><trkpt lat="42.10874755275324" lon="13.083510199013562"><ele>622.0</ele><time>2026-04-12T14:53:30Z</time></trkpt><trkpt lat="42.10858845822912" lon="13.083518889076279"><ele>622.0</ele><time>2026-04-12T14:53:31Z</time></trkpt><trkpt lat="42.108428746843565" lon="13.083529118567848"><ele>622.0</ele><time>2026-04-12T14:53:32Z</time></trkpt><trkpt lat="42.10827203226825" lon="13.083533167237169"><ele>621.6666666666667</ele><time>2026-04-12T14:53:33Z</time></trkpt><trkpt lat="42.108111217682215" lon="13.083487877854505"><ele>621.3333333333334</ele><time>2026-04-12T14:53:34Z</time></trkpt><trkpt lat="42.10794898095214" lon="13.083453674987732"><ele>621.0</ele><time>2026-04-12T14:53:35Z</time></trkpt><trkpt lat="42.10778976020202" lon="13.08342079678625"><ele>621.0</ele><time>2026-04-12T14:53:36Z</time></trkpt><trkpt lat="42.10763108793535" lon="13.08338570142096"><ele>621.0</ele><time>2026-04-12T14:53:37Z</time></trkpt><trkpt lat="42.10747323148552" lon="13.083353759273958"><ele>621.0</ele><time>2026-04-12T14:53:38Z</time></trkpt><trkpt lat="42.107314473351245" lon="13.083327386237737"><ele>620.3333333333334</ele><time>2026-04-12T14:53:39Z</time></trkpt><trkpt lat="42.107156988070905" lon="13.083312450203326"><ele>619.6666666666667</ele><time>2026-04-12T14:53:40Z</time></trkpt><trkpt lat="42.10699756199073" lon="13.083307408955502"><ele>619.0</ele><time>2026-04-12T14:53:41Z</time></trkpt><trkpt lat="42.106836275535755" lon="13.083312815464256"><ele>619.0</ele><time>2026-04-12T14:53:42Z</time></trkpt><trkpt lat="42.106674870157335" lon="13.083328241048866"><ele>619.0</ele><time>2026-04-12T14:53:43Z</time></trkpt><trkpt lat="42.10651137010396" lon="13.083343075984756"><ele>619.0</ele><time>2026-04-12T14:53:44Z</time></trkpt><trkpt lat="42.10634333980045" lon="13.083371843269731"><ele>620.0</ele><time>2026-04-12T14:53:45Z</time></trkpt><trkpt lat="42.106174624679355" lon="13.083401914186698"><ele>621.0</ele><time>2026-04-12T14:53:46Z</time></trkpt><trkpt lat="42.1060070716531" lon="13.083436471522194"><ele>622.0</ele><time>2026-04-12T14:53:47Z</time></trkpt><trkpt lat="42.10584087662845" lon="13.08348386848275"><ele>626.0</ele><time>2026-04-12T14:53:48Z</time></trkpt><trkpt lat="42.10567960631829" lon="13.083551003019087"><ele>630.0</ele><time>2026-04-12T14:53:49Z</time></trkpt><trkpt lat="42.105521877396065" lon="13.083629080382298"><ele>634.0</ele><time>2026-04-12T14:53:50Z</time></trkpt><trkpt lat="42.105368224013446" lon="13.083718823492864"><ele>634.0</ele><time>2026-04-12T14:53:51Z</time></trkpt><trkpt lat="42.105216862662225" lon="13.083813462377801"><ele>634.0</ele><time>2026-04-12T14:53:52Z</time></trkpt><trkpt lat="42.10506809245225" lon="13.083916154926863"><ele>634.0</ele><time>2026-04-12T14:53:53Z</time></trkpt><trkpt lat="42.10492116239657" lon="13.084021030553542"><ele>630.6666666666667</ele><time>2026-04-12T14:53:54Z</time></trkpt><trkpt lat="42.1047815166948" lon="13.084123586743493"><ele>627.3333333333334</ele><time>2026-04-12T14:53:55Z</time></trkpt><trkpt lat="42.10464345609745" lon="13.084217637188464"><ele>624.0</ele><time>2026-04-12T14:53:56Z</time></trkpt><trkpt lat="42.10451538016992" lon="13.084283334701148"><ele>624.0</ele><time>2026-04-12T14:53:57Z</time></trkpt><trkpt lat="42.104378865528965" lon="13.084348737181704"><ele>624.0</ele><time>2026-04-12T14:53:58Z</time></trkpt><trkpt lat="42.104252128245626" lon="13.084447584191107"><ele>624.0</ele><time>2026-04-12T14:53:59Z</time></trkpt><trkpt lat="42.10411204958124" lon="13.084517476791811"><ele>624.0</ele><time>2026-04-12T14:54:00Z</time></trkpt><trkpt lat="42.10397177045819" lon="13.084570408534535"><ele>624.25</ele><time>2026-04-12T14:54:01Z</time></trkpt><trkpt lat="42.10382466911202" lon="13.084612944695582"><ele>624.5</ele><time>2026-04-12T14:54:02Z</time></trkpt><trkpt lat="42.103677266724866" lon="13.084644926002495"><ele>624.75</ele><time>2026-04-12T14:54:03Z</time></trkpt><trkpt lat="42.10352826980077" lon="13.084664541861915"><ele>625.0</ele><time>2026-04-12T14:54:04Z</time></trkpt><trkpt lat="42.10337865143981" lon="13.084677145492426"><ele>623.5</ele><time>2026-04-12T14:54:05Z</time></trkpt><trkpt lat="42.10322701412713" lon="13.084677017396755"><ele>622.0</ele><time>2026-04-12T14:54:06Z</time></trkpt><trkpt lat="42.1030835958551" lon="13.084658152572462"><ele>620.5</ele><time>2026-04-12T14:54:07Z</time></trkpt><trkpt lat="42.102946599128344" lon="13.084625453893482"><ele>619.0</ele><time>2026-04-12T14:54:08Z</time></trkpt><trkpt lat="42.10281525328223" lon="13.08458207247338"><ele>619.0</ele><time>2026-04-12T14:54:09Z</time></trkpt><trkpt lat="42.1026924399235" lon="13.084533866074496"><ele>619.0</ele><time>2026-04-12T14:54:10Z</time></trkpt><trkpt lat="42.10257511976778" lon="13.084482514266394"><ele>619.0</ele><time>2026-04-12T14:54:11Z</time></trkpt><trkpt lat="42.10246162978416" lon="13.084426801513334"><ele>619.0</ele><time>2026-04-12T14:54:12Z</time></trkpt><trkpt lat="42.102354368259235" lon="13.08436508740942"><ele>617.2</ele><time>2026-04-12T14:54:12.999Z</time></trkpt><trkpt lat="42.10225510908503" lon="13.084298544747885"><ele>615.4</ele><time>2026-04-12T14:54:13.999Z</time></trkpt><trkpt lat="42.10215836811871" lon="13.084239987670832"><ele>613.6</ele><time>2026-04-12T14:54:14.999Z</time></trkpt><trkpt lat="42.102063290708834" lon="13.08419102216029"><ele>611.8</ele><time>2026-04-12T14:54:15.999Z</time></trkpt><trkpt lat="42.10196431745284" lon="13.084142359916255"><ele>610.0</ele><time>2026-04-12T14:54:16.999Z</time></trkpt><trkpt lat="42.10186410503397" lon="13.084102599507245"><ele>611.8</ele><time>2026-04-12T14:54:17.999Z</time></trkpt><trkpt lat="42.10176440147497" lon="13.0840669712599"><ele>613.6</ele><time>2026-04-12T14:54:18.999Z</time></trkpt><trkpt lat="42.10166747643254" lon="13.084037733676995"><ele>615.4</ele><time>2026-04-12T14:54:19.999Z</time></trkpt><trkpt lat="42.10157188709894" lon="13.084014018825547"><ele>617.2</ele><time>2026-04-12T14:54:20.999Z</time></trkpt><trkpt lat="42.10147849629826" lon="13.083999853842645"><ele>619.0</ele><time>2026-04-12T14:54:21.999Z</time></trkpt><trkpt lat="42.101385275241284" lon="13.083990770222044"><ele>619.2</ele><time>2026-04-12T14:54:22.999Z</time></trkpt><trkpt lat="42.101291042531834" lon="13.083990430128413"><ele>619.4</ele><time>2026-04-12T14:54:23.999Z</time></trkpt><trkpt lat="42.101196286596135" lon="13.083987041848872"><ele>619.6</ele><time>2026-04-12T14:54:24.999Z</time></trkpt><trkpt lat="42.101102767861796" lon="13.08398711337591"><ele>619.8</ele><time>2026-04-12T14:54:25.999Z</time></trkpt><trkpt lat="42.10100648571025" lon="13.083990151557156"><ele>620.0</ele><time>2026-04-12T14:54:26.999Z</time></trkpt><trkpt lat="42.10090799675183" lon="13.083995774704617"><ele>620.0</ele><time>2026-04-12T14:54:27.999Z</time></trkpt><trkpt lat="42.100807113947496" lon="13.084000396965122"><ele>620.0</ele><time>2026-04-12T14:54:28.999Z</time></trkpt><trkpt lat="42.10070662068248" lon="13.084002444000259"><ele>620.0</ele><time>2026-04-12T14:54:29.999Z</time></trkpt><trkpt lat="42.10060760760148" lon="13.084007783538064"><ele>620.0</ele><time>2026-04-12T14:54:30.999Z</time></trkpt><trkpt lat="42.10050649922445" lon="13.08401651662923"><ele>620.0</ele><time>2026-04-12T14:54:31.999Z</time></trkpt><trkpt lat="42.100403107479224" lon="13.084017597306515"><ele>619.6</ele><time>2026-04-12T14:54:32.999Z</time></trkpt><trkpt lat="42.10030078431557" lon="13.084008225507233"><ele>619.2</ele><time>2026-04-12T14:54:33.999Z</time></trkpt><trkpt lat="42.100193789451055" lon="13.083993916037251"><ele>618.8</ele><time>2026-04-12T14:54:34.999Z</time></trkpt><trkpt lat="42.100086931034895" lon="13.083968426827628"><ele>618.4</ele><time>2026-04-12T14:54:35.999Z</time></trkpt><trkpt lat="42.09997958527958" lon="13.083939327294317"><ele>618.0</ele><time>2026-04-12T14:54:36.999Z</time></trkpt><trkpt lat="42.09987744723041" lon="13.083895470578412"><ele>616.1999999999999</ele><time>2026-04-12T14:54:37.999Z</time></trkpt><trkpt lat="42.09977179736844" lon="13.083845075734954"><ele>614.4</ele><time>2026-04-12T14:54:38.999Z</time></trkpt><trkpt lat="42.099669196112636" lon="13.08378044703493"><ele>612.5999999999999</ele><time>2026-04-12T14:54:39.999Z</time></trkpt><trkpt lat="42.09957261692883" lon="13.08370907574792"><ele>610.8</ele><time>2026-04-12T14:54:40.999Z</time></trkpt><trkpt lat="42.09948101338788" lon="13.083634177616647"><ele>609.0</ele><time>2026-04-12T14:54:41.999Z</time></trkpt><trkpt lat="42.0994017095484" lon="13.08355731709015"><ele>609.0</ele><time>2026-04-12T14:54:42.999Z</time></trkpt><trkpt lat="42.09932408303386" lon="13.083485257719897"><ele>609.0</ele><time>2026-04-12T14:54:43.999Z</time></trkpt><trkpt lat="42.099250391235486" lon="13.083412025824666"><ele>609.0</ele><time>2026-04-12T14:54:44.999Z</time></trkpt><trkpt lat="42.09917718660023" lon="13.083340037096093"><ele>609.0</ele><time>2026-04-12T14:54:45.999Z</time></trkpt><trkpt lat="42.099103583357724" lon="13.083265947485096"><ele>609.0</ele><time>2026-04-12T14:54:46.999Z</time></trkpt><trkpt lat="42.09902987256776" lon="13.083189961542475"><ele>608.4</ele><time>2026-04-12T14:54:47.999Z</time></trkpt><trkpt lat="42.09895191686395" lon="13.083113322610988"><ele>607.8</ele><time>2026-04-12T14:54:48.999Z</time></trkpt><trkpt lat="42.09887510990806" lon="13.083032276903799"><ele>607.2</ele><time>2026-04-12T14:54:49.999Z</time></trkpt><trkpt lat="42.09879638801811" lon="13.082948108141203"><ele>606.6</ele><time>2026-04-12T14:54:50.999Z</time></trkpt><trkpt lat="42.098714972039666" lon="13.082860657588812"><ele>606.0</ele><time>2026-04-12T14:54:51.999Z</time></trkpt><trkpt lat="42.09863006279722" lon="13.082771557159548"><ele>606.0</ele><time>2026-04-12T14:54:52.999Z</time></trkpt><trkpt lat="42.09853908717612" lon="13.082680197193225"><ele>606.0</ele><time>2026-04-12T14:54:53.999Z</time></trkpt><trkpt lat="42.098451640718686" lon="13.082589279205738"><ele>606.0</ele><time>2026-04-12T14:54:54.999Z</time></trkpt><trkpt lat="42.09836522187718" lon="13.082499043272175"><ele>606.0</ele><time>2026-04-12T14:54:55.999Z</time></trkpt><trkpt lat="42.098280042165385" lon="13.082410588155716"><ele>606.0</ele><time>2026-04-12T14:54:56.999Z</time></trkpt><trkpt lat="42.09819345287673" lon="13.082323243317825"><ele>605.2</ele><time>2026-04-12T14:54:57.999Z</time></trkpt><trkpt lat="42.09810772659135" lon="13.082236900623469"><ele>604.4000000000001</ele><time>2026-04-12T14:54:58.999Z</time></trkpt><trkpt lat="42.09802155359277" lon="13.082149881910771"><ele>603.6</ele><time>2026-04-12T14:54:59.999Z</time></trkpt><trkpt lat="42.09793331790004" lon="13.082062566651054"><ele>602.8000000000001</ele><time>2026-04-12T14:55:00.999Z</time></trkpt><trkpt lat="42.097841625704284" lon="13.081973066510669"><ele>602.0</ele><time>2026-04-12T14:55:01.999Z</time></trkpt><trkpt lat="42.09775119246969" lon="13.081878811200868"><ele>602.0</ele><time>2026-04-12T14:55:02.999Z</time></trkpt><trkpt lat="42.097662639950514" lon="13.081789517988485"><ele>602.0</ele><time>2026-04-12T14:55:03.999Z</time></trkpt><trkpt lat="42.09757721938189" lon="13.081701029351082"><ele>602.0</ele><time>2026-04-12T14:55:04.999Z</time></trkpt><trkpt lat="42.09749223989565" lon="13.081608915784994"><ele>602.0</ele><time>2026-04-12T14:55:05.999Z</time></trkpt><trkpt lat="42.09740554424915" lon="13.08151633409828"><ele>602.0</ele><time>2026-04-12T14:55:06.998Z</time></trkpt><trkpt lat="42.09731649443126" lon="13.081422777701574"><ele>602.0</ele><time>2026-04-12T14:55:07.998Z</time></trkpt><trkpt lat="42.09723035866085" lon="13.081325223207578"><ele>602.0</ele><time>2026-04-12T14:55:08.998Z</time></trkpt><trkpt lat="42.09715049379279" lon="13.081215994138926"><ele>602.0</ele><time>2026-04-12T14:55:09.998Z</time></trkpt><trkpt lat="42.097072444260796" lon="13.081094089372764"><ele>602.0</ele><time>2026-04-12T14:55:10.998Z</time></trkpt><trkpt lat="42.09699179435121" lon="13.080965811511058"><ele>602.0</ele><time>2026-04-12T14:55:11.998Z</time></trkpt><trkpt lat="42.096912595684444" lon="13.080832936213485"><ele>602.0</ele><time>2026-04-12T14:55:12.998Z</time></trkpt><trkpt lat="42.09683177193601" lon="13.080694898636608"><ele>602.0</ele><time>2026-04-12T14:55:13.998Z</time></trkpt><trkpt lat="42.09674791334354" lon="13.080556860150265"><ele>602.0</ele><time>2026-04-12T14:55:14.998Z</time></trkpt><trkpt lat="42.096664625596794" lon="13.080417309490956"><ele>602.0</ele><time>2026-04-12T14:55:15.998Z</time></trkpt><trkpt lat="42.09658761200128" lon="13.08028344232715"><ele>602.0</ele><time>2026-04-12T14:55:16.998Z</time></trkpt><trkpt lat="42.09651307480267" lon="13.080153882886082"><ele>602.0</ele><time>2026-04-12T14:55:17.998Z</time></trkpt><trkpt lat="42.09643622371564" lon="13.080025160542538"><ele>602.0</ele><time>2026-04-12T14:55:18.998Z</time></trkpt><trkpt lat="42.0963595288505" lon="13.079899235853151"><ele>603.5</ele><time>2026-04-12T14:55:19.998Z</time></trkpt><trkpt lat="42.096278171397024" lon="13.079772696497521"><ele>605.0</ele><time>2026-04-12T14:55:20.998Z</time></trkpt><trkpt lat="42.096190291472546" lon="13.079655893744533"><ele>606.5</ele><time>2026-04-12T14:55:21.998Z</time></trkpt><trkpt lat="42.09609487444881" lon="13.079538653350935"><ele>608.0</ele><time>2026-04-12T14:55:22.998Z</time></trkpt><trkpt lat="42.095988221327396" lon="13.079420547794644"><ele>608.0</ele><time>2026-04-12T14:55:23.998Z</time></trkpt><trkpt lat="42.09586452786983" lon="13.079307052693622"><ele>608.0</ele><time>2026-04-12T14:55:24.998Z</time></trkpt><trkpt lat="42.0957337855632" lon="13.079190455960502"><ele>608.0</ele><time>2026-04-12T14:55:25.998Z</time></trkpt><trkpt lat="42.095597588038004" lon="13.079072723374235"><ele>608.3333333333333</ele><time>2026-04-12T14:55:27Z</time></trkpt><trkpt lat="42.0954549101713" lon="13.07895283685024"><ele>608.6666666666666</ele><time>2026-04-12T14:55:28Z</time></trkpt><trkpt lat="42.09530919641982" lon="13.078826351882691"><ele>609.0</ele><time>2026-04-12T14:55:29Z</time></trkpt><trkpt lat="42.09516305621885" lon="13.078695732247619"><ele>609.0</ele><time>2026-04-12T14:55:30Z</time></trkpt><trkpt lat="42.095011961638875" lon="13.078571190443874"><ele>609.0</ele><time>2026-04-12T14:55:31Z</time></trkpt><trkpt lat="42.09485929887248" lon="13.078449834185177"><ele>609.0</ele><time>2026-04-12T14:55:32Z</time></trkpt><trkpt lat="42.09470480193073" lon="13.078326485668859"><ele>610.3333333333334</ele><time>2026-04-12T14:55:33Z</time></trkpt><trkpt lat="42.09455318294979" lon="13.078196373934926"><ele>611.6666666666667</ele><time>2026-04-12T14:55:34Z</time></trkpt><trkpt lat="42.09441214885091" lon="13.078043088975644"><ele>613.0</ele><time>2026-04-12T14:55:35Z</time></trkpt><trkpt lat="42.09428227422279" lon="13.077866363335072"><ele>613.0</ele><time>2026-04-12T14:55:36Z</time></trkpt><trkpt lat="42.09416212292073" lon="13.077683566105817"><ele>613.0</ele><time>2026-04-12T14:55:37Z</time></trkpt><trkpt lat="42.09404831536203" lon="13.07748710198682"><ele>613.0</ele><time>2026-04-12T14:55:38Z</time></trkpt><trkpt lat="42.09394288124575" lon="13.077276085129393"><ele>609.3333333333334</ele><time>2026-04-12T14:55:39Z</time></trkpt><trkpt lat="42.093848885450214" lon="13.077056747336034"><ele>605.6666666666666</ele><time>2026-04-12T14:55:40Z</time></trkpt><trkpt lat="42.093773138928434" lon="13.076827404465442"><ele>602.0</ele><time>2026-04-12T14:55:41Z</time></trkpt><trkpt lat="42.0937157089521" lon="13.076597027482673"><ele>601.6666666666666</ele><time>2026-04-12T14:55:42Z</time></trkpt><trkpt lat="42.09367754689604" lon="13.076359837915014"><ele>601.3333333333334</ele><time>2026-04-12T14:55:43Z</time></trkpt><trkpt lat="42.09365821231355" lon="13.07613105120101"><ele>601.0</ele><time>2026-04-12T14:55:44Z</time></trkpt><trkpt lat="42.093654242934946" lon="13.075904099964418"><ele>600.3333333333334</ele><time>2026-04-12T14:55:45Z</time></trkpt><trkpt lat="42.093663870986646" lon="13.075683599080033"><ele>599.6666666666666</ele><time>2026-04-12T14:55:46Z</time></trkpt><trkpt lat="42.093674704600986" lon="13.075462803074466"><ele>599.0</ele><time>2026-04-12T14:55:47Z</time></trkpt><trkpt lat="42.093686160124335" lon="13.075246775228665"><ele>599.0</ele><time>2026-04-12T14:55:48Z</time></trkpt><trkpt lat="42.0936973867853" lon="13.075025308232508"><ele>599.0</ele><time>2026-04-12T14:55:49Z</time></trkpt><trkpt lat="42.09370705457262" lon="13.074807448828672"><ele>599.0</ele><time>2026-04-12T14:55:50Z</time></trkpt><trkpt lat="42.093716304690986" lon="13.074588215289609"><ele>599.0</ele><time>2026-04-12T14:55:51Z</time></trkpt><trkpt lat="42.09372651464271" lon="13.07436889152587"><ele>599.0</ele><time>2026-04-12T14:55:52Z</time></trkpt><trkpt lat="42.09373357234918" lon="13.07415416211485"><ele>599.0</ele><time>2026-04-12T14:55:53Z</time></trkpt><trkpt lat="42.093742184610996" lon="13.073947018474813"><ele>599.0</ele><time>2026-04-12T14:55:54Z</time></trkpt><trkpt lat="42.09375325562438" lon="13.073747030721849"><ele>599.0</ele><time>2026-04-12T14:55:55Z</time></trkpt><trkpt lat="42.09376076622348" lon="13.073556589511105"><ele>599.0</ele><time>2026-04-12T14:55:56Z</time></trkpt><trkpt lat="42.093765896460454" lon="13.073372927822472"><ele>599.0</ele><time>2026-04-12T14:55:57Z</time></trkpt><trkpt lat="42.09376681606595" lon="13.073196706130746"><ele>599.0</ele><time>2026-04-12T14:55:58Z</time></trkpt><trkpt lat="42.093759025163244" lon="13.073018828573803"><ele>599.0</ele><time>2026-04-12T14:55:59Z</time></trkpt><trkpt lat="42.09374444892269" lon="13.072837529032624"><ele>599.0</ele><time>2026-04-12T14:56:00Z</time></trkpt><trkpt lat="42.0937207168505" lon="13.072656304916613"><ele>599.0</ele><time>2026-04-12T14:56:01Z</time></trkpt><trkpt lat="42.09368224425395" lon="13.072479835241833"><ele>598.5</ele><time>2026-04-12T14:56:02Z</time></trkpt><trkpt lat="42.093627887931476" lon="13.072309059385256"><ele>598.0</ele><time>2026-04-12T14:56:03Z</time></trkpt><trkpt lat="42.093561287846136" lon="13.072142911023647"><ele>597.5</ele><time>2026-04-12T14:56:04Z</time></trkpt><trkpt lat="42.09348389828056" lon="13.071983809956963"><ele>597.0</ele><time>2026-04-12T14:56:05Z</time></trkpt><trkpt lat="42.09339744204008" lon="13.071830868930189"><ele>597.0</ele><time>2026-04-12T14:56:06Z</time></trkpt><trkpt lat="42.09330830857591" lon="13.071674778630724"><ele>597.0</ele><time>2026-04-12T14:56:07Z</time></trkpt><trkpt lat="42.093216364739035" lon="13.071519145485572"><ele>597.0</ele><time>2026-04-12T14:56:08Z</time></trkpt><trkpt lat="42.093124491439475" lon="13.071370470803572"><ele>597.0</ele><time>2026-04-12T14:56:09Z</time></trkpt><trkpt lat="42.09303291247525" lon="13.071226792041331"><ele>595.75</ele><time>2026-04-12T14:56:10Z</time></trkpt><trkpt lat="42.09294392913049" lon="13.071083795623236"><ele>594.5</ele><time>2026-04-12T14:56:11Z</time></trkpt><trkpt lat="42.09285674286628" lon="13.070943541291816"><ele>593.25</ele><time>2026-04-12T14:56:12Z</time></trkpt><trkpt lat="42.09276895944475" lon="13.070808826470866"><ele>592.0</ele><time>2026-04-12T14:56:13Z</time></trkpt><trkpt lat="42.09268395744289" lon="13.070680667565588"><ele>591.6666666666667</ele><time>2026-04-12T14:56:14Z</time></trkpt><trkpt lat="42.09260789848168" lon="13.070567466436977"><ele>591.3333333333334</ele><time>2026-04-12T14:56:15Z</time></trkpt><trkpt lat="42.092548869887416" lon="13.070476208393522"><ele>591.0</ele><time>2026-04-12T14:56:15.999Z</time></trkpt><trkpt lat="42.09250085778425" lon="13.070401830345403"><ele>590.6666666666666</ele><time>2026-04-12T14:56:16.999Z</time></trkpt><trkpt lat="42.09245905266726" lon="13.070336393148908"><ele>590.3333333333333</ele><time>2026-04-12T14:56:17.999Z</time></trkpt><trkpt lat="42.09241642376221" lon="13.070269773481739"><ele>590.0</ele><time>2026-04-12T14:56:18.999Z</time></trkpt><trkpt lat="42.09235972805799" lon="13.070199543724868"><ele>589.8</ele><time>2026-04-12T14:56:19.999Z</time></trkpt><trkpt lat="42.09229494451822" lon="13.070129957098189"><ele>589.6</ele><time>2026-04-12T14:56:20.999Z</time></trkpt><trkpt lat="42.09223133158622" lon="13.070043296402291"><ele>589.4</ele><time>2026-04-12T14:56:21.999Z</time></trkpt><trkpt lat="42.092168307603195" lon="13.069938791142226"><ele>589.2</ele><time>2026-04-12T14:56:22.999Z</time></trkpt><trkpt lat="42.0921085992021" lon="13.069814330312944"><ele>589.0</ele><time>2026-04-12T14:56:23.999Z</time></trkpt><trkpt lat="42.09204656998759" lon="13.069680002610072"><ele>589.0</ele><time>2026-04-12T14:56:24.999Z</time></trkpt><trkpt lat="42.09198355480878" lon="13.069538087557362"><ele>589.0</ele><time>2026-04-12T14:56:25.999Z</time></trkpt><trkpt lat="42.09191361806621" lon="13.069391084420886"><ele>589.0</ele><time>2026-04-12T14:56:26.999Z</time></trkpt><trkpt lat="42.09183694631571" lon="13.069242547987548"><ele>589.0</ele><time>2026-04-12T14:56:27.999Z</time></trkpt><trkpt lat="42.09175890219311" lon="13.06909493546515"><ele>589.5</ele><time>2026-04-12T14:56:28.999Z</time></trkpt><trkpt lat="42.09168128727648" lon="13.068950639792266"><ele>590.0</ele><time>2026-04-12T14:56:29.999Z</time></trkpt><trkpt lat="42.091604947753844" lon="13.068806557014193"><ele>590.5</ele><time>2026-04-12T14:56:30.999Z</time></trkpt><trkpt lat="42.09152730965233" lon="13.068657558837664"><ele>591.0</ele><time>2026-04-12T14:56:31.999Z</time></trkpt><trkpt lat="42.09145031821635" lon="13.06851588340677"><ele>590.0</ele><time>2026-04-12T14:56:32.999Z</time></trkpt><trkpt lat="42.09137323483229" lon="13.068374966976231"><ele>589.0</ele><time>2026-04-12T14:56:33.999Z</time></trkpt><trkpt lat="42.09129733837484" lon="13.068226632661558"><ele>588.0</ele><time>2026-04-12T14:56:34.999Z</time></trkpt><trkpt lat="42.0912123849367" lon="13.068064090073669"><ele>587.0</ele><time>2026-04-12T14:56:35.999Z</time></trkpt><trkpt lat="42.091121479879234" lon="13.067897806623531"><ele>587.0</ele><time>2026-04-12T14:56:36.999Z</time></trkpt><trkpt lat="42.091028493118046" lon="13.067734721326477"><ele>587.0</ele><time>2026-04-12T14:56:37.999Z</time></trkpt><trkpt lat="42.09092821450116" lon="13.067579310129075"><ele>587.0</ele><time>2026-04-12T14:56:38.999Z</time></trkpt><trkpt lat="42.090816774697515" lon="13.067438793490291"><ele>586.3333333333333</ele><time>2026-04-12T14:56:39.999Z</time></trkpt><trkpt lat="42.090696086546" lon="13.067309698359468"><ele>585.6666666666666</ele><time>2026-04-12T14:56:40.999Z</time></trkpt><trkpt lat="42.09056771086928" lon="13.06719070285767"><ele>585.0</ele><time>2026-04-12T14:56:41.999Z</time></trkpt><trkpt lat="42.09042776347007" lon="13.06707794487764"><ele>585.0</ele><time>2026-04-12T14:56:42.999Z</time></trkpt><trkpt lat="42.09028954462448" lon="13.066975115331168"><ele>585.0</ele><time>2026-04-12T14:56:43.999Z</time></trkpt><trkpt lat="42.090136613216146" lon="13.066839715345223"><ele>585.0</ele><time>2026-04-12T14:56:44.999Z</time></trkpt><trkpt lat="42.08997337390288" lon="13.066733355583922"><ele>585.0</ele><time>2026-04-12T14:56:45.999Z</time></trkpt><trkpt lat="42.08981817131882" lon="13.066628224552014"><ele>585.0</ele><time>2026-04-12T14:56:46.999Z</time></trkpt><trkpt lat="42.089657934308" lon="13.066525046066968"><ele>585.0</ele><time>2026-04-12T14:56:47.999Z</time></trkpt><trkpt lat="42.08949789817987" lon="13.066422132910919"><ele>585.0</ele><time>2026-04-12T14:56:48.999Z</time></trkpt><trkpt lat="42.08934670938658" lon="13.066328144098222"><ele>585.0</ele><time>2026-04-12T14:56:49.999Z</time></trkpt><trkpt lat="42.089193402717335" lon="13.066225133457152"><ele>585.0</ele><time>2026-04-12T14:56:50.999Z</time></trkpt><trkpt lat="42.08904789333993" lon="13.066128221195797"><ele>585.0</ele><time>2026-04-12T14:56:51.999Z</time></trkpt><trkpt lat="42.088900934951525" lon="13.066027990785214"><ele>585.0</ele><time>2026-04-12T14:56:52.999Z</time></trkpt><trkpt lat="42.08875887087893" lon="13.06593203492533"><ele>585.0</ele><time>2026-04-12T14:56:53.999Z</time></trkpt><trkpt lat="42.08862587110183" lon="13.065845146706634"><ele>585.3333333333334</ele><time>2026-04-12T14:56:54.999Z</time></trkpt><trkpt lat="42.08849087689726" lon="13.0657501225617"><ele>585.6666666666667</ele><time>2026-04-12T14:56:55.999Z</time></trkpt><trkpt lat="42.08835742408077" lon="13.065654869124707"><ele>586.0</ele><time>2026-04-12T14:56:56.999Z</time></trkpt><trkpt lat="42.08822251637001" lon="13.065565722826214"><ele>586.5</ele><time>2026-04-12T14:56:57.999Z</time></trkpt><trkpt lat="42.088093317429966" lon="13.065476458564184"><ele>587.0</ele><time>2026-04-12T14:56:58.999Z</time></trkpt><trkpt lat="42.08796664096555" lon="13.065390919787292"><ele>587.5</ele><time>2026-04-12T14:56:59.999Z</time></trkpt><trkpt lat="42.087842720490286" lon="13.06531326614209"><ele>588.0</ele><time>2026-04-12T14:57:00.999Z</time></trkpt><trkpt lat="42.08772677422333" lon="13.065227447649365"><ele>588.0</ele><time>2026-04-12T14:57:01.999Z</time></trkpt><trkpt lat="42.08761807147826" lon="13.06514735225448"><ele>588.0</ele><time>2026-04-12T14:57:02.999Z</time></trkpt><trkpt lat="42.08751098319488" lon="13.06506323115255"><ele>588.0</ele><time>2026-04-12T14:57:03.999Z</time></trkpt><trkpt lat="42.08740521806399" lon="13.064974909832381"><ele>588.0</ele><time>2026-04-12T14:57:04.999Z</time></trkpt><trkpt lat="42.08729915751305" lon="13.06489364696918"><ele>588.5</ele><time>2026-04-12T14:57:05.999Z</time></trkpt><trkpt lat="42.087189475851474" lon="13.064803073908184"><ele>589.0</ele><time>2026-04-12T14:57:06.999Z</time></trkpt><trkpt lat="42.08708552490543" lon="13.06470189890409"><ele>589.5</ele><time>2026-04-12T14:57:07.999Z</time></trkpt><trkpt lat="42.08697653079231" lon="13.064595708390025"><ele>590.0</ele><time>2026-04-12T14:57:08.998Z</time></trkpt><trkpt lat="42.08686891224192" lon="13.06449684061103"><ele>590.0</ele><time>2026-04-12T14:57:09.998Z</time></trkpt><trkpt lat="42.08675970710856" lon="13.064395671281778"><ele>590.0</ele><time>2026-04-12T14:57:10.998Z</time></trkpt><trkpt lat="42.08665134487327" lon="13.064294613861447"><ele>590.0</ele><time>2026-04-12T14:57:11.998Z</time></trkpt><trkpt lat="42.08654226388593" lon="13.064196153518987"><ele>590.0</ele><time>2026-04-12T14:57:12.998Z</time></trkpt><trkpt lat="42.08643289293326" lon="13.064099850799336"><ele>590.2</ele><time>2026-04-12T14:57:13.998Z</time></trkpt><trkpt lat="42.08634020669615" lon="13.064005891359399"><ele>590.4</ele><time>2026-04-12T14:57:14.998Z</time></trkpt><trkpt lat="42.08625371268315" lon="13.063913373965038"><ele>590.6</ele><time>2026-04-12T14:57:15.998Z</time></trkpt><trkpt lat="42.086170095028436" lon="13.063832792142605"><ele>590.8</ele><time>2026-04-12T14:57:16.998Z</time></trkpt><trkpt lat="42.086088095663854" lon="13.063752401043983"><ele>591.0</ele><time>2026-04-12T14:57:17.998Z</time></trkpt><trkpt lat="42.08601178928828" lon="13.06367875165022"><ele>591.0</ele><time>2026-04-12T14:57:18.998Z</time></trkpt><trkpt lat="42.08592138532702" lon="13.063608633858625"><ele>591.0</ele><time>2026-04-12T14:57:19.998Z</time></trkpt><trkpt lat="42.085818792087096" lon="13.063528354793895"><ele>591.0</ele><time>2026-04-12T14:57:20.998Z</time></trkpt><trkpt lat="42.08570893687707" lon="13.063432780808933"><ele>591.0</ele><time>2026-04-12T14:57:21.998Z</time></trkpt><trkpt lat="42.0855935178926" lon="13.063321423354326"><ele>591.0</ele><time>2026-04-12T14:57:22.998Z</time></trkpt><trkpt lat="42.085469957150956" lon="13.06319624422296"><ele>591.0</ele><time>2026-04-12T14:57:23.998Z</time></trkpt><trkpt lat="42.08534274260839" lon="13.063073245113246"><ele>591.0</ele><time>2026-04-12T14:57:24.998Z</time></trkpt><trkpt lat="42.08521096669667" lon="13.062949722861164"><ele>591.0</ele><time>2026-04-12T14:57:25.998Z</time></trkpt><trkpt lat="42.08508076596983" lon="13.062829065262754"><ele>591.0</ele><time>2026-04-12T14:57:26.998Z</time></trkpt><trkpt lat="42.084957751190544" lon="13.06271526375822"><ele>591.0</ele><time>2026-04-12T14:57:27.998Z</time></trkpt><trkpt lat="42.084846642815315" lon="13.062610695939558"><ele>591.0</ele><time>2026-04-12T14:57:28.998Z</time></trkpt><trkpt lat="42.084752000146615" lon="13.062521176231924"><ele>591.0</ele><time>2026-04-12T14:57:29.998Z</time></trkpt><trkpt lat="42.084665135570965" lon="13.062438843357626"><ele>591.0</ele><time>2026-04-12T14:57:30.998Z</time></trkpt><trkpt lat="42.08458858219016" lon="13.062368590149465"><ele>591.0</ele><time>2026-04-12T14:57:32Z</time></trkpt><trkpt lat="42.08451684639088" lon="13.062300530073541"><ele>591.0</ele><time>2026-04-12T14:57:33Z</time></trkpt><trkpt lat="42.084446143944895" lon="13.062232552001133"><ele>591.0</ele><time>2026-04-12T14:57:34Z</time></trkpt><trkpt lat="42.08437021315636" lon="13.062162756692526"><ele>591.0</ele><time>2026-04-12T14:57:35Z</time></trkpt><trkpt lat="42.08429429465598" lon="13.062092752346823"><ele>591.0</ele><time>2026-04-12T14:57:36Z</time></trkpt><trkpt lat="42.084218758413" lon="13.06202189522193"><ele>591.0</ele><time>2026-04-12T14:57:37Z</time></trkpt><trkpt lat="42.084142629180086" lon="13.061947595236143"><ele>591.0</ele><time>2026-04-12T14:57:38Z</time></trkpt><trkpt lat="42.08406902275625" lon="13.06187009869453"><ele>591.0</ele><time>2026-04-12T14:57:39Z</time></trkpt><trkpt lat="42.08399166428569" lon="13.061795145355946"><ele>591.2</ele><time>2026-04-12T14:57:40Z</time></trkpt><trkpt lat="42.083910087910326" lon="13.061720585351498"><ele>591.4000000000001</ele><time>2026-04-12T14:57:41Z</time></trkpt><trkpt lat="42.08382454343239" lon="13.061640136908894"><ele>591.6</ele><time>2026-04-12T14:57:42Z</time></trkpt><trkpt lat="42.083735045840626" lon="13.061552706870458"><ele>591.8000000000001</ele><time>2026-04-12T14:57:43Z</time></trkpt><trkpt lat="42.08364036495897" lon="13.061460633905398"><ele>592.0</ele><time>2026-04-12T14:57:44Z</time></trkpt><trkpt lat="42.08354147639713" lon="13.061367537578398"><ele>592.0</ele><time>2026-04-12T14:57:45Z</time></trkpt><trkpt lat="42.083441837575926" lon="13.06127002233435"><ele>592.0</ele><time>2026-04-12T14:57:46Z</time></trkpt><trkpt lat="42.083339994305135" lon="13.061165655271312"><ele>592.0</ele><time>2026-04-12T14:57:47Z</time></trkpt><trkpt lat="42.08323506783943" lon="13.061061485231345"><ele>592.0</ele><time>2026-04-12T14:57:48Z</time></trkpt><trkpt lat="42.083128010636315" lon="13.060958851121073"><ele>592.75</ele><time>2026-04-12T14:57:49Z</time></trkpt><trkpt lat="42.08302091388738" lon="13.060852710548758"><ele>593.5</ele><time>2026-04-12T14:57:50Z</time></trkpt><trkpt lat="42.08291543660101" lon="13.060745411332302"><ele>594.25</ele><time>2026-04-12T14:57:51Z</time></trkpt><trkpt lat="42.082810159769856" lon="13.060643015323773"><ele>595.0</ele><time>2026-04-12T14:57:52Z</time></trkpt><trkpt lat="42.08270828124882" lon="13.060538688143728"><ele>595.0</ele><time>2026-04-12T14:57:53Z</time></trkpt><trkpt lat="42.082608423746294" lon="13.0604380624005"><ele>595.0</ele><time>2026-04-12T14:57:54Z</time></trkpt><trkpt lat="42.08251014492429" lon="13.060340717154059"><ele>595.0</ele><time>2026-04-12T14:57:55Z</time></trkpt><trkpt lat="42.08242447108569" lon="13.060244679690172"><ele>595.0</ele><time>2026-04-12T14:57:56Z</time></trkpt><trkpt lat="42.08234415218299" lon="13.06014877209812"><ele>594.8333333333334</ele><time>2026-04-12T14:57:57Z</time></trkpt><trkpt lat="42.08227330665245" lon="13.060052846258401"><ele>594.6666666666667</ele><time>2026-04-12T14:57:58Z</time></trkpt><trkpt lat="42.0822130337559" lon="13.05995216845463"><ele>594.5</ele><time>2026-04-12T14:57:59Z</time></trkpt><trkpt lat="42.08217100041919" lon="13.059845685834938"><ele>594.3333333333334</ele><time>2026-04-12T14:58:00Z</time></trkpt><trkpt lat="42.08215220098465" lon="13.05973717698455"><ele>594.1666666666666</ele><time>2026-04-12T14:58:01Z</time></trkpt><trkpt lat="42.08215839504098" lon="13.059633359098642"><ele>594.0</ele><time>2026-04-12T14:58:02Z</time></trkpt><trkpt lat="42.08218928032298" lon="13.059544720062899"><ele>594.0</ele><time>2026-04-12T14:58:03Z</time></trkpt><trkpt lat="42.08225126015787" lon="13.059487151450798"><ele>594.0</ele><time>2026-04-12T14:58:04Z</time></trkpt><trkpt lat="42.08239039144378" lon="13.059453737326898"><ele>594.0</ele><time>2026-04-12T14:58:06Z</time></trkpt><trkpt lat="42.08245718639244" lon="13.059440228469462"><ele>594.0</ele><time>2026-04-12T14:58:07Z</time></trkpt><trkpt lat="42.08252604949212" lon="13.059442411066849"><ele>594.0</ele><time>2026-04-12T14:58:08Z</time></trkpt><trkpt lat="42.08258756097861" lon="13.059513883549252"><ele>594.0</ele><time>2026-04-12T14:58:09Z</time></trkpt><trkpt lat="42.08265437711772" lon="13.059542376348015"><ele>593.8333333333334</ele><time>2026-04-12T14:58:10Z</time></trkpt><trkpt lat="42.082718162847556" lon="13.059577979153842"><ele>593.6666666666666</ele><time>2026-04-12T14:58:11Z</time></trkpt><trkpt lat="42.08279133428891" lon="13.059576378633576"><ele>593.5</ele><time>2026-04-12T14:58:12Z</time></trkpt><trkpt lat="42.08284692767671" lon="13.059685240809278"><ele>593.3333333333333</ele><time>2026-04-12T14:58:13Z</time></trkpt><trkpt lat="42.0829110276456" lon="13.059744843983413"><ele>593.1666666666666</ele><time>2026-04-12T14:58:14Z</time></trkpt><trkpt lat="42.08297758533423" lon="13.05979765144384"><ele>593.0</ele><time>2026-04-12T14:58:15Z</time></trkpt><trkpt lat="42.08304849140833" lon="13.059845222477144"><ele>593.0</ele><time>2026-04-12T14:58:16Z</time></trkpt><trkpt lat="42.08312443820387" lon="13.059886012793775"><ele>593.0</ele><time>2026-04-12T14:58:17Z</time></trkpt><trkpt lat="42.083201574812016" lon="13.05991495059191"><ele>593.0</ele><time>2026-04-12T14:58:18Z</time></trkpt><trkpt lat="42.083279390299246" lon="13.059942232761719"><ele>593.0</ele><time>2026-04-12T14:58:19Z</time></trkpt><trkpt lat="42.08335334800361" lon="13.059964710629865"><ele>593.0</ele><time>2026-04-12T14:58:19.999Z</time></trkpt><trkpt lat="42.083424802587885" lon="13.059978267114921"><ele>593.0</ele><time>2026-04-12T14:58:20.999Z</time></trkpt><trkpt lat="42.08349162171017" lon="13.059985736276257"><ele>593.0</ele><time>2026-04-12T14:58:21.999Z</time></trkpt><trkpt lat="42.08361141016981" lon="13.060002989442905"><ele>593.0</ele><time>2026-04-12T14:58:23.999Z</time></trkpt><trkpt lat="42.08370693928015" lon="13.059998372688625"><ele>593.0</ele><time>2026-04-12T14:58:25.999Z</time></trkpt><trkpt lat="42.08378039387954" lon="13.059982746782143"><ele>593.0</ele><time>2026-04-12T14:58:29.999Z</time></trkpt><trkpt lat="42.08386499504308" lon="13.059943433426268"><ele>593.0</ele><time>2026-04-12T14:58:33.999Z</time></trkpt><trkpt lat="42.083940972327724" lon="13.059908962664812"><ele>592.8333333333333</ele><time>2026-04-12T14:58:36.999Z</time></trkpt><trkpt lat="42.08400639556439" lon="13.05989659896126"><ele>592.6666666666666</ele><time>2026-04-12T14:58:39.999Z</time></trkpt><trkpt lat="42.084075263839345" lon="13.059895559699502"><ele>592.5</ele><time>2026-04-12T14:58:42.999Z</time></trkpt><trkpt lat="42.08415484609749" lon="13.05991064912503"><ele>592.3333333333334</ele><time>2026-04-12T14:58:44.999Z</time></trkpt><trkpt lat="42.08425369992063" lon="13.0599280641732"><ele>592.1666666666667</ele><time>2026-04-12T14:58:46.999Z</time></trkpt><trkpt lat="42.08434619530818" lon="13.059891740814068"><ele>592.0</ele><time>2026-04-12T14:58:48.999Z</time></trkpt><trkpt lat="42.084405448055136" lon="13.059964790380416"><ele>592.0</ele><time>2026-04-12T14:58:49.999Z</time></trkpt><trkpt lat="42.084495688520875" lon="13.05998911503036"><ele>592.0</ele><time>2026-04-12T14:58:51.999Z</time></trkpt><trkpt lat="42.08457067294531" lon="13.060013871477452"><ele>592.0</ele><time>2026-04-12T14:58:53.999Z</time></trkpt><trkpt lat="42.08465048399412" lon="13.060019426223583"><ele>592.0</ele><time>2026-04-12T14:58:55.999Z</time></trkpt><trkpt lat="42.08472792666543" lon="13.060024354277703"><ele>592.0</ele><time>2026-04-12T14:58:57.999Z</time></trkpt><trkpt lat="42.08480067815073" lon="13.060025317858692"><ele>592.0</ele><time>2026-04-12T14:58:59.999Z</time></trkpt><trkpt lat="42.08487368739334" lon="13.060018167065063"><ele>592.0</ele><time>2026-04-12T14:59:01.999Z</time></trkpt><trkpt lat="42.08496344333939" lon="13.059998360004723"><ele>592.0</ele><time>2026-04-12T14:59:03.999Z</time></trkpt><trkpt lat="42.08506808794048" lon="13.059965032695882"><ele>592.0</ele><time>2026-04-12T14:59:05.999Z</time></trkpt><trkpt lat="42.08518728131893" lon="13.059917436433176"><ele>592.0</ele><time>2026-04-12T14:59:07.999Z</time></trkpt><trkpt lat="42.085250084633195" lon="13.059888744938714"><ele>592.0</ele><time>2026-04-12T14:59:08.999Z</time></trkpt><trkpt lat="42.08531240048213" lon="13.059852743638514"><ele>591.6666666666667</ele><time>2026-04-12T14:59:09.999Z</time></trkpt><trkpt lat="42.08537570923658" lon="13.059809641152064"><ele>591.3333333333334</ele><time>2026-04-12T14:59:10.999Z</time></trkpt><trkpt lat="42.08544491627282" lon="13.05976164951387"><ele>591.0</ele><time>2026-04-12T14:59:11.999Z</time></trkpt><trkpt lat="42.08552386475249" lon="13.059700872964171"><ele>590.6666666666666</ele><time>2026-04-12T14:59:12.999Z</time></trkpt><trkpt lat="42.08560265712303" lon="13.059637240863864"><ele>590.3333333333333</ele><time>2026-04-12T14:59:13.998Z</time></trkpt><trkpt lat="42.08568842828689" lon="13.059564663563497"><ele>590.0</ele><time>2026-04-12T14:59:14.998Z</time></trkpt><trkpt lat="42.085776571224244" lon="13.05948675898679"><ele>591.0</ele><time>2026-04-12T14:59:15.998Z</time></trkpt><trkpt lat="42.08586727044718" lon="13.059407771266642"><ele>592.0</ele><time>2026-04-12T14:59:16.998Z</time></trkpt><trkpt lat="42.0859643625019" lon="13.059328887757307"><ele>593.0</ele><time>2026-04-12T14:59:17.998Z</time></trkpt><trkpt lat="42.08606624914415" lon="13.059250885469348"><ele>594.0</ele><time>2026-04-12T14:59:18.998Z</time></trkpt><trkpt lat="42.08616710380057" lon="13.059167328439983"><ele>593.75</ele><time>2026-04-12T14:59:19.998Z</time></trkpt><trkpt lat="42.08627312018648" lon="13.059080269699"><ele>593.5</ele><time>2026-04-12T14:59:20.998Z</time></trkpt><trkpt lat="42.08638666936576" lon="13.058986002192778"><ele>593.25</ele><time>2026-04-12T14:59:21.998Z</time></trkpt><trkpt lat="42.08651673398533" lon="13.058881507764575"><ele>593.0</ele><time>2026-04-12T14:59:22.998Z</time></trkpt><trkpt lat="42.086658183924825" lon="13.05876921429232"><ele>593.0</ele><time>2026-04-12T14:59:23.998Z</time></trkpt><trkpt lat="42.08679429594948" lon="13.058664803439628"><ele>593.0</ele><time>2026-04-12T14:59:24.998Z</time></trkpt><trkpt lat="42.08692276468826" lon="13.058565065951946"><ele>593.0</ele><time>2026-04-12T14:59:25.998Z</time></trkpt><trkpt lat="42.087046429409384" lon="13.058464968130282"><ele>593.0</ele><time>2026-04-12T14:59:26.998Z</time></trkpt><trkpt lat="42.08717041647214" lon="13.058364090477655"><ele>592.5</ele><time>2026-04-12T14:59:27.998Z</time></trkpt><trkpt lat="42.087292346825976" lon="13.058266284905713"><ele>592.0</ele><time>2026-04-12T14:59:28.998Z</time></trkpt><trkpt lat="42.087413519845875" lon="13.058170556555277"><ele>591.5</ele><time>2026-04-12T14:59:29.998Z</time></trkpt><trkpt lat="42.08753130576331" lon="13.058074668376051"><ele>591.0</ele><time>2026-04-12T14:59:30.998Z</time></trkpt><trkpt lat="42.0876466512734" lon="13.057974354440821"><ele>590.75</ele><time>2026-04-12T14:59:31.998Z</time></trkpt><trkpt lat="42.087760071226654" lon="13.05786699566557"><ele>590.5</ele><time>2026-04-12T14:59:32.998Z</time></trkpt><trkpt lat="42.087867267117524" lon="13.057749240330057"><ele>590.25</ele><time>2026-04-12T14:59:33.998Z</time></trkpt><trkpt lat="42.08796526951945" lon="13.05761773736659"><ele>590.0</ele><time>2026-04-12T14:59:34.998Z</time></trkpt><trkpt lat="42.08804785619725" lon="13.05747484087158"><ele>589.25</ele><time>2026-04-12T14:59:35.998Z</time></trkpt><trkpt lat="42.088118560718165" lon="13.057326211791151"><ele>588.5</ele><time>2026-04-12T14:59:37Z</time></trkpt><trkpt lat="42.0881678731148" lon="13.05716858354011"><ele>587.75</ele><time>2026-04-12T14:59:38Z</time></trkpt><trkpt lat="42.088193598497504" lon="13.057003083954868"><ele>587.0</ele><time>2026-04-12T14:59:39Z</time></trkpt><trkpt lat="42.08820685755238" lon="13.056839221658059"><ele>587.0</ele><time>2026-04-12T14:59:40Z</time></trkpt><trkpt lat="42.0881842670912" lon="13.056675872486187"><ele>587.0</ele><time>2026-04-12T14:59:41Z</time></trkpt><trkpt lat="42.08814128355583" lon="13.056524171875823"><ele>587.0</ele><time>2026-04-12T14:59:42Z</time></trkpt><trkpt lat="42.08808786740827" lon="13.056383716630908"><ele>587.0</ele><time>2026-04-12T14:59:43Z</time></trkpt><trkpt lat="42.08801090800125" lon="13.056261389967062"><ele>587.25</ele><time>2026-04-12T14:59:44Z</time></trkpt><trkpt lat="42.08791251276023" lon="13.056163737470994"><ele>587.5</ele><time>2026-04-12T14:59:45Z</time></trkpt><trkpt lat="42.08779929750544" lon="13.056089616063941"><ele>587.75</ele><time>2026-04-12T14:59:46Z</time></trkpt><trkpt lat="42.08766569563357" lon="13.056048943697245"><ele>588.0</ele><time>2026-04-12T14:59:47Z</time></trkpt><trkpt lat="42.08752632957008" lon="13.056028364740325"><ele>588.0</ele><time>2026-04-12T14:59:48Z</time></trkpt><trkpt lat="42.087376777485936" lon="13.056012747593623"><ele>588.0</ele><time>2026-04-12T14:59:49Z</time></trkpt><trkpt lat="42.08722559806401" lon="13.055997824245942"><ele>588.0</ele><time>2026-04-12T14:59:50Z</time></trkpt><trkpt lat="42.08707380692574" lon="13.055984251415994"><ele>588.0</ele><time>2026-04-12T14:59:51Z</time></trkpt><trkpt lat="42.08692163648123" lon="13.055979268429919"><ele>588.0</ele><time>2026-04-12T14:59:52Z</time></trkpt><trkpt lat="42.08676550973194" lon="13.055989366783754"><ele>588.0</ele><time>2026-04-12T14:59:53Z</time></trkpt><trkpt lat="42.086603902371195" lon="13.05601497119069"><ele>588.3333333333334</ele><time>2026-04-12T14:59:54Z</time></trkpt><trkpt lat="42.086442828688554" lon="13.056044324615904"><ele>588.6666666666667</ele><time>2026-04-12T14:59:55Z</time></trkpt><trkpt lat="42.08628772301358" lon="13.056067070829297"><ele>589.0</ele><time>2026-04-12T14:59:56Z</time></trkpt><trkpt lat="42.086134921647016" lon="13.056074044247186"><ele>589.0</ele><time>2026-04-12T14:59:57Z</time></trkpt><trkpt lat="42.08598625618892" lon="13.056075004576439"><ele>589.0</ele><time>2026-04-12T14:59:58Z</time></trkpt><trkpt lat="42.08584572681543" lon="13.056065756284305"><ele>589.0</ele><time>2026-04-12T14:59:59Z</time></trkpt><trkpt lat="42.085710523540726" lon="13.056024885831178"><ele>589.0</ele><time>2026-04-12T15:00:00Z</time></trkpt><trkpt lat="42.08557108919413" lon="13.055949262653586"><ele>589.6666666666667</ele><time>2026-04-12T15:00:01Z</time></trkpt><trkpt lat="42.08543056444853" lon="13.05585133146631"><ele>590.3333333333334</ele><time>2026-04-12T15:00:02Z</time></trkpt><trkpt lat="42.08528833118555" lon="13.055724926617586"><ele>591.0</ele><time>2026-04-12T15:00:03Z</time></trkpt><trkpt lat="42.08514168987607" lon="13.055576041626766"><ele>591.5</ele><time>2026-04-12T15:00:04Z</time></trkpt><trkpt lat="42.084976162516355" lon="13.055395896240034"><ele>592.0</ele><time>2026-04-12T15:00:05Z</time></trkpt><trkpt lat="42.08478415577166" lon="13.05518386279213"><ele>594.0</ele><time>2026-04-12T15:00:06Z</time></trkpt><trkpt lat="42.08456575531411" lon="13.054938721397258"><ele>596.0</ele><time>2026-04-12T15:00:07Z</time></trkpt><trkpt lat="42.08432596555123" lon="13.05467385791508"><ele>596.0</ele><time>2026-04-12T15:00:08Z</time></trkpt><trkpt lat="42.08423244856428" lon="13.054538092773557"><ele>596.0</ele><time>2026-04-12T15:00:09Z</time></trkpt><trkpt lat="42.084029682152604" lon="13.05429811349555"><ele>596.0</ele><time>2026-04-12T15:00:10Z</time></trkpt><trkpt lat="42.08381138475854" lon="13.054044590037824"><ele>595.5</ele><time>2026-04-12T15:00:11Z</time></trkpt><trkpt lat="42.083588539818564" lon="13.053780125830942"><ele>595.0</ele><time>2026-04-12T15:00:12Z</time></trkpt><trkpt lat="42.08336091030847" lon="13.05352164930147"><ele>597.0</ele><time>2026-04-12T15:00:13Z</time></trkpt><trkpt lat="42.08313787781933" lon="13.053261773031204"><ele>599.0</ele><time>2026-04-12T15:00:14Z</time></trkpt><trkpt lat="42.082908360583595" lon="13.053004230294572"><ele>599.0</ele><time>2026-04-12T15:00:15Z</time></trkpt><trkpt lat="42.08267830791196" lon="13.052743505787069"><ele>599.0</ele><time>2026-04-12T15:00:16Z</time></trkpt><trkpt lat="42.08243451844555" lon="13.052484205225355"><ele>601.5</ele><time>2026-04-12T15:00:17Z</time></trkpt><trkpt lat="42.08219603153532" lon="13.052233136484688"><ele>604.0</ele><time>2026-04-12T15:00:18Z</time></trkpt><trkpt lat="42.08195221574371" lon="13.051984442973604"><ele>604.0</ele><time>2026-04-12T15:00:19Z</time></trkpt><trkpt lat="42.08171221343634" lon="13.051743857642402"><ele>604.0</ele><time>2026-04-12T15:00:20Z</time></trkpt><trkpt lat="42.08146629488013" lon="13.051513717752977"><ele>605.5</ele><time>2026-04-12T15:00:21Z</time></trkpt><trkpt lat="42.081214275993766" lon="13.05129788208051"><ele>607.0</ele><time>2026-04-12T15:00:22Z</time></trkpt><trkpt lat="42.08095783778368" lon="13.051088269851892"><ele>608.0</ele><time>2026-04-12T15:00:23Z</time></trkpt><trkpt lat="42.08069987716184" lon="13.050889702829432"><ele>609.0</ele><time>2026-04-12T15:00:24Z</time></trkpt><trkpt lat="42.08043321481442" lon="13.050698502943911"><ele>609.0</ele><time>2026-04-12T15:00:24.999Z</time></trkpt><trkpt lat="42.08016366735591" lon="13.050515534458174"><ele>609.0</ele><time>2026-04-12T15:00:25.999Z</time></trkpt><trkpt lat="42.079893157969934" lon="13.050329872304983"><ele>608.0</ele><time>2026-04-12T15:00:26.999Z</time></trkpt><trkpt lat="42.07962015201311" lon="13.050159558199988"><ele>607.0</ele><time>2026-04-12T15:00:27.999Z</time></trkpt><trkpt lat="42.0793481677113" lon="13.050000466488074"><ele>606.5</ele><time>2026-04-12T15:00:28.999Z</time></trkpt><trkpt lat="42.07907492293967" lon="13.049837901531287"><ele>606.0</ele><time>2026-04-12T15:00:29.999Z</time></trkpt><trkpt lat="42.07879929004265" lon="13.049682945344586"><ele>606.0</ele><time>2026-04-12T15:00:30.999Z</time></trkpt><trkpt lat="42.07850918822712" lon="13.0495608299563"><ele>606.0</ele><time>2026-04-12T15:00:31.999Z</time></trkpt><trkpt lat="42.07823290131302" lon="13.049413683365318"><ele>607.0</ele><time>2026-04-12T15:00:32.999Z</time></trkpt><trkpt lat="42.077957742645054" lon="13.049265404891123"><ele>608.0</ele><time>2026-04-12T15:00:33.999Z</time></trkpt><trkpt lat="42.07768026567556" lon="13.049116571649773"><ele>609.5</ele><time>2026-04-12T15:00:34.999Z</time></trkpt><trkpt lat="42.07739889192248" lon="13.048969474251566"><ele>611.0</ele><time>2026-04-12T15:00:35.999Z</time></trkpt><trkpt lat="42.07712280493843" lon="13.04882192119947"><ele>611.0</ele><time>2026-04-12T15:00:36.999Z</time></trkpt><trkpt lat="42.076840000084516" lon="13.048679407868379"><ele>611.0</ele><time>2026-04-12T15:00:37.999Z</time></trkpt><trkpt lat="42.076564446096924" lon="13.0485322440979"><ele>611.5</ele><time>2026-04-12T15:00:38.999Z</time></trkpt><trkpt lat="42.076284396795884" lon="13.048386995814704"><ele>612.0</ele><time>2026-04-12T15:00:39.999Z</time></trkpt><trkpt lat="42.07601124058054" lon="13.048232520574246"><ele>612.0</ele><time>2026-04-12T15:00:40.999Z</time></trkpt><trkpt lat="42.075739933487455" lon="13.048075586538882"><ele>612.0</ele><time>2026-04-12T15:00:41.999Z</time></trkpt><trkpt lat="42.07546575332685" lon="13.047922590801605"><ele>612.0</ele><time>2026-04-12T15:00:42.999Z</time></trkpt><trkpt lat="42.07519393937232" lon="13.047775856413548"><ele>612.0</ele><time>2026-04-12T15:00:43.999Z</time></trkpt><trkpt lat="42.07492082851346" lon="13.047633149178429"><ele>612.5</ele><time>2026-04-12T15:00:44.999Z</time></trkpt><trkpt lat="42.0746541743575" lon="13.047486262973502"><ele>613.0</ele><time>2026-04-12T15:00:45.999Z</time></trkpt><trkpt lat="42.07439080184814" lon="13.047335567564437"><ele>614.5</ele><time>2026-04-12T15:00:46.999Z</time></trkpt><trkpt lat="42.07412599291729" lon="13.047185462673385"><ele>616.0</ele><time>2026-04-12T15:00:47.999Z</time></trkpt><trkpt lat="42.073862947841555" lon="13.047032908060787"><ele>618.0</ele><time>2026-04-12T15:00:48.999Z</time></trkpt><trkpt lat="42.07360281780955" lon="13.046876358563685"><ele>620.0</ele><time>2026-04-12T15:00:49.999Z</time></trkpt><trkpt lat="42.073345585725875" lon="13.04671498131376"><ele>622.5</ele><time>2026-04-12T15:00:50.999Z</time></trkpt><trkpt lat="42.073092257763186" lon="13.046548997962791"><ele>625.0</ele><time>2026-04-12T15:00:51.999Z</time></trkpt><trkpt lat="42.07284085145596" lon="13.046380074596305"><ele>625.0</ele><time>2026-04-12T15:00:52.999Z</time></trkpt><trkpt lat="42.0725918800063" lon="13.046207743562366"><ele>625.0</ele><time>2026-04-12T15:00:53.999Z</time></trkpt><trkpt lat="42.072345317764984" lon="13.04603076098245"><ele>623.5</ele><time>2026-04-12T15:00:54.999Z</time></trkpt><trkpt lat="42.07210218837766" lon="13.045848932816286"><ele>622.0</ele><time>2026-04-12T15:00:55.999Z</time></trkpt><trkpt lat="42.07186190906867" lon="13.04566017369644"><ele>622.0</ele><time>2026-04-12T15:00:56.999Z</time></trkpt><trkpt lat="42.07162286568718" lon="13.04546324702813"><ele>622.0</ele><time>2026-04-12T15:00:57.999Z</time></trkpt><trkpt lat="42.071387263099055" lon="13.045259393968045"><ele>621.5</ele><time>2026-04-12T15:00:58.999Z</time></trkpt><trkpt lat="42.07115692292905" lon="13.045048307102945"><ele>621.0</ele><time>2026-04-12T15:00:59.999Z</time></trkpt><trkpt lat="42.070927065203556" lon="13.044835126123552"><ele>624.0</ele><time>2026-04-12T15:01:00.999Z</time></trkpt><trkpt lat="42.07070285454077" lon="13.044614963228938"><ele>627.0</ele><time>2026-04-12T15:01:01.999Z</time></trkpt><trkpt lat="42.070479171843374" lon="13.044379747471584"><ele>627.0</ele><time>2026-04-12T15:01:02.999Z</time></trkpt><trkpt lat="42.070262487629414" lon="13.044142220802978"><ele>627.0</ele><time>2026-04-12T15:01:03.999Z</time></trkpt><trkpt lat="42.070048176766605" lon="13.043895897631536"><ele>626.5</ele><time>2026-04-12T15:01:04.999Z</time></trkpt><trkpt lat="42.06984064583463" lon="13.043644153119345"><ele>626.0</ele><time>2026-04-12T15:01:05.999Z</time></trkpt><trkpt lat="42.069636006835516" lon="13.043384557486831"><ele>628.0</ele><time>2026-04-12T15:01:06.999Z</time></trkpt><trkpt lat="42.06943760895716" lon="13.043118694162379"><ele>630.0</ele><time>2026-04-12T15:01:07.999Z</time></trkpt><trkpt lat="42.069242574608886" lon="13.042845735732184"><ele>630.0</ele><time>2026-04-12T15:01:08.999Z</time></trkpt><trkpt lat="42.06905490414697" lon="13.042569352318598"><ele>630.0</ele><time>2026-04-12T15:01:09.999Z</time></trkpt><trkpt lat="42.06886595199268" lon="13.042282040872898"><ele>630.0</ele><time>2026-04-12T15:01:10.999Z</time></trkpt><trkpt lat="42.068687943701974" lon="13.04199397491445"><ele>630.0</ele><time>2026-04-12T15:01:11.999Z</time></trkpt><trkpt lat="42.06850993480543" lon="13.041695417768002"><ele>629.5</ele><time>2026-04-12T15:01:12.999Z</time></trkpt><trkpt lat="42.06834079876517" lon="13.041393437907844"><ele>629.0</ele><time>2026-04-12T15:01:13.999Z</time></trkpt><trkpt lat="42.068179752930426" lon="13.041084977650062"><ele>628.5</ele><time>2026-04-12T15:01:14.999Z</time></trkpt><trkpt lat="42.06802335479372" lon="13.040774523349295"><ele>628.0</ele><time>2026-04-12T15:01:15.999Z</time></trkpt><trkpt lat="42.0678700599344" lon="13.040456938043645"><ele>628.0</ele><time>2026-04-12T15:01:16.999Z</time></trkpt><trkpt lat="42.06772354654941" lon="13.040133933337334"><ele>628.0</ele><time>2026-04-12T15:01:17.998Z</time></trkpt><trkpt lat="42.067588687166754" lon="13.039810381570247"><ele>627.0</ele><time>2026-04-12T15:01:18.998Z</time></trkpt><trkpt lat="42.06745675666159" lon="13.039486430743025"><ele>626.0</ele><time>2026-04-12T15:01:19.998Z</time></trkpt><trkpt lat="42.06733293559919" lon="13.039157318974183"><ele>624.0</ele><time>2026-04-12T15:01:20.998Z</time></trkpt><trkpt lat="42.06721301709881" lon="13.038825749030561"><ele>622.0</ele><time>2026-04-12T15:01:21.998Z</time></trkpt><trkpt lat="42.067098165677976" lon="13.038493874988768"><ele>620.5</ele><time>2026-04-12T15:01:22.998Z</time></trkpt><trkpt lat="42.06698505530375" lon="13.038162163345199"><ele>619.0</ele><time>2026-04-12T15:01:23.998Z</time></trkpt><trkpt lat="42.0668771678342" lon="13.037832319471546"><ele>619.0</ele><time>2026-04-12T15:01:24.998Z</time></trkpt><trkpt lat="42.0667703006573" lon="13.037498816225815"><ele>619.0</ele><time>2026-04-12T15:01:25.998Z</time></trkpt><trkpt lat="42.06667124431547" lon="13.037156918784747"><ele>619.0</ele><time>2026-04-12T15:01:26.998Z</time></trkpt><trkpt lat="42.066577840388966" lon="13.036811238477258"><ele>619.0</ele><time>2026-04-12T15:01:27.998Z</time></trkpt><trkpt lat="42.06649004273482" lon="13.036464247440074"><ele>617.0</ele><time>2026-04-12T15:01:28.998Z</time></trkpt><trkpt lat="42.066403650433834" lon="13.036109908375108"><ele>615.0</ele><time>2026-04-12T15:01:29.998Z</time></trkpt><trkpt lat="42.06632106034545" lon="13.035754093256234"><ele>613.0</ele><time>2026-04-12T15:01:30.998Z</time></trkpt><trkpt lat="42.06624182676981" lon="13.035395900150336"><ele>611.0</ele><time>2026-04-12T15:01:31.998Z</time></trkpt><trkpt lat="42.06616740546413" lon="13.035037005427007"><ele>610.0</ele><time>2026-04-12T15:01:32.998Z</time></trkpt><trkpt lat="42.066096568926376" lon="13.034677068155942"><ele>609.0</ele><time>2026-04-12T15:01:33.998Z</time></trkpt><trkpt lat="42.06602562736486" lon="13.034314397100218"><ele>608.0</ele><time>2026-04-12T15:01:34.998Z</time></trkpt><trkpt lat="42.065955717591855" lon="13.033952932602261"><ele>607.0</ele><time>2026-04-12T15:01:35.998Z</time></trkpt><trkpt lat="42.06588734821475" lon="13.03359342644845"><ele>607.0</ele><time>2026-04-12T15:01:36.998Z</time></trkpt><trkpt lat="42.06582115171743" lon="13.03323261532078"><ele>607.0</ele><time>2026-04-12T15:01:37.998Z</time></trkpt><trkpt lat="42.06575936149614" lon="13.0328725519203"><ele>609.0</ele><time>2026-04-12T15:01:38.998Z</time></trkpt><trkpt lat="42.065701213205436" lon="13.032511183460917"><ele>611.0</ele><time>2026-04-12T15:01:39.998Z</time></trkpt><trkpt lat="42.06564458541725" lon="13.032146869596305"><ele>611.0</ele><time>2026-04-12T15:01:40.998Z</time></trkpt><trkpt lat="42.06558816340482" lon="13.031784890161262"><ele>611.0</ele><time>2026-04-12T15:01:41.998Z</time></trkpt><trkpt lat="42.065529875333404" lon="13.031417174155415"><ele>610.5</ele><time>2026-04-12T15:01:43Z</time></trkpt><trkpt lat="42.06546977159812" lon="13.031056440683459"><ele>610.0</ele><time>2026-04-12T15:01:44Z</time></trkpt><trkpt lat="42.06540432536598" lon="13.030690865191945"><ele>609.5</ele><time>2026-04-12T15:01:45Z</time></trkpt><trkpt lat="42.06533959423373" lon="13.0303261015461"><ele>609.0</ele><time>2026-04-12T15:01:46Z</time></trkpt><trkpt lat="42.06527493815494" lon="13.029962600485732"><ele>611.5</ele><time>2026-04-12T15:01:47Z</time></trkpt><trkpt lat="42.06521162232913" lon="13.029594226775714"><ele>614.0</ele><time>2026-04-12T15:01:48Z</time></trkpt><trkpt lat="42.065147971872925" lon="13.029226758903603"><ele>616.5</ele><time>2026-04-12T15:01:49Z</time></trkpt><trkpt lat="42.065084142912" lon="13.028857354185131"><ele>619.0</ele><time>2026-04-12T15:01:50Z</time></trkpt><trkpt lat="42.06501990881979" lon="13.028488857071478"><ele>617.5</ele><time>2026-04-12T15:01:51Z</time></trkpt><trkpt lat="42.06495731000319" lon="13.028119119201103"><ele>616.0</ele><time>2026-04-12T15:01:52Z</time></trkpt><trkpt lat="42.064893470531295" lon="13.027748753441077"><ele>610.0</ele><time>2026-04-12T15:01:53Z</time></trkpt><trkpt lat="42.06482980860227" lon="13.027381280911586"><ele>604.0</ele><time>2026-04-12T15:01:54Z</time></trkpt><trkpt lat="42.06476369650877" lon="13.02701379852544"><ele>602.0</ele><time>2026-04-12T15:01:55Z</time></trkpt><trkpt lat="42.064700187326615" lon="13.026642674792893"><ele>600.0</ele><time>2026-04-12T15:01:56Z</time></trkpt><trkpt lat="42.06463388908071" lon="13.02627049839282"><ele>600.0</ele><time>2026-04-12T15:01:57Z</time></trkpt><trkpt lat="42.064568922375905" lon="13.02589964766216"><ele>600.0</ele><time>2026-04-12T15:01:58Z</time></trkpt><trkpt lat="42.06450369046827" lon="13.025531637398291"><ele>598.5</ele><time>2026-04-12T15:01:59Z</time></trkpt><trkpt lat="42.064437802566495" lon="13.025163719844336"><ele>597.0</ele><time>2026-04-12T15:02:00Z</time></trkpt><trkpt lat="42.06437500122159" lon="13.024797432360398"><ele>596.5</ele><time>2026-04-12T15:02:01Z</time></trkpt><trkpt lat="42.06431202010062" lon="13.024431640777786"><ele>596.0</ele><time>2026-04-12T15:02:02Z</time></trkpt><trkpt lat="42.0642494458566" lon="13.02407031824336"><ele>596.0</ele><time>2026-04-12T15:02:03Z</time></trkpt><trkpt lat="42.06418607203008" lon="13.023709897968825"><ele>596.0</ele><time>2026-04-12T15:02:04Z</time></trkpt><trkpt lat="42.06412311712666" lon="13.023353740981323"><ele>602.5</ele><time>2026-04-12T15:02:05Z</time></trkpt><trkpt lat="42.06406137570341" lon="13.022997389083791"><ele>609.0</ele><time>2026-04-12T15:02:06Z</time></trkpt><trkpt lat="42.063999203614976" lon="13.022642273008397"><ele>610.5</ele><time>2026-04-12T15:02:07Z</time></trkpt><trkpt lat="42.063937042119235" lon="13.022288353575703"><ele>612.0</ele><time>2026-04-12T15:02:08Z</time></trkpt><trkpt lat="42.06387309188779" lon="13.021935513442749"><ele>610.0</ele><time>2026-04-12T15:02:09Z</time></trkpt><trkpt lat="42.06381060220743" lon="13.021577267628901"><ele>608.0</ele><time>2026-04-12T15:02:10Z</time></trkpt><trkpt lat="42.06374731671416" lon="13.021222242721967"><ele>608.0</ele><time>2026-04-12T15:02:11Z</time></trkpt><trkpt lat="42.06368264084354" lon="13.020867705618441"><ele>608.0</ele><time>2026-04-12T15:02:12Z</time></trkpt><trkpt lat="42.063614708218196" lon="13.020515922329603"><ele>608.0</ele><time>2026-04-12T15:02:13Z</time></trkpt><trkpt lat="42.06354569288378" lon="13.020164575028554"><ele>608.0</ele><time>2026-04-12T15:02:14Z</time></trkpt><trkpt lat="42.0634762106756" lon="13.019814335091086"><ele>608.0</ele><time>2026-04-12T15:02:15Z</time></trkpt><trkpt lat="42.063398689710276" lon="13.019463865863834"><ele>608.0</ele><time>2026-04-12T15:02:16Z</time></trkpt><trkpt lat="42.06331832304417" lon="13.019107081319099"><ele>607.5</ele><time>2026-04-12T15:02:17Z</time></trkpt><trkpt lat="42.06323457882633" lon="13.018752287265396"><ele>607.0</ele><time>2026-04-12T15:02:18Z</time></trkpt><trkpt lat="42.063143993183985" lon="13.01839834244962"><ele>609.5</ele><time>2026-04-12T15:02:19Z</time></trkpt><trkpt lat="42.06304672480979" lon="13.018043172607833"><ele>612.0</ele><time>2026-04-12T15:02:20Z</time></trkpt><trkpt lat="42.06294093838196" lon="13.017687971924614"><ele>609.5</ele><time>2026-04-12T15:02:21Z</time></trkpt><trkpt lat="42.06282903362319" lon="13.017335605948267"><ele>607.0</ele><time>2026-04-12T15:02:22Z</time></trkpt><trkpt lat="42.06270769436765" lon="13.016985766389487"><ele>605.5</ele><time>2026-04-12T15:02:23Z</time></trkpt><trkpt lat="42.06257628561699" lon="13.016639338060632"><ele>604.0</ele><time>2026-04-12T15:02:24Z</time></trkpt><trkpt lat="42.062434433809955" lon="13.016296985362464"><ele>604.0</ele><time>2026-04-12T15:02:25Z</time></trkpt><trkpt lat="42.06228568755538" lon="13.015965536038973"><ele>604.0</ele><time>2026-04-12T15:02:26Z</time></trkpt><trkpt lat="42.06212818283679" lon="13.015644101529343"><ele>606.0</ele><time>2026-04-12T15:02:27Z</time></trkpt><trkpt lat="42.06195870835846" lon="13.015330916153742"><ele>608.0</ele><time>2026-04-12T15:02:28Z</time></trkpt><trkpt lat="42.06178067988512" lon="13.015028112386943"><ele>606.5</ele><time>2026-04-12T15:02:28.999Z</time></trkpt><trkpt lat="42.061594019957084" lon="13.014739445041839"><ele>605.0</ele><time>2026-04-12T15:02:29.999Z</time></trkpt><trkpt lat="42.06140012633311" lon="13.014458608185766"><ele>605.0</ele><time>2026-04-12T15:02:30.999Z</time></trkpt><trkpt lat="42.06119994923273" lon="13.014188968725382"><ele>605.0</ele><time>2026-04-12T15:02:31.999Z</time></trkpt><trkpt lat="42.06099336519262" lon="13.013929970256395"><ele>604.0</ele><time>2026-04-12T15:02:32.999Z</time></trkpt><trkpt lat="42.060776825448315" lon="13.013683548023806"><ele>603.0</ele><time>2026-04-12T15:02:33.999Z</time></trkpt><trkpt lat="42.06055554797667" lon="13.013454556001989"><ele>608.0</ele><time>2026-04-12T15:02:34.999Z</time></trkpt><trkpt lat="42.06032831943034" lon="13.013236412460822"><ele>613.0</ele><time>2026-04-12T15:02:35.999Z</time></trkpt><trkpt lat="42.060098663866754" lon="13.013039507699217"><ele>609.0</ele><time>2026-04-12T15:02:36.999Z</time></trkpt><trkpt lat="42.05986606224943" lon="13.01285226764212"><ele>605.0</ele><time>2026-04-12T15:02:37.999Z</time></trkpt><trkpt lat="42.0596300591184" lon="13.012680604818062"><ele>605.0</ele><time>2026-04-12T15:02:38.999Z</time></trkpt><trkpt lat="42.05939186982244" lon="13.012511567336102"><ele>605.0</ele><time>2026-04-12T15:02:39.999Z</time></trkpt><trkpt lat="42.05915104766522" lon="13.012357986706938"><ele>596.5</ele><time>2026-04-12T15:02:40.999Z</time></trkpt><trkpt lat="42.05890021469419" lon="13.012228420607439"><ele>588.0</ele><time>2026-04-12T15:02:41.999Z</time></trkpt><trkpt lat="42.05865140069755" lon="13.01211496405985"><ele>588.0</ele><time>2026-04-12T15:02:42.999Z</time></trkpt><trkpt lat="42.05840043936221" lon="13.012005162577124"><ele>588.0</ele><time>2026-04-12T15:02:43.999Z</time></trkpt><trkpt lat="42.058150256414386" lon="13.011913221800068"><ele>586.0</ele><time>2026-04-12T15:02:44.999Z</time></trkpt><trkpt lat="42.05790143449796" lon="13.01183710643518"><ele>584.0</ele><time>2026-04-12T15:02:45.999Z</time></trkpt><trkpt lat="42.057654941857855" lon="13.011774793559159"><ele>590.5</ele><time>2026-04-12T15:02:46.999Z</time></trkpt><trkpt lat="42.05740806844868" lon="13.011730852638255"><ele>597.0</ele><time>2026-04-12T15:02:47.999Z</time></trkpt><trkpt lat="42.057160179331234" lon="13.011692918727999"><ele>597.0</ele><time>2026-04-12T15:02:48.999Z</time></trkpt><trkpt lat="42.05691463754477" lon="13.011667894051818"><ele>597.0</ele><time>2026-04-12T15:02:49.999Z</time></trkpt><trkpt lat="42.05667132430125" lon="13.011653830258291"><ele>603.0</ele><time>2026-04-12T15:02:50.999Z</time></trkpt><trkpt lat="42.05643170655649" lon="13.011653012194284"><ele>609.0</ele><time>2026-04-12T15:02:51.999Z</time></trkpt><trkpt lat="42.05619304481758" lon="13.01166208989974"><ele>609.0</ele><time>2026-04-12T15:02:52.999Z</time></trkpt><trkpt lat="42.05595602048443" lon="13.011683651944834"><ele>609.0</ele><time>2026-04-12T15:02:53.999Z</time></trkpt><trkpt lat="42.05572204175926" lon="13.011710375091152"><ele>612.5</ele><time>2026-04-12T15:02:54.999Z</time></trkpt><trkpt lat="42.05549056609729" lon="13.011743215694429"><ele>616.0</ele><time>2026-04-12T15:02:55.999Z</time></trkpt><trkpt lat="42.05526056988865" lon="13.011780928775941"><ele>616.0</ele><time>2026-04-12T15:02:56.999Z</time></trkpt><trkpt lat="42.05503116407354" lon="13.011822590835443"><ele>616.0</ele><time>2026-04-12T15:02:57.999Z</time></trkpt><trkpt lat="42.05479913774658" lon="13.011864725250742"><ele>624.0</ele><time>2026-04-12T15:02:58.999Z</time></trkpt><trkpt lat="42.054561349880196" lon="13.011908192267079"><ele>632.0</ele><time>2026-04-12T15:02:59.999Z</time></trkpt><trkpt lat="42.05432151150086" lon="13.011952350050075"><ele>635.5</ele><time>2026-04-12T15:03:00.999Z</time></trkpt><trkpt lat="42.05406964618191" lon="13.012001318851675"><ele>639.0</ele><time>2026-04-12T15:03:01.999Z</time></trkpt><trkpt lat="42.0538097250712" lon="13.01204642085046"><ele>639.0</ele><time>2026-04-12T15:03:02.999Z</time></trkpt><trkpt lat="42.05354263336178" lon="13.012081642847017"><ele>639.0</ele><time>2026-04-12T15:03:03.999Z</time></trkpt><trkpt lat="42.053273618553916" lon="13.012112882239746"><ele>640.0</ele><time>2026-04-12T15:03:04.999Z</time></trkpt><trkpt lat="42.052998854805544" lon="13.012134504592375"><ele>641.0</ele><time>2026-04-12T15:03:05.999Z</time></trkpt><trkpt lat="42.05271976417225" lon="13.012141713893113"><ele>637.0</ele><time>2026-04-12T15:03:06.999Z</time></trkpt><trkpt lat="42.05243994808614" lon="13.012137674976346"><ele>633.0</ele><time>2026-04-12T15:03:07.999Z</time></trkpt><trkpt lat="42.05215868169402" lon="13.012107736823387"><ele>633.0</ele><time>2026-04-12T15:03:08.999Z</time></trkpt><trkpt lat="42.0518768312343" lon="13.012070252945096"><ele>633.0</ele><time>2026-04-12T15:03:09.999Z</time></trkpt><trkpt lat="42.05159568698112" lon="13.012023501401764"><ele>626.0</ele><time>2026-04-12T15:03:10.999Z</time></trkpt><trkpt lat="42.05131230523715" lon="13.011962302948795"><ele>619.0</ele><time>2026-04-12T15:03:11.999Z</time></trkpt><trkpt lat="42.051028582047806" lon="13.011885598892789"><ele>615.0</ele><time>2026-04-12T15:03:12.999Z</time></trkpt><trkpt lat="42.05074722149315" lon="13.011802108177484"><ele>611.0</ele><time>2026-04-12T15:03:13.999Z</time></trkpt><trkpt lat="42.05046888805725" lon="13.011708820141358"><ele>621.0</ele><time>2026-04-12T15:03:14.999Z</time></trkpt><trkpt lat="42.05019262915981" lon="13.011608791180512"><ele>631.0</ele><time>2026-04-12T15:03:15.999Z</time></trkpt><trkpt lat="42.04991752585555" lon="13.011507606160752"><ele>631.0</ele><time>2026-04-12T15:03:16.999Z</time></trkpt><trkpt lat="42.04964543465716" lon="13.011405473786011"><ele>631.0</ele><time>2026-04-12T15:03:17.999Z</time></trkpt><trkpt lat="42.049378417208644" lon="13.01130409413854"><ele>623.5</ele><time>2026-04-12T15:03:18.999Z</time></trkpt><trkpt lat="42.04911370185207" lon="13.011205293350999"><ele>616.0</ele><time>2026-04-12T15:03:19.999Z</time></trkpt><trkpt lat="42.04884500605838" lon="13.011113445406966"><ele>616.0</ele><time>2026-04-12T15:03:20.999Z</time></trkpt><trkpt lat="42.04857217520818" lon="13.01103944126462"><ele>616.0</ele><time>2026-04-12T15:03:21.999Z</time></trkpt><trkpt lat="42.04829514112394" lon="13.010974387617798"><ele>610.5</ele><time>2026-04-12T15:03:22.998Z</time></trkpt><trkpt lat="42.048012963044854" lon="13.010917680696307"><ele>605.0</ele><time>2026-04-12T15:03:23.998Z</time></trkpt><trkpt lat="42.047729187689434" lon="13.010873072243218"><ele>605.0</ele><time>2026-04-12T15:03:24.998Z</time></trkpt><trkpt lat="42.04744391034766" lon="13.010842857960032"><ele>605.0</ele><time>2026-04-12T15:03:25.998Z</time></trkpt><trkpt lat="42.04715674108701" lon="13.010831814889421"><ele>605.0</ele><time>2026-04-12T15:03:26.998Z</time></trkpt><trkpt lat="42.04686504579219" lon="13.010844378316433"><ele>605.0</ele><time>2026-04-12T15:03:27.998Z</time></trkpt><trkpt lat="42.04657345554258" lon="13.010873146542655"><ele>604.5</ele><time>2026-04-12T15:03:28.998Z</time></trkpt><trkpt lat="42.046276856998254" lon="13.010921888119924"><ele>604.0</ele><time>2026-04-12T15:03:29.998Z</time></trkpt><trkpt lat="42.04597880717301" lon="13.010987643148482"><ele>611.0</ele><time>2026-04-12T15:03:30.998Z</time></trkpt><trkpt lat="42.045682394543846" lon="13.011074296469216"><ele>618.0</ele><time>2026-04-12T15:03:31.998Z</time></trkpt><trkpt lat="42.04538679264328" lon="13.011182111334705"><ele>618.0</ele><time>2026-04-12T15:03:32.998Z</time></trkpt><trkpt lat="42.045095680780136" lon="13.011312288364085"><ele>618.0</ele><time>2026-04-12T15:03:33.998Z</time></trkpt><trkpt lat="42.04480465354169" lon="13.011456321313513"><ele>615.5</ele><time>2026-04-12T15:03:34.998Z</time></trkpt><trkpt lat="42.04451692277087" lon="13.011607237733047"><ele>613.0</ele><time>2026-04-12T15:03:35.998Z</time></trkpt><trkpt lat="42.04422868401085" lon="13.011761735845443"><ele>605.0</ele><time>2026-04-12T15:03:36.998Z</time></trkpt><trkpt lat="42.043938318723846" lon="13.011912766432147"><ele>597.0</ele><time>2026-04-12T15:03:37.998Z</time></trkpt><trkpt lat="42.043647857749505" lon="13.012057347022601"><ele>597.0</ele><time>2026-04-12T15:03:38.998Z</time></trkpt><trkpt lat="42.04335069827103" lon="13.012190122052214"><ele>597.0</ele><time>2026-04-12T15:03:39.998Z</time></trkpt><trkpt lat="42.04304692508127" lon="13.012305419815254"><ele>600.0</ele><time>2026-04-12T15:03:40.998Z</time></trkpt><trkpt lat="42.042739051365004" lon="13.012398532819843"><ele>603.0</ele><time>2026-04-12T15:03:41.998Z</time></trkpt><trkpt lat="42.04242458927988" lon="13.012467707031266"><ele>588.0</ele><time>2026-04-12T15:03:42.998Z</time></trkpt><trkpt lat="42.04211074979099" lon="13.012514312431698"><ele>573.0</ele><time>2026-04-12T15:03:43.998Z</time></trkpt><trkpt lat="42.04179581329499" lon="13.012538628110683"><ele>573.5</ele><time>2026-04-12T15:03:44.998Z</time></trkpt><trkpt lat="42.04148123260609" lon="13.012533928779892"><ele>574.0</ele><time>2026-04-12T15:03:45.998Z</time></trkpt><trkpt lat="42.04116769256833" lon="13.012512976508296"><ele>581.5</ele><time>2026-04-12T15:03:46.998Z</time></trkpt><trkpt lat="42.04085542816012" lon="13.012474062364124"><ele>589.0</ele><time>2026-04-12T15:03:48Z</time></trkpt><trkpt lat="42.040545523823354" lon="13.012414836148727"><ele>589.0</ele><time>2026-04-12T15:03:49Z</time></trkpt><trkpt lat="42.04023888481347" lon="13.012337965015549"><ele>589.0</ele><time>2026-04-12T15:03:50Z</time></trkpt><trkpt lat="42.03993685858875" lon="13.01224461087663"><ele>583.0</ele><time>2026-04-12T15:03:51Z</time></trkpt><trkpt lat="42.03963730666144" lon="13.012129708492528"><ele>577.0</ele><time>2026-04-12T15:03:52Z</time></trkpt><trkpt lat="42.03934281091583" lon="13.011995570309237"><ele>567.0</ele><time>2026-04-12T15:03:53Z</time></trkpt><trkpt lat="42.03905489082393" lon="13.011841017017366"><ele>557.0</ele><time>2026-04-12T15:03:54Z</time></trkpt><trkpt lat="42.0387723133788" lon="13.01166724034711"><ele>554.5</ele><time>2026-04-12T15:03:55Z</time></trkpt><trkpt lat="42.038496607736846" lon="13.011480269463435"><ele>552.0</ele><time>2026-04-12T15:03:56Z</time></trkpt><trkpt lat="42.038226049425404" lon="13.011277838958327"><ele>552.0</ele><time>2026-04-12T15:03:57Z</time></trkpt><trkpt lat="42.03796637519919" lon="13.01106387225871"><ele>552.0</ele><time>2026-04-12T15:03:58Z</time></trkpt><trkpt lat="42.037709214219404" lon="13.010846510293351"><ele>551.0</ele><time>2026-04-12T15:03:59Z</time></trkpt><trkpt lat="42.037455939986096" lon="13.010625419706034"><ele>550.0</ele><time>2026-04-12T15:04:00Z</time></trkpt><trkpt lat="42.03720706798585" lon="13.010403795774009"><ele>550.0</ele><time>2026-04-12T15:04:01Z</time></trkpt><trkpt lat="42.03695933569708" lon="13.010182504008178"><ele>550.0</ele><time>2026-04-12T15:04:02Z</time></trkpt><trkpt lat="42.036712365258" lon="13.009962397499962"><ele>551.5</ele><time>2026-04-12T15:04:03Z</time></trkpt><trkpt lat="42.03646721706656" lon="13.009744807289643"><ele>553.0</ele><time>2026-04-12T15:04:04Z</time></trkpt><trkpt lat="42.03621931091378" lon="13.009525253452603"><ele>553.0</ele><time>2026-04-12T15:04:05Z</time></trkpt><trkpt lat="42.03597287133825" lon="13.009303203332811"><ele>553.0</ele><time>2026-04-12T15:04:06Z</time></trkpt><trkpt lat="42.03572486200732" lon="13.00908427140694"><ele>560.0</ele><time>2026-04-12T15:04:07Z</time></trkpt><trkpt lat="42.035483557094935" lon="13.00887567798193"><ele>567.0</ele><time>2026-04-12T15:04:08Z</time></trkpt><trkpt lat="42.035235937566014" lon="13.008659796288576"><ele>567.0</ele><time>2026-04-12T15:04:09Z</time></trkpt><trkpt lat="42.03499056447831" lon="13.008447942824185"><ele>567.0</ele><time>2026-04-12T15:04:10Z</time></trkpt><trkpt lat="42.03474648006016" lon="13.008238082764919"><ele>571.5</ele><time>2026-04-12T15:04:11Z</time></trkpt><trkpt lat="42.03449294531891" lon="13.008017090790698"><ele>576.0</ele><time>2026-04-12T15:04:12Z</time></trkpt><trkpt lat="42.03424220742565" lon="13.007793764933826"><ele>577.0</ele><time>2026-04-12T15:04:13Z</time></trkpt><trkpt lat="42.03398697744598" lon="13.007560483246698"><ele>578.0</ele><time>2026-04-12T15:04:14Z</time></trkpt><trkpt lat="42.03373190227923" lon="13.007324291954673"><ele>578.0</ele><time>2026-04-12T15:04:15Z</time></trkpt><trkpt lat="42.03347139216796" lon="13.007081754055402"><ele>578.0</ele><time>2026-04-12T15:04:16Z</time></trkpt><trkpt lat="42.03321131329518" lon="13.006836880713527"><ele>576.5</ele><time>2026-04-12T15:04:17Z</time></trkpt><trkpt lat="42.032954758962816" lon="13.006590251608117"><ele>575.0</ele><time>2026-04-12T15:04:18Z</time></trkpt><trkpt lat="42.032705067469244" lon="13.006336794134002"><ele>570.0</ele><time>2026-04-12T15:04:19Z</time></trkpt><trkpt lat="42.032462163170905" lon="13.006080712638541"><ele>565.0</ele><time>2026-04-12T15:04:20Z</time></trkpt><trkpt lat="42.032223087054824" lon="13.005823704115375"><ele>576.5</ele><time>2026-04-12T15:04:21Z</time></trkpt><trkpt lat="42.031988530196124" lon="13.005573396374526"><ele>588.0</ele><time>2026-04-12T15:04:22Z</time></trkpt><trkpt lat="42.031756487116766" lon="13.005330429963335"><ele>588.0</ele><time>2026-04-12T15:04:23Z</time></trkpt><trkpt lat="42.03152559264401" lon="13.00508643139493"><ele>588.0</ele><time>2026-04-12T15:04:24Z</time></trkpt><trkpt lat="42.0312956458565" lon="13.00483758061623"><ele>602.5</ele><time>2026-04-12T15:04:25Z</time></trkpt><trkpt lat="42.03108176767326" lon="13.004593621726858"><ele>617.0</ele><time>2026-04-12T15:04:26Z</time></trkpt><trkpt lat="42.030858696186755" lon="13.004344688599812"><ele>643.0</ele><time>2026-04-12T15:04:27Z</time></trkpt><trkpt lat="42.03063612088965" lon="13.004096891084213"><ele>669.0</ele><time>2026-04-12T15:04:28Z</time></trkpt><trkpt lat="42.030412380462096" lon="13.003846922854992"><ele>669.0</ele><time>2026-04-12T15:04:29Z</time></trkpt><trkpt lat="42.030190183589816" lon="13.003599929538995"><ele>669.0</ele><time>2026-04-12T15:04:30Z</time></trkpt><trkpt lat="42.029971495196115" lon="13.003349506061832"><ele>679.5</ele><time>2026-04-12T15:04:31Z</time></trkpt><trkpt lat="42.0297527930851" lon="13.003096467478969"><ele>690.0</ele><time>2026-04-12T15:04:32Z</time></trkpt><trkpt lat="42.029530494771116" lon="13.002845172544454"><ele>690.0</ele><time>2026-04-12T15:04:33Z</time></trkpt><trkpt lat="42.029342869556245" lon="13.002546461223597"><ele>690.0</ele><time>2026-04-12T15:04:33.999Z</time></trkpt><trkpt lat="42.02935089932315" lon="13.00236622870177"><ele>690.0</ele><time>2026-04-12T15:04:34.999Z</time></trkpt><trkpt lat="42.029159761168" lon="13.002113291337848"><ele>671.5</ele><time>2026-04-12T15:04:35.999Z</time></trkpt><trkpt lat="42.028977760812516" lon="13.001846221962401"><ele>653.0</ele><time>2026-04-12T15:04:36.999Z</time></trkpt><trkpt lat="42.02881535786318" lon="13.001566948655743"><ele>652.0</ele><time>2026-04-12T15:04:37.999Z</time></trkpt><trkpt lat="42.02866067728837" lon="13.00128481924266"><ele>651.0</ele><time>2026-04-12T15:04:38.999Z</time></trkpt><trkpt lat="42.028498779703575" lon="13.001002560321972"><ele>645.5</ele><time>2026-04-12T15:04:39.999Z</time></trkpt><trkpt lat="42.0283467476873" lon="13.000715310776563"><ele>640.0</ele><time>2026-04-12T15:04:40.999Z</time></trkpt><trkpt lat="42.02822663602585" lon="13.000421664374239"><ele>563.0</ele><time>2026-04-12T15:04:42.061Z</time></trkpt><trkpt lat="42.02759984138535" lon="12.997866950479962"><ele>551.0</ele><time>2026-04-12T15:04:45.953Z</time></trkpt><trkpt lat="42.02766858263818" lon="12.997114311232428"><ele>551.0</ele><time>2026-04-12T15:04:53.999Z</time></trkpt><trkpt lat="42.027529025002295" lon="12.99679690713753"><ele>551.0</ele><time>2026-04-12T15:04:54.999Z</time></trkpt><trkpt lat="42.027619259566585" lon="12.996498651551766"><ele>549.6666666666666</ele><time>2026-04-12T15:04:55.999Z</time></trkpt><trkpt lat="42.02768718508714" lon="12.996223186895715"><ele>548.3333333333334</ele><time>2026-04-12T15:04:56.999Z</time></trkpt><trkpt lat="42.027708699270285" lon="12.995929230934765"><ele>547.0</ele><time>2026-04-12T15:04:57.999Z</time></trkpt><trkpt lat="42.027741174036734" lon="12.995624766225927"><ele>544.0</ele><time>2026-04-12T15:04:58.999Z</time></trkpt><trkpt lat="42.027781240164266" lon="12.995326462194761"><ele>541.0</ele><time>2026-04-12T15:04:59.999Z</time></trkpt><trkpt lat="42.02782758726829" lon="12.995026140989921"><ele>534.0</ele><time>2026-04-12T15:05:00.999Z</time></trkpt><trkpt lat="42.02788096553068" lon="12.994730810210225"><ele>527.0</ele><time>2026-04-12T15:05:01.999Z</time></trkpt><trkpt lat="42.027938540276686" lon="12.994433539929497"><ele>521.5</ele><time>2026-04-12T15:05:02.999Z</time></trkpt><trkpt lat="42.027996606169125" lon="12.994134626150812"><ele>516.0</ele><time>2026-04-12T15:05:03.999Z</time></trkpt><trkpt lat="42.02806293598845" lon="12.993828908378898"><ele>516.0</ele><time>2026-04-12T15:05:04.999Z</time></trkpt><trkpt lat="42.02813380795494" lon="12.9935260708652"><ele>516.0</ele><time>2026-04-12T15:05:05.999Z</time></trkpt><trkpt lat="42.02820744958373" lon="12.993226488716857"><ele>513.0</ele><time>2026-04-12T15:05:06.999Z</time></trkpt><trkpt lat="42.02828912356413" lon="12.992926696730411"><ele>510.0</ele><time>2026-04-12T15:05:07.999Z</time></trkpt><trkpt lat="42.02838142884008" lon="12.992627086196835"><ele>521.5</ele><time>2026-04-12T15:05:08.999Z</time></trkpt><trkpt lat="42.02847056755362" lon="12.992331054202765"><ele>533.0</ele><time>2026-04-12T15:05:09.999Z</time></trkpt><trkpt lat="42.02856404965291" lon="12.992042258247768"><ele>533.0</ele><time>2026-04-12T15:05:10.999Z</time></trkpt><trkpt lat="42.02865988978478" lon="12.991764981826668"><ele>533.0</ele><time>2026-04-12T15:05:11.999Z</time></trkpt><trkpt lat="42.02875283146647" lon="12.991493491951125"><ele>533.0</ele><time>2026-04-12T15:05:12.999Z</time></trkpt><trkpt lat="42.028852667243214" lon="12.991229906872507"><ele>535.0</ele><time>2026-04-12T15:05:13.999Z</time></trkpt><trkpt lat="42.02897036746391" lon="12.990974199994204"><ele>537.0</ele><time>2026-04-12T15:05:14.999Z</time></trkpt><trkpt lat="42.029076077839406" lon="12.990720336866312"><ele>539.0</ele><time>2026-04-12T15:05:15.999Z</time></trkpt><trkpt lat="42.02917115545521" lon="12.99046406514334"><ele>539.0</ele><time>2026-04-12T15:05:16.999Z</time></trkpt><trkpt lat="42.029270517457086" lon="12.990208074170244"><ele>539.0</ele><time>2026-04-12T15:05:17.999Z</time></trkpt><trkpt lat="42.02937601194812" lon="12.98994533999993"><ele>539.0</ele><time>2026-04-12T15:05:18.999Z</time></trkpt><trkpt lat="42.02948812908124" lon="12.989675207107204"><ele>531.0</ele><time>2026-04-12T15:05:19.999Z</time></trkpt><trkpt lat="42.02959980688069" lon="12.989409754503075"><ele>523.0</ele><time>2026-04-12T15:05:20.999Z</time></trkpt><trkpt lat="42.02971593342727" lon="12.989142337584575"><ele>516.0</ele><time>2026-04-12T15:05:21.999Z</time></trkpt><trkpt lat="42.02983470721455" lon="12.98887410343008"><ele>509.0</ele><time>2026-04-12T15:05:22.999Z</time></trkpt><trkpt lat="42.029954064817986" lon="12.988604623266626"><ele>511.0</ele><time>2026-04-12T15:05:23.999Z</time></trkpt><trkpt lat="42.03007634324739" lon="12.988333200438783"><ele>513.0</ele><time>2026-04-12T15:05:24.999Z</time></trkpt><trkpt lat="42.030202593031234" lon="12.988062127219914"><ele>513.0</ele><time>2026-04-12T15:05:25.999Z</time></trkpt><trkpt lat="42.030331316148235" lon="12.987789585037358"><ele>513.0</ele><time>2026-04-12T15:05:26.999Z</time></trkpt><trkpt lat="42.030460716454435" lon="12.98751530189931"><ele>506.0</ele><time>2026-04-12T15:05:27.998Z</time></trkpt><trkpt lat="42.03058989540475" lon="12.987237013145457"><ele>499.0</ele><time>2026-04-12T15:05:28.998Z</time></trkpt><trkpt lat="42.0307196566113" lon="12.986959614220535"><ele>506.0</ele><time>2026-04-12T15:05:29.998Z</time></trkpt><trkpt lat="42.03085176441085" lon="12.986681179008352"><ele>513.0</ele><time>2026-04-12T15:05:30.998Z</time></trkpt><trkpt lat="42.03098514916134" lon="12.986400839752218"><ele>513.0</ele><time>2026-04-12T15:05:31.998Z</time></trkpt><trkpt lat="42.031121294619" lon="12.986120442514133"><ele>513.0</ele><time>2026-04-12T15:05:32.998Z</time></trkpt><trkpt lat="42.03125585176749" lon="12.985834357997286"><ele>506.0</ele><time>2026-04-12T15:05:33.998Z</time></trkpt><trkpt lat="42.0313889760815" lon="12.985548190832443"><ele>499.0</ele><time>2026-04-12T15:05:34.998Z</time></trkpt><trkpt lat="42.031523285663326" lon="12.985261960735924"><ele>507.0</ele><time>2026-04-12T15:05:35.998Z</time></trkpt><trkpt lat="42.031660300113465" lon="12.984977595483683"><ele>515.0</ele><time>2026-04-12T15:05:36.998Z</time></trkpt><trkpt lat="42.03179856268266" lon="12.984692980835787"><ele>515.0</ele><time>2026-04-12T15:05:37.998Z</time></trkpt><trkpt lat="42.03193772992136" lon="12.984407663774522"><ele>515.0</ele><time>2026-04-12T15:05:38.998Z</time></trkpt><trkpt lat="42.03207515720979" lon="12.98412203113062"><ele>507.0</ele><time>2026-04-12T15:05:39.998Z</time></trkpt><trkpt lat="42.032210565227935" lon="12.983831908293093"><ele>499.0</ele><time>2026-04-12T15:05:40.998Z</time></trkpt><trkpt lat="42.032350565992154" lon="12.983541167761615"><ele>504.0</ele><time>2026-04-12T15:05:41.998Z</time></trkpt><trkpt lat="42.032490463165125" lon="12.983248588382551"><ele>509.0</ele><time>2026-04-12T15:05:42.998Z</time></trkpt><trkpt lat="42.03262999156643" lon="12.982951168791972"><ele>509.0</ele><time>2026-04-12T15:05:43.998Z</time></trkpt><trkpt lat="42.03277192278558" lon="12.982649875266802"><ele>509.0</ele><time>2026-04-12T15:05:44.998Z</time></trkpt><trkpt lat="42.03291625632345" lon="12.982348976481292"><ele>502.0</ele><time>2026-04-12T15:05:45.998Z</time></trkpt><trkpt lat="42.033063257325466" lon="12.982043992122012"><ele>495.0</ele><time>2026-04-12T15:05:46.998Z</time></trkpt><trkpt lat="42.03321059350782" lon="12.98173572724658"><ele>499.0</ele><time>2026-04-12T15:05:47.998Z</time></trkpt><trkpt lat="42.03335816706236" lon="12.981429780308133"><ele>503.0</ele><time>2026-04-12T15:05:48.998Z</time></trkpt><trkpt lat="42.03350519072813" lon="12.981115821898172"><ele>496.0</ele><time>2026-04-12T15:05:49.998Z</time></trkpt><trkpt lat="42.03364988310578" lon="12.980805063061492"><ele>489.0</ele><time>2026-04-12T15:05:50.998Z</time></trkpt><trkpt lat="42.033789708892975" lon="12.980492457966156"><ele>489.0</ele><time>2026-04-12T15:05:51.998Z</time></trkpt><trkpt lat="42.03393140217157" lon="12.980181740676285"><ele>489.0</ele><time>2026-04-12T15:05:52.998Z</time></trkpt><trkpt lat="42.034070620689306" lon="12.979871067387682"><ele>490.5</ele><time>2026-04-12T15:05:54Z</time></trkpt><trkpt lat="42.03420816360229" lon="12.979557898494752"><ele>492.0</ele><time>2026-04-12T15:05:55Z</time></trkpt><trkpt lat="42.034341681215" lon="12.97924119735723"><ele>476.5</ele><time>2026-04-12T15:05:56Z</time></trkpt><trkpt lat="42.034471161237235" lon="12.978916107046356"><ele>461.0</ele><time>2026-04-12T15:05:57Z</time></trkpt><trkpt lat="42.03459664437451" lon="12.97858590964696"><ele>442.0</ele><time>2026-04-12T15:05:58Z</time></trkpt><trkpt lat="42.034715953728615" lon="12.978247550193831"><ele>423.0</ele><time>2026-04-12T15:05:59Z</time></trkpt><trkpt lat="42.03483405469129" lon="12.977903763415094"><ele>423.0</ele><time>2026-04-12T15:06:00Z</time></trkpt><trkpt lat="42.03494571888045" lon="12.977556134610044"><ele>423.0</ele><time>2026-04-12T15:06:01Z</time></trkpt><trkpt lat="42.03505401532258" lon="12.97720593120571"><ele>411.0</ele><time>2026-04-12T15:06:02Z</time></trkpt><trkpt lat="42.035157823120905" lon="12.976851628053376"><ele>399.0</ele><time>2026-04-12T15:06:03Z</time></trkpt><trkpt lat="42.035255738988376" lon="12.97649503114529"><ele>398.5</ele><time>2026-04-12T15:06:04Z</time></trkpt><trkpt lat="42.035350624376576" lon="12.976136994016866"><ele>398.0</ele><time>2026-04-12T15:06:05Z</time></trkpt><trkpt lat="42.03544134198449" lon="12.975778306881486"><ele>417.0</ele><time>2026-04-12T15:06:06Z</time></trkpt><trkpt lat="42.035527188313445" lon="12.975413387755928"><ele>436.0</ele><time>2026-04-12T15:06:07Z</time></trkpt><trkpt lat="42.03560918051145" lon="12.975029115265722"><ele>442.5</ele><time>2026-04-12T15:06:08Z</time></trkpt><trkpt lat="42.03569346647061" lon="12.974634786505328"><ele>449.0</ele><time>2026-04-12T15:06:09Z</time></trkpt><trkpt lat="42.03586672439497" lon="12.97381102854275"><ele>455.5</ele><time>2026-04-12T15:06:11Z</time></trkpt><trkpt lat="42.03595648160522" lon="12.973394824945682"><ele>462.0</ele><time>2026-04-12T15:06:12Z</time></trkpt><trkpt lat="42.0360597501715" lon="12.97297845891543"><ele>462.0</ele><time>2026-04-12T15:06:13Z</time></trkpt><trkpt lat="42.03615937503999" lon="12.972548069187868"><ele>462.0</ele><time>2026-04-12T15:06:14Z</time></trkpt><trkpt lat="42.036253655101255" lon="12.97213666323436"><ele>456.5</ele><time>2026-04-12T15:06:15Z</time></trkpt><trkpt lat="42.036346509018784" lon="12.971705560612463"><ele>451.0</ele><time>2026-04-12T15:06:16Z</time></trkpt><trkpt lat="42.03642783840575" lon="12.971288147030574"><ele>442.5</ele><time>2026-04-12T15:06:17Z</time></trkpt><trkpt lat="42.03651939821187" lon="12.97088388386656"><ele>434.0</ele><time>2026-04-12T15:06:18Z</time></trkpt><trkpt lat="42.036605853772194" lon="12.970464895776168"><ele>441.5</ele><time>2026-04-12T15:06:19Z</time></trkpt><trkpt lat="42.03670186366745" lon="12.970053466947023"><ele>449.0</ele><time>2026-04-12T15:06:20Z</time></trkpt><trkpt lat="42.036805823550324" lon="12.969649112365236"><ele>450.5</ele><time>2026-04-12T15:06:21Z</time></trkpt><trkpt lat="42.03691290357793" lon="12.969240696952664"><ele>452.0</ele><time>2026-04-12T15:06:22Z</time></trkpt><trkpt lat="42.037023165388455" lon="12.968843900677532"><ele>452.0</ele><time>2026-04-12T15:06:23Z</time></trkpt><trkpt lat="42.03713823311038" lon="12.968442454022759"><ele>452.0</ele><time>2026-04-12T15:06:24Z</time></trkpt><trkpt lat="42.03725156680797" lon="12.968042920009514"><ele>449.5</ele><time>2026-04-12T15:06:25Z</time></trkpt><trkpt lat="42.03737703176543" lon="12.967644984883334"><ele>447.0</ele><time>2026-04-12T15:06:26Z</time></trkpt><trkpt lat="42.03750573198571" lon="12.967255714583008"><ele>447.0</ele><time>2026-04-12T15:06:27Z</time></trkpt><trkpt lat="42.03764175889385" lon="12.966859749914665"><ele>447.0</ele><time>2026-04-12T15:06:28Z</time></trkpt><trkpt lat="42.03778075413786" lon="12.966471177748705"><ele>440.0</ele><time>2026-04-12T15:06:29Z</time></trkpt><trkpt lat="42.03792025155104" lon="12.966077489717353"><ele>433.0</ele><time>2026-04-12T15:06:30Z</time></trkpt><trkpt lat="42.03806587421444" lon="12.965684639804616"><ele>434.5</ele><time>2026-04-12T15:06:31Z</time></trkpt><trkpt lat="42.03821961855684" lon="12.965302308001732"><ele>436.0</ele><time>2026-04-12T15:06:32Z</time></trkpt><trkpt lat="42.038389313298936" lon="12.964936482433888"><ele>436.0</ele><time>2026-04-12T15:06:33Z</time></trkpt><trkpt lat="42.03857200381205" lon="12.964577795009296"><ele>436.0</ele><time>2026-04-12T15:06:34Z</time></trkpt><trkpt lat="42.038758911862836" lon="12.96422941678217"><ele>441.5</ele><time>2026-04-12T15:06:35Z</time></trkpt><trkpt lat="42.03894975946593" lon="12.963883852838757"><ele>447.0</ele><time>2026-04-12T15:06:36Z</time></trkpt><trkpt lat="42.03913644615675" lon="12.963538637930572"><ele>436.0</ele><time>2026-04-12T15:06:36.999Z</time></trkpt><trkpt lat="42.03932414424652" lon="12.963186119391366"><ele>425.0</ele><time>2026-04-12T15:06:37.999Z</time></trkpt><trkpt lat="42.03950195508753" lon="12.962834912066103"><ele>416.5</ele><time>2026-04-12T15:06:38.999Z</time></trkpt><trkpt lat="42.039676478534865" lon="12.962470151179941"><ele>408.0</ele><time>2026-04-12T15:06:39.999Z</time></trkpt><trkpt lat="42.03983778590778" lon="12.962102602324586"><ele>417.5</ele><time>2026-04-12T15:06:40.999Z</time></trkpt><trkpt lat="42.03998355976396" lon="12.961727027220832"><ele>427.0</ele><time>2026-04-12T15:06:41.999Z</time></trkpt><trkpt lat="42.04011833062434" lon="12.961346072558921"><ele>427.0</ele><time>2026-04-12T15:06:42.999Z</time></trkpt><trkpt lat="42.04024874692892" lon="12.960968801866926"><ele>427.0</ele><time>2026-04-12T15:06:43.999Z</time></trkpt><trkpt lat="42.04037004107442" lon="12.960571852703348"><ele>421.5</ele><time>2026-04-12T15:06:44.999Z</time></trkpt><trkpt lat="42.04047605044782" lon="12.960169520621625"><ele>416.0</ele><time>2026-04-12T15:06:45.999Z</time></trkpt><trkpt lat="42.04056722883106" lon="12.959775276112374"><ele>411.5</ele><time>2026-04-12T15:06:46.999Z</time></trkpt><trkpt lat="42.04063588585497" lon="12.959387897184147"><ele>407.0</ele><time>2026-04-12T15:06:47.999Z</time></trkpt><trkpt lat="42.040683801407596" lon="12.958998010761594"><ele>400.0</ele><time>2026-04-12T15:06:48.999Z</time></trkpt><trkpt lat="42.04072480462109" lon="12.958608264208836"><ele>393.0</ele><time>2026-04-12T15:06:49.999Z</time></trkpt><trkpt lat="42.04074315019504" lon="12.958219205266559"><ele>390.5</ele><time>2026-04-12T15:06:50.999Z</time></trkpt><trkpt lat="42.04072883518672" lon="12.957823831735888"><ele>388.0</ele><time>2026-04-12T15:06:51.999Z</time></trkpt><trkpt lat="42.04069806552777" lon="12.957423113325046"><ele>388.0</ele><time>2026-04-12T15:06:52.999Z</time></trkpt><trkpt lat="42.04065400878339" lon="12.957016068716099"><ele>388.0</ele><time>2026-04-12T15:06:53.999Z</time></trkpt><trkpt lat="42.04057353870123" lon="12.956619051744953"><ele>393.5</ele><time>2026-04-12T15:06:54.999Z</time></trkpt><trkpt lat="42.040501304147135" lon="12.9562160933167"><ele>399.0</ele><time>2026-04-12T15:06:55.999Z</time></trkpt><trkpt lat="42.04040878204629" lon="12.955823498242559"><ele>402.5</ele><time>2026-04-12T15:06:56.999Z</time></trkpt><trkpt lat="42.04029576904704" lon="12.955435802149655"><ele>406.0</ele><time>2026-04-12T15:06:57.999Z</time></trkpt><trkpt lat="42.040169937742654" lon="12.955049613313872"><ele>407.0</ele><time>2026-04-12T15:06:58.999Z</time></trkpt><trkpt lat="42.040033955150875" lon="12.95467126205062"><ele>408.0</ele><time>2026-04-12T15:06:59.999Z</time></trkpt><trkpt lat="42.03988805847251" lon="12.95429621578755"><ele>388.0</ele><time>2026-04-12T15:07:00.999Z</time></trkpt><trkpt lat="42.03974694507888" lon="12.953919551839768"><ele>368.0</ele><time>2026-04-12T15:07:01.999Z</time></trkpt><trkpt lat="42.03960388478545" lon="12.953545644590248"><ele>355.5</ele><time>2026-04-12T15:07:02.999Z</time></trkpt><trkpt lat="42.039458130809976" lon="12.95318187948807"><ele>343.0</ele><time>2026-04-12T15:07:03.999Z</time></trkpt><trkpt lat="42.03931568733762" lon="12.952813238636054"><ele>336.0</ele><time>2026-04-12T15:07:04.999Z</time></trkpt><trkpt lat="42.03917107506713" lon="12.952443781092324"><ele>329.0</ele><time>2026-04-12T15:07:05.999Z</time></trkpt><trkpt lat="42.039027455857145" lon="12.952076665999659"><ele>329.0</ele><time>2026-04-12T15:07:06.999Z</time></trkpt><trkpt lat="42.0388866135232" lon="12.95171013578161"><ele>329.0</ele><time>2026-04-12T15:07:07.999Z</time></trkpt><trkpt lat="42.03874845934931" lon="12.951345956835768"><ele>329.0</ele><time>2026-04-12T15:07:08.999Z</time></trkpt><trkpt lat="42.03860977410674" lon="12.950980907190939"><ele>329.0</ele><time>2026-04-12T15:07:09.999Z</time></trkpt><trkpt lat="42.0384708840701" lon="12.950619150479465"><ele>342.5</ele><time>2026-04-12T15:07:10.999Z</time></trkpt><trkpt lat="42.038332495372195" lon="12.950254650426979"><ele>356.0</ele><time>2026-04-12T15:07:11.999Z</time></trkpt><trkpt lat="42.03819526133324" lon="12.949892232901375"><ele>363.0</ele><time>2026-04-12T15:07:12.999Z</time></trkpt><trkpt lat="42.03805522043765" lon="12.949539451247231"><ele>370.0</ele><time>2026-04-12T15:07:13.999Z</time></trkpt><trkpt lat="42.03791864207215" lon="12.94917967343023"><ele>384.0</ele><time>2026-04-12T15:07:14.999Z</time></trkpt><trkpt lat="42.03778219134128" lon="12.94881144104974"><ele>398.0</ele><time>2026-04-12T15:07:15.999Z</time></trkpt><trkpt lat="42.03765412017411" lon="12.948442030114057"><ele>396.0</ele><time>2026-04-12T15:07:16.999Z</time></trkpt><trkpt lat="42.03753410188556" lon="12.948067397168268"><ele>394.0</ele><time>2026-04-12T15:07:17.999Z</time></trkpt><trkpt lat="42.037421389549976" lon="12.947688305801407"><ele>395.5</ele><time>2026-04-12T15:07:18.999Z</time></trkpt><trkpt lat="42.03731936773186" lon="12.947304980771923"><ele>397.0</ele><time>2026-04-12T15:07:19.999Z</time></trkpt><trkpt lat="42.03723414538418" lon="12.946911668423834"><ele>391.0</ele><time>2026-04-12T15:07:20.999Z</time></trkpt><trkpt lat="42.03716439035924" lon="12.946516100778823"><ele>385.0</ele><time>2026-04-12T15:07:21.999Z</time></trkpt><trkpt lat="42.037105146291275" lon="12.946118316520177"><ele>376.0</ele><time>2026-04-12T15:07:22.999Z</time></trkpt><trkpt lat="42.037061028010896" lon="12.945716495903103"><ele>367.0</ele><time>2026-04-12T15:07:23.999Z</time></trkpt><trkpt lat="42.03702010341642" lon="12.945317844373424"><ele>364.5</ele><time>2026-04-12T15:07:24.999Z</time></trkpt><trkpt lat="42.03697871032998" lon="12.944920095518212"><ele>362.0</ele><time>2026-04-12T15:07:25.999Z</time></trkpt><trkpt lat="42.03692946042415" lon="12.944533392139842"><ele>363.5</ele><time>2026-04-12T15:07:26.999Z</time></trkpt><trkpt lat="42.03688697675676" lon="12.944146345667477"><ele>365.0</ele><time>2026-04-12T15:07:27.999Z</time></trkpt><trkpt lat="42.03683839501324" lon="12.94376270421452"><ele>365.0</ele><time>2026-04-12T15:07:28.998Z</time></trkpt><trkpt lat="42.036793595885506" lon="12.943387871263349"><ele>365.0</ele><time>2026-04-12T15:07:29.998Z</time></trkpt><trkpt lat="42.03675270790543" lon="12.94301282251751"><ele>371.5</ele><time>2026-04-12T15:07:30.998Z</time></trkpt><trkpt lat="42.036701152091496" lon="12.942617641465137"><ele>378.0</ele><time>2026-04-12T15:07:31.998Z</time></trkpt><trkpt lat="42.036647109171625" lon="12.942195813857788"><ele>379.5</ele><time>2026-04-12T15:07:32.998Z</time></trkpt><trkpt lat="42.036602480846675" lon="12.941779095236784"><ele>381.0</ele><time>2026-04-12T15:07:33.998Z</time></trkpt><trkpt lat="42.03657040881094" lon="12.941370902630268"><ele>376.5</ele><time>2026-04-12T15:07:34.998Z</time></trkpt><trkpt lat="42.03654016762276" lon="12.940974472757123"><ele>372.0</ele><time>2026-04-12T15:07:35.998Z</time></trkpt><trkpt lat="42.036500235367775" lon="12.940582274887415"><ele>372.5</ele><time>2026-04-12T15:07:36.998Z</time></trkpt><trkpt lat="42.03645558120751" lon="12.940187068720483"><ele>373.0</ele><time>2026-04-12T15:07:37.998Z</time></trkpt><trkpt lat="42.03640829073977" lon="12.939795874084997"><ele>373.0</ele><time>2026-04-12T15:07:38.998Z</time></trkpt><trkpt lat="42.03635956276854" lon="12.939403392091403"><ele>373.0</ele><time>2026-04-12T15:07:39.998Z</time></trkpt><trkpt lat="42.03631031439573" lon="12.939005545454636"><ele>376.5</ele><time>2026-04-12T15:07:40.998Z</time></trkpt><trkpt lat="42.03625973820585" lon="12.938618703762206"><ele>380.0</ele><time>2026-04-12T15:07:41.998Z</time></trkpt><trkpt lat="42.03620429349812" lon="12.938225401424106"><ele>381.5</ele><time>2026-04-12T15:07:42.998Z</time></trkpt><trkpt lat="42.036139829066066" lon="12.937835869861873"><ele>383.0</ele><time>2026-04-12T15:07:43.998Z</time></trkpt><trkpt lat="42.036072069896065" lon="12.937458984479246"><ele>383.0</ele><time>2026-04-12T15:07:44.998Z</time></trkpt><trkpt lat="42.035995144116065" lon="12.937074645435317"><ele>383.0</ele><time>2026-04-12T15:07:45.998Z</time></trkpt><trkpt lat="42.035907636786845" lon="12.936698788454633"><ele>382.5</ele><time>2026-04-12T15:07:46.998Z</time></trkpt><trkpt lat="42.03582050222402" lon="12.936322768431072"><ele>382.0</ele><time>2026-04-12T15:07:47.998Z</time></trkpt><trkpt lat="42.035721345287634" lon="12.935950736501745"><ele>367.5</ele><time>2026-04-12T15:07:48.998Z</time></trkpt><trkpt lat="42.035622614181854" lon="12.93559224577984"><ele>353.0</ele><time>2026-04-12T15:07:49.998Z</time></trkpt><trkpt lat="42.035508313445845" lon="12.935238616948995"><ele>352.0</ele><time>2026-04-12T15:07:50.998Z</time></trkpt><trkpt lat="42.03538374199717" lon="12.934890929000776"><ele>351.0</ele><time>2026-04-12T15:07:51.998Z</time></trkpt><trkpt lat="42.03525068454889" lon="12.934553561352796"><ele>351.0</ele><time>2026-04-12T15:07:52.998Z</time></trkpt><trkpt lat="42.03510261726578" lon="12.934225253764698"><ele>351.0</ele><time>2026-04-12T15:07:53.998Z</time></trkpt><trkpt lat="42.034946000116726" lon="12.933907320783753"><ele>347.5</ele><time>2026-04-12T15:07:54.998Z</time></trkpt><trkpt lat="42.034779051666526" lon="12.933602467869289"><ele>344.0</ele><time>2026-04-12T15:07:55.998Z</time></trkpt><trkpt lat="42.03459901267616" lon="12.933306245776592"><ele>344.0</ele><time>2026-04-12T15:07:56.998Z</time></trkpt><trkpt lat="42.034419325130386" lon="12.933014685634253"><ele>344.0</ele><time>2026-04-12T15:07:57.998Z</time></trkpt><trkpt lat="42.03421339571973" lon="12.93275054614554"><ele>344.5</ele><time>2026-04-12T15:07:58.998Z</time></trkpt><trkpt lat="42.0339963609113" lon="12.932506196333831"><ele>345.0</ele><time>2026-04-12T15:08:00Z</time></trkpt><trkpt lat="42.03377339585279" lon="12.932271858094555"><ele>345.0</ele><time>2026-04-12T15:08:01Z</time></trkpt><trkpt lat="42.03353725545817" lon="12.93206007372886"><ele>345.0</ele><time>2026-04-12T15:08:02Z</time></trkpt><trkpt lat="42.03328958099056" lon="12.931867544921364"><ele>352.0</ele><time>2026-04-12T15:08:03Z</time></trkpt><trkpt lat="42.033037540431486" lon="12.931688619214894"><ele>359.0</ele><time>2026-04-12T15:08:04Z</time></trkpt><trkpt lat="42.03277751068617" lon="12.931526852491162"><ele>359.0</ele><time>2026-04-12T15:08:05Z</time></trkpt><trkpt lat="42.03251151075736" lon="12.931378616152516"><ele>359.0</ele><time>2026-04-12T15:08:06Z</time></trkpt><trkpt lat="42.032239774087536" lon="12.931248465717262"><ele>359.5</ele><time>2026-04-12T15:08:07Z</time></trkpt><trkpt lat="42.03196569771476" lon="12.93112756827756"><ele>360.0</ele><time>2026-04-12T15:08:08Z</time></trkpt><trkpt lat="42.03168412761599" lon="12.931015022180109"><ele>362.0</ele><time>2026-04-12T15:08:09Z</time></trkpt><trkpt lat="42.03140084264423" lon="12.930915751498945"><ele>364.0</ele><time>2026-04-12T15:08:10Z</time></trkpt><trkpt lat="42.03111522405132" lon="12.930824621581396"><ele>367.0</ele><time>2026-04-12T15:08:11Z</time></trkpt><trkpt lat="42.03083162969503" lon="12.93074257186308"><ele>370.0</ele><time>2026-04-12T15:08:12Z</time></trkpt><trkpt lat="42.030541887834445" lon="12.930661315540023"><ele>370.0</ele><time>2026-04-12T15:08:13Z</time></trkpt><trkpt lat="42.03025987830113" lon="12.930582905909537"><ele>370.0</ele><time>2026-04-12T15:08:14Z</time></trkpt><trkpt lat="42.02998185032646" lon="12.93050292512295"><ele>369.0</ele><time>2026-04-12T15:08:15Z</time></trkpt><trkpt lat="42.02970455262255" lon="12.930423261545519"><ele>368.0</ele><time>2026-04-12T15:08:16Z</time></trkpt><trkpt lat="42.029426632198245" lon="12.930348398978879"><ele>363.0</ele><time>2026-04-12T15:08:17Z</time></trkpt><trkpt lat="42.02913891698556" lon="12.930265300691925"><ele>358.0</ele><time>2026-04-12T15:08:18Z</time></trkpt><trkpt lat="42.02885496107778" lon="12.930167733281223"><ele>358.5</ele><time>2026-04-12T15:08:19Z</time></trkpt><trkpt lat="42.02857534394026" lon="12.930050263265114"><ele>359.0</ele><time>2026-04-12T15:08:20Z</time></trkpt><trkpt lat="42.02830194806582" lon="12.929924310870826"><ele>359.0</ele><time>2026-04-12T15:08:21Z</time></trkpt><trkpt lat="42.02803156257295" lon="12.929796241833337"><ele>359.0</ele><time>2026-04-12T15:08:22Z</time></trkpt><trkpt lat="42.027763157175585" lon="12.929671023785893"><ele>359.0</ele><time>2026-04-12T15:08:23Z</time></trkpt><trkpt lat="42.027497599890935" lon="12.929545299069684"><ele>359.0</ele><time>2026-04-12T15:08:24Z</time></trkpt><trkpt lat="42.027236595151244" lon="12.929411017114264"><ele>358.0</ele><time>2026-04-12T15:08:25Z</time></trkpt><trkpt lat="42.026981770212146" lon="12.929263798548995"><ele>357.0</ele><time>2026-04-12T15:08:26Z</time></trkpt><trkpt lat="42.02672968187284" lon="12.929104809641569"><ele>355.5</ele><time>2026-04-12T15:08:27Z</time></trkpt><trkpt lat="42.02648033360274" lon="12.928939388043817"><ele>354.0</ele><time>2026-04-12T15:08:28Z</time></trkpt><trkpt lat="42.026229197886266" lon="12.928769205646338"><ele>354.0</ele><time>2026-04-12T15:08:29Z</time></trkpt><trkpt lat="42.0259821002107" lon="12.928591292401604"><ele>354.0</ele><time>2026-04-12T15:08:30Z</time></trkpt><trkpt lat="42.025736004907614" lon="12.928406091764229"><ele>351.0</ele><time>2026-04-12T15:08:31Z</time></trkpt><trkpt lat="42.025492245063" lon="12.928212615941113"><ele>348.0</ele><time>2026-04-12T15:08:32Z</time></trkpt><trkpt lat="42.025255141086205" lon="12.928012612132106"><ele>348.0</ele><time>2026-04-12T15:08:33Z</time></trkpt><trkpt lat="42.025024404312724" lon="12.927808560660118"><ele>348.0</ele><time>2026-04-12T15:08:34Z</time></trkpt><trkpt lat="42.02480274794912" lon="12.92760496565215"><ele>346.0</ele><time>2026-04-12T15:08:35Z</time></trkpt><trkpt lat="42.024584019339244" lon="12.927396795607907"><ele>344.0</ele><time>2026-04-12T15:08:36Z</time></trkpt><trkpt lat="42.02436839336964" lon="12.927183481686967"><ele>344.0</ele><time>2026-04-12T15:08:37Z</time></trkpt><trkpt lat="42.02416015913639" lon="12.92696718815203"><ele>344.0</ele><time>2026-04-12T15:08:38Z</time></trkpt><trkpt lat="42.023957888184675" lon="12.926741998268293"><ele>343.5</ele><time>2026-04-12T15:08:39Z</time></trkpt><trkpt lat="42.02375626890136" lon="12.92651176698878"><ele>343.0</ele><time>2026-04-12T15:08:40Z</time></trkpt><trkpt lat="42.0235583511883" lon="12.926281662147348"><ele>343.0</ele><time>2026-04-12T15:08:41Z</time></trkpt><trkpt lat="42.02336590745356" lon="12.926041934074048"><ele>343.0</ele><time>2026-04-12T15:08:42Z</time></trkpt><trkpt lat="42.02317488486825" lon="12.925795009139183"><ele>337.0</ele><time>2026-04-12T15:08:43Z</time></trkpt><trkpt lat="42.02298655730375" lon="12.925543650056465"><ele>331.0</ele><time>2026-04-12T15:08:44Z</time></trkpt><trkpt lat="42.022802881014044" lon="12.925284299599452"><ele>333.0</ele><time>2026-04-12T15:08:45Z</time></trkpt><trkpt lat="42.02262261519815" lon="12.925019055700528"><ele>335.0</ele><time>2026-04-12T15:08:45.999Z</time></trkpt><trkpt lat="42.02244644761519" lon="12.924749964774179"><ele>334.0</ele><time>2026-04-12T15:08:46.999Z</time></trkpt><trkpt lat="42.022276218547894" lon="12.924476592446299"><ele>333.0</ele><time>2026-04-12T15:08:47.999Z</time></trkpt><trkpt lat="42.02210499486729" lon="12.92419883073957"><ele>333.0</ele><time>2026-04-12T15:08:48.999Z</time></trkpt><trkpt lat="42.02194040344174" lon="12.923912309256444"><ele>333.0</ele><time>2026-04-12T15:08:49.999Z</time></trkpt><trkpt lat="42.02177943400103" lon="12.923617980313821"><ele>331.5</ele><time>2026-04-12T15:08:50.999Z</time></trkpt><trkpt lat="42.02162329473214" lon="12.92331535017687"><ele>330.0</ele><time>2026-04-12T15:08:51.999Z</time></trkpt><trkpt lat="42.02147097644539" lon="12.923005886580128"><ele>330.0</ele><time>2026-04-12T15:08:52.999Z</time></trkpt><trkpt lat="42.0213205265675" lon="12.922692777964286"><ele>330.0</ele><time>2026-04-12T15:08:53.999Z</time></trkpt><trkpt lat="42.02117322069601" lon="12.922374692432124"><ele>330.5</ele><time>2026-04-12T15:08:54.999Z</time></trkpt><trkpt lat="42.02102923138562" lon="12.922052027217946"><ele>331.0</ele><time>2026-04-12T15:08:55.999Z</time></trkpt><trkpt lat="42.02089026730357" lon="12.921724427593047"><ele>325.0</ele><time>2026-04-12T15:08:56.999Z</time></trkpt><trkpt lat="42.020752304346175" lon="12.92139581486042"><ele>319.0</ele><time>2026-04-12T15:08:57.999Z</time></trkpt><trkpt lat="42.02061947830788" lon="12.921065359105071"><ele>316.0</ele><time>2026-04-12T15:08:58.999Z</time></trkpt><trkpt lat="42.020492991758196" lon="12.920743360808146"><ele>313.0</ele><time>2026-04-12T15:08:59.999Z</time></trkpt><trkpt lat="42.02036942460825" lon="12.920425479375044"><ele>313.0</ele><time>2026-04-12T15:09:00.999Z</time></trkpt><trkpt lat="42.02024766019916" lon="12.92010732463908"><ele>313.0</ele><time>2026-04-12T15:09:01.999Z</time></trkpt><trkpt lat="42.020124962542546" lon="12.919784926299092"><ele>310.0</ele><time>2026-04-12T15:09:02.999Z</time></trkpt><trkpt lat="42.020003859464715" lon="12.919462544840435"><ele>307.0</ele><time>2026-04-12T15:09:03.999Z</time></trkpt><trkpt lat="42.01988283107411" lon="12.919135454670023"><ele>314.5</ele><time>2026-04-12T15:09:04.999Z</time></trkpt><trkpt lat="42.01976547036674" lon="12.918799878169967"><ele>322.0</ele><time>2026-04-12T15:09:05.999Z</time></trkpt><trkpt lat="42.01965061466076" lon="12.918454215617661"><ele>322.5</ele><time>2026-04-12T15:09:06.999Z</time></trkpt><trkpt lat="42.019534908448776" lon="12.918108257885155"><ele>323.0</ele><time>2026-04-12T15:09:07.999Z</time></trkpt><trkpt lat="42.01942071022791" lon="12.91775993591683"><ele>324.5</ele><time>2026-04-12T15:09:08.999Z</time></trkpt><trkpt lat="42.019306901020435" lon="12.917406740298565"><ele>326.0</ele><time>2026-04-12T15:09:09.999Z</time></trkpt><trkpt lat="42.01919204781971" lon="12.917051507560497"><ele>327.0</ele><time>2026-04-12T15:09:10.999Z</time></trkpt><trkpt lat="42.019075842213766" lon="12.91669699021662"><ele>328.0</ele><time>2026-04-12T15:09:11.999Z</time></trkpt><trkpt lat="42.018964307296265" lon="12.916340084190045"><ele>328.0</ele><time>2026-04-12T15:09:12.999Z</time></trkpt><trkpt lat="42.018853689458744" lon="12.91598383302419"><ele>328.0</ele><time>2026-04-12T15:09:13.999Z</time></trkpt><trkpt lat="42.018740117662155" lon="12.915622091559488"><ele>329.0</ele><time>2026-04-12T15:09:14.999Z</time></trkpt><trkpt lat="42.01862266037457" lon="12.915254393834207"><ele>330.0</ele><time>2026-04-12T15:09:15.999Z</time></trkpt><trkpt lat="42.01850824750918" lon="12.914889425416709"><ele>331.0</ele><time>2026-04-12T15:09:16.999Z</time></trkpt><trkpt lat="42.018391527035945" lon="12.914525901685085"><ele>332.0</ele><time>2026-04-12T15:09:17.999Z</time></trkpt><trkpt lat="42.018281159010414" lon="12.914172289826297"><ele>335.0</ele><time>2026-04-12T15:09:18.999Z</time></trkpt><trkpt lat="42.01816197007221" lon="12.913807146298128"><ele>338.0</ele><time>2026-04-12T15:09:19.999Z</time></trkpt><trkpt lat="42.018046736961864" lon="12.913466537677278"><ele>334.5</ele><time>2026-04-12T15:09:20.999Z</time></trkpt><trkpt lat="42.01794083159768" lon="12.913139425173293"><ele>331.0</ele><time>2026-04-12T15:09:21.999Z</time></trkpt><trkpt lat="42.01784155400839" lon="12.912832104032018"><ele>327.5</ele><time>2026-04-12T15:09:22.999Z</time></trkpt><trkpt lat="42.01775117048562" lon="12.912540301872152"><ele>324.0</ele><time>2026-04-12T15:09:23.999Z</time></trkpt><trkpt lat="42.01766062494778" lon="12.912247119442931"><ele>324.0</ele><time>2026-04-12T15:09:24.999Z</time></trkpt><trkpt lat="42.01756058402539" lon="12.911937281809216"><ele>324.0</ele><time>2026-04-12T15:09:25.999Z</time></trkpt><trkpt lat="42.017460288911614" lon="12.911622327808892"><ele>328.0</ele><time>2026-04-12T15:09:26.999Z</time></trkpt><trkpt lat="42.017361862969715" lon="12.911306134828184"><ele>332.0</ele><time>2026-04-12T15:09:27.999Z</time></trkpt><trkpt lat="42.01725883659603" lon="12.91099417113634"><ele>331.5</ele><time>2026-04-12T15:09:28.999Z</time></trkpt><trkpt lat="42.01715956180671" lon="12.91067666045715"><ele>331.0</ele><time>2026-04-12T15:09:29.999Z</time></trkpt><trkpt lat="42.01705791530156" lon="12.910366075746689"><ele>330.0</ele><time>2026-04-12T15:09:30.999Z</time></trkpt><trkpt lat="42.01695056839867" lon="12.910058663152876"><ele>329.0</ele><time>2026-04-12T15:09:31.999Z</time></trkpt><trkpt lat="42.01684686280447" lon="12.909747516792637"><ele>329.0</ele><time>2026-04-12T15:09:32.999Z</time></trkpt><trkpt lat="42.016732225918645" lon="12.909448489935723"><ele>329.0</ele><time>2026-04-12T15:09:33.999Z</time></trkpt><trkpt lat="42.01661660847497" lon="12.909153367710411"><ele>325.5</ele><time>2026-04-12T15:09:34.999Z</time></trkpt><trkpt lat="42.01648669303209" lon="12.908864033469692"><ele>322.0</ele><time>2026-04-12T15:09:35.999Z</time></trkpt><trkpt lat="42.016351596183796" lon="12.908582616573138"><ele>312.0</ele><time>2026-04-12T15:09:36.999Z</time></trkpt><trkpt lat="42.016213644080466" lon="12.908295281456981"><ele>302.0</ele><time>2026-04-12T15:09:37.999Z</time></trkpt><trkpt lat="42.01606532054882" lon="12.908019938995569"><ele>302.0</ele><time>2026-04-12T15:09:38.999Z</time></trkpt><trkpt lat="42.01590196638452" lon="12.907748832252048"><ele>302.0</ele><time>2026-04-12T15:09:39.998Z</time></trkpt><trkpt lat="42.01574660990028" lon="12.907470233636854"><ele>313.5</ele><time>2026-04-12T15:09:40.998Z</time></trkpt><trkpt lat="42.0155848103251" lon="12.907197695839047"><ele>325.0</ele><time>2026-04-12T15:09:41.998Z</time></trkpt><trkpt lat="42.015429254958924" lon="12.906925019663475"><ele>327.0</ele><time>2026-04-12T15:09:42.998Z</time></trkpt><trkpt lat="42.01528356475885" lon="12.906654836623925"><ele>329.0</ele><time>2026-04-12T15:09:43.998Z</time></trkpt><trkpt lat="42.01514274219871" lon="12.906379783374966"><ele>329.0</ele><time>2026-04-12T15:09:44.998Z</time></trkpt><trkpt lat="42.01500034853953" lon="12.906108419667484"><ele>329.0</ele><time>2026-04-12T15:09:45.998Z</time></trkpt><trkpt lat="42.014857478009255" lon="12.905838126147371"><ele>362.0</ele><time>2026-04-12T15:09:46.998Z</time></trkpt><trkpt lat="42.014711814545315" lon="12.905564364040503"><ele>395.0</ele><time>2026-04-12T15:09:47.998Z</time></trkpt><trkpt lat="42.014575437421044" lon="12.905287526759937"><ele>392.5</ele><time>2026-04-12T15:09:48.998Z</time></trkpt><trkpt lat="42.0144418013803" lon="12.905005101235371"><ele>390.0</ele><time>2026-04-12T15:09:49.998Z</time></trkpt><trkpt lat="42.01430656523107" lon="12.904722370880101"><ele>390.0</ele><time>2026-04-12T15:09:50.998Z</time></trkpt><trkpt lat="42.014177880191944" lon="12.904442645021286"><ele>390.0</ele><time>2026-04-12T15:09:51.998Z</time></trkpt><trkpt lat="42.01404344695716" lon="12.904171753235941"><ele>393.0</ele><time>2026-04-12T15:09:52.998Z</time></trkpt><trkpt lat="42.01394243737744" lon="12.903874310817026"><ele>396.0</ele><time>2026-04-12T15:09:53.998Z</time></trkpt><trkpt lat="42.01384879571553" lon="12.90356772453268"><ele>389.0</ele><time>2026-04-12T15:09:54.998Z</time></trkpt><trkpt lat="42.01376512840238" lon="12.903264312806067"><ele>382.0</ele><time>2026-04-12T15:09:55.998Z</time></trkpt><trkpt lat="42.0136878773316" lon="12.90295669638652"><ele>392.0</ele><time>2026-04-12T15:09:56.998Z</time></trkpt><trkpt lat="42.01359100843775" lon="12.902349968087677"><ele>392.0</ele><time>2026-04-12T15:09:57.998Z</time></trkpt><trkpt lat="42.0135143367116" lon="12.901997786062344"><ele>392.0</ele><time>2026-04-12T15:09:58.998Z</time></trkpt><trkpt lat="42.01344940865106" lon="12.901641615374249"><ele>391.0</ele><time>2026-04-12T15:09:59.998Z</time></trkpt><trkpt lat="42.01338501177845" lon="12.90128571351173"><ele>390.0</ele><time>2026-04-12T15:10:00.998Z</time></trkpt><trkpt lat="42.01332397943126" lon="12.900922511316343"><ele>389.5</ele><time>2026-04-12T15:10:01.998Z</time></trkpt><trkpt lat="42.0132730333853" lon="12.900557633540142"><ele>389.0</ele><time>2026-04-12T15:10:02.998Z</time></trkpt><trkpt lat="42.01322126489075" lon="12.900186865138828"><ele>375.0</ele><time>2026-04-12T15:10:03.998Z</time></trkpt><trkpt lat="42.01317490892849" lon="12.899818749758298"><ele>361.0</ele><time>2026-04-12T15:10:04.998Z</time></trkpt><trkpt lat="42.01312329303701" lon="12.899454620238524"><ele>350.5</ele><time>2026-04-12T15:10:06Z</time></trkpt><trkpt lat="42.0130692681344" lon="12.899097594051938"><ele>340.0</ele><time>2026-04-12T15:10:07Z</time></trkpt><trkpt lat="42.013011683452156" lon="12.898745854214953"><ele>340.0</ele><time>2026-04-12T15:10:08Z</time></trkpt><trkpt lat="42.01300248735776" lon="12.898449078264893"><ele>340.0</ele><time>2026-04-12T15:10:09Z</time></trkpt><trkpt lat="42.01295172612476" lon="12.898114916818136"><ele>340.0</ele><time>2026-04-12T15:10:10Z</time></trkpt><trkpt lat="42.01288121048187" lon="12.897751648002863"><ele>340.0</ele><time>2026-04-12T15:10:11Z</time></trkpt><trkpt lat="42.012814274731795" lon="12.89741207014494"><ele>340.0</ele><time>2026-04-12T15:10:12Z</time></trkpt><trkpt lat="42.012764713721424" lon="12.897107065880773"><ele>340.0</ele><time>2026-04-12T15:10:13Z</time></trkpt><trkpt lat="42.01267846743099" lon="12.89674105541855"><ele>334.0</ele><time>2026-04-12T15:10:14Z</time></trkpt><trkpt lat="42.01258485699666" lon="12.896371230395026"><ele>328.0</ele><time>2026-04-12T15:10:15Z</time></trkpt><trkpt lat="42.01248418412463" lon="12.89599968375923"><ele>337.5</ele><time>2026-04-12T15:10:16Z</time></trkpt><trkpt lat="42.01237441127544" lon="12.89562886173605"><ele>347.0</ele><time>2026-04-12T15:10:17Z</time></trkpt><trkpt lat="42.012253930346134" lon="12.895258613348682"><ele>340.5</ele><time>2026-04-12T15:10:18Z</time></trkpt><trkpt lat="42.01212745708432" lon="12.894888485390164"><ele>334.0</ele><time>2026-04-12T15:10:19Z</time></trkpt><trkpt lat="42.01199279152013" lon="12.894521082365763"><ele>327.0</ele><time>2026-04-12T15:10:20Z</time></trkpt><trkpt lat="42.01185215899356" lon="12.89416206393243"><ele>320.0</ele><time>2026-04-12T15:10:21Z</time></trkpt><trkpt lat="42.011705637829024" lon="12.893807847087169"><ele>326.5</ele><time>2026-04-12T15:10:22Z</time></trkpt><trkpt lat="42.01155075446529" lon="12.893461019067804"><ele>333.0</ele><time>2026-04-12T15:10:23Z</time></trkpt><trkpt lat="42.01138627785721" lon="12.893122848400752"><ele>333.0</ele><time>2026-04-12T15:10:24Z</time></trkpt><trkpt lat="42.01121502433241" lon="12.892794837604704"><ele>333.0</ele><time>2026-04-12T15:10:25Z</time></trkpt><trkpt lat="42.011033831461155" lon="12.892471489155566"><ele>335.0</ele><time>2026-04-12T15:10:26Z</time></trkpt><trkpt lat="42.01084743063238" lon="12.892155929569842"><ele>337.0</ele><time>2026-04-12T15:10:27Z</time></trkpt><trkpt lat="42.010649418299984" lon="12.89184688585986"><ele>328.0</ele><time>2026-04-12T15:10:28Z</time></trkpt><trkpt lat="42.01044433907025" lon="12.891547798902051"><ele>319.0</ele><time>2026-04-12T15:10:29Z</time></trkpt><trkpt lat="42.01022919915222" lon="12.891258368631584"><ele>319.0</ele><time>2026-04-12T15:10:30Z</time></trkpt><trkpt lat="42.01000810865816" lon="12.890977139824708"><ele>319.0</ele><time>2026-04-12T15:10:31Z</time></trkpt><trkpt lat="42.00977924882051" lon="12.89070604572889"><ele>323.5</ele><time>2026-04-12T15:10:32Z</time></trkpt><trkpt lat="42.0095417294412" lon="12.890443709325224"><ele>328.0</ele><time>2026-04-12T15:10:33Z</time></trkpt><trkpt lat="42.00929902667284" lon="12.890191655815562"><ele>332.5</ele><time>2026-04-12T15:10:34Z</time></trkpt><trkpt lat="42.00905031962463" lon="12.889951160037668"><ele>337.0</ele><time>2026-04-12T15:10:35Z</time></trkpt><trkpt lat="42.008795581047906" lon="12.889721221833934"><ele>337.0</ele><time>2026-04-12T15:10:36Z</time></trkpt><trkpt lat="42.008534978356394" lon="12.889499446006175"><ele>337.0</ele><time>2026-04-12T15:10:37Z</time></trkpt><trkpt lat="42.00826940520758" lon="12.88928396667497"><ele>331.0</ele><time>2026-04-12T15:10:38Z</time></trkpt><trkpt lat="42.008003443298875" lon="12.889070316326745"><ele>325.0</ele><time>2026-04-12T15:10:39Z</time></trkpt><trkpt lat="42.00773863069025" lon="12.888857705752553"><ele>324.0</ele><time>2026-04-12T15:10:40Z</time></trkpt><trkpt lat="42.00747105352938" lon="12.888646303939774"><ele>323.0</ele><time>2026-04-12T15:10:41Z</time></trkpt><trkpt lat="42.007204112271225" lon="12.888435122788353"><ele>313.0</ele><time>2026-04-12T15:10:42Z</time></trkpt><trkpt lat="42.00693661117108" lon="12.88822473588307"><ele>303.0</ele><time>2026-04-12T15:10:43Z</time></trkpt><trkpt lat="42.00666774712457" lon="12.888013031979975"><ele>309.5</ele><time>2026-04-12T15:10:44Z</time></trkpt><trkpt lat="42.00639616637638" lon="12.887800540791961"><ele>316.0</ele><time>2026-04-12T15:10:45Z</time></trkpt><trkpt lat="42.006126863226264" lon="12.887584645384576"><ele>316.0</ele><time>2026-04-12T15:10:46Z</time></trkpt><trkpt lat="42.005856420085564" lon="12.887370477021403"><ele>316.0</ele><time>2026-04-12T15:10:47Z</time></trkpt><trkpt lat="42.005585212185494" lon="12.887157094563912"><ele>314.5</ele><time>2026-04-12T15:10:48Z</time></trkpt><trkpt lat="42.00531477587417" lon="12.886941200670334"><ele>313.0</ele><time>2026-04-12T15:10:49Z</time></trkpt><trkpt lat="42.00504416213085" lon="12.886724620004015"><ele>313.5</ele><time>2026-04-12T15:10:50Z</time></trkpt><trkpt lat="42.004774216493125" lon="12.886507635831844"><ele>314.0</ele><time>2026-04-12T15:10:50.999Z</time></trkpt><trkpt lat="42.0045036230696" lon="12.886292556323847"><ele>314.0</ele><time>2026-04-12T15:10:51.999Z</time></trkpt><trkpt lat="42.00422849771153" lon="12.886075547182266"><ele>314.0</ele><time>2026-04-12T15:10:52.999Z</time></trkpt><trkpt lat="42.00395003161201" lon="12.88585715190143"><ele>323.5</ele><time>2026-04-12T15:10:53.999Z</time></trkpt><trkpt lat="42.00367408105476" lon="12.885641466670453"><ele>333.0</ele><time>2026-04-12T15:10:54.999Z</time></trkpt><trkpt lat="42.003397194850656" lon="12.885413193414253"><ele>334.0</ele><time>2026-04-12T15:10:55.999Z</time></trkpt><trkpt lat="42.003108167465236" lon="12.88519084100058"><ele>335.0</ele><time>2026-04-12T15:10:56.999Z</time></trkpt><trkpt lat="42.00282586450326" lon="12.884961848983965"><ele>335.0</ele><time>2026-04-12T15:10:57.999Z</time></trkpt><trkpt lat="42.00254344023343" lon="12.884736273535113"><ele>335.0</ele><time>2026-04-12T15:10:58.999Z</time></trkpt><trkpt lat="42.00225991385697" lon="12.884511452049242"><ele>334.5</ele><time>2026-04-12T15:10:59.999Z</time></trkpt><trkpt lat="42.001977921969655" lon="12.88428601935735"><ele>334.0</ele><time>2026-04-12T15:11:00.999Z</time></trkpt><trkpt lat="42.001697938584044" lon="12.884060181524037"><ele>337.0</ele><time>2026-04-12T15:11:01.999Z</time></trkpt><trkpt lat="42.00141972185957" lon="12.88383379499428"><ele>340.0</ele><time>2026-04-12T15:11:02.999Z</time></trkpt><trkpt lat="42.00113970063483" lon="12.883610637079348"><ele>340.5</ele><time>2026-04-12T15:11:03.999Z</time></trkpt><trkpt lat="42.00085821817838" lon="12.883389592562242"><ele>341.0</ele><time>2026-04-12T15:11:04.999Z</time></trkpt><trkpt lat="42.00058718114585" lon="12.88317594130846"><ele>341.0</ele><time>2026-04-12T15:11:05.999Z</time></trkpt><trkpt lat="42.00034717162823" lon="12.88295773582667"><ele>341.0</ele><time>2026-04-12T15:11:06.999Z</time></trkpt><trkpt lat="42.00010894153485" lon="12.882745551488465"><ele>335.5</ele><time>2026-04-12T15:11:07.999Z</time></trkpt><trkpt lat="41.9997703906374" lon="12.88251552365807"><ele>330.0</ele><time>2026-04-12T15:11:08.999Z</time></trkpt><trkpt lat="41.999508091617486" lon="12.882322254472966"><ele>330.0</ele><time>2026-04-12T15:11:09.999Z</time></trkpt><trkpt lat="41.99924532460636" lon="12.882133875337148"><ele>330.0</ele><time>2026-04-12T15:11:10.999Z</time></trkpt><trkpt lat="41.99898359681811" lon="12.881958887827155"><ele>329.5</ele><time>2026-04-12T15:11:11.999Z</time></trkpt><trkpt lat="41.998707556115825" lon="12.881791239474461"><ele>329.0</ele><time>2026-04-12T15:11:12.999Z</time></trkpt><trkpt lat="41.99842044338836" lon="12.881641300127848"><ele>329.5</ele><time>2026-04-12T15:11:13.999Z</time></trkpt><trkpt lat="41.99812761214926" lon="12.88150393573309"><ele>330.0</ele><time>2026-04-12T15:11:14.999Z</time></trkpt><trkpt lat="41.99782565513058" lon="12.88139075488576"><ele>330.0</ele><time>2026-04-12T15:11:15.999Z</time></trkpt><trkpt lat="41.997521772720845" lon="12.881288183289357"><ele>330.0</ele><time>2026-04-12T15:11:16.999Z</time></trkpt><trkpt lat="41.99721054881888" lon="12.881204239232876"><ele>336.0</ele><time>2026-04-12T15:11:17.999Z</time></trkpt><trkpt lat="41.99689024109376" lon="12.881138158942067"><ele>342.0</ele><time>2026-04-12T15:11:18.999Z</time></trkpt><trkpt lat="41.99657619398051" lon="12.881089101589595"><ele>344.5</ele><time>2026-04-12T15:11:19.999Z</time></trkpt><trkpt lat="41.99626784962634" lon="12.881048557453994"><ele>347.0</ele><time>2026-04-12T15:11:20.999Z</time></trkpt><trkpt lat="41.99596015296742" lon="12.880999910799453"><ele>346.0</ele><time>2026-04-12T15:11:21.999Z</time></trkpt><trkpt lat="41.995654680852724" lon="12.880950406334518"><ele>345.0</ele><time>2026-04-12T15:11:22.999Z</time></trkpt><trkpt lat="41.99535157795913" lon="12.88090306348136"><ele>336.5</ele><time>2026-04-12T15:11:23.999Z</time></trkpt><trkpt lat="41.99505353383503" lon="12.880859629214362"><ele>328.0</ele><time>2026-04-12T15:11:24.999Z</time></trkpt><trkpt lat="41.99475601926467" lon="12.880810400390688"><ele>328.0</ele><time>2026-04-12T15:11:25.999Z</time></trkpt><trkpt lat="41.9944524937813" lon="12.880771249885546"><ele>328.0</ele><time>2026-04-12T15:11:26.999Z</time></trkpt><trkpt lat="41.994147608115824" lon="12.88072401598985"><ele>330.5</ele><time>2026-04-12T15:11:27.999Z</time></trkpt><trkpt lat="41.99384590119836" lon="12.88067894405991"><ele>333.0</ele><time>2026-04-12T15:11:28.999Z</time></trkpt><trkpt lat="41.99354625058431" lon="12.880633668680515"><ele>336.0</ele><time>2026-04-12T15:11:29.999Z</time></trkpt><trkpt lat="41.993241867076044" lon="12.880586225537066"><ele>339.0</ele><time>2026-04-12T15:11:30.999Z</time></trkpt><trkpt lat="41.99294514192337" lon="12.880537626131131"><ele>339.0</ele><time>2026-04-12T15:11:31.999Z</time></trkpt><trkpt lat="41.99264553514584" lon="12.880487495858691"><ele>339.0</ele><time>2026-04-12T15:11:32.999Z</time></trkpt><trkpt lat="41.99234729571838" lon="12.88044239982809"><ele>332.0</ele><time>2026-04-12T15:11:33.999Z</time></trkpt><trkpt lat="41.99204852319269" lon="12.880396451874471"><ele>325.0</ele><time>2026-04-12T15:11:34.999Z</time></trkpt><trkpt lat="41.99174984848886" lon="12.880354511287646"><ele>322.0</ele><time>2026-04-12T15:11:35.999Z</time></trkpt><trkpt lat="41.99144896098904" lon="12.880311508466207"><ele>319.0</ele><time>2026-04-12T15:11:36.999Z</time></trkpt><trkpt lat="41.99115229776581" lon="12.880263060824328"><ele>319.0</ele><time>2026-04-12T15:11:37.999Z</time></trkpt><trkpt lat="41.99084322932117" lon="12.880218317987037"><ele>319.0</ele><time>2026-04-12T15:11:38.999Z</time></trkpt><trkpt lat="41.99053698729991" lon="12.880176177564863"><ele>328.0</ele><time>2026-04-12T15:11:39.999Z</time></trkpt><trkpt lat="41.990232461101456" lon="12.880121660330474"><ele>337.0</ele><time>2026-04-12T15:11:40.999Z</time></trkpt><trkpt lat="41.98992693935327" lon="12.880072954046614"><ele>337.0</ele><time>2026-04-12T15:11:41.999Z</time></trkpt><trkpt lat="41.98961893640815" lon="12.880028134627112"><ele>337.0</ele><time>2026-04-12T15:11:42.999Z</time></trkpt><trkpt lat="41.98930994970827" lon="12.879988931105574"><ele>336.5</ele><time>2026-04-12T15:11:43.999Z</time></trkpt><trkpt lat="41.98900434898035" lon="12.879935575921733"><ele>336.0</ele><time>2026-04-12T15:11:44.998Z</time></trkpt><trkpt lat="41.98869975248986" lon="12.879888116398922"><ele>336.0</ele><time>2026-04-12T15:11:45.998Z</time></trkpt><trkpt lat="41.98839450171609" lon="12.879841359365939"><ele>336.0</ele><time>2026-04-12T15:11:46.998Z</time></trkpt><trkpt lat="41.98808692333631" lon="12.879793277783813"><ele>337.0</ele><time>2026-04-12T15:11:47.998Z</time></trkpt><trkpt lat="41.987783539879594" lon="12.879744726488408"><ele>338.0</ele><time>2026-04-12T15:11:48.998Z</time></trkpt><trkpt lat="41.98747800628007" lon="12.87969542616671"><ele>339.5</ele><time>2026-04-12T15:11:49.998Z</time></trkpt><trkpt lat="41.98717350315474" lon="12.879645197265706"><ele>341.0</ele><time>2026-04-12T15:11:50.998Z</time></trkpt><trkpt lat="41.986868401374316" lon="12.879598893525614"><ele>334.0</ele><time>2026-04-12T15:11:51.998Z</time></trkpt><trkpt lat="41.986557693302004" lon="12.879555203109748"><ele>327.0</ele><time>2026-04-12T15:11:52.998Z</time></trkpt><trkpt lat="41.98624740114436" lon="12.879505999850677"><ele>327.0</ele><time>2026-04-12T15:11:53.998Z</time></trkpt><trkpt lat="41.98593598273833" lon="12.879458295944437"><ele>327.0</ele><time>2026-04-12T15:11:54.998Z</time></trkpt><trkpt lat="41.985620943352856" lon="12.879410549740625"><ele>321.0</ele><time>2026-04-12T15:11:55.998Z</time></trkpt><trkpt lat="41.98531035954762" lon="12.879362248645222"><ele>315.0</ele><time>2026-04-12T15:11:56.998Z</time></trkpt><trkpt lat="41.98500404587941" lon="12.87931452085482"><ele>315.0</ele><time>2026-04-12T15:11:57.998Z</time></trkpt><trkpt lat="41.984701536982556" lon="12.87926586653737"><ele>315.0</ele><time>2026-04-12T15:11:58.998Z</time></trkpt><trkpt lat="41.98440353533657" lon="12.87922149707254"><ele>326.5</ele><time>2026-04-12T15:11:59.998Z</time></trkpt><trkpt lat="41.98409683858372" lon="12.879173867272526"><ele>338.0</ele><time>2026-04-12T15:12:00.998Z</time></trkpt><trkpt lat="41.98378317980749" lon="12.87912801439933"><ele>338.0</ele><time>2026-04-12T15:12:01.998Z</time></trkpt><trkpt lat="41.98346062686012" lon="12.879073350170255"><ele>338.0</ele><time>2026-04-12T15:12:02.998Z</time></trkpt><trkpt lat="41.98314150034737" lon="12.879022295524202"><ele>339.5</ele><time>2026-04-12T15:12:03.998Z</time></trkpt><trkpt lat="41.98281854700369" lon="12.8789690013839"><ele>341.0</ele><time>2026-04-12T15:12:04.998Z</time></trkpt><trkpt lat="41.98248833264031" lon="12.878919416499162"><ele>335.5</ele><time>2026-04-12T15:12:05.998Z</time></trkpt><trkpt lat="41.98215909331209" lon="12.87886941786968"><ele>330.0</ele><time>2026-04-12T15:12:06.998Z</time></trkpt><trkpt lat="41.9818306310787" lon="12.87882066747968"><ele>323.0</ele><time>2026-04-12T15:12:07.998Z</time></trkpt><trkpt lat="41.98150269915336" lon="12.87877076920991"><ele>316.0</ele><time>2026-04-12T15:12:08.998Z</time></trkpt><trkpt lat="41.98117398263719" lon="12.87871926805527"><ele>310.0</ele><time>2026-04-12T15:12:09.998Z</time></trkpt><trkpt lat="41.98084382800212" lon="12.878666471462822"><ele>304.0</ele><time>2026-04-12T15:12:10.998Z</time></trkpt><trkpt lat="41.98051256208301" lon="12.878615975922084"><ele>304.0</ele><time>2026-04-12T15:12:12Z</time></trkpt><trkpt lat="41.98018182044012" lon="12.87856308072352"><ele>304.0</ele><time>2026-04-12T15:12:13Z</time></trkpt><trkpt lat="41.979851028575304" lon="12.878511040508995"><ele>305.0</ele><time>2026-04-12T15:12:14Z</time></trkpt><trkpt lat="41.979519975756126" lon="12.878459021073652"><ele>306.0</ele><time>2026-04-12T15:12:15Z</time></trkpt><trkpt lat="41.97918777226169" lon="12.878408720213724"><ele>303.5</ele><time>2026-04-12T15:12:16Z</time></trkpt><trkpt lat="41.9788539770928" lon="12.87835704270387"><ele>301.0</ele><time>2026-04-12T15:12:17Z</time></trkpt><trkpt lat="41.978519512348015" lon="12.878302251643547"><ele>307.5</ele><time>2026-04-12T15:12:18Z</time></trkpt><trkpt lat="41.97818545343527" lon="12.878252470962561"><ele>314.0</ele><time>2026-04-12T15:12:19Z</time></trkpt><trkpt lat="41.9778506817139" lon="12.878203265397307"><ele>322.0</ele><time>2026-04-12T15:12:20Z</time></trkpt><trkpt lat="41.97751610757191" lon="12.878152557860462"><ele>330.0</ele><time>2026-04-12T15:12:21Z</time></trkpt><trkpt lat="41.97718116781697" lon="12.878098697156052"><ele>330.0</ele><time>2026-04-12T15:12:22Z</time></trkpt><trkpt lat="41.97684569820954" lon="12.87804299674855"><ele>330.0</ele><time>2026-04-12T15:12:23Z</time></trkpt><trkpt lat="41.97651502083953" lon="12.877986332226033"><ele>336.0</ele><time>2026-04-12T15:12:24Z</time></trkpt><trkpt lat="41.976191664064494" lon="12.877929814618952"><ele>342.0</ele><time>2026-04-12T15:12:25Z</time></trkpt><trkpt lat="41.97587261657025" lon="12.877872985251024"><ele>344.0</ele><time>2026-04-12T15:12:26Z</time></trkpt><trkpt lat="41.97557175770889" lon="12.877823688424645"><ele>346.0</ele><time>2026-04-12T15:12:27Z</time></trkpt><trkpt lat="41.975274748503075" lon="12.87777614523248"><ele>349.5</ele><time>2026-04-12T15:12:28Z</time></trkpt><trkpt lat="41.974972509756746" lon="12.87773487599604"><ele>353.0</ele><time>2026-04-12T15:12:29Z</time></trkpt><trkpt lat="41.974675832383426" lon="12.877694553871589"><ele>353.0</ele><time>2026-04-12T15:12:30Z</time></trkpt><trkpt lat="41.974383308016684" lon="12.877652463888168"><ele>353.0</ele><time>2026-04-12T15:12:31Z</time></trkpt><trkpt lat="41.97408954689583" lon="12.877608185346714"><ele>350.5</ele><time>2026-04-12T15:12:32Z</time></trkpt><trkpt lat="41.973796211364316" lon="12.877566257012338"><ele>348.0</ele><time>2026-04-12T15:12:33Z</time></trkpt><trkpt lat="41.97349873906619" lon="12.877521486993045"><ele>341.5</ele><time>2026-04-12T15:12:34Z</time></trkpt><trkpt lat="41.973309310685316" lon="12.877427961976583"><ele>335.0</ele><time>2026-04-12T15:12:35Z</time></trkpt><trkpt lat="41.973021073029784" lon="12.877421124482614"><ele>335.0</ele><time>2026-04-12T15:12:36Z</time></trkpt><trkpt lat="41.972731623296234" lon="12.877380111613844"><ele>335.0</ele><time>2026-04-12T15:12:37Z</time></trkpt><trkpt lat="41.97244513751232" lon="12.87732735397107"><ele>331.0</ele><time>2026-04-12T15:12:38Z</time></trkpt><trkpt lat="41.97215308039379" lon="12.877273503033656"><ele>327.0</ele><time>2026-04-12T15:12:39Z</time></trkpt><trkpt lat="41.97186439198613" lon="12.877217808586948"><ele>323.0</ele><time>2026-04-12T15:12:40Z</time></trkpt><trkpt lat="41.971570155923764" lon="12.877160584295376"><ele>319.0</ele><time>2026-04-12T15:12:41Z</time></trkpt><trkpt lat="41.971275294844276" lon="12.877093981036596"><ele>319.0</ele><time>2026-04-12T15:12:42Z</time></trkpt><trkpt lat="41.97098501952835" lon="12.87701046017846"><ele>319.0</ele><time>2026-04-12T15:12:43Z</time></trkpt><trkpt lat="41.970687770068714" lon="12.876920599834824"><ele>318.0</ele><time>2026-04-12T15:12:44Z</time></trkpt><trkpt lat="41.97040064971184" lon="12.876825128096193"><ele>317.0</ele><time>2026-04-12T15:12:45Z</time></trkpt><trkpt lat="41.970102471437436" lon="12.876722548917465"><ele>315.5</ele><time>2026-04-12T15:12:46Z</time></trkpt><trkpt lat="41.96980713813179" lon="12.87661673332295"><ele>314.0</ele><time>2026-04-12T15:12:47Z</time></trkpt><trkpt lat="41.96951218292103" lon="12.876502163299312"><ele>314.0</ele><time>2026-04-12T15:12:48Z</time></trkpt><trkpt lat="41.96921461574772" lon="12.876377144908757"><ele>314.0</ele><time>2026-04-12T15:12:49Z</time></trkpt><trkpt lat="41.968911814620746" lon="12.876241122637076"><ele>311.5</ele><time>2026-04-12T15:12:50Z</time></trkpt><trkpt lat="41.968605692226774" lon="12.876097682271679"><ele>309.0</ele><time>2026-04-12T15:12:51Z</time></trkpt><trkpt lat="41.9683004095317" lon="12.875945191501495"><ele>308.0</ele><time>2026-04-12T15:12:52Z</time></trkpt><trkpt lat="41.96799423610678" lon="12.875792511442663"><ele>307.0</ele><time>2026-04-12T15:12:53Z</time></trkpt><trkpt lat="41.96768835360375" lon="12.875623007032527"><ele>308.0</ele><time>2026-04-12T15:12:54Z</time></trkpt><trkpt lat="41.96737881260699" lon="12.875443894394339"><ele>309.0</ele><time>2026-04-12T15:12:55Z</time></trkpt><trkpt lat="41.96707294082607" lon="12.875251320285841"><ele>310.5</ele><time>2026-04-12T15:12:55.999Z</time></trkpt><trkpt lat="41.96677031280576" lon="12.875048238618552"><ele>312.0</ele><time>2026-04-12T15:12:56.999Z</time></trkpt><trkpt lat="41.96646487894122" lon="12.87483748628375"><ele>312.0</ele><time>2026-04-12T15:12:57.999Z</time></trkpt><trkpt lat="41.9661607775484" lon="12.87462185609434"><ele>312.0</ele><time>2026-04-12T15:12:58.999Z</time></trkpt><trkpt lat="41.96586231177224" lon="12.874401863465659"><ele>311.0</ele><time>2026-04-12T15:12:59.999Z</time></trkpt><trkpt lat="41.965566131353306" lon="12.874183117878518"><ele>310.0</ele><time>2026-04-12T15:13:00.999Z</time></trkpt><trkpt lat="41.965272908552386" lon="12.873963849428039"><ele>309.5</ele><time>2026-04-12T15:13:01.999Z</time></trkpt><trkpt lat="41.96498533617272" lon="12.873744298302144"><ele>309.0</ele><time>2026-04-12T15:13:02.999Z</time></trkpt><trkpt lat="41.964698691776334" lon="12.873521257577812"><ele>308.5</ele><time>2026-04-12T15:13:03.999Z</time></trkpt><trkpt lat="41.964412936763395" lon="12.873294986939664"><ele>308.0</ele><time>2026-04-12T15:13:04.999Z</time></trkpt><trkpt lat="41.9641265504865" lon="12.873065427567722"><ele>304.5</ele><time>2026-04-12T15:13:05.999Z</time></trkpt><trkpt lat="41.96383870384889" lon="12.872832459085345"><ele>301.0</ele><time>2026-04-12T15:13:06.999Z</time></trkpt><trkpt lat="41.96354907176821" lon="12.872594385965405"><ele>298.5</ele><time>2026-04-12T15:13:07.999Z</time></trkpt><trkpt lat="41.96326009725258" lon="12.872353730677315"><ele>296.0</ele><time>2026-04-12T15:13:08.999Z</time></trkpt><trkpt lat="41.9629701985829" lon="12.872111322870133"><ele>296.0</ele><time>2026-04-12T15:13:09.999Z</time></trkpt><trkpt lat="41.96267943409958" lon="12.87186512598573"><ele>296.0</ele><time>2026-04-12T15:13:10.999Z</time></trkpt><trkpt lat="41.96238934371957" lon="12.871615943678844"><ele>289.0</ele><time>2026-04-12T15:13:11.999Z</time></trkpt><trkpt lat="41.96209794696209" lon="12.871364326862055"><ele>282.0</ele><time>2026-04-12T15:13:12.999Z</time></trkpt><trkpt lat="41.96180868572134" lon="12.871110506381223"><ele>279.5</ele><time>2026-04-12T15:13:13.999Z</time></trkpt><trkpt lat="41.96152085288905" lon="12.870853673305142"><ele>277.0</ele><time>2026-04-12T15:13:14.999Z</time></trkpt><trkpt lat="41.96123386280337" lon="12.87059428747122"><ele>277.0</ele><time>2026-04-12T15:13:15.999Z</time></trkpt><trkpt lat="41.96094866896045" lon="12.870331686326406"><ele>277.0</ele><time>2026-04-12T15:13:16.999Z</time></trkpt><trkpt lat="41.960667334193694" lon="12.870064028663638"><ele>275.0</ele><time>2026-04-12T15:13:17.999Z</time></trkpt><trkpt lat="41.9603879196373" lon="12.869793925181666"><ele>273.0</ele><time>2026-04-12T15:13:18.999Z</time></trkpt><trkpt lat="41.96011172914561" lon="12.869526465857465"><ele>269.0</ele><time>2026-04-12T15:13:19.999Z</time></trkpt><trkpt lat="41.959835519321004" lon="12.869261521412481"><ele>265.0</ele><time>2026-04-12T15:13:20.999Z</time></trkpt><trkpt lat="41.95956219363752" lon="12.86899798746619"><ele>265.0</ele><time>2026-04-12T15:13:21.999Z</time></trkpt><trkpt lat="41.959290550453765" lon="12.868731784565343"><ele>265.0</ele><time>2026-04-12T15:13:22.999Z</time></trkpt><trkpt lat="41.95902741064714" lon="12.868465991956825"><ele>262.0</ele><time>2026-04-12T15:13:23.999Z</time></trkpt><trkpt lat="41.95876570363969" lon="12.868191861130743"><ele>259.0</ele><time>2026-04-12T15:13:24.999Z</time></trkpt><trkpt lat="41.95850332539967" lon="12.867917805854807"><ele>258.0</ele><time>2026-04-12T15:13:25.999Z</time></trkpt><trkpt lat="41.95824211647614" lon="12.867645722104147"><ele>257.0</ele><time>2026-04-12T15:13:26.999Z</time></trkpt><trkpt lat="41.957982611674794" lon="12.867374823434272"><ele>256.5</ele><time>2026-04-12T15:13:27.999Z</time></trkpt><trkpt lat="41.957727828994344" lon="12.86710097000483"><ele>256.0</ele><time>2026-04-12T15:13:28.999Z</time></trkpt><trkpt lat="41.95747480083397" lon="12.866826172964302"><ele>256.0</ele><time>2026-04-12T15:13:29.999Z</time></trkpt><trkpt lat="41.95723214074558" lon="12.866554764541625"><ele>256.0</ele><time>2026-04-12T15:13:30.999Z</time></trkpt><trkpt lat="41.9569832619718" lon="12.866273970247533"><ele>256.0</ele><time>2026-04-12T15:13:31.999Z</time></trkpt><trkpt lat="41.956732389569055" lon="12.8660052884028"><ele>256.0</ele><time>2026-04-12T15:13:32.999Z</time></trkpt><trkpt lat="41.95648760319944" lon="12.865730984816633"><ele>257.5</ele><time>2026-04-12T15:13:33.999Z</time></trkpt><trkpt lat="41.95624738518543" lon="12.865454533917923"><ele>259.0</ele><time>2026-04-12T15:13:34.999Z</time></trkpt><trkpt lat="41.95601034092093" lon="12.86517677463374"><ele>262.5</ele><time>2026-04-12T15:13:35.999Z</time></trkpt><trkpt lat="41.95577191212051" lon="12.864895569759147"><ele>266.0</ele><time>2026-04-12T15:13:36.999Z</time></trkpt><trkpt lat="41.955537389875616" lon="12.864612846135888"><ele>266.0</ele><time>2026-04-12T15:13:37.999Z</time></trkpt><trkpt lat="41.95530285919574" lon="12.86432862082692"><ele>266.0</ele><time>2026-04-12T15:13:38.999Z</time></trkpt><trkpt lat="41.95507038496466" lon="12.8640445570673"><ele>265.0</ele><time>2026-04-12T15:13:39.999Z</time></trkpt><trkpt lat="41.954837302816024" lon="12.863759288911584"><ele>264.0</ele><time>2026-04-12T15:13:40.999Z</time></trkpt><trkpt lat="41.954607367999756" lon="12.863471137433477"><ele>264.0</ele><time>2026-04-12T15:13:41.999Z</time></trkpt><trkpt lat="41.95438058092129" lon="12.863180884665212"><ele>264.0</ele><time>2026-04-12T15:13:42.999Z</time></trkpt><trkpt lat="41.954157054590816" lon="12.862892210650621"><ele>264.0</ele><time>2026-04-12T15:13:43.999Z</time></trkpt><trkpt lat="41.95393400506398" lon="12.862603986016776"><ele>264.0</ele><time>2026-04-12T15:13:44.999Z</time></trkpt><trkpt lat="41.95371120556135" lon="12.862317422717794"><ele>264.0</ele><time>2026-04-12T15:13:45.999Z</time></trkpt><trkpt lat="41.95348793723296" lon="12.862025484323414"><ele>264.0</ele><time>2026-04-12T15:13:46.999Z</time></trkpt><trkpt lat="41.95326635152349" lon="12.861729087200551"><ele>267.5</ele><time>2026-04-12T15:13:47.999Z</time></trkpt><trkpt lat="41.95304217154074" lon="12.861427286913338"><ele>271.0</ele><time>2026-04-12T15:13:48.998Z</time></trkpt><trkpt lat="41.95281989794207" lon="12.861121984676329"><ele>271.5</ele><time>2026-04-12T15:13:49.998Z</time></trkpt><trkpt lat="41.9525971621163" lon="12.860815074849018"><ele>272.0</ele><time>2026-04-12T15:13:50.998Z</time></trkpt><trkpt lat="41.952373110475264" lon="12.860501565324768"><ele>273.5</ele><time>2026-04-12T15:13:51.998Z</time></trkpt><trkpt lat="41.952158607034164" lon="12.860189619416284"><ele>275.0</ele><time>2026-04-12T15:13:52.998Z</time></trkpt><trkpt lat="41.95192904133788" lon="12.859874596808583"><ele>278.5</ele><time>2026-04-12T15:13:53.998Z</time></trkpt><trkpt lat="41.951705563428575" lon="12.859558610492693"><ele>282.0</ele><time>2026-04-12T15:13:54.998Z</time></trkpt><trkpt lat="41.95147579114013" lon="12.859244901013366"><ele>282.0</ele><time>2026-04-12T15:13:55.998Z</time></trkpt><trkpt lat="41.95125266890811" lon="12.858930138131333"><ele>282.0</ele><time>2026-04-12T15:13:56.998Z</time></trkpt><trkpt lat="41.951033164660664" lon="12.858616577116225"><ele>280.5</ele><time>2026-04-12T15:13:57.998Z</time></trkpt><trkpt lat="41.950827072083555" lon="12.858319258435474"><ele>279.0</ele><time>2026-04-12T15:13:58.998Z</time></trkpt><trkpt lat="41.950621559718606" lon="12.858018939219651"><ele>279.0</ele><time>2026-04-12T15:13:59.998Z</time></trkpt><trkpt lat="41.9504142130875" lon="12.857717855320558"><ele>279.0</ele><time>2026-04-12T15:14:00.998Z</time></trkpt><trkpt lat="41.95019440126659" lon="12.857412541000011"><ele>277.0</ele><time>2026-04-12T15:14:01.998Z</time></trkpt><trkpt lat="41.949965887374475" lon="12.85710638706988"><ele>275.0</ele><time>2026-04-12T15:14:02.998Z</time></trkpt><trkpt lat="41.949734749591165" lon="12.856804088786285"><ele>271.0</ele><time>2026-04-12T15:14:03.998Z</time></trkpt><trkpt lat="41.94949559784553" lon="12.856497229347427"><ele>267.0</ele><time>2026-04-12T15:14:04.998Z</time></trkpt><trkpt lat="41.94925652097682" lon="12.856199599237595"><ele>267.0</ele><time>2026-04-12T15:14:05.998Z</time></trkpt><trkpt lat="41.94901191870048" lon="12.855906055793113"><ele>267.0</ele><time>2026-04-12T15:14:06.998Z</time></trkpt><trkpt lat="41.94876488326117" lon="12.855623241961364"><ele>267.0</ele><time>2026-04-12T15:14:07.998Z</time></trkpt><trkpt lat="41.948516039150775" lon="12.855339244699385"><ele>267.0</ele><time>2026-04-12T15:14:08.998Z</time></trkpt><trkpt lat="41.94826608284543" lon="12.85505866341458"><ele>276.5</ele><time>2026-04-12T15:14:09.998Z</time></trkpt><trkpt lat="41.94802558644123" lon="12.854790198485375"><ele>286.0</ele><time>2026-04-12T15:14:10.998Z</time></trkpt><trkpt lat="41.94778613360925" lon="12.854523944667601"><ele>288.5</ele><time>2026-04-12T15:14:11.998Z</time></trkpt><trkpt lat="41.947550096218514" lon="12.85426560265681"><ele>291.0</ele><time>2026-04-12T15:14:12.998Z</time></trkpt><trkpt lat="41.94731854473849" lon="12.854027836343619"><ele>296.0</ele><time>2026-04-12T15:14:13.998Z</time></trkpt><trkpt lat="41.94708440701297" lon="12.853798066156271"><ele>301.0</ele><time>2026-04-12T15:14:14.998Z</time></trkpt><trkpt lat="41.94684785180005" lon="12.853577011973925"><ele>299.0</ele><time>2026-04-12T15:14:15.998Z</time></trkpt><trkpt lat="41.946612994444465" lon="12.853373553781966"><ele>297.0</ele><time>2026-04-12T15:14:16.998Z</time></trkpt><trkpt lat="41.94638149130102" lon="12.853156151074835"><ele>297.0</ele><time>2026-04-12T15:14:18Z</time></trkpt><trkpt lat="41.946149996543234" lon="12.852940986820103"><ele>297.0</ele><time>2026-04-12T15:14:19Z</time></trkpt><trkpt lat="41.94591240011797" lon="12.852730889769013"><ele>301.5</ele><time>2026-04-12T15:14:20Z</time></trkpt><trkpt lat="41.94567523403014" lon="12.852523815800478"><ele>306.0</ele><time>2026-04-12T15:14:21Z</time></trkpt><trkpt lat="41.945430527779145" lon="12.852311111259127"><ele>306.0</ele><time>2026-04-12T15:14:22Z</time></trkpt><trkpt lat="41.945181101268545" lon="12.852096580860586"><ele>306.0</ele><time>2026-04-12T15:14:23Z</time></trkpt><trkpt lat="41.94492666250796" lon="12.851887705284476"><ele>308.5</ele><time>2026-04-12T15:14:24Z</time></trkpt><trkpt lat="41.94467086644074" lon="12.851674741484205"><ele>311.0</ele><time>2026-04-12T15:14:25Z</time></trkpt><trkpt lat="41.94440914093377" lon="12.851463544061556"><ele>316.0</ele><time>2026-04-12T15:14:26Z</time></trkpt><trkpt lat="41.94414155685672" lon="12.851254210073687"><ele>321.0</ele><time>2026-04-12T15:14:27Z</time></trkpt><trkpt lat="41.94387346672618" lon="12.851047107973711"><ele>319.5</ele><time>2026-04-12T15:14:28Z</time></trkpt><trkpt lat="41.94360250691359" lon="12.850843483989186"><ele>318.0</ele><time>2026-04-12T15:14:29Z</time></trkpt><trkpt lat="41.943333200527235" lon="12.850641449474164"><ele>318.0</ele><time>2026-04-12T15:14:30Z</time></trkpt><trkpt lat="41.9430623281625" lon="12.850447903360937"><ele>318.0</ele><time>2026-04-12T15:14:31Z</time></trkpt><trkpt lat="41.942794925836715" lon="12.850251074131755"><ele>312.0</ele><time>2026-04-12T15:14:32Z</time></trkpt><trkpt lat="41.94252790196978" lon="12.850058781041161"><ele>306.0</ele><time>2026-04-12T15:14:33Z</time></trkpt><trkpt lat="41.942260946337605" lon="12.849872101697645"><ele>306.0</ele><time>2026-04-12T15:14:34Z</time></trkpt><trkpt lat="41.94199136231306" lon="12.849690501859412"><ele>306.0</ele><time>2026-04-12T15:14:35Z</time></trkpt><trkpt lat="41.94170923346848" lon="12.849516708007682"><ele>306.0</ele><time>2026-04-12T15:14:36Z</time></trkpt><trkpt lat="41.94143539918353" lon="12.849337882152009"><ele>306.0</ele><time>2026-04-12T15:14:37Z</time></trkpt><trkpt lat="41.94115677234311" lon="12.849164159243113"><ele>307.0</ele><time>2026-04-12T15:14:38Z</time></trkpt><trkpt lat="41.94087886893968" lon="12.848990700333328"><ele>308.0</ele><time>2026-04-12T15:14:39Z</time></trkpt><trkpt lat="41.94059127172769" lon="12.848817476215215"><ele>308.0</ele><time>2026-04-12T15:14:40Z</time></trkpt><trkpt lat="41.94030251451356" lon="12.84864751307277"><ele>308.0</ele><time>2026-04-12T15:14:41Z</time></trkpt><trkpt lat="41.94001040561396" lon="12.84848267088362"><ele>303.5</ele><time>2026-04-12T15:14:42Z</time></trkpt><trkpt lat="41.93971428076878" lon="12.848322811160676"><ele>299.0</ele><time>2026-04-12T15:14:43Z</time></trkpt><trkpt lat="41.93941610324308" lon="12.848159577014506"><ele>300.0</ele><time>2026-04-12T15:14:44Z</time></trkpt><trkpt lat="41.939108734585375" lon="12.847998742651628"><ele>301.0</ele><time>2026-04-12T15:14:45Z</time></trkpt><trkpt lat="41.93881271367574" lon="12.847847488810489"><ele>301.0</ele><time>2026-04-12T15:14:46Z</time></trkpt><trkpt lat="41.938510965717505" lon="12.847692120983716"><ele>301.0</ele><time>2026-04-12T15:14:47Z</time></trkpt><trkpt lat="41.93820549743025" lon="12.847544496278491"><ele>291.0</ele><time>2026-04-12T15:14:48Z</time></trkpt><trkpt lat="41.937903784013976" lon="12.847401439512712"><ele>281.0</ele><time>2026-04-12T15:14:49Z</time></trkpt><trkpt lat="41.93760650137754" lon="12.847269338081281"><ele>287.0</ele><time>2026-04-12T15:14:50Z</time></trkpt><trkpt lat="41.93730664231625" lon="12.84713321440804"><ele>293.0</ele><time>2026-04-12T15:14:51Z</time></trkpt><trkpt lat="41.93701242718008" lon="12.84700073097413"><ele>293.0</ele><time>2026-04-12T15:14:52Z</time></trkpt><trkpt lat="41.93671969658697" lon="12.846873855455431"><ele>293.0</ele><time>2026-04-12T15:14:53Z</time></trkpt><trkpt lat="41.93642797455449" lon="12.846755871363635"><ele>295.0</ele><time>2026-04-12T15:14:54Z</time></trkpt><trkpt lat="41.936134498704284" lon="12.846642612273309"><ele>297.0</ele><time>2026-04-12T15:14:55Z</time></trkpt><trkpt lat="41.935840886482005" lon="12.846521817074036"><ele>297.5</ele><time>2026-04-12T15:14:56Z</time></trkpt><trkpt lat="41.93555029071437" lon="12.846406083897058"><ele>298.0</ele><time>2026-04-12T15:14:57Z</time></trkpt><trkpt lat="41.935262020084444" lon="12.846305571505289"><ele>303.5</ele><time>2026-04-12T15:14:58Z</time></trkpt><trkpt lat="41.93498077398356" lon="12.846211428668894"><ele>309.0</ele><time>2026-04-12T15:14:59Z</time></trkpt><trkpt lat="41.934693871152135" lon="12.84612030064326"><ele>309.0</ele><time>2026-04-12T15:14:59.999Z</time></trkpt><trkpt lat="41.9344029685719" lon="12.846028683142084"><ele>309.0</ele><time>2026-04-12T15:15:00.999Z</time></trkpt><trkpt lat="41.93410528680165" lon="12.845936353417523"><ele>302.0</ele><time>2026-04-12T15:15:01.999Z</time></trkpt><trkpt lat="41.933803786064246" lon="12.845846714123672"><ele>295.0</ele><time>2026-04-12T15:15:02.999Z</time></trkpt><trkpt lat="41.93350167026549" lon="12.845763458881803"><ele>290.5</ele><time>2026-04-12T15:15:03.999Z</time></trkpt><trkpt lat="41.93320005667138" lon="12.845677106520883"><ele>286.0</ele><time>2026-04-12T15:15:04.999Z</time></trkpt><trkpt lat="41.93290237803512" lon="12.845600112742968"><ele>286.0</ele><time>2026-04-12T15:15:05.999Z</time></trkpt><trkpt lat="41.93260427272937" lon="12.845519089597394"><ele>286.0</ele><time>2026-04-12T15:15:06.999Z</time></trkpt><trkpt lat="41.93230831033926" lon="12.84544716787825"><ele>287.5</ele><time>2026-04-12T15:15:07.999Z</time></trkpt><trkpt lat="41.93200954313257" lon="12.845367819679074"><ele>289.0</ele><time>2026-04-12T15:15:08.999Z</time></trkpt><trkpt lat="41.931712511962246" lon="12.845299062959596"><ele>295.0</ele><time>2026-04-12T15:15:09.999Z</time></trkpt><trkpt lat="41.93141215449857" lon="12.84522825360016"><ele>301.0</ele><time>2026-04-12T15:15:10.999Z</time></trkpt><trkpt lat="41.93111068055479" lon="12.845148341110015"><ele>301.5</ele><time>2026-04-12T15:15:11.999Z</time></trkpt><trkpt lat="41.9308044468893" lon="12.845061570945697"><ele>302.0</ele><time>2026-04-12T15:15:12.999Z</time></trkpt><trkpt lat="41.93049362288694" lon="12.844970411348635"><ele>302.0</ele><time>2026-04-12T15:15:13.999Z</time></trkpt><trkpt lat="41.93018055337868" lon="12.844874414430645"><ele>302.0</ele><time>2026-04-12T15:15:14.999Z</time></trkpt><trkpt lat="41.92986555178164" lon="12.844768897082494"><ele>301.5</ele><time>2026-04-12T15:15:15.999Z</time></trkpt><trkpt lat="41.92954404284399" lon="12.84465436398872"><ele>301.0</ele><time>2026-04-12T15:15:16.999Z</time></trkpt><trkpt lat="41.9292334363445" lon="12.844529785394222"><ele>297.5</ele><time>2026-04-12T15:15:17.999Z</time></trkpt><trkpt lat="41.928921780591054" lon="12.844397391695152"><ele>294.0</ele><time>2026-04-12T15:15:18.999Z</time></trkpt><trkpt lat="41.92861453228217" lon="12.844247822710214"><ele>296.0</ele><time>2026-04-12T15:15:19.999Z</time></trkpt><trkpt lat="41.92830947299164" lon="12.84408905127208"><ele>298.0</ele><time>2026-04-12T15:15:20.999Z</time></trkpt><trkpt lat="41.92800737321853" lon="12.843919235583709"><ele>298.0</ele><time>2026-04-12T15:15:21.999Z</time></trkpt><trkpt lat="41.92771087814441" lon="12.84373959671058"><ele>298.0</ele><time>2026-04-12T15:15:22.999Z</time></trkpt><trkpt lat="41.92741460589686" lon="12.843548646023372"><ele>296.0</ele><time>2026-04-12T15:15:23.999Z</time></trkpt><trkpt lat="41.92712410804949" lon="12.843340856546153"><ele>294.0</ele><time>2026-04-12T15:15:24.999Z</time></trkpt><trkpt lat="41.92684869540553" lon="12.843141960687143"><ele>292.5</ele><time>2026-04-12T15:15:25.999Z</time></trkpt><trkpt lat="41.926577349165996" lon="12.842921728208994"><ele>291.0</ele><time>2026-04-12T15:15:26.999Z</time></trkpt><trkpt lat="41.92631749478965" lon="12.842713300108839"><ele>286.5</ele><time>2026-04-12T15:15:27.999Z</time></trkpt><trkpt lat="41.9260748877483" lon="12.842498376980618"><ele>282.0</ele><time>2026-04-12T15:15:28.999Z</time></trkpt><trkpt lat="41.92583298736974" lon="12.842275358087708"><ele>282.0</ele><time>2026-04-12T15:15:29.999Z</time></trkpt><trkpt lat="41.92559532970125" lon="12.842046771289223"><ele>282.0</ele><time>2026-04-12T15:15:30.999Z</time></trkpt><trkpt lat="41.9253619128505" lon="12.841816925507361"><ele>282.0</ele><time>2026-04-12T15:15:31.999Z</time></trkpt><trkpt lat="41.925132610536366" lon="12.841575456582278"><ele>282.0</ele><time>2026-04-12T15:15:32.999Z</time></trkpt><trkpt lat="41.92491366623327" lon="12.841334998181896"><ele>282.0</ele><time>2026-04-12T15:15:33.999Z</time></trkpt><trkpt lat="41.9247015424534" lon="12.841093488737107"><ele>282.0</ele><time>2026-04-12T15:15:34.999Z</time></trkpt><trkpt lat="41.92449546278998" lon="12.840855336666987"><ele>287.5</ele><time>2026-04-12T15:15:35.999Z</time></trkpt><trkpt lat="41.924300444099785" lon="12.840606419758227"><ele>293.0</ele><time>2026-04-12T15:15:36.999Z</time></trkpt><trkpt lat="41.92410302138042" lon="12.840344601082643"><ele>302.0</ele><time>2026-04-12T15:15:37.999Z</time></trkpt><trkpt lat="41.92391556923302" lon="12.840096952328457"><ele>311.0</ele><time>2026-04-12T15:15:38.999Z</time></trkpt><trkpt lat="41.92371119354082" lon="12.839834443854013"><ele>311.0</ele><time>2026-04-12T15:15:39.999Z</time></trkpt><trkpt lat="41.923516758100725" lon="12.839578103264467"><ele>311.0</ele><time>2026-04-12T15:15:40.999Z</time></trkpt><trkpt lat="41.92332242775975" lon="12.8393205126249"><ele>316.5</ele><time>2026-04-12T15:15:41.999Z</time></trkpt><trkpt lat="41.92312370995225" lon="12.83905742551916"><ele>322.0</ele><time>2026-04-12T15:15:42.999Z</time></trkpt><trkpt lat="41.92293407574428" lon="12.838794763856884"><ele>322.0</ele><time>2026-04-12T15:15:43.999Z</time></trkpt><trkpt lat="41.922737208468995" lon="12.838500517146617"><ele>322.0</ele><time>2026-04-12T15:15:45.073Z</time></trkpt><trkpt lat="41.92152842327701" lon="12.836318590617783"><ele>251.0</ele><time>2026-04-12T15:15:48.941Z</time></trkpt><trkpt lat="41.917693524331156" lon="12.829199665200653"><ele>250.0</ele><time>2026-04-12T15:16:15.998Z</time></trkpt><trkpt lat="41.91754675699574" lon="12.828916461514584"><ele>249.0</ele><time>2026-04-12T15:16:16.998Z</time></trkpt><trkpt lat="41.917367213976156" lon="12.828634705530584"><ele>246.5</ele><time>2026-04-12T15:16:17.998Z</time></trkpt><trkpt lat="41.91721324908017" lon="12.828352327257134"><ele>244.0</ele><time>2026-04-12T15:16:18.998Z</time></trkpt><trkpt lat="41.91705865853507" lon="12.828052871849513"><ele>244.0</ele><time>2026-04-12T15:16:19.998Z</time></trkpt><trkpt lat="41.916900590074256" lon="12.827765764256966"><ele>244.0</ele><time>2026-04-12T15:16:20.998Z</time></trkpt><trkpt lat="41.91673901834694" lon="12.827467264200603"><ele>240.5</ele><time>2026-04-12T15:16:21.998Z</time></trkpt><trkpt lat="41.91657630853377" lon="12.827161098935544"><ele>237.0</ele><time>2026-04-12T15:16:22.998Z</time></trkpt><trkpt lat="41.91641171455055" lon="12.82685166783045"><ele>234.5</ele><time>2026-04-12T15:16:24Z</time></trkpt><trkpt lat="41.916246928563496" lon="12.826539429043677"><ele>232.0</ele><time>2026-04-12T15:16:25Z</time></trkpt><trkpt lat="41.9160800794991" lon="12.826219007857363"><ele>230.0</ele><time>2026-04-12T15:16:26Z</time></trkpt><trkpt lat="41.91591652303305" lon="12.825900432564053"><ele>228.0</ele><time>2026-04-12T15:16:27Z</time></trkpt><trkpt lat="41.91575423456781" lon="12.825565889997058"><ele>227.5</ele><time>2026-04-12T15:16:28Z</time></trkpt><trkpt lat="41.915594124098696" lon="12.825239417782166"><ele>227.0</ele><time>2026-04-12T15:16:29Z</time></trkpt><trkpt lat="41.915432313890946" lon="12.824893073508202"><ele>223.0</ele><time>2026-04-12T15:16:30Z</time></trkpt><trkpt lat="41.91527497372165" lon="12.824542019021466"><ele>219.0</ele><time>2026-04-12T15:16:31Z</time></trkpt><trkpt lat="41.91512387566383" lon="12.824177664745523"><ele>219.0</ele><time>2026-04-12T15:16:32Z</time></trkpt><trkpt lat="41.914972725494906" lon="12.823797098112896"><ele>219.0</ele><time>2026-04-12T15:16:33Z</time></trkpt><trkpt lat="41.91482345916671" lon="12.823414592710524"><ele>218.0</ele><time>2026-04-12T15:16:34Z</time></trkpt><trkpt lat="41.91467979640614" lon="12.823023428259642"><ele>217.0</ele><time>2026-04-12T15:16:35Z</time></trkpt><trkpt lat="41.914533766238215" lon="12.822612046420078"><ele>215.0</ele><time>2026-04-12T15:16:36Z</time></trkpt><trkpt lat="41.91439710328347" lon="12.822196333269588"><ele>213.0</ele><time>2026-04-12T15:16:37Z</time></trkpt><trkpt lat="41.9142708293521" lon="12.821771130307317"><ele>214.5</ele><time>2026-04-12T15:16:38Z</time></trkpt><trkpt lat="41.91415088145595" lon="12.821341694791895"><ele>216.0</ele><time>2026-04-12T15:16:39Z</time></trkpt><trkpt lat="41.91403744942651" lon="12.82090474755156"><ele>216.0</ele><time>2026-04-12T15:16:40Z</time></trkpt><trkpt lat="41.91393071005872" lon="12.820466154704324"><ele>216.0</ele><time>2026-04-12T15:16:41Z</time></trkpt><trkpt lat="41.913834294023204" lon="12.820026150075574"><ele>215.0</ele><time>2026-04-12T15:16:42Z</time></trkpt><trkpt lat="41.91375097247568" lon="12.819593280745007"><ele>214.0</ele><time>2026-04-12T15:16:43Z</time></trkpt><trkpt lat="41.91367907750969" lon="12.819158843070733"><ele>213.0</ele><time>2026-04-12T15:16:44Z</time></trkpt><trkpt lat="41.91361652088151" lon="12.818721837153126"><ele>212.0</ele><time>2026-04-12T15:16:45Z</time></trkpt><trkpt lat="41.913564294884715" lon="12.818280435702325"><ele>212.0</ele><time>2026-04-12T15:16:46Z</time></trkpt><trkpt lat="41.913520761963596" lon="12.817836615357098"><ele>212.0</ele><time>2026-04-12T15:16:47Z</time></trkpt><trkpt lat="41.913485300561916" lon="12.817386483719487"><ele>211.5</ele><time>2026-04-12T15:16:48Z</time></trkpt><trkpt lat="41.91346338460127" lon="12.816933495777164"><ele>211.0</ele><time>2026-04-12T15:16:49Z</time></trkpt><trkpt lat="41.913452114959924" lon="12.816479444329586"><ele>212.0</ele><time>2026-04-12T15:16:50Z</time></trkpt><trkpt lat="41.91345335457162" lon="12.816024172228472"><ele>213.0</ele><time>2026-04-12T15:16:51Z</time></trkpt><trkpt lat="41.91346886775425" lon="12.815570798315207"><ele>213.0</ele><time>2026-04-12T15:16:52Z</time></trkpt><trkpt lat="41.91349755761845" lon="12.81512424755799"><ele>213.0</ele><time>2026-04-12T15:16:53Z</time></trkpt><trkpt lat="41.91353543073725" lon="12.814681785942362"><ele>213.0</ele><time>2026-04-12T15:16:54Z</time></trkpt><trkpt lat="41.91357776855559" lon="12.814245167319271"><ele>213.0</ele><time>2026-04-12T15:16:55Z</time></trkpt><trkpt lat="41.9136265784377" lon="12.813815412018117"><ele>214.0</ele><time>2026-04-12T15:16:56Z</time></trkpt><trkpt lat="41.9136878487278" lon="12.813386419357522"><ele>215.0</ele><time>2026-04-12T15:16:57Z</time></trkpt><trkpt lat="41.91375432257923" lon="12.812959710975514"><ele>214.0</ele><time>2026-04-12T15:16:58Z</time></trkpt><trkpt lat="41.913824711904915" lon="12.812541081288762"><ele>213.0</ele><time>2026-04-12T15:16:59Z</time></trkpt><trkpt lat="41.91390431361463" lon="12.812132206458061"><ele>212.0</ele><time>2026-04-12T15:17:00Z</time></trkpt><trkpt lat="41.91398754819399" lon="12.811717250337765"><ele>211.0</ele><time>2026-04-12T15:17:01Z</time></trkpt><trkpt lat="41.914074010719446" lon="12.811308559680503"><ele>210.5</ele><time>2026-04-12T15:17:02Z</time></trkpt><trkpt lat="41.914162874465745" lon="12.810901072984876"><ele>210.0</ele><time>2026-04-12T15:17:03Z</time></trkpt><trkpt lat="41.91425269778244" lon="12.810501913939767"><ele>208.0</ele><time>2026-04-12T15:17:04Z</time></trkpt><trkpt lat="41.914350890125526" lon="12.810107717703007"><ele>206.0</ele><time>2026-04-12T15:17:05Z</time></trkpt><trkpt lat="41.91445208385865" lon="12.80971787037339"><ele>206.0</ele><time>2026-04-12T15:17:05.999Z</time></trkpt><trkpt lat="41.91455594343697" lon="12.80933254720088"><ele>206.0</ele><time>2026-04-12T15:17:06.999Z</time></trkpt><trkpt lat="41.91466117895246" lon="12.808946742015118"><ele>206.5</ele><time>2026-04-12T15:17:07.999Z</time></trkpt><trkpt lat="41.914762800245995" lon="12.808565004046438"><ele>207.0</ele><time>2026-04-12T15:17:08.999Z</time></trkpt><trkpt lat="41.91486536920119" lon="12.808194431526882"><ele>204.0</ele><time>2026-04-12T15:17:09.999Z</time></trkpt><trkpt lat="41.914970036797946" lon="12.807824349415714"><ele>201.0</ele><time>2026-04-12T15:17:10.999Z</time></trkpt><trkpt lat="41.91507383362808" lon="12.807446468758142"><ele>192.5</ele><time>2026-04-12T15:17:11.999Z</time></trkpt><trkpt lat="41.91517678669193" lon="12.807082218127428"><ele>184.0</ele><time>2026-04-12T15:17:12.999Z</time></trkpt><trkpt lat="41.91527863191715" lon="12.806704690531756"><ele>184.0</ele><time>2026-04-12T15:17:13.999Z</time></trkpt><trkpt lat="41.915380822832724" lon="12.806341862968852"><ele>184.0</ele><time>2026-04-12T15:17:14.999Z</time></trkpt><trkpt lat="41.91548431638918" lon="12.805972729992243"><ele>188.0</ele><time>2026-04-12T15:17:15.999Z</time></trkpt><trkpt lat="41.915585476348866" lon="12.805589586226672"><ele>192.0</ele><time>2026-04-12T15:17:16.999Z</time></trkpt><trkpt lat="41.91568926005393" lon="12.805206923570186"><ele>191.0</ele><time>2026-04-12T15:17:17.999Z</time></trkpt><trkpt lat="41.915796631157725" lon="12.804821892206842"><ele>190.0</ele><time>2026-04-12T15:17:18.999Z</time></trkpt><trkpt lat="41.915902773281175" lon="12.804427231751271"><ele>187.0</ele><time>2026-04-12T15:17:19.999Z</time></trkpt><trkpt lat="41.91600887061512" lon="12.804020971502098"><ele>184.0</ele><time>2026-04-12T15:17:20.999Z</time></trkpt><trkpt lat="41.91611501543001" lon="12.803613174316334"><ele>183.0</ele><time>2026-04-12T15:17:21.999Z</time></trkpt><trkpt lat="41.91623035338932" lon="12.803202741334085"><ele>182.0</ele><time>2026-04-12T15:17:22.999Z</time></trkpt><trkpt lat="41.916343897174045" lon="12.802779682624971"><ele>179.0</ele><time>2026-04-12T15:17:23.999Z</time></trkpt><trkpt lat="41.91645798968106" lon="12.802368522469932"><ele>176.0</ele><time>2026-04-12T15:17:24.999Z</time></trkpt><trkpt lat="41.91657412526563" lon="12.801961722391095"><ele>172.5</ele><time>2026-04-12T15:17:25.999Z</time></trkpt><trkpt lat="41.91668927911919" lon="12.801549533516052"><ele>169.0</ele><time>2026-04-12T15:17:26.999Z</time></trkpt><trkpt lat="41.9168006635546" lon="12.801149565439179"><ele>169.5</ele><time>2026-04-12T15:17:27.999Z</time></trkpt><trkpt lat="41.91690819372381" lon="12.800737567299105"><ele>170.0</ele><time>2026-04-12T15:17:28.999Z</time></trkpt><trkpt lat="41.91702387622043" lon="12.80034197938272"><ele>172.5</ele><time>2026-04-12T15:17:29.999Z</time></trkpt><trkpt lat="41.91714034554273" lon="12.799927786495353"><ele>175.0</ele><time>2026-04-12T15:17:30.999Z</time></trkpt><trkpt lat="41.917254424677665" lon="12.799515789924556"><ele>175.5</ele><time>2026-04-12T15:17:31.999Z</time></trkpt><trkpt lat="41.91737076702843" lon="12.799105063728096"><ele>176.0</ele><time>2026-04-12T15:17:32.999Z</time></trkpt><trkpt lat="41.91748731350763" lon="12.798695577185455"><ele>174.5</ele><time>2026-04-12T15:17:33.999Z</time></trkpt><trkpt lat="41.91759910783361" lon="12.798282863100265"><ele>173.0</ele><time>2026-04-12T15:17:34.999Z</time></trkpt><trkpt lat="41.91770512511265" lon="12.797887434741284"><ele>173.0</ele><time>2026-04-12T15:17:35.999Z</time></trkpt><trkpt lat="41.91782214209645" lon="12.797492258292035"><ele>173.0</ele><time>2026-04-12T15:17:36.999Z</time></trkpt><trkpt lat="41.917937148186624" lon="12.79709951885532"><ele>172.0</ele><time>2026-04-12T15:17:37.999Z</time></trkpt><trkpt lat="41.91805040080289" lon="12.796706009212949"><ele>171.0</ele><time>2026-04-12T15:17:38.999Z</time></trkpt><trkpt lat="41.91816316232943" lon="12.796314687493858"><ele>171.0</ele><time>2026-04-12T15:17:39.999Z</time></trkpt><trkpt lat="41.918265687541926" lon="12.795917524557527"><ele>171.0</ele><time>2026-04-12T15:17:40.999Z</time></trkpt><trkpt lat="41.91837498441431" lon="12.795526013064483"><ele>167.5</ele><time>2026-04-12T15:17:41.999Z</time></trkpt><trkpt lat="41.918486703394336" lon="12.795133886765862"><ele>164.0</ele><time>2026-04-12T15:17:42.999Z</time></trkpt><trkpt lat="41.918595036357715" lon="12.794734846004983"><ele>164.0</ele><time>2026-04-12T15:17:43.999Z</time></trkpt><trkpt lat="41.918706052152494" lon="12.794336742298333"><ele>164.0</ele><time>2026-04-12T15:17:44.999Z</time></trkpt><trkpt lat="41.91881635852741" lon="12.793943892113752"><ele>164.0</ele><time>2026-04-12T15:17:45.999Z</time></trkpt><trkpt lat="41.91892660068944" lon="12.793558204810466"><ele>164.0</ele><time>2026-04-12T15:17:46.999Z</time></trkpt><trkpt lat="41.91904173100806" lon="12.79317719926004"><ele>163.0</ele><time>2026-04-12T15:17:47.999Z</time></trkpt><trkpt lat="41.919149621329844" lon="12.792816756999581"><ele>162.0</ele><time>2026-04-12T15:17:48.999Z</time></trkpt><trkpt lat="41.919256646521895" lon="12.79245502332576"><ele>158.5</ele><time>2026-04-12T15:17:49.999Z</time></trkpt><trkpt lat="41.91935827799668" lon="12.79208907104402"><ele>155.0</ele><time>2026-04-12T15:17:50.999Z</time></trkpt><trkpt lat="41.919460628087876" lon="12.79171770103956"><ele>155.0</ele><time>2026-04-12T15:17:51.999Z</time></trkpt><trkpt lat="41.91956042715919" lon="12.791347828363184"><ele>155.0</ele><time>2026-04-12T15:17:52.999Z</time></trkpt><trkpt lat="41.919664514283504" lon="12.790973667560591"><ele>154.0</ele><time>2026-04-12T15:17:53.999Z</time></trkpt><trkpt lat="41.919769921774005" lon="12.790600785119269"><ele>153.0</ele><time>2026-04-12T15:17:54.999Z</time></trkpt><trkpt lat="41.919876277213085" lon="12.790225764575627"><ele>151.0</ele><time>2026-04-12T15:17:55.999Z</time></trkpt><trkpt lat="41.919981397118256" lon="12.78984061888265"><ele>149.0</ele><time>2026-04-12T15:17:56.999Z</time></trkpt><trkpt lat="41.920082446414334" lon="12.789455185566277"><ele>147.0</ele><time>2026-04-12T15:17:57.998Z</time></trkpt><trkpt lat="41.920186835728344" lon="12.789068509388544"><ele>145.0</ele><time>2026-04-12T15:17:58.998Z</time></trkpt><trkpt lat="41.920294524906154" lon="12.788682769176074"><ele>145.0</ele><time>2026-04-12T15:17:59.998Z</time></trkpt><trkpt lat="41.92040077248607" lon="12.78829515449231"><ele>145.0</ele><time>2026-04-12T15:18:00.998Z</time></trkpt><trkpt lat="41.92050852665127" lon="12.787908328231344"><ele>143.0</ele><time>2026-04-12T15:18:01.998Z</time></trkpt><trkpt lat="41.92061707700711" lon="12.787521247432704"><ele>141.0</ele><time>2026-04-12T15:18:02.998Z</time></trkpt><trkpt lat="41.92072516030171" lon="12.78713150588295"><ele>140.0</ele><time>2026-04-12T15:18:03.998Z</time></trkpt><trkpt lat="41.920838262033584" lon="12.786747811898298"><ele>139.0</ele><time>2026-04-12T15:18:04.998Z</time></trkpt><trkpt lat="41.920950343537235" lon="12.786377106705359"><ele>139.0</ele><time>2026-04-12T15:18:05.998Z</time></trkpt><trkpt lat="41.921060281179926" lon="12.786014126389409"><ele>139.0</ele><time>2026-04-12T15:18:06.998Z</time></trkpt><trkpt lat="41.92116360348599" lon="12.785651548793764"><ele>137.5</ele><time>2026-04-12T15:18:07.998Z</time></trkpt><trkpt lat="41.92126820160241" lon="12.785299596518907"><ele>136.0</ele><time>2026-04-12T15:18:08.998Z</time></trkpt><trkpt lat="41.92136891748843" lon="12.784952229374547"><ele>135.5</ele><time>2026-04-12T15:18:09.998Z</time></trkpt><trkpt lat="41.92145815475134" lon="12.784617725407283"><ele>135.0</ele><time>2026-04-12T15:18:10.998Z</time></trkpt><trkpt lat="41.921548770097175" lon="12.784282476009183"><ele>134.0</ele><time>2026-04-12T15:18:11.998Z</time></trkpt><trkpt lat="41.92164557944313" lon="12.78394666339253"><ele>133.0</ele><time>2026-04-12T15:18:12.998Z</time></trkpt><trkpt lat="41.921742244262745" lon="12.78361438887305"><ele>129.5</ele><time>2026-04-12T15:18:13.998Z</time></trkpt><trkpt lat="41.92183589982396" lon="12.783282140040622"><ele>126.0</ele><time>2026-04-12T15:18:14.998Z</time></trkpt><trkpt lat="41.92192604471691" lon="12.78295094100245"><ele>126.5</ele><time>2026-04-12T15:18:15.998Z</time></trkpt><trkpt lat="41.92201802930051" lon="12.782627079382946"><ele>127.0</ele><time>2026-04-12T15:18:16.998Z</time></trkpt><trkpt lat="41.922109471967744" lon="12.78230261880508"><ele>127.0</ele><time>2026-04-12T15:18:17.998Z</time></trkpt><trkpt lat="41.92219933700608" lon="12.781979027941185"><ele>127.0</ele><time>2026-04-12T15:18:18.998Z</time></trkpt><trkpt lat="41.92228925472527" lon="12.781656866147074"><ele>126.5</ele><time>2026-04-12T15:18:19.998Z</time></trkpt><trkpt lat="41.92238228350131" lon="12.78133361682271"><ele>126.0</ele><time>2026-04-12T15:18:20.998Z</time></trkpt><trkpt lat="41.92246963957241" lon="12.781012924961763"><ele>124.0</ele><time>2026-04-12T15:18:21.998Z</time></trkpt><trkpt lat="41.922560330194884" lon="12.780688655033918"><ele>122.0</ele><time>2026-04-12T15:18:22.998Z</time></trkpt><trkpt lat="41.922656431213944" lon="12.780364724597247"><ele>122.5</ele><time>2026-04-12T15:18:23.998Z</time></trkpt><trkpt lat="41.92274411596547" lon="12.780036464505079"><ele>123.0</ele><time>2026-04-12T15:18:24.998Z</time></trkpt><trkpt lat="41.922832979199384" lon="12.779706478266643"><ele>123.0</ele><time>2026-04-12T15:18:25.998Z</time></trkpt><trkpt lat="41.92292342843543" lon="12.779379998630084"><ele>123.0</ele><time>2026-04-12T15:18:26.998Z</time></trkpt><trkpt lat="41.923016711941614" lon="12.779050873827892"><ele>122.5</ele><time>2026-04-12T15:18:27.998Z</time></trkpt><trkpt lat="41.92310725138123" lon="12.7787165236295"><ele>122.0</ele><time>2026-04-12T15:18:29Z</time></trkpt><trkpt lat="41.92319973321281" lon="12.77837736382899"><ele>122.0</ele><time>2026-04-12T15:18:30Z</time></trkpt><trkpt lat="41.923295574320825" lon="12.77802562035008"><ele>122.0</ele><time>2026-04-12T15:18:31Z</time></trkpt><trkpt lat="41.923393922668154" lon="12.777668219250236"><ele>119.5</ele><time>2026-04-12T15:18:32Z</time></trkpt><trkpt lat="41.92349688913043" lon="12.777308432479627"><ele>117.0</ele><time>2026-04-12T15:18:33Z</time></trkpt><trkpt lat="41.923601458457746" lon="12.77694351789712"><ele>117.5</ele><time>2026-04-12T15:18:34Z</time></trkpt><trkpt lat="41.9237088446551" lon="12.776576627483614"><ele>118.0</ele><time>2026-04-12T15:18:35Z</time></trkpt><trkpt lat="41.923811227629905" lon="12.776206323801121"><ele>116.5</ele><time>2026-04-12T15:18:36Z</time></trkpt><trkpt lat="41.92391270700624" lon="12.7758402245123"><ele>115.0</ele><time>2026-04-12T15:18:37Z</time></trkpt><trkpt lat="41.924014195660384" lon="12.775469952368999"><ele>112.0</ele><time>2026-04-12T15:18:38Z</time></trkpt><trkpt lat="41.924109506527316" lon="12.775103108761495"><ele>109.0</ele><time>2026-04-12T15:18:39Z</time></trkpt><trkpt lat="41.92421164850547" lon="12.774737866215023"><ele>108.5</ele><time>2026-04-12T15:18:40Z</time></trkpt><trkpt lat="41.92431781350259" lon="12.774381050121573"><ele>108.0</ele><time>2026-04-12T15:18:41Z</time></trkpt><trkpt lat="41.924418121884955" lon="12.774031099518176"><ele>105.5</ele><time>2026-04-12T15:18:42Z</time></trkpt><trkpt lat="41.92451312114568" lon="12.77368380044293"><ele>103.0</ele><time>2026-04-12T15:18:43Z</time></trkpt><trkpt lat="41.92461041545336" lon="12.773335820363876"><ele>97.5</ele><time>2026-04-12T15:18:44Z</time></trkpt><trkpt lat="41.92470845481597" lon="12.772990828727075"><ele>92.0</ele><time>2026-04-12T15:18:45Z</time></trkpt><trkpt lat="41.924805876103775" lon="12.772645334780334"><ele>91.0</ele><time>2026-04-12T15:18:46Z</time></trkpt><trkpt lat="41.9249005690938" lon="12.772300800492879"><ele>90.0</ele><time>2026-04-12T15:18:47Z</time></trkpt><trkpt lat="41.924994346129786" lon="12.771956428204236"><ele>86.5</ele><time>2026-04-12T15:18:48Z</time></trkpt><trkpt lat="41.92508947909494" lon="12.771610329941915"><ele>83.0</ele><time>2026-04-12T15:18:49Z</time></trkpt><trkpt lat="41.92518525011348" lon="12.771266659890522"><ele>89.0</ele><time>2026-04-12T15:18:50Z</time></trkpt><trkpt lat="41.92528006907613" lon="12.770924030970393"><ele>95.0</ele><time>2026-04-12T15:18:51Z</time></trkpt><trkpt lat="41.925374773804116" lon="12.770582556375857"><ele>95.0</ele><time>2026-04-12T15:18:52Z</time></trkpt><trkpt lat="41.92547303778705" lon="12.77023585400297"><ele>95.0</ele><time>2026-04-12T15:18:53Z</time></trkpt><trkpt lat="41.925571002395955" lon="12.769888298259596"><ele>101.0</ele><time>2026-04-12T15:18:54Z</time></trkpt><trkpt lat="41.925667502290594" lon="12.769539483566575"><ele>107.0</ele><time>2026-04-12T15:18:55Z</time></trkpt><trkpt lat="41.92576565669528" lon="12.769190467551713"><ele>107.0</ele><time>2026-04-12T15:18:56Z</time></trkpt><trkpt lat="41.92586517432984" lon="12.76884300263478"><ele>107.0</ele><time>2026-04-12T15:18:57Z</time></trkpt><trkpt lat="41.92596432440214" lon="12.768498310590672"><ele>105.0</ele><time>2026-04-12T15:18:58Z</time></trkpt><trkpt lat="41.9260652455417" lon="12.76815065248009"><ele>103.0</ele><time>2026-04-12T15:18:59Z</time></trkpt><trkpt lat="41.926165912399995" lon="12.767806076223952"><ele>105.0</ele><time>2026-04-12T15:19:00Z</time></trkpt><trkpt lat="41.926264591235814" lon="12.767469712456842"><ele>107.0</ele><time>2026-04-12T15:19:01Z</time></trkpt><trkpt lat="41.92636309409344" lon="12.767144412715364"><ele>106.0</ele><time>2026-04-12T15:19:02Z</time></trkpt><trkpt lat="41.926463195033506" lon="12.766830307568188"><ele>105.0</ele><time>2026-04-12T15:19:03Z</time></trkpt><trkpt lat="41.92656502311904" lon="12.766524545726313"><ele>105.0</ele><time>2026-04-12T15:19:04Z</time></trkpt><trkpt lat="41.92666294487503" lon="12.766227975825794"><ele>105.0</ele><time>2026-04-12T15:19:05Z</time></trkpt><trkpt lat="41.9266998912544" lon="12.765909156210556"><ele>105.0</ele><time>2026-04-12T15:19:06Z</time></trkpt><trkpt lat="41.926773817773096" lon="12.765617949288826"><ele>105.0</ele><time>2026-04-12T15:19:07Z</time></trkpt><trkpt lat="41.92685148535967" lon="12.765335777258372"><ele>103.0</ele><time>2026-04-12T15:19:08Z</time></trkpt><trkpt lat="41.926931015475894" lon="12.765056997824049"><ele>101.0</ele><time>2026-04-12T15:19:09Z</time></trkpt><trkpt lat="41.92714454731764" lon="12.764841787575767"><ele>101.0</ele><time>2026-04-12T15:19:09.999Z</time></trkpt><trkpt lat="41.92724039483989" lon="12.764576577687333"><ele>101.0</ele><time>2026-04-12T15:19:10.999Z</time></trkpt><trkpt lat="41.927336751922006" lon="12.76431849987311"><ele>101.0</ele><time>2026-04-12T15:19:11.999Z</time></trkpt><trkpt lat="41.927429446091104" lon="12.76406844798927"><ele>101.0</ele><time>2026-04-12T15:19:12.999Z</time></trkpt><trkpt lat="41.92751987855141" lon="12.763824641864574"><ele>101.0</ele><time>2026-04-12T15:19:13.999Z</time></trkpt><trkpt lat="41.92760519696785" lon="12.763582937399462"><ele>101.0</ele><time>2026-04-12T15:19:14.999Z</time></trkpt><trkpt lat="41.92768989632041" lon="12.763345455193141"><ele>99.0</ele><time>2026-04-12T15:19:15.999Z</time></trkpt><trkpt lat="41.9277732933352" lon="12.763112288892756"><ele>97.0</ele><time>2026-04-12T15:19:16.999Z</time></trkpt><trkpt lat="41.92785778621381" lon="12.762879410274047"><ele>95.0</ele><time>2026-04-12T15:19:17.999Z</time></trkpt><trkpt lat="41.92794493844906" lon="12.76264429581912"><ele>94.0</ele><time>2026-04-12T15:19:18.999Z</time></trkpt><trkpt lat="41.92803131189506" lon="12.76240874965077"><ele>93.0</ele><time>2026-04-12T15:19:19.999Z</time></trkpt><trkpt lat="41.92811560079752" lon="12.762172238615843"><ele>92.0</ele><time>2026-04-12T15:19:20.999Z</time></trkpt><trkpt lat="41.9282004891361" lon="12.76193698358872"><ele>91.66666666666667</ele><time>2026-04-12T15:19:21.999Z</time></trkpt><trkpt lat="41.92828589356679" lon="12.761705247540226"><ele>91.33333333333333</ele><time>2026-04-12T15:19:22.999Z</time></trkpt><trkpt lat="41.92837034785956" lon="12.761472669747862"><ele>91.0</ele><time>2026-04-12T15:19:23.999Z</time></trkpt><trkpt lat="41.92845388901768" lon="12.761244580892187"><ele>89.33333333333333</ele><time>2026-04-12T15:19:24.999Z</time></trkpt><trkpt lat="41.92853540582683" lon="12.761017894322967"><ele>87.66666666666667</ele><time>2026-04-12T15:19:25.999Z</time></trkpt><trkpt lat="41.928615131530705" lon="12.760792423787919"><ele>86.0</ele><time>2026-04-12T15:19:26.999Z</time></trkpt><trkpt lat="41.92869848847205" lon="12.760569995384241"><ele>86.0</ele><time>2026-04-12T15:19:27.999Z</time></trkpt><trkpt lat="41.928783612613955" lon="12.760344252027108"><ele>86.0</ele><time>2026-04-12T15:19:28.999Z</time></trkpt><trkpt lat="41.928868947476325" lon="12.76011000949364"><ele>86.0</ele><time>2026-04-12T15:19:29.999Z</time></trkpt><trkpt lat="41.928953747512814" lon="12.759871253261673"><ele>82.33333333333334</ele><time>2026-04-12T15:19:30.999Z</time></trkpt><trkpt lat="41.92903673169553" lon="12.759631493003402"><ele>78.66666666666667</ele><time>2026-04-12T15:19:31.999Z</time></trkpt><trkpt lat="41.9291204278402" lon="12.759392785724172"><ele>75.0</ele><time>2026-04-12T15:19:32.999Z</time></trkpt><trkpt lat="41.92920643394176" lon="12.759158644702532"><ele>74.66666666666667</ele><time>2026-04-12T15:19:33.999Z</time></trkpt><trkpt lat="41.929291020872675" lon="12.758930733995482"><ele>74.33333333333334</ele><time>2026-04-12T15:19:34.999Z</time></trkpt><trkpt lat="41.929372061011286" lon="12.758706778606784"><ele>74.0</ele><time>2026-04-12T15:19:35.999Z</time></trkpt><trkpt lat="41.92945173082256" lon="12.758484753760237"><ele>74.0</ele><time>2026-04-12T15:19:36.999Z</time></trkpt><trkpt lat="41.92953133183947" lon="12.758264855802532"><ele>74.0</ele><time>2026-04-12T15:19:37.999Z</time></trkpt><trkpt lat="41.929612525218246" lon="12.758049053770403"><ele>74.0</ele><time>2026-04-12T15:19:38.999Z</time></trkpt><trkpt lat="41.92969839941091" lon="12.757838225478338"><ele>70.66666666666667</ele><time>2026-04-12T15:19:39.999Z</time></trkpt><trkpt lat="41.92979039271359" lon="12.757638413786172"><ele>67.33333333333333</ele><time>2026-04-12T15:19:40.999Z</time></trkpt><trkpt lat="41.92988693806604" lon="12.75744944601881"><ele>64.0</ele><time>2026-04-12T15:19:41.999Z</time></trkpt><trkpt lat="41.92998749634954" lon="12.757289467843954"><ele>62.75</ele><time>2026-04-12T15:19:42.999Z</time></trkpt><trkpt lat="41.93008523178393" lon="12.757140576480186"><ele>61.5</ele><time>2026-04-12T15:19:43.999Z</time></trkpt><trkpt lat="41.93018794498033" lon="12.757007913144166"><ele>60.25</ele><time>2026-04-12T15:19:44.999Z</time></trkpt><trkpt lat="41.9302992424872" lon="12.756892703614081"><ele>59.0</ele><time>2026-04-12T15:19:45.999Z</time></trkpt><trkpt lat="41.93041051024053" lon="12.756788369523608"><ele>59.0</ele><time>2026-04-12T15:19:46.999Z</time></trkpt><trkpt lat="41.930518281697765" lon="12.756698241399507"><ele>59.0</ele><time>2026-04-12T15:19:47.999Z</time></trkpt><trkpt lat="41.93062284530143" lon="12.756616969159108"><ele>59.0</ele><time>2026-04-12T15:19:48.999Z</time></trkpt><trkpt lat="41.93072203498421" lon="12.756541306232823"><ele>59.0</ele><time>2026-04-12T15:19:49.999Z</time></trkpt><trkpt lat="41.930819722307696" lon="12.75647172359734"><ele>59.6</ele><time>2026-04-12T15:19:50.999Z</time></trkpt><trkpt lat="41.93091141286799" lon="12.756407159272952"><ele>60.2</ele><time>2026-04-12T15:19:51.999Z</time></trkpt><trkpt lat="41.9309926167296" lon="12.756339275845198"><ele>60.800000000000004</ele><time>2026-04-12T15:19:52.999Z</time></trkpt><trkpt lat="41.9310623445369" lon="12.756275015450573"><ele>61.400000000000006</ele><time>2026-04-12T15:19:53.999Z</time></trkpt><trkpt lat="41.93111672268399" lon="12.756220976742274"><ele>62.0</ele><time>2026-04-12T15:19:54.999Z</time></trkpt><trkpt lat="41.93120728012018" lon="12.756134505916368"><ele>62.0</ele><time>2026-04-12T15:19:56.999Z</time></trkpt><trkpt lat="41.93126843697924" lon="12.756070000962719"><ele>62.0</ele><time>2026-04-12T15:19:58.999Z</time></trkpt><trkpt lat="41.931330440095564" lon="12.756004837285408"><ele>62.0</ele><time>2026-04-12T15:20:01.998Z</time></trkpt><trkpt lat="41.931407475347704" lon="12.755934327411152"><ele>62.0</ele><time>2026-04-12T15:20:17.998Z</time></trkpt><trkpt lat="41.93148660008017" lon="12.75583912075532"><ele>62.0</ele><time>2026-04-12T15:20:19.998Z</time></trkpt><trkpt lat="41.93157712566346" lon="12.755710364794572"><ele>62.333333333333336</ele><time>2026-04-12T15:20:21.998Z</time></trkpt><trkpt lat="41.93163088868633" lon="12.7556348472801"><ele>62.66666666666667</ele><time>2026-04-12T15:20:22.998Z</time></trkpt><trkpt lat="41.93169436327146" lon="12.755554463039973"><ele>63.0</ele><time>2026-04-12T15:20:23.998Z</time></trkpt><trkpt lat="41.93176560563366" lon="12.75547951078994"><ele>63.33333333333333</ele><time>2026-04-12T15:20:24.998Z</time></trkpt><trkpt lat="41.93183877311377" lon="12.755414522024425"><ele>63.666666666666664</ele><time>2026-04-12T15:20:25.998Z</time></trkpt><trkpt lat="41.93192095981322" lon="12.755352970063734"><ele>64.0</ele><time>2026-04-12T15:20:26.998Z</time></trkpt><trkpt lat="41.932010553041216" lon="12.755303629177629"><ele>64.0</ele><time>2026-04-12T15:20:27.998Z</time></trkpt><trkpt lat="41.932109661328695" lon="12.755265451335163"><ele>64.0</ele><time>2026-04-12T15:20:28.998Z</time></trkpt><trkpt lat="41.932208880322285" lon="12.755227859097303"><ele>64.0</ele><time>2026-04-12T15:20:29.998Z</time></trkpt><trkpt lat="41.93230633349813" lon="12.755215387572996"><ele>64.0</ele><time>2026-04-12T15:20:30.998Z</time></trkpt><trkpt lat="41.93239250885998" lon="12.755202261546522"><ele>64.0</ele><time>2026-04-12T15:20:31.998Z</time></trkpt><trkpt lat="41.93245303977342" lon="12.755099216859037"><ele>62.400000000000006</ele><time>2026-04-12T15:20:32.998Z</time></trkpt><trkpt lat="41.93249637610519" lon="12.755033663304838"><ele>60.800000000000004</ele><time>2026-04-12T15:20:34Z</time></trkpt><trkpt lat="41.93251822780796" lon="12.754926060380171"><ele>59.199999999999996</ele><time>2026-04-12T15:20:36Z</time></trkpt><trkpt lat="41.93252608371147" lon="12.754797237258586"><ele>57.599999999999994</ele><time>2026-04-12T15:20:43Z</time></trkpt><trkpt lat="41.932424583373574" lon="12.754662648049703"><ele>56.0</ele><time>2026-04-12T15:20:45Z</time></trkpt><trkpt lat="41.93234392638515" lon="12.754611072129949"><ele>56.0</ele><time>2026-04-12T15:20:46Z</time></trkpt><trkpt lat="41.932222351244896" lon="12.754529431267203"><ele>56.0</ele><time>2026-04-12T15:20:47Z</time></trkpt><trkpt lat="41.9320680939602" lon="12.754425558676017"><ele>56.0</ele><time>2026-04-12T15:20:48Z</time></trkpt><trkpt lat="41.93192769123239" lon="12.754329260344752"><ele>55.5</ele><time>2026-04-12T15:20:49Z</time></trkpt><trkpt lat="41.9317940403107" lon="12.754259711097133"><ele>55.0</ele><time>2026-04-12T15:20:50Z</time></trkpt><trkpt lat="41.931664059829046" lon="12.75422262323157"><ele>54.5</ele><time>2026-04-12T15:20:51Z</time></trkpt><trkpt lat="41.93154779408718" lon="12.754190584492312"><ele>54.0</ele><time>2026-04-12T15:20:52Z</time></trkpt><trkpt lat="41.93140848203345" lon="12.754209392368946"><ele>55.0</ele><time>2026-04-12T15:20:53Z</time></trkpt><trkpt lat="41.93127483338412" lon="12.754263983323412"><ele>56.0</ele><time>2026-04-12T15:20:54Z</time></trkpt><trkpt lat="41.93115836438063" lon="12.75434349588705"><ele>57.0</ele><time>2026-04-12T15:20:55Z</time></trkpt><trkpt lat="41.93103585922564" lon="12.754444381160479"><ele>58.0</ele><time>2026-04-12T15:20:56Z</time></trkpt><trkpt lat="41.930895859833214" lon="12.754561803271729"><ele>58.33333333333333</ele><time>2026-04-12T15:20:57Z</time></trkpt><trkpt lat="41.93074484074453" lon="12.754689915157238"><ele>58.66666666666667</ele><time>2026-04-12T15:20:58Z</time></trkpt><trkpt lat="41.930558172203604" lon="12.754803750551902"><ele>59.0</ele><time>2026-04-12T15:20:59Z</time></trkpt><trkpt lat="41.93036718071324" lon="12.754901091549977"><ele>59.0</ele><time>2026-04-12T15:21:00Z</time></trkpt><trkpt lat="41.93019889042167" lon="12.754965801035127"><ele>59.0</ele><time>2026-04-12T15:21:01Z</time></trkpt><trkpt lat="41.93005515161854" lon="12.755021333540741"><ele>59.0</ele><time>2026-04-12T15:21:02Z</time></trkpt><trkpt lat="41.92992508302824" lon="12.755006404905055"><ele>59.25</ele><time>2026-04-12T15:21:03Z</time></trkpt><trkpt lat="41.92981142076872" lon="12.754980593030194"><ele>59.5</ele><time>2026-04-12T15:21:04Z</time></trkpt><trkpt lat="41.92969089370273" lon="12.754933147647385"><ele>59.75</ele><time>2026-04-12T15:21:05Z</time></trkpt><trkpt lat="41.929562317293815" lon="12.754868296651706"><ele>60.0</ele><time>2026-04-12T15:21:06Z</time></trkpt><trkpt lat="41.92942313674556" lon="12.754787681046453"><ele>60.0</ele><time>2026-04-12T15:21:07Z</time></trkpt><trkpt lat="41.929280252180405" lon="12.754701643529724"><ele>60.0</ele><time>2026-04-12T15:21:08Z</time></trkpt><trkpt lat="41.92913581619909" lon="12.754638803795341"><ele>60.0</ele><time>2026-04-12T15:21:09Z</time></trkpt><trkpt lat="41.9290010616479" lon="12.75454811250263"><ele>59.66666666666667</ele><time>2026-04-12T15:21:10Z</time></trkpt><trkpt lat="41.92886384712415" lon="12.754459687583353"><ele>59.333333333333336</ele><time>2026-04-12T15:21:11Z</time></trkpt><trkpt lat="41.92872455606779" lon="12.754368176176644"><ele>59.0</ele><time>2026-04-12T15:21:12Z</time></trkpt><trkpt lat="41.92858539304553" lon="12.754271298115318"><ele>60.66666666666667</ele><time>2026-04-12T15:21:13Z</time></trkpt><trkpt lat="41.9284454381781" lon="12.754186557831877"><ele>62.33333333333333</ele><time>2026-04-12T15:21:13.999Z</time></trkpt><trkpt lat="41.92829973429263" lon="12.754101849034951"><ele>64.0</ele><time>2026-04-12T15:21:14.999Z</time></trkpt><trkpt lat="41.92815962755497" lon="12.754063935331029"><ele>64.33333333333333</ele><time>2026-04-12T15:21:15.999Z</time></trkpt><trkpt lat="41.92801474092714" lon="12.754056471172287"><ele>64.66666666666667</ele><time>2026-04-12T15:21:16.999Z</time></trkpt><trkpt lat="41.927868853251674" lon="12.75410290783866"><ele>65.0</ele><time>2026-04-12T15:21:17.999Z</time></trkpt><trkpt lat="41.92771634346374" lon="12.754180080107565"><ele>65.0</ele><time>2026-04-12T15:21:18.999Z</time></trkpt><trkpt lat="41.92756271212032" lon="12.754251730138604"><ele>65.0</ele><time>2026-04-12T15:21:19.999Z</time></trkpt><trkpt lat="41.927410367123" lon="12.75436680528848"><ele>65.0</ele><time>2026-04-12T15:21:20.999Z</time></trkpt><trkpt lat="41.9272221192059" lon="12.754442212027955"><ele>68.33333333333334</ele><time>2026-04-12T15:21:21.999Z</time></trkpt><trkpt lat="41.927051163545904" lon="12.754539653687845"><ele>71.66666666666667</ele><time>2026-04-12T15:21:22.999Z</time></trkpt><trkpt lat="41.92688900449711" lon="12.754625870551616"><ele>75.0</ele><time>2026-04-12T15:21:23.999Z</time></trkpt><trkpt lat="41.926741069799846" lon="12.754711450268122"><ele>75.33333333333333</ele><time>2026-04-12T15:21:24.999Z</time></trkpt><trkpt lat="41.92658839336762" lon="12.754789631952717"><ele>75.66666666666666</ele><time>2026-04-12T15:21:25.999Z</time></trkpt><trkpt lat="41.92644334833184" lon="12.754863183988826"><ele>76.0</ele><time>2026-04-12T15:21:26.999Z</time></trkpt><trkpt lat="41.92630144652969" lon="12.75494386752662"><ele>76.0</ele><time>2026-04-12T15:21:27.999Z</time></trkpt><trkpt lat="41.92615886099658" lon="12.755024613782838"><ele>76.0</ele><time>2026-04-12T15:21:28.999Z</time></trkpt><trkpt lat="41.92601443844709" lon="12.755102063149273"><ele>76.0</ele><time>2026-04-12T15:21:29.999Z</time></trkpt><trkpt lat="41.925867575951564" lon="12.755183569696515"><ele>78.33333333333333</ele><time>2026-04-12T15:21:30.999Z</time></trkpt><trkpt lat="41.925722921613676" lon="12.755267514964213"><ele>80.66666666666667</ele><time>2026-04-12T15:21:31.999Z</time></trkpt><trkpt lat="41.92557985537787" lon="12.755350316640383"><ele>83.0</ele><time>2026-04-12T15:21:32.999Z</time></trkpt><trkpt lat="41.92544003091317" lon="12.75543876050795"><ele>83.0</ele><time>2026-04-12T15:21:33.999Z</time></trkpt><trkpt lat="41.925306012233634" lon="12.755526290260946"><ele>83.0</ele><time>2026-04-12T15:21:34.999Z</time></trkpt><trkpt lat="41.9251708521941" lon="12.755622987867362"><ele>83.0</ele><time>2026-04-12T15:21:35.999Z</time></trkpt><trkpt lat="41.925040417556865" lon="12.75572110771285"><ele>84.0</ele><time>2026-04-12T15:21:36.999Z</time></trkpt><trkpt lat="41.92491843814353" lon="12.755798550942917"><ele>85.0</ele><time>2026-04-12T15:21:37.999Z</time></trkpt><trkpt lat="41.924798859365715" lon="12.75584290832498"><ele>86.0</ele><time>2026-04-12T15:21:38.999Z</time></trkpt><trkpt lat="41.92468321816637" lon="12.755851866271938"><ele>87.0</ele><time>2026-04-12T15:21:39.999Z</time></trkpt><trkpt lat="41.924563850124706" lon="12.755857256814084"><ele>87.0</ele><time>2026-04-12T15:21:40.999Z</time></trkpt><trkpt lat="41.92446255627372" lon="12.755816411823963"><ele>87.0</ele><time>2026-04-12T15:21:41.999Z</time></trkpt><trkpt lat="41.924337245350415" lon="12.755731668254201"><ele>87.0</ele><time>2026-04-12T15:21:42.999Z</time></trkpt><trkpt lat="41.924230126898586" lon="12.75565070513544"><ele>87.0</ele><time>2026-04-12T15:21:43.999Z</time></trkpt><trkpt lat="41.92412245840237" lon="12.755554124595868"><ele>85.5</ele><time>2026-04-12T15:21:44.999Z</time></trkpt><trkpt lat="41.924014413120716" lon="12.755453964608883"><ele>84.0</ele><time>2026-04-12T15:21:45.999Z</time></trkpt><trkpt lat="41.92390600701776" lon="12.755349721184434"><ele>82.5</ele><time>2026-04-12T15:21:46.999Z</time></trkpt><trkpt lat="41.923793369100814" lon="12.755241348766305"><ele>81.0</ele><time>2026-04-12T15:21:47.999Z</time></trkpt><trkpt lat="41.92367989014753" lon="12.755131947850622"><ele>81.0</ele><time>2026-04-12T15:21:48.999Z</time></trkpt><trkpt lat="41.923568893894526" lon="12.755025635547804"><ele>81.0</ele><time>2026-04-12T15:21:49.999Z</time></trkpt><trkpt lat="41.92345291384546" lon="12.754941202163442"><ele>81.0</ele><time>2026-04-12T15:21:50.999Z</time></trkpt><trkpt lat="41.92334614863128" lon="12.754838959575109"><ele>81.0</ele><time>2026-04-12T15:21:51.999Z</time></trkpt><trkpt lat="41.92323939337555" lon="12.75473831435468"><ele>78.0</ele><time>2026-04-12T15:21:52.999Z</time></trkpt><trkpt lat="41.92313272195757" lon="12.754638030087632"><ele>75.0</ele><time>2026-04-12T15:21:53.999Z</time></trkpt><trkpt lat="41.92302981260762" lon="12.754532443011012"><ele>72.0</ele><time>2026-04-12T15:21:54.999Z</time></trkpt><trkpt lat="41.922924591677656" lon="12.754431963699721"><ele>69.0</ele><time>2026-04-12T15:21:55.999Z</time></trkpt><trkpt lat="41.92282025597353" lon="12.754334817367498"><ele>68.0</ele><time>2026-04-12T15:21:56.999Z</time></trkpt><trkpt lat="41.9227167362096" lon="12.754239002128585"><ele>67.0</ele><time>2026-04-12T15:21:57.999Z</time></trkpt><trkpt lat="41.92261707826031" lon="12.754140695351024"><ele>66.0</ele><time>2026-04-12T15:21:58.999Z</time></trkpt><trkpt lat="41.9225172337219" lon="12.754041247412323"><ele>65.0</ele><time>2026-04-12T15:21:59.999Z</time></trkpt><trkpt lat="41.922418972936796" lon="12.753942685111024"><ele>63.25</ele><time>2026-04-12T15:22:00.999Z</time></trkpt><trkpt lat="41.922320867387256" lon="12.753844596067164"><ele>61.5</ele><time>2026-04-12T15:22:01.999Z</time></trkpt><trkpt lat="41.922224263796" lon="12.7537467693352"><ele>59.75</ele><time>2026-04-12T15:22:02.999Z</time></trkpt><trkpt lat="41.92213041277252" lon="12.753653917527426"><ele>58.0</ele><time>2026-04-12T15:22:03.999Z</time></trkpt><trkpt lat="41.922046924514255" lon="12.75356497711805"><ele>57.33333333333333</ele><time>2026-04-12T15:22:04.999Z</time></trkpt><trkpt lat="41.92196734403774" lon="12.753484191194877"><ele>56.666666666666664</ele><time>2026-04-12T15:22:05.999Z</time></trkpt><trkpt lat="41.92189420891709" lon="12.753405248317009"><ele>56.0</ele><time>2026-04-12T15:22:06.998Z</time></trkpt><trkpt lat="41.921823788225524" lon="12.753329259671542"><ele>55.33333333333333</ele><time>2026-04-12T15:22:07.998Z</time></trkpt><trkpt lat="41.92176271990012" lon="12.753261681849567"><ele>54.666666666666664</ele><time>2026-04-12T15:22:08.998Z</time></trkpt><trkpt lat="41.92170851073076" lon="12.753188954025237"><ele>54.0</ele><time>2026-04-12T15:22:09.998Z</time></trkpt><trkpt lat="41.921662454024" lon="12.753119536387967"><ele>53.666666666666664</ele><time>2026-04-12T15:22:10.998Z</time></trkpt><trkpt lat="41.921620632627395" lon="12.7530522110506"><ele>53.33333333333333</ele><time>2026-04-12T15:22:11.998Z</time></trkpt><trkpt lat="41.921579262279565" lon="12.752966384664097"><ele>53.0</ele><time>2026-04-12T15:22:12.998Z</time></trkpt><trkpt lat="41.92154816028874" lon="12.752859098441183"><ele>52.666666666666664</ele><time>2026-04-12T15:22:13.998Z</time></trkpt><trkpt lat="41.921531546981065" lon="12.752726510349818"><ele>52.33333333333333</ele><time>2026-04-12T15:22:14.998Z</time></trkpt><trkpt lat="41.92151658840191" lon="12.752575455991483"><ele>52.0</ele><time>2026-04-12T15:22:15.998Z</time></trkpt><trkpt lat="41.92150227317347" lon="12.75241645545072"><ele>51.25</ele><time>2026-04-12T15:22:16.998Z</time></trkpt><trkpt lat="41.921483946159874" lon="12.752248547821706"><ele>50.5</ele><time>2026-04-12T15:22:17.998Z</time></trkpt><trkpt lat="41.921463084958845" lon="12.752074207231406"><ele>49.75</ele><time>2026-04-12T15:22:18.998Z</time></trkpt><trkpt lat="41.92144000717751" lon="12.751901333104755"><ele>49.0</ele><time>2026-04-12T15:22:19.998Z</time></trkpt><trkpt lat="41.9214137044357" lon="12.751728543653082"><ele>49.0</ele><time>2026-04-12T15:22:20.998Z</time></trkpt><trkpt lat="41.92138310558217" lon="12.751547507553887"><ele>49.0</ele><time>2026-04-12T15:22:21.998Z</time></trkpt><trkpt lat="41.92134932988217" lon="12.751358929019636"><ele>49.0</ele><time>2026-04-12T15:22:22.998Z</time></trkpt><trkpt lat="41.921316709081985" lon="12.751161808515945"><ele>49.0</ele><time>2026-04-12T15:22:23.998Z</time></trkpt><trkpt lat="41.9212811411928" lon="12.75095953739898"><ele>50.666666666666664</ele><time>2026-04-12T15:22:24.998Z</time></trkpt><trkpt lat="41.92124569550529" lon="12.750752726821963"><ele>52.33333333333333</ele><time>2026-04-12T15:22:25.998Z</time></trkpt><trkpt lat="41.92120772243627" lon="12.750539332053854"><ele>54.0</ele><time>2026-04-12T15:22:26.998Z</time></trkpt><trkpt lat="41.9211701317743" lon="12.750324100891183"><ele>55.0</ele><time>2026-04-12T15:22:27.998Z</time></trkpt><trkpt lat="41.92112642677406" lon="12.750099410675801"><ele>56.0</ele><time>2026-04-12T15:22:28.998Z</time></trkpt><trkpt lat="41.92108712321326" lon="12.749870966615848"><ele>57.0</ele><time>2026-04-12T15:22:29.998Z</time></trkpt><trkpt lat="41.92104735315752" lon="12.749643990005424"><ele>57.0</ele><time>2026-04-12T15:22:30.998Z</time></trkpt><trkpt lat="41.92100744117505" lon="12.749423641492418"><ele>57.0</ele><time>2026-04-12T15:22:31.998Z</time></trkpt><trkpt lat="41.92096604030974" lon="12.749204516490346"><ele>57.0</ele><time>2026-04-12T15:22:32.998Z</time></trkpt><trkpt lat="41.92092634188781" lon="12.7489862652317"><ele>61.0</ele><time>2026-04-12T15:22:33.998Z</time></trkpt><trkpt lat="41.92087998757161" lon="12.748769331047013"><ele>65.0</ele><time>2026-04-12T15:22:34.998Z</time></trkpt><trkpt lat="41.92082938055167" lon="12.748550309488767"><ele>69.0</ele><time>2026-04-12T15:22:35.998Z</time></trkpt><trkpt lat="41.9207514333141" lon="12.74834869734701"><ele>69.33333333333333</ele><time>2026-04-12T15:22:36.998Z</time></trkpt><trkpt lat="41.92064870551565" lon="12.748132525795546"><ele>69.66666666666666</ele><time>2026-04-12T15:22:37.998Z</time></trkpt><trkpt lat="41.92053815521522" lon="12.747918919044773"><ele>70.0</ele><time>2026-04-12T15:22:38.998Z</time></trkpt><trkpt lat="41.9204326281403" lon="12.747708086371572"><ele>70.0</ele><time>2026-04-12T15:22:40Z</time></trkpt><trkpt lat="41.9203287052659" lon="12.74750832087884"><ele>70.0</ele><time>2026-04-12T15:22:41Z</time></trkpt><trkpt lat="41.92023398540538" lon="12.74731224502937"><ele>70.0</ele><time>2026-04-12T15:22:42Z</time></trkpt><trkpt lat="41.92014847599684" lon="12.7471152476582"><ele>70.0</ele><time>2026-04-12T15:22:43Z</time></trkpt><trkpt lat="41.92007339988014" lon="12.746916686664768"><ele>70.0</ele><time>2026-04-12T15:22:44Z</time></trkpt><trkpt lat="41.91999908430611" lon="12.746709599851235"><ele>70.0</ele><time>2026-04-12T15:22:45Z</time></trkpt><trkpt lat="41.9199233544334" lon="12.746483101805374"><ele>70.33333333333333</ele><time>2026-04-12T15:22:46Z</time></trkpt><trkpt lat="41.91984801305632" lon="12.746243686924148"><ele>70.66666666666667</ele><time>2026-04-12T15:22:47Z</time></trkpt><trkpt lat="41.91977409893609" lon="12.745997482633225"><ele>71.0</ele><time>2026-04-12T15:22:48Z</time></trkpt><trkpt lat="41.91969286486196" lon="12.74574251592156"><ele>69.66666666666667</ele><time>2026-04-12T15:22:49Z</time></trkpt><trkpt lat="41.91961303506288" lon="12.745482114837408"><ele>68.33333333333333</ele><time>2026-04-12T15:22:50Z</time></trkpt><trkpt lat="41.9195349621794" lon="12.745222161739534"><ele>67.0</ele><time>2026-04-12T15:22:51Z</time></trkpt><trkpt lat="41.91945878181212" lon="12.744962229772305"><ele>66.66666666666666</ele><time>2026-04-12T15:22:52Z</time></trkpt><trkpt lat="41.919387400064096" lon="12.744701028017372"><ele>66.33333333333333</ele><time>2026-04-12T15:22:53Z</time></trkpt><trkpt lat="41.91931738218307" lon="12.744448128324583"><ele>66.0</ele><time>2026-04-12T15:22:54Z</time></trkpt><trkpt lat="41.9192473032596" lon="12.744208154467513"><ele>66.0</ele><time>2026-04-12T15:22:55Z</time></trkpt><trkpt lat="41.91918225386478" lon="12.743979230861882"><ele>66.0</ele><time>2026-04-12T15:22:56Z</time></trkpt><trkpt lat="41.91911396614322" lon="12.743755370904752"><ele>66.0</ele><time>2026-04-12T15:22:57Z</time></trkpt><trkpt lat="41.91904244971818" lon="12.743532166567784"><ele>65.33333333333333</ele><time>2026-04-12T15:22:58Z</time></trkpt><trkpt lat="41.91897173977863" lon="12.743290014107208"><ele>64.66666666666666</ele><time>2026-04-12T15:22:59Z</time></trkpt><trkpt lat="41.91890992855006" lon="12.743047417472082"><ele>64.0</ele><time>2026-04-12T15:23:00Z</time></trkpt><trkpt lat="41.91885280215397" lon="12.742807228138952"><ele>63.33333333333333</ele><time>2026-04-12T15:23:01Z</time></trkpt><trkpt lat="41.918795095075545" lon="12.742575692683175"><ele>62.66666666666667</ele><time>2026-04-12T15:23:02Z</time></trkpt><trkpt lat="41.918737236431674" lon="12.742350655228162"><ele>62.0</ele><time>2026-04-12T15:23:03Z</time></trkpt><trkpt lat="41.91868575368267" lon="12.74213323898817"><ele>62.0</ele><time>2026-04-12T15:23:04Z</time></trkpt><trkpt lat="41.918635328055146" lon="12.74192091189458"><ele>62.0</ele><time>2026-04-12T15:23:05Z</time></trkpt><trkpt lat="41.91858558817468" lon="12.741712441976885"><ele>62.0</ele><time>2026-04-12T15:23:06Z</time></trkpt><trkpt lat="41.91853558376913" lon="12.741500905295188"><ele>61.333333333333336</ele><time>2026-04-12T15:23:07Z</time></trkpt><trkpt lat="41.918481500390584" lon="12.741284030743783"><ele>60.66666666666667</ele><time>2026-04-12T15:23:08Z</time></trkpt><trkpt lat="41.918420754799314" lon="12.741065624089252"><ele>60.0</ele><time>2026-04-12T15:23:09Z</time></trkpt><trkpt lat="41.918351950831266" lon="12.740846052208415"><ele>59.33333333333333</ele><time>2026-04-12T15:23:10Z</time></trkpt><trkpt lat="41.918276242194075" lon="12.740630441896316"><ele>58.666666666666664</ele><time>2026-04-12T15:23:11Z</time></trkpt><trkpt lat="41.91818793861275" lon="12.740426112498817"><ele>58.0</ele><time>2026-04-12T15:23:12Z</time></trkpt><trkpt lat="41.91809141741769" lon="12.74022402552583"><ele>57.666666666666664</ele><time>2026-04-12T15:23:13Z</time></trkpt><trkpt lat="41.917991316059116" lon="12.740026456774626"><ele>57.33333333333333</ele><time>2026-04-12T15:23:14Z</time></trkpt><trkpt lat="41.91788890106702" lon="12.739835613654078"><ele>57.0</ele><time>2026-04-12T15:23:15Z</time></trkpt><trkpt lat="41.91779045402653" lon="12.73964829772256"><ele>57.0</ele><time>2026-04-12T15:23:16Z</time></trkpt><trkpt lat="41.9176902212442" lon="12.73945808105544"><ele>57.0</ele><time>2026-04-12T15:23:17Z</time></trkpt><trkpt lat="41.917582202483615" lon="12.73926407420462"><ele>57.0</ele><time>2026-04-12T15:23:17.999Z</time></trkpt><trkpt lat="41.91746653534892" lon="12.739058785540143"><ele>55.66666666666667</ele><time>2026-04-12T15:23:18.999Z</time></trkpt><trkpt lat="41.91735357325303" lon="12.738844115701978"><ele>54.333333333333336</ele><time>2026-04-12T15:23:19.999Z</time></trkpt><trkpt lat="41.91724119683969" lon="12.738630707211751"><ele>53.0</ele><time>2026-04-12T15:23:20.999Z</time></trkpt><trkpt lat="41.917130746750644" lon="12.738418330682247"><ele>52.333333333333336</ele><time>2026-04-12T15:23:21.999Z</time></trkpt><trkpt lat="41.91701699148008" lon="12.738201489640382"><ele>51.66666666666667</ele><time>2026-04-12T15:23:22.999Z</time></trkpt><trkpt lat="41.916900212728116" lon="12.737982818749684"><ele>51.0</ele><time>2026-04-12T15:23:23.999Z</time></trkpt><trkpt lat="41.916782816008435" lon="12.737762843938453"><ele>50.0</ele><time>2026-04-12T15:23:24.999Z</time></trkpt><trkpt lat="41.916662677757934" lon="12.737545580447085"><ele>49.0</ele><time>2026-04-12T15:23:25.999Z</time></trkpt><trkpt lat="41.91654151293527" lon="12.737332266674558"><ele>48.0</ele><time>2026-04-12T15:23:26.999Z</time></trkpt><trkpt lat="41.916424923196786" lon="12.737117584046846"><ele>48.0</ele><time>2026-04-12T15:23:27.999Z</time></trkpt><trkpt lat="41.91630907447961" lon="12.7369125570898"><ele>48.0</ele><time>2026-04-12T15:23:28.999Z</time></trkpt><trkpt lat="41.916193689744475" lon="12.736718722063276"><ele>48.0</ele><time>2026-04-12T15:23:29.999Z</time></trkpt><trkpt lat="41.91607546616383" lon="12.736533329397389"><ele>46.666666666666664</ele><time>2026-04-12T15:23:30.999Z</time></trkpt><trkpt lat="41.915956360979486" lon="12.73634781596368"><ele>45.33333333333333</ele><time>2026-04-12T15:23:31.999Z</time></trkpt><trkpt lat="41.91584190572138" lon="12.736165653157908"><ele>44.0</ele><time>2026-04-12T15:23:32.999Z</time></trkpt><trkpt lat="41.915726652609905" lon="12.735980948543414"><ele>43.0</ele><time>2026-04-12T15:23:33.999Z</time></trkpt><trkpt lat="41.91561231374612" lon="12.735800905821117"><ele>42.0</ele><time>2026-04-12T15:23:34.999Z</time></trkpt><trkpt lat="41.91550143450102" lon="12.735622817860815"><ele>41.0</ele><time>2026-04-12T15:23:35.999Z</time></trkpt><trkpt lat="41.91539284821481" lon="12.735450565871894"><ele>41.0</ele><time>2026-04-12T15:23:36.999Z</time></trkpt><trkpt lat="41.91529420338095" lon="12.735281775249923"><ele>41.0</ele><time>2026-04-12T15:23:37.999Z</time></trkpt><trkpt lat="41.915205304485795" lon="12.735124300230146"><ele>41.0</ele><time>2026-04-12T15:23:38.999Z</time></trkpt><trkpt lat="41.915129709770014" lon="12.734980599772486"><ele>41.0</ele><time>2026-04-12T15:23:39.999Z</time></trkpt><trkpt lat="41.91506116430386" lon="12.734852948875519"><ele>41.4</ele><time>2026-04-12T15:23:40.999Z</time></trkpt><trkpt lat="41.915007099166274" lon="12.734744726582827"><ele>41.8</ele><time>2026-04-12T15:23:41.999Z</time></trkpt><trkpt lat="41.91496352866253" lon="12.734659760901632"><ele>42.199999999999996</ele><time>2026-04-12T15:23:42.999Z</time></trkpt><trkpt lat="41.91490075883031" lon="12.734537525872883"><ele>42.599999999999994</ele><time>2026-04-12T15:23:44.999Z</time></trkpt><trkpt lat="41.9148314154524" lon="12.734598782139264"><ele>43.0</ele><time>2026-04-12T15:23:47.999Z</time></trkpt><trkpt lat="41.9147362450083" lon="12.734582150767809"><ele>43.0</ele><time>2026-04-12T15:23:50.999Z</time></trkpt><trkpt lat="41.91469572905944" lon="12.734477214811758"><ele>43.0</ele><time>2026-04-12T15:23:52.999Z</time></trkpt><trkpt lat="41.9146609087272" lon="12.73440031376151"><ele>43.0</ele><time>2026-04-12T15:23:54.999Z</time></trkpt><trkpt lat="41.91462670269549" lon="12.734328394231884"><ele>43.0</ele><time>2026-04-12T15:23:56.999Z</time></trkpt><trkpt lat="41.9145713720462" lon="12.734256419375338"><ele>43.0</ele><time>2026-04-12T15:24:00.999Z</time></trkpt><trkpt lat="41.91448173736606" lon="12.734254951441418"><ele>43.0</ele><time>2026-04-12T15:25:28.999Z</time></trkpt><trkpt lat="41.91439881920996" lon="12.73413285793736"><ele>43.0</ele><time>2026-04-12T15:32:26.999Z</time></trkpt><trkpt lat="41.91446240674396" lon="12.734204284112598"><ele>43.0</ele><time>2026-04-12T15:33:45.999Z</time></trkpt><trkpt lat="41.914487248849625" lon="12.73403071693039"><ele>43.0</ele><time>2026-04-12T15:42:27.999Z</time></trkpt><trkpt lat="41.914467220239615" lon="12.733927843069543"><ele>43.0</ele><time>2026-04-12T15:42:29.999Z</time></trkpt><trkpt lat="41.91447083365866" lon="12.733830045986359"><ele>43.0</ele><time>2026-04-12T15:42:32.999Z</time></trkpt><trkpt lat="41.91449031591245" lon="12.733733038020867"><ele>43.0</ele><time>2026-04-12T15:42:36.999Z</time></trkpt><trkpt lat="41.91446989973476" lon="12.733587448360295"><ele>42.833333333333336</ele><time>2026-04-12T15:42:38.999Z</time></trkpt><trkpt lat="41.91442643675764" lon="12.733497842852154"><ele>42.66666666666667</ele><time>2026-04-12T15:42:39.999Z</time></trkpt><trkpt lat="41.91437968695456" lon="12.733414804510138"><ele>42.5</ele><time>2026-04-12T15:42:40.999Z</time></trkpt><trkpt lat="41.91433083038428" lon="12.733322504958062"><ele>42.333333333333336</ele><time>2026-04-12T15:42:41.999Z</time></trkpt><trkpt lat="41.914281561288824" lon="12.733226683892825"><ele>42.166666666666664</ele><time>2026-04-12T15:42:42.999Z</time></trkpt><trkpt lat="41.91422833721863" lon="12.73311911600407"><ele>42.0</ele><time>2026-04-12T15:42:43.999Z</time></trkpt><trkpt lat="41.91417485090429" lon="12.733006933549698"><ele>42.400000000000006</ele><time>2026-04-12T15:42:44.999Z</time></trkpt><trkpt lat="41.91411891149477" lon="12.732886421841972"><ele>42.800000000000004</ele><time>2026-04-12T15:42:45.999Z</time></trkpt><trkpt lat="41.91405901386391" lon="12.732760492620564"><ele>43.2</ele><time>2026-04-12T15:42:46.999Z</time></trkpt><trkpt lat="41.91399692238722" lon="12.732633104772335"><ele>43.6</ele><time>2026-04-12T15:42:47.999Z</time></trkpt><trkpt lat="41.913935614785416" lon="12.73250532827644"><ele>44.0</ele><time>2026-04-12T15:42:48.999Z</time></trkpt><trkpt lat="41.9138716952835" lon="12.732372420316848"><ele>44.0</ele><time>2026-04-12T15:42:49.999Z</time></trkpt><trkpt lat="41.913808449081024" lon="12.732246966414909"><ele>44.0</ele><time>2026-04-12T15:42:50.999Z</time></trkpt><trkpt lat="41.91374685090958" lon="12.732122176545994"><ele>44.0</ele><time>2026-04-12T15:42:51.999Z</time></trkpt><trkpt lat="41.91369179428311" lon="12.732003935430058"><ele>44.0</ele><time>2026-04-12T15:42:52.998Z</time></trkpt><trkpt lat="41.913639047065026" lon="12.731891688762873"><ele>44.0</ele><time>2026-04-12T15:42:53.998Z</time></trkpt><trkpt lat="41.913587057941946" lon="12.731788150553218"><ele>44.166666666666664</ele><time>2026-04-12T15:42:54.998Z</time></trkpt><trkpt lat="41.91353819978418" lon="12.731689984382326"><ele>44.33333333333333</ele><time>2026-04-12T15:42:55.998Z</time></trkpt><trkpt lat="41.91349207683932" lon="12.731596461503466"><ele>44.5</ele><time>2026-04-12T15:42:56.998Z</time></trkpt><trkpt lat="41.91344801424262" lon="12.731506473881147"><ele>44.666666666666664</ele><time>2026-04-12T15:42:57.998Z</time></trkpt><trkpt lat="41.91340708586356" lon="12.731425316769856"><ele>44.833333333333336</ele><time>2026-04-12T15:42:58.998Z</time></trkpt><trkpt lat="41.91336742145366" lon="12.731351108311076"><ele>45.0</ele><time>2026-04-12T15:42:59.998Z</time></trkpt><trkpt lat="41.91330143773674" lon="12.731222092166924"><ele>45.2</ele><time>2026-04-12T15:43:01.998Z</time></trkpt><trkpt lat="41.913243980544316" lon="12.731117941192524"><ele>45.4</ele><time>2026-04-12T15:43:03.998Z</time></trkpt><trkpt lat="41.91319569038664" lon="12.731023524385398"><ele>45.599999999999994</ele><time>2026-04-12T15:43:05.998Z</time></trkpt><trkpt lat="41.91314632219975" lon="12.730927758374289"><ele>45.8</ele><time>2026-04-12T15:43:07.998Z</time></trkpt><trkpt lat="41.91310166528398" lon="12.730818087970063"><ele>46.0</ele><time>2026-04-12T15:43:09.998Z</time></trkpt><trkpt lat="41.9130538956916" lon="12.730692184126156"><ele>46.0</ele><time>2026-04-12T15:43:11.998Z</time></trkpt><trkpt lat="41.91298601406508" lon="12.730549058287615"><ele>46.0</ele><time>2026-04-12T15:43:13.998Z</time></trkpt><trkpt lat="41.91294793403649" lon="12.73046785464268"><ele>46.0</ele><time>2026-04-12T15:43:14.998Z</time></trkpt><trkpt lat="41.91290727985416" lon="12.73038217978728"><ele>46.0</ele><time>2026-04-12T15:43:15.998Z</time></trkpt><trkpt lat="41.912861768916855" lon="12.730292291033573"><ele>46.0</ele><time>2026-04-12T15:43:16.998Z</time></trkpt><trkpt lat="41.912812721055495" lon="12.73019798689975"><ele>46.0</ele><time>2026-04-12T15:43:17.998Z</time></trkpt><trkpt lat="41.912761407916996" lon="12.73009542589299"><ele>46.199999999999996</ele><time>2026-04-12T15:43:18.998Z</time></trkpt><trkpt lat="41.912710395520996" lon="12.729990774251466"><ele>46.4</ele><time>2026-04-12T15:43:19.998Z</time></trkpt><trkpt lat="41.91265502471825" lon="12.72987969988596"><ele>46.6</ele><time>2026-04-12T15:43:20.998Z</time></trkpt><trkpt lat="41.912596934211535" lon="12.729763805971826"><ele>46.8</ele><time>2026-04-12T15:43:21.998Z</time></trkpt><trkpt lat="41.91253607080304" lon="12.729643037658557"><ele>47.0</ele><time>2026-04-12T15:43:22.998Z</time></trkpt><trkpt lat="41.91247205351948" lon="12.729516677537656"><ele>46.75</ele><time>2026-04-12T15:43:23.998Z</time></trkpt><trkpt lat="41.912406800712084" lon="12.72938700969266"><ele>46.5</ele><time>2026-04-12T15:43:24.998Z</time></trkpt><trkpt lat="41.91233942290094" lon="12.729253827825119"><ele>46.25</ele><time>2026-04-12T15:43:25.998Z</time></trkpt><trkpt lat="41.912271115644074" lon="12.72911984052594"><ele>46.0</ele><time>2026-04-12T15:43:26.998Z</time></trkpt><trkpt lat="41.912202200312755" lon="12.728983838812946"><ele>46.0</ele><time>2026-04-12T15:43:27.998Z</time></trkpt><trkpt lat="41.91213554859991" lon="12.728850207048257"><ele>46.0</ele><time>2026-04-12T15:43:28.998Z</time></trkpt><trkpt lat="41.91206886601831" lon="12.728718612595374"><ele>46.0</ele><time>2026-04-12T15:43:29.998Z</time></trkpt><trkpt lat="41.91200011615709" lon="12.728588306652169"><ele>46.0</ele><time>2026-04-12T15:43:30.998Z</time></trkpt><trkpt lat="41.911927503168194" lon="12.728453099127915"><ele>45.75</ele><time>2026-04-12T15:43:31.998Z</time></trkpt><trkpt lat="41.911854247207586" lon="12.728313203370158"><ele>45.5</ele><time>2026-04-12T15:43:32.998Z</time></trkpt><trkpt lat="41.9117784840791" lon="12.728174603854537"><ele>45.25</ele><time>2026-04-12T15:43:33.998Z</time></trkpt><trkpt lat="41.91170036266764" lon="12.728035141110198"><ele>45.0</ele><time>2026-04-12T15:43:34.998Z</time></trkpt><trkpt lat="41.91162056651256" lon="12.727891761309525"><ele>44.75</ele><time>2026-04-12T15:43:35.998Z</time></trkpt><trkpt lat="41.911541262016414" lon="12.727750657900291"><ele>44.5</ele><time>2026-04-12T15:43:37Z</time></trkpt><trkpt lat="41.91146430619681" lon="12.727618792661849"><ele>44.25</ele><time>2026-04-12T15:43:38Z</time></trkpt><trkpt lat="41.911391480206454" lon="12.72749445220688"><ele>44.0</ele><time>2026-04-12T15:43:39Z</time></trkpt><trkpt lat="41.91132001184352" lon="12.727376619153567"><ele>44.5</ele><time>2026-04-12T15:43:40Z</time></trkpt><trkpt lat="41.91124682185248" lon="12.727262513498347"><ele>45.0</ele><time>2026-04-12T15:43:41Z</time></trkpt><trkpt lat="41.91117111699377" lon="12.727144958252966"><ele>45.5</ele><time>2026-04-12T15:43:42Z</time></trkpt><trkpt lat="41.911095891679004" lon="12.727020442908948"><ele>46.0</ele><time>2026-04-12T15:43:43Z</time></trkpt><trkpt lat="41.911016373288085" lon="12.726892775035104"><ele>46.0</ele><time>2026-04-12T15:43:44Z</time></trkpt><trkpt lat="41.91093324913407" lon="12.726762164656057"><ele>46.0</ele><time>2026-04-12T15:43:45Z</time></trkpt><trkpt lat="41.910848321603694" lon="12.726626671310207"><ele>46.0</ele><time>2026-04-12T15:43:46Z</time></trkpt><trkpt lat="41.910758933415245" lon="12.72648923408941"><ele>46.0</ele><time>2026-04-12T15:43:47Z</time></trkpt><trkpt lat="41.910664777943076" lon="12.726347816231007"><ele>46.0</ele><time>2026-04-12T15:43:48Z</time></trkpt><trkpt lat="41.910565566386154" lon="12.72620247914226"><ele>46.0</ele><time>2026-04-12T15:43:49Z</time></trkpt><trkpt lat="41.91045978713577" lon="12.726055279898468"><ele>46.0</ele><time>2026-04-12T15:43:50Z</time></trkpt><trkpt lat="41.91034618345576" lon="12.725898907945584"><ele>46.66666666666667</ele><time>2026-04-12T15:43:51Z</time></trkpt><trkpt lat="41.91022824908537" lon="12.725738357926614"><ele>47.333333333333336</ele><time>2026-04-12T15:43:52Z</time></trkpt><trkpt lat="41.910109392512005" lon="12.725578730590206"><ele>48.0</ele><time>2026-04-12T15:43:53Z</time></trkpt><trkpt lat="41.90998370041639" lon="12.725416729609744"><ele>48.0</ele><time>2026-04-12T15:43:54Z</time></trkpt><trkpt lat="41.90985787954811" lon="12.72525048704037"><ele>48.0</ele><time>2026-04-12T15:43:55Z</time></trkpt><trkpt lat="41.90972679944896" lon="12.725084100794074"><ele>48.0</ele><time>2026-04-12T15:43:56Z</time></trkpt><trkpt lat="41.909594322460286" lon="12.724916339899885"><ele>48.66666666666667</ele><time>2026-04-12T15:43:57Z</time></trkpt><trkpt lat="41.90946209262904" lon="12.724745218754448"><ele>49.333333333333336</ele><time>2026-04-12T15:43:58Z</time></trkpt><trkpt lat="41.90932950126027" lon="12.724577599276678"><ele>50.0</ele><time>2026-04-12T15:43:59Z</time></trkpt><trkpt lat="41.909199926455535" lon="12.724416429512418"><ele>52.0</ele><time>2026-04-12T15:44:00Z</time></trkpt><trkpt lat="41.909069723725786" lon="12.724254572668228"><ele>54.0</ele><time>2026-04-12T15:44:01Z</time></trkpt><trkpt lat="41.908941259810625" lon="12.724094112581911"><ele>56.0</ele><time>2026-04-12T15:44:02Z</time></trkpt><trkpt lat="41.90881368275663" lon="12.723933614541535"><ele>56.0</ele><time>2026-04-12T15:44:03Z</time></trkpt><trkpt lat="41.90868722329194" lon="12.723775975394298"><ele>56.0</ele><time>2026-04-12T15:44:04Z</time></trkpt><trkpt lat="41.908561616680906" lon="12.723623670094524"><ele>56.0</ele><time>2026-04-12T15:44:04.999Z</time></trkpt><trkpt lat="41.908438687923265" lon="12.723473791763606"><ele>57.333333333333336</ele><time>2026-04-12T15:44:05.999Z</time></trkpt><trkpt lat="41.908321254517794" lon="12.72333028806423"><ele>58.66666666666667</ele><time>2026-04-12T15:44:06.999Z</time></trkpt><trkpt lat="41.90821126607914" lon="12.72319385948017"><ele>60.0</ele><time>2026-04-12T15:44:07.999Z</time></trkpt><trkpt lat="41.90810920320647" lon="12.723055669022239"><ele>60.0</ele><time>2026-04-12T15:44:08.999Z</time></trkpt><trkpt lat="41.908014223406134" lon="12.722907121737453"><ele>60.0</ele><time>2026-04-12T15:44:09.999Z</time></trkpt><trkpt lat="41.90792797584219" lon="12.722751197264458"><ele>60.0</ele><time>2026-04-12T15:44:10.999Z</time></trkpt><trkpt lat="41.90785669221866" lon="12.722584805875899"><ele>60.0</ele><time>2026-04-12T15:44:11.999Z</time></trkpt><trkpt lat="41.90780091047677" lon="12.722405177700553"><ele>59.75</ele><time>2026-04-12T15:44:12.999Z</time></trkpt><trkpt lat="41.907754486299666" lon="12.722217877229564"><ele>59.5</ele><time>2026-04-12T15:44:13.999Z</time></trkpt><trkpt lat="41.90771277848177" lon="12.722023702902227"><ele>59.25</ele><time>2026-04-12T15:44:14.999Z</time></trkpt><trkpt lat="41.907673433562344" lon="12.721827793733949"><ele>59.0</ele><time>2026-04-12T15:44:15.999Z</time></trkpt><trkpt lat="41.90763187449265" lon="12.721625698701864"><ele>59.66666666666667</ele><time>2026-04-12T15:44:16.999Z</time></trkpt><trkpt lat="41.90759053229839" lon="12.721421561368608"><ele>60.33333333333333</ele><time>2026-04-12T15:44:17.999Z</time></trkpt><trkpt lat="41.907549983653595" lon="12.721215192017933"><ele>61.0</ele><time>2026-04-12T15:44:18.999Z</time></trkpt><trkpt lat="41.90750841246969" lon="12.72100472313608"><ele>62.33333333333333</ele><time>2026-04-12T15:44:19.999Z</time></trkpt><trkpt lat="41.9074666042297" lon="12.720795308623822"><ele>63.66666666666667</ele><time>2026-04-12T15:44:20.999Z</time></trkpt><trkpt lat="41.907422891123474" lon="12.720585445389611"><ele>65.0</ele><time>2026-04-12T15:44:21.999Z</time></trkpt><trkpt lat="41.90737934229845" lon="12.720376797017126"><ele>66.0</ele><time>2026-04-12T15:44:22.999Z</time></trkpt><trkpt lat="41.907339877092575" lon="12.720169041794849"><ele>67.0</ele><time>2026-04-12T15:44:23.999Z</time></trkpt><trkpt lat="41.90729928401644" lon="12.71996415418312"><ele>68.0</ele><time>2026-04-12T15:44:24.999Z</time></trkpt><trkpt lat="41.90725762474881" lon="12.71976065570201"><ele>68.0</ele><time>2026-04-12T15:44:25.999Z</time></trkpt><trkpt lat="41.907216333716065" lon="12.7195541791497"><ele>68.0</ele><time>2026-04-12T15:44:26.999Z</time></trkpt><trkpt lat="41.907174631293536" lon="12.719345924080281"><ele>68.0</ele><time>2026-04-12T15:44:27.999Z</time></trkpt><trkpt lat="41.90713144404052" lon="12.719133342547215"><ele>68.33333333333334</ele><time>2026-04-12T15:44:28.999Z</time></trkpt><trkpt lat="41.90708561279057" lon="12.71891635430234"><ele>68.66666666666667</ele><time>2026-04-12T15:44:29.999Z</time></trkpt><trkpt lat="41.907039939306706" lon="12.71869314412451"><ele>69.0</ele><time>2026-04-12T15:44:30.999Z</time></trkpt><trkpt lat="41.90699419134821" lon="12.718462606796757"><ele>69.0</ele><time>2026-04-12T15:44:31.999Z</time></trkpt><trkpt lat="41.90694825331064" lon="12.718227117918413"><ele>69.0</ele><time>2026-04-12T15:44:32.999Z</time></trkpt><trkpt lat="41.906900899060574" lon="12.717988737258771"><ele>69.0</ele><time>2026-04-12T15:44:33.999Z</time></trkpt><trkpt lat="41.90685463936846" lon="12.717747439875891"><ele>66.0</ele><time>2026-04-12T15:44:34.999Z</time></trkpt><trkpt lat="41.906811210486495" lon="12.717503779725984"><ele>63.0</ele><time>2026-04-12T15:44:35.999Z</time></trkpt><trkpt lat="41.906764557015215" lon="12.717257890674928"><ele>60.0</ele><time>2026-04-12T15:44:36.999Z</time></trkpt><trkpt lat="41.90671628639207" lon="12.717010443772114"><ele>58.66666666666667</ele><time>2026-04-12T15:44:37.999Z</time></trkpt><trkpt lat="41.90666790064775" lon="12.716766971535687"><ele>57.333333333333336</ele><time>2026-04-12T15:44:38.999Z</time></trkpt><trkpt lat="41.90661851765019" lon="12.716527219740321"><ele>56.0</ele><time>2026-04-12T15:44:39.999Z</time></trkpt><trkpt lat="41.906572960530724" lon="12.716289829015619"><ele>56.66666666666667</ele><time>2026-04-12T15:44:40.999Z</time></trkpt><trkpt lat="41.906528647893865" lon="12.716055368270217"><ele>57.33333333333333</ele><time>2026-04-12T15:44:41.999Z</time></trkpt><trkpt lat="41.906482529194946" lon="12.715823042486653"><ele>58.0</ele><time>2026-04-12T15:44:42.999Z</time></trkpt><trkpt lat="41.906437821919496" lon="12.715592772143925"><ele>58.0</ele><time>2026-04-12T15:44:43.999Z</time></trkpt><trkpt lat="41.90639390973367" lon="12.715364828062565"><ele>58.0</ele><time>2026-04-12T15:44:44.999Z</time></trkpt><trkpt lat="41.906348725067375" lon="12.715140383939064"><ele>58.0</ele><time>2026-04-12T15:44:45.999Z</time></trkpt><trkpt lat="41.90630589921703" lon="12.71492629999128"><ele>59.33333333333333</ele><time>2026-04-12T15:44:46.999Z</time></trkpt><trkpt lat="41.906265012808305" lon="12.714722900280467"><ele>60.66666666666667</ele><time>2026-04-12T15:44:47.999Z</time></trkpt><trkpt lat="41.90622567516345" lon="12.714522749062766"><ele>62.0</ele><time>2026-04-12T15:44:48.999Z</time></trkpt><trkpt lat="41.90618793005798" lon="12.714326196932323"><ele>62.5</ele><time>2026-04-12T15:44:49.999Z</time></trkpt><trkpt lat="41.90614926714421" lon="12.714132715315184"><ele>63.0</ele><time>2026-04-12T15:44:50.999Z</time></trkpt><trkpt lat="41.906110370594845" lon="12.71394087476168"><ele>63.5</ele><time>2026-04-12T15:44:51.999Z</time></trkpt><trkpt lat="41.906071894942116" lon="12.713748544249459"><ele>64.0</ele><time>2026-04-12T15:44:52.999Z</time></trkpt><trkpt lat="41.90603372345846" lon="12.713553286207912"><ele>64.0</ele><time>2026-04-12T15:44:53.999Z</time></trkpt><trkpt lat="41.90599546060821" lon="12.713355679018145"><ele>64.0</ele><time>2026-04-12T15:44:54.999Z</time></trkpt><trkpt lat="41.90595674092183" lon="12.713157470492602"><ele>64.0</ele><time>2026-04-12T15:44:55.999Z</time></trkpt><trkpt lat="41.905916219659424" lon="12.712963341546864"><ele>64.25</ele><time>2026-04-12T15:44:56.999Z</time></trkpt><trkpt lat="41.905876878207515" lon="12.712774406116996"><ele>64.5</ele><time>2026-04-12T15:44:57.998Z</time></trkpt><trkpt lat="41.905841711979534" lon="12.712585241225755"><ele>64.75</ele><time>2026-04-12T15:44:58.998Z</time></trkpt><trkpt lat="41.905806062649354" lon="12.71239450812222"><ele>65.0</ele><time>2026-04-12T15:44:59.998Z</time></trkpt><trkpt lat="41.9057703737099" lon="12.712202937461342"><ele>65.0</ele><time>2026-04-12T15:45:00.998Z</time></trkpt><trkpt lat="41.905735668623414" lon="12.7120103660161"><ele>65.0</ele><time>2026-04-12T15:45:01.998Z</time></trkpt><trkpt lat="41.90570015343691" lon="12.711818250979594"><ele>65.0</ele><time>2026-04-12T15:45:02.998Z</time></trkpt><trkpt lat="41.90566287503922" lon="12.711626218096471"><ele>65.0</ele><time>2026-04-12T15:45:03.998Z</time></trkpt><trkpt lat="41.90562443074173" lon="12.711435097927774"><ele>65.0</ele><time>2026-04-12T15:45:04.998Z</time></trkpt><trkpt lat="41.905584256223015" lon="12.711240937810512"><ele>65.0</ele><time>2026-04-12T15:45:05.998Z</time></trkpt><trkpt lat="41.9055467797676" lon="12.711049312642173"><ele>65.0</ele><time>2026-04-12T15:45:06.998Z</time></trkpt><trkpt lat="41.90550820743931" lon="12.710868399999391"><ele>65.0</ele><time>2026-04-12T15:45:07.998Z</time></trkpt><trkpt lat="41.90546076991257" lon="12.710694522263946"><ele>65.0</ele><time>2026-04-12T15:45:08.998Z</time></trkpt><trkpt lat="41.90539950460888" lon="12.710532501308327"><ele>65.0</ele><time>2026-04-12T15:45:09.998Z</time></trkpt><trkpt lat="41.90531951402479" lon="12.710382288624139"><ele>65.0</ele><time>2026-04-12T15:45:10.998Z</time></trkpt><trkpt lat="41.90522120925589" lon="12.710249569333527"><ele>65.0</ele><time>2026-04-12T15:45:11.998Z</time></trkpt><trkpt lat="41.90510897573952" lon="12.710129454706426"><ele>65.33333333333334</ele><time>2026-04-12T15:45:12.998Z</time></trkpt><trkpt lat="41.90498745234944" lon="12.710016549375508"><ele>65.66666666666667</ele><time>2026-04-12T15:45:13.998Z</time></trkpt><trkpt lat="41.90485680512807" lon="12.709906154566902"><ele>66.0</ele><time>2026-04-12T15:45:14.998Z</time></trkpt><trkpt lat="41.904724573881104" lon="12.709793932427973"><ele>66.0</ele><time>2026-04-12T15:45:15.998Z</time></trkpt><trkpt lat="41.90458907340414" lon="12.709685632317697"><ele>66.0</ele><time>2026-04-12T15:45:16.998Z</time></trkpt><trkpt lat="41.904448868725126" lon="12.70957864869044"><ele>66.0</ele><time>2026-04-12T15:45:17.998Z</time></trkpt><trkpt lat="41.904307775581366" lon="12.709468102771856"><ele>67.0</ele><time>2026-04-12T15:45:18.998Z</time></trkpt><trkpt lat="41.90416301310133" lon="12.709360820615279"><ele>68.0</ele><time>2026-04-12T15:45:19.998Z</time></trkpt><trkpt lat="41.904014399654464" lon="12.709248673034317"><ele>69.0</ele><time>2026-04-12T15:45:20.998Z</time></trkpt><trkpt lat="41.90386439045475" lon="12.70914066572653"><ele>69.0</ele><time>2026-04-12T15:45:21.998Z</time></trkpt><trkpt lat="41.903711117453135" lon="12.709032699595818"><ele>69.0</ele><time>2026-04-12T15:45:22.998Z</time></trkpt><trkpt lat="41.90355384213253" lon="12.708920931564478"><ele>69.0</ele><time>2026-04-12T15:45:23.998Z</time></trkpt><trkpt lat="41.90339537975239" lon="12.708810517181897"><ele>69.0</ele><time>2026-04-12T15:45:24.998Z</time></trkpt><trkpt lat="41.90323549901309" lon="12.708697789652451"><ele>69.0</ele><time>2026-04-12T15:45:25.998Z</time></trkpt><trkpt lat="41.903073852815396" lon="12.708585212064945"><ele>69.0</ele><time>2026-04-12T15:45:26.998Z</time></trkpt><trkpt lat="41.90291113589327" lon="12.708472677158728"><ele>69.0</ele><time>2026-04-12T15:45:27.998Z</time></trkpt><trkpt lat="41.902749421017226" lon="12.708358274931392"><ele>69.0</ele><time>2026-04-12T15:45:28.998Z</time></trkpt><trkpt lat="41.9025895797119" lon="12.708256196686536"><ele>69.0</ele><time>2026-04-12T15:45:29.998Z</time></trkpt><trkpt lat="41.90243859902846" lon="12.70815911441838"><ele>68.66666666666667</ele><time>2026-04-12T15:45:30.998Z</time></trkpt><trkpt lat="41.90229295691761" lon="12.708060243538219"><ele>68.33333333333334</ele><time>2026-04-12T15:45:31.998Z</time></trkpt><trkpt lat="41.90215303545023" lon="12.707969545154464"><ele>68.0</ele><time>2026-04-12T15:45:32.998Z</time></trkpt><trkpt lat="41.90201562492859" lon="12.707876047527566"><ele>68.0</ele><time>2026-04-12T15:45:33.998Z</time></trkpt><trkpt lat="41.90188073534057" lon="12.707785513164028"><ele>68.0</ele><time>2026-04-12T15:45:34.998Z</time></trkpt><trkpt lat="41.90174167272524" lon="12.707693062586989"><ele>68.0</ele><time>2026-04-12T15:45:35.998Z</time></trkpt><trkpt lat="41.901604318679134" lon="12.707600082421617"><ele>69.0</ele><time>2026-04-12T15:45:36.998Z</time></trkpt><trkpt lat="41.901467453930955" lon="12.707501800989018"><ele>70.0</ele><time>2026-04-12T15:45:37.998Z</time></trkpt><trkpt lat="41.90132269915714" lon="12.707408226553913"><ele>71.0</ele><time>2026-04-12T15:45:38.998Z</time></trkpt><trkpt lat="41.90118114303784" lon="12.70731378544787"><ele>71.0</ele><time>2026-04-12T15:45:39.998Z</time></trkpt><trkpt lat="41.901036723266266" lon="12.707222070000892"><ele>71.0</ele><time>2026-04-12T15:45:40.998Z</time></trkpt><trkpt lat="41.90089346868205" lon="12.707123247638252"><ele>71.0</ele><time>2026-04-12T15:45:41.998Z</time></trkpt><trkpt lat="41.900745746585066" lon="12.707024593804096"><ele>71.33333333333334</ele><time>2026-04-12T15:45:43Z</time></trkpt><trkpt lat="41.90059385596312" lon="12.706925076597715"><ele>71.66666666666667</ele><time>2026-04-12T15:45:44Z</time></trkpt><trkpt lat="41.90043954512739" lon="12.706813152868737"><ele>72.0</ele><time>2026-04-12T15:45:45Z</time></trkpt><trkpt lat="41.90028654748014" lon="12.706704182977928"><ele>72.0</ele><time>2026-04-12T15:45:46Z</time></trkpt><trkpt lat="41.90013255026079" lon="12.7065915312367"><ele>72.0</ele><time>2026-04-12T15:45:47Z</time></trkpt><trkpt lat="41.89997471426568" lon="12.706471930541792"><ele>72.0</ele><time>2026-04-12T15:45:48Z</time></trkpt><trkpt lat="41.899816774056575" lon="12.706349427671128"><ele>71.66666666666667</ele><time>2026-04-12T15:45:49Z</time></trkpt><trkpt lat="41.89965857352997" lon="12.706227371985497"><ele>71.33333333333334</ele><time>2026-04-12T15:45:50Z</time></trkpt><trkpt lat="41.89949613946372" lon="12.706100309517995"><ele>71.0</ele><time>2026-04-12T15:45:51Z</time></trkpt><trkpt lat="41.89933373745638" lon="12.70597471471724"><ele>70.66666666666667</ele><time>2026-04-12T15:45:52Z</time></trkpt><trkpt lat="41.899170136420175" lon="12.705848719179933"><ele>70.33333333333333</ele><time>2026-04-12T15:45:53Z</time></trkpt><trkpt lat="41.89900760802402" lon="12.705721684525642"><ele>70.0</ele><time>2026-04-12T15:45:54Z</time></trkpt><trkpt lat="41.898842273211145" lon="12.705598545543301"><ele>70.0</ele><time>2026-04-12T15:45:55Z</time></trkpt><trkpt lat="41.89868027289563" lon="12.705475261515488"><ele>70.0</ele><time>2026-04-12T15:45:56Z</time></trkpt><trkpt lat="41.89851711889336" lon="12.705353350479585"><ele>70.0</ele><time>2026-04-12T15:45:57Z</time></trkpt><trkpt lat="41.89835768787062" lon="12.705230477738247"><ele>68.0</ele><time>2026-04-12T15:45:58Z</time></trkpt><trkpt lat="41.8981971111009" lon="12.70511411531494"><ele>66.0</ele><time>2026-04-12T15:45:59Z</time></trkpt><trkpt lat="41.89803903615009" lon="12.70499608367887"><ele>64.0</ele><time>2026-04-12T15:46:00Z</time></trkpt><trkpt lat="41.897886965592576" lon="12.704883752646898"><ele>64.0</ele><time>2026-04-12T15:46:01Z</time></trkpt><trkpt lat="41.897740274454975" lon="12.704776060172605"><ele>64.0</ele><time>2026-04-12T15:46:02Z</time></trkpt><trkpt lat="41.897599043465405" lon="12.704669319397402"><ele>64.0</ele><time>2026-04-12T15:46:03Z</time></trkpt><trkpt lat="41.89746200262476" lon="12.704569952388473"><ele>64.33333333333333</ele><time>2026-04-12T15:46:04Z</time></trkpt><trkpt lat="41.897327514323536" lon="12.704472490262182"><ele>64.66666666666667</ele><time>2026-04-12T15:46:05Z</time></trkpt><trkpt lat="41.897196914402144" lon="12.704371053864598"><ele>65.0</ele><time>2026-04-12T15:46:06Z</time></trkpt><trkpt lat="41.897070187515425" lon="12.704273708242383"><ele>64.0</ele><time>2026-04-12T15:46:07Z</time></trkpt><trkpt lat="41.896939082319584" lon="12.70417875225645"><ele>63.0</ele><time>2026-04-12T15:46:08Z</time></trkpt><trkpt lat="41.89681275350847" lon="12.704081024097283"><ele>62.0</ele><time>2026-04-12T15:46:09Z</time></trkpt><trkpt lat="41.89668464322158" lon="12.703976755368918"><ele>61.0</ele><time>2026-04-12T15:46:09.999Z</time></trkpt><trkpt lat="41.89655796057779" lon="12.703885413659883"><ele>60.75</ele><time>2026-04-12T15:46:10.999Z</time></trkpt><trkpt lat="41.8964272976907" lon="12.703782941017366"><ele>60.5</ele><time>2026-04-12T15:46:11.999Z</time></trkpt><trkpt lat="41.89629992556929" lon="12.70367989547282"><ele>60.25</ele><time>2026-04-12T15:46:12.999Z</time></trkpt><trkpt lat="41.89616896557184" lon="12.70358673140894"><ele>60.0</ele><time>2026-04-12T15:46:13.999Z</time></trkpt><trkpt lat="41.89603716000481" lon="12.703486779693453"><ele>60.25</ele><time>2026-04-12T15:46:14.999Z</time></trkpt><trkpt lat="41.89590679426669" lon="12.70338739870881"><ele>60.5</ele><time>2026-04-12T15:46:15.999Z</time></trkpt><trkpt lat="41.89577763556031" lon="12.7032908790606"><ele>60.75</ele><time>2026-04-12T15:46:16.999Z</time></trkpt><trkpt lat="41.89565256027777" lon="12.70319618785203"><ele>61.0</ele><time>2026-04-12T15:46:17.999Z</time></trkpt><trkpt lat="41.89553326549373" lon="12.703106718294523"><ele>61.0</ele><time>2026-04-12T15:46:18.999Z</time></trkpt><trkpt lat="41.895416662051346" lon="12.703020191575437"><ele>61.0</ele><time>2026-04-12T15:46:19.999Z</time></trkpt><trkpt lat="41.895304408372844" lon="12.702939360049232"><ele>61.0</ele><time>2026-04-12T15:46:20.999Z</time></trkpt><trkpt lat="41.895194826833084" lon="12.70285929393253"><ele>61.0</ele><time>2026-04-12T15:46:21.999Z</time></trkpt><trkpt lat="41.89508746453313" lon="12.70276919207091"><ele>61.75</ele><time>2026-04-12T15:46:22.999Z</time></trkpt><trkpt lat="41.89497800804153" lon="12.70267677779625"><ele>62.5</ele><time>2026-04-12T15:46:23.999Z</time></trkpt><trkpt lat="41.89486529602645" lon="12.70258386858199"><ele>63.25</ele><time>2026-04-12T15:46:24.999Z</time></trkpt><trkpt lat="41.89475248845948" lon="12.70248881022533"><ele>64.0</ele><time>2026-04-12T15:46:25.999Z</time></trkpt><trkpt lat="41.894635860001124" lon="12.70239305634244"><ele>64.0</ele><time>2026-04-12T15:46:26.999Z</time></trkpt><trkpt lat="41.89451796773293" lon="12.702297277066112"><ele>64.0</ele><time>2026-04-12T15:46:27.999Z</time></trkpt><trkpt lat="41.89439700079851" lon="12.702199701073035"><ele>64.0</ele><time>2026-04-12T15:46:28.999Z</time></trkpt><trkpt lat="41.894275046005134" lon="12.702100819175257"><ele>64.0</ele><time>2026-04-12T15:46:29.999Z</time></trkpt><trkpt lat="41.89414883411059" lon="12.701998899005357"><ele>64.0</ele><time>2026-04-12T15:46:30.999Z</time></trkpt><trkpt lat="41.894020950090976" lon="12.701894331261487"><ele>64.0</ele><time>2026-04-12T15:46:31.999Z</time></trkpt><trkpt lat="41.893891353003255" lon="12.701789699025793"><ele>64.0</ele><time>2026-04-12T15:46:32.999Z</time></trkpt><trkpt lat="41.893754650867834" lon="12.701681164988338"><ele>64.0</ele><time>2026-04-12T15:46:33.999Z</time></trkpt><trkpt lat="41.89361261194073" lon="12.701569827026015"><ele>64.0</ele><time>2026-04-12T15:46:34.999Z</time></trkpt><trkpt lat="41.89346649513308" lon="12.701457889111538"><ele>64.0</ele><time>2026-04-12T15:46:35.999Z</time></trkpt><trkpt lat="41.89331307218398" lon="12.701349666901034"><ele>64.0</ele><time>2026-04-12T15:46:36.999Z</time></trkpt><trkpt lat="41.89315433180268" lon="12.701245471751605"><ele>64.0</ele><time>2026-04-12T15:46:37.999Z</time></trkpt><trkpt lat="41.89299140616457" lon="12.701140479474105"><ele>64.0</ele><time>2026-04-12T15:46:38.999Z</time></trkpt><trkpt lat="41.892823309618294" lon="12.701051315734516"><ele>63.666666666666664</ele><time>2026-04-12T15:46:39.999Z</time></trkpt><trkpt lat="41.89265874702465" lon="12.700968027568427"><ele>63.33333333333333</ele><time>2026-04-12T15:46:40.999Z</time></trkpt><trkpt lat="41.89249820603567" lon="12.70089541010532"><ele>63.0</ele><time>2026-04-12T15:46:41.999Z</time></trkpt><trkpt lat="41.89234631935547" lon="12.700827647308644"><ele>63.0</ele><time>2026-04-12T15:46:42.999Z</time></trkpt><trkpt lat="41.892203536369635" lon="12.70076978034175"><ele>63.0</ele><time>2026-04-12T15:46:43.999Z</time></trkpt><trkpt lat="41.89207934478813" lon="12.700710778608498"><ele>63.0</ele><time>2026-04-12T15:46:44.999Z</time></trkpt><trkpt lat="41.89197316110686" lon="12.700648538174201"><ele>63.0</ele><time>2026-04-12T15:46:45.999Z</time></trkpt><trkpt lat="41.891878835823256" lon="12.700578280665502"><ele>63.0</ele><time>2026-04-12T15:46:46.999Z</time></trkpt><trkpt lat="41.891800000752376" lon="12.700493007799318"><ele>63.0</ele><time>2026-04-12T15:46:47.999Z</time></trkpt><trkpt lat="41.89173167756223" lon="12.70037988934167"><ele>63.0</ele><time>2026-04-12T15:46:48.999Z</time></trkpt><trkpt lat="41.89166881376049" lon="12.70024272816776"><ele>63.0</ele><time>2026-04-12T15:46:49.999Z</time></trkpt><trkpt lat="41.89160824732816" lon="12.70008942158013"><ele>62.25</ele><time>2026-04-12T15:46:50.999Z</time></trkpt><trkpt lat="41.89155400186295" lon="12.699916418810643"><ele>61.5</ele><time>2026-04-12T15:46:51.999Z</time></trkpt><trkpt lat="41.89149428528601" lon="12.699735536084084"><ele>60.75</ele><time>2026-04-12T15:46:52.999Z</time></trkpt><trkpt lat="41.89143552006533" lon="12.69955072278987"><ele>60.0</ele><time>2026-04-12T15:46:53.999Z</time></trkpt><trkpt lat="41.89137985811567" lon="12.699385052451367"><ele>59.5</ele><time>2026-04-12T15:46:54.999Z</time></trkpt><trkpt lat="41.89132090491467" lon="12.699211395575182"><ele>59.0</ele><time>2026-04-12T15:46:55.999Z</time></trkpt><trkpt lat="41.89127451954431" lon="12.699039722188258"><ele>58.5</ele><time>2026-04-12T15:46:56.999Z</time></trkpt><trkpt lat="41.891217531884976" lon="12.698851030724958"><ele>58.0</ele><time>2026-04-12T15:46:57.999Z</time></trkpt><trkpt lat="41.891161044875915" lon="12.698682312740731"><ele>57.75</ele><time>2026-04-12T15:46:58.999Z</time></trkpt><trkpt lat="41.89110351713226" lon="12.69851183799109"><ele>57.5</ele><time>2026-04-12T15:46:59.999Z</time></trkpt><trkpt lat="41.891050567797336" lon="12.698353977124594"><ele>57.25</ele><time>2026-04-12T15:47:00.999Z</time></trkpt><trkpt lat="41.891000324923134" lon="12.698211130987847"><ele>57.0</ele><time>2026-04-12T15:47:01.999Z</time></trkpt><trkpt lat="41.89095920004771" lon="12.698101491265357"><ele>57.0</ele><time>2026-04-12T15:47:02.999Z</time></trkpt><trkpt lat="41.89092918945701" lon="12.698018664367185"><ele>57.0</ele><time>2026-04-12T15:47:03.999Z</time></trkpt><trkpt lat="41.890891729262826" lon="12.697942397339855"><ele>57.0</ele><time>2026-04-12T15:47:05.998Z</time></trkpt><trkpt lat="41.89085898609945" lon="12.697857719470091"><ele>57.0</ele><time>2026-04-12T15:47:07.998Z</time></trkpt><trkpt lat="41.89080291265756" lon="12.69769270266335"><ele>57.0</ele><time>2026-04-12T15:47:09.998Z</time></trkpt><trkpt lat="41.89076314233602" lon="12.697587232704596"><ele>57.0</ele><time>2026-04-12T15:47:10.998Z</time></trkpt><trkpt lat="41.89071389317484" lon="12.697476124476546"><ele>55.6</ele><time>2026-04-12T15:47:11.998Z</time></trkpt><trkpt lat="41.89066389280806" lon="12.69735620863669"><ele>54.2</ele><time>2026-04-12T15:47:12.998Z</time></trkpt><trkpt lat="41.89061562276943" lon="12.697233489652612"><ele>52.8</ele><time>2026-04-12T15:47:13.998Z</time></trkpt><trkpt lat="41.89057573678331" lon="12.69710223183237"><ele>51.4</ele><time>2026-04-12T15:47:14.998Z</time></trkpt><trkpt lat="41.890545688164615" lon="12.696958205377703"><ele>50.0</ele><time>2026-04-12T15:47:15.998Z</time></trkpt><trkpt lat="41.8905252747891" lon="12.696806587592834"><ele>49.75</ele><time>2026-04-12T15:47:16.998Z</time></trkpt><trkpt lat="41.890505805650115" lon="12.696649060194066"><ele>49.5</ele><time>2026-04-12T15:47:17.998Z</time></trkpt><trkpt lat="41.8904927170125" lon="12.696484781748532"><ele>49.25</ele><time>2026-04-12T15:47:18.998Z</time></trkpt><trkpt lat="41.89047881087245" lon="12.696310883161972"><ele>49.0</ele><time>2026-04-12T15:47:19.998Z</time></trkpt><trkpt lat="41.89046481788234" lon="12.696136989420646"><ele>49.5</ele><time>2026-04-12T15:47:20.998Z</time></trkpt><trkpt lat="41.89044010086633" lon="12.695963627329768"><ele>50.0</ele><time>2026-04-12T15:47:21.998Z</time></trkpt><trkpt lat="41.89040871739137" lon="12.695793286229891"><ele>50.5</ele><time>2026-04-12T15:47:22.998Z</time></trkpt><trkpt lat="41.89037366145733" lon="12.695627468761904"><ele>51.0</ele><time>2026-04-12T15:47:23.998Z</time></trkpt><trkpt lat="41.89033612909191" lon="12.695462861891775"><ele>51.0</ele><time>2026-04-12T15:47:24.998Z</time></trkpt><trkpt lat="41.890298250618564" lon="12.695307835938582"><ele>51.0</ele><time>2026-04-12T15:47:25.998Z</time></trkpt><trkpt lat="41.89026175296657" lon="12.695158350853081"><ele>51.0</ele><time>2026-04-12T15:47:26.998Z</time></trkpt><trkpt lat="41.89022410956409" lon="12.695024928407957"><ele>51.0</ele><time>2026-04-12T15:47:27.998Z</time></trkpt><trkpt lat="41.89018666525012" lon="12.694903730437751"><ele>51.0</ele><time>2026-04-12T15:47:28.998Z</time></trkpt><trkpt lat="41.89014919401583" lon="12.694793546870443"><ele>51.8</ele><time>2026-04-12T15:47:29.998Z</time></trkpt><trkpt lat="41.89011182444547" lon="12.694683483332525"><ele>52.599999999999994</ele><time>2026-04-12T15:47:30.998Z</time></trkpt><trkpt lat="41.890077793003364" lon="12.694570868923298"><ele>53.4</ele><time>2026-04-12T15:47:31.998Z</time></trkpt><trkpt lat="41.89004470498074" lon="12.694456265698514"><ele>54.2</ele><time>2026-04-12T15:47:32.998Z</time></trkpt><trkpt lat="41.89000350791656" lon="12.694334407366476"><ele>55.0</ele><time>2026-04-12T15:47:33.998Z</time></trkpt><trkpt lat="41.88995222108224" lon="12.694188605828165"><ele>55.5</ele><time>2026-04-12T15:47:34.998Z</time></trkpt><trkpt lat="41.88989949784492" lon="12.694014182829434"><ele>56.0</ele><time>2026-04-12T15:47:35.998Z</time></trkpt><trkpt lat="41.88985051707085" lon="12.693820205088757"><ele>56.5</ele><time>2026-04-12T15:47:36.998Z</time></trkpt><trkpt lat="41.88979584961651" lon="12.693627672477174"><ele>57.0</ele><time>2026-04-12T15:47:37.998Z</time></trkpt><trkpt lat="41.88974763079792" lon="12.693460681901659"><ele>57.0</ele><time>2026-04-12T15:47:38.998Z</time></trkpt><trkpt lat="41.88970858496951" lon="12.693299405642206"><ele>57.0</ele><time>2026-04-12T15:47:39.998Z</time></trkpt><trkpt lat="41.889680913997175" lon="12.693129394969924"><ele>57.0</ele><time>2026-04-12T15:47:40.998Z</time></trkpt><trkpt lat="41.889662049653374" lon="12.692947766570452"><ele>57.0</ele><time>2026-04-12T15:47:41.998Z</time></trkpt><trkpt lat="41.88964570052282" lon="12.692754609832221"><ele>57.5</ele><time>2026-04-12T15:47:42.998Z</time></trkpt><trkpt lat="41.88962503727782" lon="12.692559742285338"><ele>58.0</ele><time>2026-04-12T15:47:43.998Z</time></trkpt><trkpt lat="41.88960873414388" lon="12.69237549161035"><ele>58.5</ele><time>2026-04-12T15:47:44.998Z</time></trkpt><trkpt lat="41.88959140360532" lon="12.69220858576124"><ele>59.0</ele><time>2026-04-12T15:47:45.998Z</time></trkpt><trkpt lat="41.88957765124435" lon="12.692061636848766"><ele>59.00000000000001</ele><time>2026-04-12T15:47:46.998Z</time></trkpt><trkpt lat="41.88956860196262" lon="12.691934247313025"><ele>59.0</ele><time>2026-04-12T15:47:47.998Z</time></trkpt><trkpt lat="41.889562279319506" lon="12.691824895426214"><ele>59.0</ele><time>2026-04-12T15:47:49Z</time></trkpt><trkpt lat="41.88955826434348" lon="12.691739696906238"><ele>59.0</ele><time>2026-04-12T15:47:50Z</time></trkpt><trkpt lat="41.88955050459853" lon="12.691624219269587"><ele>59.00000000000001</ele><time>2026-04-12T15:47:52Z</time></trkpt><trkpt lat="41.889540072080976" lon="12.691514350869715"><ele>59.0</ele><time>2026-04-12T15:47:55Z</time></trkpt><trkpt lat="41.88952064273763" lon="12.691411943880587"><ele>59.6</ele><time>2026-04-12T15:48:03Z</time></trkpt><trkpt lat="41.88952631998513" lon="12.691266962119945"><ele>60.2</ele><time>2026-04-12T15:48:05Z</time></trkpt><trkpt lat="41.88953921786726" lon="12.691165091055874"><ele>60.800000000000004</ele><time>2026-04-12T15:48:06Z</time></trkpt><trkpt lat="41.889537803383966" lon="12.691065807567963"><ele>61.400000000000006</ele><time>2026-04-12T15:48:07Z</time></trkpt><trkpt lat="41.889582746596695" lon="12.690954918847586"><ele>62.0</ele><time>2026-04-12T15:48:08Z</time></trkpt><trkpt lat="41.8896185334194" lon="12.690827855682917"><ele>63.0</ele><time>2026-04-12T15:48:09Z</time></trkpt><trkpt lat="41.88965863431939" lon="12.69068799554639"><ele>64.0</ele><time>2026-04-12T15:48:10Z</time></trkpt><trkpt lat="41.889697500902685" lon="12.690547047075077"><ele>65.0</ele><time>2026-04-12T15:48:11Z</time></trkpt><trkpt lat="41.889737774118586" lon="12.690398206321298"><ele>66.0</ele><time>2026-04-12T15:48:12Z</time></trkpt><trkpt lat="41.889779345716114" lon="12.690245552428685"><ele>66.5</ele><time>2026-04-12T15:48:13Z</time></trkpt><trkpt lat="41.889822255235" lon="12.690087673521283"><ele>67.0</ele><time>2026-04-12T15:48:14Z</time></trkpt><trkpt lat="41.88986428380377" lon="12.689921105877382"><ele>67.5</ele><time>2026-04-12T15:48:15Z</time></trkpt><trkpt lat="41.889901591615214" lon="12.689745806765796"><ele>68.0</ele><time>2026-04-12T15:48:16Z</time></trkpt><trkpt lat="41.889934658107315" lon="12.689567124849837"><ele>68.0</ele><time>2026-04-12T15:48:17Z</time></trkpt><trkpt lat="41.88996635655477" lon="12.689380512800343"><ele>68.0</ele><time>2026-04-12T15:48:17.999Z</time></trkpt><trkpt lat="41.889996291354834" lon="12.689189117595165"><ele>68.0</ele><time>2026-04-12T15:48:18.999Z</time></trkpt><trkpt lat="41.89002818730925" lon="12.688992759507164"><ele>68.0</ele><time>2026-04-12T15:48:19.999Z</time></trkpt><trkpt lat="41.89005858956272" lon="12.688791986478435"><ele>68.0</ele><time>2026-04-12T15:48:20.999Z</time></trkpt><trkpt lat="41.8900876633983" lon="12.68858612889556"><ele>68.0</ele><time>2026-04-12T15:48:21.999Z</time></trkpt><trkpt lat="41.89011233311278" lon="12.688374328945079"><ele>68.0</ele><time>2026-04-12T15:48:22.999Z</time></trkpt><trkpt lat="41.89013595612934" lon="12.688159880572904"><ele>68.0</ele><time>2026-04-12T15:48:23.999Z</time></trkpt><trkpt lat="41.890163578720646" lon="12.687943220168927"><ele>68.0</ele><time>2026-04-12T15:48:24.999Z</time></trkpt><trkpt lat="41.890194688199685" lon="12.687723642908075"><ele>68.0</ele><time>2026-04-12T15:48:25.999Z</time></trkpt><trkpt lat="41.89022424456552" lon="12.687502278067551"><ele>66.33333333333334</ele><time>2026-04-12T15:48:26.999Z</time></trkpt><trkpt lat="41.890249409367314" lon="12.68727739637645"><ele>64.66666666666667</ele><time>2026-04-12T15:48:27.999Z</time></trkpt><trkpt lat="41.89026991421685" lon="12.687050693821467"><ele>63.0</ele><time>2026-04-12T15:48:28.999Z</time></trkpt><trkpt lat="41.89028697427817" lon="12.686823664403608"><ele>62.33333333333333</ele><time>2026-04-12T15:48:29.999Z</time></trkpt><trkpt lat="41.89029887714567" lon="12.686594747388618"><ele>61.666666666666664</ele><time>2026-04-12T15:48:30.999Z</time></trkpt><trkpt lat="41.89030897509082" lon="12.686365201851183"><ele>61.0</ele><time>2026-04-12T15:48:31.999Z</time></trkpt><trkpt lat="41.890316329686904" lon="12.686134616285058"><ele>61.0</ele><time>2026-04-12T15:48:32.999Z</time></trkpt><trkpt lat="41.89032122562719" lon="12.685904975363442"><ele>61.0</ele><time>2026-04-12T15:48:33.999Z</time></trkpt><trkpt lat="41.89032349012196" lon="12.685675005338009"><ele>61.0</ele><time>2026-04-12T15:48:34.999Z</time></trkpt><trkpt lat="41.89032470809437" lon="12.685445338677818"><ele>62.33333333333333</ele><time>2026-04-12T15:48:35.999Z</time></trkpt><trkpt lat="41.89032607596673" lon="12.68521667745634"><ele>63.66666666666667</ele><time>2026-04-12T15:48:36.999Z</time></trkpt><trkpt lat="41.89032997045765" lon="12.684991604225369"><ele>65.0</ele><time>2026-04-12T15:48:37.999Z</time></trkpt><trkpt lat="41.89033328245853" lon="12.684766023421576"><ele>65.0</ele><time>2026-04-12T15:48:38.999Z</time></trkpt><trkpt lat="41.890333575154315" lon="12.684542691242548"><ele>65.0</ele><time>2026-04-12T15:48:39.999Z</time></trkpt><trkpt lat="41.89033842203327" lon="12.684323645301053"><ele>65.0</ele><time>2026-04-12T15:48:40.999Z</time></trkpt><trkpt lat="41.890344987715594" lon="12.684103262540763"><ele>67.66666666666667</ele><time>2026-04-12T15:48:41.999Z</time></trkpt><trkpt lat="41.89035025510237" lon="12.683884622784422"><ele>70.33333333333333</ele><time>2026-04-12T15:48:42.999Z</time></trkpt><trkpt lat="41.89035056869646" lon="12.683665204547395"><ele>73.0</ele><time>2026-04-12T15:48:43.999Z</time></trkpt><trkpt lat="41.89035622364093" lon="12.683446080031795"><ele>73.0</ele><time>2026-04-12T15:48:44.999Z</time></trkpt><trkpt lat="41.890366412312055" lon="12.683226553399372"><ele>73.0</ele><time>2026-04-12T15:48:45.999Z</time></trkpt><trkpt lat="41.89038388967032" lon="12.683018015168372"><ele>73.0</ele><time>2026-04-12T15:48:46.999Z</time></trkpt><trkpt lat="41.890400950683585" lon="12.682815980675558"><ele>73.0</ele><time>2026-04-12T15:48:47.999Z</time></trkpt><trkpt lat="41.89041965392178" lon="12.682619184508809"><ele>73.0</ele><time>2026-04-12T15:48:48.999Z</time></trkpt><trkpt lat="41.89043620567423" lon="12.682426261997845"><ele>73.0</ele><time>2026-04-12T15:48:49.999Z</time></trkpt><trkpt lat="41.89045281210809" lon="12.68224568681836"><ele>73.0</ele><time>2026-04-12T15:48:50.999Z</time></trkpt><trkpt lat="41.890470214577356" lon="12.682076340565956"><ele>73.4</ele><time>2026-04-12T15:48:51.999Z</time></trkpt><trkpt lat="41.89048697973475" lon="12.681917981545903"><ele>73.8</ele><time>2026-04-12T15:48:52.999Z</time></trkpt><trkpt lat="41.89050055112912" lon="12.681768733988534"><ele>74.2</ele><time>2026-04-12T15:48:53.999Z</time></trkpt><trkpt lat="41.890512523840634" lon="12.681630368186843"><ele>74.6</ele><time>2026-04-12T15:48:54.999Z</time></trkpt><trkpt lat="41.89052119675598" lon="12.681503441345118"><ele>75.0</ele><time>2026-04-12T15:48:55.999Z</time></trkpt><trkpt lat="41.8905306610011" lon="12.68139244144877"><ele>75.0</ele><time>2026-04-12T15:48:56.999Z</time></trkpt><trkpt lat="41.89054622901748" lon="12.681300143741758"><ele>75.0</ele><time>2026-04-12T15:48:57.999Z</time></trkpt><trkpt lat="41.89055948997493" lon="12.681142928641101"><ele>75.0</ele><time>2026-04-12T15:48:59.999Z</time></trkpt><trkpt lat="41.890560764250935" lon="12.681003596000895"><ele>75.0</ele><time>2026-04-12T15:49:01.999Z</time></trkpt><trkpt lat="41.89055785191395" lon="12.680876437133918"><ele>75.0</ele><time>2026-04-12T15:49:03.999Z</time></trkpt><trkpt lat="41.8905608953829" lon="12.680753139011602"><ele>75.0</ele><time>2026-04-12T15:49:05.999Z</time></trkpt><trkpt lat="41.89056381543569" lon="12.68066056839618"><ele>75.0</ele><time>2026-04-12T15:49:07.999Z</time></trkpt><trkpt lat="41.89057214875717" lon="12.680534752830424"><ele>75.0</ele><time>2026-04-12T15:49:10.999Z</time></trkpt><trkpt lat="41.89057131267835" lon="12.680403728583098"><ele>75.0</ele><time>2026-04-12T15:49:12.998Z</time></trkpt><trkpt lat="41.890565601857176" lon="12.680222985145651"><ele>75.0</ele><time>2026-04-12T15:49:14.998Z</time></trkpt><trkpt lat="41.890564575094245" lon="12.680106900165494"><ele>75.0</ele><time>2026-04-12T15:49:15.998Z</time></trkpt><trkpt lat="41.890564329226216" lon="12.679981628755279"><ele>75.0</ele><time>2026-04-12T15:49:16.998Z</time></trkpt><trkpt lat="41.8905650239441" lon="12.67985250548033"><ele>75.0</ele><time>2026-04-12T15:49:17.998Z</time></trkpt><trkpt lat="41.89056636358981" lon="12.67971205640442"><ele>75.0</ele><time>2026-04-12T15:49:18.998Z</time></trkpt><trkpt lat="41.89057327100283" lon="12.679564924808433"><ele>75.0</ele><time>2026-04-12T15:49:19.998Z</time></trkpt><trkpt lat="41.89058530513366" lon="12.679408723000194"><ele>74.5</ele><time>2026-04-12T15:49:20.998Z</time></trkpt><trkpt lat="41.890602660786804" lon="12.679248556830524"><ele>74.0</ele><time>2026-04-12T15:49:21.998Z</time></trkpt><trkpt lat="41.890626259142714" lon="12.679080736738841"><ele>73.5</ele><time>2026-04-12T15:49:22.998Z</time></trkpt><trkpt lat="41.8906548341286" lon="12.678909901514519"><ele>73.0</ele><time>2026-04-12T15:49:23.998Z</time></trkpt><trkpt lat="41.89068323680351" lon="12.67873275581569"><ele>73.25</ele><time>2026-04-12T15:49:24.998Z</time></trkpt><trkpt lat="41.890708683601964" lon="12.678551606401962"><ele>73.5</ele><time>2026-04-12T15:49:25.998Z</time></trkpt><trkpt lat="41.890728599138214" lon="12.678379440554023"><ele>73.75</ele><time>2026-04-12T15:49:26.998Z</time></trkpt><trkpt lat="41.890739113599956" lon="12.678214540981154"><ele>74.0</ele><time>2026-04-12T15:49:27.998Z</time></trkpt><trkpt lat="41.890748611322984" lon="12.678055795837393"><ele>74.0</ele><time>2026-04-12T15:49:28.998Z</time></trkpt><trkpt lat="41.89075696190761" lon="12.67790513376199"><ele>74.0</ele><time>2026-04-12T15:49:29.998Z</time></trkpt><trkpt lat="41.890763655834746" lon="12.677761272084334"><ele>74.0</ele><time>2026-04-12T15:49:30.998Z</time></trkpt><trkpt lat="41.8907680187376" lon="12.677623857610179"><ele>74.0</ele><time>2026-04-12T15:49:31.998Z</time></trkpt><trkpt lat="41.890769651005314" lon="12.67748460687405"><ele>74.0</ele><time>2026-04-12T15:49:32.998Z</time></trkpt><trkpt lat="41.890770632875494" lon="12.677342402243497"><ele>74.0</ele><time>2026-04-12T15:49:33.998Z</time></trkpt><trkpt lat="41.89077144378787" lon="12.6772027305293"><ele>74.0</ele><time>2026-04-12T15:49:34.998Z</time></trkpt><trkpt lat="41.89077020352949" lon="12.67706823362279"><ele>74.0</ele><time>2026-04-12T15:49:35.998Z</time></trkpt><trkpt lat="41.8907687273907" lon="12.676940868270336"><ele>74.0</ele><time>2026-04-12T15:49:36.998Z</time></trkpt><trkpt lat="41.89076669812994" lon="12.676820936375492"><ele>74.0</ele><time>2026-04-12T15:49:37.998Z</time></trkpt><trkpt lat="41.89076496589205" lon="12.676707547698538"><ele>74.14285714285714</ele><time>2026-04-12T15:49:38.998Z</time></trkpt><trkpt lat="41.89076411441242" lon="12.676601746794"><ele>74.28571428571428</ele><time>2026-04-12T15:49:39.998Z</time></trkpt><trkpt lat="41.89076286371273" lon="12.67650003786342"><ele>74.42857142857142</ele><time>2026-04-12T15:49:40.998Z</time></trkpt><trkpt lat="41.890764050920424" lon="12.676402633093934"><ele>74.57142857142857</ele><time>2026-04-12T15:49:41.998Z</time></trkpt><trkpt lat="41.89076628198881" lon="12.676304712251277"><ele>74.71428571428571</ele><time>2026-04-12T15:49:42.998Z</time></trkpt><trkpt lat="41.890768441148296" lon="12.676215865098062"><ele>74.85714285714285</ele><time>2026-04-12T15:49:43.998Z</time></trkpt><trkpt lat="41.89077041276506" lon="12.67612806891793"><ele>75.0</ele><time>2026-04-12T15:49:44.998Z</time></trkpt><trkpt lat="41.890769219490366" lon="12.676038888797915"><ele>75.16666666666667</ele><time>2026-04-12T15:49:45.998Z</time></trkpt><trkpt lat="41.890768860616376" lon="12.67593847536253"><ele>75.33333333333333</ele><time>2026-04-12T15:49:46.998Z</time></trkpt><trkpt lat="41.890770540764215" lon="12.675836850806775"><ele>75.5</ele><time>2026-04-12T15:49:47.998Z</time></trkpt><trkpt lat="41.890772697452356" lon="12.675730044157088"><ele>75.66666666666666</ele><time>2026-04-12T15:49:48.998Z</time></trkpt><trkpt lat="41.89077565844342" lon="12.675620289298372"><ele>75.83333333333333</ele><time>2026-04-12T15:49:49.998Z</time></trkpt><trkpt lat="41.890779653984936" lon="12.675503290929967"><ele>76.0</ele><time>2026-04-12T15:49:50.998Z</time></trkpt><trkpt lat="41.89078248387357" lon="12.675380265858571"><ele>76.0</ele><time>2026-04-12T15:49:51.998Z</time></trkpt><trkpt lat="41.89078515983998" lon="12.675253422520376"><ele>76.0</ele><time>2026-04-12T15:49:52.998Z</time></trkpt><trkpt lat="41.89078789076048" lon="12.675118709233118"><ele>76.0</ele><time>2026-04-12T15:49:53.998Z</time></trkpt><trkpt lat="41.89078881114695" lon="12.67497574246523"><ele>76.0</ele><time>2026-04-12T15:49:55Z</time></trkpt><trkpt lat="41.890791291756486" lon="12.674826727747291"><ele>76.0</ele><time>2026-04-12T15:49:56Z</time></trkpt><trkpt lat="41.89078664384969" lon="12.674672869818645"><ele>76.0</ele><time>2026-04-12T15:49:57Z</time></trkpt><trkpt lat="41.89077514526654" lon="12.674512933220626"><ele>76.0</ele><time>2026-04-12T15:49:58Z</time></trkpt><trkpt lat="41.89076246786113" lon="12.674349633963324"><ele>76.0</ele><time>2026-04-12T15:49:59Z</time></trkpt><trkpt lat="41.8907480288247" lon="12.674186583734373"><ele>76.0</ele><time>2026-04-12T15:50:00Z</time></trkpt><trkpt lat="41.890733764665995" lon="12.674028369273818"><ele>75.6</ele><time>2026-04-12T15:50:01Z</time></trkpt><trkpt lat="41.89072001650477" lon="12.673877455479312"><ele>75.19999999999999</ele><time>2026-04-12T15:50:02Z</time></trkpt><trkpt lat="41.89071426117651" lon="12.67372927695983"><ele>74.80000000000001</ele><time>2026-04-12T15:50:03Z</time></trkpt><trkpt lat="41.89071459709421" lon="12.673582677433476"><ele>74.4</ele><time>2026-04-12T15:50:04Z</time></trkpt><trkpt lat="41.890716215738856" lon="12.673440406814624"><ele>74.0</ele><time>2026-04-12T15:50:05Z</time></trkpt><trkpt lat="41.89072316739766" lon="12.67330101774754"><ele>73.2</ele><time>2026-04-12T15:50:06Z</time></trkpt><trkpt lat="41.89073420394963" lon="12.673165885237717"><ele>72.4</ele><time>2026-04-12T15:50:07Z</time></trkpt><trkpt lat="41.890746167596056" lon="12.673025020676654"><ele>71.6</ele><time>2026-04-12T15:50:08Z</time></trkpt><trkpt lat="41.89075940275599" lon="12.672878755331707"><ele>70.8</ele><time>2026-04-12T15:50:09Z</time></trkpt><trkpt lat="41.890775591200146" lon="12.672723077987007"><ele>70.0</ele><time>2026-04-12T15:50:10Z</time></trkpt><trkpt lat="41.89079198044349" lon="12.672562891871515"><ele>69.25</ele><time>2026-04-12T15:50:11Z</time></trkpt><trkpt lat="41.89080928235692" lon="12.672395144376226"><ele>68.5</ele><time>2026-04-12T15:50:12Z</time></trkpt><trkpt lat="41.89082781145879" lon="12.672222019881726"><ele>67.75</ele><time>2026-04-12T15:50:13Z</time></trkpt><trkpt lat="41.8908433114433" lon="12.672049357202521"><ele>67.0</ele><time>2026-04-12T15:50:14Z</time></trkpt><trkpt lat="41.89085864958569" lon="12.671875623244578"><ele>66.5</ele><time>2026-04-12T15:50:15Z</time></trkpt><trkpt lat="41.89087466362462" lon="12.671702331924164"><ele>66.0</ele><time>2026-04-12T15:50:16Z</time></trkpt><trkpt lat="41.89088954546885" lon="12.671535846196244"><ele>65.5</ele><time>2026-04-12T15:50:17Z</time></trkpt><trkpt lat="41.89090220182046" lon="12.671374732817963"><ele>65.0</ele><time>2026-04-12T15:50:18Z</time></trkpt><trkpt lat="41.890913293475926" lon="12.67122157983809"><ele>65.25</ele><time>2026-04-12T15:50:19Z</time></trkpt><trkpt lat="41.89092309480935" lon="12.671066833514315"><ele>65.5</ele><time>2026-04-12T15:50:20Z</time></trkpt><trkpt lat="41.890931115991954" lon="12.670910673916493"><ele>65.75</ele><time>2026-04-12T15:50:21Z</time></trkpt><trkpt lat="41.89093846776965" lon="12.67075122098467"><ele>66.0</ele><time>2026-04-12T15:50:22Z</time></trkpt><trkpt lat="41.890943560410314" lon="12.670590479603613"><ele>66.0</ele><time>2026-04-12T15:50:23Z</time></trkpt><trkpt lat="41.89094430253642" lon="12.67043009227812"><ele>66.0</ele><time>2026-04-12T15:50:23.999Z</time></trkpt><trkpt lat="41.89094134122254" lon="12.670278901593138"><ele>66.0</ele><time>2026-04-12T15:50:24.999Z</time></trkpt><trkpt lat="41.89093494497745" lon="12.670137519221857"><ele>66.0</ele><time>2026-04-12T15:50:25.999Z</time></trkpt><trkpt lat="41.89092974547657" lon="12.67000497876248"><ele>66.0</ele><time>2026-04-12T15:50:26.999Z</time></trkpt><trkpt lat="41.890923429279496" lon="12.669881091220883"><ele>66.33333333333333</ele><time>2026-04-12T15:50:27.999Z</time></trkpt><trkpt lat="41.89091664234126" lon="12.669765243926584"><ele>66.66666666666667</ele><time>2026-04-12T15:50:28.999Z</time></trkpt><trkpt lat="41.89091236000517" lon="12.669654146152526"><ele>67.0</ele><time>2026-04-12T15:50:29.999Z</time></trkpt><trkpt lat="41.89090675007077" lon="12.669540614687657"><ele>67.33333333333334</ele><time>2026-04-12T15:50:30.999Z</time></trkpt><trkpt lat="41.890900279161116" lon="12.669422667994438"><ele>67.66666666666667</ele><time>2026-04-12T15:50:31.999Z</time></trkpt><trkpt lat="41.89089304776961" lon="12.669300625409543"><ele>68.0</ele><time>2026-04-12T15:50:32.999Z</time></trkpt><trkpt lat="41.890885421910504" lon="12.66918051185262"><ele>68.16666666666667</ele><time>2026-04-12T15:50:33.999Z</time></trkpt><trkpt lat="41.89088009395892" lon="12.669068838610281"><ele>68.33333333333334</ele><time>2026-04-12T15:50:34.999Z</time></trkpt><trkpt lat="41.89087664906745" lon="12.668962842213494"><ele>68.5</ele><time>2026-04-12T15:50:35.999Z</time></trkpt><trkpt lat="41.89087254178823" lon="12.668858337556514"><ele>68.66666666666667</ele><time>2026-04-12T15:50:36.999Z</time></trkpt><trkpt lat="41.89086659417583" lon="12.668753934996616"><ele>68.83333333333333</ele><time>2026-04-12T15:50:37.999Z</time></trkpt><trkpt lat="41.890858947931804" lon="12.668644624723646"><ele>69.0</ele><time>2026-04-12T15:50:38.999Z</time></trkpt><trkpt lat="41.89085146065735" lon="12.668528141300031"><ele>69.0</ele><time>2026-04-12T15:50:39.999Z</time></trkpt><trkpt lat="41.89084306219521" lon="12.668408485347632"><ele>69.0</ele><time>2026-04-12T15:50:40.999Z</time></trkpt><trkpt lat="41.89083876612466" lon="12.668287688394683"><ele>69.0</ele><time>2026-04-12T15:50:41.999Z</time></trkpt><trkpt lat="41.8908378769075" lon="12.668170191552052"><ele>69.0</ele><time>2026-04-12T15:50:42.999Z</time></trkpt><trkpt lat="41.89083796607463" lon="12.66806015070876"><ele>69.0</ele><time>2026-04-12T15:50:43.999Z</time></trkpt><trkpt lat="41.89083541485332" lon="12.66795311586509"><ele>69.0</ele><time>2026-04-12T15:50:44.999Z</time></trkpt><trkpt lat="41.89083968148553" lon="12.667848648910958"><ele>68.66666666666667</ele><time>2026-04-12T15:50:45.999Z</time></trkpt><trkpt lat="41.890843491756776" lon="12.667749786070626"><ele>68.33333333333333</ele><time>2026-04-12T15:50:46.999Z</time></trkpt><trkpt lat="41.890848361186805" lon="12.667664818808857"><ele>68.0</ele><time>2026-04-12T15:50:47.999Z</time></trkpt><trkpt lat="41.89085507360251" lon="12.667524851047341"><ele>67.66666666666666</ele><time>2026-04-12T15:50:49.999Z</time></trkpt><trkpt lat="41.890860464870926" lon="12.667383880408549"><ele>67.33333333333333</ele><time>2026-04-12T15:50:51.999Z</time></trkpt><trkpt lat="41.890869700688874" lon="12.667267127838235"><ele>67.0</ele><time>2026-04-12T15:50:53.999Z</time></trkpt><trkpt lat="41.890876898964414" lon="12.667176477351763"><ele>67.0</ele><time>2026-04-12T15:50:55.999Z</time></trkpt><trkpt lat="41.89088029329735" lon="12.667090920046284"><ele>67.0</ele><time>2026-04-12T15:50:57.999Z</time></trkpt><trkpt lat="41.89089411189046" lon="12.666979193838893"><ele>67.0</ele><time>2026-04-12T15:50:59.999Z</time></trkpt><trkpt lat="41.890912262511065" lon="12.666807192297366"><ele>67.0</ele><time>2026-04-12T15:51:01.999Z</time></trkpt><trkpt lat="41.89091958701038" lon="12.666693955449746"><ele>67.0</ele><time>2026-04-12T15:51:02.999Z</time></trkpt><trkpt lat="41.89093061190923" lon="12.666564538090329"><ele>66.25</ele><time>2026-04-12T15:51:03.999Z</time></trkpt><trkpt lat="41.890939037256125" lon="12.666419263091363"><ele>65.5</ele><time>2026-04-12T15:51:04.999Z</time></trkpt><trkpt lat="41.89095087287563" lon="12.666274670248926"><ele>64.75</ele><time>2026-04-12T15:51:05.999Z</time></trkpt><trkpt lat="41.89096387975353" lon="12.666119557919917"><ele>64.0</ele><time>2026-04-12T15:51:06.999Z</time></trkpt><trkpt lat="41.89097229162026" lon="12.66595296252432"><ele>64.0</ele><time>2026-04-12T15:51:07.999Z</time></trkpt><trkpt lat="41.890982722067385" lon="12.665776673342293"><ele>64.0</ele><time>2026-04-12T15:51:08.999Z</time></trkpt><trkpt lat="41.890991824052094" lon="12.665590141256917"><ele>64.0</ele><time>2026-04-12T15:51:09.999Z</time></trkpt><trkpt lat="41.89100234576981" lon="12.665395783220012"><ele>64.0</ele><time>2026-04-12T15:51:10.999Z</time></trkpt><trkpt lat="41.891014084069646" lon="12.665198186463705"><ele>64.0</ele><time>2026-04-12T15:51:11.999Z</time></trkpt><trkpt lat="41.891022495866046" lon="12.664998319413009"><ele>64.0</ele><time>2026-04-12T15:51:12.999Z</time></trkpt><trkpt lat="41.891033233192054" lon="12.66479604185979"><ele>64.0</ele><time>2026-04-12T15:51:13.999Z</time></trkpt><trkpt lat="41.89104251995522" lon="12.66459138595523"><ele>63.666666666666664</ele><time>2026-04-12T15:51:14.999Z</time></trkpt><trkpt lat="41.89104990179997" lon="12.66438348356394"><ele>63.33333333333333</ele><time>2026-04-12T15:51:15.999Z</time></trkpt><trkpt lat="41.89105761300306" lon="12.664171444369355"><ele>63.0</ele><time>2026-04-12T15:51:16.999Z</time></trkpt><trkpt lat="41.89106111552713" lon="12.663958199892347"><ele>63.0</ele><time>2026-04-12T15:51:17.999Z</time></trkpt><trkpt lat="41.89105684663549" lon="12.663741410821224"><ele>63.0</ele><time>2026-04-12T15:51:18.999Z</time></trkpt><trkpt lat="41.89103509924737" lon="12.663524393170384"><ele>63.0</ele><time>2026-04-12T15:51:19.998Z</time></trkpt><trkpt lat="41.89099761426059" lon="12.6633119682479"><ele>63.66666666666667</ele><time>2026-04-12T15:51:20.998Z</time></trkpt><trkpt lat="41.890951176165274" lon="12.66310877117094"><ele>64.33333333333334</ele><time>2026-04-12T15:51:21.998Z</time></trkpt><trkpt lat="41.89090455211889" lon="12.662912713645872"><ele>65.0</ele><time>2026-04-12T15:51:22.998Z</time></trkpt><trkpt lat="41.89086022339378" lon="12.662721999278167"><ele>65.75</ele><time>2026-04-12T15:51:23.998Z</time></trkpt><trkpt lat="41.890817173384626" lon="12.662536752834782"><ele>66.5</ele><time>2026-04-12T15:51:24.998Z</time></trkpt><trkpt lat="41.890778999389354" lon="12.662351828773122"><ele>67.25</ele><time>2026-04-12T15:51:25.998Z</time></trkpt><trkpt lat="41.89074296527223" lon="12.662165089131046"><ele>68.0</ele><time>2026-04-12T15:51:26.998Z</time></trkpt><trkpt lat="41.89071682407138" lon="12.661979828287452"><ele>67.25</ele><time>2026-04-12T15:51:27.998Z</time></trkpt><trkpt lat="41.890702817899395" lon="12.66179367711557"><ele>66.5</ele><time>2026-04-12T15:51:28.998Z</time></trkpt><trkpt lat="41.89070101796838" lon="12.66161087172992"><ele>65.75</ele><time>2026-04-12T15:51:29.998Z</time></trkpt><trkpt lat="41.89070512618901" lon="12.661432734924626"><ele>65.0</ele><time>2026-04-12T15:51:30.998Z</time></trkpt><trkpt lat="41.89071873798404" lon="12.661258991306925"><ele>64.0</ele><time>2026-04-12T15:51:31.998Z</time></trkpt><trkpt lat="41.89075199088788" lon="12.661085233819477"><ele>63.0</ele><time>2026-04-12T15:51:32.998Z</time></trkpt><trkpt lat="41.890795977891116" lon="12.660920997716774"><ele>62.0</ele><time>2026-04-12T15:51:33.998Z</time></trkpt><trkpt lat="41.890854383975764" lon="12.66076821421226"><ele>61.0</ele><time>2026-04-12T15:51:34.998Z</time></trkpt><trkpt lat="41.8909242533557" lon="12.660622178606243"><ele>61.25</ele><time>2026-04-12T15:51:35.998Z</time></trkpt><trkpt lat="41.89100103430097" lon="12.660477406868754"><ele>61.5</ele><time>2026-04-12T15:51:36.998Z</time></trkpt><trkpt lat="41.89108409053637" lon="12.660333354324674"><ele>61.75</ele><time>2026-04-12T15:51:37.998Z</time></trkpt><trkpt lat="41.89117660511126" lon="12.660195025232948"><ele>62.0</ele><time>2026-04-12T15:51:38.998Z</time></trkpt><trkpt lat="41.891268293318674" lon="12.660057168902744"><ele>61.5</ele><time>2026-04-12T15:51:39.998Z</time></trkpt><trkpt lat="41.89135634459527" lon="12.659920130235804"><ele>61.0</ele><time>2026-04-12T15:51:40.998Z</time></trkpt><trkpt lat="41.89143439967365" lon="12.659783561523541"><ele>60.5</ele><time>2026-04-12T15:51:41.998Z</time></trkpt><trkpt lat="41.89150004997518" lon="12.65964150632054"><ele>60.0</ele><time>2026-04-12T15:51:42.998Z</time></trkpt><trkpt lat="41.89154687214833" lon="12.659491758204698"><ele>58.25</ele><time>2026-04-12T15:51:43.998Z</time></trkpt><trkpt lat="41.89158019808266" lon="12.6593278089169"><ele>56.5</ele><time>2026-04-12T15:51:44.998Z</time></trkpt><trkpt lat="41.89159467912441" lon="12.659144332225301"><ele>54.75</ele><time>2026-04-12T15:51:45.998Z</time></trkpt><trkpt lat="41.891591910994876" lon="12.658946949688668"><ele>53.0</ele><time>2026-04-12T15:51:46.998Z</time></trkpt><trkpt lat="41.8915929732821" lon="12.658737706728267"><ele>52.333333333333336</ele><time>2026-04-12T15:51:47.998Z</time></trkpt><trkpt lat="41.89159130536526" lon="12.658523718182625"><ele>51.66666666666667</ele><time>2026-04-12T15:51:48.998Z</time></trkpt><trkpt lat="41.891600446855776" lon="12.658313893648833"><ele>51.0</ele><time>2026-04-12T15:51:49.998Z</time></trkpt><trkpt lat="41.8916138976814" lon="12.65811759928466"><ele>51.0</ele><time>2026-04-12T15:51:50.998Z</time></trkpt><trkpt lat="41.89162272740754" lon="12.65792747798839"><ele>51.0</ele><time>2026-04-12T15:51:51.998Z</time></trkpt><trkpt lat="41.89163712738533" lon="12.657726727107278"><ele>51.0</ele><time>2026-04-12T15:51:52.998Z</time></trkpt><trkpt lat="41.891664948401655" lon="12.65751843435774"><ele>51.0</ele><time>2026-04-12T15:51:53.998Z</time></trkpt><trkpt lat="41.891708943640786" lon="12.657308888089544"><ele>51.33333333333333</ele><time>2026-04-12T15:51:54.998Z</time></trkpt><trkpt lat="41.891757172353834" lon="12.657097742419365"><ele>51.666666666666664</ele><time>2026-04-12T15:51:55.998Z</time></trkpt><trkpt lat="41.891799795583054" lon="12.656885765405905"><ele>52.0</ele><time>2026-04-12T15:51:56.998Z</time></trkpt><trkpt lat="41.89184313146486" lon="12.656672794756403"><ele>52.0</ele><time>2026-04-12T15:51:57.998Z</time></trkpt><trkpt lat="41.891884069468226" lon="12.656457771649928"><ele>52.0</ele><time>2026-04-12T15:51:58.998Z</time></trkpt><trkpt lat="41.89192451749156" lon="12.656241518096417"><ele>52.0</ele><time>2026-04-12T15:51:59.998Z</time></trkpt><trkpt lat="41.891957603613946" lon="12.656025614548367"><ele>54.0</ele><time>2026-04-12T15:52:01Z</time></trkpt><trkpt lat="41.89198797478332" lon="12.655812995768205"><ele>56.0</ele><time>2026-04-12T15:52:02Z</time></trkpt><trkpt lat="41.892010432632645" lon="12.655596258410197"><ele>58.0</ele><time>2026-04-12T15:52:03Z</time></trkpt><trkpt lat="41.892012964086376" lon="12.655374437926234"><ele>59.33333333333333</ele><time>2026-04-12T15:52:04Z</time></trkpt><trkpt lat="41.89199954101522" lon="12.655150256817226"><ele>60.66666666666667</ele><time>2026-04-12T15:52:05Z</time></trkpt><trkpt lat="41.89197835882966" lon="12.654925242098145"><ele>62.0</ele><time>2026-04-12T15:52:06Z</time></trkpt><trkpt lat="41.89195360085388" lon="12.654698351460105"><ele>62.0</ele><time>2026-04-12T15:52:07Z</time></trkpt><trkpt lat="41.89193005914893" lon="12.654468977745273"><ele>62.0</ele><time>2026-04-12T15:52:08Z</time></trkpt><trkpt lat="41.891904939117865" lon="12.654239790545972"><ele>62.0</ele><time>2026-04-12T15:52:09Z</time></trkpt><trkpt lat="41.89188146329858" lon="12.654007227771562"><ele>62.66666666666667</ele><time>2026-04-12T15:52:10Z</time></trkpt><trkpt lat="41.89185781676494" lon="12.653769131434883"><ele>63.33333333333333</ele><time>2026-04-12T15:52:11Z</time></trkpt><trkpt lat="41.89183570445584" lon="12.653528748993379"><ele>64.0</ele><time>2026-04-12T15:52:12Z</time></trkpt><trkpt lat="41.89181234944218" lon="12.65328993646367"><ele>64.0</ele><time>2026-04-12T15:52:13Z</time></trkpt><trkpt lat="41.89179143315968" lon="12.653050556918227"><ele>64.0</ele><time>2026-04-12T15:52:14Z</time></trkpt><trkpt lat="41.891774677436246" lon="12.652819598318164"><ele>64.0</ele><time>2026-04-12T15:52:15Z</time></trkpt><trkpt lat="41.89176212000642" lon="12.652596172913514"><ele>64.0</ele><time>2026-04-12T15:52:16Z</time></trkpt><trkpt lat="41.891756523602496" lon="12.652379011400253"><ele>64.0</ele><time>2026-04-12T15:52:17Z</time></trkpt><trkpt lat="41.89175968388221" lon="12.652167675107068"><ele>64.0</ele><time>2026-04-12T15:52:18Z</time></trkpt><trkpt lat="41.89176966784432" lon="12.651961183264564"><ele>64.0</ele><time>2026-04-12T15:52:19Z</time></trkpt><trkpt lat="41.89178323611084" lon="12.651756740627768"><ele>64.0</ele><time>2026-04-12T15:52:20Z</time></trkpt><trkpt lat="41.89179969045842" lon="12.651554639666157"><ele>64.0</ele><time>2026-04-12T15:52:21Z</time></trkpt><trkpt lat="41.89182050351111" lon="12.651359754097115"><ele>64.0</ele><time>2026-04-12T15:52:22Z</time></trkpt><trkpt lat="41.89184087075674" lon="12.651171749958758"><ele>64.0</ele><time>2026-04-12T15:52:23Z</time></trkpt><trkpt lat="41.89186069668687" lon="12.65098329155537"><ele>64.0</ele><time>2026-04-12T15:52:24Z</time></trkpt><trkpt lat="41.89188020717905" lon="12.650795245733587"><ele>64.0</ele><time>2026-04-12T15:52:25Z</time></trkpt><trkpt lat="41.891897773318945" lon="12.650609062522532"><ele>64.5</ele><time>2026-04-12T15:52:26Z</time></trkpt><trkpt lat="41.89191657093761" lon="12.650424182198169"><ele>65.0</ele><time>2026-04-12T15:52:27Z</time></trkpt><trkpt lat="41.891932901268376" lon="12.650245114155204"><ele>65.5</ele><time>2026-04-12T15:52:28Z</time></trkpt><trkpt lat="41.89195215137208" lon="12.6500729669237"><ele>66.0</ele><time>2026-04-12T15:52:28.999Z</time></trkpt><trkpt lat="41.89196868406691" lon="12.649902717901064"><ele>67.0</ele><time>2026-04-12T15:52:29.999Z</time></trkpt><trkpt lat="41.8919846193813" lon="12.649726908724492"><ele>68.0</ele><time>2026-04-12T15:52:30.999Z</time></trkpt><trkpt lat="41.89199773443338" lon="12.649547904219945"><ele>69.0</ele><time>2026-04-12T15:52:31.999Z</time></trkpt><trkpt lat="41.89201181538505" lon="12.649363995494944"><ele>70.0</ele><time>2026-04-12T15:52:32.999Z</time></trkpt><trkpt lat="41.892031933321185" lon="12.649177867377771"><ele>70.0</ele><time>2026-04-12T15:52:33.999Z</time></trkpt><trkpt lat="41.892052031547685" lon="12.648993792176695"><ele>70.0</ele><time>2026-04-12T15:52:34.999Z</time></trkpt><trkpt lat="41.89206875802096" lon="12.648815076976394"><ele>70.0</ele><time>2026-04-12T15:52:35.999Z</time></trkpt><trkpt lat="41.892085570980164" lon="12.648643943979959"><ele>70.0</ele><time>2026-04-12T15:52:36.999Z</time></trkpt><trkpt lat="41.892102378351126" lon="12.648472621169155"><ele>69.5</ele><time>2026-04-12T15:52:37.999Z</time></trkpt><trkpt lat="41.892116845693366" lon="12.648293636288308"><ele>69.0</ele><time>2026-04-12T15:52:38.999Z</time></trkpt><trkpt lat="41.89213209049856" lon="12.648111483626733"><ele>68.5</ele><time>2026-04-12T15:52:39.999Z</time></trkpt><trkpt lat="41.89214734200124" lon="12.647922916432982"><ele>68.0</ele><time>2026-04-12T15:52:40.999Z</time></trkpt><trkpt lat="41.89216306391893" lon="12.64772822514877"><ele>67.25</ele><time>2026-04-12T15:52:41.999Z</time></trkpt><trkpt lat="41.89217721772706" lon="12.647529858737375"><ele>66.5</ele><time>2026-04-12T15:52:42.999Z</time></trkpt><trkpt lat="41.89218823759077" lon="12.647329154073574"><ele>65.75</ele><time>2026-04-12T15:52:43.999Z</time></trkpt><trkpt lat="41.892197070514804" lon="12.647126644607708"><ele>65.0</ele><time>2026-04-12T15:52:44.999Z</time></trkpt><trkpt lat="41.892206377577175" lon="12.646928112411777"><ele>64.25</ele><time>2026-04-12T15:52:45.999Z</time></trkpt><trkpt lat="41.89221981025875" lon="12.6467325739477"><ele>63.5</ele><time>2026-04-12T15:52:46.999Z</time></trkpt><trkpt lat="41.89223805497969" lon="12.646538784473623"><ele>62.75</ele><time>2026-04-12T15:52:47.999Z</time></trkpt><trkpt lat="41.89226783213457" lon="12.646343883095403"><ele>62.0</ele><time>2026-04-12T15:52:48.999Z</time></trkpt><trkpt lat="41.89231345439748" lon="12.646148430986452"><ele>62.0</ele><time>2026-04-12T15:52:49.999Z</time></trkpt><trkpt lat="41.8923721989262" lon="12.645952154925256"><ele>62.0</ele><time>2026-04-12T15:52:50.999Z</time></trkpt><trkpt lat="41.892438174067564" lon="12.645753781337964"><ele>62.0</ele><time>2026-04-12T15:52:51.999Z</time></trkpt><trkpt lat="41.89250617101132" lon="12.645558955130097"><ele>62.0</ele><time>2026-04-12T15:52:52.999Z</time></trkpt><trkpt lat="41.892567325150324" lon="12.64536916382836"><ele>62.0</ele><time>2026-04-12T15:52:53.999Z</time></trkpt><trkpt lat="41.8926350566884" lon="12.645184641208704"><ele>62.0</ele><time>2026-04-12T15:52:54.999Z</time></trkpt><trkpt lat="41.892698394123734" lon="12.645003018964733"><ele>61.25</ele><time>2026-04-12T15:52:55.999Z</time></trkpt><trkpt lat="41.89274927697882" lon="12.6448239813661"><ele>60.5</ele><time>2026-04-12T15:52:56.999Z</time></trkpt><trkpt lat="41.89278178717112" lon="12.644640521157136"><ele>59.75</ele><time>2026-04-12T15:52:57.999Z</time></trkpt><trkpt lat="41.89279479950608" lon="12.644449483510614"><ele>59.0</ele><time>2026-04-12T15:52:58.999Z</time></trkpt><trkpt lat="41.892783484604045" lon="12.644258809077535"><ele>58.0</ele><time>2026-04-12T15:52:59.999Z</time></trkpt><trkpt lat="41.89275197308433" lon="12.644077104972917"><ele>57.0</ele><time>2026-04-12T15:53:00.999Z</time></trkpt><trkpt lat="41.89270209006119" lon="12.643901677632442"><ele>56.0</ele><time>2026-04-12T15:53:01.999Z</time></trkpt><trkpt lat="41.8926298900247" lon="12.64373713111755"><ele>55.0</ele><time>2026-04-12T15:53:02.999Z</time></trkpt><trkpt lat="41.89253986760973" lon="12.643587946315089"><ele>55.0</ele><time>2026-04-12T15:53:03.999Z</time></trkpt><trkpt lat="41.89245379234312" lon="12.643450889405829"><ele>55.0</ele><time>2026-04-12T15:53:04.999Z</time></trkpt><trkpt lat="41.89238536866227" lon="12.643294345837946"><ele>55.0</ele><time>2026-04-12T15:53:05.999Z</time></trkpt><trkpt lat="41.89233742175646" lon="12.643128489971607"><ele>55.0</ele><time>2026-04-12T15:53:06.999Z</time></trkpt><trkpt lat="41.8923043650302" lon="12.64294289558226"><ele>54.33333333333333</ele><time>2026-04-12T15:53:07.999Z</time></trkpt><trkpt lat="41.892290163672364" lon="12.642745501860833"><ele>53.66666666666667</ele><time>2026-04-12T15:53:08.999Z</time></trkpt><trkpt lat="41.89227895868185" lon="12.642545226146556"><ele>53.0</ele><time>2026-04-12T15:53:09.999Z</time></trkpt><trkpt lat="41.89227214995489" lon="12.642335076976371"><ele>53.0</ele><time>2026-04-12T15:53:10.999Z</time></trkpt><trkpt lat="41.89227330854068" lon="12.642117643406925"><ele>53.0</ele><time>2026-04-12T15:53:11.999Z</time></trkpt><trkpt lat="41.89228128016296" lon="12.641895344999362"><ele>53.0</ele><time>2026-04-12T15:53:12.999Z</time></trkpt><trkpt lat="41.892289795462034" lon="12.64166921810947"><ele>52.333333333333336</ele><time>2026-04-12T15:53:13.999Z</time></trkpt><trkpt lat="41.89229994276565" lon="12.64144036203936"><ele>51.66666666666667</ele><time>2026-04-12T15:53:14.999Z</time></trkpt><trkpt lat="41.89230880044497" lon="12.64120492361439"><ele>51.0</ele><time>2026-04-12T15:53:15.999Z</time></trkpt><trkpt lat="41.89231729069874" lon="12.640967711138753"><ele>50.33333333333333</ele><time>2026-04-12T15:53:16.999Z</time></trkpt><trkpt lat="41.89232861695444" lon="12.640729175940484"><ele>49.666666666666664</ele><time>2026-04-12T15:53:17.999Z</time></trkpt><trkpt lat="41.89234267560978" lon="12.640490256452399"><ele>49.0</ele><time>2026-04-12T15:53:18.999Z</time></trkpt><trkpt lat="41.89235429718377" lon="12.640249039644772"><ele>49.0</ele><time>2026-04-12T15:53:19.999Z</time></trkpt><trkpt lat="41.892360772334" lon="12.640009483337916"><ele>49.0</ele><time>2026-04-12T15:53:20.999Z</time></trkpt><trkpt lat="41.89236001915767" lon="12.639769168338939"><ele>49.0</ele><time>2026-04-12T15:53:21.999Z</time></trkpt><trkpt lat="41.892354215587694" lon="12.639529388377165"><ele>48.666666666666664</ele><time>2026-04-12T15:53:22.999Z</time></trkpt><trkpt lat="41.89234984911949" lon="12.639287755104325"><ele>48.33333333333333</ele><time>2026-04-12T15:53:23.999Z</time></trkpt><trkpt lat="41.89234493308117" lon="12.639044802424955"><ele>48.0</ele><time>2026-04-12T15:53:24.998Z</time></trkpt><trkpt lat="41.89233925474761" lon="12.638799818948097"><ele>47.666666666666664</ele><time>2026-04-12T15:53:25.998Z</time></trkpt><trkpt lat="41.89233351440485" lon="12.638552720166581"><ele>47.33333333333333</ele><time>2026-04-12T15:53:26.998Z</time></trkpt><trkpt lat="41.892325723150435" lon="12.638305381887978"><ele>47.0</ele><time>2026-04-12T15:53:27.998Z</time></trkpt><trkpt lat="41.89231706050812" lon="12.638056478633755"><ele>47.0</ele><time>2026-04-12T15:53:28.998Z</time></trkpt><trkpt lat="41.89231052301777" lon="12.637805700330691"><ele>47.0</ele><time>2026-04-12T15:53:29.998Z</time></trkpt><trkpt lat="41.89230712572461" lon="12.637552861202632"><ele>47.0</ele><time>2026-04-12T15:53:30.998Z</time></trkpt><trkpt lat="41.892310131422775" lon="12.637302730486187"><ele>47.0</ele><time>2026-04-12T15:53:31.998Z</time></trkpt><trkpt lat="41.89232004680977" lon="12.637052665343552"><ele>47.0</ele><time>2026-04-12T15:53:32.998Z</time></trkpt><trkpt lat="41.89232833233523" lon="12.636803970931654"><ele>47.0</ele><time>2026-04-12T15:53:33.998Z</time></trkpt><trkpt lat="41.892341043130955" lon="12.636558714530565"><ele>47.33333333333333</ele><time>2026-04-12T15:53:34.998Z</time></trkpt><trkpt lat="41.89235894631084" lon="12.636318129396008"><ele>47.666666666666664</ele><time>2026-04-12T15:53:35.998Z</time></trkpt><trkpt lat="41.89238641192683" lon="12.63607990695301"><ele>48.0</ele><time>2026-04-12T15:53:36.998Z</time></trkpt><trkpt lat="41.8924146573671" lon="12.635851452560898"><ele>48.33333333333333</ele><time>2026-04-12T15:53:37.998Z</time></trkpt><trkpt lat="41.89243906272764" lon="12.635636969013389"><ele>48.666666666666664</ele><time>2026-04-12T15:53:38.998Z</time></trkpt><trkpt lat="41.892466947840184" lon="12.635433665599091"><ele>49.0</ele><time>2026-04-12T15:53:39.998Z</time></trkpt><trkpt lat="41.892493154522946" lon="12.635241233482581"><ele>49.0</ele><time>2026-04-12T15:53:40.998Z</time></trkpt><trkpt lat="41.89251999212096" lon="12.635060975299922"><ele>49.0</ele><time>2026-04-12T15:53:41.998Z</time></trkpt><trkpt lat="41.8925449136476" lon="12.634887233193284"><ele>49.0</ele><time>2026-04-12T15:53:42.998Z</time></trkpt><trkpt lat="41.892568687746845" lon="12.634714366777265"><ele>49.0</ele><time>2026-04-12T15:53:43.998Z</time></trkpt><trkpt lat="41.89259220308001" lon="12.634539887707875"><ele>51.5</ele><time>2026-04-12T15:53:44.998Z</time></trkpt><trkpt lat="41.89261429611924" lon="12.634363751890428"><ele>54.0</ele><time>2026-04-12T15:53:45.998Z</time></trkpt><trkpt lat="41.89263815677974" lon="12.6341864536843"><ele>56.5</ele><time>2026-04-12T15:53:46.998Z</time></trkpt><trkpt lat="41.89266092669316" lon="12.634007418184964"><ele>59.0</ele><time>2026-04-12T15:53:47.998Z</time></trkpt><trkpt lat="41.892678171427264" lon="12.633826515512862"><ele>59.0</ele><time>2026-04-12T15:53:48.998Z</time></trkpt><trkpt lat="41.892692729431054" lon="12.633646469790941"><ele>59.0</ele><time>2026-04-12T15:53:49.998Z</time></trkpt><trkpt lat="41.89270541864165" lon="12.633471993262752"><ele>59.0</ele><time>2026-04-12T15:53:50.998Z</time></trkpt><trkpt lat="41.89271380258945" lon="12.633302523267957"><ele>59.0</ele><time>2026-04-12T15:53:51.998Z</time></trkpt><trkpt lat="41.892719021435255" lon="12.633137270333405"><ele>59.400000000000006</ele><time>2026-04-12T15:53:52.998Z</time></trkpt><trkpt lat="41.89272040299542" lon="12.632976467311689"><ele>59.800000000000004</ele><time>2026-04-12T15:53:53.998Z</time></trkpt><trkpt lat="41.89271964113269" lon="12.632821681581289"><ele>60.199999999999996</ele><time>2026-04-12T15:53:54.998Z</time></trkpt><trkpt lat="41.89271528797996" lon="12.632676897801405"><ele>60.599999999999994</ele><time>2026-04-12T15:53:55.998Z</time></trkpt><trkpt lat="41.89271077413603" lon="12.632542706753203"><ele>61.0</ele><time>2026-04-12T15:53:56.998Z</time></trkpt><trkpt lat="41.89270724174311" lon="12.632415440613102"><ele>61.33333333333333</ele><time>2026-04-12T15:53:57.998Z</time></trkpt><trkpt lat="41.89270270034442" lon="12.63229487806725"><ele>61.666666666666664</ele><time>2026-04-12T15:53:58.998Z</time></trkpt><trkpt lat="41.89269631548507" lon="12.6321794235021"><ele>62.0</ele><time>2026-04-12T15:53:59.998Z</time></trkpt><trkpt lat="41.89268439142846" lon="12.632070447286289"><ele>62.33333333333333</ele><time>2026-04-12T15:54:00.998Z</time></trkpt><trkpt lat="41.89267479321488" lon="12.631967085922913"><ele>62.666666666666664</ele><time>2026-04-12T15:54:01.998Z</time></trkpt><trkpt lat="41.89267341953895" lon="12.631868951660776"><ele>63.0</ele><time>2026-04-12T15:54:02.998Z</time></trkpt><trkpt lat="41.892674188303026" lon="12.631772028911065"><ele>63.333333333333336</ele><time>2026-04-12T15:54:03.998Z</time></trkpt><trkpt lat="41.8926814567311" lon="12.631677533453612"><ele>63.66666666666667</ele><time>2026-04-12T15:54:04.998Z</time></trkpt><trkpt lat="41.89269043577441" lon="12.631584568403902"><ele>64.0</ele><time>2026-04-12T15:54:05.998Z</time></trkpt><trkpt lat="41.892695755168184" lon="12.631493226227482"><ele>64.33333333333334</ele><time>2026-04-12T15:54:07Z</time></trkpt><trkpt lat="41.89270042929229" lon="12.631393048919115"><ele>64.66666666666667</ele><time>2026-04-12T15:54:08Z</time></trkpt><trkpt lat="41.89270134354841" lon="12.631276838887084"><ele>65.0</ele><time>2026-04-12T15:54:09Z</time></trkpt><trkpt lat="41.89270303560832" lon="12.631133403781842"><ele>64.0</ele><time>2026-04-12T15:54:10Z</time></trkpt><trkpt lat="41.892715100674124" lon="12.630960239646457"><ele>63.0</ele><time>2026-04-12T15:54:11Z</time></trkpt><trkpt lat="41.89273467692724" lon="12.630765562710486"><ele>62.0</ele><time>2026-04-12T15:54:12Z</time></trkpt><trkpt lat="41.89274952393073" lon="12.630561962471848"><ele>61.0</ele><time>2026-04-12T15:54:13Z</time></trkpt><trkpt lat="41.89275650080012" lon="12.630362358365664"><ele>60.5</ele><time>2026-04-12T15:54:14Z</time></trkpt><trkpt lat="41.89275910532278" lon="12.630158480667449"><ele>60.0</ele><time>2026-04-12T15:54:15Z</time></trkpt><trkpt lat="41.89276320279242" lon="12.629959507930895"><ele>59.5</ele><time>2026-04-12T15:54:16Z</time></trkpt><trkpt lat="41.89276219755436" lon="12.629765361820416"><ele>59.0</ele><time>2026-04-12T15:54:17Z</time></trkpt><trkpt lat="41.89275051428468" lon="12.629575920669211"><ele>59.0</ele><time>2026-04-12T15:54:18Z</time></trkpt><trkpt lat="41.892723786476324" lon="12.629387763311094"><ele>59.0</ele><time>2026-04-12T15:54:19Z</time></trkpt><trkpt lat="41.89268307866289" lon="12.629204510188382"><ele>59.0</ele><time>2026-04-12T15:54:20Z</time></trkpt><trkpt lat="41.89264214389272" lon="12.629025207380336"><ele>59.0</ele><time>2026-04-12T15:54:21Z</time></trkpt><trkpt lat="41.89260897494527" lon="12.628850203588009"><ele>59.0</ele><time>2026-04-12T15:54:22Z</time></trkpt><trkpt lat="41.89259792344278" lon="12.628669743186178"><ele>59.0</ele><time>2026-04-12T15:54:23Z</time></trkpt><trkpt lat="41.89259995182579" lon="12.628481038002922"><ele>59.0</ele><time>2026-04-12T15:54:24Z</time></trkpt><trkpt lat="41.892614034367305" lon="12.628297790245337"><ele>59.0</ele><time>2026-04-12T15:54:25Z</time></trkpt><trkpt lat="41.89263495225805" lon="12.628131462587778"><ele>58.800000000000004</ele><time>2026-04-12T15:54:26Z</time></trkpt><trkpt lat="41.89265373118321" lon="12.627981347501612"><ele>58.60000000000001</ele><time>2026-04-12T15:54:27Z</time></trkpt><trkpt lat="41.89266739440482" lon="12.627849461340956"><ele>58.4</ele><time>2026-04-12T15:54:28Z</time></trkpt><trkpt lat="41.892684508906996" lon="12.627736594695472"><ele>58.2</ele><time>2026-04-12T15:54:29Z</time></trkpt><trkpt lat="41.892708518822694" lon="12.627625911642532"><ele>58.0</ele><time>2026-04-12T15:54:30Z</time></trkpt><trkpt lat="41.89272774484725" lon="12.627513888308743"><ele>57.49999999999999</ele><time>2026-04-12T15:54:31Z</time></trkpt><trkpt lat="41.892745164361074" lon="12.627400444517875"><ele>57.0</ele><time>2026-04-12T15:54:32Z</time></trkpt><trkpt lat="41.8927635777079" lon="12.62727659553637"><ele>56.5</ele><time>2026-04-12T15:54:33Z</time></trkpt><trkpt lat="41.89277632657923" lon="12.627156324949555"><ele>56.0</ele><time>2026-04-12T15:54:34Z</time></trkpt><trkpt lat="41.89278702687086" lon="12.627042842613225"><ele>55.49999999999999</ele><time>2026-04-12T15:54:35Z</time></trkpt><trkpt lat="41.89279816287105" lon="12.626934879004363"><ele>55.0</ele><time>2026-04-12T15:54:35.999Z</time></trkpt><trkpt lat="41.89280585925566" lon="12.626831094142942"><ele>54.49999999999999</ele><time>2026-04-12T15:54:36.999Z</time></trkpt><trkpt lat="41.892811645816174" lon="12.626732332019508"><ele>54.0</ele><time>2026-04-12T15:54:37.999Z</time></trkpt><trkpt lat="41.89282089172647" lon="12.626636648389585"><ele>53.5</ele><time>2026-04-12T15:54:38.999Z</time></trkpt><trkpt lat="41.89282830199625" lon="12.626528002445179"><ele>53.0</ele><time>2026-04-12T15:54:39.999Z</time></trkpt><trkpt lat="41.892832674306206" lon="12.62640775762"><ele>52.49999999999999</ele><time>2026-04-12T15:54:40.999Z</time></trkpt><trkpt lat="41.89283793737935" lon="12.626279974311815"><ele>52.0</ele><time>2026-04-12T15:54:41.999Z</time></trkpt><trkpt lat="41.89284080510998" lon="12.626157718100119"><ele>49.8</ele><time>2026-04-12T15:54:42.999Z</time></trkpt><trkpt lat="41.892847615143" lon="12.626021408015264"><ele>47.6</ele><time>2026-04-12T15:54:43.999Z</time></trkpt><trkpt lat="41.892856061729816" lon="12.625872998744512"><ele>45.4</ele><time>2026-04-12T15:54:44.999Z</time></trkpt><trkpt lat="41.89285287781341" lon="12.62573546899741"><ele>43.199999999999996</ele><time>2026-04-12T15:54:45.999Z</time></trkpt><trkpt lat="41.8928567719258" lon="12.625609820868569"><ele>41.0</ele><time>2026-04-12T15:54:46.999Z</time></trkpt><trkpt lat="41.89286407971804" lon="12.625470816391816"><ele>41.0</ele><time>2026-04-12T15:54:47.999Z</time></trkpt><trkpt lat="41.892864695358526" lon="12.625340627632722"><ele>41.0</ele><time>2026-04-12T15:54:48.999Z</time></trkpt><trkpt lat="41.89286513768449" lon="12.625229153542067"><ele>41.0</ele><time>2026-04-12T15:54:49.999Z</time></trkpt><trkpt lat="41.89286686635688" lon="12.625136375661542"><ele>41.0</ele><time>2026-04-12T15:54:50.999Z</time></trkpt><trkpt lat="41.89286479940105" lon="12.62504633158375"><ele>41.0</ele><time>2026-04-12T15:54:51.999Z</time></trkpt><trkpt lat="41.892863059464396" lon="12.6249533128676"><ele>41.0</ele><time>2026-04-12T15:54:52.999Z</time></trkpt><trkpt lat="41.89285921385331" lon="12.62486268388877"><ele>40.83333333333333</ele><time>2026-04-12T15:54:53.999Z</time></trkpt><trkpt lat="41.89285778860905" lon="12.624773940509378"><ele>40.666666666666664</ele><time>2026-04-12T15:54:54.999Z</time></trkpt><trkpt lat="41.892857456519515" lon="12.62468052202404"><ele>40.5</ele><time>2026-04-12T15:54:55.999Z</time></trkpt><trkpt lat="41.89285987009736" lon="12.62458555894708"><ele>40.333333333333336</ele><time>2026-04-12T15:54:56.999Z</time></trkpt><trkpt lat="41.89286200606531" lon="12.624498970176122"><ele>40.16666666666667</ele><time>2026-04-12T15:54:57.999Z</time></trkpt><trkpt lat="41.89285307815866" lon="12.624342398462142"><ele>40.0</ele><time>2026-04-12T15:54:59.999Z</time></trkpt><trkpt lat="41.89284259643662" lon="12.624222111968692"><ele>40.0</ele><time>2026-04-12T15:55:01.999Z</time></trkpt><trkpt lat="41.892737299284235" lon="12.62419320867495"><ele>40.0</ele><time>2026-04-12T15:55:02.999Z</time></trkpt><trkpt lat="41.89265544631109" lon="12.624191870086905"><ele>40.0</ele><time>2026-04-12T15:55:03.999Z</time></trkpt><trkpt lat="41.89256098658186" lon="12.624175928447324"><ele>40.0</ele><time>2026-04-12T15:55:04.999Z</time></trkpt><trkpt lat="41.892457667318745" lon="12.62413759733264"><ele>40.0</ele><time>2026-04-12T15:55:05.999Z</time></trkpt><trkpt lat="41.89235522332746" lon="12.624078779402998"><ele>40.5</ele><time>2026-04-12T15:55:06.999Z</time></trkpt><trkpt lat="41.89225703004784" lon="12.624010160919557"><ele>41.0</ele><time>2026-04-12T15:55:07.999Z</time></trkpt><trkpt lat="41.89215898274853" lon="12.623917586554793"><ele>41.5</ele><time>2026-04-12T15:55:08.999Z</time></trkpt><trkpt lat="41.8920653718166" lon="12.623804274934043"><ele>42.0</ele><time>2026-04-12T15:55:09.999Z</time></trkpt><trkpt lat="41.89197483245052" lon="12.623684095293552"><ele>42.25</ele><time>2026-04-12T15:55:10.999Z</time></trkpt><trkpt lat="41.89188291711304" lon="12.623565217613137"><ele>42.5</ele><time>2026-04-12T15:55:11.999Z</time></trkpt><trkpt lat="41.89178930060999" lon="12.62344679923723"><ele>42.75</ele><time>2026-04-12T15:55:12.999Z</time></trkpt><trkpt lat="41.89169419606199" lon="12.623325745885468"><ele>43.0</ele><time>2026-04-12T15:55:13.999Z</time></trkpt><trkpt lat="41.89159740737061" lon="12.623210430878139"><ele>43.5</ele><time>2026-04-12T15:55:14.999Z</time></trkpt><trkpt lat="41.89150268840054" lon="12.623088444667085"><ele>44.0</ele><time>2026-04-12T15:55:15.999Z</time></trkpt><trkpt lat="41.89140510292954" lon="12.622962063055374"><ele>44.5</ele><time>2026-04-12T15:55:16.999Z</time></trkpt><trkpt lat="41.891307311468715" lon="12.622830005158708"><ele>45.0</ele><time>2026-04-12T15:55:17.999Z</time></trkpt><trkpt lat="41.89120814273697" lon="12.622699589074406"><ele>45.5</ele><time>2026-04-12T15:55:18.999Z</time></trkpt><trkpt lat="41.891107889986436" lon="12.622572577850333"><ele>46.0</ele><time>2026-04-12T15:55:19.999Z</time></trkpt><trkpt lat="41.89100723297702" lon="12.622449572177496"><ele>46.5</ele><time>2026-04-12T15:55:20.999Z</time></trkpt><trkpt lat="41.89090592653898" lon="12.622335732428652"><ele>47.0</ele><time>2026-04-12T15:55:21.999Z</time></trkpt><trkpt lat="41.89078862088966" lon="12.622239216638688"><ele>47.75</ele><time>2026-04-12T15:55:22.999Z</time></trkpt><trkpt lat="41.89065695323021" lon="12.622172093650702"><ele>48.5</ele><time>2026-04-12T15:55:23.999Z</time></trkpt><trkpt lat="41.89051673700503" lon="12.622115386546536"><ele>49.25</ele><time>2026-04-12T15:55:24.999Z</time></trkpt><trkpt lat="41.89037669912045" lon="12.622055560662654"><ele>50.0</ele><time>2026-04-12T15:55:25.999Z</time></trkpt><trkpt lat="41.89023905276074" lon="12.621999295671214"><ele>51.0</ele><time>2026-04-12T15:55:26.999Z</time></trkpt><trkpt lat="41.89009816671401" lon="12.621940797900413"><ele>52.0</ele><time>2026-04-12T15:55:27.999Z</time></trkpt><trkpt lat="41.88995653297252" lon="12.621880362158345"><ele>53.0</ele><time>2026-04-12T15:55:28.999Z</time></trkpt><trkpt lat="41.8897967852479" lon="12.621815267579114"><ele>53.0</ele><time>2026-04-12T15:55:29.999Z</time></trkpt><trkpt lat="41.889623807197765" lon="12.621751982239783"><ele>53.0</ele><time>2026-04-12T15:55:30.999Z</time></trkpt><trkpt lat="41.889441990465706" lon="12.62167707292736"><ele>53.0</ele><time>2026-04-12T15:55:31.999Z</time></trkpt><trkpt lat="41.88926961930075" lon="12.6215940726701"><ele>53.66666666666667</ele><time>2026-04-12T15:55:32.999Z</time></trkpt><trkpt lat="41.88911122794407" lon="12.621511650137172"><ele>54.33333333333333</ele><time>2026-04-12T15:55:33.998Z</time></trkpt><trkpt lat="41.88896198066094" lon="12.621439978859872"><ele>55.0</ele><time>2026-04-12T15:55:34.998Z</time></trkpt><trkpt lat="41.888817032671554" lon="12.621377677415275"><ele>55.0</ele><time>2026-04-12T15:55:35.998Z</time></trkpt><trkpt lat="41.88866816611303" lon="12.621312448052839"><ele>55.0</ele><time>2026-04-12T15:55:36.998Z</time></trkpt><trkpt lat="41.888520367790186" lon="12.621250124389544"><ele>55.0</ele><time>2026-04-12T15:55:37.998Z</time></trkpt><trkpt lat="41.88837487320344" lon="12.62119003468246"><ele>55.0</ele><time>2026-04-12T15:55:38.998Z</time></trkpt><trkpt lat="41.888232290945716" lon="12.621130031495676"><ele>55.0</ele><time>2026-04-12T15:55:39.998Z</time></trkpt><trkpt lat="41.888098677325594" lon="12.621069085391417"><ele>55.0</ele><time>2026-04-12T15:55:40.998Z</time></trkpt><trkpt lat="41.887970582445966" lon="12.621011097727552"><ele>55.0</ele><time>2026-04-12T15:55:41.998Z</time></trkpt><trkpt lat="41.88784767733366" lon="12.620955391664838"><ele>55.0</ele><time>2026-04-12T15:55:42.998Z</time></trkpt><trkpt lat="41.88773229215992" lon="12.620906221271126"><ele>55.0</ele><time>2026-04-12T15:55:43.998Z</time></trkpt><trkpt lat="41.887626784602354" lon="12.620860202300834"><ele>55.0</ele><time>2026-04-12T15:55:44.998Z</time></trkpt><trkpt lat="41.887527603484614" lon="12.620818706733573"><ele>55.0</ele><time>2026-04-12T15:55:45.998Z</time></trkpt><trkpt lat="41.8874281749254" lon="12.62077617486341"><ele>55.0</ele><time>2026-04-12T15:55:46.998Z</time></trkpt><trkpt lat="41.887319159036615" lon="12.620726083061632"><ele>54.0</ele><time>2026-04-12T15:55:47.998Z</time></trkpt><trkpt lat="41.88720487425594" lon="12.62066786397079"><ele>53.0</ele><time>2026-04-12T15:55:48.998Z</time></trkpt><trkpt lat="41.88708576695739" lon="12.620598469263397"><ele>52.0</ele><time>2026-04-12T15:55:49.998Z</time></trkpt><trkpt lat="41.886972782487696" lon="12.620516223589059"><ele>51.0</ele><time>2026-04-12T15:55:50.998Z</time></trkpt><trkpt lat="41.88686807384692" lon="12.620424951964157"><ele>51.0</ele><time>2026-04-12T15:55:51.998Z</time></trkpt><trkpt lat="41.88676903893564" lon="12.620335647179353"><ele>51.0</ele><time>2026-04-12T15:55:52.998Z</time></trkpt><trkpt lat="41.88667739199002" lon="12.620252663041281"><ele>51.0</ele><time>2026-04-12T15:55:53.998Z</time></trkpt><trkpt lat="41.88659194243852" lon="12.620175982329167"><ele>51.0</ele><time>2026-04-12T15:55:54.998Z</time></trkpt><trkpt lat="41.88651047115413" lon="12.620100584986718"><ele>51.0</ele><time>2026-04-12T15:55:55.998Z</time></trkpt><trkpt lat="41.88643271392292" lon="12.620030939110123"><ele>51.333333333333336</ele><time>2026-04-12T15:55:56.998Z</time></trkpt><trkpt lat="41.886358702070616" lon="12.6199677122832"><ele>51.66666666666667</ele><time>2026-04-12T15:55:57.998Z</time></trkpt><trkpt lat="41.88628086875859" lon="12.619910244569898"><ele>52.0</ele><time>2026-04-12T15:55:58.998Z</time></trkpt><trkpt lat="41.886199152878504" lon="12.619852713283969"><ele>52.333333333333336</ele><time>2026-04-12T15:55:59.998Z</time></trkpt><trkpt lat="41.88611759116768" lon="12.61979908701925"><ele>52.66666666666667</ele><time>2026-04-12T15:56:00.998Z</time></trkpt><trkpt lat="41.88604140685205" lon="12.619756899895703"><ele>53.0</ele><time>2026-04-12T15:56:01.998Z</time></trkpt><trkpt lat="41.88596360879987" lon="12.619711936992044"><ele>52.833333333333336</ele><time>2026-04-12T15:56:02.998Z</time></trkpt><trkpt lat="41.885883719407275" lon="12.619668727162363"><ele>52.66666666666667</ele><time>2026-04-12T15:56:03.998Z</time></trkpt><trkpt lat="41.88580849124781" lon="12.619630335691527"><ele>52.5</ele><time>2026-04-12T15:56:04.998Z</time></trkpt><trkpt lat="41.885736206651174" lon="12.619594786069753"><ele>52.33333333333333</ele><time>2026-04-12T15:56:05.998Z</time></trkpt><trkpt lat="41.885668871110674" lon="12.619559071765027"><ele>52.166666666666664</ele><time>2026-04-12T15:56:06.998Z</time></trkpt><trkpt lat="41.88560478939921" lon="12.619523035739034"><ele>52.0</ele><time>2026-04-12T15:56:07.998Z</time></trkpt><trkpt lat="41.885539696001175" lon="12.619487877468003"><ele>52.14285714285714</ele><time>2026-04-12T15:56:08.998Z</time></trkpt><trkpt lat="41.885474569694445" lon="12.619451253945345"><ele>52.28571428571429</ele><time>2026-04-12T15:56:09.998Z</time></trkpt><trkpt lat="41.88540857295956" lon="12.619413301382558"><ele>52.42857142857143</ele><time>2026-04-12T15:56:10.998Z</time></trkpt><trkpt lat="41.88534138883216" lon="12.619376548489035"><ele>52.57142857142857</ele><time>2026-04-12T15:56:11.998Z</time></trkpt><trkpt lat="41.885273876177294" lon="12.619340592189156"><ele>52.71428571428571</ele><time>2026-04-12T15:56:13Z</time></trkpt><trkpt lat="41.88520664891179" lon="12.619308141148295"><ele>52.85714285714286</ele><time>2026-04-12T15:56:14Z</time></trkpt><trkpt lat="41.88513897766979" lon="12.619272154215087"><ele>53.0</ele><time>2026-04-12T15:56:15Z</time></trkpt><trkpt lat="41.88507102841465" lon="12.619235390181062"><ele>53.00000000000001</ele><time>2026-04-12T15:56:16Z</time></trkpt><trkpt lat="41.884999772726765" lon="12.619196335471576"><ele>53.0</ele><time>2026-04-12T15:56:17Z</time></trkpt><trkpt lat="41.88492476430325" lon="12.619152621309208"><ele>53.0</ele><time>2026-04-12T15:56:18Z</time></trkpt><trkpt lat="41.884846206832535" lon="12.619109719323573"><ele>53.0</ele><time>2026-04-12T15:56:19Z</time></trkpt><trkpt lat="41.884763051576556" lon="12.61906430872785"><ele>53.00000000000001</ele><time>2026-04-12T15:56:20Z</time></trkpt><trkpt lat="41.88467781823874" lon="12.619017876501317"><ele>53.0</ele><time>2026-04-12T15:56:21Z</time></trkpt><trkpt lat="41.88458914651263" lon="12.61897231332494"><ele>53.0</ele><time>2026-04-12T15:56:22Z</time></trkpt><trkpt lat="41.88450066287793" lon="12.618923554930124"><ele>53.0</ele><time>2026-04-12T15:56:23Z</time></trkpt><trkpt lat="41.88441237529943" lon="12.618875141470792"><ele>53.0</ele><time>2026-04-12T15:56:24Z</time></trkpt><trkpt lat="41.884323462215555" lon="12.618826317656394"><ele>53.0</ele><time>2026-04-12T15:56:25Z</time></trkpt><trkpt lat="41.88423763139542" lon="12.618779452856753"><ele>53.0</ele><time>2026-04-12T15:56:26Z</time></trkpt><trkpt lat="41.88415451343614" lon="12.618735227813596"><ele>52.50000000000001</ele><time>2026-04-12T15:56:27Z</time></trkpt><trkpt lat="41.88407480587368" lon="12.618695479974352"><ele>52.0</ele><time>2026-04-12T15:56:28Z</time></trkpt><trkpt lat="41.88399999424559" lon="12.618658264155792"><ele>51.5</ele><time>2026-04-12T15:56:29Z</time></trkpt><trkpt lat="41.88392460909001" lon="12.618619489211078"><ele>51.0</ele><time>2026-04-12T15:56:30Z</time></trkpt><trkpt lat="41.8838502795114" lon="12.61857232897694"><ele>50.50000000000001</ele><time>2026-04-12T15:56:31Z</time></trkpt><trkpt lat="41.88376628809594" lon="12.61851995913376"><ele>50.0</ele><time>2026-04-12T15:56:32Z</time></trkpt><trkpt lat="41.88367779886166" lon="12.618467873553694"><ele>49.2</ele><time>2026-04-12T15:56:33Z</time></trkpt><trkpt lat="41.883587544251476" lon="12.618415425188369"><ele>48.4</ele><time>2026-04-12T15:56:34Z</time></trkpt><trkpt lat="41.88350163189353" lon="12.618361318554628"><ele>47.599999999999994</ele><time>2026-04-12T15:56:35Z</time></trkpt><trkpt lat="41.88341942000419" lon="12.618306667851535"><ele>46.8</ele><time>2026-04-12T15:56:36Z</time></trkpt><trkpt lat="41.883339474876195" lon="12.618253363506136"><ele>46.0</ele><time>2026-04-12T15:56:37Z</time></trkpt><trkpt lat="41.88326332956136" lon="12.618202702185055"><ele>45.5</ele><time>2026-04-12T15:56:38Z</time></trkpt><trkpt lat="41.88319594966645" lon="12.618153963667945"><ele>45.0</ele><time>2026-04-12T15:56:39Z</time></trkpt><trkpt lat="41.88313618383286" lon="12.618112120658765"><ele>44.5</ele><time>2026-04-12T15:56:40Z</time></trkpt><trkpt lat="41.883053129764164" lon="12.618058989521845"><ele>44.0</ele><time>2026-04-12T15:56:42Z</time></trkpt><trkpt lat="41.88296906104697" lon="12.618000732968872"><ele>43.5</ele><time>2026-04-12T15:56:46.999Z</time></trkpt><trkpt lat="41.882893275652144" lon="12.617929584585617"><ele>43.0</ele><time>2026-04-12T15:56:48.999Z</time></trkpt><trkpt lat="41.882795025368495" lon="12.617872848707325"><ele>43.0</ele><time>2026-04-12T15:56:50.999Z</time></trkpt><trkpt lat="41.88271284866686" lon="12.617857869786796"><ele>43.0</ele><time>2026-04-12T15:56:52.999Z</time></trkpt><trkpt lat="41.88262804713448" lon="12.61787332286589"><ele>43.0</ele><time>2026-04-12T15:56:54.999Z</time></trkpt><trkpt lat="41.88256247903144" lon="12.617825783044875"><ele>43.0</ele><time>2026-04-12T15:56:55.999Z</time></trkpt><trkpt lat="41.88250439631379" lon="12.617750072796097"><ele>43.0</ele><time>2026-04-12T15:56:56.999Z</time></trkpt><trkpt lat="41.882433108578624" lon="12.617699633771103"><ele>43.0</ele><time>2026-04-12T15:56:57.999Z</time></trkpt><trkpt lat="41.88236914261295" lon="12.617620872677662"><ele>43.599999999999994</ele><time>2026-04-12T15:56:58.999Z</time></trkpt><trkpt lat="41.88231621562" lon="12.617546436812832"><ele>44.199999999999996</ele><time>2026-04-12T15:56:59.999Z</time></trkpt><trkpt lat="41.88224176994646" lon="12.617448101298184"><ele>44.8</ele><time>2026-04-12T15:57:00.999Z</time></trkpt><trkpt lat="41.88215476748864" lon="12.617380422078059"><ele>45.4</ele><time>2026-04-12T15:57:01.999Z</time></trkpt><trkpt lat="41.882076731206325" lon="12.617296970151159"><ele>46.0</ele><time>2026-04-12T15:57:02.999Z</time></trkpt><trkpt lat="41.88200146454383" lon="12.617241914910785"><ele>46.0</ele><time>2026-04-12T15:57:03.999Z</time></trkpt><trkpt lat="41.881922582820955" lon="12.617209786317918"><ele>46.0</ele><time>2026-04-12T15:57:04.999Z</time></trkpt><trkpt lat="41.88184174483688" lon="12.617134516642613"><ele>46.0</ele><time>2026-04-12T15:57:05.999Z</time></trkpt><trkpt lat="41.881740201511406" lon="12.61710531365555"><ele>46.0</ele><time>2026-04-12T15:57:06.999Z</time></trkpt><trkpt lat="41.88163544506344" lon="12.617079775019103"><ele>46.0</ele><time>2026-04-12T15:57:07.999Z</time></trkpt><trkpt lat="41.8815389172497" lon="12.617052434471125"><ele>46.4</ele><time>2026-04-12T15:57:08.999Z</time></trkpt><trkpt lat="41.88144669567825" lon="12.61703353019854"><ele>46.8</ele><time>2026-04-12T15:57:09.999Z</time></trkpt><trkpt lat="41.881351773657336" lon="12.617031745670126"><ele>47.199999999999996</ele><time>2026-04-12T15:57:10.999Z</time></trkpt><trkpt lat="41.88126048489613" lon="12.61704804713105"><ele>47.599999999999994</ele><time>2026-04-12T15:57:11.999Z</time></trkpt><trkpt lat="41.88118102543922" lon="12.617078234544605"><ele>48.0</ele><time>2026-04-12T15:57:12.999Z</time></trkpt><trkpt lat="41.88109368484838" lon="12.617113916334732"><ele>48.0</ele><time>2026-04-12T15:57:13.999Z</time></trkpt><trkpt lat="41.8809977691145" lon="12.617146521050701"><ele>48.0</ele><time>2026-04-12T15:57:14.999Z</time></trkpt><trkpt lat="41.880908993054796" lon="12.61718513197655"><ele>48.0</ele><time>2026-04-12T15:57:15.999Z</time></trkpt><trkpt lat="41.88080448616637" lon="12.617226945078498"><ele>48.0</ele><time>2026-04-12T15:57:16.999Z</time></trkpt><trkpt lat="41.88069757074627" lon="12.61726892906479"><ele>48.0</ele><time>2026-04-12T15:57:17.999Z</time></trkpt><trkpt lat="41.88059023156858" lon="12.61730481283086"><ele>48.75</ele><time>2026-04-12T15:57:18.999Z</time></trkpt><trkpt lat="41.88048383639326" lon="12.617346717373948"><ele>49.5</ele><time>2026-04-12T15:57:19.999Z</time></trkpt><trkpt lat="41.88037478467686" lon="12.617391501231936"><ele>50.25</ele><time>2026-04-12T15:57:20.999Z</time></trkpt><trkpt lat="41.880262101079445" lon="12.617431404984373"><ele>51.0</ele><time>2026-04-12T15:57:21.999Z</time></trkpt><trkpt lat="41.880148766390114" lon="12.617475162387063"><ele>51.8</ele><time>2026-04-12T15:57:22.999Z</time></trkpt><trkpt lat="41.880034126513124" lon="12.617517330640617"><ele>52.599999999999994</ele><time>2026-04-12T15:57:23.999Z</time></trkpt><trkpt lat="41.87992504772985" lon="12.617562706434681"><ele>53.4</ele><time>2026-04-12T15:57:24.999Z</time></trkpt><trkpt lat="41.87981964493009" lon="12.61760177560574"><ele>54.2</ele><time>2026-04-12T15:57:25.999Z</time></trkpt><trkpt lat="41.87971653531316" lon="12.61763971743545"><ele>55.0</ele><time>2026-04-12T15:57:26.999Z</time></trkpt><trkpt lat="41.879613208577624" lon="12.617678715321901"><ele>55.0</ele><time>2026-04-12T15:57:27.999Z</time></trkpt><trkpt lat="41.87950818550498" lon="12.61772379483745"><ele>55.0</ele><time>2026-04-12T15:57:28.999Z</time></trkpt><trkpt lat="41.87940139168502" lon="12.617769938061413"><ele>55.0</ele><time>2026-04-12T15:57:29.999Z</time></trkpt><trkpt lat="41.87930074961421" lon="12.617813319753017"><ele>55.0</ele><time>2026-04-12T15:57:30.999Z</time></trkpt><trkpt lat="41.87920116841296" lon="12.617853693107774"><ele>55.0</ele><time>2026-04-12T15:57:31.999Z</time></trkpt><trkpt lat="41.8790968402851" lon="12.617895266048194"><ele>55.2</ele><time>2026-04-12T15:57:32.999Z</time></trkpt><trkpt lat="41.878995602652545" lon="12.617937284024036"><ele>55.4</ele><time>2026-04-12T15:57:33.999Z</time></trkpt><trkpt lat="41.8788975320773" lon="12.617979714187914"><ele>55.599999999999994</ele><time>2026-04-12T15:57:34.999Z</time></trkpt><trkpt lat="41.878803040873514" lon="12.618021086197075"><ele>55.8</ele><time>2026-04-12T15:57:35.999Z</time></trkpt><trkpt lat="41.87871724534333" lon="12.618058595995059"><ele>56.0</ele><time>2026-04-12T15:57:36.999Z</time></trkpt><trkpt lat="41.8786301962652" lon="12.618089843884182"><ele>56.0</ele><time>2026-04-12T15:57:37.999Z</time></trkpt><trkpt lat="41.87853602012856" lon="12.618122731886281"><ele>55.99999999999999</ele><time>2026-04-12T15:57:38.999Z</time></trkpt><trkpt lat="41.878443473835546" lon="12.61815917509233"><ele>55.99999999999999</ele><time>2026-04-12T15:57:39.999Z</time></trkpt><trkpt lat="41.87834983500066" lon="12.618193805379834"><ele>56.0</ele><time>2026-04-12T15:57:40.999Z</time></trkpt><trkpt lat="41.878253940681915" lon="12.618231144568451"><ele>56.0</ele><time>2026-04-12T15:57:41.998Z</time></trkpt><trkpt lat="41.87816133168423" lon="12.618266621271216"><ele>56.333333333333336</ele><time>2026-04-12T15:57:42.998Z</time></trkpt><trkpt lat="41.878076406490216" lon="12.618299267051437"><ele>56.66666666666667</ele><time>2026-04-12T15:57:43.998Z</time></trkpt><trkpt lat="41.87799300169411" lon="12.618335886036713"><ele>57.0</ele><time>2026-04-12T15:57:44.998Z</time></trkpt><trkpt lat="41.877912685782846" lon="12.618369020961138"><ele>57.33333333333333</ele><time>2026-04-12T15:57:45.998Z</time></trkpt><trkpt lat="41.877835697447416" lon="12.618399216648944"><ele>57.666666666666664</ele><time>2026-04-12T15:57:46.998Z</time></trkpt><trkpt lat="41.87776340699335" lon="12.618426380148511"><ele>58.0</ele><time>2026-04-12T15:57:47.998Z</time></trkpt><trkpt lat="41.87769253073981" lon="12.618453389981202"><ele>58.00000000000001</ele><time>2026-04-12T15:57:48.998Z</time></trkpt><trkpt lat="41.877621069768985" lon="12.618478195834092"><ele>58.0</ele><time>2026-04-12T15:57:49.998Z</time></trkpt><trkpt lat="41.87754812714632" lon="12.618504879086531"><ele>58.00000000000001</ele><time>2026-04-12T15:57:50.998Z</time></trkpt><trkpt lat="41.87747651056225" lon="12.618529754782587"><ele>58.00000000000001</ele><time>2026-04-12T15:57:51.998Z</time></trkpt><trkpt lat="41.8774076266" lon="12.618553938311114"><ele>58.0</ele><time>2026-04-12T15:57:52.998Z</time></trkpt><trkpt lat="41.87734235397698" lon="12.618576949983945"><ele>58.00000000000001</ele><time>2026-04-12T15:57:53.998Z</time></trkpt><trkpt lat="41.87727152658134" lon="12.618604202676924"><ele>58.00000000000001</ele><time>2026-04-12T15:57:54.998Z</time></trkpt><trkpt lat="41.87719754920546" lon="12.618642255233668"><ele>58.14285714285715</ele><time>2026-04-12T15:57:55.998Z</time></trkpt><trkpt lat="41.877121192998445" lon="12.618679522629652"><ele>58.28571428571429</ele><time>2026-04-12T15:57:56.998Z</time></trkpt><trkpt lat="41.87705299180019" lon="12.618710524766533"><ele>58.42857142857143</ele><time>2026-04-12T15:57:57.998Z</time></trkpt><trkpt lat="41.87699290329236" lon="12.618739735103338"><ele>58.57142857142858</ele><time>2026-04-12T15:57:58.998Z</time></trkpt><trkpt lat="41.876932803854444" lon="12.618771011466707"><ele>58.71428571428572</ele><time>2026-04-12T15:57:59.998Z</time></trkpt><trkpt lat="41.876861566635306" lon="12.618776548185952"><ele>58.857142857142854</ele><time>2026-04-12T15:58:00.998Z</time></trkpt><trkpt lat="41.876787476484985" lon="12.618806211852034"><ele>59.0</ele><time>2026-04-12T15:58:01.998Z</time></trkpt><trkpt lat="41.876712472877436" lon="12.618863831363708"><ele>59.6</ele><time>2026-04-12T15:58:02.998Z</time></trkpt><trkpt lat="41.87662450733235" lon="12.618894594242946"><ele>60.2</ele><time>2026-04-12T15:58:03.998Z</time></trkpt><trkpt lat="41.87653067737519" lon="12.61892084526147"><ele>60.800000000000004</ele><time>2026-04-12T15:58:04.998Z</time></trkpt><trkpt lat="41.87643436559818" lon="12.618948734519456"><ele>61.400000000000006</ele><time>2026-04-12T15:58:05.998Z</time></trkpt><trkpt lat="41.876342837897525" lon="12.618981241248454"><ele>62.0</ele><time>2026-04-12T15:58:06.998Z</time></trkpt><trkpt lat="41.87625913627333" lon="12.619013770367866"><ele>62.0</ele><time>2026-04-12T15:58:07.998Z</time></trkpt><trkpt lat="41.8761789507582" lon="12.619046300383555"><ele>62.0</ele><time>2026-04-12T15:58:08.998Z</time></trkpt><trkpt lat="41.87609848188909" lon="12.619078347345178"><ele>62.0</ele><time>2026-04-12T15:58:09.998Z</time></trkpt><trkpt lat="41.87600905800423" lon="12.619117905026695"><ele>62.0</ele><time>2026-04-12T15:58:10.998Z</time></trkpt><trkpt lat="41.875912010431946" lon="12.619160436867968"><ele>62.0</ele><time>2026-04-12T15:58:11.998Z</time></trkpt><trkpt lat="41.87581042773868" lon="12.619198556900765"><ele>62.2</ele><time>2026-04-12T15:58:12.998Z</time></trkpt><trkpt lat="41.875704972165195" lon="12.619237638611926"><ele>62.400000000000006</ele><time>2026-04-12T15:58:13.998Z</time></trkpt><trkpt lat="41.87559696119602" lon="12.61927994968396"><ele>62.599999999999994</ele><time>2026-04-12T15:58:14.998Z</time></trkpt><trkpt lat="41.87549309692209" lon="12.619318247363365"><ele>62.8</ele><time>2026-04-12T15:58:15.998Z</time></trkpt><trkpt lat="41.87539774833442" lon="12.619356377965483"><ele>63.0</ele><time>2026-04-12T15:58:16.998Z</time></trkpt><trkpt lat="41.8753093485682" lon="12.619390984061955"><ele>63.0</ele><time>2026-04-12T15:58:17.998Z</time></trkpt><trkpt lat="41.87522477553313" lon="12.619419642221745"><ele>63.0</ele><time>2026-04-12T15:58:19Z</time></trkpt><trkpt lat="41.875138979722756" lon="12.61944208862403"><ele>63.0</ele><time>2026-04-12T15:58:20Z</time></trkpt><trkpt lat="41.87504965999044" lon="12.619457637648656"><ele>63.0</ele><time>2026-04-12T15:58:21Z</time></trkpt><trkpt lat="41.87495909453175" lon="12.619459948546478"><ele>63.0</ele><time>2026-04-12T15:58:22Z</time></trkpt><trkpt lat="41.87486580302786" lon="12.619450730353774"><ele>63.0</ele><time>2026-04-12T15:58:23Z</time></trkpt><trkpt lat="41.8747744653417" lon="12.619426856221315"><ele>63.2</ele><time>2026-04-12T15:58:24Z</time></trkpt><trkpt lat="41.87468068152545" lon="12.619392528425637"><ele>63.4</ele><time>2026-04-12T15:58:25Z</time></trkpt><trkpt lat="41.87458943211764" lon="12.619355264504549"><ele>63.60000000000001</ele><time>2026-04-12T15:58:26Z</time></trkpt><trkpt lat="41.874499061401394" lon="12.619318944457806"><ele>63.800000000000004</ele><time>2026-04-12T15:58:27Z</time></trkpt><trkpt lat="41.87441540236098" lon="12.619283667432324"><ele>64.0</ele><time>2026-04-12T15:58:28Z</time></trkpt><trkpt lat="41.87433780634285" lon="12.619250986379788"><ele>63.800000000000004</ele><time>2026-04-12T15:58:29Z</time></trkpt><trkpt lat="41.87426894078736" lon="12.619218997776684"><ele>63.60000000000001</ele><time>2026-04-12T15:58:30Z</time></trkpt><trkpt lat="41.87416393593054" lon="12.619177293520716"><ele>63.4</ele><time>2026-04-12T15:58:32Z</time></trkpt><trkpt lat="41.874092945400996" lon="12.61915242082602"><ele>63.2</ele><time>2026-04-12T15:58:35Z</time></trkpt><trkpt lat="41.87404762506709" lon="12.61933816532286"><ele>63.0</ele><time>2026-04-12T15:58:37Z</time></trkpt><trkpt lat="41.87399255430977" lon="12.619484990799913"><ele>63.0</ele><time>2026-04-12T15:58:39Z</time></trkpt><trkpt lat="41.873954959670506" lon="12.619557876762023"><ele>63.0</ele><time>2026-04-12T15:58:40Z</time></trkpt><trkpt lat="41.873919422064446" lon="12.619646590738261"><ele>63.0</ele><time>2026-04-12T15:58:41Z</time></trkpt><trkpt lat="41.873868070946216" lon="12.61971103133478"><ele>63.0</ele><time>2026-04-12T15:58:42Z</time></trkpt><trkpt lat="41.87381299358437" lon="12.619777344287712"><ele>63.0</ele><time>2026-04-12T15:58:43Z</time></trkpt><trkpt lat="41.87375397983811" lon="12.619840137872815"><ele>63.0</ele><time>2026-04-12T15:58:44Z</time></trkpt><trkpt lat="41.87369889057087" lon="12.619912388944003"><ele>63.0</ele><time>2026-04-12T15:58:45Z</time></trkpt><trkpt lat="41.873639373898826" lon="12.61998115007447"><ele>63.0</ele><time>2026-04-12T15:58:46Z</time></trkpt><trkpt lat="41.8735838723887" lon="12.620051310197526"><ele>63.0</ele><time>2026-04-12T15:58:47Z</time></trkpt><trkpt lat="41.87353157423947" lon="12.62011812064981"><ele>63.0</ele><time>2026-04-12T15:58:48Z</time></trkpt><trkpt lat="41.87348555196773" lon="12.62017858931973"><ele>63.0</ele><time>2026-04-12T15:58:49Z</time></trkpt><trkpt lat="41.87339894794342" lon="12.620287056023447"><ele>63.0</ele><time>2026-04-12T15:58:51Z</time></trkpt><trkpt lat="41.873311643559724" lon="12.620399581521081"><ele>64.0</ele><time>2026-04-12T15:58:53Z</time></trkpt><trkpt lat="41.87322164056942" lon="12.620497411984081"><ele>65.0</ele><time>2026-04-12T15:58:54.999Z</time></trkpt><trkpt lat="41.87313854373498" lon="12.62059608454734"><ele>66.0</ele><time>2026-04-12T15:58:56.999Z</time></trkpt><trkpt lat="41.87306187890835" lon="12.620691630630324"><ele>67.0</ele><time>2026-04-12T15:58:58.999Z</time></trkpt><trkpt lat="41.87299373358346" lon="12.620771854782319"><ele>68.0</ele><time>2026-04-12T15:59:00.999Z</time></trkpt><trkpt lat="41.872938296591975" lon="12.620826106343106"><ele>68.0</ele><time>2026-04-12T15:59:02.999Z</time></trkpt><trkpt lat="41.87290103691515" lon="12.620911657128378"><ele>68.0</ele><time>2026-04-12T15:59:04.999Z</time></trkpt><trkpt lat="41.87289087561569" lon="12.621004993439218"><ele>68.0</ele><time>2026-04-12T15:59:06.999Z</time></trkpt><trkpt lat="41.872979523100376" lon="12.621056299610018"><ele>68.0</ele><time>2026-04-12T15:59:07.999Z</time></trkpt><trkpt lat="41.87304062753187" lon="12.621135432380546"><ele>68.0</ele><time>2026-04-12T15:59:09.999Z</time></trkpt><trkpt lat="41.87309163672694" lon="12.62122672040939"><ele>68.0</ele><time>2026-04-12T15:59:12.999Z</time></trkpt><trkpt lat="41.87313246162924" lon="12.621308144851186"><ele>68.16666666666667</ele><time>2026-04-12T15:59:15.999Z</time></trkpt><trkpt lat="41.87320195910172" lon="12.621393130771509"><ele>68.33333333333334</ele><time>2026-04-12T15:59:17.999Z</time></trkpt><trkpt lat="41.87324556615464" lon="12.62145587315335"><ele>68.5</ele><time>2026-04-12T15:59:18.999Z</time></trkpt><trkpt lat="41.873291996604536" lon="12.621530287679201"><ele>68.66666666666667</ele><time>2026-04-12T15:59:19.999Z</time></trkpt><trkpt lat="41.87334273191424" lon="12.621609053519904"><ele>68.83333333333333</ele><time>2026-04-12T15:59:20.999Z</time></trkpt><trkpt lat="41.87339626883541" lon="12.621688336273984"><ele>69.0</ele><time>2026-04-12T15:59:21.999Z</time></trkpt><trkpt lat="41.873451481517435" lon="12.621768979029362"><ele>69.0</ele><time>2026-04-12T15:59:22.999Z</time></trkpt><trkpt lat="41.87350682339596" lon="12.621851400000134"><ele>69.0</ele><time>2026-04-12T15:59:23.999Z</time></trkpt><trkpt lat="41.873562467284884" lon="12.621932627825737"><ele>69.0</ele><time>2026-04-12T15:59:24.999Z</time></trkpt><trkpt lat="41.873618386143555" lon="12.622015884746354"><ele>69.0</ele><time>2026-04-12T15:59:25.999Z</time></trkpt><trkpt lat="41.87367453165568" lon="12.62209754499712"><ele>69.0</ele><time>2026-04-12T15:59:26.999Z</time></trkpt><trkpt lat="41.873728937174" lon="12.622175981661263"><ele>69.0</ele><time>2026-04-12T15:59:27.999Z</time></trkpt><trkpt lat="41.87378025065741" lon="12.622255543374097"><ele>68.83333333333333</ele><time>2026-04-12T15:59:28.999Z</time></trkpt><trkpt lat="41.87382952386431" lon="12.622333094149145"><ele>68.66666666666667</ele><time>2026-04-12T15:59:29.999Z</time></trkpt><trkpt lat="41.873881456355846" lon="12.622413781054009"><ele>68.5</ele><time>2026-04-12T15:59:30.999Z</time></trkpt><trkpt lat="41.87393485905617" lon="12.622494540787839"><ele>68.33333333333334</ele><time>2026-04-12T15:59:31.999Z</time></trkpt><trkpt lat="41.87398803110448" lon="12.62257478438904"><ele>68.16666666666667</ele><time>2026-04-12T15:59:32.999Z</time></trkpt><trkpt lat="41.87404283025475" lon="12.6226568989297"><ele>68.0</ele><time>2026-04-12T15:59:33.999Z</time></trkpt><trkpt lat="41.874098290499894" lon="12.622738891228396"><ele>67.42857142857142</ele><time>2026-04-12T15:59:34.999Z</time></trkpt><trkpt lat="41.87415279232166" lon="12.622822414281742"><ele>66.85714285714286</ele><time>2026-04-12T15:59:35.999Z</time></trkpt><trkpt lat="41.874205576815335" lon="12.622900840659357"><ele>66.28571428571428</ele><time>2026-04-12T15:59:36.999Z</time></trkpt><trkpt lat="41.87425696492926" lon="12.622974910561512"><ele>65.71428571428571</ele><time>2026-04-12T15:59:37.999Z</time></trkpt><trkpt lat="41.874305429426975" lon="12.623044677380594"><ele>65.14285714285714</ele><time>2026-04-12T15:59:38.999Z</time></trkpt><trkpt lat="41.87435109705646" lon="12.623113860781466"><ele>64.57142857142857</ele><time>2026-04-12T15:59:39.999Z</time></trkpt><trkpt lat="41.87439373687023" lon="12.62317823239601"><ele>64.0</ele><time>2026-04-12T15:59:40.999Z</time></trkpt><trkpt lat="41.87446294711853" lon="12.623290247210694"><ele>63.99999999999999</ele><time>2026-04-12T15:59:42.999Z</time></trkpt><trkpt lat="41.87446250629091" lon="12.623407966272914"><ele>64.0</ele><time>2026-04-12T15:59:44.999Z</time></trkpt><trkpt lat="41.87441318630671" lon="12.623482416827644"><ele>64.0</ele><time>2026-04-12T15:59:46.999Z</time></trkpt><trkpt lat="41.87435408087331" lon="12.623538127999478"><ele>64.0</ele><time>2026-04-12T15:59:49.999Z</time></trkpt><trkpt lat="41.874299799582914" lon="12.623605081398908"><ele>63.99999999999999</ele><time>2026-04-12T16:01:11.999Z</time></trkpt><trkpt lat="41.87418132274267" lon="12.623517344336086"><ele>64.0</ele><time>2026-04-12T16:02:12.058Z</time></trkpt><trkpt lat="41.8742489031987" lon="12.62353198690584"><ele>63.99999999999999</ele><time>2026-04-12T16:03:15.015Z</time></trkpt><trkpt lat="41.87429296426806" lon="12.623594970422076"><ele>64.0</ele><time>2026-04-12T16:03:21.065Z</time></trkpt><trkpt lat="41.87421105379196" lon="12.623537726546953"><ele>64.0</ele><time>2026-04-12T16:04:20.089Z</time></trkpt><trkpt lat="41.87427805541548" lon="12.623494613514312"><ele>64.0</ele><time>2026-04-12T16:06:33.994Z</time></trkpt><trkpt lat="41.874212180873414" lon="12.623528214133044"><ele>63.99999999999999</ele><time>2026-04-12T16:06:49Z</time></trkpt><trkpt lat="41.87433531150189" lon="12.623549424997695"><ele>64.0</ele><time>2026-04-12T16:08:15.998Z</time></trkpt><trkpt lat="41.87440124212775" lon="12.623496190342681"><ele>62.75</ele><time>2026-04-12T16:09:12Z</time></trkpt><trkpt lat="41.87446042866859" lon="12.623420901582065"><ele>61.5</ele><time>2026-04-12T16:09:14Z</time></trkpt><trkpt lat="41.87471755710902" lon="12.623360386579252"><ele>60.25</ele><time>2026-04-12T16:09:22.999Z</time></trkpt><trkpt lat="41.87476237159653" lon="12.623299086039923"><ele>59.0</ele><time>2026-04-12T16:09:23.999Z</time></trkpt><trkpt lat="41.874810895440525" lon="12.623240978907363"><ele>59.0</ele><time>2026-04-12T16:09:24.999Z</time></trkpt><trkpt lat="41.874863469236935" lon="12.623179439691889"><ele>59.0</ele><time>2026-04-12T16:09:25.999Z</time></trkpt><trkpt lat="41.87491317230412" lon="12.623117244563852"><ele>59.0</ele><time>2026-04-12T16:09:26.999Z</time></trkpt><trkpt lat="41.874962355631695" lon="12.623054662910473"><ele>59.0</ele><time>2026-04-12T16:09:27.999Z</time></trkpt><trkpt lat="41.87501104488876" lon="12.62299548954096"><ele>59.0</ele><time>2026-04-12T16:09:28.999Z</time></trkpt><trkpt lat="41.87505892033849" lon="12.622933758518394"><ele>59.0</ele><time>2026-04-12T16:09:29.999Z</time></trkpt><trkpt lat="41.8751433727635" lon="12.622837020062228"><ele>59.0</ele><time>2026-04-12T16:09:31.999Z</time></trkpt><trkpt lat="41.87521513878244" lon="12.622743225501065"><ele>59.333333333333336</ele><time>2026-04-12T16:09:33.999Z</time></trkpt><trkpt lat="41.87526061295428" lon="12.622664199020255"><ele>59.66666666666667</ele><time>2026-04-12T16:09:35.999Z</time></trkpt><trkpt lat="41.87520938536583" lon="12.622531974344954"><ele>60.0</ele><time>2026-04-12T16:09:38.999Z</time></trkpt><trkpt lat="41.875124724150204" lon="12.622417628190744"><ele>60.33333333333333</ele><time>2026-04-12T16:09:40.999Z</time></trkpt><trkpt lat="41.87507973219491" lon="12.6223495168912"><ele>60.666666666666664</ele><time>2026-04-12T16:09:41.999Z</time></trkpt><trkpt lat="41.87503041760076" lon="12.622274253205607"><ele>61.0</ele><time>2026-04-12T16:09:42.999Z</time></trkpt><trkpt lat="41.874981967740084" lon="12.622200665250363"><ele>61.57142857142856</ele><time>2026-04-12T16:09:43.999Z</time></trkpt><trkpt lat="41.8749356580258" lon="12.622127725468982"><ele>62.14285714285714</ele><time>2026-04-12T16:09:44.999Z</time></trkpt><trkpt lat="41.874895404285255" lon="12.622058585897284"><ele>62.714285714285715</ele><time>2026-04-12T16:09:45.999Z</time></trkpt><trkpt lat="41.8748528715682" lon="12.621994559573379"><ele>63.285714285714285</ele><time>2026-04-12T16:09:46.999Z</time></trkpt><trkpt lat="41.87480524257296" lon="12.621931660056037"><ele>63.85714285714286</ele><time>2026-04-12T16:09:47.999Z</time></trkpt><trkpt lat="41.87475927666599" lon="12.621864058103396"><ele>64.42857142857143</ele><time>2026-04-12T16:09:48.999Z</time></trkpt><trkpt lat="41.874715819583976" lon="12.621793706212728"><ele>65.0</ele><time>2026-04-12T16:09:49.999Z</time></trkpt><trkpt lat="41.87466868344067" lon="12.621722274210859"><ele>65.14285714285715</ele><time>2026-04-12T16:09:50.999Z</time></trkpt><trkpt lat="41.874620478201315" lon="12.621653189501245"><ele>65.28571428571429</ele><time>2026-04-12T16:09:51.999Z</time></trkpt><trkpt lat="41.8745686704555" lon="12.621584363448404"><ele>65.42857142857143</ele><time>2026-04-12T16:09:52.999Z</time></trkpt><trkpt lat="41.87451693613111" lon="12.621515544471045"><ele>65.57142857142858</ele><time>2026-04-12T16:09:53.999Z</time></trkpt><trkpt lat="41.87446859950681" lon="12.621445038605438"><ele>65.71428571428572</ele><time>2026-04-12T16:09:54.999Z</time></trkpt><trkpt lat="41.874419930077664" lon="12.62137673593256"><ele>65.85714285714286</ele><time>2026-04-12T16:09:55.999Z</time></trkpt><trkpt lat="41.874370931265986" lon="12.621305792095686"><ele>66.0</ele><time>2026-04-12T16:09:56.999Z</time></trkpt><trkpt lat="41.874322124580715" lon="12.621233511855136"><ele>66.0</ele><time>2026-04-12T16:09:57.999Z</time></trkpt><trkpt lat="41.874270766290614" lon="12.621162111943573"><ele>66.0</ele><time>2026-04-12T16:09:58.999Z</time></trkpt><trkpt lat="41.87421954702328" lon="12.621089892239029"><ele>66.0</ele><time>2026-04-12T16:09:59.999Z</time></trkpt><trkpt lat="41.87417021039725" lon="12.621015568801887"><ele>66.0</ele><time>2026-04-12T16:10:00.999Z</time></trkpt><trkpt lat="41.874121351850505" lon="12.62093486542868"><ele>66.0</ele><time>2026-04-12T16:10:01.999Z</time></trkpt><trkpt lat="41.87406952202048" lon="12.620857360766554"><ele>66.0</ele><time>2026-04-12T16:10:02.999Z</time></trkpt><trkpt lat="41.87401686726163" lon="12.620776310025802"><ele>66.0</ele><time>2026-04-12T16:10:03.999Z</time></trkpt><trkpt lat="41.87396192793558" lon="12.62069726126333"><ele>66.0</ele><time>2026-04-12T16:10:04.999Z</time></trkpt><trkpt lat="41.87390412299036" lon="12.62061594008337"><ele>66.0</ele><time>2026-04-12T16:10:05.999Z</time></trkpt><trkpt lat="41.87384890521382" lon="12.620532554235497"><ele>66.0</ele><time>2026-04-12T16:10:06.999Z</time></trkpt><trkpt lat="41.873796674308686" lon="12.620451821405613"><ele>66.0</ele><time>2026-04-12T16:10:07.999Z</time></trkpt><trkpt lat="41.87374721612777" lon="12.620376892705693"><ele>66.0</ele><time>2026-04-12T16:10:08.999Z</time></trkpt><trkpt lat="41.87370009033696" lon="12.620308337789064"><ele>65.5</ele><time>2026-04-12T16:10:09.999Z</time></trkpt><trkpt lat="41.873655704652094" lon="12.620247992356274"><ele>65.0</ele><time>2026-04-12T16:10:10.999Z</time></trkpt><trkpt lat="41.873593981031156" lon="12.620151874225273"><ele>64.5</ele><time>2026-04-12T16:10:12.998Z</time></trkpt><trkpt lat="41.873551768615236" lon="12.62008096587409"><ele>64.0</ele><time>2026-04-12T16:10:15.998Z</time></trkpt><trkpt lat="41.873631501404496" lon="12.62002956237294"><ele>63.5</ele><time>2026-04-12T16:10:16.998Z</time></trkpt><trkpt lat="41.87371093524526" lon="12.619931511224381"><ele>63.0</ele><time>2026-04-12T16:10:18.998Z</time></trkpt><trkpt lat="41.87380558312" lon="12.619819135618313"><ele>63.0</ele><time>2026-04-12T16:10:20.998Z</time></trkpt><trkpt lat="41.87385891455103" lon="12.619756711059132"><ele>63.0</ele><time>2026-04-12T16:10:21.998Z</time></trkpt><trkpt lat="41.87391348042808" lon="12.61968861717167"><ele>63.0</ele><time>2026-04-12T16:10:22.998Z</time></trkpt><trkpt lat="41.873952643979045" lon="12.619604274820793"><ele>63.0</ele><time>2026-04-12T16:10:23.998Z</time></trkpt><trkpt lat="41.873993053176726" lon="12.619532730005755"><ele>63.0</ele><time>2026-04-12T16:10:24.998Z</time></trkpt><trkpt lat="41.87405412747564" lon="12.619397474475942"><ele>63.0</ele><time>2026-04-12T16:10:26.998Z</time></trkpt><trkpt lat="41.87408722730316" lon="12.619284220835606"><ele>62.8</ele><time>2026-04-12T16:10:28.998Z</time></trkpt><trkpt lat="41.87410962820425" lon="12.619195602677737"><ele>62.599999999999994</ele><time>2026-04-12T16:10:44.998Z</time></trkpt><trkpt lat="41.8740126398534" lon="12.619084027245282"><ele>62.400000000000006</ele><time>2026-04-12T16:10:47.998Z</time></trkpt><trkpt lat="41.87394296756404" lon="12.619071572871357"><ele>62.2</ele><time>2026-04-12T16:10:48.998Z</time></trkpt><trkpt lat="41.87387736168962" lon="12.619047725385549"><ele>62.0</ele><time>2026-04-12T16:10:50Z</time></trkpt><trkpt lat="41.87376737728608" lon="12.618996094292799"><ele>62.0</ele><time>2026-04-12T16:10:52Z</time></trkpt><trkpt lat="41.873675985713916" lon="12.61895481687581"><ele>62.0</ele><time>2026-04-12T16:10:54Z</time></trkpt><trkpt lat="41.873590481402495" lon="12.619154189781607"><ele>62.0</ele><time>2026-04-12T16:10:55Z</time></trkpt><trkpt lat="41.87354267762806" lon="12.619220767881943"><ele>62.0</ele><time>2026-04-12T16:10:56Z</time></trkpt><trkpt lat="41.873447882795716" lon="12.61932632945958"><ele>61.85714285714286</ele><time>2026-04-12T16:10:58Z</time></trkpt><trkpt lat="41.873402050029746" lon="12.619391764007174"><ele>61.71428571428572</ele><time>2026-04-12T16:10:59Z</time></trkpt><trkpt lat="41.87335254183151" lon="12.619455034717886"><ele>61.57142857142857</ele><time>2026-04-12T16:11:00Z</time></trkpt><trkpt lat="41.873302158247895" lon="12.61951992226255"><ele>61.42857142857143</ele><time>2026-04-12T16:11:01Z</time></trkpt><trkpt lat="41.873250419317806" lon="12.619587619467763"><ele>61.285714285714285</ele><time>2026-04-12T16:11:02Z</time></trkpt><trkpt lat="41.87319669926143" lon="12.619655839040202"><ele>61.14285714285714</ele><time>2026-04-12T16:11:03Z</time></trkpt><trkpt lat="41.87314454099103" lon="12.619727198284913"><ele>60.99999999999999</ele><time>2026-04-12T16:11:04Z</time></trkpt><trkpt lat="41.873090391698874" lon="12.61979687887237"><ele>61.49999999999999</ele><time>2026-04-12T16:11:05Z</time></trkpt><trkpt lat="41.87303467898128" lon="12.619865228824029"><ele>62.0</ele><time>2026-04-12T16:11:06Z</time></trkpt><trkpt lat="41.872981131756156" lon="12.619933020358884"><ele>62.5</ele><time>2026-04-12T16:11:07Z</time></trkpt><trkpt lat="41.87293074748338" lon="12.620006889371018"><ele>63.0</ele><time>2026-04-12T16:11:08Z</time></trkpt><trkpt lat="41.87287883881841" lon="12.620074841918564"><ele>63.49999999999999</ele><time>2026-04-12T16:11:09Z</time></trkpt><trkpt lat="41.872830969045424" lon="12.620134775071062"><ele>64.0</ele><time>2026-04-12T16:11:10Z</time></trkpt><trkpt lat="41.87275531371257" lon="12.620225877971986"><ele>64.0</ele><time>2026-04-12T16:11:12Z</time></trkpt><trkpt lat="41.87269672835267" lon="12.620301984619456"><ele>64.0</ele><time>2026-04-12T16:11:14Z</time></trkpt><trkpt lat="41.872632489956366" lon="12.620383723514422"><ele>64.0</ele><time>2026-04-12T16:11:17Z</time></trkpt><trkpt lat="41.87255677545636" lon="12.62048561082872"><ele>64.0</ele><time>2026-04-12T16:11:19Z</time></trkpt><trkpt lat="41.87249187286416" lon="12.620565359223734"><ele>64.0</ele><time>2026-04-12T16:11:20Z</time></trkpt><trkpt lat="41.87241524858492" lon="12.620663552597184"><ele>64.5</ele><time>2026-04-12T16:11:21Z</time></trkpt><trkpt lat="41.872332897860495" lon="12.620772557864369"><ele>65.0</ele><time>2026-04-12T16:11:22Z</time></trkpt><trkpt lat="41.87225100226361" lon="12.620878367940312"><ele>65.5</ele><time>2026-04-12T16:11:22.999Z</time></trkpt><trkpt lat="41.872167506477886" lon="12.620989287233627"><ele>66.0</ele><time>2026-04-12T16:11:23.999Z</time></trkpt><trkpt lat="41.87207472767807" lon="12.621106508431732"><ele>65.75</ele><time>2026-04-12T16:11:24.999Z</time></trkpt><trkpt lat="41.87198092622675" lon="12.621229234938262"><ele>65.5</ele><time>2026-04-12T16:11:25.999Z</time></trkpt><trkpt lat="41.871886955204594" lon="12.62135287421193"><ele>65.25</ele><time>2026-04-12T16:11:26.999Z</time></trkpt><trkpt lat="41.87178842153082" lon="12.621483467785445"><ele>65.0</ele><time>2026-04-12T16:11:27.999Z</time></trkpt><trkpt lat="41.87169061554501" lon="12.621604016089824"><ele>65.0</ele><time>2026-04-12T16:11:28.999Z</time></trkpt><trkpt lat="41.871598488890015" lon="12.62171684637237"><ele>65.0</ele><time>2026-04-12T16:11:29.999Z</time></trkpt><trkpt lat="41.87151516923732" lon="12.621821443805644"><ele>65.0</ele><time>2026-04-12T16:11:30.999Z</time></trkpt><trkpt lat="41.87143411231475" lon="12.621915863879657"><ele>65.0</ele><time>2026-04-12T16:11:31.999Z</time></trkpt><trkpt lat="41.87135705591824" lon="12.622008214193308"><ele>65.0</ele><time>2026-04-12T16:11:32.999Z</time></trkpt><trkpt lat="41.871284077705916" lon="12.622101223521149"><ele>65.0</ele><time>2026-04-12T16:11:33.999Z</time></trkpt><trkpt lat="41.87121111698678" lon="12.622192113545994"><ele>65.0</ele><time>2026-04-12T16:11:34.999Z</time></trkpt><trkpt lat="41.8711410844024" lon="12.622288151056665"><ele>65.0</ele><time>2026-04-12T16:11:35.999Z</time></trkpt><trkpt lat="41.87107569037666" lon="12.622377342631358"><ele>65.0</ele><time>2026-04-12T16:11:36.999Z</time></trkpt><trkpt lat="41.87101954265017" lon="12.622454047098106"><ele>65.0</ele><time>2026-04-12T16:11:37.999Z</time></trkpt><trkpt lat="41.8709637297961" lon="12.622529674093823"><ele>65.33333333333334</ele><time>2026-04-12T16:11:38.999Z</time></trkpt><trkpt lat="41.87091285794907" lon="12.622594922298852"><ele>65.66666666666667</ele><time>2026-04-12T16:11:39.999Z</time></trkpt><trkpt lat="41.87083100049313" lon="12.62269333228158"><ele>66.0</ele><time>2026-04-12T16:11:41.999Z</time></trkpt><trkpt lat="41.87074588520707" lon="12.622796630381393"><ele>66.33333333333333</ele><time>2026-04-12T16:11:43.999Z</time></trkpt><trkpt lat="41.87069560761425" lon="12.622854623254032"><ele>66.66666666666666</ele><time>2026-04-12T16:11:44.999Z</time></trkpt><trkpt lat="41.87064214505525" lon="12.622922195691594"><ele>67.0</ele><time>2026-04-12T16:11:45.999Z</time></trkpt><trkpt lat="41.87059494566434" lon="12.62298495587583"><ele>67.0</ele><time>2026-04-12T16:11:46.999Z</time></trkpt><trkpt lat="41.870517796397976" lon="12.623088391649835"><ele>67.0</ele><time>2026-04-12T16:11:48.999Z</time></trkpt><trkpt lat="41.870449272513774" lon="12.623184561227196"><ele>67.0</ele><time>2026-04-12T16:11:50.999Z</time></trkpt><trkpt lat="41.870352237578764" lon="12.623297177076992"><ele>67.0</ele><time>2026-04-12T16:11:52.999Z</time></trkpt><trkpt lat="41.870285520533194" lon="12.623389744094908"><ele>67.0</ele><time>2026-04-12T16:11:53.999Z</time></trkpt><trkpt lat="41.87020439574683" lon="12.623495094432082"><ele>67.0</ele><time>2026-04-12T16:11:54.999Z</time></trkpt><trkpt lat="41.870122873257614" lon="12.62359706582404"><ele>67.0</ele><time>2026-04-12T16:11:55.999Z</time></trkpt><trkpt lat="41.8700399114626" lon="12.623702776602023"><ele>67.0</ele><time>2026-04-12T16:11:56.999Z</time></trkpt><trkpt lat="41.869962248836856" lon="12.623804076968426"><ele>67.0</ele><time>2026-04-12T16:11:57.999Z</time></trkpt><trkpt lat="41.86987650056247" lon="12.623914680063603"><ele>66.5</ele><time>2026-04-12T16:11:58.999Z</time></trkpt><trkpt lat="41.869781474000874" lon="12.624043281244836"><ele>66.0</ele><time>2026-04-12T16:11:59.999Z</time></trkpt><trkpt lat="41.869686667168544" lon="12.624175151618285"><ele>65.5</ele><time>2026-04-12T16:12:00.999Z</time></trkpt><trkpt lat="41.86959843470491" lon="12.624294867198095"><ele>65.0</ele><time>2026-04-12T16:12:01.999Z</time></trkpt><trkpt lat="41.86951442629812" lon="12.624407447103263"><ele>65.4</ele><time>2026-04-12T16:12:02.999Z</time></trkpt><trkpt lat="41.86943370910376" lon="12.624509308038599"><ele>65.8</ele><time>2026-04-12T16:12:03.999Z</time></trkpt><trkpt lat="41.86935780197828" lon="12.624603026213203"><ele>66.2</ele><time>2026-04-12T16:12:04.999Z</time></trkpt><trkpt lat="41.86928801940027" lon="12.624689993431248"><ele>66.6</ele><time>2026-04-12T16:12:05.999Z</time></trkpt><trkpt lat="41.86922564259942" lon="12.624771823144943"><ele>67.0</ele><time>2026-04-12T16:12:06.999Z</time></trkpt><trkpt lat="41.869171449607784" lon="12.624844519742739"><ele>67.0</ele><time>2026-04-12T16:12:07.999Z</time></trkpt><trkpt lat="41.869123983251335" lon="12.624906434945666"><ele>67.0</ele><time>2026-04-12T16:12:08.999Z</time></trkpt><trkpt lat="41.8690433432647" lon="12.62500691029095"><ele>67.0</ele><time>2026-04-12T16:12:10.999Z</time></trkpt><trkpt lat="41.86899192123605" lon="12.62506249907319"><ele>67.0</ele><time>2026-04-12T16:12:12.999Z</time></trkpt><trkpt lat="41.86891394347814" lon="12.625170074645837"><ele>67.0</ele><time>2026-04-12T16:12:15.999Z</time></trkpt><trkpt lat="41.868869383990564" lon="12.625236892612866"><ele>67.0</ele><time>2026-04-12T16:12:16.998Z</time></trkpt><trkpt lat="41.86881592563692" lon="12.62530971805249"><ele>67.5</ele><time>2026-04-12T16:12:17.998Z</time></trkpt><trkpt lat="41.86875682357803" lon="12.62539178780283"><ele>68.0</ele><time>2026-04-12T16:12:18.998Z</time></trkpt><trkpt lat="41.86869615837631" lon="12.625474125333836"><ele>68.5</ele><time>2026-04-12T16:12:19.998Z</time></trkpt><trkpt lat="41.8686349899563" lon="12.625553597542254"><ele>69.0</ele><time>2026-04-12T16:12:20.998Z</time></trkpt><trkpt lat="41.86858276318874" lon="12.625630242572072"><ele>69.5</ele><time>2026-04-12T16:12:21.998Z</time></trkpt><trkpt lat="41.868535104568814" lon="12.625699256299303"><ele>70.0</ele><time>2026-04-12T16:12:22.998Z</time></trkpt><trkpt lat="41.8684865383789" lon="12.625758494419166"><ele>70.0</ele><time>2026-04-12T16:12:23.998Z</time></trkpt><trkpt lat="41.86844358063919" lon="12.62582188901946"><ele>70.0</ele><time>2026-04-12T16:12:24.998Z</time></trkpt><trkpt lat="41.86839822928542" lon="12.625881896116807"><ele>70.0</ele><time>2026-04-12T16:12:25.998Z</time></trkpt><trkpt lat="41.868349610892494" lon="12.625936524692158"><ele>70.0</ele><time>2026-04-12T16:12:26.998Z</time></trkpt><trkpt lat="41.868296270256025" lon="12.625989682269752"><ele>70.0</ele><time>2026-04-12T16:12:27.998Z</time></trkpt><trkpt lat="41.86823838226053" lon="12.62604673581942"><ele>70.0</ele><time>2026-04-12T16:12:28.998Z</time></trkpt><trkpt lat="41.868180332811555" lon="12.626109153689972"><ele>70.0</ele><time>2026-04-12T16:12:29.998Z</time></trkpt><trkpt lat="41.868121190259494" lon="12.62617770193251"><ele>70.5</ele><time>2026-04-12T16:12:30.998Z</time></trkpt><trkpt lat="41.868060603572374" lon="12.626245194651403"><ele>71.0</ele><time>2026-04-12T16:12:31.998Z</time></trkpt><trkpt lat="41.86800238100976" lon="12.626314346254846"><ele>71.5</ele><time>2026-04-12T16:12:32.998Z</time></trkpt><trkpt lat="41.86794485204158" lon="12.626382936294464"><ele>72.0</ele><time>2026-04-12T16:12:33.998Z</time></trkpt><trkpt lat="41.86788684084039" lon="12.626451971573273"><ele>72.5</ele><time>2026-04-12T16:12:34.998Z</time></trkpt><trkpt lat="41.86783033051687" lon="12.62651871002369"><ele>73.0</ele><time>2026-04-12T16:12:35.998Z</time></trkpt><trkpt lat="41.86777615504077" lon="12.626580993210055"><ele>73.0</ele><time>2026-04-12T16:12:36.998Z</time></trkpt><trkpt lat="41.86772295688789" lon="12.626639757450606"><ele>73.0</ele><time>2026-04-12T16:12:37.998Z</time></trkpt><trkpt lat="41.86766463576734" lon="12.626701884078226"><ele>73.0</ele><time>2026-04-12T16:12:38.998Z</time></trkpt><trkpt lat="41.86760121368367" lon="12.62676570404726"><ele>73.0</ele><time>2026-04-12T16:12:39.998Z</time></trkpt><trkpt lat="41.86753147002406" lon="12.626826627058437"><ele>73.0</ele><time>2026-04-12T16:12:40.998Z</time></trkpt><trkpt lat="41.867457540121784" lon="12.626886301886286"><ele>73.0</ele><time>2026-04-12T16:12:41.998Z</time></trkpt><trkpt lat="41.867381244129405" lon="12.626949785178594"><ele>72.66666666666666</ele><time>2026-04-12T16:12:42.998Z</time></trkpt><trkpt lat="41.86730544276641" lon="12.627015402253985"><ele>72.33333333333333</ele><time>2026-04-12T16:12:43.998Z</time></trkpt><trkpt lat="41.867232688632654" lon="12.627084094104223"><ele>72.0</ele><time>2026-04-12T16:12:44.998Z</time></trkpt><trkpt lat="41.86716482925232" lon="12.627154131732796"><ele>71.66666666666667</ele><time>2026-04-12T16:12:45.998Z</time></trkpt><trkpt lat="41.867102419560936" lon="12.627224982833656"><ele>71.33333333333334</ele><time>2026-04-12T16:12:46.998Z</time></trkpt><trkpt lat="41.867046334223325" lon="12.627293221219531"><ele>71.0</ele><time>2026-04-12T16:12:47.998Z</time></trkpt><trkpt lat="41.866993514081685" lon="12.62736146356509"><ele>71.0</ele><time>2026-04-12T16:12:48.998Z</time></trkpt><trkpt lat="41.86693200680894" lon="12.627443197873502"><ele>71.0</ele><time>2026-04-12T16:12:49.998Z</time></trkpt><trkpt lat="41.86686447376039" lon="12.627536909664082"><ele>71.0</ele><time>2026-04-12T16:12:50.998Z</time></trkpt><trkpt lat="41.866788767758315" lon="12.627637729020373"><ele>71.0</ele><time>2026-04-12T16:12:51.998Z</time></trkpt><trkpt lat="41.866711007739724" lon="12.627741008597349"><ele>71.0</ele><time>2026-04-12T16:12:52.998Z</time></trkpt><trkpt lat="41.86663253186881" lon="12.62784739866045"><ele>70.6</ele><time>2026-04-12T16:12:53.998Z</time></trkpt><trkpt lat="41.8665528073829" lon="12.627949774739308"><ele>70.19999999999999</ele><time>2026-04-12T16:12:54.998Z</time></trkpt><trkpt lat="41.86648144896572" lon="12.628048399310744"><ele>69.80000000000001</ele><time>2026-04-12T16:12:56Z</time></trkpt><trkpt lat="41.86641363728828" lon="12.628139347640305"><ele>69.4</ele><time>2026-04-12T16:12:57Z</time></trkpt><trkpt lat="41.86634139206861" lon="12.628230954717905"><ele>69.0</ele><time>2026-04-12T16:12:58Z</time></trkpt><trkpt lat="41.86626992843909" lon="12.62832283739041"><ele>69.0</ele><time>2026-04-12T16:12:59Z</time></trkpt><trkpt lat="41.866196258860604" lon="12.62841601152787"><ele>69.0</ele><time>2026-04-12T16:13:00Z</time></trkpt><trkpt lat="41.86612237503159" lon="12.628511411704176"><ele>69.0</ele><time>2026-04-12T16:13:01Z</time></trkpt><trkpt lat="41.8660471658375" lon="12.628611350860215"><ele>69.0</ele><time>2026-04-12T16:13:02Z</time></trkpt><trkpt lat="41.865969938782165" lon="12.628713365994914"><ele>69.0</ele><time>2026-04-12T16:13:03Z</time></trkpt><trkpt lat="41.86589054067389" lon="12.628817882724166"><ele>69.60000000000001</ele><time>2026-04-12T16:13:04Z</time></trkpt><trkpt lat="41.865810797129235" lon="12.628924757605223"><ele>70.2</ele><time>2026-04-12T16:13:05Z</time></trkpt><trkpt lat="41.865730243618046" lon="12.629026180170918"><ele>70.80000000000001</ele><time>2026-04-12T16:13:06Z</time></trkpt><trkpt lat="41.86564944763455" lon="12.629129169588422"><ele>71.4</ele><time>2026-04-12T16:13:07Z</time></trkpt><trkpt lat="41.865572945100254" lon="12.629230849801246"><ele>72.0</ele><time>2026-04-12T16:13:08Z</time></trkpt><trkpt lat="41.86550247890309" lon="12.629329725796126"><ele>72.0</ele><time>2026-04-12T16:13:09Z</time></trkpt><trkpt lat="41.865434715534505" lon="12.629424477022734"><ele>72.0</ele><time>2026-04-12T16:13:10Z</time></trkpt><trkpt lat="41.86536588407629" lon="12.629510988217914"><ele>72.0</ele><time>2026-04-12T16:13:11Z</time></trkpt><trkpt lat="41.86530431919051" lon="12.62958535076756"><ele>72.0</ele><time>2026-04-12T16:13:12Z</time></trkpt><trkpt lat="41.8652463879957" lon="12.629660358837901"><ele>72.0</ele><time>2026-04-12T16:13:13Z</time></trkpt><trkpt lat="41.865199026639154" lon="12.62973675484175"><ele>72.0</ele><time>2026-04-12T16:13:14Z</time></trkpt><trkpt lat="41.86515898105164" lon="12.629821593163658"><ele>71.8</ele><time>2026-04-12T16:13:15Z</time></trkpt><trkpt lat="41.865120565083664" lon="12.629911642102487"><ele>71.6</ele><time>2026-04-12T16:13:16Z</time></trkpt><trkpt lat="41.86508267052401" lon="12.630016153289576"><ele>71.39999999999999</ele><time>2026-04-12T16:13:17Z</time></trkpt><trkpt lat="41.865044520807906" lon="12.630134196436858"><ele>71.2</ele><time>2026-04-12T16:13:18Z</time></trkpt><trkpt lat="41.86500721249595" lon="12.630262918444018"><ele>71.0</ele><time>2026-04-12T16:13:19Z</time></trkpt><trkpt lat="41.86496497880116" lon="12.630400354394823"><ele>70.75</ele><time>2026-04-12T16:13:20Z</time></trkpt><trkpt lat="41.86492164061092" lon="12.630546942204607"><ele>70.5</ele><time>2026-04-12T16:13:21Z</time></trkpt><trkpt lat="41.864874615328716" lon="12.63069774222459"><ele>70.25</ele><time>2026-04-12T16:13:22Z</time></trkpt><trkpt lat="41.86482911839914" lon="12.630845357282725"><ele>70.0</ele><time>2026-04-12T16:13:23Z</time></trkpt><trkpt lat="41.864781833213" lon="12.630983316853142"><ele>70.0</ele><time>2026-04-12T16:13:24Z</time></trkpt><trkpt lat="41.86473151858413" lon="12.631105430541007"><ele>70.0</ele><time>2026-04-12T16:13:25Z</time></trkpt><trkpt lat="41.86467831332925" lon="12.631204407336687"><ele>70.0</ele><time>2026-04-12T16:13:26Z</time></trkpt><trkpt lat="41.86462178218217" lon="12.631272456527869"><ele>70.0</ele><time>2026-04-12T16:13:26.999Z</time></trkpt><trkpt lat="41.86456741080263" lon="12.631324879865446"><ele>70.0</ele><time>2026-04-12T16:13:27.999Z</time></trkpt><trkpt lat="41.8645155544769" lon="12.631379517913883"><ele>70.0</ele><time>2026-04-12T16:13:28.999Z</time></trkpt><trkpt lat="41.864417517096676" lon="12.631418812620627"><ele>70.2</ele><time>2026-04-12T16:13:30.999Z</time></trkpt><trkpt lat="41.86445634530351" lon="12.631624836084347"><ele>70.4</ele><time>2026-04-12T16:13:31.999Z</time></trkpt><trkpt lat="41.86445980240021" lon="12.631724500691215"><ele>70.6</ele><time>2026-04-12T16:13:32.999Z</time></trkpt><trkpt lat="41.86446116188572" lon="12.631826637938799"><ele>70.8</ele><time>2026-04-12T16:13:33.999Z</time></trkpt><trkpt lat="41.86446349360663" lon="12.631929707874441"><ele>71.0</ele><time>2026-04-12T16:13:34.999Z</time></trkpt><trkpt lat="41.86446665477227" lon="12.63202043741293"><ele>71.16666666666667</ele><time>2026-04-12T16:13:35.999Z</time></trkpt><trkpt lat="41.864471581232145" lon="12.632108027136256"><ele>71.33333333333334</ele><time>2026-04-12T16:13:36.999Z</time></trkpt><trkpt lat="41.86448518720058" lon="12.632199329239764"><ele>71.5</ele><time>2026-04-12T16:13:37.999Z</time></trkpt><trkpt lat="41.864516777368124" lon="12.632284432608738"><ele>71.66666666666667</ele><time>2026-04-12T16:13:38.999Z</time></trkpt><trkpt lat="41.86451045722362" lon="12.632393505942266"><ele>71.83333333333333</ele><time>2026-04-12T16:13:39.999Z</time></trkpt><trkpt lat="41.86450119935757" lon="12.632506415881137"><ele>72.0</ele><time>2026-04-12T16:13:40.999Z</time></trkpt><trkpt lat="41.864506905343724" lon="12.63262842888349"><ele>72.0</ele><time>2026-04-12T16:13:41.999Z</time></trkpt><trkpt lat="41.86451292176392" lon="12.632757080021198"><ele>72.0</ele><time>2026-04-12T16:13:42.999Z</time></trkpt><trkpt lat="41.86453380477724" lon="12.632888068970388"><ele>72.0</ele><time>2026-04-12T16:13:43.999Z</time></trkpt><trkpt lat="41.864534198885494" lon="12.633021108827414"><ele>72.0</ele><time>2026-04-12T16:13:44.999Z</time></trkpt><trkpt lat="41.864530811316385" lon="12.633152507352595"><ele>72.0</ele><time>2026-04-12T16:13:45.999Z</time></trkpt><trkpt lat="41.864526485725484" lon="12.633274465734349"><ele>71.83333333333333</ele><time>2026-04-12T16:13:46.999Z</time></trkpt><trkpt lat="41.86452123782442" lon="12.633387409436505"><ele>71.66666666666667</ele><time>2026-04-12T16:13:47.999Z</time></trkpt><trkpt lat="41.864515412198855" lon="12.633493525184425"><ele>71.5</ele><time>2026-04-12T16:13:48.999Z</time></trkpt><trkpt lat="41.86451200733983" lon="12.633591275764637"><ele>71.33333333333334</ele><time>2026-04-12T16:13:49.999Z</time></trkpt><trkpt lat="41.86450998540394" lon="12.633682067156176"><ele>71.16666666666667</ele><time>2026-04-12T16:13:50.999Z</time></trkpt><trkpt lat="41.86450177801864" lon="12.633768760125644"><ele>71.0</ele><time>2026-04-12T16:13:51.999Z</time></trkpt><trkpt lat="41.864493093254815" lon="12.63392918281944"><ele>71.0</ele><time>2026-04-12T16:13:53.999Z</time></trkpt><trkpt lat="41.86448655852193" lon="12.634047884770036"><ele>71.0</ele><time>2026-04-12T16:13:55.999Z</time></trkpt><trkpt lat="41.864502904379876" lon="12.634159676338728"><ele>71.0</ele><time>2026-04-12T16:13:58.999Z</time></trkpt><trkpt lat="41.864555213214615" lon="12.634218499231089"><ele>71.0</ele><time>2026-04-12T16:14:01.999Z</time></trkpt><trkpt lat="41.86458586881868" lon="12.63429571632062"><ele>71.0</ele><time>2026-04-12T16:14:12.999Z</time></trkpt><trkpt lat="41.8645848202732" lon="12.634392577700037"><ele>71.0</ele><time>2026-04-12T16:14:15.999Z</time></trkpt><trkpt lat="41.86458506119186" lon="12.63421394476538"><ele>71.0</ele><time>2026-04-12T16:14:47.998Z</time></trkpt><trkpt lat="41.86465911169071" lon="12.634319941994237"><ele>71.0</ele><time>2026-04-12T16:16:59.061Z</time></trkpt><trkpt lat="41.86457841822051" lon="12.634334859163866"><ele>71.0</ele><time>2026-04-12T16:17:28.031Z</time></trkpt><trkpt lat="41.86465095035019" lon="12.634314484208106"><ele>71.0</ele><time>2026-04-12T16:18:32Z</time></trkpt><trkpt lat="41.864698851953996" lon="12.634384650933802"><ele>71.0</ele><time>2026-04-12T16:19:04.999Z</time></trkpt><trkpt lat="41.86472636874865" lon="12.63447975567472"><ele>71.0</ele><time>2026-04-12T16:19:17.999Z</time></trkpt><trkpt lat="41.86487317370509" lon="12.634349187510688"><ele>71.0</ele><time>2026-04-12T16:19:23.999Z</time></trkpt><trkpt lat="41.86491439521866" lon="12.634265378026722"><ele>71.0</ele><time>2026-04-12T16:19:29.999Z</time></trkpt><trkpt lat="41.864824285267346" lon="12.634216903840425"><ele>71.0</ele><time>2026-04-12T16:19:35.999Z</time></trkpt><trkpt lat="41.86473667925162" lon="12.634264218952667"><ele>71.0</ele><time>2026-04-12T16:19:40.999Z</time></trkpt><trkpt lat="41.86469393751506" lon="12.634328158285982"><ele>71.0</ele><time>2026-04-12T16:19:46.998Z</time></trkpt><trkpt lat="41.864659713684134" lon="12.634254890663346"><ele>71.0</ele><time>2026-04-12T16:22:48Z</time></trkpt><trkpt lat="41.86472461870786" lon="12.634293048806944"><ele>71.0</ele><time>2026-04-12T16:29:10Z</time></trkpt><trkpt lat="41.86466388847487" lon="12.634321921599673"><ele>71.0</ele><time>2026-04-12T16:29:25.999Z</time></trkpt><trkpt lat="41.864627672015374" lon="12.634401568994463"><ele>71.0</ele><time>2026-04-12T16:29:27.999Z</time></trkpt><trkpt lat="41.86463122344948" lon="12.634638213576157"><ele>71.0</ele><time>2026-04-12T16:29:40.999Z</time></trkpt><trkpt lat="41.86454374060232" lon="12.634984967315605"><ele>71.0</ele><time>2026-04-12T16:29:44.999Z</time></trkpt><trkpt lat="41.86461878020325" lon="12.635176665599644"><ele>71.0</ele><time>2026-04-12T16:29:45.999Z</time></trkpt><trkpt lat="41.86462146550874" lon="12.635306602581283"><ele>71.0</ele><time>2026-04-12T16:29:47.999Z</time></trkpt><trkpt lat="41.864578419400836" lon="12.63521679967302"><ele>71.0</ele><time>2026-04-12T16:29:50.999Z</time></trkpt><trkpt lat="41.864707879721564" lon="12.634308006023533"><ele>71.0</ele><time>2026-04-12T16:29:51.999Z</time></trkpt></trkseg></trk></gpx>